<?xml version='1.0' encoding='UTF-8'?><gpx version="1.1" creator="JPX - https://github.com/jenetics/jpx" xmlns="http://www.topografix.com/GPX/1/1"><trk><trkseg><trkpt lat="40.8938244" lon="14.2877824"><ele>80.0</ele><time>2026-04-26T06:47:37.159Z</time></trkpt><trkpt lat="40.8938502" lon="14.287676"><ele>80.0</ele><time>2026-04-26T06:47:42.065Z</time></trkpt><trkpt lat="40.8939022" lon="14.287728"><ele>80.0</ele><time>2026-04-26T06:47:48.156Z</time></trkpt><trkpt lat="40.8939359" lon="14.2878096"><ele>80.0</ele><time>2026-04-26T06:47:49.063Z</time></trkpt><trkpt lat="40.8939659" lon="14.2878955"><ele>80.0</ele><time>2026-04-26T06:47:53.194Z</time></trkpt><trkpt lat="40.8940892" lon="14.2882027"><ele>79.75</ele><time>2026-04-26T06:47:56.216Z</time></trkpt><trkpt lat="40.8941306" lon="14.2883062"><ele>79.5</ele><time>2026-04-26T06:47:57.248Z</time></trkpt><trkpt lat="40.8941801" lon="14.2884735"><ele>79.25</ele><time>2026-04-26T06:47:59.238Z</time></trkpt><trkpt lat="40.8942463" lon="14.2887449"><ele>79.0</ele><time>2026-04-26T06:48:02.284Z</time></trkpt><trkpt lat="40.8942747" lon="14.2888311"><ele>78.75</ele><time>2026-04-26T06:48:05.197Z</time></trkpt><trkpt lat="40.8943417" lon="14.2890526"><ele>78.5</ele><time>2026-04-26T06:48:06.157Z</time></trkpt><trkpt lat="40.8943702" lon="14.2892053"><ele>78.25</ele><time>2026-04-26T06:48:07.157Z</time></trkpt><trkpt lat="40.8943904" lon="14.2893388"><ele>78.0</ele><time>2026-04-26T06:48:08.159Z</time></trkpt><trkpt lat="40.8943966" lon="14.2894534"><ele>78.0</ele><time>2026-04-26T06:48:09.156Z</time></trkpt><trkpt lat="40.8943893" lon="14.2895586"><ele>78.0</ele><time>2026-04-26T06:48:10.157Z</time></trkpt><trkpt lat="40.894372" lon="14.2896609"><ele>78.0</ele><time>2026-04-26T06:48:11.158Z</time></trkpt><trkpt lat="40.89435" lon="14.2897588"><ele>78.0</ele><time>2026-04-26T06:48:12.157Z</time></trkpt><trkpt lat="40.8943228" lon="14.2898473"><ele>78.0</ele><time>2026-04-26T06:48:13.158Z</time></trkpt><trkpt lat="40.8942876" lon="14.289928"><ele>78.0</ele><time>2026-04-26T06:48:14.158Z</time></trkpt><trkpt lat="40.8942594" lon="14.2900115"><ele>78.0</ele><time>2026-04-26T06:48:15.157Z</time></trkpt><trkpt lat="40.8942362" lon="14.2900936"><ele>77.8</ele><time>2026-04-26T06:48:16.157Z</time></trkpt><trkpt lat="40.8942109" lon="14.2901801"><ele>77.6</ele><time>2026-04-26T06:48:17.157Z</time></trkpt><trkpt lat="40.8941923" lon="14.2902654"><ele>77.4</ele><time>2026-04-26T06:48:18.157Z</time></trkpt><trkpt lat="40.8941523" lon="14.2904214"><ele>77.2</ele><time>2026-04-26T06:48:20.157Z</time></trkpt><trkpt lat="40.8941223" lon="14.2905563"><ele>77.0</ele><time>2026-04-26T06:48:22.156Z</time></trkpt><trkpt lat="40.8941433" lon="14.29067"><ele>76.8</ele><time>2026-04-26T06:48:25.156Z</time></trkpt><trkpt lat="40.8941917" lon="14.290745"><ele>76.6</ele><time>2026-04-26T06:48:27.157Z</time></trkpt><trkpt lat="40.8942383" lon="14.2908517"><ele>76.39999999999999</ele><time>2026-04-26T06:48:29.158Z</time></trkpt><trkpt lat="40.8942983" lon="14.2909517"><ele>76.2</ele><time>2026-04-26T06:48:31.157Z</time></trkpt><trkpt lat="40.8943933" lon="14.2910533"><ele>76.0</ele><time>2026-04-26T06:48:33.157Z</time></trkpt><trkpt lat="40.894435" lon="14.2911417"><ele>76.0</ele><time>2026-04-26T06:48:34.157Z</time></trkpt><trkpt lat="40.8944817" lon="14.2912133"><ele>76.0</ele><time>2026-04-26T06:48:35.157Z</time></trkpt><trkpt lat="40.8945283" lon="14.29128"><ele>76.0</ele><time>2026-04-26T06:48:36.157Z</time></trkpt><trkpt lat="40.8946083" lon="14.2914067"><ele>76.0</ele><time>2026-04-26T06:48:38.157Z</time></trkpt><trkpt lat="40.89468" lon="14.2915367"><ele>76.0</ele><time>2026-04-26T06:48:40.157Z</time></trkpt><trkpt lat="40.894745" lon="14.291665"><ele>76.2</ele><time>2026-04-26T06:48:42.157Z</time></trkpt><trkpt lat="40.8948033" lon="14.291795"><ele>76.39999999999999</ele><time>2026-04-26T06:48:44.158Z</time></trkpt><trkpt lat="40.8948583" lon="14.29192"><ele>76.6</ele><time>2026-04-26T06:48:46.158Z</time></trkpt><trkpt lat="40.8949083" lon="14.2920433"><ele>76.8</ele><time>2026-04-26T06:48:48.157Z</time></trkpt><trkpt lat="40.89496" lon="14.29216"><ele>77.0</ele><time>2026-04-26T06:48:50.157Z</time></trkpt><trkpt lat="40.8950033" lon="14.2922383"><ele>77.0</ele><time>2026-04-26T06:48:52.156Z</time></trkpt><trkpt lat="40.89506" lon="14.292285"><ele>77.0</ele><time>2026-04-26T06:48:55.157Z</time></trkpt><trkpt lat="40.8951283" lon="14.29227"><ele>77.0</ele><time>2026-04-26T06:48:57.157Z</time></trkpt><trkpt lat="40.8952117" lon="14.2922483"><ele>77.0</ele><time>2026-04-26T06:48:59.158Z</time></trkpt><trkpt lat="40.8953033" lon="14.292255"><ele>77.0</ele><time>2026-04-26T06:49:01.158Z</time></trkpt><trkpt lat="40.89537" lon="14.292305"><ele>77.0</ele><time>2026-04-26T06:49:03.157Z</time></trkpt><trkpt lat="40.8953933" lon="14.292415"><ele>77.25</ele><time>2026-04-26T06:49:05.158Z</time></trkpt><trkpt lat="40.8954217" lon="14.2925533"><ele>77.5</ele><time>2026-04-26T06:49:07.157Z</time></trkpt><trkpt lat="40.8954483" lon="14.2927167"><ele>77.75</ele><time>2026-04-26T06:49:09.157Z</time></trkpt><trkpt lat="40.8954883" lon="14.292865"><ele>78.0</ele><time>2026-04-26T06:49:11.157Z</time></trkpt><trkpt lat="40.8955567" lon="14.2929617"><ele>78.0</ele><time>2026-04-26T06:49:13.156Z</time></trkpt><trkpt lat="40.8956267" lon="14.2930267"><ele>78.0</ele><time>2026-04-26T06:49:15.157Z</time></trkpt><trkpt lat="40.8956867" lon="14.2929467"><ele>78.0</ele><time>2026-04-26T06:49:19.158Z</time></trkpt><trkpt lat="40.89573" lon="14.2928617"><ele>78.0</ele><time>2026-04-26T06:49:22.158Z</time></trkpt><trkpt lat="40.8957317" lon="14.29275"><ele>78.0</ele><time>2026-04-26T06:49:26.158Z</time></trkpt><trkpt lat="40.8956817" lon="14.2926367"><ele>78.0</ele><time>2026-04-26T06:49:28.157Z</time></trkpt><trkpt lat="40.8957017" lon="14.2925517"><ele>78.0</ele><time>2026-04-26T06:49:30.157Z</time></trkpt><trkpt lat="40.8957483" lon="14.2924867"><ele>78.0</ele><time>2026-04-26T06:49:31.158Z</time></trkpt><trkpt lat="40.8957783" lon="14.292185"><ele>78.0</ele><time>2026-04-26T06:49:33.159Z</time></trkpt><trkpt lat="40.89581" lon="14.2920617"><ele>78.0</ele><time>2026-04-26T06:49:34.159Z</time></trkpt><trkpt lat="40.8958483" lon="14.291935"><ele>78.0</ele><time>2026-04-26T06:49:35.159Z</time></trkpt><trkpt lat="40.8958733" lon="14.291815"><ele>78.0</ele><time>2026-04-26T06:49:36.158Z</time></trkpt><trkpt lat="40.89588" lon="14.2917117"><ele>78.0</ele><time>2026-04-26T06:49:37.158Z</time></trkpt><trkpt lat="40.8958817" lon="14.2916117"><ele>78.0</ele><time>2026-04-26T06:49:38.161Z</time></trkpt><trkpt lat="40.8958683" lon="14.2915033"><ele>78.0</ele><time>2026-04-26T06:49:39.158Z</time></trkpt><trkpt lat="40.8958417" lon="14.2913983"><ele>78.0</ele><time>2026-04-26T06:49:40.16Z</time></trkpt><trkpt lat="40.895815" lon="14.2911717"><ele>78.0</ele><time>2026-04-26T06:49:41.159Z</time></trkpt><trkpt lat="40.895775" lon="14.2910383"><ele>78.0</ele><time>2026-04-26T06:49:42.159Z</time></trkpt><trkpt lat="40.8957383" lon="14.2909467"><ele>78.0</ele><time>2026-04-26T06:49:43.158Z</time></trkpt><trkpt lat="40.8957067" lon="14.2908667"><ele>78.0</ele><time>2026-04-26T06:49:44.159Z</time></trkpt><trkpt lat="40.8956717" lon="14.2907833"><ele>78.0</ele><time>2026-04-26T06:49:45.16Z</time></trkpt><trkpt lat="40.8956417" lon="14.2906983"><ele>78.0</ele><time>2026-04-26T06:49:46.158Z</time></trkpt><trkpt lat="40.895615" lon="14.2906117"><ele>77.8</ele><time>2026-04-26T06:49:47.159Z</time></trkpt><trkpt lat="40.895595" lon="14.2905217"><ele>77.6</ele><time>2026-04-26T06:49:48.159Z</time></trkpt><trkpt lat="40.8955767" lon="14.2904233"><ele>77.4</ele><time>2026-04-26T06:49:49.158Z</time></trkpt><trkpt lat="40.8955583" lon="14.2903333"><ele>77.2</ele><time>2026-04-26T06:49:50.158Z</time></trkpt><trkpt lat="40.89553" lon="14.2901783"><ele>77.0</ele><time>2026-04-26T06:49:52.157Z</time></trkpt><trkpt lat="40.895505" lon="14.2900183"><ele>77.0</ele><time>2026-04-26T06:49:54.158Z</time></trkpt><trkpt lat="40.8954933" lon="14.289935"><ele>77.0</ele><time>2026-04-26T06:49:55.157Z</time></trkpt><trkpt lat="40.8954733" lon="14.2897717"><ele>77.0</ele><time>2026-04-26T06:49:57.157Z</time></trkpt><trkpt lat="40.895465" lon="14.2896867"><ele>77.0</ele><time>2026-04-26T06:49:58.156Z</time></trkpt><trkpt lat="40.89544" lon="14.2895283"><ele>77.0</ele><time>2026-04-26T06:50:00.156Z</time></trkpt><trkpt lat="40.8954183" lon="14.2893733"><ele>77.0</ele><time>2026-04-26T06:50:02.158Z</time></trkpt><trkpt lat="40.8954" lon="14.2892117"><ele>77.0</ele><time>2026-04-26T06:50:04.157Z</time></trkpt><trkpt lat="40.8953833" lon="14.2890517"><ele>77.0</ele><time>2026-04-26T06:50:06.158Z</time></trkpt><trkpt lat="40.89537" lon="14.2889017"><ele>77.0</ele><time>2026-04-26T06:50:08.158Z</time></trkpt><trkpt lat="40.895355" lon="14.288755"><ele>77.0</ele><time>2026-04-26T06:50:10.156Z</time></trkpt><trkpt lat="40.8953367" lon="14.2886217"><ele>77.0</ele><time>2026-04-26T06:50:12.158Z</time></trkpt><trkpt lat="40.89532" lon="14.2885033"><ele>77.0</ele><time>2026-04-26T06:50:14.16Z</time></trkpt><trkpt lat="40.895305" lon="14.2883933"><ele>77.0</ele><time>2026-04-26T06:50:16.157Z</time></trkpt><trkpt lat="40.895295" lon="14.28828"><ele>77.0</ele><time>2026-04-26T06:50:18.16Z</time></trkpt><trkpt lat="40.8952883" lon="14.288155"><ele>76.8</ele><time>2026-04-26T06:50:20.158Z</time></trkpt><trkpt lat="40.89528" lon="14.288025"><ele>76.6</ele><time>2026-04-26T06:50:22.157Z</time></trkpt><trkpt lat="40.8952683" lon="14.2879"><ele>76.39999999999999</ele><time>2026-04-26T06:50:24.157Z</time></trkpt><trkpt lat="40.8952533" lon="14.2877883"><ele>76.2</ele><time>2026-04-26T06:50:26.16Z</time></trkpt><trkpt lat="40.8952383" lon="14.2876767"><ele>76.0</ele><time>2026-04-26T06:50:28.156Z</time></trkpt><trkpt lat="40.8952267" lon="14.2875633"><ele>76.0</ele><time>2026-04-26T06:50:30.158Z</time></trkpt><trkpt lat="40.8952133" lon="14.2874567"><ele>76.0</ele><time>2026-04-26T06:50:32.159Z</time></trkpt><trkpt lat="40.8952017" lon="14.28735"><ele>76.0</ele><time>2026-04-26T06:50:34.156Z</time></trkpt><trkpt lat="40.8951867" lon="14.2872483"><ele>76.0</ele><time>2026-04-26T06:50:36.157Z</time></trkpt><trkpt lat="40.8951733" lon="14.2871367"><ele>76.0</ele><time>2026-04-26T06:50:38.156Z</time></trkpt><trkpt lat="40.89516" lon="14.2870333"><ele>76.0</ele><time>2026-04-26T06:50:40.157Z</time></trkpt><trkpt lat="40.8951483" lon="14.28692"><ele>76.39999999999999</ele><time>2026-04-26T06:50:42.158Z</time></trkpt><trkpt lat="40.8951417" lon="14.2867983"><ele>76.8</ele><time>2026-04-26T06:50:44.157Z</time></trkpt><trkpt lat="40.8951283" lon="14.2866767"><ele>77.19999999999999</ele><time>2026-04-26T06:50:46.157Z</time></trkpt><trkpt lat="40.895115" lon="14.2865517"><ele>77.6</ele><time>2026-04-26T06:50:48.157Z</time></trkpt><trkpt lat="40.89511" lon="14.2864283"><ele>78.0</ele><time>2026-04-26T06:50:50.159Z</time></trkpt><trkpt lat="40.89511" lon="14.2862967"><ele>78.0</ele><time>2026-04-26T06:50:52.156Z</time></trkpt><trkpt lat="40.895105" lon="14.2861633"><ele>78.0</ele><time>2026-04-26T06:50:54.158Z</time></trkpt><trkpt lat="40.8951" lon="14.28603"><ele>78.0</ele><time>2026-04-26T06:50:56.158Z</time></trkpt><trkpt lat="40.895085" lon="14.2858917"><ele>78.0</ele><time>2026-04-26T06:50:58.163Z</time></trkpt><trkpt lat="40.8950733" lon="14.2857583"><ele>78.0</ele><time>2026-04-26T06:51:00.156Z</time></trkpt><trkpt lat="40.8950717" lon="14.2856317"><ele>78.8</ele><time>2026-04-26T06:51:02.158Z</time></trkpt><trkpt lat="40.8950683" lon="14.285495"><ele>79.6</ele><time>2026-04-26T06:51:04.157Z</time></trkpt><trkpt lat="40.8950733" lon="14.2853567"><ele>80.39999999999999</ele><time>2026-04-26T06:51:06.157Z</time></trkpt><trkpt lat="40.895075" lon="14.2852167"><ele>81.19999999999999</ele><time>2026-04-26T06:51:08.157Z</time></trkpt><trkpt lat="40.8950783" lon="14.2850817"><ele>82.0</ele><time>2026-04-26T06:51:10.157Z</time></trkpt><trkpt lat="40.8950817" lon="14.2849383"><ele>82.0</ele><time>2026-04-26T06:51:12.157Z</time></trkpt><trkpt lat="40.8950883" lon="14.28479"><ele>82.0</ele><time>2026-04-26T06:51:14.157Z</time></trkpt><trkpt lat="40.8951017" lon="14.2846317"><ele>82.0</ele><time>2026-04-26T06:51:16.156Z</time></trkpt><trkpt lat="40.8951133" lon="14.2844717"><ele>82.0</ele><time>2026-04-26T06:51:18.159Z</time></trkpt><trkpt lat="40.8951317" lon="14.2843017"><ele>81.99999999999999</ele><time>2026-04-26T06:51:20.157Z</time></trkpt><trkpt lat="40.8951433" lon="14.28421"><ele>82.0</ele><time>2026-04-26T06:51:21.157Z</time></trkpt><trkpt lat="40.8951583" lon="14.284115"><ele>82.0</ele><time>2026-04-26T06:51:22.157Z</time></trkpt><trkpt lat="40.89518" lon="14.2840233"><ele>82.0</ele><time>2026-04-26T06:51:23.158Z</time></trkpt><trkpt lat="40.895205" lon="14.283935"><ele>82.0</ele><time>2026-04-26T06:51:24.157Z</time></trkpt><trkpt lat="40.8952317" lon="14.2838517"><ele>81.99999999999999</ele><time>2026-04-26T06:51:25.158Z</time></trkpt><trkpt lat="40.8952567" lon="14.2837667"><ele>82.0</ele><time>2026-04-26T06:51:26.157Z</time></trkpt><trkpt lat="40.89528" lon="14.2836833"><ele>82.0</ele><time>2026-04-26T06:51:27.157Z</time></trkpt><trkpt lat="40.895325" lon="14.2835333"><ele>82.0</ele><time>2026-04-26T06:51:29.158Z</time></trkpt><trkpt lat="40.89535" lon="14.2834567"><ele>82.0</ele><time>2026-04-26T06:51:30.156Z</time></trkpt><trkpt lat="40.8953767" lon="14.28338"><ele>82.0</ele><time>2026-04-26T06:51:31.157Z</time></trkpt><trkpt lat="40.8954267" lon="14.2832283"><ele>82.0</ele><time>2026-04-26T06:51:33.159Z</time></trkpt><trkpt lat="40.8954567" lon="14.2831533"><ele>82.0</ele><time>2026-04-26T06:51:34.157Z</time></trkpt><trkpt lat="40.8955217" lon="14.2830183"><ele>81.66666666666666</ele><time>2026-04-26T06:51:36.157Z</time></trkpt><trkpt lat="40.8955933" lon="14.2828817"><ele>81.33333333333333</ele><time>2026-04-26T06:51:38.157Z</time></trkpt><trkpt lat="40.8956317" lon="14.2828033"><ele>81.0</ele><time>2026-04-26T06:51:39.156Z</time></trkpt><trkpt lat="40.8956733" lon="14.2827317"><ele>80.66666666666667</ele><time>2026-04-26T06:51:40.157Z</time></trkpt><trkpt lat="40.895715" lon="14.282655"><ele>80.33333333333334</ele><time>2026-04-26T06:51:41.157Z</time></trkpt><trkpt lat="40.8957567" lon="14.2825817"><ele>80.0</ele><time>2026-04-26T06:51:42.158Z</time></trkpt><trkpt lat="40.8957983" lon="14.2825067"><ele>80.0</ele><time>2026-04-26T06:51:43.159Z</time></trkpt><trkpt lat="40.8958383" lon="14.2824333"><ele>80.0</ele><time>2026-04-26T06:51:44.158Z</time></trkpt><trkpt lat="40.8958833" lon="14.2823617"><ele>80.0</ele><time>2026-04-26T06:51:45.159Z</time></trkpt><trkpt lat="40.895925" lon="14.2822917"><ele>80.0</ele><time>2026-04-26T06:51:46.158Z</time></trkpt><trkpt lat="40.896005" lon="14.282155"><ele>80.0</ele><time>2026-04-26T06:51:48.157Z</time></trkpt><trkpt lat="40.8960433" lon="14.2820833"><ele>80.0</ele><time>2026-04-26T06:51:49.157Z</time></trkpt><trkpt lat="40.896085" lon="14.2820133"><ele>80.57142857142857</ele><time>2026-04-26T06:51:50.158Z</time></trkpt><trkpt lat="40.8961267" lon="14.2819417"><ele>81.14285714285714</ele><time>2026-04-26T06:51:51.156Z</time></trkpt><trkpt lat="40.89617" lon="14.281865"><ele>81.71428571428572</ele><time>2026-04-26T06:51:52.161Z</time></trkpt><trkpt lat="40.8962133" lon="14.2817933"><ele>82.28571428571428</ele><time>2026-04-26T06:51:53.158Z</time></trkpt><trkpt lat="40.8962533" lon="14.2817183"><ele>82.85714285714286</ele><time>2026-04-26T06:51:54.156Z</time></trkpt><trkpt lat="40.8962967" lon="14.2816383"><ele>83.42857142857143</ele><time>2026-04-26T06:51:55.159Z</time></trkpt><trkpt lat="40.8963417" lon="14.2815583"><ele>84.0</ele><time>2026-04-26T06:51:56.157Z</time></trkpt><trkpt lat="40.896385" lon="14.2814817"><ele>84.0</ele><time>2026-04-26T06:51:57.158Z</time></trkpt><trkpt lat="40.8964267" lon="14.2814067"><ele>84.0</ele><time>2026-04-26T06:51:58.156Z</time></trkpt><trkpt lat="40.8964683" lon="14.2813283"><ele>84.0</ele><time>2026-04-26T06:51:59.157Z</time></trkpt><trkpt lat="40.89651" lon="14.2812533"><ele>84.0</ele><time>2026-04-26T06:52:00.158Z</time></trkpt><trkpt lat="40.8965483" lon="14.2811783"><ele>84.0</ele><time>2026-04-26T06:52:01.158Z</time></trkpt><trkpt lat="40.8965833" lon="14.2811083"><ele>84.0</ele><time>2026-04-26T06:52:02.157Z</time></trkpt><trkpt lat="40.8966183" lon="14.281035"><ele>84.0</ele><time>2026-04-26T06:52:03.157Z</time></trkpt><trkpt lat="40.8966567" lon="14.2809633"><ele>84.0</ele><time>2026-04-26T06:52:04.156Z</time></trkpt><trkpt lat="40.8966967" lon="14.28089"><ele>84.0</ele><time>2026-04-26T06:52:05.157Z</time></trkpt><trkpt lat="40.896735" lon="14.2808183"><ele>84.0</ele><time>2026-04-26T06:52:06.158Z</time></trkpt><trkpt lat="40.896775" lon="14.2807533"><ele>84.0</ele><time>2026-04-26T06:52:07.157Z</time></trkpt><trkpt lat="40.8968167" lon="14.2806833"><ele>84.0</ele><time>2026-04-26T06:52:08.157Z</time></trkpt><trkpt lat="40.89686" lon="14.2806133"><ele>84.0</ele><time>2026-04-26T06:52:09.157Z</time></trkpt><trkpt lat="40.8969017" lon="14.28054"><ele>84.0</ele><time>2026-04-26T06:52:10.156Z</time></trkpt><trkpt lat="40.89694" lon="14.2804633"><ele>84.28571428571429</ele><time>2026-04-26T06:52:11.157Z</time></trkpt><trkpt lat="40.89698" lon="14.280385"><ele>84.57142857142857</ele><time>2026-04-26T06:52:12.157Z</time></trkpt><trkpt lat="40.8970167" lon="14.28031"><ele>84.85714285714286</ele><time>2026-04-26T06:52:13.157Z</time></trkpt><trkpt lat="40.8970517" lon="14.2802333"><ele>85.14285714285714</ele><time>2026-04-26T06:52:14.157Z</time></trkpt><trkpt lat="40.8970867" lon="14.2801517"><ele>85.42857142857143</ele><time>2026-04-26T06:52:15.157Z</time></trkpt><trkpt lat="40.89712" lon="14.28007"><ele>85.71428571428572</ele><time>2026-04-26T06:52:16.155Z</time></trkpt><trkpt lat="40.89715" lon="14.2799867"><ele>86.0</ele><time>2026-04-26T06:52:17.157Z</time></trkpt><trkpt lat="40.8971767" lon="14.2799017"><ele>86.00000000000001</ele><time>2026-04-26T06:52:18.156Z</time></trkpt><trkpt lat="40.8972017" lon="14.27981"><ele>86.0</ele><time>2026-04-26T06:52:19.156Z</time></trkpt><trkpt lat="40.897225" lon="14.27972"><ele>86.0</ele><time>2026-04-26T06:52:20.159Z</time></trkpt><trkpt lat="40.897245" lon="14.27963"><ele>86.0</ele><time>2026-04-26T06:52:21.156Z</time></trkpt><trkpt lat="40.89726" lon="14.2795367"><ele>86.0</ele><time>2026-04-26T06:52:22.156Z</time></trkpt><trkpt lat="40.8972733" lon="14.279445"><ele>86.00000000000001</ele><time>2026-04-26T06:52:23.156Z</time></trkpt><trkpt lat="40.8972867" lon="14.27935"><ele>86.0</ele><time>2026-04-26T06:52:24.158Z</time></trkpt><trkpt lat="40.8973017" lon="14.2792517"><ele>85.85714285714286</ele><time>2026-04-26T06:52:25.155Z</time></trkpt><trkpt lat="40.897315" lon="14.2791567"><ele>85.71428571428572</ele><time>2026-04-26T06:52:26.157Z</time></trkpt><trkpt lat="40.8973233" lon="14.27906"><ele>85.57142857142858</ele><time>2026-04-26T06:52:27.156Z</time></trkpt><trkpt lat="40.8973333" lon="14.2789617"><ele>85.42857142857143</ele><time>2026-04-26T06:52:28.157Z</time></trkpt><trkpt lat="40.89734" lon="14.2788667"><ele>85.28571428571428</ele><time>2026-04-26T06:52:29.156Z</time></trkpt><trkpt lat="40.897345" lon="14.2787717"><ele>85.14285714285715</ele><time>2026-04-26T06:52:30.156Z</time></trkpt><trkpt lat="40.8973467" lon="14.2786767"><ele>85.0</ele><time>2026-04-26T06:52:31.159Z</time></trkpt><trkpt lat="40.8973467" lon="14.2785767"><ele>85.0</ele><time>2026-04-26T06:52:32.157Z</time></trkpt><trkpt lat="40.8973467" lon="14.278475"><ele>85.0</ele><time>2026-04-26T06:52:33.156Z</time></trkpt><trkpt lat="40.8973483" lon="14.27838"><ele>85.0</ele><time>2026-04-26T06:52:34.157Z</time></trkpt><trkpt lat="40.8973483" lon="14.27828"><ele>85.0</ele><time>2026-04-26T06:52:35.156Z</time></trkpt><trkpt lat="40.8973433" lon="14.27818"><ele>85.0</ele><time>2026-04-26T06:52:36.159Z</time></trkpt><trkpt lat="40.8973367" lon="14.278075"><ele>85.0</ele><time>2026-04-26T06:52:37.157Z</time></trkpt><trkpt lat="40.8973317" lon="14.2779733"><ele>85.0</ele><time>2026-04-26T06:52:38.157Z</time></trkpt><trkpt lat="40.8973317" lon="14.2778717"><ele>85.0</ele><time>2026-04-26T06:52:39.157Z</time></trkpt><trkpt lat="40.8973317" lon="14.2777683"><ele>85.0</ele><time>2026-04-26T06:52:40.156Z</time></trkpt><trkpt lat="40.897335" lon="14.2776667"><ele>85.0</ele><time>2026-04-26T06:52:41.157Z</time></trkpt><trkpt lat="40.8973367" lon="14.2775683"><ele>85.0</ele><time>2026-04-26T06:52:42.156Z</time></trkpt><trkpt lat="40.8973383" lon="14.277465"><ele>85.0</ele><time>2026-04-26T06:52:43.158Z</time></trkpt><trkpt lat="40.8973383" lon="14.2773617"><ele>85.16666666666666</ele><time>2026-04-26T06:52:44.156Z</time></trkpt><trkpt lat="40.89734" lon="14.2772583"><ele>85.33333333333333</ele><time>2026-04-26T06:52:45.157Z</time></trkpt><trkpt lat="40.8973417" lon="14.277155"><ele>85.5</ele><time>2026-04-26T06:52:46.159Z</time></trkpt><trkpt lat="40.8973417" lon="14.2770517"><ele>85.66666666666667</ele><time>2026-04-26T06:52:47.155Z</time></trkpt><trkpt lat="40.89734" lon="14.2769467"><ele>85.83333333333334</ele><time>2026-04-26T06:52:48.157Z</time></trkpt><trkpt lat="40.89734" lon="14.2768467"><ele>86.0</ele><time>2026-04-26T06:52:49.156Z</time></trkpt><trkpt lat="40.8973417" lon="14.2767417"><ele>86.0</ele><time>2026-04-26T06:52:50.157Z</time></trkpt><trkpt lat="40.8973433" lon="14.276635"><ele>86.0</ele><time>2026-04-26T06:52:51.159Z</time></trkpt><trkpt lat="40.8973417" lon="14.27653"><ele>86.0</ele><time>2026-04-26T06:52:52.157Z</time></trkpt><trkpt lat="40.8973417" lon="14.2764233"><ele>86.0</ele><time>2026-04-26T06:52:53.157Z</time></trkpt><trkpt lat="40.8973417" lon="14.276325"><ele>86.0</ele><time>2026-04-26T06:52:54.156Z</time></trkpt><trkpt lat="40.8973383" lon="14.276225"><ele>86.0</ele><time>2026-04-26T06:52:55.156Z</time></trkpt><trkpt lat="40.897335" lon="14.2761267"><ele>86.16666666666667</ele><time>2026-04-26T06:52:56.156Z</time></trkpt><trkpt lat="40.8973333" lon="14.2760283"><ele>86.33333333333334</ele><time>2026-04-26T06:52:57.159Z</time></trkpt><trkpt lat="40.8973317" lon="14.2759283"><ele>86.5</ele><time>2026-04-26T06:52:58.156Z</time></trkpt><trkpt lat="40.8973283" lon="14.2758317"><ele>86.66666666666667</ele><time>2026-04-26T06:52:59.156Z</time></trkpt><trkpt lat="40.8973283" lon="14.27573"><ele>86.83333333333333</ele><time>2026-04-26T06:53:00.157Z</time></trkpt><trkpt lat="40.89733" lon="14.27563"><ele>87.0</ele><time>2026-04-26T06:53:01.157Z</time></trkpt><trkpt lat="40.89733" lon="14.275525"><ele>87.83333333333333</ele><time>2026-04-26T06:53:02.157Z</time></trkpt><trkpt lat="40.89733" lon="14.27542"><ele>88.66666666666667</ele><time>2026-04-26T06:53:03.156Z</time></trkpt><trkpt lat="40.8973283" lon="14.2753167"><ele>89.5</ele><time>2026-04-26T06:53:04.156Z</time></trkpt><trkpt lat="40.8973283" lon="14.2752117"><ele>90.33333333333334</ele><time>2026-04-26T06:53:05.156Z</time></trkpt><trkpt lat="40.89733" lon="14.275105"><ele>91.16666666666667</ele><time>2026-04-26T06:53:06.156Z</time></trkpt><trkpt lat="40.8973333" lon="14.2750017"><ele>92.0</ele><time>2026-04-26T06:53:07.157Z</time></trkpt><trkpt lat="40.897335" lon="14.274895"><ele>92.0</ele><time>2026-04-26T06:53:08.156Z</time></trkpt><trkpt lat="40.8973383" lon="14.2747933"><ele>92.0</ele><time>2026-04-26T06:53:09.157Z</time></trkpt><trkpt lat="40.8973383" lon="14.27469"><ele>92.0</ele><time>2026-04-26T06:53:10.156Z</time></trkpt><trkpt lat="40.89734" lon="14.2745867"><ele>92.0</ele><time>2026-04-26T06:53:11.157Z</time></trkpt><trkpt lat="40.89734" lon="14.274485"><ele>92.0</ele><time>2026-04-26T06:53:12.16Z</time></trkpt><trkpt lat="40.8973383" lon="14.2743817"><ele>92.0</ele><time>2026-04-26T06:53:13.156Z</time></trkpt><trkpt lat="40.8973367" lon="14.2742783"><ele>92.33333333333334</ele><time>2026-04-26T06:53:14.159Z</time></trkpt><trkpt lat="40.897335" lon="14.274175"><ele>92.66666666666667</ele><time>2026-04-26T06:53:15.156Z</time></trkpt><trkpt lat="40.8973333" lon="14.2740717"><ele>93.0</ele><time>2026-04-26T06:53:16.158Z</time></trkpt><trkpt lat="40.8973333" lon="14.27397"><ele>93.33333333333333</ele><time>2026-04-26T06:53:17.156Z</time></trkpt><trkpt lat="40.8973333" lon="14.2738667"><ele>93.66666666666666</ele><time>2026-04-26T06:53:18.156Z</time></trkpt><trkpt lat="40.8973317" lon="14.2737617"><ele>94.0</ele><time>2026-04-26T06:53:19.157Z</time></trkpt><trkpt lat="40.8973333" lon="14.2736583"><ele>94.0</ele><time>2026-04-26T06:53:20.158Z</time></trkpt><trkpt lat="40.8973317" lon="14.2735583"><ele>94.0</ele><time>2026-04-26T06:53:21.156Z</time></trkpt><trkpt lat="40.8973317" lon="14.2734617"><ele>94.0</ele><time>2026-04-26T06:53:22.156Z</time></trkpt><trkpt lat="40.8973317" lon="14.2733633"><ele>94.0</ele><time>2026-04-26T06:53:23.157Z</time></trkpt><trkpt lat="40.8973333" lon="14.2732633"><ele>94.0</ele><time>2026-04-26T06:53:24.157Z</time></trkpt><trkpt lat="40.897335" lon="14.27316"><ele>94.0</ele><time>2026-04-26T06:53:25.156Z</time></trkpt><trkpt lat="40.89734" lon="14.2730567"><ele>93.5</ele><time>2026-04-26T06:53:26.157Z</time></trkpt><trkpt lat="40.8973483" lon="14.2729533"><ele>93.0</ele><time>2026-04-26T06:53:27.159Z</time></trkpt><trkpt lat="40.8973583" lon="14.27285"><ele>92.5</ele><time>2026-04-26T06:53:28.156Z</time></trkpt><trkpt lat="40.8973717" lon="14.2727483"><ele>92.0</ele><time>2026-04-26T06:53:29.156Z</time></trkpt><trkpt lat="40.8973833" lon="14.2726483"><ele>91.5</ele><time>2026-04-26T06:53:30.157Z</time></trkpt><trkpt lat="40.8973933" lon="14.2725517"><ele>91.0</ele><time>2026-04-26T06:53:31.156Z</time></trkpt><trkpt lat="40.8974017" lon="14.272455"><ele>91.0</ele><time>2026-04-26T06:53:32.161Z</time></trkpt><trkpt lat="40.8974133" lon="14.2723583"><ele>91.0</ele><time>2026-04-26T06:53:33.156Z</time></trkpt><trkpt lat="40.8974267" lon="14.2722633"><ele>91.0</ele><time>2026-04-26T06:53:34.157Z</time></trkpt><trkpt lat="40.8974417" lon="14.2721683"><ele>91.0</ele><time>2026-04-26T06:53:35.156Z</time></trkpt><trkpt lat="40.8974633" lon="14.2720717"><ele>91.0</ele><time>2026-04-26T06:53:36.156Z</time></trkpt><trkpt lat="40.8974867" lon="14.271975"><ele>91.0</ele><time>2026-04-26T06:53:37.156Z</time></trkpt><trkpt lat="40.8975167" lon="14.2718817"><ele>91.0</ele><time>2026-04-26T06:53:38.157Z</time></trkpt><trkpt lat="40.897555" lon="14.2717883"><ele>91.0</ele><time>2026-04-26T06:53:39.157Z</time></trkpt><trkpt lat="40.8976017" lon="14.2717"><ele>91.0</ele><time>2026-04-26T06:53:40.158Z</time></trkpt><trkpt lat="40.8976483" lon="14.27162"><ele>91.0</ele><time>2026-04-26T06:53:41.157Z</time></trkpt><trkpt lat="40.8976933" lon="14.2715333"><ele>91.0</ele><time>2026-04-26T06:53:42.158Z</time></trkpt><trkpt lat="40.8977367" lon="14.2714417"><ele>91.0</ele><time>2026-04-26T06:53:43.156Z</time></trkpt><trkpt lat="40.8977733" lon="14.271345"><ele>91.0</ele><time>2026-04-26T06:53:44.156Z</time></trkpt><trkpt lat="40.8978067" lon="14.2712467"><ele>91.0</ele><time>2026-04-26T06:53:45.156Z</time></trkpt><trkpt lat="40.897835" lon="14.2711467"><ele>91.0</ele><time>2026-04-26T06:53:46.157Z</time></trkpt><trkpt lat="40.8978633" lon="14.27105"><ele>91.0</ele><time>2026-04-26T06:53:47.157Z</time></trkpt><trkpt lat="40.8978983" lon="14.2709567"><ele>91.0</ele><time>2026-04-26T06:53:48.157Z</time></trkpt><trkpt lat="40.897935" lon="14.270865"><ele>91.0</ele><time>2026-04-26T06:53:49.156Z</time></trkpt><trkpt lat="40.8979717" lon="14.2707683"><ele>91.0</ele><time>2026-04-26T06:53:50.157Z</time></trkpt><trkpt lat="40.8980183" lon="14.2706817"><ele>91.0</ele><time>2026-04-26T06:53:51.156Z</time></trkpt><trkpt lat="40.8980617" lon="14.270595"><ele>91.0</ele><time>2026-04-26T06:53:52.157Z</time></trkpt><trkpt lat="40.8981083" lon="14.2705117"><ele>91.0</ele><time>2026-04-26T06:53:53.156Z</time></trkpt><trkpt lat="40.8981517" lon="14.2704333"><ele>91.0</ele><time>2026-04-26T06:53:54.156Z</time></trkpt><trkpt lat="40.8981967" lon="14.270355"><ele>91.0</ele><time>2026-04-26T06:53:55.157Z</time></trkpt><trkpt lat="40.898235" lon="14.27028"><ele>91.0</ele><time>2026-04-26T06:53:56.157Z</time></trkpt><trkpt lat="40.89829" lon="14.2702117"><ele>91.0</ele><time>2026-04-26T06:53:57.156Z</time></trkpt><trkpt lat="40.8983467" lon="14.2701433"><ele>91.0</ele><time>2026-04-26T06:53:58.156Z</time></trkpt><trkpt lat="40.8984133" lon="14.270065"><ele>91.0</ele><time>2026-04-26T06:53:59.157Z</time></trkpt><trkpt lat="40.8984617" lon="14.2699983"><ele>91.0</ele><time>2026-04-26T06:54:00.156Z</time></trkpt><trkpt lat="40.8985033" lon="14.2699267"><ele>91.0</ele><time>2026-04-26T06:54:01.156Z</time></trkpt><trkpt lat="40.8985483" lon="14.26986"><ele>91.0</ele><time>2026-04-26T06:54:02.157Z</time></trkpt><trkpt lat="40.8985933" lon="14.2697967"><ele>90.83333333333333</ele><time>2026-04-26T06:54:03.156Z</time></trkpt><trkpt lat="40.8986867" lon="14.2696833"><ele>90.66666666666666</ele><time>2026-04-26T06:54:05.155Z</time></trkpt><trkpt lat="40.8987883" lon="14.269585"><ele>90.5</ele><time>2026-04-26T06:54:07.156Z</time></trkpt><trkpt lat="40.8988433" lon="14.2695433"><ele>90.33333333333333</ele><time>2026-04-26T06:54:08.157Z</time></trkpt><trkpt lat="40.8988967" lon="14.269495"><ele>90.16666666666667</ele><time>2026-04-26T06:54:09.156Z</time></trkpt><trkpt lat="40.8989483" lon="14.2694417"><ele>90.0</ele><time>2026-04-26T06:54:10.156Z</time></trkpt><trkpt lat="40.8990017" lon="14.269385"><ele>90.0</ele><time>2026-04-26T06:54:11.155Z</time></trkpt><trkpt lat="40.8990617" lon="14.269335"><ele>90.0</ele><time>2026-04-26T06:54:12.156Z</time></trkpt><trkpt lat="40.8991183" lon="14.26929"><ele>90.0</ele><time>2026-04-26T06:54:13.156Z</time></trkpt><trkpt lat="40.8991767" lon="14.26924"><ele>90.0</ele><time>2026-04-26T06:54:14.156Z</time></trkpt><trkpt lat="40.8992267" lon="14.2691767"><ele>90.0</ele><time>2026-04-26T06:54:15.156Z</time></trkpt><trkpt lat="40.899265" lon="14.2691"><ele>90.0</ele><time>2026-04-26T06:54:16.157Z</time></trkpt><trkpt lat="40.8992933" lon="14.269005"><ele>90.0</ele><time>2026-04-26T06:54:17.156Z</time></trkpt><trkpt lat="40.89931" lon="14.2689"><ele>89.66666666666667</ele><time>2026-04-26T06:54:18.156Z</time></trkpt><trkpt lat="40.8993267" lon="14.2687917"><ele>89.33333333333333</ele><time>2026-04-26T06:54:19.156Z</time></trkpt><trkpt lat="40.8993483" lon="14.268685"><ele>89.0</ele><time>2026-04-26T06:54:20.157Z</time></trkpt><trkpt lat="40.8993817" lon="14.2685833"><ele>88.66666666666666</ele><time>2026-04-26T06:54:21.156Z</time></trkpt><trkpt lat="40.8994183" lon="14.268485"><ele>88.33333333333333</ele><time>2026-04-26T06:54:22.156Z</time></trkpt><trkpt lat="40.899465" lon="14.2683867"><ele>88.0</ele><time>2026-04-26T06:54:23.156Z</time></trkpt><trkpt lat="40.8995133" lon="14.2682967"><ele>88.0</ele><time>2026-04-26T06:54:24.156Z</time></trkpt><trkpt lat="40.899565" lon="14.2682117"><ele>88.0</ele><time>2026-04-26T06:54:25.156Z</time></trkpt><trkpt lat="40.899615" lon="14.2681283"><ele>88.0</ele><time>2026-04-26T06:54:26.157Z</time></trkpt><trkpt lat="40.8996683" lon="14.2680467"><ele>88.0</ele><time>2026-04-26T06:54:27.156Z</time></trkpt><trkpt lat="40.899725" lon="14.267965"><ele>88.0</ele><time>2026-04-26T06:54:28.157Z</time></trkpt><trkpt lat="40.89978" lon="14.2678833"><ele>88.0</ele><time>2026-04-26T06:54:29.156Z</time></trkpt><trkpt lat="40.8998367" lon="14.2678017"><ele>88.0</ele><time>2026-04-26T06:54:30.156Z</time></trkpt><trkpt lat="40.8998917" lon="14.2677233"><ele>88.0</ele><time>2026-04-26T06:54:31.156Z</time></trkpt><trkpt lat="40.89995" lon="14.267645"><ele>88.0</ele><time>2026-04-26T06:54:32.156Z</time></trkpt><trkpt lat="40.9000083" lon="14.267565"><ele>88.0</ele><time>2026-04-26T06:54:33.156Z</time></trkpt><trkpt lat="40.900065" lon="14.267485"><ele>88.0</ele><time>2026-04-26T06:54:34.156Z</time></trkpt><trkpt lat="40.9001233" lon="14.2674017"><ele>88.0</ele><time>2026-04-26T06:54:35.156Z</time></trkpt><trkpt lat="40.9001817" lon="14.2673217"><ele>88.0</ele><time>2026-04-26T06:54:36.157Z</time></trkpt><trkpt lat="40.9002383" lon="14.26724"><ele>88.0</ele><time>2026-04-26T06:54:37.156Z</time></trkpt><trkpt lat="40.9002933" lon="14.2671567"><ele>88.0</ele><time>2026-04-26T06:54:38.158Z</time></trkpt><trkpt lat="40.9003467" lon="14.267075"><ele>88.0</ele><time>2026-04-26T06:54:39.157Z</time></trkpt><trkpt lat="40.9004017" lon="14.26699"><ele>88.0</ele><time>2026-04-26T06:54:40.157Z</time></trkpt><trkpt lat="40.9004583" lon="14.26691"><ele>88.0</ele><time>2026-04-26T06:54:41.156Z</time></trkpt><trkpt lat="40.9005167" lon="14.2668267"><ele>88.0</ele><time>2026-04-26T06:54:42.156Z</time></trkpt><trkpt lat="40.900575" lon="14.2667483"><ele>88.0</ele><time>2026-04-26T06:54:43.156Z</time></trkpt><trkpt lat="40.9006333" lon="14.2666733"><ele>88.0</ele><time>2026-04-26T06:54:44.157Z</time></trkpt><trkpt lat="40.9006867" lon="14.2665967"><ele>88.0</ele><time>2026-04-26T06:54:45.157Z</time></trkpt><trkpt lat="40.9007467" lon="14.26652"><ele>88.0</ele><time>2026-04-26T06:54:46.157Z</time></trkpt><trkpt lat="40.900805" lon="14.2664383"><ele>88.0</ele><time>2026-04-26T06:54:47.156Z</time></trkpt><trkpt lat="40.900865" lon="14.2663583"><ele>88.33333333333333</ele><time>2026-04-26T06:54:48.158Z</time></trkpt><trkpt lat="40.9009267" lon="14.2662783"><ele>88.66666666666666</ele><time>2026-04-26T06:54:49.158Z</time></trkpt><trkpt lat="40.9009883" lon="14.2661983"><ele>89.0</ele><time>2026-04-26T06:54:50.158Z</time></trkpt><trkpt lat="40.90105" lon="14.2661167"><ele>89.33333333333333</ele><time>2026-04-26T06:54:51.156Z</time></trkpt><trkpt lat="40.9011083" lon="14.26604"><ele>89.66666666666667</ele><time>2026-04-26T06:54:52.158Z</time></trkpt><trkpt lat="40.901165" lon="14.265965"><ele>90.0</ele><time>2026-04-26T06:54:53.157Z</time></trkpt><trkpt lat="40.9012183" lon="14.2658883"><ele>90.0</ele><time>2026-04-26T06:54:54.157Z</time></trkpt><trkpt lat="40.901275" lon="14.2658083"><ele>90.0</ele><time>2026-04-26T06:54:55.158Z</time></trkpt><trkpt lat="40.9013317" lon="14.2657283"><ele>90.0</ele><time>2026-04-26T06:54:56.156Z</time></trkpt><trkpt lat="40.9013867" lon="14.2656483"><ele>90.0</ele><time>2026-04-26T06:54:57.156Z</time></trkpt><trkpt lat="40.90144" lon="14.2655667"><ele>90.0</ele><time>2026-04-26T06:54:58.157Z</time></trkpt><trkpt lat="40.90149" lon="14.265485"><ele>90.0</ele><time>2026-04-26T06:54:59.157Z</time></trkpt><trkpt lat="40.9015433" lon="14.2654033"><ele>90.16666666666667</ele><time>2026-04-26T06:55:00.156Z</time></trkpt><trkpt lat="40.9015933" lon="14.2653217"><ele>90.33333333333333</ele><time>2026-04-26T06:55:01.156Z</time></trkpt><trkpt lat="40.9016467" lon="14.2652367"><ele>90.5</ele><time>2026-04-26T06:55:02.156Z</time></trkpt><trkpt lat="40.9017033" lon="14.2651533"><ele>90.66666666666666</ele><time>2026-04-26T06:55:03.156Z</time></trkpt><trkpt lat="40.9017583" lon="14.265075"><ele>90.83333333333333</ele><time>2026-04-26T06:55:04.156Z</time></trkpt><trkpt lat="40.901815" lon="14.264995"><ele>91.0</ele><time>2026-04-26T06:55:05.156Z</time></trkpt><trkpt lat="40.9018667" lon="14.2649133"><ele>90.33333333333333</ele><time>2026-04-26T06:55:06.157Z</time></trkpt><trkpt lat="40.90192" lon="14.26483"><ele>89.66666666666666</ele><time>2026-04-26T06:55:07.156Z</time></trkpt><trkpt lat="40.901975" lon="14.264745"><ele>89.0</ele><time>2026-04-26T06:55:08.157Z</time></trkpt><trkpt lat="40.9020283" lon="14.26466"><ele>88.33333333333333</ele><time>2026-04-26T06:55:09.157Z</time></trkpt><trkpt lat="40.90208" lon="14.2645783"><ele>87.66666666666667</ele><time>2026-04-26T06:55:10.157Z</time></trkpt><trkpt lat="40.9021317" lon="14.2645"><ele>87.0</ele><time>2026-04-26T06:55:11.156Z</time></trkpt><trkpt lat="40.90218" lon="14.2644233"><ele>87.0</ele><time>2026-04-26T06:55:12.156Z</time></trkpt><trkpt lat="40.9022267" lon="14.26435"><ele>87.0</ele><time>2026-04-26T06:55:13.157Z</time></trkpt><trkpt lat="40.9022717" lon="14.264275"><ele>87.0</ele><time>2026-04-26T06:55:14.158Z</time></trkpt><trkpt lat="40.9023183" lon="14.2642033"><ele>87.0</ele><time>2026-04-26T06:55:15.159Z</time></trkpt><trkpt lat="40.902365" lon="14.2641317"><ele>87.0</ele><time>2026-04-26T06:55:16.156Z</time></trkpt><trkpt lat="40.9024117" lon="14.26406"><ele>87.0</ele><time>2026-04-26T06:55:17.156Z</time></trkpt><trkpt lat="40.9024567" lon="14.2639867"><ele>87.0</ele><time>2026-04-26T06:55:18.157Z</time></trkpt><trkpt lat="40.9025" lon="14.263915"><ele>87.14285714285714</ele><time>2026-04-26T06:55:19.158Z</time></trkpt><trkpt lat="40.9025417" lon="14.2638417"><ele>87.28571428571429</ele><time>2026-04-26T06:55:20.156Z</time></trkpt><trkpt lat="40.9025867" lon="14.2637717"><ele>87.42857142857143</ele><time>2026-04-26T06:55:21.156Z</time></trkpt><trkpt lat="40.9026317" lon="14.2637"><ele>87.57142857142857</ele><time>2026-04-26T06:55:22.157Z</time></trkpt><trkpt lat="40.9026767" lon="14.2636283"><ele>87.71428571428571</ele><time>2026-04-26T06:55:23.156Z</time></trkpt><trkpt lat="40.9027183" lon="14.2635567"><ele>87.85714285714286</ele><time>2026-04-26T06:55:24.156Z</time></trkpt><trkpt lat="40.90276" lon="14.2634867"><ele>88.0</ele><time>2026-04-26T06:55:25.156Z</time></trkpt><trkpt lat="40.9028017" lon="14.263415"><ele>88.0</ele><time>2026-04-26T06:55:26.157Z</time></trkpt><trkpt lat="40.9028467" lon="14.2633467"><ele>88.0</ele><time>2026-04-26T06:55:27.156Z</time></trkpt><trkpt lat="40.9028917" lon="14.2632767"><ele>88.0</ele><time>2026-04-26T06:55:28.156Z</time></trkpt><trkpt lat="40.902935" lon="14.2632033"><ele>88.0</ele><time>2026-04-26T06:55:29.156Z</time></trkpt><trkpt lat="40.90298" lon="14.2631283"><ele>88.0</ele><time>2026-04-26T06:55:30.156Z</time></trkpt><trkpt lat="40.9030267" lon="14.263055"><ele>88.0</ele><time>2026-04-26T06:55:31.156Z</time></trkpt><trkpt lat="40.903075" lon="14.2629817"><ele>88.0</ele><time>2026-04-26T06:55:32.156Z</time></trkpt><trkpt lat="40.903125" lon="14.2629067"><ele>88.0</ele><time>2026-04-26T06:55:33.156Z</time></trkpt><trkpt lat="40.903175" lon="14.26283"><ele>88.0</ele><time>2026-04-26T06:55:34.157Z</time></trkpt><trkpt lat="40.903225" lon="14.26275"><ele>88.0</ele><time>2026-04-26T06:55:35.156Z</time></trkpt><trkpt lat="40.9032717" lon="14.26267"><ele>88.0</ele><time>2026-04-26T06:55:36.156Z</time></trkpt><trkpt lat="40.90332" lon="14.2625917"><ele>88.0</ele><time>2026-04-26T06:55:37.156Z</time></trkpt><trkpt lat="40.903365" lon="14.262515"><ele>88.0</ele><time>2026-04-26T06:55:38.156Z</time></trkpt><trkpt lat="40.9034117" lon="14.2624383"><ele>88.33333333333333</ele><time>2026-04-26T06:55:39.156Z</time></trkpt><trkpt lat="40.90346" lon="14.262365"><ele>88.66666666666666</ele><time>2026-04-26T06:55:40.157Z</time></trkpt><trkpt lat="40.9035133" lon="14.26229"><ele>89.0</ele><time>2026-04-26T06:55:41.156Z</time></trkpt><trkpt lat="40.903565" lon="14.262215"><ele>89.33333333333333</ele><time>2026-04-26T06:55:42.156Z</time></trkpt><trkpt lat="40.9036167" lon="14.2621417"><ele>89.66666666666667</ele><time>2026-04-26T06:55:43.156Z</time></trkpt><trkpt lat="40.9036717" lon="14.2620683"><ele>90.0</ele><time>2026-04-26T06:55:44.156Z</time></trkpt><trkpt lat="40.903725" lon="14.2619933"><ele>90.33333333333333</ele><time>2026-04-26T06:55:45.156Z</time></trkpt><trkpt lat="40.90378" lon="14.261915"><ele>90.66666666666667</ele><time>2026-04-26T06:55:46.155Z</time></trkpt><trkpt lat="40.9038333" lon="14.2618383"><ele>91.0</ele><time>2026-04-26T06:55:47.157Z</time></trkpt><trkpt lat="40.9038883" lon="14.2617633"><ele>91.33333333333334</ele><time>2026-04-26T06:55:48.157Z</time></trkpt><trkpt lat="40.9039417" lon="14.2616883"><ele>91.66666666666667</ele><time>2026-04-26T06:55:49.157Z</time></trkpt><trkpt lat="40.9039967" lon="14.2616133"><ele>92.0</ele><time>2026-04-26T06:55:50.156Z</time></trkpt><trkpt lat="40.90405" lon="14.2615367"><ele>92.0</ele><time>2026-04-26T06:55:51.155Z</time></trkpt><trkpt lat="40.904105" lon="14.26146"><ele>92.0</ele><time>2026-04-26T06:55:52.155Z</time></trkpt><trkpt lat="40.904155" lon="14.2613883"><ele>92.0</ele><time>2026-04-26T06:55:53.157Z</time></trkpt><trkpt lat="40.9042083" lon="14.261315"><ele>92.0</ele><time>2026-04-26T06:55:54.157Z</time></trkpt><trkpt lat="40.904265" lon="14.2612383"><ele>92.0</ele><time>2026-04-26T06:55:55.157Z</time></trkpt><trkpt lat="40.90432" lon="14.2611633"><ele>92.0</ele><time>2026-04-26T06:55:56.157Z</time></trkpt><trkpt lat="40.9043717" lon="14.2610867"><ele>91.5</ele><time>2026-04-26T06:55:57.157Z</time></trkpt><trkpt lat="40.904425" lon="14.2610117"><ele>91.0</ele><time>2026-04-26T06:55:58.155Z</time></trkpt><trkpt lat="40.9044817" lon="14.2609383"><ele>90.5</ele><time>2026-04-26T06:55:59.156Z</time></trkpt><trkpt lat="40.9045367" lon="14.2608617"><ele>90.0</ele><time>2026-04-26T06:56:00.156Z</time></trkpt><trkpt lat="40.90459" lon="14.2607833"><ele>89.5</ele><time>2026-04-26T06:56:01.157Z</time></trkpt><trkpt lat="40.9046433" lon="14.2607067"><ele>89.0</ele><time>2026-04-26T06:56:02.158Z</time></trkpt><trkpt lat="40.9046967" lon="14.26063"><ele>89.16666666666667</ele><time>2026-04-26T06:56:03.156Z</time></trkpt><trkpt lat="40.9047517" lon="14.2605517"><ele>89.33333333333334</ele><time>2026-04-26T06:56:04.156Z</time></trkpt><trkpt lat="40.9048067" lon="14.2604717"><ele>89.5</ele><time>2026-04-26T06:56:05.156Z</time></trkpt><trkpt lat="40.9048633" lon="14.2603917"><ele>89.66666666666667</ele><time>2026-04-26T06:56:06.156Z</time></trkpt><trkpt lat="40.9049183" lon="14.2603117"><ele>89.83333333333333</ele><time>2026-04-26T06:56:07.156Z</time></trkpt><trkpt lat="40.9049733" lon="14.2602317"><ele>90.0</ele><time>2026-04-26T06:56:08.157Z</time></trkpt><trkpt lat="40.90503" lon="14.2601517"><ele>90.2</ele><time>2026-04-26T06:56:09.157Z</time></trkpt><trkpt lat="40.9050883" lon="14.26007"><ele>90.4</ele><time>2026-04-26T06:56:10.157Z</time></trkpt><trkpt lat="40.9051483" lon="14.25999"><ele>90.6</ele><time>2026-04-26T06:56:11.156Z</time></trkpt><trkpt lat="40.9052133" lon="14.2599033"><ele>90.8</ele><time>2026-04-26T06:56:12.157Z</time></trkpt><trkpt lat="40.9052783" lon="14.2598117"><ele>91.0</ele><time>2026-04-26T06:56:13.156Z</time></trkpt><trkpt lat="40.905345" lon="14.2597167"><ele>91.0</ele><time>2026-04-26T06:56:14.157Z</time></trkpt><trkpt lat="40.9054133" lon="14.25962"><ele>91.0</ele><time>2026-04-26T06:56:15.156Z</time></trkpt><trkpt lat="40.9054817" lon="14.2595217"><ele>91.0</ele><time>2026-04-26T06:56:16.156Z</time></trkpt><trkpt lat="40.9055517" lon="14.2594233"><ele>91.0</ele><time>2026-04-26T06:56:17.157Z</time></trkpt><trkpt lat="40.90562" lon="14.2593267"><ele>91.0</ele><time>2026-04-26T06:56:18.158Z</time></trkpt><trkpt lat="40.9056883" lon="14.2592217"><ele>91.0</ele><time>2026-04-26T06:56:19.156Z</time></trkpt><trkpt lat="40.9057567" lon="14.2591183"><ele>91.0</ele><time>2026-04-26T06:56:20.157Z</time></trkpt><trkpt lat="40.9058217" lon="14.2590117"><ele>91.0</ele><time>2026-04-26T06:56:21.156Z</time></trkpt><trkpt lat="40.905885" lon="14.25891"><ele>91.0</ele><time>2026-04-26T06:56:22.156Z</time></trkpt><trkpt lat="40.9059467" lon="14.2588167"><ele>91.0</ele><time>2026-04-26T06:56:23.156Z</time></trkpt><trkpt lat="40.90601" lon="14.258725"><ele>90.8</ele><time>2026-04-26T06:56:24.157Z</time></trkpt><trkpt lat="40.9060733" lon="14.258635"><ele>90.6</ele><time>2026-04-26T06:56:25.157Z</time></trkpt><trkpt lat="40.9061367" lon="14.2585517"><ele>90.4</ele><time>2026-04-26T06:56:26.157Z</time></trkpt><trkpt lat="40.9062017" lon="14.2584667"><ele>90.2</ele><time>2026-04-26T06:56:27.156Z</time></trkpt><trkpt lat="40.9062633" lon="14.258375"><ele>90.0</ele><time>2026-04-26T06:56:28.157Z</time></trkpt><trkpt lat="40.9063233" lon="14.2582833"><ele>90.0</ele><time>2026-04-26T06:56:29.16Z</time></trkpt><trkpt lat="40.9063833" lon="14.2581883"><ele>90.0</ele><time>2026-04-26T06:56:30.156Z</time></trkpt><trkpt lat="40.906445" lon="14.2580933"><ele>90.0</ele><time>2026-04-26T06:56:31.156Z</time></trkpt><trkpt lat="40.9065033" lon="14.2579983"><ele>90.0</ele><time>2026-04-26T06:56:32.156Z</time></trkpt><trkpt lat="40.906565" lon="14.2579033"><ele>90.0</ele><time>2026-04-26T06:56:33.156Z</time></trkpt><trkpt lat="40.906625" lon="14.2578117"><ele>89.8</ele><time>2026-04-26T06:56:34.157Z</time></trkpt><trkpt lat="40.9066867" lon="14.25772"><ele>89.6</ele><time>2026-04-26T06:56:35.158Z</time></trkpt><trkpt lat="40.9067483" lon="14.25763"><ele>89.4</ele><time>2026-04-26T06:56:36.158Z</time></trkpt><trkpt lat="40.9068083" lon="14.2575417"><ele>89.2</ele><time>2026-04-26T06:56:37.156Z</time></trkpt><trkpt lat="40.906865" lon="14.257455"><ele>89.0</ele><time>2026-04-26T06:56:38.157Z</time></trkpt><trkpt lat="40.9069267" lon="14.257365"><ele>89.0</ele><time>2026-04-26T06:56:39.156Z</time></trkpt><trkpt lat="40.9069883" lon="14.2572767"><ele>89.0</ele><time>2026-04-26T06:56:40.156Z</time></trkpt><trkpt lat="40.9070517" lon="14.257185"><ele>89.0</ele><time>2026-04-26T06:56:41.159Z</time></trkpt><trkpt lat="40.9071133" lon="14.257095"><ele>89.0</ele><time>2026-04-26T06:56:42.156Z</time></trkpt><trkpt lat="40.9071733" lon="14.257005"><ele>89.0</ele><time>2026-04-26T06:56:43.156Z</time></trkpt><trkpt lat="40.9072317" lon="14.256915"><ele>89.0</ele><time>2026-04-26T06:56:44.156Z</time></trkpt><trkpt lat="40.9072917" lon="14.25682"><ele>89.0</ele><time>2026-04-26T06:56:45.158Z</time></trkpt><trkpt lat="40.9073483" lon="14.2567283"><ele>89.0</ele><time>2026-04-26T06:56:46.156Z</time></trkpt><trkpt lat="40.9074083" lon="14.2566367"><ele>89.0</ele><time>2026-04-26T06:56:47.156Z</time></trkpt><trkpt lat="40.90747" lon="14.2565483"><ele>89.0</ele><time>2026-04-26T06:56:48.157Z</time></trkpt><trkpt lat="40.9075317" lon="14.2564583"><ele>88.83333333333334</ele><time>2026-04-26T06:56:49.157Z</time></trkpt><trkpt lat="40.907595" lon="14.25637"><ele>88.66666666666667</ele><time>2026-04-26T06:56:50.157Z</time></trkpt><trkpt lat="40.9076533" lon="14.2562817"><ele>88.5</ele><time>2026-04-26T06:56:51.156Z</time></trkpt><trkpt lat="40.9077117" lon="14.256195"><ele>88.33333333333333</ele><time>2026-04-26T06:56:52.157Z</time></trkpt><trkpt lat="40.90777" lon="14.2561067"><ele>88.16666666666666</ele><time>2026-04-26T06:56:53.158Z</time></trkpt><trkpt lat="40.9078283" lon="14.2560183"><ele>88.0</ele><time>2026-04-26T06:56:54.157Z</time></trkpt><trkpt lat="40.9078917" lon="14.25593"><ele>88.0</ele><time>2026-04-26T06:56:55.156Z</time></trkpt><trkpt lat="40.9079517" lon="14.2558417"><ele>88.0</ele><time>2026-04-26T06:56:56.156Z</time></trkpt><trkpt lat="40.9080133" lon="14.25575"><ele>88.0</ele><time>2026-04-26T06:56:57.157Z</time></trkpt><trkpt lat="40.908075" lon="14.25566"><ele>88.0</ele><time>2026-04-26T06:56:58.156Z</time></trkpt><trkpt lat="40.908135" lon="14.2555717"><ele>88.0</ele><time>2026-04-26T06:56:59.156Z</time></trkpt><trkpt lat="40.9081967" lon="14.2554833"><ele>88.0</ele><time>2026-04-26T06:57:00.156Z</time></trkpt><trkpt lat="40.908255" lon="14.2553967"><ele>88.0</ele><time>2026-04-26T06:57:01.156Z</time></trkpt><trkpt lat="40.9083183" lon="14.2553083"><ele>88.0</ele><time>2026-04-26T06:57:02.157Z</time></trkpt><trkpt lat="40.90838" lon="14.25522"><ele>88.0</ele><time>2026-04-26T06:57:03.157Z</time></trkpt><trkpt lat="40.9084433" lon="14.2551267"><ele>88.0</ele><time>2026-04-26T06:57:04.156Z</time></trkpt><trkpt lat="40.908505" lon="14.2550333"><ele>88.0</ele><time>2026-04-26T06:57:05.157Z</time></trkpt><trkpt lat="40.9085667" lon="14.25494"><ele>88.0</ele><time>2026-04-26T06:57:06.156Z</time></trkpt><trkpt lat="40.9086283" lon="14.2548467"><ele>88.0</ele><time>2026-04-26T06:57:07.156Z</time></trkpt><trkpt lat="40.9086883" lon="14.2547583"><ele>88.0</ele><time>2026-04-26T06:57:08.156Z</time></trkpt><trkpt lat="40.9087467" lon="14.25467"><ele>88.0</ele><time>2026-04-26T06:57:09.157Z</time></trkpt><trkpt lat="40.9088067" lon="14.2545817"><ele>88.2</ele><time>2026-04-26T06:57:10.156Z</time></trkpt><trkpt lat="40.908865" lon="14.2544917"><ele>88.4</ele><time>2026-04-26T06:57:11.157Z</time></trkpt><trkpt lat="40.908925" lon="14.2544017"><ele>88.60000000000001</ele><time>2026-04-26T06:57:12.156Z</time></trkpt><trkpt lat="40.908985" lon="14.25431"><ele>88.80000000000001</ele><time>2026-04-26T06:57:13.157Z</time></trkpt><trkpt lat="40.909045" lon="14.2542217"><ele>89.0</ele><time>2026-04-26T06:57:14.157Z</time></trkpt><trkpt lat="40.9091083" lon="14.25413"><ele>89.0</ele><time>2026-04-26T06:57:15.157Z</time></trkpt><trkpt lat="40.9091717" lon="14.2540383"><ele>89.0</ele><time>2026-04-26T06:57:16.157Z</time></trkpt><trkpt lat="40.9092333" lon="14.25395"><ele>89.0</ele><time>2026-04-26T06:57:17.157Z</time></trkpt><trkpt lat="40.9092933" lon="14.2538583"><ele>89.0</ele><time>2026-04-26T06:57:18.156Z</time></trkpt><trkpt lat="40.9093517" lon="14.2537683"><ele>89.0</ele><time>2026-04-26T06:57:19.156Z</time></trkpt><trkpt lat="40.9094117" lon="14.2536783"><ele>89.0</ele><time>2026-04-26T06:57:20.156Z</time></trkpt><trkpt lat="40.9094717" lon="14.2535867"><ele>89.0</ele><time>2026-04-26T06:57:21.156Z</time></trkpt><trkpt lat="40.9095317" lon="14.253495"><ele>89.0</ele><time>2026-04-26T06:57:22.156Z</time></trkpt><trkpt lat="40.9095933" lon="14.253405"><ele>89.0</ele><time>2026-04-26T06:57:23.156Z</time></trkpt><trkpt lat="40.9096533" lon="14.2533167"><ele>89.0</ele><time>2026-04-26T06:57:24.157Z</time></trkpt><trkpt lat="40.9097167" lon="14.2532267"><ele>89.0</ele><time>2026-04-26T06:57:25.157Z</time></trkpt><trkpt lat="40.9097767" lon="14.25314"><ele>89.0</ele><time>2026-04-26T06:57:26.156Z</time></trkpt><trkpt lat="40.9098367" lon="14.25305"><ele>89.0</ele><time>2026-04-26T06:57:27.157Z</time></trkpt><trkpt lat="40.9098967" lon="14.2529633"><ele>89.0</ele><time>2026-04-26T06:57:28.156Z</time></trkpt><trkpt lat="40.9099567" lon="14.252875"><ele>89.0</ele><time>2026-04-26T06:57:29.156Z</time></trkpt><trkpt lat="40.9100183" lon="14.2527833"><ele>89.0</ele><time>2026-04-26T06:57:30.156Z</time></trkpt><trkpt lat="40.9100783" lon="14.2526933"><ele>89.0</ele><time>2026-04-26T06:57:31.156Z</time></trkpt><trkpt lat="40.91014" lon="14.2526033"><ele>89.0</ele><time>2026-04-26T06:57:32.156Z</time></trkpt><trkpt lat="40.9102017" lon="14.25251"><ele>89.0</ele><time>2026-04-26T06:57:33.157Z</time></trkpt><trkpt lat="40.910265" lon="14.25242"><ele>89.0</ele><time>2026-04-26T06:57:34.156Z</time></trkpt><trkpt lat="40.910325" lon="14.25233"><ele>89.0</ele><time>2026-04-26T06:57:35.156Z</time></trkpt><trkpt lat="40.9103867" lon="14.2522417"><ele>89.0</ele><time>2026-04-26T06:57:36.156Z</time></trkpt><trkpt lat="40.910445" lon="14.2521533"><ele>89.0</ele><time>2026-04-26T06:57:37.157Z</time></trkpt><trkpt lat="40.91051" lon="14.2520583"><ele>89.0</ele><time>2026-04-26T06:57:38.156Z</time></trkpt><trkpt lat="40.9105717" lon="14.251965"><ele>89.0</ele><time>2026-04-26T06:57:39.156Z</time></trkpt><trkpt lat="40.910635" lon="14.2518717"><ele>89.0</ele><time>2026-04-26T06:57:40.156Z</time></trkpt><trkpt lat="40.9106967" lon="14.2517783"><ele>89.0</ele><time>2026-04-26T06:57:41.156Z</time></trkpt><trkpt lat="40.9107583" lon="14.2516817"><ele>89.0</ele><time>2026-04-26T06:57:42.156Z</time></trkpt><trkpt lat="40.9108183" lon="14.251585"><ele>89.0</ele><time>2026-04-26T06:57:43.156Z</time></trkpt><trkpt lat="40.91088" lon="14.2514917"><ele>89.0</ele><time>2026-04-26T06:57:44.159Z</time></trkpt><trkpt lat="40.9109417" lon="14.2514"><ele>89.4</ele><time>2026-04-26T06:57:45.157Z</time></trkpt><trkpt lat="40.911005" lon="14.251305"><ele>89.80000000000001</ele><time>2026-04-26T06:57:46.156Z</time></trkpt><trkpt lat="40.9110667" lon="14.2512133"><ele>90.19999999999999</ele><time>2026-04-26T06:57:47.157Z</time></trkpt><trkpt lat="40.9111267" lon="14.251125"><ele>90.6</ele><time>2026-04-26T06:57:48.159Z</time></trkpt><trkpt lat="40.911185" lon="14.2510367"><ele>91.0</ele><time>2026-04-26T06:57:49.157Z</time></trkpt><trkpt lat="40.911245" lon="14.2509483"><ele>91.0</ele><time>2026-04-26T06:57:50.157Z</time></trkpt><trkpt lat="40.9113067" lon="14.2508617"><ele>91.0</ele><time>2026-04-26T06:57:51.159Z</time></trkpt><trkpt lat="40.9113667" lon="14.2507667"><ele>91.0</ele><time>2026-04-26T06:57:52.156Z</time></trkpt><trkpt lat="40.9114267" lon="14.250675"><ele>91.0</ele><time>2026-04-26T06:57:53.157Z</time></trkpt><trkpt lat="40.9114883" lon="14.2505817"><ele>91.0</ele><time>2026-04-26T06:57:54.157Z</time></trkpt><trkpt lat="40.91155" lon="14.2504883"><ele>90.8</ele><time>2026-04-26T06:57:55.156Z</time></trkpt><trkpt lat="40.9116117" lon="14.2503967"><ele>90.6</ele><time>2026-04-26T06:57:56.157Z</time></trkpt><trkpt lat="40.911675" lon="14.2503017"><ele>90.4</ele><time>2026-04-26T06:57:57.156Z</time></trkpt><trkpt lat="40.911735" lon="14.2502083"><ele>90.2</ele><time>2026-04-26T06:57:58.156Z</time></trkpt><trkpt lat="40.911795" lon="14.250115"><ele>90.0</ele><time>2026-04-26T06:57:59.156Z</time></trkpt><trkpt lat="40.911855" lon="14.2500183"><ele>90.6</ele><time>2026-04-26T06:58:00.157Z</time></trkpt><trkpt lat="40.9119167" lon="14.249925"><ele>91.2</ele><time>2026-04-26T06:58:01.157Z</time></trkpt><trkpt lat="40.9119783" lon="14.2498317"><ele>91.80000000000001</ele><time>2026-04-26T06:58:02.161Z</time></trkpt><trkpt lat="40.9120417" lon="14.2497383"><ele>92.4</ele><time>2026-04-26T06:58:03.157Z</time></trkpt><trkpt lat="40.9121033" lon="14.249645"><ele>93.0</ele><time>2026-04-26T06:58:04.156Z</time></trkpt><trkpt lat="40.9121683" lon="14.249555"><ele>93.2</ele><time>2026-04-26T06:58:05.156Z</time></trkpt><trkpt lat="40.9122317" lon="14.249465"><ele>93.4</ele><time>2026-04-26T06:58:06.156Z</time></trkpt><trkpt lat="40.912295" lon="14.249375"><ele>93.60000000000001</ele><time>2026-04-26T06:58:07.156Z</time></trkpt><trkpt lat="40.9123567" lon="14.2492867"><ele>93.80000000000001</ele><time>2026-04-26T06:58:08.157Z</time></trkpt><trkpt lat="40.9124167" lon="14.249195"><ele>94.0</ele><time>2026-04-26T06:58:09.158Z</time></trkpt><trkpt lat="40.912475" lon="14.249105"><ele>94.0</ele><time>2026-04-26T06:58:10.157Z</time></trkpt><trkpt lat="40.9125367" lon="14.2490133"><ele>94.0</ele><time>2026-04-26T06:58:11.157Z</time></trkpt><trkpt lat="40.9125967" lon="14.2489217"><ele>94.0</ele><time>2026-04-26T06:58:12.157Z</time></trkpt><trkpt lat="40.9126583" lon="14.2488283"><ele>94.0</ele><time>2026-04-26T06:58:13.157Z</time></trkpt><trkpt lat="40.9127183" lon="14.2487367"><ele>94.0</ele><time>2026-04-26T06:58:14.157Z</time></trkpt><trkpt lat="40.9127783" lon="14.248645"><ele>93.80000000000001</ele><time>2026-04-26T06:58:15.157Z</time></trkpt><trkpt lat="40.9128417" lon="14.2485533"><ele>93.60000000000001</ele><time>2026-04-26T06:58:16.156Z</time></trkpt><trkpt lat="40.912905" lon="14.2484633"><ele>93.4</ele><time>2026-04-26T06:58:17.157Z</time></trkpt><trkpt lat="40.91297" lon="14.24837"><ele>93.2</ele><time>2026-04-26T06:58:18.157Z</time></trkpt><trkpt lat="40.913035" lon="14.2482783"><ele>93.0</ele><time>2026-04-26T06:58:19.156Z</time></trkpt><trkpt lat="40.9130933" lon="14.2481883"><ele>92.60000000000001</ele><time>2026-04-26T06:58:20.157Z</time></trkpt><trkpt lat="40.9131467" lon="14.248095"><ele>92.2</ele><time>2026-04-26T06:58:21.157Z</time></trkpt><trkpt lat="40.9131967" lon="14.2479917"><ele>91.8</ele><time>2026-04-26T06:58:22.156Z</time></trkpt><trkpt lat="40.9132517" lon="14.24789"><ele>91.4</ele><time>2026-04-26T06:58:23.158Z</time></trkpt><trkpt lat="40.9133017" lon="14.2477833"><ele>91.0</ele><time>2026-04-26T06:58:24.159Z</time></trkpt><trkpt lat="40.9133533" lon="14.2476867"><ele>91.0</ele><time>2026-04-26T06:58:25.156Z</time></trkpt><trkpt lat="40.9134267" lon="14.24759"><ele>91.0</ele><time>2026-04-26T06:58:26.157Z</time></trkpt><trkpt lat="40.9135183" lon="14.24748"><ele>91.0</ele><time>2026-04-26T06:58:27.157Z</time></trkpt><trkpt lat="40.9135983" lon="14.247385"><ele>91.0</ele><time>2026-04-26T06:58:28.156Z</time></trkpt><trkpt lat="40.9136733" lon="14.24729"><ele>91.0</ele><time>2026-04-26T06:58:29.156Z</time></trkpt><trkpt lat="40.913745" lon="14.247195"><ele>91.0</ele><time>2026-04-26T06:58:30.157Z</time></trkpt><trkpt lat="40.9138117" lon="14.2471083"><ele>91.0</ele><time>2026-04-26T06:58:31.156Z</time></trkpt><trkpt lat="40.9138683" lon="14.2470317"><ele>91.0</ele><time>2026-04-26T06:58:32.157Z</time></trkpt><trkpt lat="40.9139283" lon="14.2469467"><ele>91.0</ele><time>2026-04-26T06:58:33.156Z</time></trkpt><trkpt lat="40.91398" lon="14.24687"><ele>91.0</ele><time>2026-04-26T06:58:34.156Z</time></trkpt><trkpt lat="40.9140333" lon="14.246795"><ele>91.0</ele><time>2026-04-26T06:58:35.156Z</time></trkpt><trkpt lat="40.9140867" lon="14.2467183"><ele>91.0</ele><time>2026-04-26T06:58:36.157Z</time></trkpt><trkpt lat="40.9141383" lon="14.2466417"><ele>91.0</ele><time>2026-04-26T06:58:37.158Z</time></trkpt><trkpt lat="40.9141933" lon="14.24656"><ele>91.0</ele><time>2026-04-26T06:58:38.157Z</time></trkpt><trkpt lat="40.9142467" lon="14.2464783"><ele>91.0</ele><time>2026-04-26T06:58:39.156Z</time></trkpt><trkpt lat="40.9143" lon="14.2463967"><ele>91.0</ele><time>2026-04-26T06:58:40.156Z</time></trkpt><trkpt lat="40.9143533" lon="14.2463133"><ele>91.0</ele><time>2026-04-26T06:58:41.156Z</time></trkpt><trkpt lat="40.9144033" lon="14.24623"><ele>90.5</ele><time>2026-04-26T06:58:42.157Z</time></trkpt><trkpt lat="40.9144483" lon="14.246145"><ele>90.0</ele><time>2026-04-26T06:58:43.157Z</time></trkpt><trkpt lat="40.9144933" lon="14.2460567"><ele>89.5</ele><time>2026-04-26T06:58:44.156Z</time></trkpt><trkpt lat="40.914535" lon="14.2459717"><ele>89.0</ele><time>2026-04-26T06:58:45.156Z</time></trkpt><trkpt lat="40.9145733" lon="14.2458883"><ele>88.5</ele><time>2026-04-26T06:58:46.156Z</time></trkpt><trkpt lat="40.9146167" lon="14.2458067"><ele>88.0</ele><time>2026-04-26T06:58:47.156Z</time></trkpt><trkpt lat="40.91465" lon="14.245715"><ele>88.0</ele><time>2026-04-26T06:58:48.157Z</time></trkpt><trkpt lat="40.9146833" lon="14.2456183"><ele>88.0</ele><time>2026-04-26T06:58:49.159Z</time></trkpt><trkpt lat="40.9147183" lon="14.2455233"><ele>88.0</ele><time>2026-04-26T06:58:50.157Z</time></trkpt><trkpt lat="40.91475" lon="14.24543"><ele>88.0</ele><time>2026-04-26T06:58:51.158Z</time></trkpt><trkpt lat="40.9147767" lon="14.2453367"><ele>88.0</ele><time>2026-04-26T06:58:52.156Z</time></trkpt><trkpt lat="40.9148067" lon="14.2452433"><ele>88.0</ele><time>2026-04-26T06:58:53.156Z</time></trkpt><trkpt lat="40.9148367" lon="14.24515"><ele>88.0</ele><time>2026-04-26T06:58:54.156Z</time></trkpt><trkpt lat="40.914865" lon="14.2450583"><ele>88.0</ele><time>2026-04-26T06:58:55.159Z</time></trkpt><trkpt lat="40.9148917" lon="14.244965"><ele>88.0</ele><time>2026-04-26T06:58:56.156Z</time></trkpt><trkpt lat="40.91492" lon="14.2448733"><ele>88.0</ele><time>2026-04-26T06:58:57.158Z</time></trkpt><trkpt lat="40.9149483" lon="14.2447767"><ele>88.0</ele><time>2026-04-26T06:58:58.156Z</time></trkpt><trkpt lat="40.9149717" lon="14.2446767"><ele>88.0</ele><time>2026-04-26T06:58:59.157Z</time></trkpt><trkpt lat="40.914995" lon="14.2445717"><ele>88.0</ele><time>2026-04-26T06:59:00.156Z</time></trkpt><trkpt lat="40.915015" lon="14.2444667"><ele>88.0</ele><time>2026-04-26T06:59:01.158Z</time></trkpt><trkpt lat="40.9150367" lon="14.24436"><ele>88.0</ele><time>2026-04-26T06:59:02.156Z</time></trkpt><trkpt lat="40.9150533" lon="14.244255"><ele>88.0</ele><time>2026-04-26T06:59:03.158Z</time></trkpt><trkpt lat="40.9150717" lon="14.24415"><ele>88.0</ele><time>2026-04-26T06:59:04.157Z</time></trkpt><trkpt lat="40.9150883" lon="14.2440483"><ele>88.0</ele><time>2026-04-26T06:59:05.158Z</time></trkpt><trkpt lat="40.9151033" lon="14.2439467"><ele>88.66666666666666</ele><time>2026-04-26T06:59:06.157Z</time></trkpt><trkpt lat="40.9151167" lon="14.2438467"><ele>89.33333333333333</ele><time>2026-04-26T06:59:07.156Z</time></trkpt><trkpt lat="40.915125" lon="14.243745"><ele>90.0</ele><time>2026-04-26T06:59:08.157Z</time></trkpt><trkpt lat="40.9151333" lon="14.2436467"><ele>90.66666666666667</ele><time>2026-04-26T06:59:09.156Z</time></trkpt><trkpt lat="40.9151383" lon="14.2435467"><ele>91.33333333333334</ele><time>2026-04-26T06:59:10.156Z</time></trkpt><trkpt lat="40.91514" lon="14.24345"><ele>92.0</ele><time>2026-04-26T06:59:11.156Z</time></trkpt><trkpt lat="40.9151417" lon="14.24335"><ele>92.0</ele><time>2026-04-26T06:59:12.158Z</time></trkpt><trkpt lat="40.9151417" lon="14.24325"><ele>92.0</ele><time>2026-04-26T06:59:13.156Z</time></trkpt><trkpt lat="40.91514" lon="14.2431533"><ele>92.0</ele><time>2026-04-26T06:59:14.156Z</time></trkpt><trkpt lat="40.915135" lon="14.2430583"><ele>92.0</ele><time>2026-04-26T06:59:15.157Z</time></trkpt><trkpt lat="40.91513" lon="14.2429633"><ele>92.0</ele><time>2026-04-26T06:59:16.156Z</time></trkpt><trkpt lat="40.915125" lon="14.2428683"><ele>92.0</ele><time>2026-04-26T06:59:17.157Z</time></trkpt><trkpt lat="40.91512" lon="14.2427717"><ele>92.0</ele><time>2026-04-26T06:59:18.159Z</time></trkpt><trkpt lat="40.9151133" lon="14.2426783"><ele>92.0</ele><time>2026-04-26T06:59:19.157Z</time></trkpt><trkpt lat="40.9151017" lon="14.2425867"><ele>92.0</ele><time>2026-04-26T06:59:20.156Z</time></trkpt><trkpt lat="40.9150917" lon="14.242495"><ele>92.0</ele><time>2026-04-26T06:59:21.156Z</time></trkpt><trkpt lat="40.91508" lon="14.242405"><ele>92.0</ele><time>2026-04-26T06:59:22.157Z</time></trkpt><trkpt lat="40.9150667" lon="14.2423167"><ele>92.0</ele><time>2026-04-26T06:59:23.157Z</time></trkpt><trkpt lat="40.9150517" lon="14.2422283"><ele>92.0</ele><time>2026-04-26T06:59:24.161Z</time></trkpt><trkpt lat="40.915035" lon="14.2421417"><ele>92.0</ele><time>2026-04-26T06:59:25.156Z</time></trkpt><trkpt lat="40.9150217" lon="14.2420533"><ele>92.0</ele><time>2026-04-26T06:59:26.156Z</time></trkpt><trkpt lat="40.9150067" lon="14.2419667"><ele>92.0</ele><time>2026-04-26T06:59:27.156Z</time></trkpt><trkpt lat="40.9149933" lon="14.2418817"><ele>92.0</ele><time>2026-04-26T06:59:28.156Z</time></trkpt><trkpt lat="40.91498" lon="14.2417983"><ele>92.0</ele><time>2026-04-26T06:59:29.156Z</time></trkpt><trkpt lat="40.914945" lon="14.241645"><ele>92.0</ele><time>2026-04-26T06:59:31.157Z</time></trkpt><trkpt lat="40.914905" lon="14.241495"><ele>92.0</ele><time>2026-04-26T06:59:33.156Z</time></trkpt><trkpt lat="40.9148683" lon="14.241345"><ele>92.19999999999999</ele><time>2026-04-26T06:59:35.158Z</time></trkpt><trkpt lat="40.9148283" lon="14.2412017"><ele>92.4</ele><time>2026-04-26T06:59:37.156Z</time></trkpt><trkpt lat="40.9147833" lon="14.2410533"><ele>92.6</ele><time>2026-04-26T06:59:39.156Z</time></trkpt><trkpt lat="40.9147283" lon="14.2409133"><ele>92.80000000000001</ele><time>2026-04-26T06:59:41.156Z</time></trkpt><trkpt lat="40.9147" lon="14.2408383"><ele>93.0</ele><time>2026-04-26T06:59:42.156Z</time></trkpt><trkpt lat="40.91467" lon="14.2407633"><ele>93.0</ele><time>2026-04-26T06:59:43.156Z</time></trkpt><trkpt lat="40.9146067" lon="14.2406217"><ele>93.0</ele><time>2026-04-26T06:59:45.157Z</time></trkpt><trkpt lat="40.91454" lon="14.2404917"><ele>93.0</ele><time>2026-04-26T06:59:47.158Z</time></trkpt><trkpt lat="40.914475" lon="14.2403733"><ele>93.0</ele><time>2026-04-26T06:59:49.156Z</time></trkpt><trkpt lat="40.91441" lon="14.24026"><ele>93.0</ele><time>2026-04-26T06:59:51.156Z</time></trkpt><trkpt lat="40.9143483" lon="14.2401517"><ele>93.0</ele><time>2026-04-26T06:59:53.156Z</time></trkpt><trkpt lat="40.9142883" lon="14.2400433"><ele>93.0</ele><time>2026-04-26T06:59:55.156Z</time></trkpt><trkpt lat="40.9142217" lon="14.2399333"><ele>93.0</ele><time>2026-04-26T06:59:57.156Z</time></trkpt><trkpt lat="40.914155" lon="14.2398183"><ele>93.0</ele><time>2026-04-26T06:59:59.156Z</time></trkpt><trkpt lat="40.914085" lon="14.2397"><ele>93.2</ele><time>2026-04-26T07:00:01.157Z</time></trkpt><trkpt lat="40.914015" lon="14.2395833"><ele>93.4</ele><time>2026-04-26T07:00:03.157Z</time></trkpt><trkpt lat="40.9139467" lon="14.2394817"><ele>93.60000000000001</ele><time>2026-04-26T07:00:05.156Z</time></trkpt><trkpt lat="40.9138783" lon="14.2393833"><ele>93.80000000000001</ele><time>2026-04-26T07:00:07.157Z</time></trkpt><trkpt lat="40.9138083" lon="14.239275"><ele>94.0</ele><time>2026-04-26T07:00:09.158Z</time></trkpt><trkpt lat="40.9137417" lon="14.2391717"><ele>94.0</ele><time>2026-04-26T07:00:11.157Z</time></trkpt><trkpt lat="40.9136783" lon="14.2390783"><ele>94.0</ele><time>2026-04-26T07:00:13.157Z</time></trkpt><trkpt lat="40.913615" lon="14.2389833"><ele>94.0</ele><time>2026-04-26T07:00:15.156Z</time></trkpt><trkpt lat="40.9135533" lon="14.238885"><ele>94.0</ele><time>2026-04-26T07:00:17.157Z</time></trkpt><trkpt lat="40.9134867" lon="14.2387867"><ele>94.0</ele><time>2026-04-26T07:00:19.156Z</time></trkpt><trkpt lat="40.9134233" lon="14.2386917"><ele>94.80000000000001</ele><time>2026-04-26T07:00:21.158Z</time></trkpt><trkpt lat="40.9133533" lon="14.2385917"><ele>95.60000000000001</ele><time>2026-04-26T07:00:23.157Z</time></trkpt><trkpt lat="40.9132817" lon="14.2384933"><ele>96.4</ele><time>2026-04-26T07:00:25.159Z</time></trkpt><trkpt lat="40.9132083" lon="14.2383833"><ele>97.2</ele><time>2026-04-26T07:00:27.157Z</time></trkpt><trkpt lat="40.91313" lon="14.2382683"><ele>98.0</ele><time>2026-04-26T07:00:29.157Z</time></trkpt><trkpt lat="40.9130483" lon="14.2381467"><ele>98.4</ele><time>2026-04-26T07:00:31.158Z</time></trkpt><trkpt lat="40.912965" lon="14.2380233"><ele>98.80000000000001</ele><time>2026-04-26T07:00:33.157Z</time></trkpt><trkpt lat="40.91292" lon="14.2379617"><ele>99.2</ele><time>2026-04-26T07:00:34.156Z</time></trkpt><trkpt lat="40.9128367" lon="14.2378317"><ele>99.6</ele><time>2026-04-26T07:00:36.158Z</time></trkpt><trkpt lat="40.9127917" lon="14.2377633"><ele>100.0</ele><time>2026-04-26T07:00:37.159Z</time></trkpt><trkpt lat="40.912745" lon="14.2376983"><ele>100.00000000000001</ele><time>2026-04-26T07:00:38.156Z</time></trkpt><trkpt lat="40.9126967" lon="14.2376317"><ele>100.0</ele><time>2026-04-26T07:00:39.157Z</time></trkpt><trkpt lat="40.912645" lon="14.2375583"><ele>100.0</ele><time>2026-04-26T07:00:40.158Z</time></trkpt><trkpt lat="40.912595" lon="14.237485"><ele>100.0</ele><time>2026-04-26T07:00:41.156Z</time></trkpt><trkpt lat="40.91254" lon="14.2374117"><ele>100.00000000000001</ele><time>2026-04-26T07:00:42.157Z</time></trkpt><trkpt lat="40.9124883" lon="14.237335"><ele>100.0</ele><time>2026-04-26T07:00:43.156Z</time></trkpt><trkpt lat="40.9124333" lon="14.2372617"><ele>100.28571428571429</ele><time>2026-04-26T07:00:44.156Z</time></trkpt><trkpt lat="40.91238" lon="14.2371883"><ele>100.57142857142857</ele><time>2026-04-26T07:00:45.156Z</time></trkpt><trkpt lat="40.9123317" lon="14.2371167"><ele>100.85714285714286</ele><time>2026-04-26T07:00:46.159Z</time></trkpt><trkpt lat="40.9122867" lon="14.2370483"><ele>101.14285714285714</ele><time>2026-04-26T07:00:47.158Z</time></trkpt><trkpt lat="40.9122417" lon="14.2369767"><ele>101.42857142857143</ele><time>2026-04-26T07:00:48.158Z</time></trkpt><trkpt lat="40.9121967" lon="14.236905"><ele>101.71428571428572</ele><time>2026-04-26T07:00:49.156Z</time></trkpt><trkpt lat="40.9121483" lon="14.236835"><ele>102.0</ele><time>2026-04-26T07:00:50.157Z</time></trkpt><trkpt lat="40.9120983" lon="14.2367667"><ele>102.0</ele><time>2026-04-26T07:00:51.157Z</time></trkpt><trkpt lat="40.91205" lon="14.2366933"><ele>102.0</ele><time>2026-04-26T07:00:52.156Z</time></trkpt><trkpt lat="40.9120017" lon="14.236625"><ele>102.0</ele><time>2026-04-26T07:00:53.157Z</time></trkpt><trkpt lat="40.9119483" lon="14.2365567"><ele>102.0</ele><time>2026-04-26T07:00:54.156Z</time></trkpt><trkpt lat="40.9118967" lon="14.236485"><ele>102.0</ele><time>2026-04-26T07:00:55.157Z</time></trkpt><trkpt lat="40.9118483" lon="14.2364117"><ele>102.0</ele><time>2026-04-26T07:00:56.157Z</time></trkpt><trkpt lat="40.9118017" lon="14.2363367"><ele>102.0</ele><time>2026-04-26T07:00:57.157Z</time></trkpt><trkpt lat="40.9117583" lon="14.236265"><ele>102.0</ele><time>2026-04-26T07:00:58.158Z</time></trkpt><trkpt lat="40.9117183" lon="14.2361933"><ele>102.0</ele><time>2026-04-26T07:00:59.156Z</time></trkpt><trkpt lat="40.91168" lon="14.2361217"><ele>102.0</ele><time>2026-04-26T07:01:00.158Z</time></trkpt><trkpt lat="40.911645" lon="14.23605"><ele>102.0</ele><time>2026-04-26T07:01:01.156Z</time></trkpt><trkpt lat="40.9116167" lon="14.2359733"><ele>102.0</ele><time>2026-04-26T07:01:02.157Z</time></trkpt><trkpt lat="40.911595" lon="14.235895"><ele>102.0</ele><time>2026-04-26T07:01:03.157Z</time></trkpt><trkpt lat="40.9115583" lon="14.235755"><ele>102.0</ele><time>2026-04-26T07:01:05.156Z</time></trkpt><trkpt lat="40.9115267" lon="14.23566"><ele>102.0</ele><time>2026-04-26T07:01:07.156Z</time></trkpt><trkpt lat="40.9114783" lon="14.2355833"><ele>102.0</ele><time>2026-04-26T07:01:09.157Z</time></trkpt><trkpt lat="40.9114117" lon="14.2355083"><ele>102.0</ele><time>2026-04-26T07:01:11.158Z</time></trkpt><trkpt lat="40.9113267" lon="14.2354417"><ele>102.0</ele><time>2026-04-26T07:01:13.158Z</time></trkpt><trkpt lat="40.9112333" lon="14.23538"><ele>102.0</ele><time>2026-04-26T07:01:15.157Z</time></trkpt><trkpt lat="40.9111367" lon="14.2352983"><ele>102.0</ele><time>2026-04-26T07:01:17.158Z</time></trkpt><trkpt lat="40.91105" lon="14.2351867"><ele>102.0</ele><time>2026-04-26T07:01:19.159Z</time></trkpt><trkpt lat="40.910975" lon="14.23507"><ele>102.0</ele><time>2026-04-26T07:01:21.157Z</time></trkpt><trkpt lat="40.9109" lon="14.2349467"><ele>102.0</ele><time>2026-04-26T07:01:23.159Z</time></trkpt><trkpt lat="40.91082" lon="14.2348267"><ele>102.25</ele><time>2026-04-26T07:01:25.157Z</time></trkpt><trkpt lat="40.9107417" lon="14.2347083"><ele>102.5</ele><time>2026-04-26T07:01:27.158Z</time></trkpt><trkpt lat="40.9106633" lon="14.2345867"><ele>102.75</ele><time>2026-04-26T07:01:29.157Z</time></trkpt><trkpt lat="40.9105867" lon="14.2344567"><ele>103.0</ele><time>2026-04-26T07:01:31.157Z</time></trkpt><trkpt lat="40.910515" lon="14.234325"><ele>103.0</ele><time>2026-04-26T07:01:33.156Z</time></trkpt><trkpt lat="40.9104467" lon="14.234195"><ele>103.0</ele><time>2026-04-26T07:01:35.157Z</time></trkpt><trkpt lat="40.9103833" lon="14.23406"><ele>103.0</ele><time>2026-04-26T07:01:37.157Z</time></trkpt><trkpt lat="40.91032" lon="14.2339167"><ele>103.0</ele><time>2026-04-26T07:01:39.156Z</time></trkpt><trkpt lat="40.9102883" lon="14.2338433"><ele>103.0</ele><time>2026-04-26T07:01:40.158Z</time></trkpt><trkpt lat="40.9102583" lon="14.2337683"><ele>103.2</ele><time>2026-04-26T07:01:41.156Z</time></trkpt><trkpt lat="40.9102217" lon="14.23369"><ele>103.4</ele><time>2026-04-26T07:01:42.158Z</time></trkpt><trkpt lat="40.910185" lon="14.2336167"><ele>103.60000000000001</ele><time>2026-04-26T07:01:43.157Z</time></trkpt><trkpt lat="40.9101383" lon="14.2334733"><ele>103.80000000000001</ele><time>2026-04-26T07:01:45.158Z</time></trkpt><trkpt lat="40.910095" lon="14.233325"><ele>104.0</ele><time>2026-04-26T07:01:47.156Z</time></trkpt><trkpt lat="40.9100583" lon="14.2331733"><ele>105.25</ele><time>2026-04-26T07:01:49.157Z</time></trkpt><trkpt lat="40.910025" lon="14.2330183"><ele>106.5</ele><time>2026-04-26T07:01:51.157Z</time></trkpt><trkpt lat="40.91" lon="14.2328667"><ele>107.75</ele><time>2026-04-26T07:01:53.156Z</time></trkpt><trkpt lat="40.9099783" lon="14.2327117"><ele>109.0</ele><time>2026-04-26T07:01:55.158Z</time></trkpt><trkpt lat="40.9099517" lon="14.23256"><ele>109.0</ele><time>2026-04-26T07:01:57.156Z</time></trkpt><trkpt lat="40.90992" lon="14.2324067"><ele>109.0</ele><time>2026-04-26T07:01:59.159Z</time></trkpt><trkpt lat="40.9099033" lon="14.2322483"><ele>109.0</ele><time>2026-04-26T07:02:01.157Z</time></trkpt><trkpt lat="40.9098883" lon="14.2320867"><ele>109.0</ele><time>2026-04-26T07:02:03.157Z</time></trkpt><trkpt lat="40.9098783" lon="14.2319217"><ele>108.83333333333334</ele><time>2026-04-26T07:02:05.158Z</time></trkpt><trkpt lat="40.9098733" lon="14.2318383"><ele>108.66666666666667</ele><time>2026-04-26T07:02:06.156Z</time></trkpt><trkpt lat="40.90987" lon="14.231755"><ele>108.5</ele><time>2026-04-26T07:02:07.157Z</time></trkpt><trkpt lat="40.9098683" lon="14.23167"><ele>108.33333333333334</ele><time>2026-04-26T07:02:08.156Z</time></trkpt><trkpt lat="40.90987" lon="14.2315833"><ele>108.16666666666667</ele><time>2026-04-26T07:02:09.157Z</time></trkpt><trkpt lat="40.9098767" lon="14.23142"><ele>108.0</ele><time>2026-04-26T07:02:11.157Z</time></trkpt><trkpt lat="40.90988" lon="14.231255"><ele>108.0</ele><time>2026-04-26T07:02:13.157Z</time></trkpt><trkpt lat="40.909885" lon="14.2311667"><ele>108.0</ele><time>2026-04-26T07:02:14.156Z</time></trkpt><trkpt lat="40.9098883" lon="14.2310783"><ele>108.0</ele><time>2026-04-26T07:02:15.157Z</time></trkpt><trkpt lat="40.909895" lon="14.2309917"><ele>108.0</ele><time>2026-04-26T07:02:16.158Z</time></trkpt><trkpt lat="40.9099117" lon="14.2308283"><ele>108.0</ele><time>2026-04-26T07:02:18.157Z</time></trkpt><trkpt lat="40.9099333" lon="14.2306667"><ele>108.0</ele><time>2026-04-26T07:02:20.157Z</time></trkpt><trkpt lat="40.9099483" lon="14.230585"><ele>108.14285714285714</ele><time>2026-04-26T07:02:21.156Z</time></trkpt><trkpt lat="40.9099667" lon="14.2305017"><ele>108.28571428571428</ele><time>2026-04-26T07:02:22.157Z</time></trkpt><trkpt lat="40.9099867" lon="14.2304183"><ele>108.42857142857143</ele><time>2026-04-26T07:02:23.156Z</time></trkpt><trkpt lat="40.910005" lon="14.2303367"><ele>108.57142857142857</ele><time>2026-04-26T07:02:24.158Z</time></trkpt><trkpt lat="40.9100417" lon="14.23018"><ele>108.71428571428572</ele><time>2026-04-26T07:02:26.157Z</time></trkpt><trkpt lat="40.9100617" lon="14.2301"><ele>108.85714285714286</ele><time>2026-04-26T07:02:27.158Z</time></trkpt><trkpt lat="40.9100833" lon="14.23002"><ele>109.0</ele><time>2026-04-26T07:02:28.156Z</time></trkpt><trkpt lat="40.9101267" lon="14.2298617"><ele>108.85714285714286</ele><time>2026-04-26T07:02:30.156Z</time></trkpt><trkpt lat="40.9101533" lon="14.22978"><ele>108.71428571428572</ele><time>2026-04-26T07:02:31.156Z</time></trkpt><trkpt lat="40.9101817" lon="14.2296983"><ele>108.57142857142857</ele><time>2026-04-26T07:02:32.158Z</time></trkpt><trkpt lat="40.91021" lon="14.229615"><ele>108.42857142857143</ele><time>2026-04-26T07:02:33.157Z</time></trkpt><trkpt lat="40.9102383" lon="14.2295333"><ele>108.28571428571428</ele><time>2026-04-26T07:02:34.157Z</time></trkpt><trkpt lat="40.9102633" lon="14.2294533"><ele>108.14285714285714</ele><time>2026-04-26T07:02:35.158Z</time></trkpt><trkpt lat="40.9102917" lon="14.2293717"><ele>108.0</ele><time>2026-04-26T07:02:36.158Z</time></trkpt><trkpt lat="40.9103183" lon="14.2292917"><ele>108.0</ele><time>2026-04-26T07:02:37.156Z</time></trkpt><trkpt lat="40.9103467" lon="14.22921"><ele>108.0</ele><time>2026-04-26T07:02:38.156Z</time></trkpt><trkpt lat="40.9103767" lon="14.22913"><ele>108.0</ele><time>2026-04-26T07:02:39.159Z</time></trkpt><trkpt lat="40.9104117" lon="14.2290517"><ele>108.0</ele><time>2026-04-26T07:02:40.157Z</time></trkpt><trkpt lat="40.910445" lon="14.2289717"><ele>108.0</ele><time>2026-04-26T07:02:41.158Z</time></trkpt><trkpt lat="40.9104783" lon="14.2288883"><ele>108.0</ele><time>2026-04-26T07:02:42.156Z</time></trkpt><trkpt lat="40.9105083" lon="14.2288017"><ele>108.0</ele><time>2026-04-26T07:02:43.157Z</time></trkpt><trkpt lat="40.910535" lon="14.2287183"><ele>108.14285714285714</ele><time>2026-04-26T07:02:44.157Z</time></trkpt><trkpt lat="40.9105667" lon="14.228635"><ele>108.28571428571428</ele><time>2026-04-26T07:02:45.158Z</time></trkpt><trkpt lat="40.9105983" lon="14.2285483"><ele>108.42857142857143</ele><time>2026-04-26T07:02:46.156Z</time></trkpt><trkpt lat="40.9106283" lon="14.2284633"><ele>108.57142857142857</ele><time>2026-04-26T07:02:47.157Z</time></trkpt><trkpt lat="40.9106567" lon="14.2283833"><ele>108.71428571428572</ele><time>2026-04-26T07:02:48.157Z</time></trkpt><trkpt lat="40.9106867" lon="14.2283017"><ele>108.85714285714286</ele><time>2026-04-26T07:02:49.156Z</time></trkpt><trkpt lat="40.91072" lon="14.2282183"><ele>109.0</ele><time>2026-04-26T07:02:50.158Z</time></trkpt><trkpt lat="40.910755" lon="14.22814"><ele>109.14285714285714</ele><time>2026-04-26T07:02:51.156Z</time></trkpt><trkpt lat="40.91079" lon="14.22806"><ele>109.28571428571429</ele><time>2026-04-26T07:02:52.157Z</time></trkpt><trkpt lat="40.9108233" lon="14.2279783"><ele>109.42857142857142</ele><time>2026-04-26T07:02:53.158Z</time></trkpt><trkpt lat="40.9108517" lon="14.227895"><ele>109.57142857142857</ele><time>2026-04-26T07:02:54.157Z</time></trkpt><trkpt lat="40.91088" lon="14.22781"><ele>109.71428571428571</ele><time>2026-04-26T07:02:55.157Z</time></trkpt><trkpt lat="40.9109117" lon="14.2277217"><ele>109.85714285714285</ele><time>2026-04-26T07:02:56.157Z</time></trkpt><trkpt lat="40.9109433" lon="14.2276283"><ele>110.0</ele><time>2026-04-26T07:02:57.158Z</time></trkpt><trkpt lat="40.9109717" lon="14.227535"><ele>109.99999999999999</ele><time>2026-04-26T07:02:58.156Z</time></trkpt><trkpt lat="40.911005" lon="14.227455"><ele>110.0</ele><time>2026-04-26T07:02:59.157Z</time></trkpt><trkpt lat="40.9110483" lon="14.22738"><ele>110.0</ele><time>2026-04-26T07:03:00.158Z</time></trkpt><trkpt lat="40.9110933" lon="14.227305"><ele>110.0</ele><time>2026-04-26T07:03:01.158Z</time></trkpt><trkpt lat="40.911135" lon="14.2272217"><ele>110.0</ele><time>2026-04-26T07:03:02.158Z</time></trkpt><trkpt lat="40.9111733" lon="14.2271333"><ele>109.99999999999999</ele><time>2026-04-26T07:03:03.157Z</time></trkpt><trkpt lat="40.9112067" lon="14.2270433"><ele>110.0</ele><time>2026-04-26T07:03:04.157Z</time></trkpt><trkpt lat="40.9112383" lon="14.226955"><ele>109.99999999999999</ele><time>2026-04-26T07:03:05.157Z</time></trkpt><trkpt lat="40.911265" lon="14.226865"><ele>110.0</ele><time>2026-04-26T07:03:06.157Z</time></trkpt><trkpt lat="40.911295" lon="14.226775"><ele>110.0</ele><time>2026-04-26T07:03:07.158Z</time></trkpt><trkpt lat="40.9113267" lon="14.22668"><ele>110.0</ele><time>2026-04-26T07:03:08.157Z</time></trkpt><trkpt lat="40.9113583" lon="14.2265833"><ele>109.99999999999999</ele><time>2026-04-26T07:03:09.157Z</time></trkpt><trkpt lat="40.9113867" lon="14.2264883"><ele>110.0</ele><time>2026-04-26T07:03:10.157Z</time></trkpt><trkpt lat="40.911415" lon="14.226395"><ele>110.16666666666666</ele><time>2026-04-26T07:03:11.158Z</time></trkpt><trkpt lat="40.9114517" lon="14.226305"><ele>110.33333333333333</ele><time>2026-04-26T07:03:12.156Z</time></trkpt><trkpt lat="40.911485" lon="14.2262167"><ele>110.5</ele><time>2026-04-26T07:03:13.158Z</time></trkpt><trkpt lat="40.9115183" lon="14.2261183"><ele>110.66666666666666</ele><time>2026-04-26T07:03:14.157Z</time></trkpt><trkpt lat="40.91155" lon="14.2260233"><ele>110.83333333333333</ele><time>2026-04-26T07:03:15.158Z</time></trkpt><trkpt lat="40.9115867" lon="14.2259333"><ele>111.0</ele><time>2026-04-26T07:03:16.159Z</time></trkpt><trkpt lat="40.9116183" lon="14.225845"><ele>111.0</ele><time>2026-04-26T07:03:17.156Z</time></trkpt><trkpt lat="40.91165" lon="14.22575"><ele>111.0</ele><time>2026-04-26T07:03:18.157Z</time></trkpt><trkpt lat="40.9116833" lon="14.2256583"><ele>111.0</ele><time>2026-04-26T07:03:19.157Z</time></trkpt><trkpt lat="40.91172" lon="14.2255683"><ele>111.0</ele><time>2026-04-26T07:03:20.156Z</time></trkpt><trkpt lat="40.9117567" lon="14.225475"><ele>111.0</ele><time>2026-04-26T07:03:21.156Z</time></trkpt><trkpt lat="40.9117883" lon="14.22538"><ele>111.0</ele><time>2026-04-26T07:03:22.156Z</time></trkpt><trkpt lat="40.911825" lon="14.2252867"><ele>110.83333333333333</ele><time>2026-04-26T07:03:23.157Z</time></trkpt><trkpt lat="40.91186" lon="14.2251867"><ele>110.66666666666666</ele><time>2026-04-26T07:03:24.157Z</time></trkpt><trkpt lat="40.9118967" lon="14.2250917"><ele>110.5</ele><time>2026-04-26T07:03:25.157Z</time></trkpt><trkpt lat="40.9119333" lon="14.225"><ele>110.33333333333333</ele><time>2026-04-26T07:03:26.159Z</time></trkpt><trkpt lat="40.9119633" lon="14.2249067"><ele>110.16666666666666</ele><time>2026-04-26T07:03:27.157Z</time></trkpt><trkpt lat="40.9119917" lon="14.2248133"><ele>110.0</ele><time>2026-04-26T07:03:28.158Z</time></trkpt><trkpt lat="40.9120217" lon="14.2247217"><ele>109.99999999999999</ele><time>2026-04-26T07:03:29.156Z</time></trkpt><trkpt lat="40.9120533" lon="14.2246317"><ele>110.0</ele><time>2026-04-26T07:03:30.157Z</time></trkpt><trkpt lat="40.9120867" lon="14.224545"><ele>110.0</ele><time>2026-04-26T07:03:31.156Z</time></trkpt><trkpt lat="40.912125" lon="14.2244583"><ele>110.0</ele><time>2026-04-26T07:03:32.161Z</time></trkpt><trkpt lat="40.91216" lon="14.2243683"><ele>109.99999999999999</ele><time>2026-04-26T07:03:33.157Z</time></trkpt><trkpt lat="40.9121967" lon="14.224275"><ele>110.0</ele><time>2026-04-26T07:03:34.156Z</time></trkpt><trkpt lat="40.9122317" lon="14.2241767"><ele>109.99999999999999</ele><time>2026-04-26T07:03:35.156Z</time></trkpt><trkpt lat="40.91227" lon="14.2240833"><ele>110.0</ele><time>2026-04-26T07:03:36.158Z</time></trkpt><trkpt lat="40.9123117" lon="14.2239817"><ele>110.0</ele><time>2026-04-26T07:03:37.157Z</time></trkpt><trkpt lat="40.91235" lon="14.2238817"><ele>110.0</ele><time>2026-04-26T07:03:38.157Z</time></trkpt><trkpt lat="40.9123867" lon="14.2237867"><ele>109.99999999999999</ele><time>2026-04-26T07:03:39.156Z</time></trkpt><trkpt lat="40.9124217" lon="14.2236883"><ele>110.0</ele><time>2026-04-26T07:03:40.158Z</time></trkpt><trkpt lat="40.91246" lon="14.2235967"><ele>109.99999999999999</ele><time>2026-04-26T07:03:41.158Z</time></trkpt><trkpt lat="40.9124967" lon="14.2235033"><ele>110.0</ele><time>2026-04-26T07:03:42.16Z</time></trkpt><trkpt lat="40.9125317" lon="14.2234067"><ele>110.0</ele><time>2026-04-26T07:03:43.159Z</time></trkpt><trkpt lat="40.9125667" lon="14.2233117"><ele>110.0</ele><time>2026-04-26T07:03:44.159Z</time></trkpt><trkpt lat="40.9125967" lon="14.2232183"><ele>109.99999999999999</ele><time>2026-04-26T07:03:45.156Z</time></trkpt><trkpt lat="40.91263" lon="14.223125"><ele>110.0</ele><time>2026-04-26T07:03:46.159Z</time></trkpt><trkpt lat="40.9126633" lon="14.22303"><ele>109.99999999999999</ele><time>2026-04-26T07:03:47.158Z</time></trkpt><trkpt lat="40.9127" lon="14.222935"><ele>110.0</ele><time>2026-04-26T07:03:48.157Z</time></trkpt><trkpt lat="40.9127367" lon="14.2228417"><ele>110.0</ele><time>2026-04-26T07:03:49.156Z</time></trkpt><trkpt lat="40.9127683" lon="14.2227417"><ele>110.0</ele><time>2026-04-26T07:03:50.157Z</time></trkpt><trkpt lat="40.9128017" lon="14.2226467"><ele>109.99999999999999</ele><time>2026-04-26T07:03:51.156Z</time></trkpt><trkpt lat="40.9128333" lon="14.22255"><ele>110.0</ele><time>2026-04-26T07:03:52.157Z</time></trkpt><trkpt lat="40.9128717" lon="14.2224617"><ele>109.99999999999999</ele><time>2026-04-26T07:03:53.156Z</time></trkpt><trkpt lat="40.9129083" lon="14.2223683"><ele>110.0</ele><time>2026-04-26T07:03:54.157Z</time></trkpt><trkpt lat="40.9129433" lon="14.22227"><ele>110.0</ele><time>2026-04-26T07:03:55.157Z</time></trkpt><trkpt lat="40.9129767" lon="14.22217"><ele>110.0</ele><time>2026-04-26T07:03:56.157Z</time></trkpt><trkpt lat="40.9130117" lon="14.22208"><ele>109.99999999999999</ele><time>2026-04-26T07:03:57.157Z</time></trkpt><trkpt lat="40.9130433" lon="14.221985"><ele>110.0</ele><time>2026-04-26T07:03:58.157Z</time></trkpt><trkpt lat="40.9130783" lon="14.2218883"><ele>109.83333333333333</ele><time>2026-04-26T07:03:59.156Z</time></trkpt><trkpt lat="40.9131133" lon="14.221795"><ele>109.66666666666666</ele><time>2026-04-26T07:04:00.157Z</time></trkpt><trkpt lat="40.91315" lon="14.2217"><ele>109.5</ele><time>2026-04-26T07:04:01.158Z</time></trkpt><trkpt lat="40.9131883" lon="14.2216033"><ele>109.33333333333334</ele><time>2026-04-26T07:04:02.158Z</time></trkpt><trkpt lat="40.9132217" lon="14.2215083"><ele>109.16666666666667</ele><time>2026-04-26T07:04:03.158Z</time></trkpt><trkpt lat="40.9132567" lon="14.2214133"><ele>109.0</ele><time>2026-04-26T07:04:04.157Z</time></trkpt><trkpt lat="40.91329" lon="14.221315"><ele>109.16666666666667</ele><time>2026-04-26T07:04:05.156Z</time></trkpt><trkpt lat="40.9133233" lon="14.2212183"><ele>109.33333333333334</ele><time>2026-04-26T07:04:06.156Z</time></trkpt><trkpt lat="40.9133567" lon="14.22112"><ele>109.5</ele><time>2026-04-26T07:04:07.159Z</time></trkpt><trkpt lat="40.9133933" lon="14.2210233"><ele>109.66666666666666</ele><time>2026-04-26T07:04:08.156Z</time></trkpt><trkpt lat="40.9134283" lon="14.2209217"><ele>109.83333333333333</ele><time>2026-04-26T07:04:09.156Z</time></trkpt><trkpt lat="40.9134683" lon="14.2208217"><ele>110.0</ele><time>2026-04-26T07:04:10.157Z</time></trkpt><trkpt lat="40.913505" lon="14.22072"><ele>109.99999999999999</ele><time>2026-04-26T07:04:11.155Z</time></trkpt><trkpt lat="40.91354" lon="14.2206167"><ele>110.0</ele><time>2026-04-26T07:04:12.157Z</time></trkpt><trkpt lat="40.9135767" lon="14.2205167"><ele>110.0</ele><time>2026-04-26T07:04:13.156Z</time></trkpt><trkpt lat="40.9136083" lon="14.22042"><ele>110.0</ele><time>2026-04-26T07:04:14.156Z</time></trkpt><trkpt lat="40.9136483" lon="14.2203217"><ele>109.99999999999999</ele><time>2026-04-26T07:04:15.157Z</time></trkpt><trkpt lat="40.91369" lon="14.22022"><ele>110.0</ele><time>2026-04-26T07:04:16.156Z</time></trkpt><trkpt lat="40.9137317" lon="14.2201217"><ele>109.99999999999999</ele><time>2026-04-26T07:04:17.157Z</time></trkpt><trkpt lat="40.91377" lon="14.2200283"><ele>110.0</ele><time>2026-04-26T07:04:18.157Z</time></trkpt><trkpt lat="40.9138067" lon="14.21993"><ele>110.0</ele><time>2026-04-26T07:04:19.156Z</time></trkpt><trkpt lat="40.9138433" lon="14.2198333"><ele>110.0</ele><time>2026-04-26T07:04:20.156Z</time></trkpt><trkpt lat="40.9138817" lon="14.219735"><ele>109.99999999999999</ele><time>2026-04-26T07:04:21.157Z</time></trkpt><trkpt lat="40.9139233" lon="14.2196333"><ele>110.0</ele><time>2026-04-26T07:04:22.155Z</time></trkpt><trkpt lat="40.9139567" lon="14.2195367"><ele>109.99999999999999</ele><time>2026-04-26T07:04:23.157Z</time></trkpt><trkpt lat="40.9139917" lon="14.2194383"><ele>110.0</ele><time>2026-04-26T07:04:24.156Z</time></trkpt><trkpt lat="40.91402" lon="14.219335"><ele>110.0</ele><time>2026-04-26T07:04:25.156Z</time></trkpt><trkpt lat="40.9140533" lon="14.2192367"><ele>110.0</ele><time>2026-04-26T07:04:26.157Z</time></trkpt><trkpt lat="40.91409" lon="14.2191367"><ele>109.99999999999999</ele><time>2026-04-26T07:04:27.157Z</time></trkpt><trkpt lat="40.9141283" lon="14.2190383"><ele>110.0</ele><time>2026-04-26T07:04:28.158Z</time></trkpt><trkpt lat="40.914165" lon="14.2189383"><ele>109.99999999999999</ele><time>2026-04-26T07:04:29.155Z</time></trkpt><trkpt lat="40.9142017" lon="14.2188367"><ele>110.0</ele><time>2026-04-26T07:04:30.158Z</time></trkpt><trkpt lat="40.9142367" lon="14.218735"><ele>110.0</ele><time>2026-04-26T07:04:31.155Z</time></trkpt><trkpt lat="40.9142733" lon="14.2186267"><ele>110.0</ele><time>2026-04-26T07:04:32.158Z</time></trkpt><trkpt lat="40.91431" lon="14.2185217"><ele>109.99999999999999</ele><time>2026-04-26T07:04:33.155Z</time></trkpt><trkpt lat="40.91435" lon="14.21842"><ele>110.0</ele><time>2026-04-26T07:04:34.155Z</time></trkpt><trkpt lat="40.91439" lon="14.21832"><ele>109.66666666666666</ele><time>2026-04-26T07:04:35.156Z</time></trkpt><trkpt lat="40.914435" lon="14.2182317"><ele>109.33333333333333</ele><time>2026-04-26T07:04:36.157Z</time></trkpt><trkpt lat="40.9144917" lon="14.2181533"><ele>109.0</ele><time>2026-04-26T07:04:37.156Z</time></trkpt><trkpt lat="40.914555" lon="14.2180833"><ele>108.66666666666666</ele><time>2026-04-26T07:04:38.156Z</time></trkpt><trkpt lat="40.9146133" lon="14.2180033"><ele>108.33333333333333</ele><time>2026-04-26T07:04:39.156Z</time></trkpt><trkpt lat="40.91466" lon="14.21791"><ele>108.0</ele><time>2026-04-26T07:04:40.156Z</time></trkpt><trkpt lat="40.9146983" lon="14.2178083"><ele>108.0</ele><time>2026-04-26T07:04:41.156Z</time></trkpt><trkpt lat="40.9147233" lon="14.2177017"><ele>108.0</ele><time>2026-04-26T07:04:42.156Z</time></trkpt><trkpt lat="40.9147433" lon="14.217595"><ele>108.0</ele><time>2026-04-26T07:04:43.157Z</time></trkpt><trkpt lat="40.9147633" lon="14.217485"><ele>108.0</ele><time>2026-04-26T07:04:44.156Z</time></trkpt><trkpt lat="40.9147817" lon="14.2173767"><ele>108.0</ele><time>2026-04-26T07:04:45.156Z</time></trkpt><trkpt lat="40.9148083" lon="14.21727"><ele>108.0</ele><time>2026-04-26T07:04:46.155Z</time></trkpt><trkpt lat="40.9148383" lon="14.217165"><ele>108.5</ele><time>2026-04-26T07:04:47.156Z</time></trkpt><trkpt lat="40.91487" lon="14.2170617"><ele>109.0</ele><time>2026-04-26T07:04:48.156Z</time></trkpt><trkpt lat="40.914905" lon="14.2169633"><ele>109.5</ele><time>2026-04-26T07:04:49.157Z</time></trkpt><trkpt lat="40.91494" lon="14.2168683"><ele>110.0</ele><time>2026-04-26T07:04:50.157Z</time></trkpt><trkpt lat="40.91498" lon="14.216775"><ele>110.5</ele><time>2026-04-26T07:04:51.156Z</time></trkpt><trkpt lat="40.9150167" lon="14.2166833"><ele>111.0</ele><time>2026-04-26T07:04:52.156Z</time></trkpt><trkpt lat="40.9150517" lon="14.21659"><ele>111.0</ele><time>2026-04-26T07:04:53.156Z</time></trkpt><trkpt lat="40.9150867" lon="14.216495"><ele>111.0</ele><time>2026-04-26T07:04:54.158Z</time></trkpt><trkpt lat="40.9151233" lon="14.2163983"><ele>111.0</ele><time>2026-04-26T07:04:55.156Z</time></trkpt><trkpt lat="40.9151583" lon="14.2163033"><ele>111.0</ele><time>2026-04-26T07:04:56.156Z</time></trkpt><trkpt lat="40.9151967" lon="14.2162083"><ele>111.0</ele><time>2026-04-26T07:04:57.157Z</time></trkpt><trkpt lat="40.9152367" lon="14.21611"><ele>111.0</ele><time>2026-04-26T07:04:58.157Z</time></trkpt><trkpt lat="40.915275" lon="14.216005"><ele>111.16666666666667</ele><time>2026-04-26T07:04:59.155Z</time></trkpt><trkpt lat="40.915315" lon="14.2159017"><ele>111.33333333333334</ele><time>2026-04-26T07:05:00.156Z</time></trkpt><trkpt lat="40.9153533" lon="14.2158017"><ele>111.5</ele><time>2026-04-26T07:05:01.155Z</time></trkpt><trkpt lat="40.91539" lon="14.2157017"><ele>111.66666666666667</ele><time>2026-04-26T07:05:02.155Z</time></trkpt><trkpt lat="40.915425" lon="14.2156067"><ele>111.83333333333334</ele><time>2026-04-26T07:05:03.156Z</time></trkpt><trkpt lat="40.9154583" lon="14.2155067"><ele>112.0</ele><time>2026-04-26T07:05:04.156Z</time></trkpt><trkpt lat="40.9154933" lon="14.215405"><ele>111.66666666666667</ele><time>2026-04-26T07:05:05.157Z</time></trkpt><trkpt lat="40.9155317" lon="14.2153033"><ele>111.33333333333334</ele><time>2026-04-26T07:05:06.158Z</time></trkpt><trkpt lat="40.9155683" lon="14.2152"><ele>111.0</ele><time>2026-04-26T07:05:07.155Z</time></trkpt><trkpt lat="40.9156083" lon="14.2150983"><ele>110.66666666666666</ele><time>2026-04-26T07:05:08.156Z</time></trkpt><trkpt lat="40.91565" lon="14.2149933"><ele>110.33333333333333</ele><time>2026-04-26T07:05:09.156Z</time></trkpt><trkpt lat="40.9156917" lon="14.2148883"><ele>110.0</ele><time>2026-04-26T07:05:10.156Z</time></trkpt><trkpt lat="40.9157267" lon="14.2147883"><ele>109.99999999999999</ele><time>2026-04-26T07:05:11.155Z</time></trkpt><trkpt lat="40.915765" lon="14.2146917"><ele>110.0</ele><time>2026-04-26T07:05:12.157Z</time></trkpt><trkpt lat="40.9158033" lon="14.2145917"><ele>110.0</ele><time>2026-04-26T07:05:13.156Z</time></trkpt><trkpt lat="40.9158467" lon="14.21449"><ele>110.0</ele><time>2026-04-26T07:05:14.156Z</time></trkpt><trkpt lat="40.9158867" lon="14.214385"><ele>109.99999999999999</ele><time>2026-04-26T07:05:15.155Z</time></trkpt><trkpt lat="40.9159233" lon="14.2142817"><ele>110.0</ele><time>2026-04-26T07:05:16.156Z</time></trkpt><trkpt lat="40.9159617" lon="14.214175"><ele>109.99999999999999</ele><time>2026-04-26T07:05:17.155Z</time></trkpt><trkpt lat="40.916" lon="14.21407"><ele>110.0</ele><time>2026-04-26T07:05:18.156Z</time></trkpt><trkpt lat="40.91604" lon="14.2139633"><ele>110.0</ele><time>2026-04-26T07:05:19.157Z</time></trkpt><trkpt lat="40.916075" lon="14.2138583"><ele>110.0</ele><time>2026-04-26T07:05:20.157Z</time></trkpt><trkpt lat="40.916105" lon="14.2137583"><ele>109.99999999999999</ele><time>2026-04-26T07:05:21.155Z</time></trkpt><trkpt lat="40.91613" lon="14.21366"><ele>110.0</ele><time>2026-04-26T07:05:22.157Z</time></trkpt><trkpt lat="40.91616" lon="14.2135567"><ele>109.99999999999999</ele><time>2026-04-26T07:05:23.156Z</time></trkpt><trkpt lat="40.9161867" lon="14.2134467"><ele>110.0</ele><time>2026-04-26T07:05:24.156Z</time></trkpt><trkpt lat="40.9162133" lon="14.2133383"><ele>110.0</ele><time>2026-04-26T07:05:25.157Z</time></trkpt><trkpt lat="40.9162417" lon="14.2132283"><ele>110.0</ele><time>2026-04-26T07:05:26.157Z</time></trkpt><trkpt lat="40.9162667" lon="14.2131167"><ele>109.99999999999999</ele><time>2026-04-26T07:05:27.157Z</time></trkpt><trkpt lat="40.9162883" lon="14.2130033"><ele>110.0</ele><time>2026-04-26T07:05:28.156Z</time></trkpt><trkpt lat="40.916305" lon="14.2128867"><ele>109.99999999999999</ele><time>2026-04-26T07:05:29.157Z</time></trkpt><trkpt lat="40.91632" lon="14.2127733"><ele>110.0</ele><time>2026-04-26T07:05:30.156Z</time></trkpt><trkpt lat="40.9163333" lon="14.2126617"><ele>110.0</ele><time>2026-04-26T07:05:31.157Z</time></trkpt><trkpt lat="40.916345" lon="14.2125467"><ele>110.0</ele><time>2026-04-26T07:05:32.157Z</time></trkpt><trkpt lat="40.9163617" lon="14.21243"><ele>109.99999999999999</ele><time>2026-04-26T07:05:33.157Z</time></trkpt><trkpt lat="40.916375" lon="14.2123133"><ele>110.0</ele><time>2026-04-26T07:05:34.157Z</time></trkpt><trkpt lat="40.9163833" lon="14.2121983"><ele>110.33333333333333</ele><time>2026-04-26T07:05:35.157Z</time></trkpt><trkpt lat="40.9163933" lon="14.212085"><ele>110.66666666666666</ele><time>2026-04-26T07:05:36.156Z</time></trkpt><trkpt lat="40.9164017" lon="14.2119717"><ele>111.0</ele><time>2026-04-26T07:05:37.156Z</time></trkpt><trkpt lat="40.9164117" lon="14.21186"><ele>111.33333333333334</ele><time>2026-04-26T07:05:38.156Z</time></trkpt><trkpt lat="40.916425" lon="14.211745"><ele>111.66666666666667</ele><time>2026-04-26T07:05:39.157Z</time></trkpt><trkpt lat="40.9164283" lon="14.21163"><ele>112.0</ele><time>2026-04-26T07:05:40.157Z</time></trkpt><trkpt lat="40.9164333" lon="14.2115133"><ele>111.83333333333334</ele><time>2026-04-26T07:05:41.156Z</time></trkpt><trkpt lat="40.91644" lon="14.2113983"><ele>111.66666666666667</ele><time>2026-04-26T07:05:42.162Z</time></trkpt><trkpt lat="40.91645" lon="14.2112867"><ele>111.5</ele><time>2026-04-26T07:05:43.156Z</time></trkpt><trkpt lat="40.9164567" lon="14.21117"><ele>111.33333333333334</ele><time>2026-04-26T07:05:44.157Z</time></trkpt><trkpt lat="40.9164633" lon="14.211055"><ele>111.16666666666667</ele><time>2026-04-26T07:05:45.156Z</time></trkpt><trkpt lat="40.9164683" lon="14.21094"><ele>111.0</ele><time>2026-04-26T07:05:46.156Z</time></trkpt><trkpt lat="40.916475" lon="14.210825"><ele>111.0</ele><time>2026-04-26T07:05:47.157Z</time></trkpt><trkpt lat="40.9164783" lon="14.2107117"><ele>111.0</ele><time>2026-04-26T07:05:48.156Z</time></trkpt><trkpt lat="40.91648" lon="14.2105933"><ele>111.0</ele><time>2026-04-26T07:05:49.156Z</time></trkpt><trkpt lat="40.9164867" lon="14.2104717"><ele>111.0</ele><time>2026-04-26T07:05:50.156Z</time></trkpt><trkpt lat="40.9164917" lon="14.2103567"><ele>111.0</ele><time>2026-04-26T07:05:51.156Z</time></trkpt><trkpt lat="40.9164967" lon="14.210245"><ele>111.0</ele><time>2026-04-26T07:05:52.156Z</time></trkpt><trkpt lat="40.9165033" lon="14.2101367"><ele>111.0</ele><time>2026-04-26T07:05:53.156Z</time></trkpt><trkpt lat="40.91651" lon="14.2100267"><ele>111.0</ele><time>2026-04-26T07:05:54.157Z</time></trkpt><trkpt lat="40.9165167" lon="14.2099167"><ele>111.0</ele><time>2026-04-26T07:05:55.158Z</time></trkpt><trkpt lat="40.9165233" lon="14.2098067"><ele>111.0</ele><time>2026-04-26T07:05:56.157Z</time></trkpt><trkpt lat="40.9165333" lon="14.209695"><ele>111.0</ele><time>2026-04-26T07:05:57.156Z</time></trkpt><trkpt lat="40.9165417" lon="14.209585"><ele>111.0</ele><time>2026-04-26T07:05:58.156Z</time></trkpt><trkpt lat="40.9165517" lon="14.2094733"><ele>111.0</ele><time>2026-04-26T07:05:59.156Z</time></trkpt><trkpt lat="40.9165633" lon="14.2093617"><ele>111.0</ele><time>2026-04-26T07:06:00.157Z</time></trkpt><trkpt lat="40.9165733" lon="14.209245"><ele>111.0</ele><time>2026-04-26T07:06:01.156Z</time></trkpt><trkpt lat="40.9165767" lon="14.2091333"><ele>111.0</ele><time>2026-04-26T07:06:02.156Z</time></trkpt><trkpt lat="40.9165833" lon="14.2090217"><ele>111.0</ele><time>2026-04-26T07:06:03.157Z</time></trkpt><trkpt lat="40.916595" lon="14.2089133"><ele>111.0</ele><time>2026-04-26T07:06:04.156Z</time></trkpt><trkpt lat="40.9166033" lon="14.2088"><ele>111.0</ele><time>2026-04-26T07:06:05.157Z</time></trkpt><trkpt lat="40.9166083" lon="14.2086933"><ele>111.0</ele><time>2026-04-26T07:06:06.156Z</time></trkpt><trkpt lat="40.9166133" lon="14.2085917"><ele>111.0</ele><time>2026-04-26T07:06:07.156Z</time></trkpt><trkpt lat="40.9166183" lon="14.2084933"><ele>111.0</ele><time>2026-04-26T07:06:08.157Z</time></trkpt><trkpt lat="40.9166283" lon="14.2083917"><ele>111.0</ele><time>2026-04-26T07:06:09.156Z</time></trkpt><trkpt lat="40.916635" lon="14.20829"><ele>111.0</ele><time>2026-04-26T07:06:10.156Z</time></trkpt><trkpt lat="40.916645" lon="14.2081883"><ele>111.28571428571428</ele><time>2026-04-26T07:06:11.156Z</time></trkpt><trkpt lat="40.91665" lon="14.20809"><ele>111.57142857142858</ele><time>2026-04-26T07:06:12.156Z</time></trkpt><trkpt lat="40.91666" lon="14.20799"><ele>111.85714285714286</ele><time>2026-04-26T07:06:13.156Z</time></trkpt><trkpt lat="40.9166633" lon="14.2078933"><ele>112.14285714285714</ele><time>2026-04-26T07:06:14.156Z</time></trkpt><trkpt lat="40.91667" lon="14.2077967"><ele>112.42857142857142</ele><time>2026-04-26T07:06:15.156Z</time></trkpt><trkpt lat="40.916675" lon="14.2076983"><ele>112.71428571428572</ele><time>2026-04-26T07:06:16.156Z</time></trkpt><trkpt lat="40.9166833" lon="14.2076"><ele>113.0</ele><time>2026-04-26T07:06:17.157Z</time></trkpt><trkpt lat="40.9166917" lon="14.2075033"><ele>113.0</ele><time>2026-04-26T07:06:18.157Z</time></trkpt><trkpt lat="40.9167" lon="14.2074083"><ele>113.0</ele><time>2026-04-26T07:06:19.157Z</time></trkpt><trkpt lat="40.916705" lon="14.2073133"><ele>113.0</ele><time>2026-04-26T07:06:20.157Z</time></trkpt><trkpt lat="40.91671" lon="14.207215"><ele>113.0</ele><time>2026-04-26T07:06:21.156Z</time></trkpt><trkpt lat="40.9167117" lon="14.20712"><ele>113.0</ele><time>2026-04-26T07:06:22.156Z</time></trkpt><trkpt lat="40.916715" lon="14.20702"><ele>113.0</ele><time>2026-04-26T07:06:23.156Z</time></trkpt><trkpt lat="40.91672" lon="14.2069217"><ele>113.0</ele><time>2026-04-26T07:06:24.157Z</time></trkpt><trkpt lat="40.9167267" lon="14.2068217"><ele>113.16666666666666</ele><time>2026-04-26T07:06:25.156Z</time></trkpt><trkpt lat="40.9167317" lon="14.2067217"><ele>113.33333333333333</ele><time>2026-04-26T07:06:26.156Z</time></trkpt><trkpt lat="40.916735" lon="14.2066183"><ele>113.5</ele><time>2026-04-26T07:06:27.16Z</time></trkpt><trkpt lat="40.9167417" lon="14.2065133"><ele>113.66666666666666</ele><time>2026-04-26T07:06:28.156Z</time></trkpt><trkpt lat="40.9167567" lon="14.2064133"><ele>113.83333333333333</ele><time>2026-04-26T07:06:29.156Z</time></trkpt><trkpt lat="40.916775" lon="14.206315"><ele>114.0</ele><time>2026-04-26T07:06:30.156Z</time></trkpt><trkpt lat="40.9168067" lon="14.2062183"><ele>113.66666666666667</ele><time>2026-04-26T07:06:31.156Z</time></trkpt><trkpt lat="40.9168467" lon="14.2061217"><ele>113.33333333333334</ele><time>2026-04-26T07:06:32.156Z</time></trkpt><trkpt lat="40.9168917" lon="14.206025"><ele>113.0</ele><time>2026-04-26T07:06:33.157Z</time></trkpt><trkpt lat="40.9169333" lon="14.20593"><ele>112.66666666666667</ele><time>2026-04-26T07:06:34.157Z</time></trkpt><trkpt lat="40.9169583" lon="14.2058317"><ele>112.33333333333334</ele><time>2026-04-26T07:06:35.157Z</time></trkpt><trkpt lat="40.916955" lon="14.20573"><ele>112.0</ele><time>2026-04-26T07:06:36.156Z</time></trkpt><trkpt lat="40.9169317" lon="14.2056283"><ele>111.85714285714286</ele><time>2026-04-26T07:06:37.157Z</time></trkpt><trkpt lat="40.916905" lon="14.20553"><ele>111.71428571428572</ele><time>2026-04-26T07:06:38.156Z</time></trkpt><trkpt lat="40.91688" lon="14.2054317"><ele>111.57142857142857</ele><time>2026-04-26T07:06:39.156Z</time></trkpt><trkpt lat="40.91686" lon="14.2053383"><ele>111.42857142857143</ele><time>2026-04-26T07:06:40.157Z</time></trkpt><trkpt lat="40.9168517" lon="14.205245"><ele>111.28571428571429</ele><time>2026-04-26T07:06:41.156Z</time></trkpt><trkpt lat="40.91685" lon="14.2051533"><ele>111.14285714285714</ele><time>2026-04-26T07:06:42.157Z</time></trkpt><trkpt lat="40.916855" lon="14.2050633"><ele>111.0</ele><time>2026-04-26T07:06:43.158Z</time></trkpt><trkpt lat="40.9168617" lon="14.204975"><ele>111.0</ele><time>2026-04-26T07:06:44.157Z</time></trkpt><trkpt lat="40.9168667" lon="14.20489"><ele>111.0</ele><time>2026-04-26T07:06:45.156Z</time></trkpt><trkpt lat="40.9168717" lon="14.2048067"><ele>111.0</ele><time>2026-04-26T07:06:46.156Z</time></trkpt><trkpt lat="40.9168833" lon="14.20464"><ele>111.0</ele><time>2026-04-26T07:06:48.156Z</time></trkpt><trkpt lat="40.9168917" lon="14.2045533"><ele>111.0</ele><time>2026-04-26T07:06:49.156Z</time></trkpt><trkpt lat="40.9169017" lon="14.2044667"><ele>111.0</ele><time>2026-04-26T07:06:50.156Z</time></trkpt><trkpt lat="40.91691" lon="14.2043817"><ele>111.14285714285714</ele><time>2026-04-26T07:06:51.157Z</time></trkpt><trkpt lat="40.916915" lon="14.2042967"><ele>111.28571428571429</ele><time>2026-04-26T07:06:52.156Z</time></trkpt><trkpt lat="40.9169233" lon="14.2042067"><ele>111.42857142857143</ele><time>2026-04-26T07:06:53.156Z</time></trkpt><trkpt lat="40.9169283" lon="14.20412"><ele>111.57142857142857</ele><time>2026-04-26T07:06:54.157Z</time></trkpt><trkpt lat="40.9169367" lon="14.2040367"><ele>111.71428571428572</ele><time>2026-04-26T07:06:55.157Z</time></trkpt><trkpt lat="40.9169467" lon="14.20395"><ele>111.85714285714286</ele><time>2026-04-26T07:06:56.156Z</time></trkpt><trkpt lat="40.9169533" lon="14.203865"><ele>112.0</ele><time>2026-04-26T07:06:57.156Z</time></trkpt><trkpt lat="40.91696" lon="14.2037783"><ele>112.00000000000001</ele><time>2026-04-26T07:06:58.156Z</time></trkpt><trkpt lat="40.9169683" lon="14.2036933"><ele>112.0</ele><time>2026-04-26T07:06:59.158Z</time></trkpt><trkpt lat="40.9169767" lon="14.2036083"><ele>112.0</ele><time>2026-04-26T07:07:00.157Z</time></trkpt><trkpt lat="40.9169817" lon="14.2035217"><ele>112.0</ele><time>2026-04-26T07:07:01.156Z</time></trkpt><trkpt lat="40.9169883" lon="14.2034333"><ele>112.00000000000001</ele><time>2026-04-26T07:07:02.156Z</time></trkpt><trkpt lat="40.91699" lon="14.2032667"><ele>112.0</ele><time>2026-04-26T07:07:04.156Z</time></trkpt><trkpt lat="40.9169983" lon="14.2031833"><ele>111.85714285714286</ele><time>2026-04-26T07:07:05.159Z</time></trkpt><trkpt lat="40.917005" lon="14.2030983"><ele>111.71428571428572</ele><time>2026-04-26T07:07:06.156Z</time></trkpt><trkpt lat="40.9170083" lon="14.2030133"><ele>111.57142857142857</ele><time>2026-04-26T07:07:07.156Z</time></trkpt><trkpt lat="40.9170117" lon="14.2029283"><ele>111.42857142857143</ele><time>2026-04-26T07:07:08.157Z</time></trkpt><trkpt lat="40.9170183" lon="14.2028417"><ele>111.28571428571429</ele><time>2026-04-26T07:07:09.156Z</time></trkpt><trkpt lat="40.9170233" lon="14.202755"><ele>111.14285714285714</ele><time>2026-04-26T07:07:10.156Z</time></trkpt><trkpt lat="40.9170283" lon="14.20267"><ele>111.0</ele><time>2026-04-26T07:07:11.156Z</time></trkpt><trkpt lat="40.9170333" lon="14.202585"><ele>111.0</ele><time>2026-04-26T07:07:12.157Z</time></trkpt><trkpt lat="40.9170383" lon="14.2025"><ele>111.0</ele><time>2026-04-26T07:07:13.156Z</time></trkpt><trkpt lat="40.9170417" lon="14.202415"><ele>111.0</ele><time>2026-04-26T07:07:14.157Z</time></trkpt><trkpt lat="40.9170433" lon="14.20233"><ele>111.0</ele><time>2026-04-26T07:07:15.156Z</time></trkpt><trkpt lat="40.91705" lon="14.2022417"><ele>111.0</ele><time>2026-04-26T07:07:16.156Z</time></trkpt><trkpt lat="40.9170567" lon="14.202155"><ele>111.0</ele><time>2026-04-26T07:07:17.156Z</time></trkpt><trkpt lat="40.9170617" lon="14.2020683"><ele>111.0</ele><time>2026-04-26T07:07:18.157Z</time></trkpt><trkpt lat="40.9170683" lon="14.2019833"><ele>111.0</ele><time>2026-04-26T07:07:19.156Z</time></trkpt><trkpt lat="40.917075" lon="14.2018967"><ele>111.0</ele><time>2026-04-26T07:07:20.157Z</time></trkpt><trkpt lat="40.9170833" lon="14.2018133"><ele>111.0</ele><time>2026-04-26T07:07:21.157Z</time></trkpt><trkpt lat="40.9170883" lon="14.2017267"><ele>111.0</ele><time>2026-04-26T07:07:22.157Z</time></trkpt><trkpt lat="40.917095" lon="14.2016383"><ele>111.0</ele><time>2026-04-26T07:07:23.156Z</time></trkpt><trkpt lat="40.9171083" lon="14.2014833"><ele>111.0</ele><time>2026-04-26T07:07:25.156Z</time></trkpt><trkpt lat="40.9171117" lon="14.2013267"><ele>111.0</ele><time>2026-04-26T07:07:27.158Z</time></trkpt><trkpt lat="40.9171117" lon="14.2012433"><ele>111.0</ele><time>2026-04-26T07:07:28.156Z</time></trkpt><trkpt lat="40.917115" lon="14.20116"><ele>111.0</ele><time>2026-04-26T07:07:29.156Z</time></trkpt><trkpt lat="40.9171233" lon="14.20107"><ele>111.0</ele><time>2026-04-26T07:07:30.157Z</time></trkpt><trkpt lat="40.91713" lon="14.2009833"><ele>111.0</ele><time>2026-04-26T07:07:31.159Z</time></trkpt><trkpt lat="40.9171367" lon="14.2008967"><ele>111.0</ele><time>2026-04-26T07:07:32.158Z</time></trkpt><trkpt lat="40.9171467" lon="14.2008067"><ele>111.0</ele><time>2026-04-26T07:07:33.157Z</time></trkpt><trkpt lat="40.9171583" lon="14.2007183"><ele>111.0</ele><time>2026-04-26T07:07:34.156Z</time></trkpt><trkpt lat="40.9171767" lon="14.2006283"><ele>111.0</ele><time>2026-04-26T07:07:35.156Z</time></trkpt><trkpt lat="40.9172017" lon="14.20054"><ele>111.0</ele><time>2026-04-26T07:07:36.157Z</time></trkpt><trkpt lat="40.9172267" lon="14.2004467"><ele>111.0</ele><time>2026-04-26T07:07:37.157Z</time></trkpt><trkpt lat="40.9172483" lon="14.20035"><ele>111.0</ele><time>2026-04-26T07:07:38.156Z</time></trkpt><trkpt lat="40.9172683" lon="14.20025"><ele>111.0</ele><time>2026-04-26T07:07:39.156Z</time></trkpt><trkpt lat="40.9172833" lon="14.2001533"><ele>111.0</ele><time>2026-04-26T07:07:40.156Z</time></trkpt><trkpt lat="40.9172933" lon="14.2000567"><ele>111.0</ele><time>2026-04-26T07:07:41.156Z</time></trkpt><trkpt lat="40.9173017" lon="14.19996"><ele>111.0</ele><time>2026-04-26T07:07:42.156Z</time></trkpt><trkpt lat="40.9173067" lon="14.1998617"><ele>111.0</ele><time>2026-04-26T07:07:43.156Z</time></trkpt><trkpt lat="40.9173117" lon="14.1997633"><ele>111.0</ele><time>2026-04-26T07:07:44.156Z</time></trkpt><trkpt lat="40.91732" lon="14.1996633"><ele>111.0</ele><time>2026-04-26T07:07:45.156Z</time></trkpt><trkpt lat="40.9173267" lon="14.1995667"><ele>111.0</ele><time>2026-04-26T07:07:46.156Z</time></trkpt><trkpt lat="40.917335" lon="14.1994667"><ele>111.0</ele><time>2026-04-26T07:07:47.156Z</time></trkpt><trkpt lat="40.91734" lon="14.1993683"><ele>111.28571428571428</ele><time>2026-04-26T07:07:48.156Z</time></trkpt><trkpt lat="40.91734" lon="14.1992717"><ele>111.57142857142858</ele><time>2026-04-26T07:07:49.158Z</time></trkpt><trkpt lat="40.917335" lon="14.1991733"><ele>111.85714285714286</ele><time>2026-04-26T07:07:50.157Z</time></trkpt><trkpt lat="40.9173267" lon="14.1990783"><ele>112.14285714285714</ele><time>2026-04-26T07:07:51.156Z</time></trkpt><trkpt lat="40.9173183" lon="14.1989833"><ele>112.42857142857142</ele><time>2026-04-26T07:07:52.156Z</time></trkpt><trkpt lat="40.9173133" lon="14.1988867"><ele>112.71428571428572</ele><time>2026-04-26T07:07:53.157Z</time></trkpt><trkpt lat="40.91731" lon="14.1987917"><ele>113.0</ele><time>2026-04-26T07:07:54.156Z</time></trkpt><trkpt lat="40.91731" lon="14.1986967"><ele>113.16666666666666</ele><time>2026-04-26T07:07:55.156Z</time></trkpt><trkpt lat="40.917315" lon="14.1985983"><ele>113.33333333333333</ele><time>2026-04-26T07:07:56.157Z</time></trkpt><trkpt lat="40.9173217" lon="14.1984967"><ele>113.5</ele><time>2026-04-26T07:07:57.156Z</time></trkpt><trkpt lat="40.91733" lon="14.1983967"><ele>113.66666666666666</ele><time>2026-04-26T07:07:58.157Z</time></trkpt><trkpt lat="40.9173383" lon="14.1982933"><ele>113.83333333333333</ele><time>2026-04-26T07:07:59.157Z</time></trkpt><trkpt lat="40.9173467" lon="14.1981933"><ele>114.0</ele><time>2026-04-26T07:08:00.156Z</time></trkpt><trkpt lat="40.9173533" lon="14.198095"><ele>114.33333333333333</ele><time>2026-04-26T07:08:01.156Z</time></trkpt><trkpt lat="40.9173633" lon="14.1979983"><ele>114.66666666666666</ele><time>2026-04-26T07:08:02.157Z</time></trkpt><trkpt lat="40.91737" lon="14.1979"><ele>115.0</ele><time>2026-04-26T07:08:03.158Z</time></trkpt><trkpt lat="40.917375" lon="14.1978"><ele>115.33333333333333</ele><time>2026-04-26T07:08:04.157Z</time></trkpt><trkpt lat="40.9173817" lon="14.1976983"><ele>115.66666666666666</ele><time>2026-04-26T07:08:05.156Z</time></trkpt><trkpt lat="40.9173867" lon="14.1976"><ele>116.0</ele><time>2026-04-26T07:08:06.156Z</time></trkpt><trkpt lat="40.91739" lon="14.1975"><ele>116.00000000000001</ele><time>2026-04-26T07:08:07.157Z</time></trkpt><trkpt lat="40.9173933" lon="14.1974017"><ele>116.0</ele><time>2026-04-26T07:08:08.156Z</time></trkpt><trkpt lat="40.9173967" lon="14.1973033"><ele>116.00000000000001</ele><time>2026-04-26T07:08:09.158Z</time></trkpt><trkpt lat="40.9174017" lon="14.197205"><ele>116.00000000000001</ele><time>2026-04-26T07:08:10.158Z</time></trkpt><trkpt lat="40.9174167" lon="14.19711"><ele>116.0</ele><time>2026-04-26T07:08:11.157Z</time></trkpt><trkpt lat="40.917435" lon="14.1970183"><ele>116.00000000000001</ele><time>2026-04-26T07:08:12.157Z</time></trkpt><trkpt lat="40.9174567" lon="14.1969167"><ele>116.00000000000001</ele><time>2026-04-26T07:08:13.156Z</time></trkpt><trkpt lat="40.91748" lon="14.1968183"><ele>115.99999999999999</ele><time>2026-04-26T07:08:14.157Z</time></trkpt><trkpt lat="40.917505" lon="14.1967317"><ele>116.0</ele><time>2026-04-26T07:08:15.159Z</time></trkpt><trkpt lat="40.9175383" lon="14.1966417"><ele>116.0</ele><time>2026-04-26T07:08:16.156Z</time></trkpt><trkpt lat="40.9175733" lon="14.1965483"><ele>116.0</ele><time>2026-04-26T07:08:17.156Z</time></trkpt><trkpt lat="40.917605" lon="14.1964533"><ele>115.99999999999999</ele><time>2026-04-26T07:08:18.157Z</time></trkpt><trkpt lat="40.9176267" lon="14.196355"><ele>116.0</ele><time>2026-04-26T07:08:19.157Z</time></trkpt><trkpt lat="40.9176317" lon="14.1962583"><ele>116.00000000000001</ele><time>2026-04-26T07:08:20.157Z</time></trkpt><trkpt lat="40.9176217" lon="14.1961667"><ele>116.0</ele><time>2026-04-26T07:08:21.156Z</time></trkpt><trkpt lat="40.9176" lon="14.196075"><ele>116.00000000000001</ele><time>2026-04-26T07:08:22.157Z</time></trkpt><trkpt lat="40.9175767" lon="14.1959817"><ele>116.00000000000001</ele><time>2026-04-26T07:08:23.156Z</time></trkpt><trkpt lat="40.9175533" lon="14.1958883"><ele>116.0</ele><time>2026-04-26T07:08:24.157Z</time></trkpt><trkpt lat="40.9175267" lon="14.195795"><ele>116.00000000000001</ele><time>2026-04-26T07:08:25.157Z</time></trkpt><trkpt lat="40.9174983" lon="14.1957017"><ele>116.00000000000001</ele><time>2026-04-26T07:08:26.156Z</time></trkpt><trkpt lat="40.917475" lon="14.1956117"><ele>116.00000000000001</ele><time>2026-04-26T07:08:27.156Z</time></trkpt><trkpt lat="40.91746" lon="14.1955167"><ele>116.0</ele><time>2026-04-26T07:08:28.156Z</time></trkpt><trkpt lat="40.9174483" lon="14.195425"><ele>116.00000000000001</ele><time>2026-04-26T07:08:29.156Z</time></trkpt><trkpt lat="40.9174417" lon="14.1953317"><ele>116.00000000000001</ele><time>2026-04-26T07:08:30.157Z</time></trkpt><trkpt lat="40.9174367" lon="14.1952367"><ele>116.0</ele><time>2026-04-26T07:08:31.157Z</time></trkpt><trkpt lat="40.91743" lon="14.195145"><ele>116.00000000000001</ele><time>2026-04-26T07:08:32.156Z</time></trkpt><trkpt lat="40.9174233" lon="14.1950533"><ele>116.00000000000001</ele><time>2026-04-26T07:08:33.157Z</time></trkpt><trkpt lat="40.9174183" lon="14.19496"><ele>116.00000000000001</ele><time>2026-04-26T07:08:34.157Z</time></trkpt><trkpt lat="40.917405" lon="14.1948767"><ele>116.0</ele><time>2026-04-26T07:08:35.156Z</time></trkpt><trkpt lat="40.9173967" lon="14.19479"><ele>116.00000000000001</ele><time>2026-04-26T07:08:36.158Z</time></trkpt><trkpt lat="40.9173883" lon="14.194705"><ele>116.00000000000001</ele><time>2026-04-26T07:08:37.16Z</time></trkpt><trkpt lat="40.917385" lon="14.1946117"><ele>116.0</ele><time>2026-04-26T07:08:38.157Z</time></trkpt><trkpt lat="40.9173817" lon="14.1945183"><ele>116.00000000000001</ele><time>2026-04-26T07:08:39.157Z</time></trkpt><trkpt lat="40.9173767" lon="14.1944267"><ele>116.00000000000001</ele><time>2026-04-26T07:08:40.159Z</time></trkpt><trkpt lat="40.91737" lon="14.1943367"><ele>115.71428571428572</ele><time>2026-04-26T07:08:41.156Z</time></trkpt><trkpt lat="40.9173633" lon="14.1942417"><ele>115.42857142857143</ele><time>2026-04-26T07:08:42.158Z</time></trkpt><trkpt lat="40.9173567" lon="14.1941467"><ele>115.14285714285714</ele><time>2026-04-26T07:08:43.157Z</time></trkpt><trkpt lat="40.9173517" lon="14.1940517"><ele>114.85714285714286</ele><time>2026-04-26T07:08:44.157Z</time></trkpt><trkpt lat="40.9173517" lon="14.1939583"><ele>114.57142857142856</ele><time>2026-04-26T07:08:45.156Z</time></trkpt><trkpt lat="40.91735" lon="14.1938633"><ele>114.28571428571428</ele><time>2026-04-26T07:08:46.156Z</time></trkpt><trkpt lat="40.91735" lon="14.19377"><ele>114.0</ele><time>2026-04-26T07:08:47.156Z</time></trkpt><trkpt lat="40.91735" lon="14.193675"><ele>114.0</ele><time>2026-04-26T07:08:48.156Z</time></trkpt><trkpt lat="40.9173483" lon="14.1935783"><ele>113.99999999999999</ele><time>2026-04-26T07:08:49.159Z</time></trkpt><trkpt lat="40.9173467" lon="14.193485"><ele>114.0</ele><time>2026-04-26T07:08:50.157Z</time></trkpt><trkpt lat="40.917345" lon="14.1933967"><ele>114.0</ele><time>2026-04-26T07:08:51.156Z</time></trkpt><trkpt lat="40.9173417" lon="14.1933117"><ele>113.99999999999999</ele><time>2026-04-26T07:08:52.156Z</time></trkpt><trkpt lat="40.91734" lon="14.1932233"><ele>114.0</ele><time>2026-04-26T07:08:53.157Z</time></trkpt><trkpt lat="40.9173367" lon="14.1931333"><ele>114.0</ele><time>2026-04-26T07:08:54.157Z</time></trkpt><trkpt lat="40.9173317" lon="14.193045"><ele>114.28571428571428</ele><time>2026-04-26T07:08:55.158Z</time></trkpt><trkpt lat="40.917325" lon="14.1929517"><ele>114.57142857142856</ele><time>2026-04-26T07:08:56.156Z</time></trkpt><trkpt lat="40.917315" lon="14.1928617"><ele>114.85714285714286</ele><time>2026-04-26T07:08:57.157Z</time></trkpt><trkpt lat="40.91731" lon="14.19277"><ele>115.14285714285714</ele><time>2026-04-26T07:08:58.157Z</time></trkpt><trkpt lat="40.9173083" lon="14.1926767"><ele>115.42857142857143</ele><time>2026-04-26T07:08:59.156Z</time></trkpt><trkpt lat="40.9173033" lon="14.1925833"><ele>115.71428571428572</ele><time>2026-04-26T07:09:00.157Z</time></trkpt><trkpt lat="40.9173" lon="14.1924933"><ele>116.00000000000001</ele><time>2026-04-26T07:09:01.156Z</time></trkpt><trkpt lat="40.9172967" lon="14.192405"><ele>115.85714285714288</ele><time>2026-04-26T07:09:02.156Z</time></trkpt><trkpt lat="40.917295" lon="14.1923167"><ele>115.71428571428572</ele><time>2026-04-26T07:09:03.156Z</time></trkpt><trkpt lat="40.917295" lon="14.1922317"><ele>115.57142857142857</ele><time>2026-04-26T07:09:04.156Z</time></trkpt><trkpt lat="40.917295" lon="14.1921433"><ele>115.42857142857143</ele><time>2026-04-26T07:09:05.156Z</time></trkpt><trkpt lat="40.9172967" lon="14.1920533"><ele>115.28571428571428</ele><time>2026-04-26T07:09:06.156Z</time></trkpt><trkpt lat="40.9172983" lon="14.1919633"><ele>115.14285714285712</ele><time>2026-04-26T07:09:07.156Z</time></trkpt><trkpt lat="40.9173" lon="14.1918717"><ele>114.99999999999999</ele><time>2026-04-26T07:09:08.157Z</time></trkpt><trkpt lat="40.917305" lon="14.19178"><ele>114.99999999999999</ele><time>2026-04-26T07:09:09.16Z</time></trkpt><trkpt lat="40.9173083" lon="14.1916883"><ele>115.0</ele><time>2026-04-26T07:09:10.156Z</time></trkpt><trkpt lat="40.9173117" lon="14.1916017"><ele>114.99999999999999</ele><time>2026-04-26T07:09:11.156Z</time></trkpt><trkpt lat="40.9173133" lon="14.1915083"><ele>114.99999999999999</ele><time>2026-04-26T07:09:12.156Z</time></trkpt><trkpt lat="40.917315" lon="14.191415"><ele>115.0</ele><time>2026-04-26T07:09:13.157Z</time></trkpt><trkpt lat="40.9173183" lon="14.1913233"><ele>114.99999999999999</ele><time>2026-04-26T07:09:14.157Z</time></trkpt><trkpt lat="40.9173233" lon="14.1912317"><ele>114.99999999999999</ele><time>2026-04-26T07:09:15.156Z</time></trkpt><trkpt lat="40.9173317" lon="14.19114"><ele>114.99999999999999</ele><time>2026-04-26T07:09:16.156Z</time></trkpt><trkpt lat="40.9173367" lon="14.1910483"><ele>115.0</ele><time>2026-04-26T07:09:17.156Z</time></trkpt><trkpt lat="40.9173433" lon="14.1909567"><ele>114.99999999999999</ele><time>2026-04-26T07:09:18.156Z</time></trkpt><trkpt lat="40.9173483" lon="14.190865"><ele>114.99999999999999</ele><time>2026-04-26T07:09:19.156Z</time></trkpt><trkpt lat="40.9173517" lon="14.190775"><ele>115.0</ele><time>2026-04-26T07:09:20.157Z</time></trkpt><trkpt lat="40.9173583" lon="14.1906867"><ele>114.99999999999999</ele><time>2026-04-26T07:09:21.157Z</time></trkpt><trkpt lat="40.91737" lon="14.1906033"><ele>114.99999999999999</ele><time>2026-04-26T07:09:22.157Z</time></trkpt><trkpt lat="40.9173833" lon="14.190515"><ele>114.99999999999999</ele><time>2026-04-26T07:09:23.157Z</time></trkpt><trkpt lat="40.9174" lon="14.190425"><ele>115.0</ele><time>2026-04-26T07:09:24.158Z</time></trkpt><trkpt lat="40.9174133" lon="14.1903383"><ele>114.99999999999999</ele><time>2026-04-26T07:09:25.157Z</time></trkpt><trkpt lat="40.9174233" lon="14.19025"><ele>114.99999999999999</ele><time>2026-04-26T07:09:26.156Z</time></trkpt><trkpt lat="40.917435" lon="14.190165"><ele>115.0</ele><time>2026-04-26T07:09:27.156Z</time></trkpt><trkpt lat="40.917445" lon="14.1900767"><ele>114.99999999999999</ele><time>2026-04-26T07:09:28.156Z</time></trkpt><trkpt lat="40.917455" lon="14.1899883"><ele>114.99999999999999</ele><time>2026-04-26T07:09:29.156Z</time></trkpt><trkpt lat="40.9174667" lon="14.1898967"><ele>115.14285714285712</ele><time>2026-04-26T07:09:30.156Z</time></trkpt><trkpt lat="40.9174783" lon="14.1898083"><ele>115.28571428571428</ele><time>2026-04-26T07:09:31.157Z</time></trkpt><trkpt lat="40.9174933" lon="14.1897183"><ele>115.42857142857143</ele><time>2026-04-26T07:09:32.156Z</time></trkpt><trkpt lat="40.9175083" lon="14.18963"><ele>115.57142857142857</ele><time>2026-04-26T07:09:33.157Z</time></trkpt><trkpt lat="40.917525" lon="14.1895383"><ele>115.71428571428572</ele><time>2026-04-26T07:09:34.158Z</time></trkpt><trkpt lat="40.9175383" lon="14.1894467"><ele>115.85714285714288</ele><time>2026-04-26T07:09:35.159Z</time></trkpt><trkpt lat="40.9175533" lon="14.18936"><ele>116.00000000000001</ele><time>2026-04-26T07:09:36.156Z</time></trkpt><trkpt lat="40.9175617" lon="14.1892733"><ele>115.85714285714288</ele><time>2026-04-26T07:09:37.157Z</time></trkpt><trkpt lat="40.9175717" lon="14.189185"><ele>115.71428571428572</ele><time>2026-04-26T07:09:38.156Z</time></trkpt><trkpt lat="40.9175867" lon="14.189095"><ele>115.57142857142857</ele><time>2026-04-26T07:09:39.156Z</time></trkpt><trkpt lat="40.9176017" lon="14.1890017"><ele>115.42857142857143</ele><time>2026-04-26T07:09:40.156Z</time></trkpt><trkpt lat="40.9176217" lon="14.18891"><ele>115.28571428571428</ele><time>2026-04-26T07:09:41.156Z</time></trkpt><trkpt lat="40.9176417" lon="14.1888183"><ele>115.14285714285712</ele><time>2026-04-26T07:09:42.157Z</time></trkpt><trkpt lat="40.9176633" lon="14.188725"><ele>114.99999999999999</ele><time>2026-04-26T07:09:43.156Z</time></trkpt><trkpt lat="40.9176883" lon="14.18863"><ele>115.00000000000001</ele><time>2026-04-26T07:09:44.156Z</time></trkpt><trkpt lat="40.9177133" lon="14.1885367"><ele>115.0</ele><time>2026-04-26T07:09:45.157Z</time></trkpt><trkpt lat="40.91774" lon="14.1884433"><ele>115.0</ele><time>2026-04-26T07:09:46.157Z</time></trkpt><trkpt lat="40.9177683" lon="14.1883467"><ele>115.0</ele><time>2026-04-26T07:09:47.157Z</time></trkpt><trkpt lat="40.9177967" lon="14.18825"><ele>115.00000000000001</ele><time>2026-04-26T07:09:48.156Z</time></trkpt><trkpt lat="40.9178233" lon="14.188155"><ele>115.0</ele><time>2026-04-26T07:09:49.157Z</time></trkpt><trkpt lat="40.91785" lon="14.1880617"><ele>115.16666666666667</ele><time>2026-04-26T07:09:50.158Z</time></trkpt><trkpt lat="40.91788" lon="14.1879683"><ele>115.33333333333334</ele><time>2026-04-26T07:09:51.158Z</time></trkpt><trkpt lat="40.9179067" lon="14.187875"><ele>115.5</ele><time>2026-04-26T07:09:52.157Z</time></trkpt><trkpt lat="40.9179367" lon="14.1877783"><ele>115.66666666666666</ele><time>2026-04-26T07:09:53.156Z</time></trkpt><trkpt lat="40.9179667" lon="14.1876817"><ele>115.83333333333333</ele><time>2026-04-26T07:09:54.156Z</time></trkpt><trkpt lat="40.9179967" lon="14.1875883"><ele>116.0</ele><time>2026-04-26T07:09:55.156Z</time></trkpt><trkpt lat="40.9180283" lon="14.1874967"><ele>116.00000000000001</ele><time>2026-04-26T07:09:56.159Z</time></trkpt><trkpt lat="40.91806" lon="14.187405"><ele>116.0</ele><time>2026-04-26T07:09:57.156Z</time></trkpt><trkpt lat="40.91809" lon="14.1873117"><ele>116.00000000000001</ele><time>2026-04-26T07:09:58.157Z</time></trkpt><trkpt lat="40.91812" lon="14.18722"><ele>116.00000000000001</ele><time>2026-04-26T07:09:59.157Z</time></trkpt><trkpt lat="40.918145" lon="14.1871317"><ele>116.0</ele><time>2026-04-26T07:10:00.156Z</time></trkpt><trkpt lat="40.9181717" lon="14.1870433"><ele>116.00000000000001</ele><time>2026-04-26T07:10:01.157Z</time></trkpt><trkpt lat="40.918195" lon="14.1869567"><ele>116.00000000000001</ele><time>2026-04-26T07:10:02.156Z</time></trkpt><trkpt lat="40.9182233" lon="14.186875"><ele>115.8</ele><time>2026-04-26T07:10:03.156Z</time></trkpt><trkpt lat="40.9182567" lon="14.1868033"><ele>115.6</ele><time>2026-04-26T07:10:04.158Z</time></trkpt><trkpt lat="40.9183283" lon="14.1866783"><ele>115.4</ele><time>2026-04-26T07:10:06.157Z</time></trkpt><trkpt lat="40.918375" lon="14.18653"><ele>115.2</ele><time>2026-04-26T07:10:08.157Z</time></trkpt><trkpt lat="40.9183983" lon="14.1863717"><ele>115.0</ele><time>2026-04-26T07:10:10.156Z</time></trkpt><trkpt lat="40.918435" lon="14.186215"><ele>114.7142857142857</ele><time>2026-04-26T07:10:12.156Z</time></trkpt><trkpt lat="40.9184583" lon="14.1861333"><ele>114.42857142857142</ele><time>2026-04-26T07:10:13.156Z</time></trkpt><trkpt lat="40.9184833" lon="14.1860517"><ele>114.14285714285714</ele><time>2026-04-26T07:10:14.157Z</time></trkpt><trkpt lat="40.9185083" lon="14.1859633"><ele>113.85714285714285</ele><time>2026-04-26T07:10:15.156Z</time></trkpt><trkpt lat="40.9185317" lon="14.1858767"><ele>113.57142857142856</ele><time>2026-04-26T07:10:16.159Z</time></trkpt><trkpt lat="40.9185567" lon="14.1857917"><ele>113.28571428571429</ele><time>2026-04-26T07:10:17.156Z</time></trkpt><trkpt lat="40.918575" lon="14.1857083"><ele>113.0</ele><time>2026-04-26T07:10:18.156Z</time></trkpt><trkpt lat="40.9186033" lon="14.1855867"><ele>112.99999999999999</ele><time>2026-04-26T07:10:20.158Z</time></trkpt><trkpt lat="40.9186367" lon="14.185495"><ele>113.0</ele><time>2026-04-26T07:10:24.157Z</time></trkpt><trkpt lat="40.9186717" lon="14.1854233"><ele>113.0</ele><time>2026-04-26T07:10:26.157Z</time></trkpt><trkpt lat="40.9187067" lon="14.1853367"><ele>113.0</ele><time>2026-04-26T07:10:28.156Z</time></trkpt><trkpt lat="40.918745" lon="14.1852433"><ele>112.99999999999999</ele><time>2026-04-26T07:10:30.156Z</time></trkpt><trkpt lat="40.9187833" lon="14.1851133"><ele>113.0</ele><time>2026-04-26T07:10:32.156Z</time></trkpt><trkpt lat="40.91883" lon="14.1849667"><ele>112.99999999999999</ele><time>2026-04-26T07:10:34.157Z</time></trkpt><trkpt lat="40.918855" lon="14.1848883"><ele>113.0</ele><time>2026-04-26T07:10:35.158Z</time></trkpt><trkpt lat="40.91888" lon="14.18481"><ele>113.0</ele><time>2026-04-26T07:10:36.157Z</time></trkpt><trkpt lat="40.9189233" lon="14.1846517"><ele>113.0</ele><time>2026-04-26T07:10:38.158Z</time></trkpt><trkpt lat="40.9189517" lon="14.184565"><ele>112.99999999999999</ele><time>2026-04-26T07:10:39.158Z</time></trkpt><trkpt lat="40.9189783" lon="14.18448"><ele>113.0</ele><time>2026-04-26T07:10:40.156Z</time></trkpt><trkpt lat="40.919005" lon="14.1843917"><ele>113.0</ele><time>2026-04-26T07:10:41.156Z</time></trkpt><trkpt lat="40.9190317" lon="14.1843017"><ele>113.0</ele><time>2026-04-26T07:10:42.156Z</time></trkpt><trkpt lat="40.91906" lon="14.1842117"><ele>113.0</ele><time>2026-04-26T07:10:43.158Z</time></trkpt><trkpt lat="40.9190917" lon="14.184125"><ele>113.0</ele><time>2026-04-26T07:10:44.156Z</time></trkpt><trkpt lat="40.9191217" lon="14.1840367"><ele>113.0</ele><time>2026-04-26T07:10:45.157Z</time></trkpt><trkpt lat="40.9191517" lon="14.1839433"><ele>113.0</ele><time>2026-04-26T07:10:46.157Z</time></trkpt><trkpt lat="40.9191783" lon="14.1838533"><ele>113.0</ele><time>2026-04-26T07:10:47.156Z</time></trkpt><trkpt lat="40.9192083" lon="14.183765"><ele>112.99999999999999</ele><time>2026-04-26T07:10:48.157Z</time></trkpt><trkpt lat="40.9192383" lon="14.1836767"><ele>113.0</ele><time>2026-04-26T07:10:49.157Z</time></trkpt><trkpt lat="40.9192633" lon="14.1835833"><ele>113.0</ele><time>2026-04-26T07:10:50.158Z</time></trkpt><trkpt lat="40.9192883" lon="14.1834883"><ele>113.0</ele><time>2026-04-26T07:10:51.158Z</time></trkpt><trkpt lat="40.9193117" lon="14.1833933"><ele>112.99999999999999</ele><time>2026-04-26T07:10:52.156Z</time></trkpt><trkpt lat="40.9193417" lon="14.1833"><ele>113.0</ele><time>2026-04-26T07:10:53.156Z</time></trkpt><trkpt lat="40.9193733" lon="14.1832083"><ele>113.16666666666666</ele><time>2026-04-26T07:10:54.159Z</time></trkpt><trkpt lat="40.919405" lon="14.1831217"><ele>113.33333333333333</ele><time>2026-04-26T07:10:55.156Z</time></trkpt><trkpt lat="40.919435" lon="14.1830333"><ele>113.5</ele><time>2026-04-26T07:10:56.158Z</time></trkpt><trkpt lat="40.919465" lon="14.18294"><ele>113.66666666666666</ele><time>2026-04-26T07:10:57.156Z</time></trkpt><trkpt lat="40.9194933" lon="14.182845"><ele>113.83333333333333</ele><time>2026-04-26T07:10:58.156Z</time></trkpt><trkpt lat="40.9195233" lon="14.1827517"><ele>114.0</ele><time>2026-04-26T07:10:59.156Z</time></trkpt><trkpt lat="40.9195617" lon="14.1826633"><ele>114.0</ele><time>2026-04-26T07:11:00.158Z</time></trkpt><trkpt lat="40.9196083" lon="14.1825833"><ele>114.0</ele><time>2026-04-26T07:11:01.156Z</time></trkpt><trkpt lat="40.9196617" lon="14.18251"><ele>114.0</ele><time>2026-04-26T07:11:02.157Z</time></trkpt><trkpt lat="40.9197083" lon="14.1824333"><ele>114.0</ele><time>2026-04-26T07:11:03.156Z</time></trkpt><trkpt lat="40.91975" lon="14.1823417"><ele>114.0</ele><time>2026-04-26T07:11:04.157Z</time></trkpt><trkpt lat="40.9197767" lon="14.182245"><ele>114.0</ele><time>2026-04-26T07:11:05.157Z</time></trkpt><trkpt lat="40.9197967" lon="14.1821417"><ele>114.16666666666667</ele><time>2026-04-26T07:11:06.156Z</time></trkpt><trkpt lat="40.919815" lon="14.1820383"><ele>114.33333333333334</ele><time>2026-04-26T07:11:07.156Z</time></trkpt><trkpt lat="40.91983" lon="14.181935"><ele>114.5</ele><time>2026-04-26T07:11:08.157Z</time></trkpt><trkpt lat="40.9198433" lon="14.1818333"><ele>114.66666666666667</ele><time>2026-04-26T07:11:09.156Z</time></trkpt><trkpt lat="40.9198583" lon="14.18173"><ele>114.83333333333334</ele><time>2026-04-26T07:11:10.156Z</time></trkpt><trkpt lat="40.919875" lon="14.181635"><ele>115.0</ele><time>2026-04-26T07:11:11.156Z</time></trkpt><trkpt lat="40.9199017" lon="14.1815417"><ele>114.83333333333334</ele><time>2026-04-26T07:11:12.156Z</time></trkpt><trkpt lat="40.91993" lon="14.18145"><ele>114.66666666666667</ele><time>2026-04-26T07:11:13.156Z</time></trkpt><trkpt lat="40.9199617" lon="14.1813533"><ele>114.5</ele><time>2026-04-26T07:11:14.156Z</time></trkpt><trkpt lat="40.91999" lon="14.1812567"><ele>114.33333333333334</ele><time>2026-04-26T07:11:15.156Z</time></trkpt><trkpt lat="40.92002" lon="14.1811633"><ele>114.16666666666667</ele><time>2026-04-26T07:11:16.157Z</time></trkpt><trkpt lat="40.9200533" lon="14.1810633"><ele>114.0</ele><time>2026-04-26T07:11:17.158Z</time></trkpt><trkpt lat="40.920085" lon="14.1809633"><ele>113.83333333333333</ele><time>2026-04-26T07:11:18.157Z</time></trkpt><trkpt lat="40.9201117" lon="14.1808717"><ele>113.66666666666666</ele><time>2026-04-26T07:11:19.157Z</time></trkpt><trkpt lat="40.92014" lon="14.1807767"><ele>113.5</ele><time>2026-04-26T07:11:20.156Z</time></trkpt><trkpt lat="40.9201683" lon="14.1806817"><ele>113.33333333333333</ele><time>2026-04-26T07:11:21.156Z</time></trkpt><trkpt lat="40.9201933" lon="14.1805817"><ele>113.16666666666666</ele><time>2026-04-26T07:11:22.157Z</time></trkpt><trkpt lat="40.920225" lon="14.1804783"><ele>113.0</ele><time>2026-04-26T07:11:23.156Z</time></trkpt><trkpt lat="40.920255" lon="14.18038"><ele>112.99999999999999</ele><time>2026-04-26T07:11:24.156Z</time></trkpt><trkpt lat="40.9202833" lon="14.1802867"><ele>113.0</ele><time>2026-04-26T07:11:25.156Z</time></trkpt><trkpt lat="40.9203133" lon="14.18019"><ele>113.0</ele><time>2026-04-26T07:11:26.157Z</time></trkpt><trkpt lat="40.9203417" lon="14.1800933"><ele>113.0</ele><time>2026-04-26T07:11:27.156Z</time></trkpt><trkpt lat="40.9203717" lon="14.1799967"><ele>112.99999999999999</ele><time>2026-04-26T07:11:28.156Z</time></trkpt><trkpt lat="40.9204033" lon="14.1798967"><ele>113.0</ele><time>2026-04-26T07:11:29.156Z</time></trkpt><trkpt lat="40.9204367" lon="14.1798"><ele>112.99999999999999</ele><time>2026-04-26T07:11:30.156Z</time></trkpt><trkpt lat="40.9204683" lon="14.179705"><ele>113.0</ele><time>2026-04-26T07:11:31.156Z</time></trkpt><trkpt lat="40.9205" lon="14.1796033"><ele>113.0</ele><time>2026-04-26T07:11:32.157Z</time></trkpt><trkpt lat="40.92053" lon="14.1795067"><ele>113.0</ele><time>2026-04-26T07:11:33.157Z</time></trkpt><trkpt lat="40.92056" lon="14.179405"><ele>112.99999999999999</ele><time>2026-04-26T07:11:34.157Z</time></trkpt><trkpt lat="40.9205917" lon="14.1793017"><ele>113.0</ele><time>2026-04-26T07:11:35.156Z</time></trkpt><trkpt lat="40.9206217" lon="14.1791967"><ele>112.99999999999999</ele><time>2026-04-26T07:11:36.157Z</time></trkpt><trkpt lat="40.9206467" lon="14.1790933"><ele>113.0</ele><time>2026-04-26T07:11:37.156Z</time></trkpt><trkpt lat="40.9206817" lon="14.1789983"><ele>113.0</ele><time>2026-04-26T07:11:38.158Z</time></trkpt><trkpt lat="40.9207183" lon="14.1789"><ele>113.0</ele><time>2026-04-26T07:11:39.156Z</time></trkpt><trkpt lat="40.920755" lon="14.1788"><ele>112.99999999999999</ele><time>2026-04-26T07:11:40.156Z</time></trkpt><trkpt lat="40.92079" lon="14.1787017"><ele>113.0</ele><time>2026-04-26T07:11:41.156Z</time></trkpt><trkpt lat="40.9208233" lon="14.1786067"><ele>112.99999999999999</ele><time>2026-04-26T07:11:42.158Z</time></trkpt><trkpt lat="40.9208533" lon="14.1785117"><ele>113.0</ele><time>2026-04-26T07:11:43.156Z</time></trkpt><trkpt lat="40.920885" lon="14.1784133"><ele>113.0</ele><time>2026-04-26T07:11:44.173Z</time></trkpt><trkpt lat="40.9209167" lon="14.1783167"><ele>113.0</ele><time>2026-04-26T07:11:45.156Z</time></trkpt><trkpt lat="40.9209467" lon="14.1782217"><ele>112.99999999999999</ele><time>2026-04-26T07:11:46.156Z</time></trkpt><trkpt lat="40.920975" lon="14.1781283"><ele>113.0</ele><time>2026-04-26T07:11:47.158Z</time></trkpt><trkpt lat="40.9210067" lon="14.178035"><ele>112.66666666666666</ele><time>2026-04-26T07:11:48.156Z</time></trkpt><trkpt lat="40.9210417" lon="14.1779333"><ele>112.33333333333333</ele><time>2026-04-26T07:11:49.156Z</time></trkpt><trkpt lat="40.9210633" lon="14.1778283"><ele>112.0</ele><time>2026-04-26T07:11:50.156Z</time></trkpt><trkpt lat="40.9210917" lon="14.1777267"><ele>111.66666666666666</ele><time>2026-04-26T07:11:51.158Z</time></trkpt><trkpt lat="40.92112" lon="14.1776283"><ele>111.33333333333333</ele><time>2026-04-26T07:11:52.157Z</time></trkpt><trkpt lat="40.9211517" lon="14.1775267"><ele>111.0</ele><time>2026-04-26T07:11:53.156Z</time></trkpt><trkpt lat="40.9211817" lon="14.177425"><ele>111.0</ele><time>2026-04-26T07:11:54.156Z</time></trkpt><trkpt lat="40.9212117" lon="14.1773267"><ele>111.0</ele><time>2026-04-26T07:11:55.157Z</time></trkpt><trkpt lat="40.9212417" lon="14.1772333"><ele>111.0</ele><time>2026-04-26T07:11:56.157Z</time></trkpt><trkpt lat="40.9212733" lon="14.17714"><ele>111.0</ele><time>2026-04-26T07:11:57.157Z</time></trkpt><trkpt lat="40.9213033" lon="14.1770467"><ele>111.0</ele><time>2026-04-26T07:11:58.156Z</time></trkpt><trkpt lat="40.9213367" lon="14.1769483"><ele>111.0</ele><time>2026-04-26T07:11:59.157Z</time></trkpt><trkpt lat="40.9213733" lon="14.1768467"><ele>111.0</ele><time>2026-04-26T07:12:00.156Z</time></trkpt><trkpt lat="40.9214083" lon="14.1767433"><ele>111.0</ele><time>2026-04-26T07:12:01.157Z</time></trkpt><trkpt lat="40.9214383" lon="14.1766483"><ele>111.0</ele><time>2026-04-26T07:12:02.157Z</time></trkpt><trkpt lat="40.9214683" lon="14.176555"><ele>111.0</ele><time>2026-04-26T07:12:03.157Z</time></trkpt><trkpt lat="40.9215" lon="14.1764583"><ele>111.0</ele><time>2026-04-26T07:12:04.156Z</time></trkpt><trkpt lat="40.9215317" lon="14.1763583"><ele>111.0</ele><time>2026-04-26T07:12:05.157Z</time></trkpt><trkpt lat="40.9215633" lon="14.176255"><ele>111.0</ele><time>2026-04-26T07:12:06.156Z</time></trkpt><trkpt lat="40.921595" lon="14.176155"><ele>111.0</ele><time>2026-04-26T07:12:07.158Z</time></trkpt><trkpt lat="40.921625" lon="14.1760583"><ele>111.0</ele><time>2026-04-26T07:12:08.156Z</time></trkpt><trkpt lat="40.9216567" lon="14.1759617"><ele>111.0</ele><time>2026-04-26T07:12:09.156Z</time></trkpt><trkpt lat="40.9216883" lon="14.1758633"><ele>111.0</ele><time>2026-04-26T07:12:10.156Z</time></trkpt><trkpt lat="40.9217183" lon="14.1757617"><ele>111.0</ele><time>2026-04-26T07:12:11.161Z</time></trkpt><trkpt lat="40.9217483" lon="14.1756583"><ele>111.0</ele><time>2026-04-26T07:12:12.157Z</time></trkpt><trkpt lat="40.92178" lon="14.1755533"><ele>111.0</ele><time>2026-04-26T07:12:13.157Z</time></trkpt><trkpt lat="40.9218133" lon="14.1754467"><ele>111.0</ele><time>2026-04-26T07:12:14.157Z</time></trkpt><trkpt lat="40.921845" lon="14.175345"><ele>111.0</ele><time>2026-04-26T07:12:15.156Z</time></trkpt><trkpt lat="40.921875" lon="14.175245"><ele>111.0</ele><time>2026-04-26T07:12:16.156Z</time></trkpt><trkpt lat="40.921905" lon="14.1751417"><ele>111.0</ele><time>2026-04-26T07:12:17.156Z</time></trkpt><trkpt lat="40.9219367" lon="14.1750433"><ele>111.0</ele><time>2026-04-26T07:12:18.158Z</time></trkpt><trkpt lat="40.92197" lon="14.1749433"><ele>111.0</ele><time>2026-04-26T07:12:19.157Z</time></trkpt><trkpt lat="40.9220033" lon="14.17484"><ele>111.0</ele><time>2026-04-26T07:12:20.157Z</time></trkpt><trkpt lat="40.922035" lon="14.1747383"><ele>111.0</ele><time>2026-04-26T07:12:21.158Z</time></trkpt><trkpt lat="40.9220667" lon="14.1746367"><ele>111.0</ele><time>2026-04-26T07:12:22.156Z</time></trkpt><trkpt lat="40.9221" lon="14.1745333"><ele>111.0</ele><time>2026-04-26T07:12:23.156Z</time></trkpt><trkpt lat="40.9221317" lon="14.1744333"><ele>111.0</ele><time>2026-04-26T07:12:24.157Z</time></trkpt><trkpt lat="40.9221633" lon="14.1743317"><ele>111.0</ele><time>2026-04-26T07:12:25.158Z</time></trkpt><trkpt lat="40.9221933" lon="14.1742267"><ele>111.0</ele><time>2026-04-26T07:12:26.157Z</time></trkpt><trkpt lat="40.9222283" lon="14.1741233"><ele>111.0</ele><time>2026-04-26T07:12:27.157Z</time></trkpt><trkpt lat="40.9222633" lon="14.1740167"><ele>111.0</ele><time>2026-04-26T07:12:28.157Z</time></trkpt><trkpt lat="40.9222983" lon="14.1739117"><ele>111.0</ele><time>2026-04-26T07:12:29.156Z</time></trkpt><trkpt lat="40.9223283" lon="14.173805"><ele>111.0</ele><time>2026-04-26T07:12:30.156Z</time></trkpt><trkpt lat="40.9223583" lon="14.1737"><ele>111.0</ele><time>2026-04-26T07:12:31.158Z</time></trkpt><trkpt lat="40.9223917" lon="14.1735983"><ele>111.0</ele><time>2026-04-26T07:12:32.157Z</time></trkpt><trkpt lat="40.9224317" lon="14.1734983"><ele>111.0</ele><time>2026-04-26T07:12:33.157Z</time></trkpt><trkpt lat="40.92248" lon="14.1734033"><ele>111.0</ele><time>2026-04-26T07:12:34.157Z</time></trkpt><trkpt lat="40.9225233" lon="14.1733067"><ele>111.0</ele><time>2026-04-26T07:12:35.156Z</time></trkpt><trkpt lat="40.9225533" lon="14.1732017"><ele>111.0</ele><time>2026-04-26T07:12:36.157Z</time></trkpt><trkpt lat="40.9225717" lon="14.17309"><ele>111.0</ele><time>2026-04-26T07:12:37.156Z</time></trkpt><trkpt lat="40.9225917" lon="14.1729767"><ele>111.0</ele><time>2026-04-26T07:12:38.161Z</time></trkpt><trkpt lat="40.92262" lon="14.1728667"><ele>111.0</ele><time>2026-04-26T07:12:39.157Z</time></trkpt><trkpt lat="40.922655" lon="14.1727567"><ele>111.0</ele><time>2026-04-26T07:12:40.156Z</time></trkpt><trkpt lat="40.9226917" lon="14.17265"><ele>111.0</ele><time>2026-04-26T07:12:41.157Z</time></trkpt><trkpt lat="40.9227233" lon="14.172545"><ele>111.0</ele><time>2026-04-26T07:12:42.157Z</time></trkpt><trkpt lat="40.922755" lon="14.1724433"><ele>111.0</ele><time>2026-04-26T07:12:43.156Z</time></trkpt><trkpt lat="40.9227883" lon="14.17234"><ele>111.0</ele><time>2026-04-26T07:12:44.157Z</time></trkpt><trkpt lat="40.92282" lon="14.1722367"><ele>111.0</ele><time>2026-04-26T07:12:45.157Z</time></trkpt><trkpt lat="40.92285" lon="14.1721333"><ele>111.0</ele><time>2026-04-26T07:12:46.158Z</time></trkpt><trkpt lat="40.922885" lon="14.17203"><ele>111.0</ele><time>2026-04-26T07:12:47.156Z</time></trkpt><trkpt lat="40.9229217" lon="14.1719217"><ele>111.0</ele><time>2026-04-26T07:12:48.159Z</time></trkpt><trkpt lat="40.9229567" lon="14.171815"><ele>111.0</ele><time>2026-04-26T07:12:49.158Z</time></trkpt><trkpt lat="40.9229917" lon="14.1717083"><ele>111.0</ele><time>2026-04-26T07:12:50.156Z</time></trkpt><trkpt lat="40.9230267" lon="14.1716"><ele>111.0</ele><time>2026-04-26T07:12:51.157Z</time></trkpt><trkpt lat="40.9230583" lon="14.1714933"><ele>111.0</ele><time>2026-04-26T07:12:52.157Z</time></trkpt><trkpt lat="40.9230933" lon="14.1713867"><ele>111.0</ele><time>2026-04-26T07:12:53.156Z</time></trkpt><trkpt lat="40.9231267" lon="14.1712783"><ele>110.83333333333333</ele><time>2026-04-26T07:12:54.157Z</time></trkpt><trkpt lat="40.92316" lon="14.1711717"><ele>110.66666666666666</ele><time>2026-04-26T07:12:55.158Z</time></trkpt><trkpt lat="40.9231917" lon="14.1710667"><ele>110.5</ele><time>2026-04-26T07:12:56.156Z</time></trkpt><trkpt lat="40.9232233" lon="14.170965"><ele>110.33333333333333</ele><time>2026-04-26T07:12:57.157Z</time></trkpt><trkpt lat="40.9232567" lon="14.1708617"><ele>110.16666666666666</ele><time>2026-04-26T07:12:58.156Z</time></trkpt><trkpt lat="40.9232883" lon="14.1707583"><ele>110.0</ele><time>2026-04-26T07:12:59.157Z</time></trkpt><trkpt lat="40.9233217" lon="14.1706517"><ele>109.99999999999999</ele><time>2026-04-26T07:13:00.156Z</time></trkpt><trkpt lat="40.9233533" lon="14.170545"><ele>110.0</ele><time>2026-04-26T07:13:01.156Z</time></trkpt><trkpt lat="40.9233833" lon="14.17044"><ele>110.0</ele><time>2026-04-26T07:13:02.157Z</time></trkpt><trkpt lat="40.923415" lon="14.1703383"><ele>110.0</ele><time>2026-04-26T07:13:03.156Z</time></trkpt><trkpt lat="40.923445" lon="14.1702483"><ele>109.99999999999999</ele><time>2026-04-26T07:13:04.156Z</time></trkpt><trkpt lat="40.9234817" lon="14.1701683"><ele>110.0</ele><time>2026-04-26T07:13:05.158Z</time></trkpt><trkpt lat="40.9235267" lon="14.1701033"><ele>109.99999999999999</ele><time>2026-04-26T07:13:06.158Z</time></trkpt><trkpt lat="40.9236333" lon="14.1700217"><ele>110.0</ele><time>2026-04-26T07:13:08.158Z</time></trkpt><trkpt lat="40.9236883" lon="14.16998"><ele>110.0</ele><time>2026-04-26T07:13:09.156Z</time></trkpt><trkpt lat="40.9237767" lon="14.1698733"><ele>110.0</ele><time>2026-04-26T07:13:11.157Z</time></trkpt><trkpt lat="40.9238017" lon="14.169795"><ele>109.99999999999999</ele><time>2026-04-26T07:13:12.156Z</time></trkpt><trkpt lat="40.923815" lon="14.1697033"><ele>110.0</ele><time>2026-04-26T07:13:13.158Z</time></trkpt><trkpt lat="40.92382" lon="14.1696117"><ele>109.99999999999999</ele><time>2026-04-26T07:13:14.156Z</time></trkpt><trkpt lat="40.923825" lon="14.169465"><ele>110.0</ele><time>2026-04-26T07:13:16.157Z</time></trkpt><trkpt lat="40.92384" lon="14.1693083"><ele>110.0</ele><time>2026-04-26T07:13:18.156Z</time></trkpt><trkpt lat="40.9238467" lon="14.16922"><ele>110.0</ele><time>2026-04-26T07:13:19.156Z</time></trkpt><trkpt lat="40.92386" lon="14.1691233"><ele>109.99999999999999</ele><time>2026-04-26T07:13:20.159Z</time></trkpt><trkpt lat="40.923875" lon="14.1690267"><ele>110.0</ele><time>2026-04-26T07:13:21.157Z</time></trkpt><trkpt lat="40.9238967" lon="14.1689183"><ele>109.99999999999999</ele><time>2026-04-26T07:13:22.156Z</time></trkpt><trkpt lat="40.9239217" lon="14.16881"><ele>110.0</ele><time>2026-04-26T07:13:23.157Z</time></trkpt><trkpt lat="40.92395" lon="14.1687033"><ele>110.0</ele><time>2026-04-26T07:13:24.156Z</time></trkpt><trkpt lat="40.92398" lon="14.168595"><ele>110.0</ele><time>2026-04-26T07:13:25.157Z</time></trkpt><trkpt lat="40.9240133" lon="14.1684867"><ele>109.99999999999999</ele><time>2026-04-26T07:13:26.157Z</time></trkpt><trkpt lat="40.9240467" lon="14.1683833"><ele>110.0</ele><time>2026-04-26T07:13:27.157Z</time></trkpt><trkpt lat="40.9240717" lon="14.1682767"><ele>109.83333333333333</ele><time>2026-04-26T07:13:28.157Z</time></trkpt><trkpt lat="40.9240933" lon="14.1681683"><ele>109.66666666666666</ele><time>2026-04-26T07:13:29.157Z</time></trkpt><trkpt lat="40.92412" lon="14.1680617"><ele>109.5</ele><time>2026-04-26T07:13:30.158Z</time></trkpt><trkpt lat="40.9241567" lon="14.167955"><ele>109.33333333333334</ele><time>2026-04-26T07:13:31.161Z</time></trkpt><trkpt lat="40.9241967" lon="14.16785"><ele>109.16666666666667</ele><time>2026-04-26T07:13:32.158Z</time></trkpt><trkpt lat="40.9242317" lon="14.16774"><ele>109.0</ele><time>2026-04-26T07:13:33.158Z</time></trkpt><trkpt lat="40.9242683" lon="14.1676267"><ele>108.6</ele><time>2026-04-26T07:13:34.157Z</time></trkpt><trkpt lat="40.9243083" lon="14.1675133"><ele>108.2</ele><time>2026-04-26T07:13:35.158Z</time></trkpt><trkpt lat="40.9243483" lon="14.1674017"><ele>107.79999999999998</ele><time>2026-04-26T07:13:36.157Z</time></trkpt><trkpt lat="40.9243867" lon="14.167285"><ele>107.39999999999999</ele><time>2026-04-26T07:13:37.156Z</time></trkpt><trkpt lat="40.924425" lon="14.1671683"><ele>107.0</ele><time>2026-04-26T07:13:38.158Z</time></trkpt><trkpt lat="40.924465" lon="14.16705"><ele>107.0</ele><time>2026-04-26T07:13:39.157Z</time></trkpt><trkpt lat="40.9245033" lon="14.1669333"><ele>106.99999999999999</ele><time>2026-04-26T07:13:40.158Z</time></trkpt><trkpt lat="40.9245417" lon="14.166815"><ele>106.99999999999999</ele><time>2026-04-26T07:13:41.156Z</time></trkpt><trkpt lat="40.92458" lon="14.166695"><ele>107.0</ele><time>2026-04-26T07:13:42.157Z</time></trkpt><trkpt lat="40.9246167" lon="14.1665733"><ele>107.0</ele><time>2026-04-26T07:13:43.156Z</time></trkpt><trkpt lat="40.9246533" lon="14.1664533"><ele>107.19999999999999</ele><time>2026-04-26T07:13:44.158Z</time></trkpt><trkpt lat="40.9246917" lon="14.166335"><ele>107.39999999999999</ele><time>2026-04-26T07:13:45.156Z</time></trkpt><trkpt lat="40.9247283" lon="14.1662217"><ele>107.60000000000001</ele><time>2026-04-26T07:13:46.156Z</time></trkpt><trkpt lat="40.9247633" lon="14.166105"><ele>107.80000000000001</ele><time>2026-04-26T07:13:47.156Z</time></trkpt><trkpt lat="40.9247983" lon="14.16599"><ele>108.0</ele><time>2026-04-26T07:13:48.158Z</time></trkpt><trkpt lat="40.9248317" lon="14.1658717"><ele>108.0</ele><time>2026-04-26T07:13:49.155Z</time></trkpt><trkpt lat="40.9248667" lon="14.1657533"><ele>108.00000000000001</ele><time>2026-04-26T07:13:50.156Z</time></trkpt><trkpt lat="40.9249033" lon="14.1656383"><ele>108.00000000000001</ele><time>2026-04-26T07:13:51.155Z</time></trkpt><trkpt lat="40.92494" lon="14.1655217"><ele>108.0</ele><time>2026-04-26T07:13:52.156Z</time></trkpt><trkpt lat="40.92498" lon="14.165405"><ele>108.0</ele><time>2026-04-26T07:13:53.156Z</time></trkpt><trkpt lat="40.925015" lon="14.16529"><ele>107.80000000000001</ele><time>2026-04-26T07:13:54.155Z</time></trkpt><trkpt lat="40.9250533" lon="14.1651767"><ele>107.60000000000001</ele><time>2026-04-26T07:13:55.157Z</time></trkpt><trkpt lat="40.9250883" lon="14.165065"><ele>107.39999999999999</ele><time>2026-04-26T07:13:56.157Z</time></trkpt><trkpt lat="40.9251233" lon="14.164955"><ele>107.19999999999999</ele><time>2026-04-26T07:13:57.156Z</time></trkpt><trkpt lat="40.9251567" lon="14.1648467"><ele>107.0</ele><time>2026-04-26T07:13:58.157Z</time></trkpt><trkpt lat="40.92519" lon="14.164735"><ele>106.99999999999999</ele><time>2026-04-26T07:13:59.156Z</time></trkpt><trkpt lat="40.9252233" lon="14.1646233"><ele>107.0</ele><time>2026-04-26T07:14:00.157Z</time></trkpt><trkpt lat="40.9252583" lon="14.164515"><ele>107.0</ele><time>2026-04-26T07:14:01.157Z</time></trkpt><trkpt lat="40.9252933" lon="14.164405"><ele>107.0</ele><time>2026-04-26T07:14:02.157Z</time></trkpt><trkpt lat="40.9253283" lon="14.1642967"><ele>106.99999999999999</ele><time>2026-04-26T07:14:03.156Z</time></trkpt><trkpt lat="40.9253633" lon="14.1641867"><ele>107.0</ele><time>2026-04-26T07:14:04.156Z</time></trkpt><trkpt lat="40.9253983" lon="14.1640767"><ele>106.66666666666666</ele><time>2026-04-26T07:14:05.156Z</time></trkpt><trkpt lat="40.9254333" lon="14.1639667"><ele>106.33333333333333</ele><time>2026-04-26T07:14:06.155Z</time></trkpt><trkpt lat="40.9254683" lon="14.1638583"><ele>106.0</ele><time>2026-04-26T07:14:07.155Z</time></trkpt><trkpt lat="40.9255033" lon="14.1637517"><ele>105.66666666666666</ele><time>2026-04-26T07:14:08.156Z</time></trkpt><trkpt lat="40.9255383" lon="14.1636417"><ele>105.33333333333333</ele><time>2026-04-26T07:14:09.156Z</time></trkpt><trkpt lat="40.925575" lon="14.16353"><ele>105.0</ele><time>2026-04-26T07:14:10.156Z</time></trkpt><trkpt lat="40.92561" lon="14.16342"><ele>105.0</ele><time>2026-04-26T07:14:11.155Z</time></trkpt><trkpt lat="40.9256417" lon="14.1633117"><ele>105.0</ele><time>2026-04-26T07:14:12.156Z</time></trkpt><trkpt lat="40.9256767" lon="14.1632"><ele>105.0</ele><time>2026-04-26T07:14:13.157Z</time></trkpt><trkpt lat="40.9257117" lon="14.16309"><ele>105.0</ele><time>2026-04-26T07:14:14.156Z</time></trkpt><trkpt lat="40.9257433" lon="14.1629783"><ele>105.0</ele><time>2026-04-26T07:14:15.156Z</time></trkpt><trkpt lat="40.925775" lon="14.1628633"><ele>105.0</ele><time>2026-04-26T07:14:16.156Z</time></trkpt><trkpt lat="40.9258083" lon="14.1627567"><ele>105.0</ele><time>2026-04-26T07:14:17.156Z</time></trkpt><trkpt lat="40.9258433" lon="14.1626483"><ele>105.0</ele><time>2026-04-26T07:14:18.16Z</time></trkpt><trkpt lat="40.9258817" lon="14.162535"><ele>105.0</ele><time>2026-04-26T07:14:19.157Z</time></trkpt><trkpt lat="40.9259167" lon="14.16242"><ele>105.0</ele><time>2026-04-26T07:14:20.157Z</time></trkpt><trkpt lat="40.9259517" lon="14.16231"><ele>105.0</ele><time>2026-04-26T07:14:21.157Z</time></trkpt><trkpt lat="40.925985" lon="14.1621967"><ele>105.0</ele><time>2026-04-26T07:14:22.155Z</time></trkpt><trkpt lat="40.9260133" lon="14.162085"><ele>105.0</ele><time>2026-04-26T07:14:23.156Z</time></trkpt><trkpt lat="40.926045" lon="14.1619717"><ele>105.0</ele><time>2026-04-26T07:14:24.157Z</time></trkpt><trkpt lat="40.9260817" lon="14.16186"><ele>105.0</ele><time>2026-04-26T07:14:25.158Z</time></trkpt><trkpt lat="40.9261167" lon="14.16175"><ele>105.0</ele><time>2026-04-26T07:14:26.156Z</time></trkpt><trkpt lat="40.9261517" lon="14.1616417"><ele>105.0</ele><time>2026-04-26T07:14:27.157Z</time></trkpt><trkpt lat="40.92619" lon="14.16153"><ele>105.0</ele><time>2026-04-26T07:14:28.155Z</time></trkpt><trkpt lat="40.9262333" lon="14.16142"><ele>105.0</ele><time>2026-04-26T07:14:29.155Z</time></trkpt><trkpt lat="40.9262833" lon="14.16131"><ele>105.0</ele><time>2026-04-26T07:14:30.156Z</time></trkpt><trkpt lat="40.9263333" lon="14.1612017"><ele>104.8</ele><time>2026-04-26T07:14:31.161Z</time></trkpt><trkpt lat="40.926375" lon="14.1610867"><ele>104.6</ele><time>2026-04-26T07:14:32.157Z</time></trkpt><trkpt lat="40.9264067" lon="14.160965"><ele>104.4</ele><time>2026-04-26T07:14:33.155Z</time></trkpt><trkpt lat="40.92643" lon="14.1608383"><ele>104.2</ele><time>2026-04-26T07:14:34.155Z</time></trkpt><trkpt lat="40.9264567" lon="14.1607117"><ele>104.0</ele><time>2026-04-26T07:14:35.156Z</time></trkpt><trkpt lat="40.9264883" lon="14.1605883"><ele>104.0</ele><time>2026-04-26T07:14:36.156Z</time></trkpt><trkpt lat="40.926525" lon="14.1604633"><ele>104.0</ele><time>2026-04-26T07:14:37.157Z</time></trkpt><trkpt lat="40.92656" lon="14.1603383"><ele>104.0</ele><time>2026-04-26T07:14:38.156Z</time></trkpt><trkpt lat="40.9265917" lon="14.160215"><ele>104.0</ele><time>2026-04-26T07:14:39.156Z</time></trkpt><trkpt lat="40.9266217" lon="14.1600983"><ele>104.0</ele><time>2026-04-26T07:14:40.158Z</time></trkpt><trkpt lat="40.9266533" lon="14.1599833"><ele>104.0</ele><time>2026-04-26T07:14:41.157Z</time></trkpt><trkpt lat="40.926685" lon="14.1598667"><ele>104.0</ele><time>2026-04-26T07:14:42.157Z</time></trkpt><trkpt lat="40.9267167" lon="14.1597567"><ele>104.0</ele><time>2026-04-26T07:14:43.156Z</time></trkpt><trkpt lat="40.926755" lon="14.1596483"><ele>104.0</ele><time>2026-04-26T07:14:44.158Z</time></trkpt><trkpt lat="40.9267917" lon="14.1595367"><ele>104.0</ele><time>2026-04-26T07:14:45.158Z</time></trkpt><trkpt lat="40.92683" lon="14.1594233"><ele>103.6</ele><time>2026-04-26T07:14:46.157Z</time></trkpt><trkpt lat="40.9268667" lon="14.1593083"><ele>103.2</ele><time>2026-04-26T07:14:47.156Z</time></trkpt><trkpt lat="40.9269017" lon="14.1591967"><ele>102.8</ele><time>2026-04-26T07:14:48.157Z</time></trkpt><trkpt lat="40.9269367" lon="14.1590817"><ele>102.39999999999999</ele><time>2026-04-26T07:14:49.157Z</time></trkpt><trkpt lat="40.9269733" lon="14.1589633"><ele>102.0</ele><time>2026-04-26T07:14:50.161Z</time></trkpt><trkpt lat="40.92701" lon="14.158845"><ele>102.0</ele><time>2026-04-26T07:14:51.156Z</time></trkpt><trkpt lat="40.9270467" lon="14.158725"><ele>102.0</ele><time>2026-04-26T07:14:52.155Z</time></trkpt><trkpt lat="40.927085" lon="14.1586017"><ele>102.0</ele><time>2026-04-26T07:14:53.157Z</time></trkpt><trkpt lat="40.9271217" lon="14.15848"><ele>102.0</ele><time>2026-04-26T07:14:54.157Z</time></trkpt><trkpt lat="40.92716" lon="14.1583583"><ele>102.0</ele><time>2026-04-26T07:14:55.155Z</time></trkpt><trkpt lat="40.9271967" lon="14.1582317"><ele>102.19999999999999</ele><time>2026-04-26T07:14:56.159Z</time></trkpt><trkpt lat="40.9272367" lon="14.1581117"><ele>102.4</ele><time>2026-04-26T07:14:57.156Z</time></trkpt><trkpt lat="40.927275" lon="14.1579917"><ele>102.6</ele><time>2026-04-26T07:14:58.156Z</time></trkpt><trkpt lat="40.9273133" lon="14.15787"><ele>102.80000000000001</ele><time>2026-04-26T07:14:59.156Z</time></trkpt><trkpt lat="40.9273517" lon="14.1577467"><ele>103.0</ele><time>2026-04-26T07:15:00.158Z</time></trkpt><trkpt lat="40.9273867" lon="14.157625"><ele>103.0</ele><time>2026-04-26T07:15:01.156Z</time></trkpt><trkpt lat="40.9274217" lon="14.1575017"><ele>103.0</ele><time>2026-04-26T07:15:02.156Z</time></trkpt><trkpt lat="40.9274583" lon="14.1573767"><ele>103.0</ele><time>2026-04-26T07:15:03.156Z</time></trkpt><trkpt lat="40.9274933" lon="14.157255"><ele>103.0</ele><time>2026-04-26T07:15:04.159Z</time></trkpt><trkpt lat="40.9275333" lon="14.15713"><ele>103.0</ele><time>2026-04-26T07:15:05.157Z</time></trkpt><trkpt lat="40.9275717" lon="14.1570067"><ele>102.2</ele><time>2026-04-26T07:15:06.156Z</time></trkpt><trkpt lat="40.9276133" lon="14.1568833"><ele>101.4</ele><time>2026-04-26T07:15:07.157Z</time></trkpt><trkpt lat="40.9276517" lon="14.15676"><ele>100.60000000000001</ele><time>2026-04-26T07:15:08.156Z</time></trkpt><trkpt lat="40.92769" lon="14.15664"><ele>99.80000000000001</ele><time>2026-04-26T07:15:09.156Z</time></trkpt><trkpt lat="40.927725" lon="14.1565217"><ele>99.0</ele><time>2026-04-26T07:15:10.156Z</time></trkpt><trkpt lat="40.9277633" lon="14.1564017"><ele>98.80000000000001</ele><time>2026-04-26T07:15:11.157Z</time></trkpt><trkpt lat="40.9277983" lon="14.1562867"><ele>98.60000000000001</ele><time>2026-04-26T07:15:12.156Z</time></trkpt><trkpt lat="40.927835" lon="14.1561717"><ele>98.4</ele><time>2026-04-26T07:15:13.155Z</time></trkpt><trkpt lat="40.92787" lon="14.156055"><ele>98.2</ele><time>2026-04-26T07:15:14.157Z</time></trkpt><trkpt lat="40.9279033" lon="14.1559367"><ele>98.0</ele><time>2026-04-26T07:15:15.157Z</time></trkpt><trkpt lat="40.9279367" lon="14.1558233"><ele>98.0</ele><time>2026-04-26T07:15:16.157Z</time></trkpt><trkpt lat="40.92797" lon="14.15571"><ele>98.0</ele><time>2026-04-26T07:15:17.156Z</time></trkpt><trkpt lat="40.92801" lon="14.1556017"><ele>98.0</ele><time>2026-04-26T07:15:18.156Z</time></trkpt><trkpt lat="40.92805" lon="14.1554933"><ele>98.0</ele><time>2026-04-26T07:15:19.155Z</time></trkpt><trkpt lat="40.9280883" lon="14.1553833"><ele>98.0</ele><time>2026-04-26T07:15:20.156Z</time></trkpt><trkpt lat="40.9281233" lon="14.1552717"><ele>98.0</ele><time>2026-04-26T07:15:21.156Z</time></trkpt><trkpt lat="40.9281567" lon="14.155155"><ele>98.0</ele><time>2026-04-26T07:15:22.157Z</time></trkpt><trkpt lat="40.928195" lon="14.1550383"><ele>98.0</ele><time>2026-04-26T07:15:23.155Z</time></trkpt><trkpt lat="40.9282317" lon="14.15492"><ele>98.0</ele><time>2026-04-26T07:15:24.157Z</time></trkpt><trkpt lat="40.9282683" lon="14.1548017"><ele>98.0</ele><time>2026-04-26T07:15:25.157Z</time></trkpt><trkpt lat="40.9283033" lon="14.154685"><ele>98.0</ele><time>2026-04-26T07:15:26.161Z</time></trkpt><trkpt lat="40.9283333" lon="14.1545683"><ele>98.0</ele><time>2026-04-26T07:15:27.155Z</time></trkpt><trkpt lat="40.9283667" lon="14.154455"><ele>98.0</ele><time>2026-04-26T07:15:28.157Z</time></trkpt><trkpt lat="40.928405" lon="14.1543433"><ele>98.0</ele><time>2026-04-26T07:15:29.156Z</time></trkpt><trkpt lat="40.9284417" lon="14.15423"><ele>98.0</ele><time>2026-04-26T07:15:30.156Z</time></trkpt><trkpt lat="40.9284767" lon="14.1541167"><ele>97.60000000000001</ele><time>2026-04-26T07:15:31.156Z</time></trkpt><trkpt lat="40.9285133" lon="14.154"><ele>97.2</ele><time>2026-04-26T07:15:32.156Z</time></trkpt><trkpt lat="40.92855" lon="14.15388"><ele>96.8</ele><time>2026-04-26T07:15:33.156Z</time></trkpt><trkpt lat="40.9285917" lon="14.1537567"><ele>96.4</ele><time>2026-04-26T07:15:34.155Z</time></trkpt><trkpt lat="40.9286283" lon="14.1536383"><ele>96.0</ele><time>2026-04-26T07:15:35.156Z</time></trkpt><trkpt lat="40.928665" lon="14.1535183"><ele>96.0</ele><time>2026-04-26T07:15:36.156Z</time></trkpt><trkpt lat="40.9287017" lon="14.1533967"><ele>96.0</ele><time>2026-04-26T07:15:37.157Z</time></trkpt><trkpt lat="40.9287383" lon="14.1532717"><ele>96.0</ele><time>2026-04-26T07:15:38.157Z</time></trkpt><trkpt lat="40.9287767" lon="14.1531467"><ele>96.0</ele><time>2026-04-26T07:15:39.158Z</time></trkpt><trkpt lat="40.9288117" lon="14.1530233"><ele>96.0</ele><time>2026-04-26T07:15:40.156Z</time></trkpt><trkpt lat="40.9288483" lon="14.1528983"><ele>95.8</ele><time>2026-04-26T07:15:41.159Z</time></trkpt><trkpt lat="40.9288883" lon="14.1527733"><ele>95.6</ele><time>2026-04-26T07:15:42.156Z</time></trkpt><trkpt lat="40.928925" lon="14.1526467"><ele>95.4</ele><time>2026-04-26T07:15:43.157Z</time></trkpt><trkpt lat="40.9289617" lon="14.1525183"><ele>95.2</ele><time>2026-04-26T07:15:44.156Z</time></trkpt><trkpt lat="40.9289983" lon="14.1523933"><ele>95.0</ele><time>2026-04-26T07:15:45.155Z</time></trkpt><trkpt lat="40.9290383" lon="14.152265"><ele>95.0</ele><time>2026-04-26T07:15:46.171Z</time></trkpt><trkpt lat="40.929075" lon="14.152135"><ele>95.0</ele><time>2026-04-26T07:15:47.156Z</time></trkpt><trkpt lat="40.9291117" lon="14.1519967"><ele>95.0</ele><time>2026-04-26T07:15:48.156Z</time></trkpt><trkpt lat="40.9291433" lon="14.15186"><ele>95.0</ele><time>2026-04-26T07:15:49.156Z</time></trkpt><trkpt lat="40.9291717" lon="14.15172"><ele>95.0</ele><time>2026-04-26T07:15:50.157Z</time></trkpt><trkpt lat="40.9291967" lon="14.1515783"><ele>94.8</ele><time>2026-04-26T07:15:51.157Z</time></trkpt><trkpt lat="40.9292183" lon="14.151435"><ele>94.6</ele><time>2026-04-26T07:15:52.156Z</time></trkpt><trkpt lat="40.9292367" lon="14.1512967"><ele>94.4</ele><time>2026-04-26T07:15:53.157Z</time></trkpt><trkpt lat="40.929255" lon="14.1511567"><ele>94.2</ele><time>2026-04-26T07:15:54.157Z</time></trkpt><trkpt lat="40.9292683" lon="14.1510167"><ele>94.0</ele><time>2026-04-26T07:15:55.171Z</time></trkpt><trkpt lat="40.9292783" lon="14.1508767"><ele>94.0</ele><time>2026-04-26T07:15:56.158Z</time></trkpt><trkpt lat="40.929285" lon="14.1507417"><ele>94.0</ele><time>2026-04-26T07:15:57.156Z</time></trkpt><trkpt lat="40.9292933" lon="14.1506067"><ele>94.0</ele><time>2026-04-26T07:15:58.156Z</time></trkpt><trkpt lat="40.929305" lon="14.1504717"><ele>94.0</ele><time>2026-04-26T07:15:59.157Z</time></trkpt><trkpt lat="40.929305" lon="14.1503467"><ele>94.0</ele><time>2026-04-26T07:16:00.156Z</time></trkpt><trkpt lat="40.9293117" lon="14.1502217"><ele>93.80000000000001</ele><time>2026-04-26T07:16:01.156Z</time></trkpt><trkpt lat="40.9293267" lon="14.150095"><ele>93.60000000000001</ele><time>2026-04-26T07:16:02.157Z</time></trkpt><trkpt lat="40.9293367" lon="14.1499733"><ele>93.4</ele><time>2026-04-26T07:16:03.157Z</time></trkpt><trkpt lat="40.9293483" lon="14.1498483"><ele>93.2</ele><time>2026-04-26T07:16:04.156Z</time></trkpt><trkpt lat="40.9293567" lon="14.1497283"><ele>93.0</ele><time>2026-04-26T07:16:05.157Z</time></trkpt><trkpt lat="40.9293633" lon="14.1496117"><ele>92.60000000000001</ele><time>2026-04-26T07:16:06.158Z</time></trkpt><trkpt lat="40.9293683" lon="14.1494933"><ele>92.2</ele><time>2026-04-26T07:16:07.157Z</time></trkpt><trkpt lat="40.9293767" lon="14.1493717"><ele>91.8</ele><time>2026-04-26T07:16:08.158Z</time></trkpt><trkpt lat="40.9293833" lon="14.1492517"><ele>91.4</ele><time>2026-04-26T07:16:09.156Z</time></trkpt><trkpt lat="40.9293883" lon="14.1491317"><ele>91.0</ele><time>2026-04-26T07:16:10.156Z</time></trkpt><trkpt lat="40.92939" lon="14.14901"><ele>90.4</ele><time>2026-04-26T07:16:11.158Z</time></trkpt><trkpt lat="40.9293933" lon="14.1488833"><ele>89.8</ele><time>2026-04-26T07:16:12.157Z</time></trkpt><trkpt lat="40.9294" lon="14.1487533"><ele>89.2</ele><time>2026-04-26T07:16:13.157Z</time></trkpt><trkpt lat="40.9294067" lon="14.14862"><ele>88.60000000000001</ele><time>2026-04-26T07:16:14.156Z</time></trkpt><trkpt lat="40.929415" lon="14.1484883"><ele>88.0</ele><time>2026-04-26T07:16:15.155Z</time></trkpt><trkpt lat="40.9294267" lon="14.1483617"><ele>88.0</ele><time>2026-04-26T07:16:16.158Z</time></trkpt><trkpt lat="40.9294333" lon="14.148235"><ele>88.0</ele><time>2026-04-26T07:16:17.157Z</time></trkpt><trkpt lat="40.9294483" lon="14.1481017"><ele>88.0</ele><time>2026-04-26T07:16:18.159Z</time></trkpt><trkpt lat="40.92946" lon="14.1479683"><ele>88.0</ele><time>2026-04-26T07:16:19.156Z</time></trkpt><trkpt lat="40.92947" lon="14.1478417"><ele>88.0</ele><time>2026-04-26T07:16:20.156Z</time></trkpt><trkpt lat="40.9294783" lon="14.14771"><ele>88.0</ele><time>2026-04-26T07:16:21.157Z</time></trkpt><trkpt lat="40.9294883" lon="14.14758"><ele>88.0</ele><time>2026-04-26T07:16:22.164Z</time></trkpt><trkpt lat="40.9294967" lon="14.1474517"><ele>88.0</ele><time>2026-04-26T07:16:23.157Z</time></trkpt><trkpt lat="40.9295017" lon="14.147325"><ele>88.0</ele><time>2026-04-26T07:16:24.156Z</time></trkpt><trkpt lat="40.929505" lon="14.1472067"><ele>88.0</ele><time>2026-04-26T07:16:25.158Z</time></trkpt><trkpt lat="40.9295133" lon="14.1470917"><ele>88.0</ele><time>2026-04-26T07:16:26.158Z</time></trkpt><trkpt lat="40.9295217" lon="14.1469733"><ele>88.0</ele><time>2026-04-26T07:16:27.157Z</time></trkpt><trkpt lat="40.9295267" lon="14.146855"><ele>88.0</ele><time>2026-04-26T07:16:28.157Z</time></trkpt><trkpt lat="40.9295317" lon="14.1467433"><ele>88.0</ele><time>2026-04-26T07:16:29.163Z</time></trkpt><trkpt lat="40.9295467" lon="14.1466317"><ele>88.0</ele><time>2026-04-26T07:16:30.156Z</time></trkpt><trkpt lat="40.92956" lon="14.1465233"><ele>88.0</ele><time>2026-04-26T07:16:31.156Z</time></trkpt><trkpt lat="40.92958" lon="14.146415"><ele>87.83333333333333</ele><time>2026-04-26T07:16:32.157Z</time></trkpt><trkpt lat="40.9296083" lon="14.146305"><ele>87.66666666666666</ele><time>2026-04-26T07:16:33.157Z</time></trkpt><trkpt lat="40.9296367" lon="14.1462017"><ele>87.5</ele><time>2026-04-26T07:16:34.16Z</time></trkpt><trkpt lat="40.9296633" lon="14.1461"><ele>87.33333333333333</ele><time>2026-04-26T07:16:35.156Z</time></trkpt><trkpt lat="40.9296917" lon="14.1459967"><ele>87.16666666666667</ele><time>2026-04-26T07:16:36.158Z</time></trkpt><trkpt lat="40.92972" lon="14.1458967"><ele>87.0</ele><time>2026-04-26T07:16:37.159Z</time></trkpt><trkpt lat="40.9297483" lon="14.1457917"><ele>86.83333333333333</ele><time>2026-04-26T07:16:38.16Z</time></trkpt><trkpt lat="40.9297833" lon="14.1456867"><ele>86.66666666666667</ele><time>2026-04-26T07:16:39.161Z</time></trkpt><trkpt lat="40.9298183" lon="14.1455833"><ele>86.5</ele><time>2026-04-26T07:16:40.177Z</time></trkpt><trkpt lat="40.9298533" lon="14.14548"><ele>86.33333333333334</ele><time>2026-04-26T07:16:41.157Z</time></trkpt><trkpt lat="40.9298983" lon="14.1453783"><ele>86.16666666666667</ele><time>2026-04-26T07:16:42.171Z</time></trkpt><trkpt lat="40.9299433" lon="14.1452817"><ele>86.0</ele><time>2026-04-26T07:16:43.155Z</time></trkpt><trkpt lat="40.92998" lon="14.1451833"><ele>86.00000000000001</ele><time>2026-04-26T07:16:44.156Z</time></trkpt><trkpt lat="40.9300033" lon="14.1450867"><ele>86.0</ele><time>2026-04-26T07:16:45.156Z</time></trkpt><trkpt lat="40.930015" lon="14.1449917"><ele>86.0</ele><time>2026-04-26T07:16:46.156Z</time></trkpt><trkpt lat="40.9300117" lon="14.144895"><ele>86.0</ele><time>2026-04-26T07:16:47.16Z</time></trkpt><trkpt lat="40.930005" lon="14.1448033"><ele>86.0</ele><time>2026-04-26T07:16:48.156Z</time></trkpt><trkpt lat="40.9299633" lon="14.144725"><ele>86.00000000000001</ele><time>2026-04-26T07:16:49.155Z</time></trkpt><trkpt lat="40.929915" lon="14.1446533"><ele>86.0</ele><time>2026-04-26T07:16:50.158Z</time></trkpt><trkpt lat="40.929865" lon="14.1445783"><ele>85.83333333333334</ele><time>2026-04-26T07:16:51.157Z</time></trkpt><trkpt lat="40.929815" lon="14.1445017"><ele>85.66666666666667</ele><time>2026-04-26T07:16:52.155Z</time></trkpt><trkpt lat="40.9297667" lon="14.1444167"><ele>85.5</ele><time>2026-04-26T07:16:53.155Z</time></trkpt><trkpt lat="40.9297383" lon="14.1443133"><ele>85.33333333333333</ele><time>2026-04-26T07:16:54.157Z</time></trkpt><trkpt lat="40.9297283" lon="14.1442017"><ele>85.16666666666666</ele><time>2026-04-26T07:16:55.156Z</time></trkpt><trkpt lat="40.9297167" lon="14.1440933"><ele>85.0</ele><time>2026-04-26T07:16:56.158Z</time></trkpt><trkpt lat="40.9297083" lon="14.143985"><ele>85.0</ele><time>2026-04-26T07:16:57.156Z</time></trkpt><trkpt lat="40.929705" lon="14.1438733"><ele>85.0</ele><time>2026-04-26T07:16:58.156Z</time></trkpt><trkpt lat="40.9297067" lon="14.1437633"><ele>85.0</ele><time>2026-04-26T07:16:59.156Z</time></trkpt><trkpt lat="40.92971" lon="14.1436533"><ele>85.0</ele><time>2026-04-26T07:17:00.156Z</time></trkpt><trkpt lat="40.9297083" lon="14.14355"><ele>85.0</ele><time>2026-04-26T07:17:01.156Z</time></trkpt><trkpt lat="40.92971" lon="14.14344"><ele>85.0</ele><time>2026-04-26T07:17:02.157Z</time></trkpt><trkpt lat="40.9297183" lon="14.14332"><ele>85.0</ele><time>2026-04-26T07:17:03.157Z</time></trkpt><trkpt lat="40.9297233" lon="14.143205"><ele>85.0</ele><time>2026-04-26T07:17:04.156Z</time></trkpt><trkpt lat="40.92973" lon="14.14309"><ele>85.0</ele><time>2026-04-26T07:17:05.157Z</time></trkpt><trkpt lat="40.9297367" lon="14.14298"><ele>85.0</ele><time>2026-04-26T07:17:06.157Z</time></trkpt><trkpt lat="40.9297417" lon="14.1428683"><ele>85.0</ele><time>2026-04-26T07:17:07.156Z</time></trkpt><trkpt lat="40.9297483" lon="14.142755"><ele>85.0</ele><time>2026-04-26T07:17:08.157Z</time></trkpt><trkpt lat="40.929755" lon="14.1426433"><ele>85.0</ele><time>2026-04-26T07:17:09.157Z</time></trkpt><trkpt lat="40.9297617" lon="14.1425317"><ele>85.0</ele><time>2026-04-26T07:17:10.162Z</time></trkpt><trkpt lat="40.9297667" lon="14.1424183"><ele>85.0</ele><time>2026-04-26T07:17:11.157Z</time></trkpt><trkpt lat="40.92977" lon="14.1423117"><ele>85.0</ele><time>2026-04-26T07:17:12.156Z</time></trkpt><trkpt lat="40.9297733" lon="14.1422083"><ele>85.0</ele><time>2026-04-26T07:17:13.156Z</time></trkpt><trkpt lat="40.9297767" lon="14.1421083"><ele>85.0</ele><time>2026-04-26T07:17:14.157Z</time></trkpt><trkpt lat="40.9297767" lon="14.1420033"><ele>85.0</ele><time>2026-04-26T07:17:15.156Z</time></trkpt><trkpt lat="40.9297783" lon="14.1419"><ele>85.0</ele><time>2026-04-26T07:17:16.156Z</time></trkpt><trkpt lat="40.9297883" lon="14.1418017"><ele>85.0</ele><time>2026-04-26T07:17:17.156Z</time></trkpt><trkpt lat="40.9297933" lon="14.1416967"><ele>85.0</ele><time>2026-04-26T07:17:18.156Z</time></trkpt><trkpt lat="40.9298" lon="14.141595"><ele>85.0</ele><time>2026-04-26T07:17:19.157Z</time></trkpt><trkpt lat="40.9298067" lon="14.141485"><ele>85.0</ele><time>2026-04-26T07:17:20.158Z</time></trkpt><trkpt lat="40.929815" lon="14.1413767"><ele>85.0</ele><time>2026-04-26T07:17:21.157Z</time></trkpt><trkpt lat="40.9298183" lon="14.1412683"><ele>85.0</ele><time>2026-04-26T07:17:22.157Z</time></trkpt><trkpt lat="40.929825" lon="14.14116"><ele>85.0</ele><time>2026-04-26T07:17:23.156Z</time></trkpt><trkpt lat="40.92983" lon="14.1410533"><ele>85.0</ele><time>2026-04-26T07:17:24.156Z</time></trkpt><trkpt lat="40.9298367" lon="14.1409483"><ele>85.0</ele><time>2026-04-26T07:17:25.157Z</time></trkpt><trkpt lat="40.929845" lon="14.14084"><ele>85.0</ele><time>2026-04-26T07:17:26.156Z</time></trkpt><trkpt lat="40.9298517" lon="14.140735"><ele>85.0</ele><time>2026-04-26T07:17:27.156Z</time></trkpt><trkpt lat="40.9298567" lon="14.1406317"><ele>85.0</ele><time>2026-04-26T07:17:28.156Z</time></trkpt><trkpt lat="40.929865" lon="14.140525"><ele>85.0</ele><time>2026-04-26T07:17:29.156Z</time></trkpt><trkpt lat="40.9298733" lon="14.1404167"><ele>85.0</ele><time>2026-04-26T07:17:30.156Z</time></trkpt><trkpt lat="40.929875" lon="14.14031"><ele>85.0</ele><time>2026-04-26T07:17:31.156Z</time></trkpt><trkpt lat="40.9298767" lon="14.1402033"><ele>85.0</ele><time>2026-04-26T07:17:32.158Z</time></trkpt><trkpt lat="40.9298817" lon="14.140095"><ele>85.0</ele><time>2026-04-26T07:17:33.156Z</time></trkpt><trkpt lat="40.9298883" lon="14.1399833"><ele>85.0</ele><time>2026-04-26T07:17:34.158Z</time></trkpt><trkpt lat="40.9299" lon="14.1398683"><ele>85.0</ele><time>2026-04-26T07:17:35.156Z</time></trkpt><trkpt lat="40.9299083" lon="14.1397517"><ele>85.0</ele><time>2026-04-26T07:17:36.158Z</time></trkpt><trkpt lat="40.9299183" lon="14.1396367"><ele>85.0</ele><time>2026-04-26T07:17:37.156Z</time></trkpt><trkpt lat="40.9299283" lon="14.1395217"><ele>85.0</ele><time>2026-04-26T07:17:38.157Z</time></trkpt><trkpt lat="40.9299383" lon="14.13941"><ele>85.0</ele><time>2026-04-26T07:17:39.156Z</time></trkpt><trkpt lat="40.929945" lon="14.1393"><ele>85.0</ele><time>2026-04-26T07:17:40.156Z</time></trkpt><trkpt lat="40.92995" lon="14.13919"><ele>85.0</ele><time>2026-04-26T07:17:41.156Z</time></trkpt><trkpt lat="40.929955" lon="14.1390783"><ele>85.0</ele><time>2026-04-26T07:17:42.156Z</time></trkpt><trkpt lat="40.9299583" lon="14.1389633"><ele>85.0</ele><time>2026-04-26T07:17:43.157Z</time></trkpt><trkpt lat="40.92996" lon="14.138855"><ele>85.0</ele><time>2026-04-26T07:17:44.156Z</time></trkpt><trkpt lat="40.9299617" lon="14.1387417"><ele>85.16666666666666</ele><time>2026-04-26T07:17:45.157Z</time></trkpt><trkpt lat="40.9299617" lon="14.13863"><ele>85.33333333333333</ele><time>2026-04-26T07:17:46.159Z</time></trkpt><trkpt lat="40.9299633" lon="14.1385217"><ele>85.5</ele><time>2026-04-26T07:17:47.159Z</time></trkpt><trkpt lat="40.9299667" lon="14.13841"><ele>85.66666666666667</ele><time>2026-04-26T07:17:48.157Z</time></trkpt><trkpt lat="40.9299683" lon="14.1383"><ele>85.83333333333334</ele><time>2026-04-26T07:17:49.156Z</time></trkpt><trkpt lat="40.9299683" lon="14.138195"><ele>86.0</ele><time>2026-04-26T07:17:50.157Z</time></trkpt><trkpt lat="40.9299683" lon="14.1380867"><ele>86.0</ele><time>2026-04-26T07:17:51.155Z</time></trkpt><trkpt lat="40.92997" lon="14.1379817"><ele>86.0</ele><time>2026-04-26T07:17:52.156Z</time></trkpt><trkpt lat="40.9299733" lon="14.13787"><ele>86.0</ele><time>2026-04-26T07:17:53.156Z</time></trkpt><trkpt lat="40.92998" lon="14.1377533"><ele>86.0</ele><time>2026-04-26T07:17:54.157Z</time></trkpt><trkpt lat="40.92999" lon="14.1376383"><ele>86.0</ele><time>2026-04-26T07:17:55.156Z</time></trkpt><trkpt lat="40.9299967" lon="14.13752"><ele>86.0</ele><time>2026-04-26T07:17:56.157Z</time></trkpt><trkpt lat="40.9300083" lon="14.1374017"><ele>85.6</ele><time>2026-04-26T07:17:57.157Z</time></trkpt><trkpt lat="40.93002" lon="14.137285"><ele>85.19999999999999</ele><time>2026-04-26T07:17:58.156Z</time></trkpt><trkpt lat="40.93003" lon="14.1371667"><ele>84.80000000000001</ele><time>2026-04-26T07:17:59.156Z</time></trkpt><trkpt lat="40.9300367" lon="14.1370467"><ele>84.4</ele><time>2026-04-26T07:18:00.156Z</time></trkpt><trkpt lat="40.9300383" lon="14.136925"><ele>84.0</ele><time>2026-04-26T07:18:01.157Z</time></trkpt><trkpt lat="40.9300433" lon="14.1368033"><ele>84.0</ele><time>2026-04-26T07:18:02.158Z</time></trkpt><trkpt lat="40.9300517" lon="14.13668"><ele>84.0</ele><time>2026-04-26T07:18:03.156Z</time></trkpt><trkpt lat="40.93006" lon="14.1365583"><ele>84.0</ele><time>2026-04-26T07:18:04.156Z</time></trkpt><trkpt lat="40.93007" lon="14.1364367"><ele>84.0</ele><time>2026-04-26T07:18:05.156Z</time></trkpt><trkpt lat="40.9300783" lon="14.1363133"><ele>84.0</ele><time>2026-04-26T07:18:06.157Z</time></trkpt><trkpt lat="40.9300917" lon="14.1361883"><ele>83.6</ele><time>2026-04-26T07:18:07.156Z</time></trkpt><trkpt lat="40.9301033" lon="14.1360633"><ele>83.2</ele><time>2026-04-26T07:18:08.157Z</time></trkpt><trkpt lat="40.93011" lon="14.13594"><ele>82.8</ele><time>2026-04-26T07:18:09.156Z</time></trkpt><trkpt lat="40.9301167" lon="14.1358117"><ele>82.39999999999999</ele><time>2026-04-26T07:18:10.156Z</time></trkpt><trkpt lat="40.9301233" lon="14.1356817"><ele>82.0</ele><time>2026-04-26T07:18:11.157Z</time></trkpt><trkpt lat="40.9301317" lon="14.135555"><ele>82.0</ele><time>2026-04-26T07:18:12.157Z</time></trkpt><trkpt lat="40.9301383" lon="14.1354233"><ele>82.0</ele><time>2026-04-26T07:18:13.156Z</time></trkpt><trkpt lat="40.9301467" lon="14.1352933"><ele>82.0</ele><time>2026-04-26T07:18:14.157Z</time></trkpt><trkpt lat="40.930155" lon="14.13516"><ele>82.0</ele><time>2026-04-26T07:18:15.156Z</time></trkpt><trkpt lat="40.93016" lon="14.1350283"><ele>82.0</ele><time>2026-04-26T07:18:16.156Z</time></trkpt><trkpt lat="40.9301667" lon="14.1348967"><ele>82.19999999999999</ele><time>2026-04-26T07:18:17.156Z</time></trkpt><trkpt lat="40.93017" lon="14.1347667"><ele>82.4</ele><time>2026-04-26T07:18:18.157Z</time></trkpt><trkpt lat="40.9301767" lon="14.1346383"><ele>82.6</ele><time>2026-04-26T07:18:19.156Z</time></trkpt><trkpt lat="40.9301817" lon="14.1345083"><ele>82.80000000000001</ele><time>2026-04-26T07:18:20.156Z</time></trkpt><trkpt lat="40.9301867" lon="14.1343733"><ele>83.0</ele><time>2026-04-26T07:18:21.156Z</time></trkpt><trkpt lat="40.9301967" lon="14.13424"><ele>83.0</ele><time>2026-04-26T07:18:22.155Z</time></trkpt><trkpt lat="40.930205" lon="14.1341117"><ele>83.0</ele><time>2026-04-26T07:18:23.157Z</time></trkpt><trkpt lat="40.9302133" lon="14.1339783"><ele>83.0</ele><time>2026-04-26T07:18:24.156Z</time></trkpt><trkpt lat="40.930225" lon="14.133845"><ele>83.0</ele><time>2026-04-26T07:18:25.157Z</time></trkpt><trkpt lat="40.9302333" lon="14.1337133"><ele>83.0</ele><time>2026-04-26T07:18:26.157Z</time></trkpt><trkpt lat="40.93024" lon="14.133585"><ele>82.60000000000001</ele><time>2026-04-26T07:18:27.158Z</time></trkpt><trkpt lat="40.930245" lon="14.1334533"><ele>82.2</ele><time>2026-04-26T07:18:28.156Z</time></trkpt><trkpt lat="40.93025" lon="14.1333233"><ele>81.8</ele><time>2026-04-26T07:18:29.158Z</time></trkpt><trkpt lat="40.9302583" lon="14.13319"><ele>81.4</ele><time>2026-04-26T07:18:30.157Z</time></trkpt><trkpt lat="40.9302633" lon="14.13306"><ele>81.0</ele><time>2026-04-26T07:18:31.157Z</time></trkpt><trkpt lat="40.9302683" lon="14.1329283"><ele>81.0</ele><time>2026-04-26T07:18:32.156Z</time></trkpt><trkpt lat="40.9302717" lon="14.1327933"><ele>81.0</ele><time>2026-04-26T07:18:33.156Z</time></trkpt><trkpt lat="40.9302767" lon="14.1326633"><ele>81.0</ele><time>2026-04-26T07:18:34.156Z</time></trkpt><trkpt lat="40.9302817" lon="14.1325333"><ele>81.0</ele><time>2026-04-26T07:18:35.157Z</time></trkpt><trkpt lat="40.9302833" lon="14.1324"><ele>81.0</ele><time>2026-04-26T07:18:36.158Z</time></trkpt><trkpt lat="40.930285" lon="14.13227"><ele>81.0</ele><time>2026-04-26T07:18:37.157Z</time></trkpt><trkpt lat="40.930285" lon="14.1321383"><ele>81.0</ele><time>2026-04-26T07:18:38.157Z</time></trkpt><trkpt lat="40.9302867" lon="14.1320033"><ele>81.0</ele><time>2026-04-26T07:18:39.156Z</time></trkpt><trkpt lat="40.9302883" lon="14.1318683"><ele>81.0</ele><time>2026-04-26T07:18:40.158Z</time></trkpt><trkpt lat="40.9303" lon="14.1317333"><ele>81.0</ele><time>2026-04-26T07:18:41.157Z</time></trkpt><trkpt lat="40.930315" lon="14.1316083"><ele>80.8</ele><time>2026-04-26T07:18:42.158Z</time></trkpt><trkpt lat="40.93033" lon="14.1314883"><ele>80.6</ele><time>2026-04-26T07:18:43.157Z</time></trkpt><trkpt lat="40.93035" lon="14.1313717"><ele>80.4</ele><time>2026-04-26T07:18:44.157Z</time></trkpt><trkpt lat="40.9303633" lon="14.1312617"><ele>80.2</ele><time>2026-04-26T07:18:45.157Z</time></trkpt><trkpt lat="40.9303667" lon="14.1311217"><ele>80.0</ele><time>2026-04-26T07:18:46.158Z</time></trkpt><trkpt lat="40.9303983" lon="14.1309933"><ele>80.0</ele><time>2026-04-26T07:18:47.159Z</time></trkpt><trkpt lat="40.9304217" lon="14.1308433"><ele>80.0</ele><time>2026-04-26T07:18:48.157Z</time></trkpt><trkpt lat="40.9304667" lon="14.1306967"><ele>80.0</ele><time>2026-04-26T07:18:49.157Z</time></trkpt><trkpt lat="40.9304933" lon="14.13056"><ele>80.0</ele><time>2026-04-26T07:18:50.157Z</time></trkpt><trkpt lat="40.930515" lon="14.1304233"><ele>80.0</ele><time>2026-04-26T07:18:51.157Z</time></trkpt><trkpt lat="40.9305283" lon="14.1302867"><ele>80.0</ele><time>2026-04-26T07:18:52.157Z</time></trkpt><trkpt lat="40.93054" lon="14.1301483"><ele>80.0</ele><time>2026-04-26T07:18:53.156Z</time></trkpt><trkpt lat="40.9305517" lon="14.1300033"><ele>80.0</ele><time>2026-04-26T07:18:54.157Z</time></trkpt><trkpt lat="40.9305617" lon="14.1298617"><ele>80.0</ele><time>2026-04-26T07:18:55.156Z</time></trkpt><trkpt lat="40.9305717" lon="14.1297217"><ele>80.0</ele><time>2026-04-26T07:18:56.157Z</time></trkpt><trkpt lat="40.9305817" lon="14.12958"><ele>80.0</ele><time>2026-04-26T07:18:57.156Z</time></trkpt><trkpt lat="40.9305917" lon="14.12944"><ele>80.0</ele><time>2026-04-26T07:18:58.156Z</time></trkpt><trkpt lat="40.9306033" lon="14.1293"><ele>80.0</ele><time>2026-04-26T07:18:59.157Z</time></trkpt><trkpt lat="40.93061" lon="14.1291633"><ele>80.0</ele><time>2026-04-26T07:19:00.157Z</time></trkpt><trkpt lat="40.9306167" lon="14.1290217"><ele>80.0</ele><time>2026-04-26T07:19:01.158Z</time></trkpt><trkpt lat="40.930625" lon="14.1288817"><ele>79.6</ele><time>2026-04-26T07:19:02.156Z</time></trkpt><trkpt lat="40.9306333" lon="14.1287433"><ele>79.2</ele><time>2026-04-26T07:19:03.157Z</time></trkpt><trkpt lat="40.930645" lon="14.128605"><ele>78.8</ele><time>2026-04-26T07:19:04.157Z</time></trkpt><trkpt lat="40.930655" lon="14.1284667"><ele>78.4</ele><time>2026-04-26T07:19:05.158Z</time></trkpt><trkpt lat="40.9306633" lon="14.12833"><ele>78.0</ele><time>2026-04-26T07:19:06.157Z</time></trkpt><trkpt lat="40.9306717" lon="14.1281917"><ele>78.0</ele><time>2026-04-26T07:19:07.156Z</time></trkpt><trkpt lat="40.93068" lon="14.1280483"><ele>78.0</ele><time>2026-04-26T07:19:08.156Z</time></trkpt><trkpt lat="40.930685" lon="14.127905"><ele>78.0</ele><time>2026-04-26T07:19:09.155Z</time></trkpt><trkpt lat="40.9306883" lon="14.1277567"><ele>78.0</ele><time>2026-04-26T07:19:10.157Z</time></trkpt><trkpt lat="40.9306917" lon="14.1276033"><ele>78.0</ele><time>2026-04-26T07:19:11.156Z</time></trkpt><trkpt lat="40.9306967" lon="14.1274517"><ele>78.2</ele><time>2026-04-26T07:19:12.156Z</time></trkpt><trkpt lat="40.9307017" lon="14.1273033"><ele>78.4</ele><time>2026-04-26T07:19:13.16Z</time></trkpt><trkpt lat="40.9307083" lon="14.1271617"><ele>78.60000000000001</ele><time>2026-04-26T07:19:14.156Z</time></trkpt><trkpt lat="40.930715" lon="14.1270217"><ele>78.8</ele><time>2026-04-26T07:19:15.156Z</time></trkpt><trkpt lat="40.93072" lon="14.1268783"><ele>79.0</ele><time>2026-04-26T07:19:16.156Z</time></trkpt><trkpt lat="40.9307217" lon="14.1267367"><ele>79.0</ele><time>2026-04-26T07:19:17.156Z</time></trkpt><trkpt lat="40.930725" lon="14.126595"><ele>79.0</ele><time>2026-04-26T07:19:18.157Z</time></trkpt><trkpt lat="40.9307267" lon="14.1264533"><ele>79.0</ele><time>2026-04-26T07:19:19.156Z</time></trkpt><trkpt lat="40.9307317" lon="14.1263117"><ele>79.0</ele><time>2026-04-26T07:19:20.156Z</time></trkpt><trkpt lat="40.9307367" lon="14.1261717"><ele>79.0</ele><time>2026-04-26T07:19:21.156Z</time></trkpt><trkpt lat="40.930745" lon="14.12603"><ele>78.4</ele><time>2026-04-26T07:19:22.157Z</time></trkpt><trkpt lat="40.93075" lon="14.1258883"><ele>77.80000000000001</ele><time>2026-04-26T07:19:23.156Z</time></trkpt><trkpt lat="40.930765" lon="14.1257417"><ele>77.19999999999999</ele><time>2026-04-26T07:19:24.156Z</time></trkpt><trkpt lat="40.9307733" lon="14.1255983"><ele>76.6</ele><time>2026-04-26T07:19:25.158Z</time></trkpt><trkpt lat="40.9307817" lon="14.1254583"><ele>76.0</ele><time>2026-04-26T07:19:26.158Z</time></trkpt><trkpt lat="40.9307833" lon="14.125315"><ele>75.6</ele><time>2026-04-26T07:19:27.156Z</time></trkpt><trkpt lat="40.9307817" lon="14.1251733"><ele>75.19999999999999</ele><time>2026-04-26T07:19:28.156Z</time></trkpt><trkpt lat="40.9307783" lon="14.1250283"><ele>74.80000000000001</ele><time>2026-04-26T07:19:29.156Z</time></trkpt><trkpt lat="40.9307767" lon="14.1248867"><ele>74.4</ele><time>2026-04-26T07:19:30.156Z</time></trkpt><trkpt lat="40.9307733" lon="14.1247433"><ele>74.0</ele><time>2026-04-26T07:19:31.157Z</time></trkpt><trkpt lat="40.9307633" lon="14.1246067"><ele>74.0</ele><time>2026-04-26T07:19:32.156Z</time></trkpt><trkpt lat="40.9307517" lon="14.1244767"><ele>74.0</ele><time>2026-04-26T07:19:33.156Z</time></trkpt><trkpt lat="40.9307433" lon="14.12434"><ele>74.0</ele><time>2026-04-26T07:19:34.156Z</time></trkpt><trkpt lat="40.9307383" lon="14.1242017"><ele>74.0</ele><time>2026-04-26T07:19:35.156Z</time></trkpt><trkpt lat="40.93073" lon="14.1240667"><ele>74.0</ele><time>2026-04-26T07:19:36.157Z</time></trkpt><trkpt lat="40.930725" lon="14.1239267"><ele>74.0</ele><time>2026-04-26T07:19:37.156Z</time></trkpt><trkpt lat="40.9307267" lon="14.123785"><ele>74.0</ele><time>2026-04-26T07:19:38.157Z</time></trkpt><trkpt lat="40.9307283" lon="14.12364"><ele>74.0</ele><time>2026-04-26T07:19:39.156Z</time></trkpt><trkpt lat="40.93073" lon="14.123495"><ele>74.0</ele><time>2026-04-26T07:19:40.156Z</time></trkpt><trkpt lat="40.930735" lon="14.12335"><ele>74.0</ele><time>2026-04-26T07:19:41.157Z</time></trkpt><trkpt lat="40.9307417" lon="14.1232033"><ele>74.0</ele><time>2026-04-26T07:19:42.156Z</time></trkpt><trkpt lat="40.93075" lon="14.1230583"><ele>74.0</ele><time>2026-04-26T07:19:43.157Z</time></trkpt><trkpt lat="40.93075" lon="14.122915"><ele>74.0</ele><time>2026-04-26T07:19:44.156Z</time></trkpt><trkpt lat="40.9307467" lon="14.122775"><ele>74.0</ele><time>2026-04-26T07:19:45.156Z</time></trkpt><trkpt lat="40.930745" lon="14.1226333"><ele>74.0</ele><time>2026-04-26T07:19:46.157Z</time></trkpt><trkpt lat="40.9307483" lon="14.122495"><ele>73.4</ele><time>2026-04-26T07:19:47.156Z</time></trkpt><trkpt lat="40.9307533" lon="14.122375"><ele>72.80000000000001</ele><time>2026-04-26T07:19:48.156Z</time></trkpt><trkpt lat="40.9307583" lon="14.1222383"><ele>72.19999999999999</ele><time>2026-04-26T07:19:49.156Z</time></trkpt><trkpt lat="40.9307583" lon="14.1220983"><ele>71.6</ele><time>2026-04-26T07:19:50.156Z</time></trkpt><trkpt lat="40.9307633" lon="14.1219533"><ele>71.0</ele><time>2026-04-26T07:19:51.156Z</time></trkpt><trkpt lat="40.930765" lon="14.12181"><ele>71.0</ele><time>2026-04-26T07:19:52.156Z</time></trkpt><trkpt lat="40.9307683" lon="14.1216683"><ele>71.0</ele><time>2026-04-26T07:19:53.156Z</time></trkpt><trkpt lat="40.93077" lon="14.1215267"><ele>71.0</ele><time>2026-04-26T07:19:54.157Z</time></trkpt><trkpt lat="40.93077" lon="14.1213883"><ele>71.0</ele><time>2026-04-26T07:19:55.157Z</time></trkpt><trkpt lat="40.9307683" lon="14.1212467"><ele>71.0</ele><time>2026-04-26T07:19:56.156Z</time></trkpt><trkpt lat="40.9307683" lon="14.121105"><ele>70.39999999999999</ele><time>2026-04-26T07:19:57.157Z</time></trkpt><trkpt lat="40.930765" lon="14.1209667"><ele>69.8</ele><time>2026-04-26T07:19:58.156Z</time></trkpt><trkpt lat="40.930765" lon="14.120825"><ele>69.19999999999999</ele><time>2026-04-26T07:19:59.157Z</time></trkpt><trkpt lat="40.9307683" lon="14.1206783"><ele>68.6</ele><time>2026-04-26T07:20:00.157Z</time></trkpt><trkpt lat="40.9307717" lon="14.1205367"><ele>68.0</ele><time>2026-04-26T07:20:01.156Z</time></trkpt><trkpt lat="40.9307733" lon="14.1203917"><ele>67.8</ele><time>2026-04-26T07:20:02.157Z</time></trkpt><trkpt lat="40.930775" lon="14.1202467"><ele>67.6</ele><time>2026-04-26T07:20:03.156Z</time></trkpt><trkpt lat="40.9307783" lon="14.120105"><ele>67.4</ele><time>2026-04-26T07:20:04.157Z</time></trkpt><trkpt lat="40.9307833" lon="14.1199667"><ele>67.2</ele><time>2026-04-26T07:20:05.156Z</time></trkpt><trkpt lat="40.9307883" lon="14.119825"><ele>67.0</ele><time>2026-04-26T07:20:06.156Z</time></trkpt><trkpt lat="40.9307933" lon="14.119685"><ele>67.0</ele><time>2026-04-26T07:20:07.157Z</time></trkpt><trkpt lat="40.9308017" lon="14.119545"><ele>67.0</ele><time>2026-04-26T07:20:08.156Z</time></trkpt><trkpt lat="40.9308067" lon="14.119405"><ele>67.0</ele><time>2026-04-26T07:20:09.157Z</time></trkpt><trkpt lat="40.9308133" lon="14.1192667"><ele>67.0</ele><time>2026-04-26T07:20:10.156Z</time></trkpt><trkpt lat="40.9308217" lon="14.1191283"><ele>67.0</ele><time>2026-04-26T07:20:11.157Z</time></trkpt><trkpt lat="40.93083" lon="14.11899"><ele>67.0</ele><time>2026-04-26T07:20:12.158Z</time></trkpt><trkpt lat="40.930845" lon="14.1188483"><ele>67.0</ele><time>2026-04-26T07:20:13.157Z</time></trkpt><trkpt lat="40.93086" lon="14.11871"><ele>67.0</ele><time>2026-04-26T07:20:14.158Z</time></trkpt><trkpt lat="40.9308783" lon="14.1185717"><ele>67.0</ele><time>2026-04-26T07:20:15.156Z</time></trkpt><trkpt lat="40.9308917" lon="14.1184283"><ele>67.0</ele><time>2026-04-26T07:20:16.156Z</time></trkpt><trkpt lat="40.930905" lon="14.1182883"><ele>66.8</ele><time>2026-04-26T07:20:17.157Z</time></trkpt><trkpt lat="40.9309233" lon="14.1181433"><ele>66.6</ele><time>2026-04-26T07:20:18.157Z</time></trkpt><trkpt lat="40.930935" lon="14.1179983"><ele>66.39999999999999</ele><time>2026-04-26T07:20:19.157Z</time></trkpt><trkpt lat="40.9309433" lon="14.117855"><ele>66.2</ele><time>2026-04-26T07:20:20.157Z</time></trkpt><trkpt lat="40.9309517" lon="14.1177083"><ele>66.0</ele><time>2026-04-26T07:20:21.157Z</time></trkpt><trkpt lat="40.9309583" lon="14.117565"><ele>66.0</ele><time>2026-04-26T07:20:22.156Z</time></trkpt><trkpt lat="40.9309633" lon="14.1174217"><ele>66.0</ele><time>2026-04-26T07:20:23.157Z</time></trkpt><trkpt lat="40.930965" lon="14.1172783"><ele>66.0</ele><time>2026-04-26T07:20:24.157Z</time></trkpt><trkpt lat="40.93097" lon="14.1171367"><ele>66.0</ele><time>2026-04-26T07:20:25.156Z</time></trkpt><trkpt lat="40.930975" lon="14.1169917"><ele>66.0</ele><time>2026-04-26T07:20:26.158Z</time></trkpt><trkpt lat="40.9309817" lon="14.1168467"><ele>66.0</ele><time>2026-04-26T07:20:27.157Z</time></trkpt><trkpt lat="40.9309883" lon="14.1167"><ele>66.0</ele><time>2026-04-26T07:20:28.157Z</time></trkpt><trkpt lat="40.9310033" lon="14.1165583"><ele>66.0</ele><time>2026-04-26T07:20:29.156Z</time></trkpt><trkpt lat="40.931015" lon="14.116415"><ele>66.0</ele><time>2026-04-26T07:20:30.156Z</time></trkpt><trkpt lat="40.931025" lon="14.116275"><ele>66.0</ele><time>2026-04-26T07:20:31.156Z</time></trkpt><trkpt lat="40.9310367" lon="14.116135"><ele>66.0</ele><time>2026-04-26T07:20:32.157Z</time></trkpt><trkpt lat="40.931045" lon="14.116"><ele>66.0</ele><time>2026-04-26T07:20:33.156Z</time></trkpt><trkpt lat="40.9310533" lon="14.115865"><ele>66.0</ele><time>2026-04-26T07:20:34.157Z</time></trkpt><trkpt lat="40.9310633" lon="14.115725"><ele>66.0</ele><time>2026-04-26T07:20:35.156Z</time></trkpt><trkpt lat="40.931075" lon="14.1155917"><ele>66.0</ele><time>2026-04-26T07:20:36.156Z</time></trkpt><trkpt lat="40.9310833" lon="14.1154533"><ele>65.8</ele><time>2026-04-26T07:20:37.158Z</time></trkpt><trkpt lat="40.9310967" lon="14.1153217"><ele>65.6</ele><time>2026-04-26T07:20:38.157Z</time></trkpt><trkpt lat="40.9311083" lon="14.1151917"><ele>65.4</ele><time>2026-04-26T07:20:39.157Z</time></trkpt><trkpt lat="40.9311217" lon="14.1150583"><ele>65.2</ele><time>2026-04-26T07:20:40.157Z</time></trkpt><trkpt lat="40.9311333" lon="14.114925"><ele>65.0</ele><time>2026-04-26T07:20:41.157Z</time></trkpt><trkpt lat="40.9311467" lon="14.1147883"><ele>64.8</ele><time>2026-04-26T07:20:42.156Z</time></trkpt><trkpt lat="40.9311633" lon="14.1146533"><ele>64.6</ele><time>2026-04-26T07:20:43.156Z</time></trkpt><trkpt lat="40.93118" lon="14.114515"><ele>64.4</ele><time>2026-04-26T07:20:44.156Z</time></trkpt><trkpt lat="40.9311917" lon="14.1143783"><ele>64.2</ele><time>2026-04-26T07:20:45.156Z</time></trkpt><trkpt lat="40.931205" lon="14.1142367"><ele>64.0</ele><time>2026-04-26T07:20:46.157Z</time></trkpt><trkpt lat="40.9312167" lon="14.1140933"><ele>64.0</ele><time>2026-04-26T07:20:47.156Z</time></trkpt><trkpt lat="40.93123" lon="14.11395"><ele>64.0</ele><time>2026-04-26T07:20:48.158Z</time></trkpt><trkpt lat="40.9312433" lon="14.113805"><ele>64.0</ele><time>2026-04-26T07:20:49.156Z</time></trkpt><trkpt lat="40.931255" lon="14.1136633"><ele>64.0</ele><time>2026-04-26T07:20:50.156Z</time></trkpt><trkpt lat="40.9312633" lon="14.1135217"><ele>64.0</ele><time>2026-04-26T07:20:51.156Z</time></trkpt><trkpt lat="40.931275" lon="14.113375"><ele>63.800000000000004</ele><time>2026-04-26T07:20:52.155Z</time></trkpt><trkpt lat="40.93129" lon="14.1132333"><ele>63.60000000000001</ele><time>2026-04-26T07:20:53.156Z</time></trkpt><trkpt lat="40.9313033" lon="14.1130917"><ele>63.4</ele><time>2026-04-26T07:20:54.156Z</time></trkpt><trkpt lat="40.931315" lon="14.112955"><ele>63.2</ele><time>2026-04-26T07:20:55.156Z</time></trkpt><trkpt lat="40.9313267" lon="14.11282"><ele>63.0</ele><time>2026-04-26T07:20:56.157Z</time></trkpt><trkpt lat="40.9313367" lon="14.112685"><ele>63.0</ele><time>2026-04-26T07:20:57.158Z</time></trkpt><trkpt lat="40.9313483" lon="14.1125483"><ele>63.0</ele><time>2026-04-26T07:20:58.157Z</time></trkpt><trkpt lat="40.93136" lon="14.1124117"><ele>63.0</ele><time>2026-04-26T07:20:59.157Z</time></trkpt><trkpt lat="40.9313717" lon="14.1122717"><ele>63.0</ele><time>2026-04-26T07:21:00.157Z</time></trkpt><trkpt lat="40.9313833" lon="14.1121367"><ele>63.0</ele><time>2026-04-26T07:21:01.156Z</time></trkpt><trkpt lat="40.931395" lon="14.1120033"><ele>63.0</ele><time>2026-04-26T07:21:02.156Z</time></trkpt><trkpt lat="40.9314017" lon="14.1118667"><ele>63.0</ele><time>2026-04-26T07:21:03.157Z</time></trkpt><trkpt lat="40.9314083" lon="14.1117317"><ele>63.0</ele><time>2026-04-26T07:21:04.156Z</time></trkpt><trkpt lat="40.9314183" lon="14.111595"><ele>63.0</ele><time>2026-04-26T07:21:05.156Z</time></trkpt><trkpt lat="40.9314217" lon="14.1114617"><ele>63.0</ele><time>2026-04-26T07:21:06.158Z</time></trkpt><trkpt lat="40.931425" lon="14.1113283"><ele>63.0</ele><time>2026-04-26T07:21:07.157Z</time></trkpt><trkpt lat="40.9314267" lon="14.1111933"><ele>63.0</ele><time>2026-04-26T07:21:08.157Z</time></trkpt><trkpt lat="40.93143" lon="14.1110583"><ele>63.0</ele><time>2026-04-26T07:21:09.157Z</time></trkpt><trkpt lat="40.9314317" lon="14.1109267"><ele>63.0</ele><time>2026-04-26T07:21:10.156Z</time></trkpt><trkpt lat="40.9314333" lon="14.1107983"><ele>63.0</ele><time>2026-04-26T07:21:11.156Z</time></trkpt><trkpt lat="40.9314367" lon="14.1106667"><ele>62.8</ele><time>2026-04-26T07:21:12.156Z</time></trkpt><trkpt lat="40.9314417" lon="14.11053"><ele>62.599999999999994</ele><time>2026-04-26T07:21:13.157Z</time></trkpt><trkpt lat="40.931445" lon="14.1103933"><ele>62.400000000000006</ele><time>2026-04-26T07:21:14.156Z</time></trkpt><trkpt lat="40.93145" lon="14.1102567"><ele>62.2</ele><time>2026-04-26T07:21:15.156Z</time></trkpt><trkpt lat="40.9314567" lon="14.11012"><ele>62.0</ele><time>2026-04-26T07:21:16.156Z</time></trkpt><trkpt lat="40.9314633" lon="14.1099817"><ele>61.8</ele><time>2026-04-26T07:21:17.157Z</time></trkpt><trkpt lat="40.93147" lon="14.109845"><ele>61.6</ele><time>2026-04-26T07:21:18.157Z</time></trkpt><trkpt lat="40.9314767" lon="14.1097083"><ele>61.39999999999999</ele><time>2026-04-26T07:21:19.157Z</time></trkpt><trkpt lat="40.93148" lon="14.1095733"><ele>61.199999999999996</ele><time>2026-04-26T07:21:20.157Z</time></trkpt><trkpt lat="40.931485" lon="14.109435"><ele>61.0</ele><time>2026-04-26T07:21:21.156Z</time></trkpt><trkpt lat="40.9314867" lon="14.1092967"><ele>61.0</ele><time>2026-04-26T07:21:22.157Z</time></trkpt><trkpt lat="40.9314867" lon="14.1091567"><ele>60.99999999999999</ele><time>2026-04-26T07:21:23.158Z</time></trkpt><trkpt lat="40.931485" lon="14.1090217"><ele>60.99999999999999</ele><time>2026-04-26T07:21:24.156Z</time></trkpt><trkpt lat="40.9314917" lon="14.1088917"><ele>61.0</ele><time>2026-04-26T07:21:25.157Z</time></trkpt><trkpt lat="40.9315" lon="14.1087583"><ele>61.0</ele><time>2026-04-26T07:21:26.156Z</time></trkpt><trkpt lat="40.9315067" lon="14.1086267"><ele>60.8</ele><time>2026-04-26T07:21:27.156Z</time></trkpt><trkpt lat="40.9315083" lon="14.1084967"><ele>60.599999999999994</ele><time>2026-04-26T07:21:28.156Z</time></trkpt><trkpt lat="40.9315133" lon="14.108365"><ele>60.4</ele><time>2026-04-26T07:21:29.158Z</time></trkpt><trkpt lat="40.9315167" lon="14.1082333"><ele>60.2</ele><time>2026-04-26T07:21:30.156Z</time></trkpt><trkpt lat="40.9315133" lon="14.1081"><ele>60.0</ele><time>2026-04-26T07:21:31.157Z</time></trkpt><trkpt lat="40.93151" lon="14.1079667"><ele>60.0</ele><time>2026-04-26T07:21:32.156Z</time></trkpt><trkpt lat="40.9315083" lon="14.1078283"><ele>60.0</ele><time>2026-04-26T07:21:33.156Z</time></trkpt><trkpt lat="40.9315117" lon="14.10769"><ele>60.0</ele><time>2026-04-26T07:21:34.158Z</time></trkpt><trkpt lat="40.9315167" lon="14.1075517"><ele>60.0</ele><time>2026-04-26T07:21:35.156Z</time></trkpt><trkpt lat="40.9315183" lon="14.1074133"><ele>60.0</ele><time>2026-04-26T07:21:36.156Z</time></trkpt><trkpt lat="40.931525" lon="14.1072783"><ele>60.2</ele><time>2026-04-26T07:21:37.156Z</time></trkpt><trkpt lat="40.9315333" lon="14.1071417"><ele>60.4</ele><time>2026-04-26T07:21:38.157Z</time></trkpt><trkpt lat="40.931545" lon="14.10701"><ele>60.599999999999994</ele><time>2026-04-26T07:21:39.156Z</time></trkpt><trkpt lat="40.9315533" lon="14.1068783"><ele>60.8</ele><time>2026-04-26T07:21:40.156Z</time></trkpt><trkpt lat="40.9315633" lon="14.1067467"><ele>61.0</ele><time>2026-04-26T07:21:41.156Z</time></trkpt><trkpt lat="40.9315683" lon="14.1066183"><ele>60.8</ele><time>2026-04-26T07:21:42.158Z</time></trkpt><trkpt lat="40.9315733" lon="14.1064883"><ele>60.599999999999994</ele><time>2026-04-26T07:21:43.156Z</time></trkpt><trkpt lat="40.9315817" lon="14.1063633"><ele>60.4</ele><time>2026-04-26T07:21:44.16Z</time></trkpt><trkpt lat="40.9315867" lon="14.1062367"><ele>60.2</ele><time>2026-04-26T07:21:45.156Z</time></trkpt><trkpt lat="40.931595" lon="14.106105"><ele>60.0</ele><time>2026-04-26T07:21:46.156Z</time></trkpt><trkpt lat="40.9316017" lon="14.1059733"><ele>60.0</ele><time>2026-04-26T07:21:47.157Z</time></trkpt><trkpt lat="40.9316067" lon="14.105845"><ele>60.0</ele><time>2026-04-26T07:21:48.156Z</time></trkpt><trkpt lat="40.9316133" lon="14.1057133"><ele>60.0</ele><time>2026-04-26T07:21:49.156Z</time></trkpt><trkpt lat="40.9316183" lon="14.10558"><ele>60.0</ele><time>2026-04-26T07:21:50.156Z</time></trkpt><trkpt lat="40.931625" lon="14.10545"><ele>60.0</ele><time>2026-04-26T07:21:51.157Z</time></trkpt><trkpt lat="40.9316317" lon="14.105315"><ele>59.6</ele><time>2026-04-26T07:21:52.158Z</time></trkpt><trkpt lat="40.9316383" lon="14.1051783"><ele>59.2</ele><time>2026-04-26T07:21:53.158Z</time></trkpt><trkpt lat="40.9316417" lon="14.10504"><ele>58.8</ele><time>2026-04-26T07:21:54.156Z</time></trkpt><trkpt lat="40.9316517" lon="14.1048917"><ele>58.4</ele><time>2026-04-26T07:21:55.159Z</time></trkpt><trkpt lat="40.9316633" lon="14.1047433"><ele>58.0</ele><time>2026-04-26T07:21:56.156Z</time></trkpt><trkpt lat="40.93167" lon="14.1045917"><ele>57.75</ele><time>2026-04-26T07:21:57.158Z</time></trkpt><trkpt lat="40.9316733" lon="14.104435"><ele>57.5</ele><time>2026-04-26T07:21:58.157Z</time></trkpt><trkpt lat="40.9316817" lon="14.1042733"><ele>57.25</ele><time>2026-04-26T07:21:59.157Z</time></trkpt><trkpt lat="40.9316867" lon="14.1041117"><ele>57.0</ele><time>2026-04-26T07:22:00.157Z</time></trkpt><trkpt lat="40.9316983" lon="14.1039417"><ele>56.25</ele><time>2026-04-26T07:22:01.158Z</time></trkpt><trkpt lat="40.9317133" lon="14.1037683"><ele>55.5</ele><time>2026-04-26T07:22:02.156Z</time></trkpt><trkpt lat="40.9317317" lon="14.1035917"><ele>54.75</ele><time>2026-04-26T07:22:03.156Z</time></trkpt><trkpt lat="40.9317467" lon="14.10341"><ele>54.0</ele><time>2026-04-26T07:22:04.156Z</time></trkpt><trkpt lat="40.9317567" lon="14.1032383"><ele>53.75</ele><time>2026-04-26T07:22:05.157Z</time></trkpt><trkpt lat="40.9317667" lon="14.1030667"><ele>53.5</ele><time>2026-04-26T07:22:06.158Z</time></trkpt><trkpt lat="40.93178" lon="14.1028983"><ele>53.25</ele><time>2026-04-26T07:22:07.157Z</time></trkpt><trkpt lat="40.931795" lon="14.102735"><ele>53.0</ele><time>2026-04-26T07:22:08.157Z</time></trkpt><trkpt lat="40.93181" lon="14.102575"><ele>53.0</ele><time>2026-04-26T07:22:09.158Z</time></trkpt><trkpt lat="40.931825" lon="14.10242"><ele>53.0</ele><time>2026-04-26T07:22:10.159Z</time></trkpt><trkpt lat="40.9318367" lon="14.10227"><ele>53.0</ele><time>2026-04-26T07:22:11.158Z</time></trkpt><trkpt lat="40.93185" lon="14.1021183"><ele>53.0</ele><time>2026-04-26T07:22:12.157Z</time></trkpt><trkpt lat="40.93186" lon="14.1019683"><ele>52.4</ele><time>2026-04-26T07:22:13.157Z</time></trkpt><trkpt lat="40.93187" lon="14.1018183"><ele>51.8</ele><time>2026-04-26T07:22:14.157Z</time></trkpt><trkpt lat="40.9318767" lon="14.1016717"><ele>51.2</ele><time>2026-04-26T07:22:15.156Z</time></trkpt><trkpt lat="40.931885" lon="14.1015283"><ele>50.6</ele><time>2026-04-26T07:22:16.156Z</time></trkpt><trkpt lat="40.931895" lon="14.1013817"><ele>50.0</ele><time>2026-04-26T07:22:17.156Z</time></trkpt><trkpt lat="40.931905" lon="14.1012383"><ele>49.8</ele><time>2026-04-26T07:22:18.158Z</time></trkpt><trkpt lat="40.931915" lon="14.1010967"><ele>49.6</ele><time>2026-04-26T07:22:19.156Z</time></trkpt><trkpt lat="40.931925" lon="14.1009583"><ele>49.400000000000006</ele><time>2026-04-26T07:22:20.157Z</time></trkpt><trkpt lat="40.93194" lon="14.100825"><ele>49.2</ele><time>2026-04-26T07:22:21.156Z</time></trkpt><trkpt lat="40.9319533" lon="14.1006917"><ele>49.0</ele><time>2026-04-26T07:22:22.158Z</time></trkpt><trkpt lat="40.9319617" lon="14.100555"><ele>49.0</ele><time>2026-04-26T07:22:23.156Z</time></trkpt><trkpt lat="40.93197" lon="14.10042"><ele>49.0</ele><time>2026-04-26T07:22:24.156Z</time></trkpt><trkpt lat="40.9319767" lon="14.1002867"><ele>49.0</ele><time>2026-04-26T07:22:25.156Z</time></trkpt><trkpt lat="40.9319767" lon="14.1001567"><ele>49.0</ele><time>2026-04-26T07:22:26.157Z</time></trkpt><trkpt lat="40.931975" lon="14.100025"><ele>49.0</ele><time>2026-04-26T07:22:27.156Z</time></trkpt><trkpt lat="40.93197" lon="14.0998917"><ele>49.0</ele><time>2026-04-26T07:22:28.156Z</time></trkpt><trkpt lat="40.9319667" lon="14.0997583"><ele>49.0</ele><time>2026-04-26T07:22:29.158Z</time></trkpt><trkpt lat="40.9319633" lon="14.0996283"><ele>49.0</ele><time>2026-04-26T07:22:30.157Z</time></trkpt><trkpt lat="40.93196" lon="14.0994967"><ele>49.0</ele><time>2026-04-26T07:22:31.156Z</time></trkpt><trkpt lat="40.9319567" lon="14.0993667"><ele>49.0</ele><time>2026-04-26T07:22:32.156Z</time></trkpt><trkpt lat="40.931955" lon="14.0992367"><ele>49.0</ele><time>2026-04-26T07:22:33.157Z</time></trkpt><trkpt lat="40.9319567" lon="14.0991033"><ele>49.0</ele><time>2026-04-26T07:22:34.157Z</time></trkpt><trkpt lat="40.9319583" lon="14.0989733"><ele>49.0</ele><time>2026-04-26T07:22:35.156Z</time></trkpt><trkpt lat="40.9319617" lon="14.0988433"><ele>49.0</ele><time>2026-04-26T07:22:36.157Z</time></trkpt><trkpt lat="40.9319683" lon="14.0987117"><ele>49.0</ele><time>2026-04-26T07:22:37.156Z</time></trkpt><trkpt lat="40.9319767" lon="14.0985783"><ele>49.0</ele><time>2026-04-26T07:22:38.155Z</time></trkpt><trkpt lat="40.9319867" lon="14.0984483"><ele>49.0</ele><time>2026-04-26T07:22:39.155Z</time></trkpt><trkpt lat="40.9319917" lon="14.0983167"><ele>49.0</ele><time>2026-04-26T07:22:40.155Z</time></trkpt><trkpt lat="40.9319967" lon="14.098185"><ele>49.0</ele><time>2026-04-26T07:22:41.156Z</time></trkpt><trkpt lat="40.932" lon="14.098055"><ele>49.0</ele><time>2026-04-26T07:22:42.156Z</time></trkpt><trkpt lat="40.9320033" lon="14.0979233"><ele>49.0</ele><time>2026-04-26T07:22:43.156Z</time></trkpt><trkpt lat="40.9320117" lon="14.0977883"><ele>49.0</ele><time>2026-04-26T07:22:44.155Z</time></trkpt><trkpt lat="40.9320167" lon="14.0976567"><ele>49.0</ele><time>2026-04-26T07:22:45.155Z</time></trkpt><trkpt lat="40.9320233" lon="14.097525"><ele>49.0</ele><time>2026-04-26T07:22:46.155Z</time></trkpt><trkpt lat="40.93203" lon="14.0973933"><ele>49.0</ele><time>2026-04-26T07:22:47.155Z</time></trkpt><trkpt lat="40.9320383" lon="14.09726"><ele>48.800000000000004</ele><time>2026-04-26T07:22:48.156Z</time></trkpt><trkpt lat="40.932045" lon="14.097135"><ele>48.6</ele><time>2026-04-26T07:22:49.156Z</time></trkpt><trkpt lat="40.9320533" lon="14.0970083"><ele>48.4</ele><time>2026-04-26T07:22:50.157Z</time></trkpt><trkpt lat="40.932055" lon="14.0968883"><ele>48.2</ele><time>2026-04-26T07:22:51.158Z</time></trkpt><trkpt lat="40.9320533" lon="14.0967617"><ele>48.0</ele><time>2026-04-26T07:22:52.155Z</time></trkpt><trkpt lat="40.93205" lon="14.0966317"><ele>48.2</ele><time>2026-04-26T07:22:53.157Z</time></trkpt><trkpt lat="40.93205" lon="14.0965033"><ele>48.4</ele><time>2026-04-26T07:22:54.155Z</time></trkpt><trkpt lat="40.932055" lon="14.0963733"><ele>48.6</ele><time>2026-04-26T07:22:55.155Z</time></trkpt><trkpt lat="40.9320583" lon="14.0962367"><ele>48.800000000000004</ele><time>2026-04-26T07:22:56.155Z</time></trkpt><trkpt lat="40.9320667" lon="14.0961017"><ele>49.0</ele><time>2026-04-26T07:22:57.156Z</time></trkpt><trkpt lat="40.9320733" lon="14.095965"><ele>49.0</ele><time>2026-04-26T07:22:58.156Z</time></trkpt><trkpt lat="40.9320833" lon="14.0958283"><ele>49.0</ele><time>2026-04-26T07:22:59.156Z</time></trkpt><trkpt lat="40.93209" lon="14.0956933"><ele>49.0</ele><time>2026-04-26T07:23:00.155Z</time></trkpt><trkpt lat="40.9321" lon="14.0955583"><ele>49.0</ele><time>2026-04-26T07:23:01.156Z</time></trkpt><trkpt lat="40.9321067" lon="14.095425"><ele>49.0</ele><time>2026-04-26T07:23:02.156Z</time></trkpt><trkpt lat="40.9321183" lon="14.09529"><ele>48.800000000000004</ele><time>2026-04-26T07:23:03.155Z</time></trkpt><trkpt lat="40.9321283" lon="14.0951517"><ele>48.6</ele><time>2026-04-26T07:23:04.155Z</time></trkpt><trkpt lat="40.9321333" lon="14.0950167"><ele>48.4</ele><time>2026-04-26T07:23:05.156Z</time></trkpt><trkpt lat="40.93214" lon="14.09488"><ele>48.2</ele><time>2026-04-26T07:23:06.157Z</time></trkpt><trkpt lat="40.9321467" lon="14.0947433"><ele>48.0</ele><time>2026-04-26T07:23:07.156Z</time></trkpt><trkpt lat="40.932155" lon="14.094605"><ele>47.8</ele><time>2026-04-26T07:23:08.156Z</time></trkpt><trkpt lat="40.9321617" lon="14.094465"><ele>47.599999999999994</ele><time>2026-04-26T07:23:09.156Z</time></trkpt><trkpt lat="40.93217" lon="14.0943267"><ele>47.400000000000006</ele><time>2026-04-26T07:23:10.156Z</time></trkpt><trkpt lat="40.9321767" lon="14.0941883"><ele>47.2</ele><time>2026-04-26T07:23:11.157Z</time></trkpt><trkpt lat="40.9321817" lon="14.09405"><ele>47.0</ele><time>2026-04-26T07:23:12.157Z</time></trkpt><trkpt lat="40.9321867" lon="14.093915"><ele>47.0</ele><time>2026-04-26T07:23:13.156Z</time></trkpt><trkpt lat="40.9321933" lon="14.09378"><ele>47.0</ele><time>2026-04-26T07:23:14.159Z</time></trkpt><trkpt lat="40.9322" lon="14.0936467"><ele>47.0</ele><time>2026-04-26T07:23:15.155Z</time></trkpt><trkpt lat="40.932205" lon="14.0935117"><ele>47.0</ele><time>2026-04-26T07:23:16.156Z</time></trkpt><trkpt lat="40.9322117" lon="14.0933767"><ele>47.0</ele><time>2026-04-26T07:23:17.156Z</time></trkpt><trkpt lat="40.93222" lon="14.0932417"><ele>47.2</ele><time>2026-04-26T07:23:18.159Z</time></trkpt><trkpt lat="40.9322267" lon="14.0931067"><ele>47.400000000000006</ele><time>2026-04-26T07:23:19.157Z</time></trkpt><trkpt lat="40.932235" lon="14.0929683"><ele>47.599999999999994</ele><time>2026-04-26T07:23:20.157Z</time></trkpt><trkpt lat="40.9322417" lon="14.0928317"><ele>47.8</ele><time>2026-04-26T07:23:21.155Z</time></trkpt><trkpt lat="40.9322483" lon="14.09269"><ele>48.0</ele><time>2026-04-26T07:23:22.157Z</time></trkpt><trkpt lat="40.93226" lon="14.0925517"><ele>47.8</ele><time>2026-04-26T07:23:23.156Z</time></trkpt><trkpt lat="40.9322667" lon="14.0924083"><ele>47.599999999999994</ele><time>2026-04-26T07:23:24.156Z</time></trkpt><trkpt lat="40.9322733" lon="14.0922683"><ele>47.400000000000006</ele><time>2026-04-26T07:23:25.156Z</time></trkpt><trkpt lat="40.9322833" lon="14.09213"><ele>47.2</ele><time>2026-04-26T07:23:26.156Z</time></trkpt><trkpt lat="40.9322917" lon="14.0919933"><ele>47.0</ele><time>2026-04-26T07:23:27.156Z</time></trkpt><trkpt lat="40.9323033" lon="14.0918533"><ele>47.0</ele><time>2026-04-26T07:23:28.156Z</time></trkpt><trkpt lat="40.9323133" lon="14.0917167"><ele>47.0</ele><time>2026-04-26T07:23:29.158Z</time></trkpt><trkpt lat="40.93232" lon="14.0915817"><ele>47.0</ele><time>2026-04-26T07:23:30.156Z</time></trkpt><trkpt lat="40.9323267" lon="14.0914467"><ele>47.0</ele><time>2026-04-26T07:23:31.155Z</time></trkpt><trkpt lat="40.9323317" lon="14.09131"><ele>47.0</ele><time>2026-04-26T07:23:32.156Z</time></trkpt><trkpt lat="40.93234" lon="14.0911717"><ele>46.8</ele><time>2026-04-26T07:23:33.157Z</time></trkpt><trkpt lat="40.93235" lon="14.0910317"><ele>46.6</ele><time>2026-04-26T07:23:34.157Z</time></trkpt><trkpt lat="40.93236" lon="14.090895"><ele>46.4</ele><time>2026-04-26T07:23:35.159Z</time></trkpt><trkpt lat="40.93237" lon="14.0907567"><ele>46.199999999999996</ele><time>2026-04-26T07:23:36.155Z</time></trkpt><trkpt lat="40.9323783" lon="14.09062"><ele>46.0</ele><time>2026-04-26T07:23:37.156Z</time></trkpt><trkpt lat="40.9323867" lon="14.0904833"><ele>46.0</ele><time>2026-04-26T07:23:38.156Z</time></trkpt><trkpt lat="40.932395" lon="14.09035"><ele>46.0</ele><time>2026-04-26T07:23:39.159Z</time></trkpt><trkpt lat="40.932405" lon="14.0902167"><ele>46.0</ele><time>2026-04-26T07:23:40.156Z</time></trkpt><trkpt lat="40.9324133" lon="14.0900833"><ele>46.0</ele><time>2026-04-26T07:23:41.156Z</time></trkpt><trkpt lat="40.9324233" lon="14.08995"><ele>46.0</ele><time>2026-04-26T07:23:42.158Z</time></trkpt><trkpt lat="40.9324283" lon="14.0898167"><ele>46.0</ele><time>2026-04-26T07:23:43.161Z</time></trkpt><trkpt lat="40.932435" lon="14.0896817"><ele>46.0</ele><time>2026-04-26T07:23:44.156Z</time></trkpt><trkpt lat="40.93244" lon="14.08955"><ele>46.0</ele><time>2026-04-26T07:23:45.157Z</time></trkpt><trkpt lat="40.932445" lon="14.0894183"><ele>46.0</ele><time>2026-04-26T07:23:46.156Z</time></trkpt><trkpt lat="40.93245" lon="14.0892867"><ele>46.0</ele><time>2026-04-26T07:23:47.155Z</time></trkpt><trkpt lat="40.9324533" lon="14.089155"><ele>46.199999999999996</ele><time>2026-04-26T07:23:48.157Z</time></trkpt><trkpt lat="40.9324567" lon="14.0890283"><ele>46.4</ele><time>2026-04-26T07:23:49.157Z</time></trkpt><trkpt lat="40.9324617" lon="14.0888967"><ele>46.6</ele><time>2026-04-26T07:23:50.156Z</time></trkpt><trkpt lat="40.9324667" lon="14.088765"><ele>46.8</ele><time>2026-04-26T07:23:51.156Z</time></trkpt><trkpt lat="40.93247" lon="14.0886333"><ele>47.0</ele><time>2026-04-26T07:23:52.155Z</time></trkpt><trkpt lat="40.9324733" lon="14.0885017"><ele>47.0</ele><time>2026-04-26T07:23:53.156Z</time></trkpt><trkpt lat="40.9324783" lon="14.08837"><ele>47.0</ele><time>2026-04-26T07:23:54.155Z</time></trkpt><trkpt lat="40.932485" lon="14.0882333"><ele>47.0</ele><time>2026-04-26T07:23:55.156Z</time></trkpt><trkpt lat="40.9324883" lon="14.0880967"><ele>47.0</ele><time>2026-04-26T07:23:56.156Z</time></trkpt><trkpt lat="40.9324933" lon="14.0879583"><ele>47.0</ele><time>2026-04-26T07:23:57.157Z</time></trkpt><trkpt lat="40.9324983" lon="14.08782"><ele>47.0</ele><time>2026-04-26T07:23:58.157Z</time></trkpt><trkpt lat="40.9325067" lon="14.0876833"><ele>47.0</ele><time>2026-04-26T07:23:59.157Z</time></trkpt><trkpt lat="40.9325117" lon="14.0875483"><ele>47.0</ele><time>2026-04-26T07:24:00.165Z</time></trkpt><trkpt lat="40.9325167" lon="14.0874133"><ele>47.0</ele><time>2026-04-26T07:24:01.156Z</time></trkpt><trkpt lat="40.93252" lon="14.0872767"><ele>47.0</ele><time>2026-04-26T07:24:02.156Z</time></trkpt><trkpt lat="40.9325283" lon="14.08714"><ele>46.6</ele><time>2026-04-26T07:24:03.156Z</time></trkpt><trkpt lat="40.932535" lon="14.0870017"><ele>46.2</ele><time>2026-04-26T07:24:04.156Z</time></trkpt><trkpt lat="40.9325383" lon="14.0868617"><ele>45.8</ele><time>2026-04-26T07:24:05.159Z</time></trkpt><trkpt lat="40.932545" lon="14.086725"><ele>45.4</ele><time>2026-04-26T07:24:06.155Z</time></trkpt><trkpt lat="40.9325533" lon="14.0865817"><ele>45.0</ele><time>2026-04-26T07:24:07.157Z</time></trkpt><trkpt lat="40.93256" lon="14.08644"><ele>45.0</ele><time>2026-04-26T07:24:08.157Z</time></trkpt><trkpt lat="40.9325633" lon="14.086305"><ele>45.0</ele><time>2026-04-26T07:24:09.157Z</time></trkpt><trkpt lat="40.9325717" lon="14.086165"><ele>45.0</ele><time>2026-04-26T07:24:10.157Z</time></trkpt><trkpt lat="40.9325783" lon="14.0860283"><ele>45.0</ele><time>2026-04-26T07:24:11.157Z</time></trkpt><trkpt lat="40.9325833" lon="14.085895"><ele>45.0</ele><time>2026-04-26T07:24:12.157Z</time></trkpt><trkpt lat="40.9325917" lon="14.085755"><ele>45.2</ele><time>2026-04-26T07:24:13.157Z</time></trkpt><trkpt lat="40.9325983" lon="14.0856217"><ele>45.4</ele><time>2026-04-26T07:24:14.157Z</time></trkpt><trkpt lat="40.9326067" lon="14.0854867"><ele>45.599999999999994</ele><time>2026-04-26T07:24:15.158Z</time></trkpt><trkpt lat="40.932615" lon="14.0853517"><ele>45.8</ele><time>2026-04-26T07:24:16.157Z</time></trkpt><trkpt lat="40.9326217" lon="14.0852183"><ele>46.0</ele><time>2026-04-26T07:24:17.158Z</time></trkpt><trkpt lat="40.9326283" lon="14.0850867"><ele>46.0</ele><time>2026-04-26T07:24:18.158Z</time></trkpt><trkpt lat="40.9326333" lon="14.084955"><ele>46.0</ele><time>2026-04-26T07:24:19.158Z</time></trkpt><trkpt lat="40.93264" lon="14.084825"><ele>46.0</ele><time>2026-04-26T07:24:20.158Z</time></trkpt><trkpt lat="40.93265" lon="14.0846933"><ele>46.0</ele><time>2026-04-26T07:24:21.157Z</time></trkpt><trkpt lat="40.9326583" lon="14.08456"><ele>46.0</ele><time>2026-04-26T07:24:22.158Z</time></trkpt><trkpt lat="40.932665" lon="14.0844283"><ele>46.0</ele><time>2026-04-26T07:24:23.158Z</time></trkpt><trkpt lat="40.9326717" lon="14.084295"><ele>46.0</ele><time>2026-04-26T07:24:24.158Z</time></trkpt><trkpt lat="40.9326767" lon="14.0841633"><ele>46.0</ele><time>2026-04-26T07:24:25.157Z</time></trkpt><trkpt lat="40.932685" lon="14.0840267"><ele>46.0</ele><time>2026-04-26T07:24:26.157Z</time></trkpt><trkpt lat="40.93269" lon="14.0838883"><ele>46.0</ele><time>2026-04-26T07:24:27.156Z</time></trkpt><trkpt lat="40.9326967" lon="14.0837483"><ele>46.0</ele><time>2026-04-26T07:24:28.158Z</time></trkpt><trkpt lat="40.9327017" lon="14.08361"><ele>46.0</ele><time>2026-04-26T07:24:29.157Z</time></trkpt><trkpt lat="40.932705" lon="14.0834717"><ele>46.0</ele><time>2026-04-26T07:24:30.161Z</time></trkpt><trkpt lat="40.932715" lon="14.0833333"><ele>46.0</ele><time>2026-04-26T07:24:31.158Z</time></trkpt><trkpt lat="40.932725" lon="14.0832017"><ele>46.0</ele><time>2026-04-26T07:24:32.158Z</time></trkpt><trkpt lat="40.9327367" lon="14.0830667"><ele>45.599999999999994</ele><time>2026-04-26T07:24:33.16Z</time></trkpt><trkpt lat="40.9327467" lon="14.0829283"><ele>45.2</ele><time>2026-04-26T07:24:34.16Z</time></trkpt><trkpt lat="40.93275" lon="14.08279"><ele>44.8</ele><time>2026-04-26T07:24:35.159Z</time></trkpt><trkpt lat="40.9327567" lon="14.0826533"><ele>44.400000000000006</ele><time>2026-04-26T07:24:36.161Z</time></trkpt><trkpt lat="40.9327633" lon="14.0825217"><ele>44.0</ele><time>2026-04-26T07:24:37.16Z</time></trkpt><trkpt lat="40.93277" lon="14.0823883"><ele>43.800000000000004</ele><time>2026-04-26T07:24:38.161Z</time></trkpt><trkpt lat="40.9327767" lon="14.0822567"><ele>43.6</ele><time>2026-04-26T07:24:39.16Z</time></trkpt><trkpt lat="40.932785" lon="14.082125"><ele>43.4</ele><time>2026-04-26T07:24:40.159Z</time></trkpt><trkpt lat="40.9327967" lon="14.0819967"><ele>43.2</ele><time>2026-04-26T07:24:41.161Z</time></trkpt><trkpt lat="40.9328083" lon="14.0818717"><ele>43.0</ele><time>2026-04-26T07:24:42.161Z</time></trkpt><trkpt lat="40.9328167" lon="14.0817467"><ele>43.0</ele><time>2026-04-26T07:24:43.161Z</time></trkpt><trkpt lat="40.9328233" lon="14.0816217"><ele>43.0</ele><time>2026-04-26T07:24:44.161Z</time></trkpt><trkpt lat="40.9328367" lon="14.08149"><ele>43.0</ele><time>2026-04-26T07:24:45.161Z</time></trkpt><trkpt lat="40.9328433" lon="14.08136"><ele>43.0</ele><time>2026-04-26T07:24:46.161Z</time></trkpt><trkpt lat="40.9328533" lon="14.0812317"><ele>43.0</ele><time>2026-04-26T07:24:47.158Z</time></trkpt><trkpt lat="40.932865" lon="14.081105"><ele>42.599999999999994</ele><time>2026-04-26T07:24:48.158Z</time></trkpt><trkpt lat="40.93288" lon="14.0809767"><ele>42.199999999999996</ele><time>2026-04-26T07:24:49.16Z</time></trkpt><trkpt lat="40.9328933" lon="14.0808517"><ele>41.8</ele><time>2026-04-26T07:24:50.159Z</time></trkpt><trkpt lat="40.932905" lon="14.0807267"><ele>41.4</ele><time>2026-04-26T07:24:51.159Z</time></trkpt><trkpt lat="40.9329183" lon="14.080605"><ele>41.0</ele><time>2026-04-26T07:24:52.158Z</time></trkpt><trkpt lat="40.9329317" lon="14.0804833"><ele>41.0</ele><time>2026-04-26T07:24:53.158Z</time></trkpt><trkpt lat="40.9329433" lon="14.08036"><ele>41.0</ele><time>2026-04-26T07:24:54.161Z</time></trkpt><trkpt lat="40.9329567" lon="14.0802317"><ele>41.0</ele><time>2026-04-26T07:24:55.161Z</time></trkpt><trkpt lat="40.9329683" lon="14.0801033"><ele>41.0</ele><time>2026-04-26T07:24:56.162Z</time></trkpt><trkpt lat="40.93298" lon="14.07998"><ele>41.0</ele><time>2026-04-26T07:24:57.161Z</time></trkpt><trkpt lat="40.9329933" lon="14.0798567"><ele>41.0</ele><time>2026-04-26T07:24:58.161Z</time></trkpt><trkpt lat="40.9330083" lon="14.0797283"><ele>41.0</ele><time>2026-04-26T07:24:59.162Z</time></trkpt><trkpt lat="40.9330233" lon="14.0796"><ele>41.0</ele><time>2026-04-26T07:25:00.161Z</time></trkpt><trkpt lat="40.933035" lon="14.07947"><ele>41.0</ele><time>2026-04-26T07:25:01.16Z</time></trkpt><trkpt lat="40.93305" lon="14.0793383"><ele>41.0</ele><time>2026-04-26T07:25:02.16Z</time></trkpt><trkpt lat="40.9330633" lon="14.0792117"><ele>40.8</ele><time>2026-04-26T07:25:03.162Z</time></trkpt><trkpt lat="40.9330783" lon="14.079085"><ele>40.599999999999994</ele><time>2026-04-26T07:25:04.162Z</time></trkpt><trkpt lat="40.9330933" lon="14.0789583"><ele>40.4</ele><time>2026-04-26T07:25:05.161Z</time></trkpt><trkpt lat="40.9331067" lon="14.07883"><ele>40.2</ele><time>2026-04-26T07:25:06.16Z</time></trkpt><trkpt lat="40.9331217" lon="14.078715"><ele>40.0</ele><time>2026-04-26T07:25:07.158Z</time></trkpt><trkpt lat="40.9331367" lon="14.0785967"><ele>40.0</ele><time>2026-04-26T07:25:08.159Z</time></trkpt><trkpt lat="40.9331467" lon="14.0784783"><ele>40.0</ele><time>2026-04-26T07:25:09.159Z</time></trkpt><trkpt lat="40.933155" lon="14.078365"><ele>40.0</ele><time>2026-04-26T07:25:10.162Z</time></trkpt><trkpt lat="40.9331667" lon="14.0782483"><ele>40.0</ele><time>2026-04-26T07:25:11.161Z</time></trkpt><trkpt lat="40.933175" lon="14.0781317"><ele>40.0</ele><time>2026-04-26T07:25:12.16Z</time></trkpt><trkpt lat="40.9331833" lon="14.078015"><ele>40.0</ele><time>2026-04-26T07:25:13.161Z</time></trkpt><trkpt lat="40.93319" lon="14.077905"><ele>40.0</ele><time>2026-04-26T07:25:14.162Z</time></trkpt><trkpt lat="40.9332" lon="14.0777917"><ele>40.0</ele><time>2026-04-26T07:25:15.161Z</time></trkpt><trkpt lat="40.93321" lon="14.0776717"><ele>40.0</ele><time>2026-04-26T07:25:16.16Z</time></trkpt><trkpt lat="40.9332183" lon="14.0775567"><ele>40.0</ele><time>2026-04-26T07:25:17.16Z</time></trkpt><trkpt lat="40.93323" lon="14.07744"><ele>40.0</ele><time>2026-04-26T07:25:18.16Z</time></trkpt><trkpt lat="40.93324" lon="14.0773233"><ele>40.0</ele><time>2026-04-26T07:25:19.16Z</time></trkpt><trkpt lat="40.93325" lon="14.0772117"><ele>40.0</ele><time>2026-04-26T07:25:20.159Z</time></trkpt><trkpt lat="40.933265" lon="14.0770967"><ele>40.0</ele><time>2026-04-26T07:25:21.16Z</time></trkpt><trkpt lat="40.9332833" lon="14.0769833"><ele>40.0</ele><time>2026-04-26T07:25:22.161Z</time></trkpt><trkpt lat="40.9333017" lon="14.0768683"><ele>40.0</ele><time>2026-04-26T07:25:23.159Z</time></trkpt><trkpt lat="40.9333217" lon="14.076755"><ele>40.0</ele><time>2026-04-26T07:25:24.162Z</time></trkpt><trkpt lat="40.933335" lon="14.076645"><ele>40.0</ele><time>2026-04-26T07:25:25.161Z</time></trkpt><trkpt lat="40.93335" lon="14.0765367"><ele>40.0</ele><time>2026-04-26T07:25:26.162Z</time></trkpt><trkpt lat="40.933365" lon="14.0764283"><ele>40.0</ele><time>2026-04-26T07:25:27.162Z</time></trkpt><trkpt lat="40.9333783" lon="14.0763167"><ele>40.0</ele><time>2026-04-26T07:25:28.16Z</time></trkpt><trkpt lat="40.9333933" lon="14.0762033"><ele>40.0</ele><time>2026-04-26T07:25:29.161Z</time></trkpt><trkpt lat="40.9334033" lon="14.0760883"><ele>40.0</ele><time>2026-04-26T07:25:30.161Z</time></trkpt><trkpt lat="40.9334117" lon="14.0759767"><ele>40.0</ele><time>2026-04-26T07:25:31.161Z</time></trkpt><trkpt lat="40.9334183" lon="14.075865"><ele>39.5</ele><time>2026-04-26T07:25:32.161Z</time></trkpt><trkpt lat="40.9334233" lon="14.0757533"><ele>39.0</ele><time>2026-04-26T07:25:33.162Z</time></trkpt><trkpt lat="40.933425" lon="14.0756417"><ele>38.5</ele><time>2026-04-26T07:25:34.16Z</time></trkpt><trkpt lat="40.9334267" lon="14.0755283"><ele>38.0</ele><time>2026-04-26T07:25:35.161Z</time></trkpt><trkpt lat="40.93343" lon="14.075415"><ele>37.5</ele><time>2026-04-26T07:25:36.162Z</time></trkpt><trkpt lat="40.9334367" lon="14.0752967"><ele>37.0</ele><time>2026-04-26T07:25:37.161Z</time></trkpt><trkpt lat="40.9334417" lon="14.0751783"><ele>37.0</ele><time>2026-04-26T07:25:38.162Z</time></trkpt><trkpt lat="40.9334433" lon="14.0750617"><ele>37.0</ele><time>2026-04-26T07:25:39.162Z</time></trkpt><trkpt lat="40.9334467" lon="14.0749467"><ele>37.0</ele><time>2026-04-26T07:25:40.161Z</time></trkpt><trkpt lat="40.9334517" lon="14.074835"><ele>37.0</ele><time>2026-04-26T07:25:41.162Z</time></trkpt><trkpt lat="40.9334533" lon="14.0747217"><ele>37.0</ele><time>2026-04-26T07:25:42.161Z</time></trkpt><trkpt lat="40.9334567" lon="14.0746067"><ele>37.0</ele><time>2026-04-26T07:25:43.161Z</time></trkpt><trkpt lat="40.93346" lon="14.0744917"><ele>37.0</ele><time>2026-04-26T07:25:44.162Z</time></trkpt><trkpt lat="40.93346" lon="14.074375"><ele>37.0</ele><time>2026-04-26T07:25:45.161Z</time></trkpt><trkpt lat="40.93346" lon="14.0742583"><ele>37.0</ele><time>2026-04-26T07:25:46.16Z</time></trkpt><trkpt lat="40.933465" lon="14.0741417"><ele>37.0</ele><time>2026-04-26T07:25:47.161Z</time></trkpt><trkpt lat="40.93347" lon="14.074025"><ele>37.0</ele><time>2026-04-26T07:25:48.161Z</time></trkpt><trkpt lat="40.933475" lon="14.073905"><ele>37.0</ele><time>2026-04-26T07:25:49.158Z</time></trkpt><trkpt lat="40.93348" lon="14.0737833"><ele>36.66666666666667</ele><time>2026-04-26T07:25:50.161Z</time></trkpt><trkpt lat="40.9334833" lon="14.073665"><ele>36.333333333333336</ele><time>2026-04-26T07:25:51.162Z</time></trkpt><trkpt lat="40.9334833" lon="14.07355"><ele>36.0</ele><time>2026-04-26T07:25:52.162Z</time></trkpt><trkpt lat="40.933485" lon="14.07343"><ele>35.666666666666664</ele><time>2026-04-26T07:25:53.161Z</time></trkpt><trkpt lat="40.9334883" lon="14.0733183"><ele>35.33333333333333</ele><time>2026-04-26T07:25:54.161Z</time></trkpt><trkpt lat="40.9334867" lon="14.073205"><ele>35.0</ele><time>2026-04-26T07:25:55.161Z</time></trkpt><trkpt lat="40.93349" lon="14.0730883"><ele>35.0</ele><time>2026-04-26T07:25:56.162Z</time></trkpt><trkpt lat="40.9334933" lon="14.072975"><ele>35.0</ele><time>2026-04-26T07:25:57.161Z</time></trkpt><trkpt lat="40.9334967" lon="14.07286"><ele>35.0</ele><time>2026-04-26T07:25:58.161Z</time></trkpt><trkpt lat="40.9335" lon="14.0727417"><ele>35.0</ele><time>2026-04-26T07:25:59.161Z</time></trkpt><trkpt lat="40.9335017" lon="14.0726283"><ele>35.0</ele><time>2026-04-26T07:26:00.162Z</time></trkpt><trkpt lat="40.9335033" lon="14.0725167"><ele>35.0</ele><time>2026-04-26T07:26:01.162Z</time></trkpt><trkpt lat="40.933505" lon="14.0724"><ele>35.0</ele><time>2026-04-26T07:26:02.161Z</time></trkpt><trkpt lat="40.9335083" lon="14.0722817"><ele>35.0</ele><time>2026-04-26T07:26:03.161Z</time></trkpt><trkpt lat="40.9335083" lon="14.0721683"><ele>35.0</ele><time>2026-04-26T07:26:04.162Z</time></trkpt><trkpt lat="40.93351" lon="14.0720533"><ele>35.0</ele><time>2026-04-26T07:26:05.16Z</time></trkpt><trkpt lat="40.93351" lon="14.0719433"><ele>35.0</ele><time>2026-04-26T07:26:06.162Z</time></trkpt><trkpt lat="40.9335133" lon="14.0718267"><ele>35.0</ele><time>2026-04-26T07:26:07.161Z</time></trkpt><trkpt lat="40.933515" lon="14.0717083"><ele>35.0</ele><time>2026-04-26T07:26:08.159Z</time></trkpt><trkpt lat="40.933515" lon="14.0715917"><ele>35.0</ele><time>2026-04-26T07:26:09.163Z</time></trkpt><trkpt lat="40.9335133" lon="14.071475"><ele>35.0</ele><time>2026-04-26T07:26:10.162Z</time></trkpt><trkpt lat="40.9335133" lon="14.0713567"><ele>35.0</ele><time>2026-04-26T07:26:11.163Z</time></trkpt><trkpt lat="40.9335133" lon="14.0712433"><ele>35.0</ele><time>2026-04-26T07:26:12.161Z</time></trkpt><trkpt lat="40.9335133" lon="14.071125"><ele>35.0</ele><time>2026-04-26T07:26:13.161Z</time></trkpt><trkpt lat="40.9335117" lon="14.07101"><ele>35.0</ele><time>2026-04-26T07:26:14.161Z</time></trkpt><trkpt lat="40.9335083" lon="14.0708883"><ele>35.0</ele><time>2026-04-26T07:26:15.161Z</time></trkpt><trkpt lat="40.9335083" lon="14.0707633"><ele>35.0</ele><time>2026-04-26T07:26:16.161Z</time></trkpt><trkpt lat="40.9335067" lon="14.0706417"><ele>35.0</ele><time>2026-04-26T07:26:17.162Z</time></trkpt><trkpt lat="40.9335083" lon="14.0705183"><ele>35.0</ele><time>2026-04-26T07:26:18.161Z</time></trkpt><trkpt lat="40.9335117" lon="14.0703967"><ele>35.0</ele><time>2026-04-26T07:26:19.162Z</time></trkpt><trkpt lat="40.9335133" lon="14.070275"><ele>35.0</ele><time>2026-04-26T07:26:20.162Z</time></trkpt><trkpt lat="40.933515" lon="14.0701533"><ele>35.0</ele><time>2026-04-26T07:26:21.162Z</time></trkpt><trkpt lat="40.9335183" lon="14.0700317"><ele>35.0</ele><time>2026-04-26T07:26:22.161Z</time></trkpt><trkpt lat="40.9335217" lon="14.0699117"><ele>35.0</ele><time>2026-04-26T07:26:23.161Z</time></trkpt><trkpt lat="40.933525" lon="14.06979"><ele>35.0</ele><time>2026-04-26T07:26:24.162Z</time></trkpt><trkpt lat="40.93353" lon="14.0696683"><ele>35.0</ele><time>2026-04-26T07:26:25.161Z</time></trkpt><trkpt lat="40.9335333" lon="14.0695467"><ele>35.0</ele><time>2026-04-26T07:26:26.162Z</time></trkpt><trkpt lat="40.933535" lon="14.069425"><ele>35.0</ele><time>2026-04-26T07:26:27.161Z</time></trkpt><trkpt lat="40.933535" lon="14.0693033"><ele>35.0</ele><time>2026-04-26T07:26:28.162Z</time></trkpt><trkpt lat="40.9335383" lon="14.0691783"><ele>34.8</ele><time>2026-04-26T07:26:29.161Z</time></trkpt><trkpt lat="40.9335383" lon="14.069055"><ele>34.6</ele><time>2026-04-26T07:26:30.161Z</time></trkpt><trkpt lat="40.9335417" lon="14.0689317"><ele>34.4</ele><time>2026-04-26T07:26:31.161Z</time></trkpt><trkpt lat="40.933545" lon="14.0688083"><ele>34.2</ele><time>2026-04-26T07:26:32.162Z</time></trkpt><trkpt lat="40.9335483" lon="14.0686883"><ele>34.0</ele><time>2026-04-26T07:26:33.16Z</time></trkpt><trkpt lat="40.933555" lon="14.0685633"><ele>34.0</ele><time>2026-04-26T07:26:34.16Z</time></trkpt><trkpt lat="40.9335583" lon="14.0684383"><ele>34.0</ele><time>2026-04-26T07:26:35.162Z</time></trkpt><trkpt lat="40.9335617" lon="14.068315"><ele>34.0</ele><time>2026-04-26T07:26:36.161Z</time></trkpt><trkpt lat="40.9335667" lon="14.0681933"><ele>34.0</ele><time>2026-04-26T07:26:37.161Z</time></trkpt><trkpt lat="40.9335717" lon="14.0680683"><ele>34.0</ele><time>2026-04-26T07:26:38.161Z</time></trkpt><trkpt lat="40.93358" lon="14.06794"><ele>34.2</ele><time>2026-04-26T07:26:39.161Z</time></trkpt><trkpt lat="40.9335867" lon="14.06781"><ele>34.4</ele><time>2026-04-26T07:26:40.162Z</time></trkpt><trkpt lat="40.933585" lon="14.0676817"><ele>34.6</ele><time>2026-04-26T07:26:41.161Z</time></trkpt><trkpt lat="40.9335833" lon="14.06755"><ele>34.8</ele><time>2026-04-26T07:26:42.162Z</time></trkpt><trkpt lat="40.9335783" lon="14.067425"><ele>35.0</ele><time>2026-04-26T07:26:43.162Z</time></trkpt><trkpt lat="40.9335717" lon="14.0673017"><ele>35.0</ele><time>2026-04-26T07:26:44.162Z</time></trkpt><trkpt lat="40.9335667" lon="14.0671783"><ele>35.0</ele><time>2026-04-26T07:26:45.162Z</time></trkpt><trkpt lat="40.93356" lon="14.0670533"><ele>35.0</ele><time>2026-04-26T07:26:46.162Z</time></trkpt><trkpt lat="40.9335567" lon="14.0669267"><ele>35.0</ele><time>2026-04-26T07:26:47.162Z</time></trkpt><trkpt lat="40.9335517" lon="14.0667983"><ele>35.0</ele><time>2026-04-26T07:26:48.162Z</time></trkpt><trkpt lat="40.9335517" lon="14.0666717"><ele>34.6</ele><time>2026-04-26T07:26:49.161Z</time></trkpt><trkpt lat="40.9335567" lon="14.066545"><ele>34.2</ele><time>2026-04-26T07:26:50.161Z</time></trkpt><trkpt lat="40.93356" lon="14.0664183"><ele>33.8</ele><time>2026-04-26T07:26:51.162Z</time></trkpt><trkpt lat="40.933565" lon="14.0662933"><ele>33.4</ele><time>2026-04-26T07:26:52.162Z</time></trkpt><trkpt lat="40.93357" lon="14.0661683"><ele>33.0</ele><time>2026-04-26T07:26:53.161Z</time></trkpt><trkpt lat="40.933575" lon="14.0660433"><ele>33.0</ele><time>2026-04-26T07:26:54.16Z</time></trkpt><trkpt lat="40.93358" lon="14.0659183"><ele>33.0</ele><time>2026-04-26T07:26:55.16Z</time></trkpt><trkpt lat="40.9335867" lon="14.0657917"><ele>33.0</ele><time>2026-04-26T07:26:56.161Z</time></trkpt><trkpt lat="40.9335933" lon="14.0656667"><ele>33.0</ele><time>2026-04-26T07:26:57.162Z</time></trkpt><trkpt lat="40.9336" lon="14.0655433"><ele>33.0</ele><time>2026-04-26T07:26:58.161Z</time></trkpt><trkpt lat="40.9336067" lon="14.0654167"><ele>33.0</ele><time>2026-04-26T07:26:59.162Z</time></trkpt><trkpt lat="40.9336133" lon="14.0652933"><ele>33.0</ele><time>2026-04-26T07:27:00.161Z</time></trkpt><trkpt lat="40.9336183" lon="14.0651717"><ele>33.0</ele><time>2026-04-26T07:27:01.162Z</time></trkpt><trkpt lat="40.9336233" lon="14.0650467"><ele>33.0</ele><time>2026-04-26T07:27:02.161Z</time></trkpt><trkpt lat="40.93363" lon="14.0649283"><ele>33.0</ele><time>2026-04-26T07:27:03.162Z</time></trkpt><trkpt lat="40.9336367" lon="14.0648083"><ele>33.0</ele><time>2026-04-26T07:27:04.162Z</time></trkpt><trkpt lat="40.9336433" lon="14.064685"><ele>33.0</ele><time>2026-04-26T07:27:05.16Z</time></trkpt><trkpt lat="40.93365" lon="14.06456"><ele>33.0</ele><time>2026-04-26T07:27:06.162Z</time></trkpt><trkpt lat="40.933655" lon="14.0644383"><ele>33.0</ele><time>2026-04-26T07:27:07.162Z</time></trkpt><trkpt lat="40.933665" lon="14.064315"><ele>33.0</ele><time>2026-04-26T07:27:08.161Z</time></trkpt><trkpt lat="40.9336733" lon="14.0641933"><ele>33.0</ele><time>2026-04-26T07:27:09.162Z</time></trkpt><trkpt lat="40.9336833" lon="14.064065"><ele>33.0</ele><time>2026-04-26T07:27:10.162Z</time></trkpt><trkpt lat="40.9336917" lon="14.0639333"><ele>33.0</ele><time>2026-04-26T07:27:11.16Z</time></trkpt><trkpt lat="40.9337" lon="14.0638083"><ele>33.0</ele><time>2026-04-26T07:27:12.162Z</time></trkpt><trkpt lat="40.9337117" lon="14.0636717"><ele>33.0</ele><time>2026-04-26T07:27:13.16Z</time></trkpt><trkpt lat="40.9337267" lon="14.0635367"><ele>33.0</ele><time>2026-04-26T07:27:14.161Z</time></trkpt><trkpt lat="40.9337383" lon="14.063405"><ele>33.0</ele><time>2026-04-26T07:27:15.161Z</time></trkpt><trkpt lat="40.9337483" lon="14.063275"><ele>33.0</ele><time>2026-04-26T07:27:16.162Z</time></trkpt><trkpt lat="40.9337567" lon="14.0631483"><ele>33.0</ele><time>2026-04-26T07:27:17.162Z</time></trkpt><trkpt lat="40.933765" lon="14.0630217"><ele>33.0</ele><time>2026-04-26T07:27:18.159Z</time></trkpt><trkpt lat="40.9337733" lon="14.0628917"><ele>32.8</ele><time>2026-04-26T07:27:19.159Z</time></trkpt><trkpt lat="40.9337867" lon="14.062765"><ele>32.599999999999994</ele><time>2026-04-26T07:27:20.16Z</time></trkpt><trkpt lat="40.9338017" lon="14.06264"><ele>32.400000000000006</ele><time>2026-04-26T07:27:21.159Z</time></trkpt><trkpt lat="40.9338133" lon="14.0625117"><ele>32.2</ele><time>2026-04-26T07:27:22.159Z</time></trkpt><trkpt lat="40.9338267" lon="14.0623817"><ele>32.0</ele><time>2026-04-26T07:27:23.16Z</time></trkpt><trkpt lat="40.93384" lon="14.0622533"><ele>31.8</ele><time>2026-04-26T07:27:24.159Z</time></trkpt><trkpt lat="40.9338533" lon="14.062125"><ele>31.6</ele><time>2026-04-26T07:27:25.159Z</time></trkpt><trkpt lat="40.9338633" lon="14.062"><ele>31.400000000000002</ele><time>2026-04-26T07:27:26.159Z</time></trkpt><trkpt lat="40.9338767" lon="14.0618717"><ele>31.200000000000003</ele><time>2026-04-26T07:27:27.16Z</time></trkpt><trkpt lat="40.9338867" lon="14.06174"><ele>31.0</ele><time>2026-04-26T07:27:28.159Z</time></trkpt><trkpt lat="40.9338983" lon="14.061615"><ele>30.8</ele><time>2026-04-26T07:27:29.163Z</time></trkpt><trkpt lat="40.93391" lon="14.0614833"><ele>30.6</ele><time>2026-04-26T07:27:30.157Z</time></trkpt><trkpt lat="40.9339233" lon="14.0613517"><ele>30.4</ele><time>2026-04-26T07:27:31.159Z</time></trkpt><trkpt lat="40.9339367" lon="14.0612183"><ele>30.2</ele><time>2026-04-26T07:27:32.161Z</time></trkpt><trkpt lat="40.93395" lon="14.0610933"><ele>30.0</ele><time>2026-04-26T07:27:33.16Z</time></trkpt><trkpt lat="40.9339583" lon="14.0609717"><ele>30.0</ele><time>2026-04-26T07:27:34.161Z</time></trkpt><trkpt lat="40.9339683" lon="14.06085"><ele>30.0</ele><time>2026-04-26T07:27:35.161Z</time></trkpt><trkpt lat="40.9339833" lon="14.060725"><ele>30.0</ele><time>2026-04-26T07:27:36.16Z</time></trkpt><trkpt lat="40.9339967" lon="14.06061"><ele>30.0</ele><time>2026-04-26T07:27:37.161Z</time></trkpt><trkpt lat="40.9340083" lon="14.0604933"><ele>30.0</ele><time>2026-04-26T07:27:38.162Z</time></trkpt><trkpt lat="40.934015" lon="14.0603817"><ele>30.0</ele><time>2026-04-26T07:27:39.162Z</time></trkpt><trkpt lat="40.9340217" lon="14.0602683"><ele>30.0</ele><time>2026-04-26T07:27:40.158Z</time></trkpt><trkpt lat="40.9340283" lon="14.0601583"><ele>30.0</ele><time>2026-04-26T07:27:41.161Z</time></trkpt><trkpt lat="40.93404" lon="14.0600433"><ele>30.0</ele><time>2026-04-26T07:27:42.161Z</time></trkpt><trkpt lat="40.9340533" lon="14.05993"><ele>30.0</ele><time>2026-04-26T07:27:43.161Z</time></trkpt><trkpt lat="40.9340633" lon="14.0598117"><ele>30.0</ele><time>2026-04-26T07:27:44.162Z</time></trkpt><trkpt lat="40.9340683" lon="14.0596967"><ele>30.0</ele><time>2026-04-26T07:27:45.161Z</time></trkpt><trkpt lat="40.934075" lon="14.0595817"><ele>30.166666666666668</ele><time>2026-04-26T07:27:46.16Z</time></trkpt><trkpt lat="40.93408" lon="14.059465"><ele>30.333333333333336</ele><time>2026-04-26T07:27:47.161Z</time></trkpt><trkpt lat="40.934085" lon="14.0593467"><ele>30.5</ele><time>2026-04-26T07:27:48.16Z</time></trkpt><trkpt lat="40.9340883" lon="14.0592267"><ele>30.666666666666668</ele><time>2026-04-26T07:27:49.16Z</time></trkpt><trkpt lat="40.9340933" lon="14.0591067"><ele>30.833333333333336</ele><time>2026-04-26T07:27:50.158Z</time></trkpt><trkpt lat="40.9340967" lon="14.0589883"><ele>31.0</ele><time>2026-04-26T07:27:51.161Z</time></trkpt><trkpt lat="40.9341033" lon="14.0588683"><ele>31.0</ele><time>2026-04-26T07:27:52.159Z</time></trkpt><trkpt lat="40.9341133" lon="14.0587467"><ele>31.0</ele><time>2026-04-26T07:27:53.16Z</time></trkpt><trkpt lat="40.9341233" lon="14.0586267"><ele>31.0</ele><time>2026-04-26T07:27:54.16Z</time></trkpt><trkpt lat="40.9341367" lon="14.058505"><ele>31.0</ele><time>2026-04-26T07:27:55.159Z</time></trkpt><trkpt lat="40.93415" lon="14.0583817"><ele>31.0</ele><time>2026-04-26T07:27:56.16Z</time></trkpt><trkpt lat="40.93416" lon="14.0582583"><ele>31.0</ele><time>2026-04-26T07:27:57.161Z</time></trkpt><trkpt lat="40.9341733" lon="14.0581367"><ele>31.0</ele><time>2026-04-26T07:27:58.159Z</time></trkpt><trkpt lat="40.934185" lon="14.05801"><ele>31.0</ele><time>2026-04-26T07:27:59.158Z</time></trkpt><trkpt lat="40.9342" lon="14.057885"><ele>31.0</ele><time>2026-04-26T07:28:00.162Z</time></trkpt><trkpt lat="40.9342117" lon="14.0577567"><ele>31.0</ele><time>2026-04-26T07:28:01.159Z</time></trkpt><trkpt lat="40.934225" lon="14.0576267"><ele>30.4</ele><time>2026-04-26T07:28:02.16Z</time></trkpt><trkpt lat="40.93424" lon="14.0574967"><ele>29.8</ele><time>2026-04-26T07:28:03.16Z</time></trkpt><trkpt lat="40.9342533" lon="14.0573667"><ele>29.199999999999996</ele><time>2026-04-26T07:28:04.159Z</time></trkpt><trkpt lat="40.9342683" lon="14.0572367"><ele>28.599999999999998</ele><time>2026-04-26T07:28:05.161Z</time></trkpt><trkpt lat="40.9342867" lon="14.05711"><ele>28.0</ele><time>2026-04-26T07:28:06.16Z</time></trkpt><trkpt lat="40.9343" lon="14.056985"><ele>28.0</ele><time>2026-04-26T07:28:07.16Z</time></trkpt><trkpt lat="40.9343167" lon="14.0568583"><ele>27.999999999999996</ele><time>2026-04-26T07:28:08.161Z</time></trkpt><trkpt lat="40.934335" lon="14.0567317"><ele>27.999999999999996</ele><time>2026-04-26T07:28:09.16Z</time></trkpt><trkpt lat="40.9343517" lon="14.0566017"><ele>28.0</ele><time>2026-04-26T07:28:10.158Z</time></trkpt><trkpt lat="40.9343683" lon="14.0564733"><ele>28.0</ele><time>2026-04-26T07:28:11.161Z</time></trkpt><trkpt lat="40.9343867" lon="14.0563433"><ele>28.2</ele><time>2026-04-26T07:28:12.161Z</time></trkpt><trkpt lat="40.9343983" lon="14.0562117"><ele>28.4</ele><time>2026-04-26T07:28:13.161Z</time></trkpt><trkpt lat="40.934405" lon="14.0560783"><ele>28.599999999999998</ele><time>2026-04-26T07:28:14.161Z</time></trkpt><trkpt lat="40.9344" lon="14.0559483"><ele>28.799999999999997</ele><time>2026-04-26T07:28:15.161Z</time></trkpt><trkpt lat="40.9343983" lon="14.0558167"><ele>29.0</ele><time>2026-04-26T07:28:16.161Z</time></trkpt><trkpt lat="40.9343933" lon="14.0556817"><ele>29.0</ele><time>2026-04-26T07:28:17.16Z</time></trkpt><trkpt lat="40.9343883" lon="14.0555467"><ele>29.0</ele><time>2026-04-26T07:28:18.161Z</time></trkpt><trkpt lat="40.934385" lon="14.0554133"><ele>29.0</ele><time>2026-04-26T07:28:19.161Z</time></trkpt><trkpt lat="40.9343783" lon="14.0552717"><ele>29.0</ele><time>2026-04-26T07:28:20.16Z</time></trkpt><trkpt lat="40.9343733" lon="14.055135"><ele>29.0</ele><time>2026-04-26T07:28:21.162Z</time></trkpt><trkpt lat="40.9343117" lon="14.05497"><ele>29.0</ele><time>2026-04-26T07:28:22.16Z</time></trkpt><trkpt lat="40.9342633" lon="14.0548283"><ele>29.0</ele><time>2026-04-26T07:28:23.161Z</time></trkpt><trkpt lat="40.9342283" lon="14.0546967"><ele>29.0</ele><time>2026-04-26T07:28:24.161Z</time></trkpt><trkpt lat="40.9341967" lon="14.054575"><ele>29.0</ele><time>2026-04-26T07:28:25.159Z</time></trkpt><trkpt lat="40.9341817" lon="14.0544383"><ele>29.0</ele><time>2026-04-26T07:28:26.161Z</time></trkpt><trkpt lat="40.9341783" lon="14.0543033"><ele>28.799999999999997</ele><time>2026-04-26T07:28:27.16Z</time></trkpt><trkpt lat="40.93418" lon="14.0541667"><ele>28.599999999999998</ele><time>2026-04-26T07:28:28.159Z</time></trkpt><trkpt lat="40.9341783" lon="14.05403"><ele>28.4</ele><time>2026-04-26T07:28:29.16Z</time></trkpt><trkpt lat="40.9341783" lon="14.053895"><ele>28.2</ele><time>2026-04-26T07:28:30.16Z</time></trkpt><trkpt lat="40.9341733" lon="14.05376"><ele>28.0</ele><time>2026-04-26T07:28:31.159Z</time></trkpt><trkpt lat="40.9341767" lon="14.0536367"><ele>28.000000000000004</ele><time>2026-04-26T07:28:32.16Z</time></trkpt><trkpt lat="40.9341833" lon="14.0535167"><ele>28.0</ele><time>2026-04-26T07:28:33.161Z</time></trkpt><trkpt lat="40.9341933" lon="14.0534017"><ele>28.0</ele><time>2026-04-26T07:28:34.159Z</time></trkpt><trkpt lat="40.9342" lon="14.0532817"><ele>28.0</ele><time>2026-04-26T07:28:35.162Z</time></trkpt><trkpt lat="40.934205" lon="14.053165"><ele>28.000000000000004</ele><time>2026-04-26T07:28:36.161Z</time></trkpt><trkpt lat="40.9342133" lon="14.05305"><ele>28.0</ele><time>2026-04-26T07:28:37.16Z</time></trkpt><trkpt lat="40.9342217" lon="14.0529367"><ele>27.666666666666668</ele><time>2026-04-26T07:28:38.159Z</time></trkpt><trkpt lat="40.93423" lon="14.052825"><ele>27.333333333333336</ele><time>2026-04-26T07:28:39.162Z</time></trkpt><trkpt lat="40.9342367" lon="14.05271"><ele>27.0</ele><time>2026-04-26T07:28:40.161Z</time></trkpt><trkpt lat="40.9342467" lon="14.052595"><ele>26.666666666666664</ele><time>2026-04-26T07:28:41.161Z</time></trkpt><trkpt lat="40.934255" lon="14.05248"><ele>26.333333333333332</ele><time>2026-04-26T07:28:42.16Z</time></trkpt><trkpt lat="40.93426" lon="14.0523683"><ele>26.0</ele><time>2026-04-26T07:28:43.161Z</time></trkpt><trkpt lat="40.9342667" lon="14.0522583"><ele>25.666666666666664</ele><time>2026-04-26T07:28:44.161Z</time></trkpt><trkpt lat="40.9342733" lon="14.0521467"><ele>25.333333333333332</ele><time>2026-04-26T07:28:45.163Z</time></trkpt><trkpt lat="40.9342767" lon="14.05203"><ele>25.0</ele><time>2026-04-26T07:28:46.162Z</time></trkpt><trkpt lat="40.9342817" lon="14.051915"><ele>24.666666666666664</ele><time>2026-04-26T07:28:47.158Z</time></trkpt><trkpt lat="40.93429" lon="14.0518"><ele>24.333333333333332</ele><time>2026-04-26T07:28:48.158Z</time></trkpt><trkpt lat="40.9342967" lon="14.0516833"><ele>24.0</ele><time>2026-04-26T07:28:49.16Z</time></trkpt><trkpt lat="40.9342983" lon="14.05157"><ele>23.5</ele><time>2026-04-26T07:28:50.16Z</time></trkpt><trkpt lat="40.9343017" lon="14.0514567"><ele>23.0</ele><time>2026-04-26T07:28:51.159Z</time></trkpt><trkpt lat="40.93431" lon="14.051345"><ele>22.5</ele><time>2026-04-26T07:28:52.158Z</time></trkpt><trkpt lat="40.9343217" lon="14.0512317"><ele>22.0</ele><time>2026-04-26T07:28:53.159Z</time></trkpt><trkpt lat="40.93433" lon="14.051115"><ele>21.5</ele><time>2026-04-26T07:28:54.16Z</time></trkpt><trkpt lat="40.9343367" lon="14.0509967"><ele>21.0</ele><time>2026-04-26T07:28:55.159Z</time></trkpt><trkpt lat="40.9343467" lon="14.0508717"><ele>21.0</ele><time>2026-04-26T07:28:56.159Z</time></trkpt><trkpt lat="40.934355" lon="14.0507433"><ele>21.0</ele><time>2026-04-26T07:28:57.159Z</time></trkpt><trkpt lat="40.9343633" lon="14.0506133"><ele>21.0</ele><time>2026-04-26T07:28:58.159Z</time></trkpt><trkpt lat="40.9343733" lon="14.0504817"><ele>21.0</ele><time>2026-04-26T07:28:59.159Z</time></trkpt><trkpt lat="40.9343817" lon="14.0503467"><ele>21.0</ele><time>2026-04-26T07:29:00.163Z</time></trkpt><trkpt lat="40.9343917" lon="14.05021"><ele>21.0</ele><time>2026-04-26T07:29:01.161Z</time></trkpt><trkpt lat="40.9344017" lon="14.0500733"><ele>21.0</ele><time>2026-04-26T07:29:02.161Z</time></trkpt><trkpt lat="40.9344117" lon="14.0499333"><ele>21.0</ele><time>2026-04-26T07:29:03.16Z</time></trkpt><trkpt lat="40.9344233" lon="14.0497917"><ele>21.0</ele><time>2026-04-26T07:29:04.157Z</time></trkpt><trkpt lat="40.934435" lon="14.0496533"><ele>21.0</ele><time>2026-04-26T07:29:05.16Z</time></trkpt><trkpt lat="40.9344467" lon="14.0495117"><ele>21.200000000000003</ele><time>2026-04-26T07:29:06.162Z</time></trkpt><trkpt lat="40.934455" lon="14.049375"><ele>21.400000000000002</ele><time>2026-04-26T07:29:07.163Z</time></trkpt><trkpt lat="40.9344667" lon="14.0492383"><ele>21.6</ele><time>2026-04-26T07:29:08.162Z</time></trkpt><trkpt lat="40.93448" lon="14.0491017"><ele>21.8</ele><time>2026-04-26T07:29:09.162Z</time></trkpt><trkpt lat="40.9344983" lon="14.0489683"><ele>22.0</ele><time>2026-04-26T07:29:10.159Z</time></trkpt><trkpt lat="40.9345167" lon="14.0488383"><ele>22.0</ele><time>2026-04-26T07:29:11.158Z</time></trkpt><trkpt lat="40.9345283" lon="14.0487067"><ele>22.0</ele><time>2026-04-26T07:29:12.161Z</time></trkpt><trkpt lat="40.9345383" lon="14.048575"><ele>22.0</ele><time>2026-04-26T07:29:13.16Z</time></trkpt><trkpt lat="40.934545" lon="14.0484467"><ele>22.0</ele><time>2026-04-26T07:29:14.162Z</time></trkpt><trkpt lat="40.9345517" lon="14.0483167"><ele>22.0</ele><time>2026-04-26T07:29:15.162Z</time></trkpt><trkpt lat="40.9345517" lon="14.04819"><ele>22.0</ele><time>2026-04-26T07:29:16.161Z</time></trkpt><trkpt lat="40.9345517" lon="14.0480617"><ele>22.0</ele><time>2026-04-26T07:29:17.159Z</time></trkpt><trkpt lat="40.93455" lon="14.0479383"><ele>22.0</ele><time>2026-04-26T07:29:18.16Z</time></trkpt><trkpt lat="40.9345483" lon="14.047815"><ele>22.0</ele><time>2026-04-26T07:29:19.159Z</time></trkpt><trkpt lat="40.934545" lon="14.047695"><ele>22.0</ele><time>2026-04-26T07:29:20.16Z</time></trkpt><trkpt lat="40.93454" lon="14.047575"><ele>22.0</ele><time>2026-04-26T07:29:21.16Z</time></trkpt><trkpt lat="40.9345317" lon="14.0474617"><ele>22.0</ele><time>2026-04-26T07:29:22.16Z</time></trkpt><trkpt lat="40.9345183" lon="14.0473483"><ele>22.0</ele><time>2026-04-26T07:29:23.157Z</time></trkpt><trkpt lat="40.9345033" lon="14.047235"><ele>22.0</ele><time>2026-04-26T07:29:24.162Z</time></trkpt><trkpt lat="40.93449" lon="14.0471217"><ele>22.0</ele><time>2026-04-26T07:29:25.161Z</time></trkpt><trkpt lat="40.934475" lon="14.0470083"><ele>22.0</ele><time>2026-04-26T07:29:26.162Z</time></trkpt><trkpt lat="40.9344617" lon="14.0468933"><ele>21.833333333333332</ele><time>2026-04-26T07:29:27.161Z</time></trkpt><trkpt lat="40.93445" lon="14.0467783"><ele>21.666666666666664</ele><time>2026-04-26T07:29:28.161Z</time></trkpt><trkpt lat="40.934435" lon="14.046665"><ele>21.5</ele><time>2026-04-26T07:29:29.16Z</time></trkpt><trkpt lat="40.9344217" lon="14.04655"><ele>21.333333333333332</ele><time>2026-04-26T07:29:30.158Z</time></trkpt><trkpt lat="40.93441" lon="14.0464367"><ele>21.166666666666668</ele><time>2026-04-26T07:29:31.159Z</time></trkpt><trkpt lat="40.9344" lon="14.0463217"><ele>21.0</ele><time>2026-04-26T07:29:32.159Z</time></trkpt><trkpt lat="40.9343883" lon="14.046205"><ele>20.833333333333332</ele><time>2026-04-26T07:29:33.16Z</time></trkpt><trkpt lat="40.9343767" lon="14.0460883"><ele>20.666666666666668</ele><time>2026-04-26T07:29:34.159Z</time></trkpt><trkpt lat="40.934365" lon="14.0459717"><ele>20.5</ele><time>2026-04-26T07:29:35.16Z</time></trkpt><trkpt lat="40.93435" lon="14.0458567"><ele>20.333333333333336</ele><time>2026-04-26T07:29:36.16Z</time></trkpt><trkpt lat="40.9343383" lon="14.045745"><ele>20.166666666666668</ele><time>2026-04-26T07:29:37.16Z</time></trkpt><trkpt lat="40.934325" lon="14.0456333"><ele>20.0</ele><time>2026-04-26T07:29:38.161Z</time></trkpt><trkpt lat="40.93431" lon="14.045525"><ele>19.666666666666668</ele><time>2026-04-26T07:29:39.159Z</time></trkpt><trkpt lat="40.9342933" lon="14.0454183"><ele>19.333333333333336</ele><time>2026-04-26T07:29:40.16Z</time></trkpt><trkpt lat="40.9342767" lon="14.04531"><ele>19.0</ele><time>2026-04-26T07:29:41.159Z</time></trkpt><trkpt lat="40.934265" lon="14.045205"><ele>18.666666666666668</ele><time>2026-04-26T07:29:42.16Z</time></trkpt><trkpt lat="40.93426" lon="14.0450967"><ele>18.333333333333332</ele><time>2026-04-26T07:29:43.16Z</time></trkpt><trkpt lat="40.934255" lon="14.0449883"><ele>18.0</ele><time>2026-04-26T07:29:44.159Z</time></trkpt><trkpt lat="40.934245" lon="14.0448783"><ele>17.5</ele><time>2026-04-26T07:29:45.163Z</time></trkpt><trkpt lat="40.9342283" lon="14.0447717"><ele>17.0</ele><time>2026-04-26T07:29:46.161Z</time></trkpt><trkpt lat="40.9342067" lon="14.0446617"><ele>16.5</ele><time>2026-04-26T07:29:47.158Z</time></trkpt><trkpt lat="40.9341833" lon="14.0445517"><ele>16.0</ele><time>2026-04-26T07:29:48.161Z</time></trkpt><trkpt lat="40.9341533" lon="14.0444433"><ele>15.5</ele><time>2026-04-26T07:29:49.158Z</time></trkpt><trkpt lat="40.9341183" lon="14.044335"><ele>15.0</ele><time>2026-04-26T07:29:50.162Z</time></trkpt><trkpt lat="40.9340867" lon="14.0442233"><ele>14.0</ele><time>2026-04-26T07:29:51.16Z</time></trkpt><trkpt lat="40.9340567" lon="14.04411"><ele>13.0</ele><time>2026-04-26T07:29:52.16Z</time></trkpt><trkpt lat="40.9340283" lon="14.043995"><ele>12.0</ele><time>2026-04-26T07:29:53.163Z</time></trkpt><trkpt lat="40.934" lon="14.0438783"><ele>11.0</ele><time>2026-04-26T07:29:54.158Z</time></trkpt><trkpt lat="40.9339717" lon="14.0437583"><ele>10.0</ele><time>2026-04-26T07:29:55.159Z</time></trkpt><trkpt lat="40.9339483" lon="14.0436333"><ele>10.0</ele><time>2026-04-26T07:29:56.158Z</time></trkpt><trkpt lat="40.9339317" lon="14.0435033"><ele>10.0</ele><time>2026-04-26T07:29:57.16Z</time></trkpt><trkpt lat="40.933915" lon="14.0433733"><ele>10.0</ele><time>2026-04-26T07:29:58.161Z</time></trkpt><trkpt lat="40.9338983" lon="14.04324"><ele>10.0</ele><time>2026-04-26T07:29:59.16Z</time></trkpt><trkpt lat="40.9338833" lon="14.043105"><ele>10.0</ele><time>2026-04-26T07:30:00.16Z</time></trkpt><trkpt lat="40.9338667" lon="14.04297"><ele>9.0</ele><time>2026-04-26T07:30:01.16Z</time></trkpt><trkpt lat="40.9338467" lon="14.04284"><ele>8.0</ele><time>2026-04-26T07:30:02.159Z</time></trkpt><trkpt lat="40.9338233" lon="14.0427117"><ele>7.0</ele><time>2026-04-26T07:30:03.163Z</time></trkpt><trkpt lat="40.9337883" lon="14.0425883"><ele>6.0</ele><time>2026-04-26T07:30:04.159Z</time></trkpt><trkpt lat="40.9337383" lon="14.042475"><ele>5.0</ele><time>2026-04-26T07:30:05.16Z</time></trkpt><trkpt lat="40.9336733" lon="14.0423733"><ele>5.0</ele><time>2026-04-26T07:30:06.159Z</time></trkpt><trkpt lat="40.9335967" lon="14.0422867"><ele>5.0</ele><time>2026-04-26T07:30:07.158Z</time></trkpt><trkpt lat="40.9335117" lon="14.0422133"><ele>5.0</ele><time>2026-04-26T07:30:08.16Z</time></trkpt><trkpt lat="40.9334233" lon="14.04215"><ele>5.0</ele><time>2026-04-26T07:30:09.16Z</time></trkpt><trkpt lat="40.9333333" lon="14.0420867"><ele>5.0</ele><time>2026-04-26T07:30:10.159Z</time></trkpt><trkpt lat="40.9332467" lon="14.0420233"><ele>5.0</ele><time>2026-04-26T07:30:11.161Z</time></trkpt><trkpt lat="40.933165" lon="14.0419533"><ele>5.0</ele><time>2026-04-26T07:30:12.162Z</time></trkpt><trkpt lat="40.9330883" lon="14.0418783"><ele>5.0</ele><time>2026-04-26T07:30:13.161Z</time></trkpt><trkpt lat="40.9330117" lon="14.0417933"><ele>5.0</ele><time>2026-04-26T07:30:14.163Z</time></trkpt><trkpt lat="40.93294" lon="14.0416967"><ele>5.0</ele><time>2026-04-26T07:30:15.162Z</time></trkpt><trkpt lat="40.93288" lon="14.0415867"><ele>4.2</ele><time>2026-04-26T07:30:16.161Z</time></trkpt><trkpt lat="40.93283" lon="14.0414667"><ele>3.4</ele><time>2026-04-26T07:30:17.161Z</time></trkpt><trkpt lat="40.93279" lon="14.04134"><ele>2.6</ele><time>2026-04-26T07:30:18.162Z</time></trkpt><trkpt lat="40.9327583" lon="14.0412117"><ele>1.8</ele><time>2026-04-26T07:30:19.162Z</time></trkpt><trkpt lat="40.932735" lon="14.0410833"><ele>1.0</ele><time>2026-04-26T07:30:20.161Z</time></trkpt><trkpt lat="40.9327067" lon="14.0409583"><ele>1.0</ele><time>2026-04-26T07:30:21.162Z</time></trkpt><trkpt lat="40.9326817" lon="14.0408333"><ele>1.0</ele><time>2026-04-26T07:30:22.161Z</time></trkpt><trkpt lat="40.93266" lon="14.040705"><ele>1.0</ele><time>2026-04-26T07:30:23.162Z</time></trkpt><trkpt lat="40.9326383" lon="14.0405817"><ele>1.0</ele><time>2026-04-26T07:30:24.159Z</time></trkpt><trkpt lat="40.9326167" lon="14.0404617"><ele>1.0</ele><time>2026-04-26T07:30:25.16Z</time></trkpt><trkpt lat="40.9325967" lon="14.0403433"><ele>0.8333333333333333</ele><time>2026-04-26T07:30:26.161Z</time></trkpt><trkpt lat="40.9325767" lon="14.0402317"><ele>0.6666666666666666</ele><time>2026-04-26T07:30:27.162Z</time></trkpt><trkpt lat="40.932555" lon="14.0401167"><ele>0.5</ele><time>2026-04-26T07:30:28.159Z</time></trkpt><trkpt lat="40.9325367" lon="14.04"><ele>0.3333333333333333</ele><time>2026-04-26T07:30:29.161Z</time></trkpt><trkpt lat="40.9325183" lon="14.0398883"><ele>0.16666666666666666</ele><time>2026-04-26T07:30:30.161Z</time></trkpt><trkpt lat="40.9325017" lon="14.039785"><ele>0.0</ele><time>2026-04-26T07:30:31.16Z</time></trkpt><trkpt lat="40.9324867" lon="14.03968"><ele>0.3333333333333333</ele><time>2026-04-26T07:30:32.161Z</time></trkpt><trkpt lat="40.9324733" lon="14.0395817"><ele>0.6666666666666666</ele><time>2026-04-26T07:30:33.159Z</time></trkpt><trkpt lat="40.9324633" lon="14.0394967"><ele>1.0</ele><time>2026-04-26T07:30:34.159Z</time></trkpt><trkpt lat="40.9325033" lon="14.039355"><ele>1.3333333333333333</ele><time>2026-04-26T07:30:36.159Z</time></trkpt><trkpt lat="40.9325567" lon="14.039305"><ele>1.6666666666666665</ele><time>2026-04-26T07:30:37.16Z</time></trkpt><trkpt lat="40.9326167" lon="14.0392733"><ele>2.0</ele><time>2026-04-26T07:30:38.159Z</time></trkpt><trkpt lat="40.9326867" lon="14.03926"><ele>1.4285714285714284</ele><time>2026-04-26T07:30:39.159Z</time></trkpt><trkpt lat="40.9327583" lon="14.03926"><ele>0.857142857142857</ele><time>2026-04-26T07:30:40.159Z</time></trkpt><trkpt lat="40.9328283" lon="14.0392717"><ele>0.2857142857142857</ele><time>2026-04-26T07:30:41.161Z</time></trkpt><trkpt lat="40.9328967" lon="14.0392967"><ele>-0.2857142857142857</ele><time>2026-04-26T07:30:42.161Z</time></trkpt><trkpt lat="40.93296" lon="14.039335"><ele>-0.857142857142857</ele><time>2026-04-26T07:30:43.162Z</time></trkpt><trkpt lat="40.93302" lon="14.0393783"><ele>-1.4285714285714284</ele><time>2026-04-26T07:30:44.162Z</time></trkpt><trkpt lat="40.9330783" lon="14.0394267"><ele>-2.0</ele><time>2026-04-26T07:30:45.161Z</time></trkpt><trkpt lat="40.9331367" lon="14.0394733"><ele>-1.9999999999999998</ele><time>2026-04-26T07:30:46.163Z</time></trkpt><trkpt lat="40.9331967" lon="14.0395183"><ele>-2.0</ele><time>2026-04-26T07:30:47.161Z</time></trkpt><trkpt lat="40.933255" lon="14.03956"><ele>-2.0</ele><time>2026-04-26T07:30:48.162Z</time></trkpt><trkpt lat="40.9333117" lon="14.0396"><ele>-2.0</ele><time>2026-04-26T07:30:49.161Z</time></trkpt><trkpt lat="40.93342" lon="14.0396767"><ele>-1.9999999999999998</ele><time>2026-04-26T07:30:51.159Z</time></trkpt><trkpt lat="40.9335267" lon="14.039765"><ele>-2.0</ele><time>2026-04-26T07:30:53.161Z</time></trkpt><trkpt lat="40.933585" lon="14.03981"><ele>-2.0</ele><time>2026-04-26T07:30:54.159Z</time></trkpt><trkpt lat="40.9336467" lon="14.0398583"><ele>-1.9999999999999998</ele><time>2026-04-26T07:30:55.16Z</time></trkpt><trkpt lat="40.933705" lon="14.0399033"><ele>-2.0</ele><time>2026-04-26T07:30:56.16Z</time></trkpt><trkpt lat="40.9337683" lon="14.0399467"><ele>-2.0</ele><time>2026-04-26T07:30:57.159Z</time></trkpt><trkpt lat="40.9338333" lon="14.03999"><ele>-1.9999999999999998</ele><time>2026-04-26T07:30:58.16Z</time></trkpt><trkpt lat="40.9338967" lon="14.0400267"><ele>-2.0</ele><time>2026-04-26T07:30:59.163Z</time></trkpt><trkpt lat="40.9339617" lon="14.0400667"><ele>-2.0</ele><time>2026-04-26T07:31:00.159Z</time></trkpt><trkpt lat="40.9340233" lon="14.04011"><ele>-1.9999999999999998</ele><time>2026-04-26T07:31:01.161Z</time></trkpt><trkpt lat="40.9340867" lon="14.0401533"><ele>-2.0</ele><time>2026-04-26T07:31:02.159Z</time></trkpt><trkpt lat="40.9341483" lon="14.0401983"><ele>-2.0</ele><time>2026-04-26T07:31:03.161Z</time></trkpt><trkpt lat="40.93421" lon="14.0402417"><ele>-2.0</ele><time>2026-04-26T07:31:04.163Z</time></trkpt><trkpt lat="40.9342683" lon="14.0402767"><ele>-1.9999999999999998</ele><time>2026-04-26T07:31:05.16Z</time></trkpt><trkpt lat="40.9343783" lon="14.0403483"><ele>-2.0</ele><time>2026-04-26T07:31:07.16Z</time></trkpt><trkpt lat="40.93448" lon="14.040425"><ele>-2.0</ele><time>2026-04-26T07:31:09.162Z</time></trkpt><trkpt lat="40.93459" lon="14.0404967"><ele>-2.0</ele><time>2026-04-26T07:31:11.159Z</time></trkpt><trkpt lat="40.9347033" lon="14.0405533"><ele>-2.0</ele><time>2026-04-26T07:31:13.158Z</time></trkpt><trkpt lat="40.9348283" lon="14.0406"><ele>-2.0</ele><time>2026-04-26T07:31:15.161Z</time></trkpt><trkpt lat="40.934895" lon="14.04062"><ele>-2.0</ele><time>2026-04-26T07:31:16.162Z</time></trkpt><trkpt lat="40.9349617" lon="14.04063"><ele>-1.9999999999999998</ele><time>2026-04-26T07:31:17.159Z</time></trkpt><trkpt lat="40.9350317" lon="14.040645"><ele>-2.0</ele><time>2026-04-26T07:31:18.162Z</time></trkpt><trkpt lat="40.9351567" lon="14.0406833"><ele>-2.0</ele><time>2026-04-26T07:31:20.16Z</time></trkpt><trkpt lat="40.935225" lon="14.0407017"><ele>-2.0</ele><time>2026-04-26T07:31:21.161Z</time></trkpt><trkpt lat="40.9352933" lon="14.04072"><ele>-1.9999999999999998</ele><time>2026-04-26T07:31:22.16Z</time></trkpt><trkpt lat="40.93537" lon="14.0407367"><ele>-2.0</ele><time>2026-04-26T07:31:23.16Z</time></trkpt><trkpt lat="40.9354433" lon="14.0407517"><ele>-1.9999999999999998</ele><time>2026-04-26T07:31:24.159Z</time></trkpt><trkpt lat="40.9355167" lon="14.04076"><ele>-2.0</ele><time>2026-04-26T07:31:25.159Z</time></trkpt><trkpt lat="40.93559" lon="14.0407733"><ele>-2.0</ele><time>2026-04-26T07:31:26.159Z</time></trkpt><trkpt lat="40.935665" lon="14.0407883"><ele>-2.0</ele><time>2026-04-26T07:31:27.156Z</time></trkpt><trkpt lat="40.9357383" lon="14.0408067"><ele>-1.9999999999999998</ele><time>2026-04-26T07:31:28.157Z</time></trkpt><trkpt lat="40.9358117" lon="14.0408383"><ele>-2.0</ele><time>2026-04-26T07:31:29.159Z</time></trkpt><trkpt lat="40.9358917" lon="14.040865"><ele>-2.0</ele><time>2026-04-26T07:31:30.157Z</time></trkpt><trkpt lat="40.9359683" lon="14.0408867"><ele>-2.0</ele><time>2026-04-26T07:31:31.162Z</time></trkpt><trkpt lat="40.936045" lon="14.0409083"><ele>-2.0</ele><time>2026-04-26T07:31:32.165Z</time></trkpt><trkpt lat="40.9361967" lon="14.04095"><ele>-2.0</ele><time>2026-04-26T07:31:34.161Z</time></trkpt><trkpt lat="40.9362683" lon="14.0409717"><ele>-2.0</ele><time>2026-04-26T07:31:35.158Z</time></trkpt><trkpt lat="40.9363417" lon="14.04099"><ele>-2.0</ele><time>2026-04-26T07:31:36.156Z</time></trkpt><trkpt lat="40.9364117" lon="14.04101"><ele>-1.9999999999999998</ele><time>2026-04-26T07:31:37.156Z</time></trkpt><trkpt lat="40.9364817" lon="14.0410317"><ele>-2.0</ele><time>2026-04-26T07:31:38.158Z</time></trkpt><trkpt lat="40.9365517" lon="14.0410533"><ele>-2.0</ele><time>2026-04-26T07:31:39.162Z</time></trkpt><trkpt lat="40.9366233" lon="14.0410733"><ele>-1.9999999999999998</ele><time>2026-04-26T07:31:40.16Z</time></trkpt><trkpt lat="40.9366967" lon="14.0410967"><ele>-2.0</ele><time>2026-04-26T07:31:41.158Z</time></trkpt><trkpt lat="40.9367683" lon="14.0411167"><ele>-2.0</ele><time>2026-04-26T07:31:42.157Z</time></trkpt><trkpt lat="40.9368417" lon="14.0411317"><ele>-1.9999999999999998</ele><time>2026-04-26T07:31:43.156Z</time></trkpt><trkpt lat="40.9369117" lon="14.0411533"><ele>-2.0</ele><time>2026-04-26T07:31:44.161Z</time></trkpt><trkpt lat="40.9369833" lon="14.0411767"><ele>-2.0</ele><time>2026-04-26T07:31:45.156Z</time></trkpt><trkpt lat="40.9370567" lon="14.0411983"><ele>-2.0</ele><time>2026-04-26T07:31:46.169Z</time></trkpt><trkpt lat="40.93713" lon="14.0412217"><ele>-1.9999999999999998</ele><time>2026-04-26T07:31:47.156Z</time></trkpt><trkpt lat="40.9372083" lon="14.04124"><ele>-2.0</ele><time>2026-04-26T07:31:48.156Z</time></trkpt><trkpt lat="40.937285" lon="14.0412617"><ele>-1.9999999999999998</ele><time>2026-04-26T07:31:49.164Z</time></trkpt><trkpt lat="40.93736" lon="14.0412883"><ele>-2.0</ele><time>2026-04-26T07:31:50.157Z</time></trkpt><trkpt lat="40.9374367" lon="14.0413033"><ele>-2.0</ele><time>2026-04-26T07:31:51.156Z</time></trkpt><trkpt lat="40.937515" lon="14.04132"><ele>-2.0</ele><time>2026-04-26T07:31:52.157Z</time></trkpt><trkpt lat="40.9375967" lon="14.0413267"><ele>-1.9999999999999998</ele><time>2026-04-26T07:31:53.156Z</time></trkpt><trkpt lat="40.9376717" lon="14.0413417"><ele>-2.0</ele><time>2026-04-26T07:31:54.157Z</time></trkpt><trkpt lat="40.9377483" lon="14.041355"><ele>-1.9999999999999998</ele><time>2026-04-26T07:31:55.157Z</time></trkpt><trkpt lat="40.937825" lon="14.0413633"><ele>-2.0</ele><time>2026-04-26T07:31:56.158Z</time></trkpt><trkpt lat="40.937905" lon="14.04137"><ele>-2.0</ele><time>2026-04-26T07:31:57.156Z</time></trkpt><trkpt lat="40.937985" lon="14.041385"><ele>-2.0</ele><time>2026-04-26T07:31:58.156Z</time></trkpt><trkpt lat="40.9380667" lon="14.0413933"><ele>-1.9999999999999998</ele><time>2026-04-26T07:31:59.156Z</time></trkpt><trkpt lat="40.93814" lon="14.0414033"><ele>-2.0</ele><time>2026-04-26T07:32:00.157Z</time></trkpt><trkpt lat="40.9382167" lon="14.0414083"><ele>-1.9999999999999998</ele><time>2026-04-26T07:32:01.158Z</time></trkpt><trkpt lat="40.9382917" lon="14.0414167"><ele>-2.0</ele><time>2026-04-26T07:32:02.156Z</time></trkpt><trkpt lat="40.93837" lon="14.0414183"><ele>-2.0</ele><time>2026-04-26T07:32:03.156Z</time></trkpt><trkpt lat="40.9384517" lon="14.0414217"><ele>-2.0</ele><time>2026-04-26T07:32:04.158Z</time></trkpt><trkpt lat="40.938535" lon="14.04142"><ele>-1.9999999999999998</ele><time>2026-04-26T07:32:05.157Z</time></trkpt><trkpt lat="40.9386167" lon="14.0414167"><ele>-2.0</ele><time>2026-04-26T07:32:06.156Z</time></trkpt><trkpt lat="40.938695" lon="14.041415"><ele>-1.9999999999999998</ele><time>2026-04-26T07:32:07.159Z</time></trkpt><trkpt lat="40.9387817" lon="14.0414133"><ele>-2.0</ele><time>2026-04-26T07:32:08.156Z</time></trkpt><trkpt lat="40.9388633" lon="14.0414167"><ele>-2.0</ele><time>2026-04-26T07:32:09.157Z</time></trkpt><trkpt lat="40.9389433" lon="14.0414167"><ele>-2.0</ele><time>2026-04-26T07:32:10.157Z</time></trkpt><trkpt lat="40.9390267" lon="14.0414133"><ele>-1.9999999999999998</ele><time>2026-04-26T07:32:11.157Z</time></trkpt><trkpt lat="40.939105" lon="14.0414017"><ele>-2.0</ele><time>2026-04-26T07:32:12.157Z</time></trkpt><trkpt lat="40.9391833" lon="14.04139"><ele>-1.8333333333333333</ele><time>2026-04-26T07:32:13.156Z</time></trkpt><trkpt lat="40.93926" lon="14.0413767"><ele>-1.6666666666666665</ele><time>2026-04-26T07:32:14.157Z</time></trkpt><trkpt lat="40.9393417" lon="14.0413633"><ele>-1.5</ele><time>2026-04-26T07:32:15.156Z</time></trkpt><trkpt lat="40.9394217" lon="14.0413517"><ele>-1.3333333333333333</ele><time>2026-04-26T07:32:16.158Z</time></trkpt><trkpt lat="40.9395033" lon="14.0413367"><ele>-1.1666666666666665</ele><time>2026-04-26T07:32:17.157Z</time></trkpt><trkpt lat="40.9395783" lon="14.0413217"><ele>-1.0</ele><time>2026-04-26T07:32:18.159Z</time></trkpt><trkpt lat="40.93966" lon="14.0413033"><ele>-0.9999999999999999</ele><time>2026-04-26T07:32:19.158Z</time></trkpt><trkpt lat="40.93974" lon="14.0412883"><ele>-1.0</ele><time>2026-04-26T07:32:20.158Z</time></trkpt><trkpt lat="40.93983" lon="14.0412683"><ele>-1.0</ele><time>2026-04-26T07:32:21.156Z</time></trkpt><trkpt lat="40.9399083" lon="14.0412467"><ele>-1.0</ele><time>2026-04-26T07:32:22.156Z</time></trkpt><trkpt lat="40.9399817" lon="14.04123"><ele>-0.9999999999999999</ele><time>2026-04-26T07:32:23.158Z</time></trkpt><trkpt lat="40.940055" lon="14.0412083"><ele>-1.0</ele><time>2026-04-26T07:32:24.159Z</time></trkpt><trkpt lat="40.9401333" lon="14.041185"><ele>-0.8333333333333333</ele><time>2026-04-26T07:32:25.156Z</time></trkpt><trkpt lat="40.9402117" lon="14.04116"><ele>-0.6666666666666666</ele><time>2026-04-26T07:32:26.156Z</time></trkpt><trkpt lat="40.9402917" lon="14.0411367"><ele>-0.5</ele><time>2026-04-26T07:32:27.156Z</time></trkpt><trkpt lat="40.94037" lon="14.0411067"><ele>-0.3333333333333333</ele><time>2026-04-26T07:32:28.155Z</time></trkpt><trkpt lat="40.9404467" lon="14.0410833"><ele>-0.16666666666666666</ele><time>2026-04-26T07:32:29.157Z</time></trkpt><trkpt lat="40.94052" lon="14.0410633"><ele>0.0</ele><time>2026-04-26T07:32:30.157Z</time></trkpt><trkpt lat="40.940595" lon="14.0410333"><ele>0.0</ele><time>2026-04-26T07:32:31.156Z</time></trkpt><trkpt lat="40.9406733" lon="14.04101"><ele>0.0</ele><time>2026-04-26T07:32:32.157Z</time></trkpt><trkpt lat="40.9407533" lon="14.040985"><ele>0.0</ele><time>2026-04-26T07:32:33.157Z</time></trkpt><trkpt lat="40.9408317" lon="14.0409617"><ele>0.0</ele><time>2026-04-26T07:32:34.156Z</time></trkpt><trkpt lat="40.940915" lon="14.0409367"><ele>0.0</ele><time>2026-04-26T07:32:35.158Z</time></trkpt><trkpt lat="40.940995" lon="14.040915"><ele>0.0</ele><time>2026-04-26T07:32:36.156Z</time></trkpt><trkpt lat="40.9410767" lon="14.0408933"><ele>0.0</ele><time>2026-04-26T07:32:37.156Z</time></trkpt><trkpt lat="40.9411533" lon="14.0408733"><ele>0.0</ele><time>2026-04-26T07:32:38.156Z</time></trkpt><trkpt lat="40.9412283" lon="14.0408517"><ele>0.0</ele><time>2026-04-26T07:32:39.156Z</time></trkpt><trkpt lat="40.9413" lon="14.04083"><ele>0.0</ele><time>2026-04-26T07:32:40.157Z</time></trkpt><trkpt lat="40.9413733" lon="14.0408067"><ele>0.0</ele><time>2026-04-26T07:32:41.157Z</time></trkpt><trkpt lat="40.9414483" lon="14.040785"><ele>0.0</ele><time>2026-04-26T07:32:42.157Z</time></trkpt><trkpt lat="40.9415233" lon="14.0407633"><ele>-0.3333333333333333</ele><time>2026-04-26T07:32:43.157Z</time></trkpt><trkpt lat="40.9416" lon="14.0407433"><ele>-0.6666666666666666</ele><time>2026-04-26T07:32:44.156Z</time></trkpt><trkpt lat="40.941675" lon="14.04072"><ele>-1.0</ele><time>2026-04-26T07:32:45.157Z</time></trkpt><trkpt lat="40.94175" lon="14.040695"><ele>-1.3333333333333333</ele><time>2026-04-26T07:32:46.156Z</time></trkpt><trkpt lat="40.941825" lon="14.04067"><ele>-1.6666666666666665</ele><time>2026-04-26T07:32:47.156Z</time></trkpt><trkpt lat="40.9419017" lon="14.040645"><ele>-2.0</ele><time>2026-04-26T07:32:48.158Z</time></trkpt><trkpt lat="40.94198" lon="14.0406217"><ele>-1.9999999999999998</ele><time>2026-04-26T07:32:49.156Z</time></trkpt><trkpt lat="40.9420567" lon="14.0405967"><ele>-2.0</ele><time>2026-04-26T07:32:50.157Z</time></trkpt><trkpt lat="40.94213" lon="14.0405733"><ele>-2.0</ele><time>2026-04-26T07:32:51.156Z</time></trkpt><trkpt lat="40.9422083" lon="14.0405533"><ele>-2.0</ele><time>2026-04-26T07:32:52.156Z</time></trkpt><trkpt lat="40.94229" lon="14.040535"><ele>-1.9999999999999998</ele><time>2026-04-26T07:32:53.157Z</time></trkpt><trkpt lat="40.9423683" lon="14.0405167"><ele>-2.0</ele><time>2026-04-26T07:32:54.157Z</time></trkpt><trkpt lat="40.94245" lon="14.040495"><ele>-1.9999999999999998</ele><time>2026-04-26T07:32:55.156Z</time></trkpt><trkpt lat="40.94253" lon="14.04047"><ele>-2.0</ele><time>2026-04-26T07:32:56.157Z</time></trkpt><trkpt lat="40.94261" lon="14.040445"><ele>-2.0</ele><time>2026-04-26T07:32:57.157Z</time></trkpt><trkpt lat="40.9426867" lon="14.040415"><ele>-2.0</ele><time>2026-04-26T07:32:58.156Z</time></trkpt><trkpt lat="40.942765" lon="14.0403833"><ele>-1.9999999999999998</ele><time>2026-04-26T07:32:59.157Z</time></trkpt><trkpt lat="40.9428383" lon="14.0403483"><ele>-2.0</ele><time>2026-04-26T07:33:00.157Z</time></trkpt><trkpt lat="40.9429167" lon="14.0403133"><ele>-1.6666666666666665</ele><time>2026-04-26T07:33:01.156Z</time></trkpt><trkpt lat="40.9429933" lon="14.0402767"><ele>-1.3333333333333333</ele><time>2026-04-26T07:33:02.156Z</time></trkpt><trkpt lat="40.9430633" lon="14.0402367"><ele>-1.0</ele><time>2026-04-26T07:33:03.157Z</time></trkpt><trkpt lat="40.9431383" lon="14.0402"><ele>-0.6666666666666666</ele><time>2026-04-26T07:33:04.157Z</time></trkpt><trkpt lat="40.9432083" lon="14.0401567"><ele>-0.3333333333333333</ele><time>2026-04-26T07:33:05.157Z</time></trkpt><trkpt lat="40.9432767" lon="14.040105"><ele>0.0</ele><time>2026-04-26T07:33:06.156Z</time></trkpt><trkpt lat="40.943345" lon="14.0400567"><ele>0.16666666666666666</ele><time>2026-04-26T07:33:07.156Z</time></trkpt><trkpt lat="40.9434133" lon="14.040005"><ele>0.3333333333333333</ele><time>2026-04-26T07:33:08.158Z</time></trkpt><trkpt lat="40.9434783" lon="14.03995"><ele>0.5</ele><time>2026-04-26T07:33:09.156Z</time></trkpt><trkpt lat="40.943545" lon="14.0398933"><ele>0.6666666666666666</ele><time>2026-04-26T07:33:10.157Z</time></trkpt><trkpt lat="40.94361" lon="14.0398317"><ele>0.8333333333333333</ele><time>2026-04-26T07:33:11.16Z</time></trkpt><trkpt lat="40.943675" lon="14.03977"><ele>1.0</ele><time>2026-04-26T07:33:12.16Z</time></trkpt><trkpt lat="40.9437367" lon="14.039705"><ele>1.1666666666666665</ele><time>2026-04-26T07:33:13.157Z</time></trkpt><trkpt lat="40.943795" lon="14.039635"><ele>1.3333333333333333</ele><time>2026-04-26T07:33:14.156Z</time></trkpt><trkpt lat="40.9438533" lon="14.03956"><ele>1.5</ele><time>2026-04-26T07:33:15.156Z</time></trkpt><trkpt lat="40.9439083" lon="14.0394817"><ele>1.6666666666666665</ele><time>2026-04-26T07:33:16.157Z</time></trkpt><trkpt lat="40.9439633" lon="14.0394017"><ele>1.8333333333333333</ele><time>2026-04-26T07:33:17.156Z</time></trkpt><trkpt lat="40.9440183" lon="14.0393217"><ele>2.0</ele><time>2026-04-26T07:33:18.158Z</time></trkpt><trkpt lat="40.94407" lon="14.039245"><ele>1.9999999999999998</ele><time>2026-04-26T07:33:19.156Z</time></trkpt><trkpt lat="40.94412" lon="14.0391717"><ele>2.0</ele><time>2026-04-26T07:33:20.156Z</time></trkpt><trkpt lat="40.9441683" lon="14.0390967"><ele>2.0</ele><time>2026-04-26T07:33:21.157Z</time></trkpt><trkpt lat="40.94422" lon="14.0390183"><ele>2.0</ele><time>2026-04-26T07:33:22.156Z</time></trkpt><trkpt lat="40.9442717" lon="14.03894"><ele>1.9999999999999998</ele><time>2026-04-26T07:33:23.156Z</time></trkpt><trkpt lat="40.9443217" lon="14.03886"><ele>2.0</ele><time>2026-04-26T07:33:24.156Z</time></trkpt><trkpt lat="40.9443733" lon="14.0387817"><ele>1.8333333333333333</ele><time>2026-04-26T07:33:25.157Z</time></trkpt><trkpt lat="40.9444267" lon="14.0387033"><ele>1.6666666666666665</ele><time>2026-04-26T07:33:26.158Z</time></trkpt><trkpt lat="40.9444817" lon="14.038625"><ele>1.5</ele><time>2026-04-26T07:33:27.157Z</time></trkpt><trkpt lat="40.9445333" lon="14.038545"><ele>1.3333333333333333</ele><time>2026-04-26T07:33:28.156Z</time></trkpt><trkpt lat="40.9445817" lon="14.0384683"><ele>1.1666666666666665</ele><time>2026-04-26T07:33:29.157Z</time></trkpt><trkpt lat="40.9446267" lon="14.0383917"><ele>1.0</ele><time>2026-04-26T07:33:30.157Z</time></trkpt><trkpt lat="40.9446733" lon="14.03832"><ele>0.8571428571428571</ele><time>2026-04-26T07:33:31.158Z</time></trkpt><trkpt lat="40.94472" lon="14.03825"><ele>0.7142857142857142</ele><time>2026-04-26T07:33:32.159Z</time></trkpt><trkpt lat="40.944765" lon="14.0381817"><ele>0.5714285714285714</ele><time>2026-04-26T07:33:33.165Z</time></trkpt><trkpt lat="40.94481" lon="14.038105"><ele>0.42857142857142855</ele><time>2026-04-26T07:33:34.157Z</time></trkpt><trkpt lat="40.9448517" lon="14.03803"><ele>0.2857142857142857</ele><time>2026-04-26T07:33:35.158Z</time></trkpt><trkpt lat="40.9448917" lon="14.0379517"><ele>0.14285714285714285</ele><time>2026-04-26T07:33:36.157Z</time></trkpt><trkpt lat="40.9449283" lon="14.0378617"><ele>0.0</ele><time>2026-04-26T07:33:37.157Z</time></trkpt><trkpt lat="40.9449633" lon="14.0377683"><ele>0.0</ele><time>2026-04-26T07:33:38.157Z</time></trkpt><trkpt lat="40.944995" lon="14.0376733"><ele>0.0</ele><time>2026-04-26T07:33:39.156Z</time></trkpt><trkpt lat="40.94503" lon="14.0375833"><ele>0.0</ele><time>2026-04-26T07:33:40.156Z</time></trkpt><trkpt lat="40.9450617" lon="14.0374933"><ele>0.0</ele><time>2026-04-26T07:33:41.157Z</time></trkpt><trkpt lat="40.945095" lon="14.0374017"><ele>0.0</ele><time>2026-04-26T07:33:42.157Z</time></trkpt><trkpt lat="40.9451267" lon="14.0373117"><ele>0.0</ele><time>2026-04-26T07:33:43.156Z</time></trkpt><trkpt lat="40.9451633" lon="14.0372217"><ele>-0.16666666666666666</ele><time>2026-04-26T07:33:44.156Z</time></trkpt><trkpt lat="40.945205" lon="14.0371317"><ele>-0.3333333333333333</ele><time>2026-04-26T07:33:45.156Z</time></trkpt><trkpt lat="40.94524" lon="14.0370383"><ele>-0.5</ele><time>2026-04-26T07:33:46.156Z</time></trkpt><trkpt lat="40.945275" lon="14.0369433"><ele>-0.6666666666666666</ele><time>2026-04-26T07:33:47.157Z</time></trkpt><trkpt lat="40.94531" lon="14.0368483"><ele>-0.8333333333333333</ele><time>2026-04-26T07:33:48.156Z</time></trkpt><trkpt lat="40.94534" lon="14.03675"><ele>-1.0</ele><time>2026-04-26T07:33:49.157Z</time></trkpt><trkpt lat="40.9453683" lon="14.03665"><ele>-0.9999999999999999</ele><time>2026-04-26T07:33:50.157Z</time></trkpt><trkpt lat="40.945395" lon="14.0365517"><ele>-1.0</ele><time>2026-04-26T07:33:51.156Z</time></trkpt><trkpt lat="40.94542" lon="14.0364517"><ele>-1.0</ele><time>2026-04-26T07:33:52.157Z</time></trkpt><trkpt lat="40.94544" lon="14.0363433"><ele>-1.0</ele><time>2026-04-26T07:33:53.156Z</time></trkpt><trkpt lat="40.94546" lon="14.0362367"><ele>-0.9999999999999999</ele><time>2026-04-26T07:33:54.157Z</time></trkpt><trkpt lat="40.94548" lon="14.0361317"><ele>-1.0</ele><time>2026-04-26T07:33:55.158Z</time></trkpt><trkpt lat="40.9454983" lon="14.0360217"><ele>-0.9999999999999999</ele><time>2026-04-26T07:33:56.157Z</time></trkpt><trkpt lat="40.94552" lon="14.03591"><ele>-1.0</ele><time>2026-04-26T07:33:57.161Z</time></trkpt><trkpt lat="40.94554" lon="14.0358033"><ele>-1.0</ele><time>2026-04-26T07:33:58.157Z</time></trkpt><trkpt lat="40.94555" lon="14.0356983"><ele>-1.0</ele><time>2026-04-26T07:33:59.156Z</time></trkpt><trkpt lat="40.945555" lon="14.0355933"><ele>-0.9999999999999999</ele><time>2026-04-26T07:34:00.157Z</time></trkpt><trkpt lat="40.9455567" lon="14.0354883"><ele>-1.0</ele><time>2026-04-26T07:34:01.157Z</time></trkpt><trkpt lat="40.94555" lon="14.0353833"><ele>-1.3333333333333333</ele><time>2026-04-26T07:34:02.157Z</time></trkpt><trkpt lat="40.9455367" lon="14.03528"><ele>-1.6666666666666665</ele><time>2026-04-26T07:34:03.156Z</time></trkpt><trkpt lat="40.945515" lon="14.0351833"><ele>-2.0</ele><time>2026-04-26T07:34:04.157Z</time></trkpt><trkpt lat="40.9454883" lon="14.03509"><ele>-2.3333333333333335</ele><time>2026-04-26T07:34:05.157Z</time></trkpt><trkpt lat="40.9454533" lon="14.0350033"><ele>-2.6666666666666665</ele><time>2026-04-26T07:34:06.158Z</time></trkpt><trkpt lat="40.94541" lon="14.03492"><ele>-3.0</ele><time>2026-04-26T07:34:07.156Z</time></trkpt><trkpt lat="40.9453617" lon="14.03484"><ele>-3.0</ele><time>2026-04-26T07:34:08.157Z</time></trkpt><trkpt lat="40.9453117" lon="14.0347633"><ele>-3.0</ele><time>2026-04-26T07:34:09.156Z</time></trkpt><trkpt lat="40.94526" lon="14.0346867"><ele>-3.0</ele><time>2026-04-26T07:34:10.156Z</time></trkpt><trkpt lat="40.945205" lon="14.0346067"><ele>-3.0</ele><time>2026-04-26T07:34:11.156Z</time></trkpt><trkpt lat="40.94515" lon="14.034525"><ele>-3.0</ele><time>2026-04-26T07:34:12.157Z</time></trkpt><trkpt lat="40.945095" lon="14.034445"><ele>-3.0</ele><time>2026-04-26T07:34:13.156Z</time></trkpt><trkpt lat="40.94504" lon="14.0343667"><ele>-2.8333333333333335</ele><time>2026-04-26T07:34:14.156Z</time></trkpt><trkpt lat="40.9449883" lon="14.0342867"><ele>-2.6666666666666665</ele><time>2026-04-26T07:34:15.157Z</time></trkpt><trkpt lat="40.9449333" lon="14.0342083"><ele>-2.5</ele><time>2026-04-26T07:34:16.157Z</time></trkpt><trkpt lat="40.944875" lon="14.0341317"><ele>-2.333333333333333</ele><time>2026-04-26T07:34:17.156Z</time></trkpt><trkpt lat="40.94482" lon="14.0340567"><ele>-2.1666666666666665</ele><time>2026-04-26T07:34:18.162Z</time></trkpt><trkpt lat="40.9447633" lon="14.03398"><ele>-2.0</ele><time>2026-04-26T07:34:19.157Z</time></trkpt><trkpt lat="40.94471" lon="14.0339017"><ele>-1.9999999999999998</ele><time>2026-04-26T07:34:20.157Z</time></trkpt><trkpt lat="40.9446583" lon="14.033825"><ele>-2.0</ele><time>2026-04-26T07:34:21.156Z</time></trkpt><trkpt lat="40.9446067" lon="14.0337467"><ele>-2.0</ele><time>2026-04-26T07:34:22.157Z</time></trkpt><trkpt lat="40.9445533" lon="14.0336717"><ele>-2.0</ele><time>2026-04-26T07:34:23.158Z</time></trkpt><trkpt lat="40.9444967" lon="14.0335983"><ele>-1.9999999999999998</ele><time>2026-04-26T07:34:24.156Z</time></trkpt><trkpt lat="40.9444433" lon="14.033525"><ele>-2.0</ele><time>2026-04-26T07:34:25.156Z</time></trkpt><trkpt lat="40.9443933" lon="14.03345"><ele>-1.9999999999999998</ele><time>2026-04-26T07:34:26.156Z</time></trkpt><trkpt lat="40.944345" lon="14.0333733"><ele>-2.0</ele><time>2026-04-26T07:34:27.156Z</time></trkpt><trkpt lat="40.9443017" lon="14.0332917"><ele>-2.0</ele><time>2026-04-26T07:34:28.156Z</time></trkpt><trkpt lat="40.9442617" lon="14.0332067"><ele>-2.0</ele><time>2026-04-26T07:34:29.157Z</time></trkpt><trkpt lat="40.9442217" lon="14.0331217"><ele>-1.9999999999999998</ele><time>2026-04-26T07:34:30.157Z</time></trkpt><trkpt lat="40.9441833" lon="14.0330383"><ele>-2.0</ele><time>2026-04-26T07:34:31.156Z</time></trkpt><trkpt lat="40.9441433" lon="14.0329517"><ele>-1.857142857142857</ele><time>2026-04-26T07:34:32.158Z</time></trkpt><trkpt lat="40.9441117" lon="14.0328617"><ele>-1.714285714285714</ele><time>2026-04-26T07:34:33.157Z</time></trkpt><trkpt lat="40.9440783" lon="14.032775"><ele>-1.5714285714285714</ele><time>2026-04-26T07:34:34.157Z</time></trkpt><trkpt lat="40.9440467" lon="14.0326883"><ele>-1.4285714285714284</ele><time>2026-04-26T07:34:35.157Z</time></trkpt><trkpt lat="40.944015" lon="14.0326017"><ele>-1.2857142857142856</ele><time>2026-04-26T07:34:36.157Z</time></trkpt><trkpt lat="40.9439817" lon="14.032515"><ele>-1.1428571428571428</ele><time>2026-04-26T07:34:37.158Z</time></trkpt><trkpt lat="40.9439483" lon="14.0324283"><ele>-1.0</ele><time>2026-04-26T07:34:38.158Z</time></trkpt><trkpt lat="40.9439183" lon="14.0323433"><ele>-1.0</ele><time>2026-04-26T07:34:39.16Z</time></trkpt><trkpt lat="40.943885" lon="14.0322583"><ele>-0.9999999999999999</ele><time>2026-04-26T07:34:40.156Z</time></trkpt><trkpt lat="40.9438533" lon="14.0321717"><ele>-1.0</ele><time>2026-04-26T07:34:41.159Z</time></trkpt><trkpt lat="40.9438217" lon="14.0320867"><ele>-1.0</ele><time>2026-04-26T07:34:42.156Z</time></trkpt><trkpt lat="40.94379" lon="14.032"><ele>-0.9999999999999999</ele><time>2026-04-26T07:34:43.158Z</time></trkpt><trkpt lat="40.9437583" lon="14.031915"><ele>-1.0</ele><time>2026-04-26T07:34:44.156Z</time></trkpt><trkpt lat="40.943725" lon="14.0318283"><ele>-1.0</ele><time>2026-04-26T07:34:45.158Z</time></trkpt><trkpt lat="40.9436933" lon="14.0317417"><ele>-1.0</ele><time>2026-04-26T07:34:46.156Z</time></trkpt><trkpt lat="40.9436633" lon="14.031655"><ele>-0.9999999999999999</ele><time>2026-04-26T07:34:47.156Z</time></trkpt><trkpt lat="40.943635" lon="14.0315683"><ele>-1.0</ele><time>2026-04-26T07:34:48.158Z</time></trkpt><trkpt lat="40.9436117" lon="14.0314783"><ele>-1.0</ele><time>2026-04-26T07:34:49.16Z</time></trkpt><trkpt lat="40.9435933" lon="14.031385"><ele>-0.9999999999999999</ele><time>2026-04-26T07:34:50.157Z</time></trkpt><trkpt lat="40.9435817" lon="14.03129"><ele>-1.0</ele><time>2026-04-26T07:34:51.157Z</time></trkpt><trkpt lat="40.9435783" lon="14.03119"><ele>-1.0</ele><time>2026-04-26T07:34:52.157Z</time></trkpt><trkpt lat="40.9435767" lon="14.0310967"><ele>-0.9999999999999999</ele><time>2026-04-26T07:34:53.156Z</time></trkpt><trkpt lat="40.9435833" lon="14.0309967"><ele>-1.0</ele><time>2026-04-26T07:34:54.157Z</time></trkpt><trkpt lat="40.9435933" lon="14.030895"><ele>-1.0</ele><time>2026-04-26T07:34:55.156Z</time></trkpt><trkpt lat="40.9436017" lon="14.0307933"><ele>-1.0</ele><time>2026-04-26T07:34:56.157Z</time></trkpt><trkpt lat="40.9436083" lon="14.0306917"><ele>-0.9999999999999999</ele><time>2026-04-26T07:34:57.156Z</time></trkpt><trkpt lat="40.9436133" lon="14.03059"><ele>-1.0</ele><time>2026-04-26T07:34:58.161Z</time></trkpt><trkpt lat="40.9436183" lon="14.030485"><ele>-0.9999999999999999</ele><time>2026-04-26T07:34:59.157Z</time></trkpt><trkpt lat="40.94362" lon="14.0303817"><ele>-1.0</ele><time>2026-04-26T07:35:00.157Z</time></trkpt><trkpt lat="40.9436183" lon="14.0302783"><ele>-1.0</ele><time>2026-04-26T07:35:01.158Z</time></trkpt><trkpt lat="40.943615" lon="14.030175"><ele>-1.0</ele><time>2026-04-26T07:35:02.157Z</time></trkpt><trkpt lat="40.9436083" lon="14.030075"><ele>-0.9999999999999999</ele><time>2026-04-26T07:35:03.156Z</time></trkpt><trkpt lat="40.9435983" lon="14.0299817"><ele>-1.0</ele><time>2026-04-26T07:35:04.156Z</time></trkpt><trkpt lat="40.9435783" lon="14.0298917"><ele>-1.0</ele><time>2026-04-26T07:35:05.157Z</time></trkpt><trkpt lat="40.943555" lon="14.0298017"><ele>-0.9999999999999999</ele><time>2026-04-26T07:35:06.157Z</time></trkpt><trkpt lat="40.9435283" lon="14.029715"><ele>-1.0</ele><time>2026-04-26T07:35:07.16Z</time></trkpt><trkpt lat="40.9435017" lon="14.0296267"><ele>-1.0</ele><time>2026-04-26T07:35:08.157Z</time></trkpt><trkpt lat="40.943475" lon="14.02954"><ele>-0.9999999999999999</ele><time>2026-04-26T07:35:09.156Z</time></trkpt><trkpt lat="40.9434483" lon="14.0294533"><ele>-1.0</ele><time>2026-04-26T07:35:10.156Z</time></trkpt><trkpt lat="40.9434233" lon="14.0293617"><ele>-1.0</ele><time>2026-04-26T07:35:11.156Z</time></trkpt><trkpt lat="40.9433983" lon="14.0292767"><ele>-1.0</ele><time>2026-04-26T07:35:12.156Z</time></trkpt><trkpt lat="40.9433733" lon="14.0291933"><ele>-0.9999999999999999</ele><time>2026-04-26T07:35:13.156Z</time></trkpt><trkpt lat="40.94335" lon="14.0291083"><ele>-1.0</ele><time>2026-04-26T07:35:14.158Z</time></trkpt><trkpt lat="40.9433283" lon="14.02902"><ele>-1.0</ele><time>2026-04-26T07:35:15.156Z</time></trkpt><trkpt lat="40.9433067" lon="14.0289333"><ele>-0.9999999999999999</ele><time>2026-04-26T07:35:16.156Z</time></trkpt><trkpt lat="40.9432783" lon="14.02885"><ele>-1.0</ele><time>2026-04-26T07:35:17.158Z</time></trkpt><trkpt lat="40.9432517" lon="14.028765"><ele>-1.0</ele><time>2026-04-26T07:35:18.157Z</time></trkpt><trkpt lat="40.9432267" lon="14.0286833"><ele>-1.0</ele><time>2026-04-26T07:35:19.157Z</time></trkpt><trkpt lat="40.9432017" lon="14.0286017"><ele>-0.9999999999999999</ele><time>2026-04-26T07:35:20.157Z</time></trkpt><trkpt lat="40.9431817" lon="14.0285167"><ele>-1.0</ele><time>2026-04-26T07:35:21.156Z</time></trkpt><trkpt lat="40.9431567" lon="14.0284333"><ele>-1.0</ele><time>2026-04-26T07:35:22.157Z</time></trkpt><trkpt lat="40.9431333" lon="14.0283483"><ele>-0.9999999999999999</ele><time>2026-04-26T07:35:23.16Z</time></trkpt><trkpt lat="40.94311" lon="14.028265"><ele>-1.0</ele><time>2026-04-26T07:35:24.158Z</time></trkpt><trkpt lat="40.943085" lon="14.0281817"><ele>-1.0</ele><time>2026-04-26T07:35:25.16Z</time></trkpt><trkpt lat="40.94306" lon="14.0280967"><ele>-1.1428571428571428</ele><time>2026-04-26T07:35:26.158Z</time></trkpt><trkpt lat="40.9430333" lon="14.0280133"><ele>-1.2857142857142856</ele><time>2026-04-26T07:35:27.156Z</time></trkpt><trkpt lat="40.9430083" lon="14.027925"><ele>-1.4285714285714284</ele><time>2026-04-26T07:35:28.156Z</time></trkpt><trkpt lat="40.9429833" lon="14.0278367"><ele>-1.5714285714285714</ele><time>2026-04-26T07:35:29.158Z</time></trkpt><trkpt lat="40.9429583" lon="14.0277533"><ele>-1.714285714285714</ele><time>2026-04-26T07:35:30.156Z</time></trkpt><trkpt lat="40.9429367" lon="14.0276667"><ele>-1.857142857142857</ele><time>2026-04-26T07:35:31.158Z</time></trkpt><trkpt lat="40.9429133" lon="14.0275783"><ele>-2.0</ele><time>2026-04-26T07:35:32.157Z</time></trkpt><trkpt lat="40.9428867" lon="14.0274917"><ele>-2.142857142857143</ele><time>2026-04-26T07:35:33.156Z</time></trkpt><trkpt lat="40.9428617" lon="14.027405"><ele>-2.2857142857142856</ele><time>2026-04-26T07:35:34.157Z</time></trkpt><trkpt lat="40.942835" lon="14.0273183"><ele>-2.4285714285714284</ele><time>2026-04-26T07:35:35.156Z</time></trkpt><trkpt lat="40.9428083" lon="14.0272317"><ele>-2.571428571428571</ele><time>2026-04-26T07:35:36.157Z</time></trkpt><trkpt lat="40.94278" lon="14.0271433"><ele>-2.7142857142857144</ele><time>2026-04-26T07:35:37.157Z</time></trkpt><trkpt lat="40.9427517" lon="14.0270533"><ele>-2.8571428571428568</ele><time>2026-04-26T07:35:38.158Z</time></trkpt><trkpt lat="40.9427217" lon="14.0269633"><ele>-3.0</ele><time>2026-04-26T07:35:39.156Z</time></trkpt><trkpt lat="40.94269" lon="14.0268783"><ele>-2.9999999999999996</ele><time>2026-04-26T07:35:40.156Z</time></trkpt><trkpt lat="40.942655" lon="14.026795"><ele>-3.0</ele><time>2026-04-26T07:35:41.156Z</time></trkpt><trkpt lat="40.9426183" lon="14.026715"><ele>-3.0</ele><time>2026-04-26T07:35:42.157Z</time></trkpt><trkpt lat="40.9425767" lon="14.0266383"><ele>-3.0</ele><time>2026-04-26T07:35:43.157Z</time></trkpt><trkpt lat="40.94253" lon="14.0265633"><ele>-3.0</ele><time>2026-04-26T07:35:44.157Z</time></trkpt><trkpt lat="40.9424783" lon="14.0264967"><ele>-2.9999999999999996</ele><time>2026-04-26T07:35:45.156Z</time></trkpt><trkpt lat="40.94242" lon="14.0264383"><ele>-3.0</ele><time>2026-04-26T07:35:46.157Z</time></trkpt><trkpt lat="40.94236" lon="14.0263817"><ele>-2.8571428571428568</ele><time>2026-04-26T07:35:47.158Z</time></trkpt><trkpt lat="40.9422967" lon="14.026335"><ele>-2.7142857142857144</ele><time>2026-04-26T07:35:48.157Z</time></trkpt><trkpt lat="40.942235" lon="14.0262883"><ele>-2.571428571428571</ele><time>2026-04-26T07:35:49.156Z</time></trkpt><trkpt lat="40.942175" lon="14.0262483"><ele>-2.4285714285714284</ele><time>2026-04-26T07:35:50.158Z</time></trkpt><trkpt lat="40.9421133" lon="14.0262083"><ele>-2.2857142857142856</ele><time>2026-04-26T07:35:51.157Z</time></trkpt><trkpt lat="40.9420533" lon="14.0261667"><ele>-2.142857142857143</ele><time>2026-04-26T07:35:52.156Z</time></trkpt><trkpt lat="40.9419933" lon="14.0261267"><ele>-2.0</ele><time>2026-04-26T07:35:53.156Z</time></trkpt><trkpt lat="40.9419317" lon="14.0260883"><ele>-2.0</ele><time>2026-04-26T07:35:54.158Z</time></trkpt><trkpt lat="40.9418683" lon="14.026045"><ele>-1.9999999999999998</ele><time>2026-04-26T07:35:55.158Z</time></trkpt><trkpt lat="40.9418067" lon="14.0260017"><ele>-2.0</ele><time>2026-04-26T07:35:56.158Z</time></trkpt><trkpt lat="40.941745" lon="14.02596"><ele>-2.0</ele><time>2026-04-26T07:35:57.157Z</time></trkpt><trkpt lat="40.941685" lon="14.0259183"><ele>-1.9999999999999998</ele><time>2026-04-26T07:35:58.158Z</time></trkpt><trkpt lat="40.941625" lon="14.0258767"><ele>-2.0</ele><time>2026-04-26T07:35:59.158Z</time></trkpt><trkpt lat="40.941565" lon="14.0258333"><ele>-2.0</ele><time>2026-04-26T07:36:00.157Z</time></trkpt><trkpt lat="40.9415067" lon="14.02579"><ele>-2.0</ele><time>2026-04-26T07:36:01.156Z</time></trkpt><trkpt lat="40.9414483" lon="14.0257467"><ele>-1.9999999999999998</ele><time>2026-04-26T07:36:02.156Z</time></trkpt><trkpt lat="40.94139" lon="14.0257033"><ele>-2.0</ele><time>2026-04-26T07:36:03.156Z</time></trkpt><trkpt lat="40.94133" lon="14.0256567"><ele>-2.0</ele><time>2026-04-26T07:36:04.167Z</time></trkpt><trkpt lat="40.94127" lon="14.0256117"><ele>-1.9999999999999998</ele><time>2026-04-26T07:36:05.157Z</time></trkpt><trkpt lat="40.941205" lon="14.025565"><ele>-2.0</ele><time>2026-04-26T07:36:06.158Z</time></trkpt><trkpt lat="40.9411417" lon="14.0255133"><ele>-2.0</ele><time>2026-04-26T07:36:07.158Z</time></trkpt><trkpt lat="40.9410783" lon="14.0254617"><ele>-2.0</ele><time>2026-04-26T07:36:08.156Z</time></trkpt><trkpt lat="40.9410167" lon="14.0254083"><ele>-1.9999999999999998</ele><time>2026-04-26T07:36:09.157Z</time></trkpt><trkpt lat="40.9409567" lon="14.0253517"><ele>-2.0</ele><time>2026-04-26T07:36:10.156Z</time></trkpt><trkpt lat="40.9408967" lon="14.025295"><ele>-2.0</ele><time>2026-04-26T07:36:11.156Z</time></trkpt><trkpt lat="40.9408383" lon="14.025235"><ele>-1.9999999999999998</ele><time>2026-04-26T07:36:12.157Z</time></trkpt><trkpt lat="40.9407817" lon="14.0251717"><ele>-2.0</ele><time>2026-04-26T07:36:13.158Z</time></trkpt><trkpt lat="40.9407267" lon="14.0251067"><ele>-2.0</ele><time>2026-04-26T07:36:14.156Z</time></trkpt><trkpt lat="40.940675" lon="14.0250417"><ele>-2.0</ele><time>2026-04-26T07:36:15.156Z</time></trkpt><trkpt lat="40.9406217" lon="14.0249783"><ele>-1.9999999999999998</ele><time>2026-04-26T07:36:16.156Z</time></trkpt><trkpt lat="40.9405683" lon="14.0249133"><ele>-2.0</ele><time>2026-04-26T07:36:17.157Z</time></trkpt><trkpt lat="40.940515" lon="14.0248467"><ele>-2.0</ele><time>2026-04-26T07:36:18.157Z</time></trkpt><trkpt lat="40.9404617" lon="14.0247783"><ele>-1.9999999999999998</ele><time>2026-04-26T07:36:19.157Z</time></trkpt><trkpt lat="40.94041" lon="14.0247117"><ele>-2.0</ele><time>2026-04-26T07:36:20.158Z</time></trkpt><trkpt lat="40.94036" lon="14.0246417"><ele>-2.0</ele><time>2026-04-26T07:36:21.156Z</time></trkpt><trkpt lat="40.9403117" lon="14.0245783"><ele>-2.0</ele><time>2026-04-26T07:36:22.158Z</time></trkpt><trkpt lat="40.9402583" lon="14.0245083"><ele>-1.9999999999999998</ele><time>2026-04-26T07:36:23.156Z</time></trkpt><trkpt lat="40.9402033" lon="14.0244483"><ele>-2.0</ele><time>2026-04-26T07:36:24.157Z</time></trkpt><trkpt lat="40.9401483" lon="14.02438"><ele>-2.0</ele><time>2026-04-26T07:36:25.156Z</time></trkpt><trkpt lat="40.9400933" lon="14.024315"><ele>-1.9999999999999998</ele><time>2026-04-26T07:36:26.158Z</time></trkpt><trkpt lat="40.940035" lon="14.02426"><ele>-2.0</ele><time>2026-04-26T07:36:27.157Z</time></trkpt><trkpt lat="40.939975" lon="14.02421"><ele>-2.0</ele><time>2026-04-26T07:36:28.157Z</time></trkpt><trkpt lat="40.9399133" lon="14.024165"><ele>-1.857142857142857</ele><time>2026-04-26T07:36:29.156Z</time></trkpt><trkpt lat="40.9398483" lon="14.0241233"><ele>-1.714285714285714</ele><time>2026-04-26T07:36:30.157Z</time></trkpt><trkpt lat="40.9397817" lon="14.0240867"><ele>-1.5714285714285714</ele><time>2026-04-26T07:36:31.156Z</time></trkpt><trkpt lat="40.9397183" lon="14.02405"><ele>-1.4285714285714284</ele><time>2026-04-26T07:36:32.157Z</time></trkpt><trkpt lat="40.9396533" lon="14.0240133"><ele>-1.2857142857142856</ele><time>2026-04-26T07:36:33.156Z</time></trkpt><trkpt lat="40.93959" lon="14.023975"><ele>-1.1428571428571428</ele><time>2026-04-26T07:36:34.157Z</time></trkpt><trkpt lat="40.939525" lon="14.0239367"><ele>-1.0</ele><time>2026-04-26T07:36:35.157Z</time></trkpt><trkpt lat="40.9394633" lon="14.0239017"><ele>-0.9999999999999999</ele><time>2026-04-26T07:36:36.156Z</time></trkpt><trkpt lat="40.9394" lon="14.02387"><ele>-1.0</ele><time>2026-04-26T07:36:37.157Z</time></trkpt><trkpt lat="40.9393383" lon="14.023835"><ele>-1.0</ele><time>2026-04-26T07:36:38.16Z</time></trkpt><trkpt lat="40.93928" lon="14.02379"><ele>-1.0</ele><time>2026-04-26T07:36:39.158Z</time></trkpt><trkpt lat="40.93923" lon="14.0237383"><ele>-0.9999999999999999</ele><time>2026-04-26T07:36:40.157Z</time></trkpt><trkpt lat="40.9391783" lon="14.0236033"><ele>-1.0</ele><time>2026-04-26T07:36:42.157Z</time></trkpt><trkpt lat="40.9392183" lon="14.0234583"><ele>-0.9999999999999999</ele><time>2026-04-26T07:36:44.156Z</time></trkpt><trkpt lat="40.9392533" lon="14.0233883"><ele>-1.0</ele><time>2026-04-26T07:36:45.157Z</time></trkpt><trkpt lat="40.9393217" lon="14.0232467"><ele>-1.0</ele><time>2026-04-26T07:36:47.159Z</time></trkpt><trkpt lat="40.939355" lon="14.0231717"><ele>-1.0</ele><time>2026-04-26T07:36:48.156Z</time></trkpt><trkpt lat="40.93939" lon="14.0230983"><ele>-0.9999999999999999</ele><time>2026-04-26T07:36:49.157Z</time></trkpt><trkpt lat="40.9394267" lon="14.0230217"><ele>-1.0</ele><time>2026-04-26T07:36:50.157Z</time></trkpt><trkpt lat="40.9394633" lon="14.0229467"><ele>-0.8333333333333333</ele><time>2026-04-26T07:36:51.156Z</time></trkpt><trkpt lat="40.9394983" lon="14.022865"><ele>-0.6666666666666666</ele><time>2026-04-26T07:36:52.156Z</time></trkpt><trkpt lat="40.9395317" lon="14.0227867"><ele>-0.5</ele><time>2026-04-26T07:36:53.156Z</time></trkpt><trkpt lat="40.9395717" lon="14.022705"><ele>-0.3333333333333333</ele><time>2026-04-26T07:36:54.161Z</time></trkpt><trkpt lat="40.9396083" lon="14.0226233"><ele>-0.16666666666666666</ele><time>2026-04-26T07:36:55.158Z</time></trkpt><trkpt lat="40.93968" lon="14.0224717"><ele>0.0</ele><time>2026-04-26T07:36:57.157Z</time></trkpt><trkpt lat="40.939715" lon="14.0223967"><ele>0.0</ele><time>2026-04-26T07:36:58.157Z</time></trkpt><trkpt lat="40.9397467" lon="14.0223167"><ele>0.0</ele><time>2026-04-26T07:36:59.161Z</time></trkpt><trkpt lat="40.939775" lon="14.02224"><ele>0.0</ele><time>2026-04-26T07:37:00.203Z</time></trkpt><trkpt lat="40.93984" lon="14.0220717"><ele>0.0</ele><time>2026-04-26T07:37:02.159Z</time></trkpt><trkpt lat="40.9399133" lon="14.0219167"><ele>0.0</ele><time>2026-04-26T07:37:04.158Z</time></trkpt><trkpt lat="40.9399683" lon="14.021765"><ele>0.0</ele><time>2026-04-26T07:37:06.158Z</time></trkpt><trkpt lat="40.9400017" lon="14.02169"><ele>0.0</ele><time>2026-04-26T07:37:07.157Z</time></trkpt><trkpt lat="40.940035" lon="14.02161"><ele>0.0</ele><time>2026-04-26T07:37:08.161Z</time></trkpt><trkpt lat="40.940065" lon="14.02153"><ele>0.0</ele><time>2026-04-26T07:37:09.157Z</time></trkpt><trkpt lat="40.9401233" lon="14.0213833"><ele>0.0</ele><time>2026-04-26T07:37:11.159Z</time></trkpt><trkpt lat="40.9401833" lon="14.0212467"><ele>0.0</ele><time>2026-04-26T07:37:13.16Z</time></trkpt><trkpt lat="40.9402817" lon="14.0210383"><ele>0.2</ele><time>2026-04-26T07:37:16.159Z</time></trkpt><trkpt lat="40.9403317" lon="14.0209017"><ele>0.4</ele><time>2026-04-26T07:37:18.158Z</time></trkpt><trkpt lat="40.9403867" lon="14.0207717"><ele>0.6000000000000001</ele><time>2026-04-26T07:37:20.157Z</time></trkpt><trkpt lat="40.940445" lon="14.020655"><ele>0.8</ele><time>2026-04-26T07:37:22.157Z</time></trkpt><trkpt lat="40.9405017" lon="14.0205467"><ele>1.0</ele><time>2026-04-26T07:37:24.156Z</time></trkpt><trkpt lat="40.9405733" lon="14.0204467"><ele>1.0</ele><time>2026-04-26T07:37:26.157Z</time></trkpt><trkpt lat="40.94066" lon="14.0203617"><ele>1.0</ele><time>2026-04-26T07:37:28.161Z</time></trkpt><trkpt lat="40.9407583" lon="14.0203117"><ele>1.0</ele><time>2026-04-26T07:37:30.156Z</time></trkpt><trkpt lat="40.9408717" lon="14.0202483"><ele>1.0</ele><time>2026-04-26T07:37:32.157Z</time></trkpt><trkpt lat="40.940965" lon="14.0201433"><ele>0.9999999999999999</ele><time>2026-04-26T07:37:34.156Z</time></trkpt><trkpt lat="40.941015" lon="14.0199967"><ele>1.0</ele><time>2026-04-26T07:37:36.157Z</time></trkpt><trkpt lat="40.9410233" lon="14.0199117"><ele>1.0</ele><time>2026-04-26T07:37:37.157Z</time></trkpt><trkpt lat="40.9410317" lon="14.0198233"><ele>1.0</ele><time>2026-04-26T07:37:38.157Z</time></trkpt><trkpt lat="40.9410367" lon="14.0197283"><ele>0.9999999999999999</ele><time>2026-04-26T07:37:39.157Z</time></trkpt><trkpt lat="40.94104" lon="14.01963"><ele>1.0</ele><time>2026-04-26T07:37:40.156Z</time></trkpt><trkpt lat="40.94104" lon="14.019535"><ele>0.8571428571428571</ele><time>2026-04-26T07:37:41.157Z</time></trkpt><trkpt lat="40.9410367" lon="14.01944"><ele>0.7142857142857142</ele><time>2026-04-26T07:37:42.156Z</time></trkpt><trkpt lat="40.9410333" lon="14.0193433"><ele>0.5714285714285714</ele><time>2026-04-26T07:37:43.156Z</time></trkpt><trkpt lat="40.9410317" lon="14.0192467"><ele>0.42857142857142855</ele><time>2026-04-26T07:37:44.157Z</time></trkpt><trkpt lat="40.94103" lon="14.0191467"><ele>0.2857142857142857</ele><time>2026-04-26T07:37:45.157Z</time></trkpt><trkpt lat="40.94103" lon="14.0190483"><ele>0.14285714285714285</ele><time>2026-04-26T07:37:46.156Z</time></trkpt><trkpt lat="40.9410267" lon="14.0189517"><ele>0.0</ele><time>2026-04-26T07:37:47.157Z</time></trkpt><trkpt lat="40.941025" lon="14.018855"><ele>0.3333333333333333</ele><time>2026-04-26T07:37:48.157Z</time></trkpt><trkpt lat="40.9410233" lon="14.0187633"><ele>0.6666666666666666</ele><time>2026-04-26T07:37:49.157Z</time></trkpt><trkpt lat="40.9410267" lon="14.0186717"><ele>1.0</ele><time>2026-04-26T07:37:50.158Z</time></trkpt><trkpt lat="40.941025" lon="14.018585"><ele>1.3333333333333333</ele><time>2026-04-26T07:37:51.158Z</time></trkpt><trkpt lat="40.9410233" lon="14.0185"><ele>1.6666666666666665</ele><time>2026-04-26T07:37:52.157Z</time></trkpt><trkpt lat="40.94102" lon="14.0183367"><ele>2.0</ele><time>2026-04-26T07:37:54.158Z</time></trkpt><trkpt lat="40.9410217" lon="14.0182533"><ele>2.75</ele><time>2026-04-26T07:37:55.156Z</time></trkpt><trkpt lat="40.9410233" lon="14.0180933"><ele>3.5</ele><time>2026-04-26T07:37:57.158Z</time></trkpt><trkpt lat="40.9410233" lon="14.0179333"><ele>4.25</ele><time>2026-04-26T07:37:59.157Z</time></trkpt><trkpt lat="40.9410283" lon="14.0177833"><ele>5.0</ele><time>2026-04-26T07:38:01.158Z</time></trkpt><trkpt lat="40.9410417" lon="14.0176317"><ele>5.0</ele><time>2026-04-26T07:38:03.158Z</time></trkpt><trkpt lat="40.9410367" lon="14.01751"><ele>5.0</ele><time>2026-04-26T07:38:05.156Z</time></trkpt><trkpt lat="40.9409667" lon="14.0174483"><ele>5.0</ele><time>2026-04-26T07:38:08.156Z</time></trkpt><trkpt lat="40.9409" lon="14.0174433"><ele>5.0</ele><time>2026-04-26T07:38:10.156Z</time></trkpt><trkpt lat="40.9408167" lon="14.0174483"><ele>5.0</ele><time>2026-04-26T07:38:12.157Z</time></trkpt><trkpt lat="40.9407233" lon="14.0174917"><ele>5.0</ele><time>2026-04-26T07:38:14.157Z</time></trkpt><trkpt lat="40.9406283" lon="14.01757"><ele>5.2</ele><time>2026-04-26T07:38:16.156Z</time></trkpt><trkpt lat="40.9405233" lon="14.0176467"><ele>5.4</ele><time>2026-04-26T07:38:18.157Z</time></trkpt><trkpt lat="40.9404133" lon="14.0177233"><ele>5.6</ele><time>2026-04-26T07:38:20.158Z</time></trkpt><trkpt lat="40.9403" lon="14.017805"><ele>5.8</ele><time>2026-04-26T07:38:22.157Z</time></trkpt><trkpt lat="40.9402433" lon="14.0178433"><ele>6.0</ele><time>2026-04-26T07:38:23.157Z</time></trkpt><trkpt lat="40.940185" lon="14.01788"><ele>5.999999999999999</ele><time>2026-04-26T07:38:24.156Z</time></trkpt><trkpt lat="40.9401267" lon="14.0179183"><ele>6.0</ele><time>2026-04-26T07:38:25.156Z</time></trkpt><trkpt lat="40.9400683" lon="14.0179583"><ele>6.0</ele><time>2026-04-26T07:38:26.158Z</time></trkpt><trkpt lat="40.94001" lon="14.0179967"><ele>6.0</ele><time>2026-04-26T07:38:27.157Z</time></trkpt><trkpt lat="40.9399483" lon="14.0180367"><ele>6.0</ele><time>2026-04-26T07:38:28.156Z</time></trkpt><trkpt lat="40.9398883" lon="14.0180733"><ele>5.999999999999999</ele><time>2026-04-26T07:38:29.157Z</time></trkpt><trkpt lat="40.9398267" lon="14.0181083"><ele>6.0</ele><time>2026-04-26T07:38:30.158Z</time></trkpt><trkpt lat="40.9397667" lon="14.0181433"><ele>5.857142857142857</ele><time>2026-04-26T07:38:31.157Z</time></trkpt><trkpt lat="40.9397067" lon="14.01818"><ele>5.714285714285714</ele><time>2026-04-26T07:38:32.158Z</time></trkpt><trkpt lat="40.9396467" lon="14.0182183"><ele>5.571428571428571</ele><time>2026-04-26T07:38:33.156Z</time></trkpt><trkpt lat="40.9395867" lon="14.01826"><ele>5.428571428571429</ele><time>2026-04-26T07:38:34.155Z</time></trkpt><trkpt lat="40.939525" lon="14.018295"><ele>5.285714285714286</ele><time>2026-04-26T07:38:35.155Z</time></trkpt><trkpt lat="40.9394633" lon="14.0183317"><ele>5.142857142857142</ele><time>2026-04-26T07:38:36.156Z</time></trkpt><trkpt lat="40.9394033" lon="14.0183667"><ele>5.0</ele><time>2026-04-26T07:38:37.155Z</time></trkpt><trkpt lat="40.93934" lon="14.0184033"><ele>5.0</ele><time>2026-04-26T07:38:38.157Z</time></trkpt><trkpt lat="40.9392767" lon="14.01844"><ele>5.0</ele><time>2026-04-26T07:38:39.156Z</time></trkpt><trkpt lat="40.9392167" lon="14.0184817"><ele>5.0</ele><time>2026-04-26T07:38:40.155Z</time></trkpt><trkpt lat="40.9391583" lon="14.018525"><ele>5.0</ele><time>2026-04-26T07:38:41.156Z</time></trkpt><trkpt lat="40.9391" lon="14.01856"><ele>5.0</ele><time>2026-04-26T07:38:42.155Z</time></trkpt><trkpt lat="40.9390367" lon="14.0185917"><ele>5.0</ele><time>2026-04-26T07:38:43.156Z</time></trkpt><trkpt lat="40.9389767" lon="14.0186233"><ele>5.0</ele><time>2026-04-26T07:38:44.156Z</time></trkpt><trkpt lat="40.9389167" lon="14.0186567"><ele>5.428571428571429</ele><time>2026-04-26T07:38:45.155Z</time></trkpt><trkpt lat="40.938855" lon="14.01869"><ele>5.857142857142858</ele><time>2026-04-26T07:38:46.155Z</time></trkpt><trkpt lat="40.9387933" lon="14.0187283"><ele>6.285714285714286</ele><time>2026-04-26T07:38:47.156Z</time></trkpt><trkpt lat="40.9387317" lon="14.0187717"><ele>6.7142857142857135</ele><time>2026-04-26T07:38:48.155Z</time></trkpt><trkpt lat="40.9386683" lon="14.018815"><ele>7.142857142857142</ele><time>2026-04-26T07:38:49.156Z</time></trkpt><trkpt lat="40.9386067" lon="14.0188533"><ele>7.571428571428571</ele><time>2026-04-26T07:38:50.156Z</time></trkpt><trkpt lat="40.93854" lon="14.01889"><ele>8.0</ele><time>2026-04-26T07:38:51.156Z</time></trkpt><trkpt lat="40.9384733" lon="14.018925"><ele>8.0</ele><time>2026-04-26T07:38:52.155Z</time></trkpt><trkpt lat="40.93841" lon="14.01896"><ele>7.999999999999999</ele><time>2026-04-26T07:38:53.155Z</time></trkpt><trkpt lat="40.9383433" lon="14.018995"><ele>8.0</ele><time>2026-04-26T07:38:54.155Z</time></trkpt><trkpt lat="40.93828" lon="14.0190333"><ele>8.0</ele><time>2026-04-26T07:38:55.156Z</time></trkpt><trkpt lat="40.9382167" lon="14.019075"><ele>7.999999999999999</ele><time>2026-04-26T07:38:56.158Z</time></trkpt><trkpt lat="40.9381533" lon="14.0191133"><ele>8.0</ele><time>2026-04-26T07:38:57.156Z</time></trkpt><trkpt lat="40.9380867" lon="14.0191533"><ele>8.0</ele><time>2026-04-26T07:38:58.156Z</time></trkpt><trkpt lat="40.93802" lon="14.0191933"><ele>7.571428571428571</ele><time>2026-04-26T07:38:59.156Z</time></trkpt><trkpt lat="40.937955" lon="14.01923"><ele>7.142857142857142</ele><time>2026-04-26T07:39:00.156Z</time></trkpt><trkpt lat="40.9378883" lon="14.0192617"><ele>6.7142857142857135</ele><time>2026-04-26T07:39:01.156Z</time></trkpt><trkpt lat="40.9378183" lon="14.0192933"><ele>6.285714285714286</ele><time>2026-04-26T07:39:02.156Z</time></trkpt><trkpt lat="40.9377533" lon="14.01933"><ele>5.857142857142858</ele><time>2026-04-26T07:39:03.155Z</time></trkpt><trkpt lat="40.9376917" lon="14.0193683"><ele>5.428571428571429</ele><time>2026-04-26T07:39:04.155Z</time></trkpt><trkpt lat="40.9376283" lon="14.0194033"><ele>5.0</ele><time>2026-04-26T07:39:05.156Z</time></trkpt><trkpt lat="40.937565" lon="14.0194417"><ele>5.714285714285714</ele><time>2026-04-26T07:39:06.156Z</time></trkpt><trkpt lat="40.9375" lon="14.0194767"><ele>6.428571428571429</ele><time>2026-04-26T07:39:07.156Z</time></trkpt><trkpt lat="40.937435" lon="14.0195117"><ele>7.142857142857142</ele><time>2026-04-26T07:39:08.155Z</time></trkpt><trkpt lat="40.9373683" lon="14.0195483"><ele>7.857142857142858</ele><time>2026-04-26T07:39:09.155Z</time></trkpt><trkpt lat="40.9373" lon="14.0195867"><ele>8.571428571428571</ele><time>2026-04-26T07:39:10.155Z</time></trkpt><trkpt lat="40.937235" lon="14.019625"><ele>9.285714285714285</ele><time>2026-04-26T07:39:11.155Z</time></trkpt><trkpt lat="40.9371717" lon="14.019665"><ele>10.0</ele><time>2026-04-26T07:39:12.155Z</time></trkpt><trkpt lat="40.9371067" lon="14.019705"><ele>10.0</ele><time>2026-04-26T07:39:13.156Z</time></trkpt><trkpt lat="40.9370383" lon="14.019745"><ele>10.0</ele><time>2026-04-26T07:39:14.156Z</time></trkpt><trkpt lat="40.93697" lon="14.019785"><ele>10.0</ele><time>2026-04-26T07:39:15.155Z</time></trkpt><trkpt lat="40.936905" lon="14.0198283"><ele>10.0</ele><time>2026-04-26T07:39:16.155Z</time></trkpt><trkpt lat="40.93684" lon="14.0198683"><ele>10.0</ele><time>2026-04-26T07:39:17.156Z</time></trkpt><trkpt lat="40.9367717" lon="14.019905"><ele>10.0</ele><time>2026-04-26T07:39:18.155Z</time></trkpt><trkpt lat="40.936705" lon="14.0199383"><ele>10.0</ele><time>2026-04-26T07:39:19.155Z</time></trkpt><trkpt lat="40.936645" lon="14.019965"><ele>9.285714285714285</ele><time>2026-04-26T07:39:20.156Z</time></trkpt><trkpt lat="40.9365767" lon="14.0200033"><ele>8.571428571428571</ele><time>2026-04-26T07:39:21.156Z</time></trkpt><trkpt lat="40.9365083" lon="14.0200417"><ele>7.857142857142858</ele><time>2026-04-26T07:39:22.155Z</time></trkpt><trkpt lat="40.93644" lon="14.0200783"><ele>7.142857142857142</ele><time>2026-04-26T07:39:23.156Z</time></trkpt><trkpt lat="40.9363717" lon="14.0201117"><ele>6.428571428571429</ele><time>2026-04-26T07:39:24.155Z</time></trkpt><trkpt lat="40.936305" lon="14.020145"><ele>5.714285714285714</ele><time>2026-04-26T07:39:25.155Z</time></trkpt><trkpt lat="40.9362417" lon="14.0201817"><ele>5.0</ele><time>2026-04-26T07:39:26.156Z</time></trkpt><trkpt lat="40.9361783" lon="14.0202217"><ele>5.0</ele><time>2026-04-26T07:39:27.155Z</time></trkpt><trkpt lat="40.9361167" lon="14.0202633"><ele>5.0</ele><time>2026-04-26T07:39:28.156Z</time></trkpt><trkpt lat="40.9360533" lon="14.0203033"><ele>5.0</ele><time>2026-04-26T07:39:29.156Z</time></trkpt><trkpt lat="40.9359883" lon="14.0203467"><ele>5.0</ele><time>2026-04-26T07:39:30.155Z</time></trkpt><trkpt lat="40.9359217" lon="14.0203867"><ele>5.0</ele><time>2026-04-26T07:39:31.157Z</time></trkpt><trkpt lat="40.9358567" lon="14.0204283"><ele>5.0</ele><time>2026-04-26T07:39:32.155Z</time></trkpt><trkpt lat="40.9357933" lon="14.0204733"><ele>5.0</ele><time>2026-04-26T07:39:33.155Z</time></trkpt><trkpt lat="40.9357283" lon="14.020515"><ele>5.666666666666667</ele><time>2026-04-26T07:39:34.155Z</time></trkpt><trkpt lat="40.93566" lon="14.0205517"><ele>6.333333333333334</ele><time>2026-04-26T07:39:35.155Z</time></trkpt><trkpt lat="40.93559" lon="14.02059"><ele>7.0</ele><time>2026-04-26T07:39:36.157Z</time></trkpt><trkpt lat="40.9355167" lon="14.02063"><ele>7.666666666666667</ele><time>2026-04-26T07:39:37.156Z</time></trkpt><trkpt lat="40.935445" lon="14.0206683"><ele>8.333333333333334</ele><time>2026-04-26T07:39:38.156Z</time></trkpt><trkpt lat="40.935375" lon="14.0207067"><ele>9.0</ele><time>2026-04-26T07:39:39.156Z</time></trkpt><trkpt lat="40.935305" lon="14.020745"><ele>9.0</ele><time>2026-04-26T07:39:40.156Z</time></trkpt><trkpt lat="40.9352383" lon="14.0207817"><ele>9.0</ele><time>2026-04-26T07:39:41.155Z</time></trkpt><trkpt lat="40.9351667" lon="14.0208183"><ele>9.0</ele><time>2026-04-26T07:39:42.156Z</time></trkpt><trkpt lat="40.9350967" lon="14.02086"><ele>9.0</ele><time>2026-04-26T07:39:43.155Z</time></trkpt><trkpt lat="40.93503" lon="14.0209067"><ele>9.0</ele><time>2026-04-26T07:39:44.159Z</time></trkpt><trkpt lat="40.9349617" lon="14.0209483"><ele>9.0</ele><time>2026-04-26T07:39:45.155Z</time></trkpt><trkpt lat="40.9348917" lon="14.0209833"><ele>8.857142857142858</ele><time>2026-04-26T07:39:46.156Z</time></trkpt><trkpt lat="40.9348217" lon="14.021025"><ele>8.714285714285715</ele><time>2026-04-26T07:39:47.156Z</time></trkpt><trkpt lat="40.934755" lon="14.0210683"><ele>8.571428571428571</ele><time>2026-04-26T07:39:48.157Z</time></trkpt><trkpt lat="40.9346883" lon="14.0211117"><ele>8.428571428571429</ele><time>2026-04-26T07:39:49.156Z</time></trkpt><trkpt lat="40.9346217" lon="14.021155"><ele>8.285714285714285</ele><time>2026-04-26T07:39:50.156Z</time></trkpt><trkpt lat="40.934555" lon="14.0212"><ele>8.142857142857142</ele><time>2026-04-26T07:39:51.157Z</time></trkpt><trkpt lat="40.9344883" lon="14.0212433"><ele>8.0</ele><time>2026-04-26T07:39:52.155Z</time></trkpt><trkpt lat="40.9344183" lon="14.02128"><ele>7.999999999999999</ele><time>2026-04-26T07:39:53.157Z</time></trkpt><trkpt lat="40.934345" lon="14.0213133"><ele>8.0</ele><time>2026-04-26T07:39:54.155Z</time></trkpt><trkpt lat="40.9342767" lon="14.0213533"><ele>8.0</ele><time>2026-04-26T07:39:55.155Z</time></trkpt><trkpt lat="40.934205" lon="14.021395"><ele>8.0</ele><time>2026-04-26T07:39:56.156Z</time></trkpt><trkpt lat="40.934135" lon="14.0214383"><ele>7.999999999999999</ele><time>2026-04-26T07:39:57.157Z</time></trkpt><trkpt lat="40.9340617" lon="14.0214783"><ele>8.0</ele><time>2026-04-26T07:39:58.156Z</time></trkpt><trkpt lat="40.9339867" lon="14.0215133"><ele>8.333333333333332</ele><time>2026-04-26T07:39:59.156Z</time></trkpt><trkpt lat="40.933915" lon="14.0215517"><ele>8.666666666666666</ele><time>2026-04-26T07:40:00.155Z</time></trkpt><trkpt lat="40.9338467" lon="14.0215917"><ele>9.0</ele><time>2026-04-26T07:40:01.157Z</time></trkpt><trkpt lat="40.9337767" lon="14.021635"><ele>9.333333333333334</ele><time>2026-04-26T07:40:02.157Z</time></trkpt><trkpt lat="40.9337067" lon="14.0216783"><ele>9.666666666666668</ele><time>2026-04-26T07:40:03.156Z</time></trkpt><trkpt lat="40.933635" lon="14.02172"><ele>10.0</ele><time>2026-04-26T07:40:04.156Z</time></trkpt><trkpt lat="40.9335633" lon="14.0217633"><ele>9.0</ele><time>2026-04-26T07:40:05.156Z</time></trkpt><trkpt lat="40.93349" lon="14.0218033"><ele>8.0</ele><time>2026-04-26T07:40:06.157Z</time></trkpt><trkpt lat="40.9334183" lon="14.021845"><ele>7.0</ele><time>2026-04-26T07:40:07.155Z</time></trkpt><trkpt lat="40.933345" lon="14.0218883"><ele>6.0</ele><time>2026-04-26T07:40:08.157Z</time></trkpt><trkpt lat="40.933275" lon="14.0219317"><ele>5.0</ele><time>2026-04-26T07:40:09.155Z</time></trkpt><trkpt lat="40.9332017" lon="14.02197"><ele>4.0</ele><time>2026-04-26T07:40:10.157Z</time></trkpt><trkpt lat="40.9331317" lon="14.0220133"><ele>3.9999999999999996</ele><time>2026-04-26T07:40:11.156Z</time></trkpt><trkpt lat="40.93306" lon="14.022055"><ele>4.0</ele><time>2026-04-26T07:40:12.157Z</time></trkpt><trkpt lat="40.93299" lon="14.022095"><ele>4.0</ele><time>2026-04-26T07:40:13.155Z</time></trkpt><trkpt lat="40.93292" lon="14.0221333"><ele>4.0</ele><time>2026-04-26T07:40:14.156Z</time></trkpt><trkpt lat="40.9328517" lon="14.02217"><ele>3.9999999999999996</ele><time>2026-04-26T07:40:15.157Z</time></trkpt><trkpt lat="40.9327817" lon="14.022205"><ele>4.0</ele><time>2026-04-26T07:40:16.155Z</time></trkpt><trkpt lat="40.932715" lon="14.0222433"><ele>4.0</ele><time>2026-04-26T07:40:17.155Z</time></trkpt><trkpt lat="40.9326517" lon="14.022285"><ele>3.9999999999999996</ele><time>2026-04-26T07:40:18.157Z</time></trkpt><trkpt lat="40.9325867" lon="14.0223217"><ele>4.0</ele><time>2026-04-26T07:40:19.156Z</time></trkpt><trkpt lat="40.9325167" lon="14.02236"><ele>4.0</ele><time>2026-04-26T07:40:20.157Z</time></trkpt><trkpt lat="40.9324467" lon="14.0224"><ele>3.9999999999999996</ele><time>2026-04-26T07:40:21.155Z</time></trkpt><trkpt lat="40.932375" lon="14.02244"><ele>4.0</ele><time>2026-04-26T07:40:22.155Z</time></trkpt><trkpt lat="40.932305" lon="14.02248"><ele>4.0</ele><time>2026-04-26T07:40:23.156Z</time></trkpt><trkpt lat="40.9322333" lon="14.0225167"><ele>4.666666666666666</ele><time>2026-04-26T07:40:24.156Z</time></trkpt><trkpt lat="40.93216" lon="14.022555"><ele>5.333333333333333</ele><time>2026-04-26T07:40:25.158Z</time></trkpt><trkpt lat="40.9320867" lon="14.0225967"><ele>6.0</ele><time>2026-04-26T07:40:26.157Z</time></trkpt><trkpt lat="40.9320133" lon="14.02264"><ele>6.666666666666666</ele><time>2026-04-26T07:40:27.157Z</time></trkpt><trkpt lat="40.9319417" lon="14.0226783"><ele>7.333333333333333</ele><time>2026-04-26T07:40:28.157Z</time></trkpt><trkpt lat="40.93187" lon="14.022715"><ele>8.0</ele><time>2026-04-26T07:40:29.155Z</time></trkpt><trkpt lat="40.9317983" lon="14.0227567"><ele>7.999999999999999</ele><time>2026-04-26T07:40:30.158Z</time></trkpt><trkpt lat="40.9317317" lon="14.0227967"><ele>8.0</ele><time>2026-04-26T07:40:31.156Z</time></trkpt><trkpt lat="40.9316617" lon="14.0228383"><ele>8.0</ele><time>2026-04-26T07:40:32.156Z</time></trkpt><trkpt lat="40.9315967" lon="14.0228817"><ele>8.0</ele><time>2026-04-26T07:40:33.156Z</time></trkpt><trkpt lat="40.9315317" lon="14.0229267"><ele>7.999999999999999</ele><time>2026-04-26T07:40:34.155Z</time></trkpt><trkpt lat="40.9314667" lon="14.0229717"><ele>8.0</ele><time>2026-04-26T07:40:35.155Z</time></trkpt><trkpt lat="40.9313933" lon="14.0230167"><ele>8.5</ele><time>2026-04-26T07:40:36.157Z</time></trkpt><trkpt lat="40.9313233" lon="14.0230633"><ele>9.0</ele><time>2026-04-26T07:40:37.156Z</time></trkpt><trkpt lat="40.9312533" lon="14.0231033"><ele>9.5</ele><time>2026-04-26T07:40:38.157Z</time></trkpt><trkpt lat="40.9311833" lon="14.023145"><ele>10.0</ele><time>2026-04-26T07:40:39.156Z</time></trkpt><trkpt lat="40.9311117" lon="14.0231833"><ele>10.5</ele><time>2026-04-26T07:40:40.156Z</time></trkpt><trkpt lat="40.931045" lon="14.0232217"><ele>11.0</ele><time>2026-04-26T07:40:41.156Z</time></trkpt><trkpt lat="40.9309767" lon="14.0232617"><ele>11.0</ele><time>2026-04-26T07:40:42.155Z</time></trkpt><trkpt lat="40.93091" lon="14.0233"><ele>11.0</ele><time>2026-04-26T07:40:43.155Z</time></trkpt><trkpt lat="40.9308417" lon="14.0233383"><ele>11.0</ele><time>2026-04-26T07:40:44.156Z</time></trkpt><trkpt lat="40.930775" lon="14.0233733"><ele>11.0</ele><time>2026-04-26T07:40:45.156Z</time></trkpt><trkpt lat="40.930705" lon="14.0234067"><ele>11.0</ele><time>2026-04-26T07:40:46.156Z</time></trkpt><trkpt lat="40.9306367" lon="14.02344"><ele>11.0</ele><time>2026-04-26T07:40:47.155Z</time></trkpt><trkpt lat="40.9305633" lon="14.0234717"><ele>11.0</ele><time>2026-04-26T07:40:48.156Z</time></trkpt><trkpt lat="40.9304917" lon="14.0235083"><ele>10.5</ele><time>2026-04-26T07:40:49.157Z</time></trkpt><trkpt lat="40.9304267" lon="14.0235483"><ele>10.0</ele><time>2026-04-26T07:40:50.156Z</time></trkpt><trkpt lat="40.9303533" lon="14.023585"><ele>9.5</ele><time>2026-04-26T07:40:51.156Z</time></trkpt><trkpt lat="40.9302817" lon="14.0236217"><ele>9.0</ele><time>2026-04-26T07:40:52.156Z</time></trkpt><trkpt lat="40.9302117" lon="14.0236633"><ele>8.5</ele><time>2026-04-26T07:40:53.156Z</time></trkpt><trkpt lat="40.9301417" lon="14.0237067"><ele>8.0</ele><time>2026-04-26T07:40:54.157Z</time></trkpt><trkpt lat="40.9300733" lon="14.02375"><ele>8.5</ele><time>2026-04-26T07:40:55.155Z</time></trkpt><trkpt lat="40.9300033" lon="14.0237917"><ele>9.0</ele><time>2026-04-26T07:40:56.157Z</time></trkpt><trkpt lat="40.929935" lon="14.0238317"><ele>9.5</ele><time>2026-04-26T07:40:57.156Z</time></trkpt><trkpt lat="40.9298683" lon="14.0238767"><ele>10.0</ele><time>2026-04-26T07:40:58.155Z</time></trkpt><trkpt lat="40.9298" lon="14.023915"><ele>10.5</ele><time>2026-04-26T07:40:59.156Z</time></trkpt><trkpt lat="40.92973" lon="14.0239567"><ele>11.0</ele><time>2026-04-26T07:41:00.155Z</time></trkpt><trkpt lat="40.9296617" lon="14.0240017"><ele>11.0</ele><time>2026-04-26T07:41:01.157Z</time></trkpt><trkpt lat="40.9295917" lon="14.024045"><ele>11.0</ele><time>2026-04-26T07:41:02.156Z</time></trkpt><trkpt lat="40.9295233" lon="14.0240867"><ele>11.0</ele><time>2026-04-26T07:41:03.156Z</time></trkpt><trkpt lat="40.929455" lon="14.0241283"><ele>11.0</ele><time>2026-04-26T07:41:04.156Z</time></trkpt><trkpt lat="40.9293867" lon="14.0241683"><ele>11.0</ele><time>2026-04-26T07:41:05.155Z</time></trkpt><trkpt lat="40.9293183" lon="14.0242083"><ele>11.0</ele><time>2026-04-26T07:41:06.155Z</time></trkpt><trkpt lat="40.9292483" lon="14.0242483"><ele>11.0</ele><time>2026-04-26T07:41:07.156Z</time></trkpt><trkpt lat="40.9291767" lon="14.02429"><ele>11.0</ele><time>2026-04-26T07:41:08.156Z</time></trkpt><trkpt lat="40.9291067" lon="14.0243267"><ele>11.0</ele><time>2026-04-26T07:41:09.156Z</time></trkpt><trkpt lat="40.92904" lon="14.02436"><ele>11.0</ele><time>2026-04-26T07:41:10.156Z</time></trkpt><trkpt lat="40.928975" lon="14.024395"><ele>11.0</ele><time>2026-04-26T07:41:11.156Z</time></trkpt><trkpt lat="40.92891" lon="14.024425"><ele>11.0</ele><time>2026-04-26T07:41:12.156Z</time></trkpt><trkpt lat="40.9288417" lon="14.0244533"><ele>11.0</ele><time>2026-04-26T07:41:13.156Z</time></trkpt><trkpt lat="40.928775" lon="14.0244817"><ele>11.0</ele><time>2026-04-26T07:41:14.156Z</time></trkpt><trkpt lat="40.9287067" lon="14.0245117"><ele>11.0</ele><time>2026-04-26T07:41:15.157Z</time></trkpt><trkpt lat="40.9286383" lon="14.0245417"><ele>11.0</ele><time>2026-04-26T07:41:16.155Z</time></trkpt><trkpt lat="40.928565" lon="14.0245683"><ele>11.0</ele><time>2026-04-26T07:41:17.156Z</time></trkpt><trkpt lat="40.928495" lon="14.024595"><ele>11.0</ele><time>2026-04-26T07:41:18.155Z</time></trkpt><trkpt lat="40.928425" lon="14.02462"><ele>11.0</ele><time>2026-04-26T07:41:19.156Z</time></trkpt><trkpt lat="40.9283583" lon="14.024645"><ele>11.0</ele><time>2026-04-26T07:41:20.157Z</time></trkpt><trkpt lat="40.9282933" lon="14.02467"><ele>11.142857142857142</ele><time>2026-04-26T07:41:21.157Z</time></trkpt><trkpt lat="40.9282267" lon="14.02469"><ele>11.285714285714285</ele><time>2026-04-26T07:41:22.155Z</time></trkpt><trkpt lat="40.9281583" lon="14.024705"><ele>11.428571428571427</ele><time>2026-04-26T07:41:23.157Z</time></trkpt><trkpt lat="40.9280917" lon="14.0247183"><ele>11.571428571428571</ele><time>2026-04-26T07:41:24.158Z</time></trkpt><trkpt lat="40.9280233" lon="14.02473"><ele>11.714285714285714</ele><time>2026-04-26T07:41:25.156Z</time></trkpt><trkpt lat="40.9279583" lon="14.02474"><ele>11.857142857142856</ele><time>2026-04-26T07:41:26.157Z</time></trkpt><trkpt lat="40.9278933" lon="14.02475"><ele>12.0</ele><time>2026-04-26T07:41:27.155Z</time></trkpt><trkpt lat="40.927765" lon="14.0247667"><ele>11.999999999999998</ele><time>2026-04-26T07:41:29.156Z</time></trkpt><trkpt lat="40.9277017" lon="14.0247733"><ele>12.0</ele><time>2026-04-26T07:41:30.156Z</time></trkpt><trkpt lat="40.9275767" lon="14.0247933"><ele>12.0</ele><time>2026-04-26T07:41:32.157Z</time></trkpt><trkpt lat="40.9275133" lon="14.0248033"><ele>12.0</ele><time>2026-04-26T07:41:33.156Z</time></trkpt><trkpt lat="40.92745" lon="14.0248117"><ele>12.0</ele><time>2026-04-26T07:41:34.158Z</time></trkpt><trkpt lat="40.9273867" lon="14.0248217"><ele>11.999999999999998</ele><time>2026-04-26T07:41:35.157Z</time></trkpt><trkpt lat="40.92732" lon="14.0248283"><ele>12.0</ele><time>2026-04-26T07:41:36.157Z</time></trkpt><trkpt lat="40.9272533" lon="14.0248367"><ele>11.857142857142856</ele><time>2026-04-26T07:41:37.156Z</time></trkpt><trkpt lat="40.9271883" lon="14.024845"><ele>11.714285714285714</ele><time>2026-04-26T07:41:38.156Z</time></trkpt><trkpt lat="40.9271233" lon="14.0248533"><ele>11.571428571428571</ele><time>2026-04-26T07:41:39.156Z</time></trkpt><trkpt lat="40.9270567" lon="14.0248567"><ele>11.428571428571427</ele><time>2026-04-26T07:41:40.156Z</time></trkpt><trkpt lat="40.9269917" lon="14.02486"><ele>11.285714285714285</ele><time>2026-04-26T07:41:41.156Z</time></trkpt><trkpt lat="40.9269283" lon="14.0248583"><ele>11.142857142857142</ele><time>2026-04-26T07:41:42.155Z</time></trkpt><trkpt lat="40.9268617" lon="14.0248583"><ele>11.0</ele><time>2026-04-26T07:41:43.155Z</time></trkpt><trkpt lat="40.926795" lon="14.0248583"><ele>11.0</ele><time>2026-04-26T07:41:44.156Z</time></trkpt><trkpt lat="40.92673" lon="14.02486"><ele>11.0</ele><time>2026-04-26T07:41:45.157Z</time></trkpt><trkpt lat="40.926665" lon="14.0248617"><ele>11.0</ele><time>2026-04-26T07:41:46.155Z</time></trkpt><trkpt lat="40.9265983" lon="14.0248617"><ele>11.0</ele><time>2026-04-26T07:41:47.156Z</time></trkpt><trkpt lat="40.9265333" lon="14.02486"><ele>11.0</ele><time>2026-04-26T07:41:48.156Z</time></trkpt><trkpt lat="40.92647" lon="14.024855"><ele>11.0</ele><time>2026-04-26T07:41:49.156Z</time></trkpt><trkpt lat="40.926405" lon="14.024845"><ele>11.0</ele><time>2026-04-26T07:41:50.156Z</time></trkpt><trkpt lat="40.9263383" lon="14.0248417"><ele>11.0</ele><time>2026-04-26T07:41:51.156Z</time></trkpt><trkpt lat="40.9262683" lon="14.02484"><ele>11.0</ele><time>2026-04-26T07:41:52.156Z</time></trkpt><trkpt lat="40.9262017" lon="14.0248367"><ele>11.0</ele><time>2026-04-26T07:41:53.156Z</time></trkpt><trkpt lat="40.9261333" lon="14.0248333"><ele>11.0</ele><time>2026-04-26T07:41:54.155Z</time></trkpt><trkpt lat="40.9260667" lon="14.02483"><ele>11.0</ele><time>2026-04-26T07:41:55.155Z</time></trkpt><trkpt lat="40.926" lon="14.0248217"><ele>11.0</ele><time>2026-04-26T07:41:56.157Z</time></trkpt><trkpt lat="40.925935" lon="14.0248133"><ele>11.0</ele><time>2026-04-26T07:41:57.155Z</time></trkpt><trkpt lat="40.9258717" lon="14.0248017"><ele>11.142857142857142</ele><time>2026-04-26T07:41:58.156Z</time></trkpt><trkpt lat="40.9258033" lon="14.02479"><ele>11.285714285714285</ele><time>2026-04-26T07:41:59.157Z</time></trkpt><trkpt lat="40.9257383" lon="14.0247817"><ele>11.428571428571427</ele><time>2026-04-26T07:42:00.16Z</time></trkpt><trkpt lat="40.9256717" lon="14.0247783"><ele>11.571428571428571</ele><time>2026-04-26T07:42:01.156Z</time></trkpt><trkpt lat="40.9256017" lon="14.02477"><ele>11.714285714285714</ele><time>2026-04-26T07:42:02.156Z</time></trkpt><trkpt lat="40.925535" lon="14.0247617"><ele>11.857142857142856</ele><time>2026-04-26T07:42:03.156Z</time></trkpt><trkpt lat="40.9254683" lon="14.024755"><ele>12.0</ele><time>2026-04-26T07:42:04.156Z</time></trkpt><trkpt lat="40.9254033" lon="14.0247467"><ele>12.0</ele><time>2026-04-26T07:42:05.155Z</time></trkpt><trkpt lat="40.9253383" lon="14.0247417"><ele>12.0</ele><time>2026-04-26T07:42:06.156Z</time></trkpt><trkpt lat="40.925275" lon="14.0247383"><ele>12.0</ele><time>2026-04-26T07:42:07.156Z</time></trkpt><trkpt lat="40.9252117" lon="14.024735"><ele>12.0</ele><time>2026-04-26T07:42:08.156Z</time></trkpt><trkpt lat="40.9251483" lon="14.02473"><ele>12.0</ele><time>2026-04-26T07:42:09.155Z</time></trkpt><trkpt lat="40.925085" lon="14.0247233"><ele>12.0</ele><time>2026-04-26T07:42:10.156Z</time></trkpt><trkpt lat="40.9250217" lon="14.0247183"><ele>12.0</ele><time>2026-04-26T07:42:11.16Z</time></trkpt><trkpt lat="40.9249583" lon="14.0247133"><ele>12.0</ele><time>2026-04-26T07:42:12.156Z</time></trkpt><trkpt lat="40.9248933" lon="14.0247067"><ele>11.571428571428571</ele><time>2026-04-26T07:42:13.155Z</time></trkpt><trkpt lat="40.9248267" lon="14.0247017"><ele>11.142857142857142</ele><time>2026-04-26T07:42:14.157Z</time></trkpt><trkpt lat="40.924755" lon="14.0246967"><ele>10.714285714285715</ele><time>2026-04-26T07:42:15.157Z</time></trkpt><trkpt lat="40.924685" lon="14.02469"><ele>10.285714285714285</ele><time>2026-04-26T07:42:16.157Z</time></trkpt><trkpt lat="40.9246167" lon="14.0246833"><ele>9.857142857142858</ele><time>2026-04-26T07:42:17.155Z</time></trkpt><trkpt lat="40.9245467" lon="14.024675"><ele>9.428571428571429</ele><time>2026-04-26T07:42:18.156Z</time></trkpt><trkpt lat="40.9244783" lon="14.0246683"><ele>9.0</ele><time>2026-04-26T07:42:19.157Z</time></trkpt><trkpt lat="40.92441" lon="14.0246617"><ele>9.000000000000002</ele><time>2026-04-26T07:42:20.157Z</time></trkpt><trkpt lat="40.9243383" lon="14.0246583"><ele>9.0</ele><time>2026-04-26T07:42:21.155Z</time></trkpt><trkpt lat="40.9242683" lon="14.024655"><ele>9.0</ele><time>2026-04-26T07:42:22.157Z</time></trkpt><trkpt lat="40.9241967" lon="14.02465"><ele>9.0</ele><time>2026-04-26T07:42:23.158Z</time></trkpt><trkpt lat="40.924125" lon="14.0246417"><ele>9.0</ele><time>2026-04-26T07:42:24.157Z</time></trkpt><trkpt lat="40.9240517" lon="14.0246317"><ele>9.000000000000002</ele><time>2026-04-26T07:42:25.156Z</time></trkpt><trkpt lat="40.9239767" lon="14.0246267"><ele>9.0</ele><time>2026-04-26T07:42:26.156Z</time></trkpt><trkpt lat="40.923905" lon="14.02462"><ele>8.857142857142858</ele><time>2026-04-26T07:42:27.156Z</time></trkpt><trkpt lat="40.9238333" lon="14.0246133"><ele>8.714285714285715</ele><time>2026-04-26T07:42:28.156Z</time></trkpt><trkpt lat="40.92376" lon="14.02461"><ele>8.571428571428571</ele><time>2026-04-26T07:42:29.155Z</time></trkpt><trkpt lat="40.9236883" lon="14.0246067"><ele>8.428571428571429</ele><time>2026-04-26T07:42:30.157Z</time></trkpt><trkpt lat="40.9236217" lon="14.0246017"><ele>8.285714285714285</ele><time>2026-04-26T07:42:31.156Z</time></trkpt><trkpt lat="40.923555" lon="14.024595"><ele>8.142857142857142</ele><time>2026-04-26T07:42:32.155Z</time></trkpt><trkpt lat="40.9234883" lon="14.0245867"><ele>8.0</ele><time>2026-04-26T07:42:33.155Z</time></trkpt><trkpt lat="40.9234217" lon="14.0245817"><ele>7.428571428571428</ele><time>2026-04-26T07:42:34.157Z</time></trkpt><trkpt lat="40.9233533" lon="14.0245783"><ele>6.857142857142856</ele><time>2026-04-26T07:42:35.156Z</time></trkpt><trkpt lat="40.9232867" lon="14.02457"><ele>6.285714285714286</ele><time>2026-04-26T07:42:36.156Z</time></trkpt><trkpt lat="40.9232183" lon="14.0245667"><ele>5.7142857142857135</ele><time>2026-04-26T07:42:37.156Z</time></trkpt><trkpt lat="40.92315" lon="14.0245617"><ele>5.142857142857142</ele><time>2026-04-26T07:42:38.156Z</time></trkpt><trkpt lat="40.9230817" lon="14.0245583"><ele>4.571428571428571</ele><time>2026-04-26T07:42:39.157Z</time></trkpt><trkpt lat="40.9230133" lon="14.0245517"><ele>4.0</ele><time>2026-04-26T07:42:40.155Z</time></trkpt><trkpt lat="40.9229467" lon="14.024545"><ele>4.0</ele><time>2026-04-26T07:42:41.155Z</time></trkpt><trkpt lat="40.9228817" lon="14.024535"><ele>3.9999999999999996</ele><time>2026-04-26T07:42:42.157Z</time></trkpt><trkpt lat="40.9228133" lon="14.0245217"><ele>4.0</ele><time>2026-04-26T07:42:43.156Z</time></trkpt><trkpt lat="40.9227467" lon="14.02451"><ele>4.0</ele><time>2026-04-26T07:42:44.157Z</time></trkpt><trkpt lat="40.9226783" lon="14.024505"><ele>3.9999999999999996</ele><time>2026-04-26T07:42:45.157Z</time></trkpt><trkpt lat="40.9226083" lon="14.0245017"><ele>4.0</ele><time>2026-04-26T07:42:46.157Z</time></trkpt><trkpt lat="40.92254" lon="14.0244967"><ele>4.0</ele><time>2026-04-26T07:42:47.156Z</time></trkpt><trkpt lat="40.9224717" lon="14.024495"><ele>3.8571428571428568</ele><time>2026-04-26T07:42:48.158Z</time></trkpt><trkpt lat="40.922405" lon="14.0244933"><ele>3.714285714285714</ele><time>2026-04-26T07:42:49.156Z</time></trkpt><trkpt lat="40.9223417" lon="14.024485"><ele>3.571428571428571</ele><time>2026-04-26T07:42:50.157Z</time></trkpt><trkpt lat="40.9222767" lon="14.02448"><ele>3.4285714285714284</ele><time>2026-04-26T07:42:51.157Z</time></trkpt><trkpt lat="40.92221" lon="14.024475"><ele>3.2857142857142856</ele><time>2026-04-26T07:42:52.156Z</time></trkpt><trkpt lat="40.922145" lon="14.0244683"><ele>3.1428571428571423</ele><time>2026-04-26T07:42:53.158Z</time></trkpt><trkpt lat="40.9220817" lon="14.02446"><ele>3.0</ele><time>2026-04-26T07:42:54.156Z</time></trkpt><trkpt lat="40.9219617" lon="14.0244483"><ele>3.0</ele><time>2026-04-26T07:42:56.156Z</time></trkpt><trkpt lat="40.92185" lon="14.02444"><ele>3.0</ele><time>2026-04-26T07:42:58.156Z</time></trkpt><trkpt lat="40.921745" lon="14.0244317"><ele>3.0</ele><time>2026-04-26T07:43:00.158Z</time></trkpt><trkpt lat="40.92164" lon="14.0244233"><ele>3.0</ele><time>2026-04-26T07:43:02.157Z</time></trkpt><trkpt lat="40.921535" lon="14.0244167"><ele>3.0</ele><time>2026-04-26T07:43:04.159Z</time></trkpt><trkpt lat="40.9214317" lon="14.024405"><ele>3.1666666666666665</ele><time>2026-04-26T07:43:06.157Z</time></trkpt><trkpt lat="40.921335" lon="14.024395"><ele>3.333333333333333</ele><time>2026-04-26T07:43:08.157Z</time></trkpt><trkpt lat="40.9212433" lon="14.0243933"><ele>3.5</ele><time>2026-04-26T07:43:10.155Z</time></trkpt><trkpt lat="40.92117" lon="14.0243733"><ele>3.6666666666666665</ele><time>2026-04-26T07:43:12.157Z</time></trkpt><trkpt lat="40.921125" lon="14.0242883"><ele>3.833333333333333</ele><time>2026-04-26T07:43:15.157Z</time></trkpt><trkpt lat="40.9211" lon="14.0241983"><ele>4.0</ele><time>2026-04-26T07:43:30.157Z</time></trkpt><trkpt lat="40.921085" lon="14.0242817"><ele>3.9999999999999996</ele><time>2026-04-26T07:45:37.157Z</time></trkpt><trkpt lat="40.9210883" lon="14.0243783"><ele>4.0</ele><time>2026-04-26T07:45:40.163Z</time></trkpt><trkpt lat="40.9211233" lon="14.0244483"><ele>4.0</ele><time>2026-04-26T07:45:49.159Z</time></trkpt><trkpt lat="40.9212" lon="14.0243633"><ele>4.0</ele><time>2026-04-26T07:45:52.157Z</time></trkpt><trkpt lat="40.9212717" lon="14.0243233"><ele>3.9999999999999996</ele><time>2026-04-26T07:45:57.157Z</time></trkpt><trkpt lat="40.9213233" lon="14.024265"><ele>4.0</ele><time>2026-04-26T07:46:00.158Z</time></trkpt><trkpt lat="40.9210965" lon="14.0242095"><ele>3.9999999999999996</ele><time>2026-04-26T07:46:19.79Z</time></trkpt><trkpt lat="40.9210617" lon="14.02409"><ele>4.0</ele><time>2026-04-26T07:46:24.159Z</time></trkpt><trkpt lat="40.9210883" lon="14.0239433"><ele>4.0</ele><time>2026-04-26T07:46:27.161Z</time></trkpt><trkpt lat="40.92112" lon="14.0238567"><ele>4.0</ele><time>2026-04-26T07:46:29.158Z</time></trkpt><trkpt lat="40.921145" lon="14.02394"><ele>3.9999999999999996</ele><time>2026-04-26T07:46:31.161Z</time></trkpt><trkpt lat="40.921155" lon="14.0240233"><ele>4.0</ele><time>2026-04-26T07:46:32.16Z</time></trkpt><trkpt lat="40.9211417" lon="14.0241467"><ele>3.9999999999999996</ele><time>2026-04-26T07:46:55.158Z</time></trkpt><trkpt lat="40.92115" lon="14.0242567"><ele>4.0</ele><time>2026-04-26T07:48:52.157Z</time></trkpt><trkpt lat="40.9211167" lon="14.0243317"><ele>4.0</ele><time>2026-04-26T07:50:54.155Z</time></trkpt><trkpt lat="40.92106" lon="14.024385"><ele>4.0</ele><time>2026-04-26T07:50:57.159Z</time></trkpt><trkpt lat="40.920965" lon="14.024385"><ele>3.9999999999999996</ele><time>2026-04-26T07:51:00.155Z</time></trkpt><trkpt lat="40.9208617" lon="14.02437"><ele>4.0</ele><time>2026-04-26T07:51:02.156Z</time></trkpt><trkpt lat="40.92074" lon="14.0243567"><ele>4.333333333333333</ele><time>2026-04-26T07:51:04.155Z</time></trkpt><trkpt lat="40.920675" lon="14.02435"><ele>4.666666666666666</ele><time>2026-04-26T07:51:05.156Z</time></trkpt><trkpt lat="40.9206083" lon="14.0243467"><ele>5.0</ele><time>2026-04-26T07:51:06.156Z</time></trkpt><trkpt lat="40.920545" lon="14.0243433"><ele>5.333333333333333</ele><time>2026-04-26T07:51:07.155Z</time></trkpt><trkpt lat="40.920425" lon="14.024335"><ele>5.666666666666667</ele><time>2026-04-26T07:51:09.156Z</time></trkpt><trkpt lat="40.9203033" lon="14.024325"><ele>6.0</ele><time>2026-04-26T07:51:11.155Z</time></trkpt><trkpt lat="40.92018" lon="14.0243167"><ele>6.0</ele><time>2026-04-26T07:51:13.156Z</time></trkpt><trkpt lat="40.9200583" lon="14.0243117"><ele>6.0</ele><time>2026-04-26T07:51:15.156Z</time></trkpt><trkpt lat="40.9199933" lon="14.02431"><ele>6.0</ele><time>2026-04-26T07:51:16.157Z</time></trkpt><trkpt lat="40.9199283" lon="14.02431"><ele>6.0</ele><time>2026-04-26T07:51:17.156Z</time></trkpt><trkpt lat="40.919805" lon="14.0243133"><ele>6.0</ele><time>2026-04-26T07:51:19.157Z</time></trkpt><trkpt lat="40.9197417" lon="14.0243183"><ele>6.0</ele><time>2026-04-26T07:51:20.156Z</time></trkpt><trkpt lat="40.9196767" lon="14.02433"><ele>6.0</ele><time>2026-04-26T07:51:21.155Z</time></trkpt><trkpt lat="40.9195583" lon="14.0243617"><ele>6.0</ele><time>2026-04-26T07:51:23.156Z</time></trkpt><trkpt lat="40.9194533" lon="14.0243933"><ele>6.0</ele><time>2026-04-26T07:51:25.158Z</time></trkpt><trkpt lat="40.919345" lon="14.0244417"><ele>6.0</ele><time>2026-04-26T07:51:27.156Z</time></trkpt><trkpt lat="40.9192333" lon="14.024495"><ele>6.0</ele><time>2026-04-26T07:51:29.156Z</time></trkpt><trkpt lat="40.9191317" lon="14.0245567"><ele>6.0</ele><time>2026-04-26T07:51:31.159Z</time></trkpt><trkpt lat="40.9190283" lon="14.0246333"><ele>6.0</ele><time>2026-04-26T07:51:33.156Z</time></trkpt><trkpt lat="40.918935" lon="14.0247233"><ele>6.0</ele><time>2026-04-26T07:51:35.156Z</time></trkpt><trkpt lat="40.91884" lon="14.0248333"><ele>6.0</ele><time>2026-04-26T07:51:37.156Z</time></trkpt><trkpt lat="40.91879" lon="14.0248983"><ele>6.0</ele><time>2026-04-26T07:51:38.158Z</time></trkpt><trkpt lat="40.9187083" lon="14.0250033"><ele>6.0</ele><time>2026-04-26T07:51:40.157Z</time></trkpt><trkpt lat="40.91863" lon="14.025115"><ele>6.0</ele><time>2026-04-26T07:51:42.161Z</time></trkpt><trkpt lat="40.91855" lon="14.0252367"><ele>6.0</ele><time>2026-04-26T07:51:44.156Z</time></trkpt><trkpt lat="40.9184767" lon="14.0253667"><ele>5.75</ele><time>2026-04-26T07:51:46.157Z</time></trkpt><trkpt lat="40.918415" lon="14.0254983"><ele>5.5</ele><time>2026-04-26T07:51:48.157Z</time></trkpt><trkpt lat="40.91836" lon="14.0256367"><ele>5.25</ele><time>2026-04-26T07:51:50.157Z</time></trkpt><trkpt lat="40.918315" lon="14.0257733"><ele>5.0</ele><time>2026-04-26T07:51:52.157Z</time></trkpt><trkpt lat="40.9182717" lon="14.0259183"><ele>4.8</ele><time>2026-04-26T07:51:54.157Z</time></trkpt><trkpt lat="40.91825" lon="14.0259983"><ele>4.6</ele><time>2026-04-26T07:51:55.157Z</time></trkpt><trkpt lat="40.9182117" lon="14.0261533"><ele>4.4</ele><time>2026-04-26T07:51:57.156Z</time></trkpt><trkpt lat="40.9181933" lon="14.0262383"><ele>4.2</ele><time>2026-04-26T07:51:58.158Z</time></trkpt><trkpt lat="40.9181733" lon="14.0264017"><ele>4.0</ele><time>2026-04-26T07:52:00.156Z</time></trkpt><trkpt lat="40.91815" lon="14.026555"><ele>3.8000000000000003</ele><time>2026-04-26T07:52:02.157Z</time></trkpt><trkpt lat="40.9181367" lon="14.0267117"><ele>3.6000000000000005</ele><time>2026-04-26T07:52:04.163Z</time></trkpt><trkpt lat="40.918115" lon="14.0268733"><ele>3.4</ele><time>2026-04-26T07:52:06.157Z</time></trkpt><trkpt lat="40.9181117" lon="14.02696"><ele>3.2</ele><time>2026-04-26T07:52:07.159Z</time></trkpt><trkpt lat="40.91811" lon="14.02711"><ele>3.0</ele><time>2026-04-26T07:52:09.155Z</time></trkpt><trkpt lat="40.9180967" lon="14.027265"><ele>3.0</ele><time>2026-04-26T07:52:11.156Z</time></trkpt><trkpt lat="40.9180767" lon="14.027425"><ele>3.0</ele><time>2026-04-26T07:52:13.156Z</time></trkpt><trkpt lat="40.9180567" lon="14.027575"><ele>3.0</ele><time>2026-04-26T07:52:15.155Z</time></trkpt><trkpt lat="40.9180433" lon="14.0277167"><ele>3.0</ele><time>2026-04-26T07:52:17.157Z</time></trkpt><trkpt lat="40.91803" lon="14.02785"><ele>3.0</ele><time>2026-04-26T07:52:19.156Z</time></trkpt><trkpt lat="40.9180017" lon="14.0279867"><ele>2.75</ele><time>2026-04-26T07:52:21.155Z</time></trkpt><trkpt lat="40.91798" lon="14.0281283"><ele>2.5</ele><time>2026-04-26T07:52:23.157Z</time></trkpt><trkpt lat="40.9179667" lon="14.0282767"><ele>2.25</ele><time>2026-04-26T07:52:25.157Z</time></trkpt><trkpt lat="40.9179533" lon="14.0284283"><ele>2.0</ele><time>2026-04-26T07:52:27.155Z</time></trkpt><trkpt lat="40.917935" lon="14.0285767"><ele>2.6666666666666665</ele><time>2026-04-26T07:52:29.16Z</time></trkpt><trkpt lat="40.9179233" lon="14.0286617"><ele>3.333333333333333</ele><time>2026-04-26T07:52:30.157Z</time></trkpt><trkpt lat="40.9179067" lon="14.0288233"><ele>4.0</ele><time>2026-04-26T07:52:32.156Z</time></trkpt><trkpt lat="40.9178983" lon="14.02891"><ele>4.666666666666667</ele><time>2026-04-26T07:52:33.155Z</time></trkpt><trkpt lat="40.9178917" lon="14.0289933"><ele>5.333333333333333</ele><time>2026-04-26T07:52:34.157Z</time></trkpt><trkpt lat="40.91787" lon="14.02916"><ele>6.0</ele><time>2026-04-26T07:52:36.156Z</time></trkpt><trkpt lat="40.91786" lon="14.0292467"><ele>7.0</ele><time>2026-04-26T07:52:37.156Z</time></trkpt><trkpt lat="40.917855" lon="14.0293383"><ele>8.0</ele><time>2026-04-26T07:52:38.157Z</time></trkpt><trkpt lat="40.91785" lon="14.02943"><ele>9.0</ele><time>2026-04-26T07:52:39.155Z</time></trkpt><trkpt lat="40.917845" lon="14.02952"><ele>10.0</ele><time>2026-04-26T07:52:40.155Z</time></trkpt><trkpt lat="40.9178283" lon="14.029685"><ele>11.0</ele><time>2026-04-26T07:52:42.157Z</time></trkpt><trkpt lat="40.9178183" lon="14.02977"><ele>12.0</ele><time>2026-04-26T07:52:43.156Z</time></trkpt><trkpt lat="40.91781" lon="14.0298567"><ele>12.0</ele><time>2026-04-26T07:52:44.156Z</time></trkpt><trkpt lat="40.9177967" lon="14.0299417"><ele>12.0</ele><time>2026-04-26T07:52:45.157Z</time></trkpt><trkpt lat="40.9177917" lon="14.030105"><ele>12.0</ele><time>2026-04-26T07:52:47.156Z</time></trkpt><trkpt lat="40.9177833" lon="14.0302617"><ele>12.0</ele><time>2026-04-26T07:52:49.156Z</time></trkpt><trkpt lat="40.91777" lon="14.0304117"><ele>12.0</ele><time>2026-04-26T07:52:51.157Z</time></trkpt><trkpt lat="40.91775" lon="14.0305483"><ele>12.0</ele><time>2026-04-26T07:52:53.155Z</time></trkpt><trkpt lat="40.917725" lon="14.0307"><ele>12.0</ele><time>2026-04-26T07:52:55.155Z</time></trkpt><trkpt lat="40.917715" lon="14.0308383"><ele>12.0</ele><time>2026-04-26T07:52:57.157Z</time></trkpt><trkpt lat="40.9177117" lon="14.0309817"><ele>12.0</ele><time>2026-04-26T07:52:59.158Z</time></trkpt><trkpt lat="40.9176933" lon="14.0311383"><ele>11.999999999999998</ele><time>2026-04-26T07:53:01.156Z</time></trkpt><trkpt lat="40.917695" lon="14.0312217"><ele>12.0</ele><time>2026-04-26T07:53:02.157Z</time></trkpt><trkpt lat="40.917695" lon="14.0313083"><ele>12.0</ele><time>2026-04-26T07:53:03.156Z</time></trkpt><trkpt lat="40.9176833" lon="14.0313967"><ele>12.0</ele><time>2026-04-26T07:53:04.156Z</time></trkpt><trkpt lat="40.91767" lon="14.03149"><ele>12.0</ele><time>2026-04-26T07:53:05.155Z</time></trkpt><trkpt lat="40.91766" lon="14.0315883"><ele>11.999999999999998</ele><time>2026-04-26T07:53:06.157Z</time></trkpt><trkpt lat="40.9176517" lon="14.03169"><ele>12.0</ele><time>2026-04-26T07:53:07.156Z</time></trkpt><trkpt lat="40.9176467" lon="14.0317933"><ele>12.0</ele><time>2026-04-26T07:53:08.16Z</time></trkpt><trkpt lat="40.9176417" lon="14.031895"><ele>12.0</ele><time>2026-04-26T07:53:09.156Z</time></trkpt><trkpt lat="40.9176333" lon="14.0319967"><ele>12.0</ele><time>2026-04-26T07:53:10.16Z</time></trkpt><trkpt lat="40.9176217" lon="14.0320967"><ele>12.0</ele><time>2026-04-26T07:53:11.155Z</time></trkpt><trkpt lat="40.9176083" lon="14.0321967"><ele>12.0</ele><time>2026-04-26T07:53:12.156Z</time></trkpt><trkpt lat="40.917595" lon="14.032295"><ele>12.0</ele><time>2026-04-26T07:53:13.156Z</time></trkpt><trkpt lat="40.9175833" lon="14.0323967"><ele>12.166666666666666</ele><time>2026-04-26T07:53:14.156Z</time></trkpt><trkpt lat="40.9175717" lon="14.0324983"><ele>12.333333333333332</ele><time>2026-04-26T07:53:15.156Z</time></trkpt><trkpt lat="40.9175617" lon="14.0326"><ele>12.5</ele><time>2026-04-26T07:53:16.158Z</time></trkpt><trkpt lat="40.9175467" lon="14.032705"><ele>12.666666666666666</ele><time>2026-04-26T07:53:17.155Z</time></trkpt><trkpt lat="40.917535" lon="14.03281"><ele>12.833333333333332</ele><time>2026-04-26T07:53:18.157Z</time></trkpt><trkpt lat="40.917525" lon="14.032915"><ele>13.0</ele><time>2026-04-26T07:53:19.155Z</time></trkpt><trkpt lat="40.9175133" lon="14.0330183"><ele>12.833333333333332</ele><time>2026-04-26T07:53:20.156Z</time></trkpt><trkpt lat="40.9175033" lon="14.0331233"><ele>12.666666666666666</ele><time>2026-04-26T07:53:21.155Z</time></trkpt><trkpt lat="40.917495" lon="14.0332283"><ele>12.5</ele><time>2026-04-26T07:53:22.156Z</time></trkpt><trkpt lat="40.917485" lon="14.033335"><ele>12.333333333333332</ele><time>2026-04-26T07:53:23.157Z</time></trkpt><trkpt lat="40.9174783" lon="14.0334433"><ele>12.166666666666666</ele><time>2026-04-26T07:53:24.157Z</time></trkpt><trkpt lat="40.91747" lon="14.0335517"><ele>12.0</ele><time>2026-04-26T07:53:25.156Z</time></trkpt><trkpt lat="40.9174617" lon="14.0336583"><ele>12.0</ele><time>2026-04-26T07:53:26.157Z</time></trkpt><trkpt lat="40.9174517" lon="14.0337633"><ele>12.0</ele><time>2026-04-26T07:53:27.156Z</time></trkpt><trkpt lat="40.917435" lon="14.03387"><ele>12.0</ele><time>2026-04-26T07:53:28.155Z</time></trkpt><trkpt lat="40.9174167" lon="14.0339817"><ele>12.0</ele><time>2026-04-26T07:53:29.156Z</time></trkpt><trkpt lat="40.9173967" lon="14.0340867"><ele>12.0</ele><time>2026-04-26T07:53:30.157Z</time></trkpt><trkpt lat="40.9173717" lon="14.034195"><ele>12.0</ele><time>2026-04-26T07:53:31.155Z</time></trkpt><trkpt lat="40.9173417" lon="14.034305"><ele>11.6</ele><time>2026-04-26T07:53:32.157Z</time></trkpt><trkpt lat="40.917305" lon="14.0344133"><ele>11.2</ele><time>2026-04-26T07:53:33.156Z</time></trkpt><trkpt lat="40.9172617" lon="14.0345217"><ele>10.8</ele><time>2026-04-26T07:53:34.156Z</time></trkpt><trkpt lat="40.917215" lon="14.0346317"><ele>10.4</ele><time>2026-04-26T07:53:35.157Z</time></trkpt><trkpt lat="40.9171633" lon="14.0347383"><ele>10.0</ele><time>2026-04-26T07:53:36.156Z</time></trkpt><trkpt lat="40.9171067" lon="14.0348467"><ele>10.0</ele><time>2026-04-26T07:53:37.155Z</time></trkpt><trkpt lat="40.917045" lon="14.0349467"><ele>10.0</ele><time>2026-04-26T07:53:38.157Z</time></trkpt><trkpt lat="40.91698" lon="14.0350433"><ele>10.0</ele><time>2026-04-26T07:53:39.155Z</time></trkpt><trkpt lat="40.9169117" lon="14.0351333"><ele>10.0</ele><time>2026-04-26T07:53:40.156Z</time></trkpt><trkpt lat="40.9168383" lon="14.0352183"><ele>10.0</ele><time>2026-04-26T07:53:41.155Z</time></trkpt><trkpt lat="40.916755" lon="14.0353033"><ele>9.0</ele><time>2026-04-26T07:53:42.158Z</time></trkpt><trkpt lat="40.9166717" lon="14.0353817"><ele>8.0</ele><time>2026-04-26T07:53:43.157Z</time></trkpt><trkpt lat="40.9165867" lon="14.0354533"><ele>7.0</ele><time>2026-04-26T07:53:44.157Z</time></trkpt><trkpt lat="40.9164967" lon="14.0355217"><ele>6.0</ele><time>2026-04-26T07:53:45.155Z</time></trkpt><trkpt lat="40.9164033" lon="14.03558"><ele>5.0</ele><time>2026-04-26T07:53:46.157Z</time></trkpt><trkpt lat="40.916305" lon="14.0356317"><ele>5.0</ele><time>2026-04-26T07:53:47.158Z</time></trkpt><trkpt lat="40.9162083" lon="14.0356783"><ele>5.0</ele><time>2026-04-26T07:53:48.157Z</time></trkpt><trkpt lat="40.9161083" lon="14.0357183"><ele>5.0</ele><time>2026-04-26T07:53:49.156Z</time></trkpt><trkpt lat="40.9160117" lon="14.0357517"><ele>5.0</ele><time>2026-04-26T07:53:50.156Z</time></trkpt><trkpt lat="40.915915" lon="14.0357833"><ele>5.0</ele><time>2026-04-26T07:53:51.155Z</time></trkpt><trkpt lat="40.9158183" lon="14.0358117"><ele>4.6</ele><time>2026-04-26T07:53:52.155Z</time></trkpt><trkpt lat="40.9157217" lon="14.03584"><ele>4.2</ele><time>2026-04-26T07:53:53.155Z</time></trkpt><trkpt lat="40.9156267" lon="14.0358667"><ele>3.8</ele><time>2026-04-26T07:53:54.156Z</time></trkpt><trkpt lat="40.9155317" lon="14.0358933"><ele>3.4</ele><time>2026-04-26T07:53:55.155Z</time></trkpt><trkpt lat="40.915435" lon="14.0359233"><ele>3.0</ele><time>2026-04-26T07:53:56.156Z</time></trkpt><trkpt lat="40.91534" lon="14.0359483"><ele>3.0</ele><time>2026-04-26T07:53:57.155Z</time></trkpt><trkpt lat="40.915245" lon="14.0359783"><ele>3.0</ele><time>2026-04-26T07:53:58.156Z</time></trkpt><trkpt lat="40.9151517" lon="14.0360067"><ele>3.0</ele><time>2026-04-26T07:53:59.157Z</time></trkpt><trkpt lat="40.9150583" lon="14.0360317"><ele>3.0</ele><time>2026-04-26T07:54:00.157Z</time></trkpt><trkpt lat="40.9149617" lon="14.0360583"><ele>3.0</ele><time>2026-04-26T07:54:01.155Z</time></trkpt><trkpt lat="40.9148667" lon="14.0360867"><ele>2.4</ele><time>2026-04-26T07:54:02.156Z</time></trkpt><trkpt lat="40.91477" lon="14.0361117"><ele>1.7999999999999998</ele><time>2026-04-26T07:54:03.156Z</time></trkpt><trkpt lat="40.9146783" lon="14.036135"><ele>1.2</ele><time>2026-04-26T07:54:04.156Z</time></trkpt><trkpt lat="40.9145867" lon="14.0361633"><ele>0.6</ele><time>2026-04-26T07:54:05.163Z</time></trkpt><trkpt lat="40.91449" lon="14.0361967"><ele>0.0</ele><time>2026-04-26T07:54:06.156Z</time></trkpt><trkpt lat="40.914395" lon="14.0362283"><ele>0.0</ele><time>2026-04-26T07:54:07.157Z</time></trkpt><trkpt lat="40.9142967" lon="14.03626"><ele>0.0</ele><time>2026-04-26T07:54:08.156Z</time></trkpt><trkpt lat="40.9142" lon="14.0362883"><ele>0.0</ele><time>2026-04-26T07:54:09.158Z</time></trkpt><trkpt lat="40.914105" lon="14.0363183"><ele>0.0</ele><time>2026-04-26T07:54:10.156Z</time></trkpt><trkpt lat="40.91401" lon="14.0363433"><ele>0.0</ele><time>2026-04-26T07:54:11.156Z</time></trkpt><trkpt lat="40.9139183" lon="14.03637"><ele>0.4</ele><time>2026-04-26T07:54:12.156Z</time></trkpt><trkpt lat="40.913825" lon="14.0364"><ele>0.8</ele><time>2026-04-26T07:54:13.155Z</time></trkpt><trkpt lat="40.9137333" lon="14.036435"><ele>1.2000000000000002</ele><time>2026-04-26T07:54:14.156Z</time></trkpt><trkpt lat="40.9136433" lon="14.0364667"><ele>1.6</ele><time>2026-04-26T07:54:15.157Z</time></trkpt><trkpt lat="40.9135533" lon="14.036495"><ele>2.0</ele><time>2026-04-26T07:54:16.156Z</time></trkpt><trkpt lat="40.9134633" lon="14.03652"><ele>1.9999999999999998</ele><time>2026-04-26T07:54:17.157Z</time></trkpt><trkpt lat="40.913375" lon="14.0365433"><ele>2.0</ele><time>2026-04-26T07:54:18.156Z</time></trkpt><trkpt lat="40.9132867" lon="14.0365667"><ele>2.0</ele><time>2026-04-26T07:54:19.16Z</time></trkpt><trkpt lat="40.9132" lon="14.0365883"><ele>2.0</ele><time>2026-04-26T07:54:20.157Z</time></trkpt><trkpt lat="40.913115" lon="14.0366133"><ele>1.9999999999999998</ele><time>2026-04-26T07:54:21.157Z</time></trkpt><trkpt lat="40.9130283" lon="14.0366383"><ele>2.0</ele><time>2026-04-26T07:54:22.157Z</time></trkpt><trkpt lat="40.9129433" lon="14.0366617"><ele>1.9999999999999998</ele><time>2026-04-26T07:54:23.156Z</time></trkpt><trkpt lat="40.91286" lon="14.0366867"><ele>2.0</ele><time>2026-04-26T07:54:24.156Z</time></trkpt><trkpt lat="40.91278" lon="14.03671"><ele>2.0</ele><time>2026-04-26T07:54:25.157Z</time></trkpt><trkpt lat="40.9127" lon="14.036735"><ele>2.0</ele><time>2026-04-26T07:54:26.156Z</time></trkpt><trkpt lat="40.9126183" lon="14.03676"><ele>1.9999999999999998</ele><time>2026-04-26T07:54:27.156Z</time></trkpt><trkpt lat="40.9125383" lon="14.036785"><ele>2.0</ele><time>2026-04-26T07:54:28.155Z</time></trkpt><trkpt lat="40.9124617" lon="14.03681"><ele>1.9999999999999998</ele><time>2026-04-26T07:54:29.156Z</time></trkpt><trkpt lat="40.9123833" lon="14.0368333"><ele>2.0</ele><time>2026-04-26T07:54:30.157Z</time></trkpt><trkpt lat="40.9123033" lon="14.03686"><ele>2.0</ele><time>2026-04-26T07:54:31.156Z</time></trkpt><trkpt lat="40.9122283" lon="14.0368817"><ele>2.0</ele><time>2026-04-26T07:54:32.156Z</time></trkpt><trkpt lat="40.91215" lon="14.0369067"><ele>1.9999999999999998</ele><time>2026-04-26T07:54:33.156Z</time></trkpt><trkpt lat="40.9120683" lon="14.0369317"><ele>2.0</ele><time>2026-04-26T07:54:34.155Z</time></trkpt><trkpt lat="40.9119883" lon="14.03695"><ele>1.9999999999999998</ele><time>2026-04-26T07:54:35.156Z</time></trkpt><trkpt lat="40.9119083" lon="14.0369717"><ele>2.0</ele><time>2026-04-26T07:54:36.157Z</time></trkpt><trkpt lat="40.9118283" lon="14.036995"><ele>2.0</ele><time>2026-04-26T07:54:37.157Z</time></trkpt><trkpt lat="40.91175" lon="14.03702"><ele>2.0</ele><time>2026-04-26T07:54:38.156Z</time></trkpt><trkpt lat="40.9116683" lon="14.0370467"><ele>1.9999999999999998</ele><time>2026-04-26T07:54:39.156Z</time></trkpt><trkpt lat="40.911585" lon="14.03707"><ele>2.0</ele><time>2026-04-26T07:54:40.156Z</time></trkpt><trkpt lat="40.9115" lon="14.0370967"><ele>1.6666666666666665</ele><time>2026-04-26T07:54:41.157Z</time></trkpt><trkpt lat="40.9114167" lon="14.0371183"><ele>1.3333333333333333</ele><time>2026-04-26T07:54:42.157Z</time></trkpt><trkpt lat="40.9113333" lon="14.0371383"><ele>1.0</ele><time>2026-04-26T07:54:43.156Z</time></trkpt><trkpt lat="40.91125" lon="14.0371617"><ele>0.6666666666666666</ele><time>2026-04-26T07:54:44.158Z</time></trkpt><trkpt lat="40.9111667" lon="14.0371867"><ele>0.3333333333333333</ele><time>2026-04-26T07:54:45.157Z</time></trkpt><trkpt lat="40.9110833" lon="14.037215"><ele>0.0</ele><time>2026-04-26T07:54:46.156Z</time></trkpt><trkpt lat="40.9110017" lon="14.03724"><ele>0.0</ele><time>2026-04-26T07:54:47.157Z</time></trkpt><trkpt lat="40.91092" lon="14.0372633"><ele>0.0</ele><time>2026-04-26T07:54:48.157Z</time></trkpt><trkpt lat="40.91084" lon="14.0372867"><ele>0.0</ele><time>2026-04-26T07:54:49.157Z</time></trkpt><trkpt lat="40.9107567" lon="14.03731"><ele>0.0</ele><time>2026-04-26T07:54:50.156Z</time></trkpt><trkpt lat="40.9106767" lon="14.0373333"><ele>0.0</ele><time>2026-04-26T07:54:51.156Z</time></trkpt><trkpt lat="40.9105967" lon="14.0373567"><ele>0.0</ele><time>2026-04-26T07:54:52.157Z</time></trkpt><trkpt lat="40.910515" lon="14.0373817"><ele>0.0</ele><time>2026-04-26T07:54:53.157Z</time></trkpt><trkpt lat="40.9104333" lon="14.0374033"><ele>0.0</ele><time>2026-04-26T07:54:54.156Z</time></trkpt><trkpt lat="40.9103517" lon="14.0374233"><ele>0.0</ele><time>2026-04-26T07:54:55.155Z</time></trkpt><trkpt lat="40.9102733" lon="14.037445"><ele>0.0</ele><time>2026-04-26T07:54:56.156Z</time></trkpt><trkpt lat="40.910195" lon="14.0374667"><ele>0.0</ele><time>2026-04-26T07:54:57.156Z</time></trkpt><trkpt lat="40.9101167" lon="14.0374917"><ele>0.0</ele><time>2026-04-26T07:54:58.156Z</time></trkpt><trkpt lat="40.9100383" lon="14.0375133"><ele>0.16666666666666666</ele><time>2026-04-26T07:54:59.156Z</time></trkpt><trkpt lat="40.90996" lon="14.0375367"><ele>0.3333333333333333</ele><time>2026-04-26T07:55:00.157Z</time></trkpt><trkpt lat="40.90988" lon="14.03756"><ele>0.5</ele><time>2026-04-26T07:55:01.158Z</time></trkpt><trkpt lat="40.9098017" lon="14.037585"><ele>0.6666666666666666</ele><time>2026-04-26T07:55:02.156Z</time></trkpt><trkpt lat="40.9097233" lon="14.037605"><ele>0.8333333333333333</ele><time>2026-04-26T07:55:03.156Z</time></trkpt><trkpt lat="40.9096433" lon="14.037625"><ele>1.0</ele><time>2026-04-26T07:55:04.155Z</time></trkpt><trkpt lat="40.9095667" lon="14.0376467"><ele>0.9999999999999999</ele><time>2026-04-26T07:55:05.155Z</time></trkpt><trkpt lat="40.909495" lon="14.0376683"><ele>1.0</ele><time>2026-04-26T07:55:06.157Z</time></trkpt><trkpt lat="40.9094217" lon="14.03769"><ele>1.0</ele><time>2026-04-26T07:55:07.156Z</time></trkpt><trkpt lat="40.909345" lon="14.037715"><ele>1.0</ele><time>2026-04-26T07:55:08.156Z</time></trkpt><trkpt lat="40.90927" lon="14.03774"><ele>0.9999999999999999</ele><time>2026-04-26T07:55:09.157Z</time></trkpt><trkpt lat="40.9091933" lon="14.0377617"><ele>1.0</ele><time>2026-04-26T07:55:10.155Z</time></trkpt><trkpt lat="40.909115" lon="14.03778"><ele>0.6666666666666666</ele><time>2026-04-26T07:55:11.155Z</time></trkpt><trkpt lat="40.9090383" lon="14.0378"><ele>0.3333333333333333</ele><time>2026-04-26T07:55:12.156Z</time></trkpt><trkpt lat="40.9089583" lon="14.0378183"><ele>0.0</ele><time>2026-04-26T07:55:13.156Z</time></trkpt><trkpt lat="40.9088767" lon="14.03784"><ele>-0.3333333333333333</ele><time>2026-04-26T07:55:14.159Z</time></trkpt><trkpt lat="40.9087933" lon="14.0378617"><ele>-0.6666666666666666</ele><time>2026-04-26T07:55:15.156Z</time></trkpt><trkpt lat="40.90871" lon="14.037885"><ele>-1.0</ele><time>2026-04-26T07:55:16.155Z</time></trkpt><trkpt lat="40.9086267" lon="14.03791"><ele>-0.9999999999999999</ele><time>2026-04-26T07:55:17.156Z</time></trkpt><trkpt lat="40.9085433" lon="14.0379383"><ele>-1.0</ele><time>2026-04-26T07:55:18.156Z</time></trkpt><trkpt lat="40.90846" lon="14.0379633"><ele>-1.0</ele><time>2026-04-26T07:55:19.157Z</time></trkpt><trkpt lat="40.90838" lon="14.0379833"><ele>-1.0</ele><time>2026-04-26T07:55:20.156Z</time></trkpt><trkpt lat="40.9083017" lon="14.0380033"><ele>-0.9999999999999999</ele><time>2026-04-26T07:55:21.156Z</time></trkpt><trkpt lat="40.9082233" lon="14.038025"><ele>-1.0</ele><time>2026-04-26T07:55:22.156Z</time></trkpt><trkpt lat="40.908145" lon="14.038045"><ele>-0.6666666666666666</ele><time>2026-04-26T07:55:23.158Z</time></trkpt><trkpt lat="40.9080683" lon="14.03807"><ele>-0.3333333333333333</ele><time>2026-04-26T07:55:24.157Z</time></trkpt><trkpt lat="40.9079933" lon="14.0380983"><ele>0.0</ele><time>2026-04-26T07:55:25.156Z</time></trkpt><trkpt lat="40.9079167" lon="14.038125"><ele>0.3333333333333333</ele><time>2026-04-26T07:55:26.157Z</time></trkpt><trkpt lat="40.90784" lon="14.0381517"><ele>0.6666666666666666</ele><time>2026-04-26T07:55:27.155Z</time></trkpt><trkpt lat="40.907765" lon="14.0381817"><ele>1.0</ele><time>2026-04-26T07:55:28.157Z</time></trkpt><trkpt lat="40.9076883" lon="14.0382067"><ele>0.9999999999999999</ele><time>2026-04-26T07:55:29.156Z</time></trkpt><trkpt lat="40.907615" lon="14.03823"><ele>1.0</ele><time>2026-04-26T07:55:30.156Z</time></trkpt><trkpt lat="40.9075433" lon="14.0382517"><ele>1.0</ele><time>2026-04-26T07:55:31.157Z</time></trkpt><trkpt lat="40.90747" lon="14.038275"><ele>1.0</ele><time>2026-04-26T07:55:32.158Z</time></trkpt><trkpt lat="40.9074" lon="14.0382983"><ele>0.9999999999999999</ele><time>2026-04-26T07:55:33.157Z</time></trkpt><trkpt lat="40.9073267" lon="14.0383183"><ele>1.0</ele><time>2026-04-26T07:55:34.156Z</time></trkpt><trkpt lat="40.90725" lon="14.0383383"><ele>1.1666666666666665</ele><time>2026-04-26T07:55:35.157Z</time></trkpt><trkpt lat="40.9071733" lon="14.0383617"><ele>1.3333333333333333</ele><time>2026-04-26T07:55:36.157Z</time></trkpt><trkpt lat="40.9071" lon="14.0383833"><ele>1.5</ele><time>2026-04-26T07:55:37.157Z</time></trkpt><trkpt lat="40.907025" lon="14.038405"><ele>1.6666666666666665</ele><time>2026-04-26T07:55:38.158Z</time></trkpt><trkpt lat="40.9069533" lon="14.03843"><ele>1.8333333333333333</ele><time>2026-04-26T07:55:39.159Z</time></trkpt><trkpt lat="40.9068817" lon="14.0384517"><ele>2.0</ele><time>2026-04-26T07:55:40.155Z</time></trkpt><trkpt lat="40.90681" lon="14.038475"><ele>1.8333333333333333</ele><time>2026-04-26T07:55:41.156Z</time></trkpt><trkpt lat="40.9067383" lon="14.0385"><ele>1.6666666666666665</ele><time>2026-04-26T07:55:42.157Z</time></trkpt><trkpt lat="40.9066633" lon="14.0385233"><ele>1.5</ele><time>2026-04-26T07:55:43.157Z</time></trkpt><trkpt lat="40.9065883" lon="14.03854"><ele>1.3333333333333333</ele><time>2026-04-26T07:55:44.156Z</time></trkpt><trkpt lat="40.9065167" lon="14.0385567"><ele>1.1666666666666665</ele><time>2026-04-26T07:55:45.157Z</time></trkpt><trkpt lat="40.9064433" lon="14.0385767"><ele>1.0</ele><time>2026-04-26T07:55:46.156Z</time></trkpt><trkpt lat="40.90637" lon="14.0386"><ele>0.9999999999999999</ele><time>2026-04-26T07:55:47.157Z</time></trkpt><trkpt lat="40.9062917" lon="14.03863"><ele>1.0</ele><time>2026-04-26T07:55:48.156Z</time></trkpt><trkpt lat="40.90621" lon="14.0386567"><ele>1.0</ele><time>2026-04-26T07:55:49.157Z</time></trkpt><trkpt lat="40.90613" lon="14.0386883"><ele>1.0</ele><time>2026-04-26T07:55:50.157Z</time></trkpt><trkpt lat="40.90605" lon="14.038715"><ele>0.9999999999999999</ele><time>2026-04-26T07:55:51.157Z</time></trkpt><trkpt lat="40.90597" lon="14.0387417"><ele>1.0</ele><time>2026-04-26T07:55:52.157Z</time></trkpt><trkpt lat="40.9058917" lon="14.0387633"><ele>0.9999999999999999</ele><time>2026-04-26T07:55:53.156Z</time></trkpt><trkpt lat="40.9058167" lon="14.038785"><ele>1.0</ele><time>2026-04-26T07:55:54.156Z</time></trkpt><trkpt lat="40.9057417" lon="14.0388083"><ele>1.0</ele><time>2026-04-26T07:55:55.16Z</time></trkpt><trkpt lat="40.9056667" lon="14.03883"><ele>1.0</ele><time>2026-04-26T07:55:56.156Z</time></trkpt><trkpt lat="40.90559" lon="14.0388533"><ele>0.9999999999999999</ele><time>2026-04-26T07:55:57.157Z</time></trkpt><trkpt lat="40.905515" lon="14.038875"><ele>1.0</ele><time>2026-04-26T07:55:58.157Z</time></trkpt><trkpt lat="40.9054433" lon="14.0389017"><ele>1.0</ele><time>2026-04-26T07:55:59.156Z</time></trkpt><trkpt lat="40.9053667" lon="14.0389233"><ele>0.9999999999999999</ele><time>2026-04-26T07:56:00.157Z</time></trkpt><trkpt lat="40.9052933" lon="14.0389467"><ele>1.0</ele><time>2026-04-26T07:56:01.156Z</time></trkpt><trkpt lat="40.9052267" lon="14.0389633"><ele>1.0</ele><time>2026-04-26T07:56:02.157Z</time></trkpt><trkpt lat="40.9051533" lon="14.0389783"><ele>0.9999999999999999</ele><time>2026-04-26T07:56:03.156Z</time></trkpt><trkpt lat="40.9050767" lon="14.03899"><ele>1.0</ele><time>2026-04-26T07:56:04.156Z</time></trkpt><trkpt lat="40.9050017" lon="14.039005"><ele>1.0</ele><time>2026-04-26T07:56:05.157Z</time></trkpt><trkpt lat="40.9049283" lon="14.03902"><ele>0.9999999999999999</ele><time>2026-04-26T07:56:06.158Z</time></trkpt><trkpt lat="40.904855" lon="14.0390433"><ele>1.0</ele><time>2026-04-26T07:56:07.158Z</time></trkpt><trkpt lat="40.9047817" lon="14.0390667"><ele>1.0</ele><time>2026-04-26T07:56:08.157Z</time></trkpt><trkpt lat="40.9047067" lon="14.0390867"><ele>1.0</ele><time>2026-04-26T07:56:09.157Z</time></trkpt><trkpt lat="40.90463" lon="14.0391083"><ele>0.9999999999999999</ele><time>2026-04-26T07:56:10.156Z</time></trkpt><trkpt lat="40.90455" lon="14.0391367"><ele>1.0</ele><time>2026-04-26T07:56:11.157Z</time></trkpt><trkpt lat="40.904475" lon="14.0391617"><ele>0.9999999999999999</ele><time>2026-04-26T07:56:12.157Z</time></trkpt><trkpt lat="40.904395" lon="14.039185"><ele>1.0</ele><time>2026-04-26T07:56:13.156Z</time></trkpt><trkpt lat="40.9043183" lon="14.0392033"><ele>1.0</ele><time>2026-04-26T07:56:14.158Z</time></trkpt><trkpt lat="40.9042417" lon="14.0392217"><ele>1.0</ele><time>2026-04-26T07:56:15.156Z</time></trkpt><trkpt lat="40.9041617" lon="14.0392433"><ele>0.9999999999999999</ele><time>2026-04-26T07:56:16.157Z</time></trkpt><trkpt lat="40.904085" lon="14.0392633"><ele>1.0</ele><time>2026-04-26T07:56:17.158Z</time></trkpt><trkpt lat="40.9040067" lon="14.0392867"><ele>0.9999999999999999</ele><time>2026-04-26T07:56:18.157Z</time></trkpt><trkpt lat="40.9039267" lon="14.03931"><ele>1.0</ele><time>2026-04-26T07:56:19.156Z</time></trkpt><trkpt lat="40.903855" lon="14.03933"><ele>1.0</ele><time>2026-04-26T07:56:20.157Z</time></trkpt><trkpt lat="40.903785" lon="14.0393567"><ele>1.0</ele><time>2026-04-26T07:56:21.157Z</time></trkpt><trkpt lat="40.9037133" lon="14.0393783"><ele>0.9999999999999999</ele><time>2026-04-26T07:56:22.161Z</time></trkpt><trkpt lat="40.9036433" lon="14.0393983"><ele>1.0</ele><time>2026-04-26T07:56:23.156Z</time></trkpt><trkpt lat="40.9035683" lon="14.0394233"><ele>0.9999999999999999</ele><time>2026-04-26T07:56:24.156Z</time></trkpt><trkpt lat="40.903495" lon="14.03945"><ele>1.0</ele><time>2026-04-26T07:56:25.155Z</time></trkpt><trkpt lat="40.9034217" lon="14.0394767"><ele>1.0</ele><time>2026-04-26T07:56:26.156Z</time></trkpt><trkpt lat="40.9033483" lon="14.0395067"><ele>1.0</ele><time>2026-04-26T07:56:27.156Z</time></trkpt><trkpt lat="40.9032767" lon="14.0395317"><ele>0.9999999999999999</ele><time>2026-04-26T07:56:28.156Z</time></trkpt><trkpt lat="40.9032033" lon="14.039555"><ele>1.0</ele><time>2026-04-26T07:56:29.157Z</time></trkpt><trkpt lat="40.90313" lon="14.03958"><ele>1.1666666666666665</ele><time>2026-04-26T07:56:30.156Z</time></trkpt><trkpt lat="40.9030567" lon="14.0396033"><ele>1.3333333333333333</ele><time>2026-04-26T07:56:31.158Z</time></trkpt><trkpt lat="40.9029817" lon="14.039625"><ele>1.5</ele><time>2026-04-26T07:56:32.157Z</time></trkpt><trkpt lat="40.9029083" lon="14.0396467"><ele>1.6666666666666665</ele><time>2026-04-26T07:56:33.158Z</time></trkpt><trkpt lat="40.9028333" lon="14.0396733"><ele>1.8333333333333333</ele><time>2026-04-26T07:56:34.156Z</time></trkpt><trkpt lat="40.90276" lon="14.0396983"><ele>2.0</ele><time>2026-04-26T07:56:35.158Z</time></trkpt><trkpt lat="40.9026867" lon="14.0397217"><ele>1.9999999999999998</ele><time>2026-04-26T07:56:36.157Z</time></trkpt><trkpt lat="40.9026117" lon="14.0397467"><ele>2.0</ele><time>2026-04-26T07:56:37.157Z</time></trkpt><trkpt lat="40.9025367" lon="14.0397717"><ele>2.0</ele><time>2026-04-26T07:56:38.157Z</time></trkpt><trkpt lat="40.90246" lon="14.0397967"><ele>2.0</ele><time>2026-04-26T07:56:39.16Z</time></trkpt><trkpt lat="40.902385" lon="14.03982"><ele>1.9999999999999998</ele><time>2026-04-26T07:56:40.157Z</time></trkpt><trkpt lat="40.9023067" lon="14.0398417"><ele>2.0</ele><time>2026-04-26T07:56:41.155Z</time></trkpt><trkpt lat="40.9022283" lon="14.0398667"><ele>1.6666666666666665</ele><time>2026-04-26T07:56:42.157Z</time></trkpt><trkpt lat="40.902155" lon="14.03989"><ele>1.3333333333333333</ele><time>2026-04-26T07:56:43.156Z</time></trkpt><trkpt lat="40.90208" lon="14.0399133"><ele>1.0</ele><time>2026-04-26T07:56:44.156Z</time></trkpt><trkpt lat="40.902005" lon="14.039935"><ele>0.6666666666666666</ele><time>2026-04-26T07:56:45.156Z</time></trkpt><trkpt lat="40.90193" lon="14.0399583"><ele>0.3333333333333333</ele><time>2026-04-26T07:56:46.156Z</time></trkpt><trkpt lat="40.9018567" lon="14.03998"><ele>0.0</ele><time>2026-04-26T07:56:47.157Z</time></trkpt><trkpt lat="40.9017833" lon="14.0399983"><ele>0.14285714285714285</ele><time>2026-04-26T07:56:48.157Z</time></trkpt><trkpt lat="40.9017117" lon="14.0400167"><ele>0.2857142857142857</ele><time>2026-04-26T07:56:49.16Z</time></trkpt><trkpt lat="40.9016433" lon="14.0400417"><ele>0.42857142857142855</ele><time>2026-04-26T07:56:50.157Z</time></trkpt><trkpt lat="40.9015733" lon="14.04006"><ele>0.5714285714285714</ele><time>2026-04-26T07:56:51.156Z</time></trkpt><trkpt lat="40.9015067" lon="14.0400767"><ele>0.7142857142857142</ele><time>2026-04-26T07:56:52.157Z</time></trkpt><trkpt lat="40.9014417" lon="14.0400917"><ele>0.8571428571428571</ele><time>2026-04-26T07:56:53.156Z</time></trkpt><trkpt lat="40.9013783" lon="14.0401083"><ele>1.0</ele><time>2026-04-26T07:56:54.158Z</time></trkpt><trkpt lat="40.90131" lon="14.04013"><ele>1.0</ele><time>2026-04-26T07:56:55.158Z</time></trkpt><trkpt lat="40.901245" lon="14.04015"><ele>0.9999999999999999</ele><time>2026-04-26T07:56:56.157Z</time></trkpt><trkpt lat="40.9011817" lon="14.0401717"><ele>1.0</ele><time>2026-04-26T07:56:57.156Z</time></trkpt><trkpt lat="40.9011167" lon="14.0401983"><ele>1.0</ele><time>2026-04-26T07:56:58.156Z</time></trkpt><trkpt lat="40.9010533" lon="14.0402217"><ele>0.9999999999999999</ele><time>2026-04-26T07:56:59.156Z</time></trkpt><trkpt lat="40.9009917" lon="14.04024"><ele>1.0</ele><time>2026-04-26T07:57:00.156Z</time></trkpt><trkpt lat="40.9009317" lon="14.0402667"><ele>1.0</ele><time>2026-04-26T07:57:01.156Z</time></trkpt><trkpt lat="40.90087" lon="14.0402967"><ele>1.1428571428571428</ele><time>2026-04-26T07:57:02.158Z</time></trkpt><trkpt lat="40.9008067" lon="14.04032"><ele>1.2857142857142856</ele><time>2026-04-26T07:57:03.156Z</time></trkpt><trkpt lat="40.9007433" lon="14.04033"><ele>1.4285714285714284</ele><time>2026-04-26T07:57:04.157Z</time></trkpt><trkpt lat="40.900675" lon="14.040335"><ele>1.5714285714285714</ele><time>2026-04-26T07:57:05.157Z</time></trkpt><trkpt lat="40.90061" lon="14.04035"><ele>1.714285714285714</ele><time>2026-04-26T07:57:06.157Z</time></trkpt><trkpt lat="40.90055" lon="14.040385"><ele>1.857142857142857</ele><time>2026-04-26T07:57:07.156Z</time></trkpt><trkpt lat="40.9005" lon="14.04044"><ele>2.0</ele><time>2026-04-26T07:57:08.157Z</time></trkpt><trkpt lat="40.90046" lon="14.04051"><ele>2.0</ele><time>2026-04-26T07:57:09.156Z</time></trkpt><trkpt lat="40.9004167" lon="14.040575"><ele>1.9999999999999998</ele><time>2026-04-26T07:57:10.156Z</time></trkpt><trkpt lat="40.9003733" lon="14.04064"><ele>2.0</ele><time>2026-04-26T07:57:11.156Z</time></trkpt><trkpt lat="40.9003267" lon="14.0407067"><ele>2.0</ele><time>2026-04-26T07:57:12.157Z</time></trkpt><trkpt lat="40.9002783" lon="14.0407717"><ele>1.9999999999999998</ele><time>2026-04-26T07:57:13.157Z</time></trkpt><trkpt lat="40.9002317" lon="14.040835"><ele>2.0</ele><time>2026-04-26T07:57:14.157Z</time></trkpt><trkpt lat="40.9001833" lon="14.0409"><ele>2.0</ele><time>2026-04-26T07:57:15.158Z</time></trkpt><trkpt lat="40.900135" lon="14.0409633"><ele>2.0</ele><time>2026-04-26T07:57:16.156Z</time></trkpt><trkpt lat="40.9000833" lon="14.041025"><ele>1.9999999999999998</ele><time>2026-04-26T07:57:17.157Z</time></trkpt><trkpt lat="40.9000317" lon="14.04109"><ele>2.0</ele><time>2026-04-26T07:57:18.157Z</time></trkpt><trkpt lat="40.89998" lon="14.0411567"><ele>2.0</ele><time>2026-04-26T07:57:19.156Z</time></trkpt><trkpt lat="40.8999283" lon="14.041225"><ele>1.9999999999999998</ele><time>2026-04-26T07:57:20.157Z</time></trkpt><trkpt lat="40.8998767" lon="14.0412933"><ele>2.0</ele><time>2026-04-26T07:57:21.158Z</time></trkpt><trkpt lat="40.8998267" lon="14.0413617"><ele>2.0</ele><time>2026-04-26T07:57:22.155Z</time></trkpt><trkpt lat="40.899775" lon="14.04143"><ele>2.0</ele><time>2026-04-26T07:57:23.157Z</time></trkpt><trkpt lat="40.8997233" lon="14.0414933"><ele>1.9999999999999998</ele><time>2026-04-26T07:57:24.157Z</time></trkpt><trkpt lat="40.8996717" lon="14.041555"><ele>2.0</ele><time>2026-04-26T07:57:25.16Z</time></trkpt><trkpt lat="40.8996183" lon="14.04162"><ele>2.0</ele><time>2026-04-26T07:57:26.157Z</time></trkpt><trkpt lat="40.8995683" lon="14.04169"><ele>1.9999999999999998</ele><time>2026-04-26T07:57:27.156Z</time></trkpt><trkpt lat="40.899515" lon="14.04176"><ele>2.0</ele><time>2026-04-26T07:57:28.156Z</time></trkpt><trkpt lat="40.8994633" lon="14.041825"><ele>2.0</ele><time>2026-04-26T07:57:29.157Z</time></trkpt><trkpt lat="40.8994117" lon="14.04189"><ele>2.142857142857143</ele><time>2026-04-26T07:57:30.158Z</time></trkpt><trkpt lat="40.8993617" lon="14.0419583"><ele>2.2857142857142856</ele><time>2026-04-26T07:57:31.16Z</time></trkpt><trkpt lat="40.89931" lon="14.0420317"><ele>2.4285714285714284</ele><time>2026-04-26T07:57:32.157Z</time></trkpt><trkpt lat="40.8992583" lon="14.0421"><ele>2.571428571428571</ele><time>2026-04-26T07:57:33.156Z</time></trkpt><trkpt lat="40.8992083" lon="14.0421683"><ele>2.7142857142857144</ele><time>2026-04-26T07:57:34.157Z</time></trkpt><trkpt lat="40.8991533" lon="14.0422417"><ele>2.8571428571428568</ele><time>2026-04-26T07:57:35.157Z</time></trkpt><trkpt lat="40.8991017" lon="14.04231"><ele>3.0</ele><time>2026-04-26T07:57:36.157Z</time></trkpt><trkpt lat="40.8990483" lon="14.0423767"><ele>2.9999999999999996</ele><time>2026-04-26T07:57:37.156Z</time></trkpt><trkpt lat="40.8989933" lon="14.0424433"><ele>3.0</ele><time>2026-04-26T07:57:38.157Z</time></trkpt><trkpt lat="40.8989417" lon="14.042505"><ele>3.0</ele><time>2026-04-26T07:57:39.156Z</time></trkpt><trkpt lat="40.8988883" lon="14.0425717"><ele>3.0</ele><time>2026-04-26T07:57:40.157Z</time></trkpt><trkpt lat="40.8988333" lon="14.04264"><ele>3.0</ele><time>2026-04-26T07:57:41.156Z</time></trkpt><trkpt lat="40.8987767" lon="14.0427083"><ele>2.9999999999999996</ele><time>2026-04-26T07:57:42.157Z</time></trkpt><trkpt lat="40.8987217" lon="14.042775"><ele>3.0</ele><time>2026-04-26T07:57:43.156Z</time></trkpt><trkpt lat="40.89867" lon="14.0428417"><ele>3.0</ele><time>2026-04-26T07:57:44.156Z</time></trkpt><trkpt lat="40.8986167" lon="14.0429117"><ele>3.0</ele><time>2026-04-26T07:57:45.158Z</time></trkpt><trkpt lat="40.8985617" lon="14.04298"><ele>3.0</ele><time>2026-04-26T07:57:46.157Z</time></trkpt><trkpt lat="40.8985033" lon="14.0430467"><ele>3.0</ele><time>2026-04-26T07:57:47.156Z</time></trkpt><trkpt lat="40.8984433" lon="14.0431167"><ele>3.0</ele><time>2026-04-26T07:57:48.156Z</time></trkpt><trkpt lat="40.8983817" lon="14.0431833"><ele>3.0</ele><time>2026-04-26T07:57:49.156Z</time></trkpt><trkpt lat="40.89832" lon="14.04325"><ele>2.6666666666666665</ele><time>2026-04-26T07:57:50.156Z</time></trkpt><trkpt lat="40.8982583" lon="14.0433117"><ele>2.3333333333333335</ele><time>2026-04-26T07:57:51.156Z</time></trkpt><trkpt lat="40.898195" lon="14.04337"><ele>2.0</ele><time>2026-04-26T07:57:52.157Z</time></trkpt><trkpt lat="40.89813" lon="14.0434283"><ele>1.6666666666666665</ele><time>2026-04-26T07:57:53.157Z</time></trkpt><trkpt lat="40.8980633" lon="14.0434883"><ele>1.3333333333333333</ele><time>2026-04-26T07:57:54.156Z</time></trkpt><trkpt lat="40.8979967" lon="14.0435417"><ele>1.0</ele><time>2026-04-26T07:57:55.156Z</time></trkpt><trkpt lat="40.8979283" lon="14.04359"><ele>0.9999999999999999</ele><time>2026-04-26T07:57:56.157Z</time></trkpt><trkpt lat="40.8978583" lon="14.04364"><ele>1.0</ele><time>2026-04-26T07:57:57.157Z</time></trkpt><trkpt lat="40.89779" lon="14.0436867"><ele>1.0</ele><time>2026-04-26T07:57:58.156Z</time></trkpt><trkpt lat="40.8977183" lon="14.0437333"><ele>1.0</ele><time>2026-04-26T07:57:59.159Z</time></trkpt><trkpt lat="40.8976433" lon="14.04377"><ele>0.9999999999999999</ele><time>2026-04-26T07:58:00.156Z</time></trkpt><trkpt lat="40.8975683" lon="14.0438117"><ele>1.0</ele><time>2026-04-26T07:58:01.157Z</time></trkpt><trkpt lat="40.8974933" lon="14.04385"><ele>0.9999999999999999</ele><time>2026-04-26T07:58:02.156Z</time></trkpt><trkpt lat="40.8974183" lon="14.0438833"><ele>1.0</ele><time>2026-04-26T07:58:03.157Z</time></trkpt><trkpt lat="40.8973383" lon="14.0439133"><ele>1.0</ele><time>2026-04-26T07:58:04.157Z</time></trkpt><trkpt lat="40.8972583" lon="14.0439433"><ele>1.0</ele><time>2026-04-26T07:58:05.157Z</time></trkpt><trkpt lat="40.89718" lon="14.04397"><ele>0.9999999999999999</ele><time>2026-04-26T07:58:06.156Z</time></trkpt><trkpt lat="40.8971017" lon="14.044"><ele>1.0</ele><time>2026-04-26T07:58:07.162Z</time></trkpt><trkpt lat="40.8970233" lon="14.04402"><ele>0.9999999999999999</ele><time>2026-04-26T07:58:08.157Z</time></trkpt><trkpt lat="40.896945" lon="14.0440383"><ele>1.0</ele><time>2026-04-26T07:58:09.158Z</time></trkpt><trkpt lat="40.896865" lon="14.0440617"><ele>1.0</ele><time>2026-04-26T07:58:10.156Z</time></trkpt><trkpt lat="40.896785" lon="14.0440817"><ele>1.0</ele><time>2026-04-26T07:58:11.157Z</time></trkpt><trkpt lat="40.8967033" lon="14.0440967"><ele>0.9999999999999999</ele><time>2026-04-26T07:58:12.157Z</time></trkpt><trkpt lat="40.89662" lon="14.044115"><ele>1.0</ele><time>2026-04-26T07:58:13.157Z</time></trkpt><trkpt lat="40.8965383" lon="14.0441333"><ele>0.9999999999999999</ele><time>2026-04-26T07:58:14.157Z</time></trkpt><trkpt lat="40.8964567" lon="14.0441483"><ele>1.0</ele><time>2026-04-26T07:58:15.157Z</time></trkpt><trkpt lat="40.896375" lon="14.0441667"><ele>1.0</ele><time>2026-04-26T07:58:16.157Z</time></trkpt><trkpt lat="40.8962933" lon="14.0441867"><ele>1.0</ele><time>2026-04-26T07:58:17.156Z</time></trkpt><trkpt lat="40.89621" lon="14.0442083"><ele>0.9999999999999999</ele><time>2026-04-26T07:58:18.156Z</time></trkpt><trkpt lat="40.8961267" lon="14.044225"><ele>1.0</ele><time>2026-04-26T07:58:19.157Z</time></trkpt><trkpt lat="40.8960433" lon="14.0442417"><ele>0.9999999999999999</ele><time>2026-04-26T07:58:20.158Z</time></trkpt><trkpt lat="40.8959633" lon="14.0442517"><ele>1.0</ele><time>2026-04-26T07:58:21.156Z</time></trkpt><trkpt lat="40.8958833" lon="14.0442667"><ele>1.0</ele><time>2026-04-26T07:58:22.156Z</time></trkpt><trkpt lat="40.895805" lon="14.0442867"><ele>1.0</ele><time>2026-04-26T07:58:23.156Z</time></trkpt><trkpt lat="40.8957233" lon="14.044305"><ele>0.9999999999999999</ele><time>2026-04-26T07:58:24.156Z</time></trkpt><trkpt lat="40.8956417" lon="14.0443233"><ele>1.0</ele><time>2026-04-26T07:58:25.157Z</time></trkpt><trkpt lat="40.89556" lon="14.0443417"><ele>0.8333333333333333</ele><time>2026-04-26T07:58:26.156Z</time></trkpt><trkpt lat="40.8954783" lon="14.0443583"><ele>0.6666666666666666</ele><time>2026-04-26T07:58:27.156Z</time></trkpt><trkpt lat="40.8953983" lon="14.0443783"><ele>0.5</ele><time>2026-04-26T07:58:28.157Z</time></trkpt><trkpt lat="40.8953183" lon="14.0443983"><ele>0.3333333333333333</ele><time>2026-04-26T07:58:29.157Z</time></trkpt><trkpt lat="40.8952433" lon="14.0444167"><ele>0.16666666666666666</ele><time>2026-04-26T07:58:30.16Z</time></trkpt><trkpt lat="40.8951683" lon="14.044435"><ele>0.0</ele><time>2026-04-26T07:58:31.158Z</time></trkpt><trkpt lat="40.8950933" lon="14.044455"><ele>0.16666666666666666</ele><time>2026-04-26T07:58:32.157Z</time></trkpt><trkpt lat="40.8950167" lon="14.0444733"><ele>0.3333333333333333</ele><time>2026-04-26T07:58:33.157Z</time></trkpt><trkpt lat="40.89494" lon="14.04449"><ele>0.5</ele><time>2026-04-26T07:58:34.157Z</time></trkpt><trkpt lat="40.8948617" lon="14.0445083"><ele>0.6666666666666666</ele><time>2026-04-26T07:58:35.156Z</time></trkpt><trkpt lat="40.8947833" lon="14.0445233"><ele>0.8333333333333333</ele><time>2026-04-26T07:58:36.158Z</time></trkpt><trkpt lat="40.8947083" lon="14.044535"><ele>1.0</ele><time>2026-04-26T07:58:37.157Z</time></trkpt><trkpt lat="40.894635" lon="14.0445467"><ele>0.9999999999999999</ele><time>2026-04-26T07:58:38.156Z</time></trkpt><trkpt lat="40.8945633" lon="14.0445583"><ele>1.0</ele><time>2026-04-26T07:58:39.156Z</time></trkpt><trkpt lat="40.8944883" lon="14.044575"><ele>1.0</ele><time>2026-04-26T07:58:40.156Z</time></trkpt><trkpt lat="40.8944117" lon="14.0445933"><ele>1.0</ele><time>2026-04-26T07:58:41.157Z</time></trkpt><trkpt lat="40.8943333" lon="14.0446067"><ele>0.9999999999999999</ele><time>2026-04-26T07:58:42.158Z</time></trkpt><trkpt lat="40.8942533" lon="14.0446267"><ele>1.0</ele><time>2026-04-26T07:58:43.156Z</time></trkpt><trkpt lat="40.8941733" lon="14.044645"><ele>0.8333333333333333</ele><time>2026-04-26T07:58:44.16Z</time></trkpt><trkpt lat="40.8940933" lon="14.0446567"><ele>0.6666666666666666</ele><time>2026-04-26T07:58:45.157Z</time></trkpt><trkpt lat="40.8940117" lon="14.0446733"><ele>0.5</ele><time>2026-04-26T07:58:46.156Z</time></trkpt><trkpt lat="40.8939333" lon="14.04469"><ele>0.3333333333333333</ele><time>2026-04-26T07:58:47.159Z</time></trkpt><trkpt lat="40.8938567" lon="14.0446967"><ele>0.16666666666666666</ele><time>2026-04-26T07:58:48.157Z</time></trkpt><trkpt lat="40.8937767" lon="14.0447083"><ele>0.0</ele><time>2026-04-26T07:58:49.156Z</time></trkpt><trkpt lat="40.8936933" lon="14.0447267"><ele>0.0</ele><time>2026-04-26T07:58:50.156Z</time></trkpt><trkpt lat="40.893615" lon="14.044745"><ele>0.0</ele><time>2026-04-26T07:58:51.158Z</time></trkpt><trkpt lat="40.89353" lon="14.0447667"><ele>0.0</ele><time>2026-04-26T07:58:52.156Z</time></trkpt><trkpt lat="40.89345" lon="14.0447817"><ele>0.0</ele><time>2026-04-26T07:58:53.156Z</time></trkpt><trkpt lat="40.8933683" lon="14.0447983"><ele>0.0</ele><time>2026-04-26T07:58:54.157Z</time></trkpt><trkpt lat="40.8932883" lon="14.044815"><ele>0.0</ele><time>2026-04-26T07:58:55.156Z</time></trkpt><trkpt lat="40.8932083" lon="14.0448333"><ele>-0.16666666666666666</ele><time>2026-04-26T07:58:56.158Z</time></trkpt><trkpt lat="40.8931283" lon="14.0448467"><ele>-0.3333333333333333</ele><time>2026-04-26T07:58:57.156Z</time></trkpt><trkpt lat="40.8930517" lon="14.0448617"><ele>-0.5</ele><time>2026-04-26T07:58:58.159Z</time></trkpt><trkpt lat="40.8929717" lon="14.0448817"><ele>-0.6666666666666666</ele><time>2026-04-26T07:58:59.158Z</time></trkpt><trkpt lat="40.8928933" lon="14.0448983"><ele>-0.8333333333333333</ele><time>2026-04-26T07:59:00.157Z</time></trkpt><trkpt lat="40.89281" lon="14.0449183"><ele>-1.0</ele><time>2026-04-26T07:59:01.157Z</time></trkpt><trkpt lat="40.89273" lon="14.0449367"><ele>-0.9999999999999999</ele><time>2026-04-26T07:59:02.157Z</time></trkpt><trkpt lat="40.8926483" lon="14.0449567"><ele>-1.0</ele><time>2026-04-26T07:59:03.158Z</time></trkpt><trkpt lat="40.8925683" lon="14.04498"><ele>-1.0</ele><time>2026-04-26T07:59:04.156Z</time></trkpt><trkpt lat="40.892485" lon="14.045"><ele>-1.0</ele><time>2026-04-26T07:59:05.157Z</time></trkpt><trkpt lat="40.8924017" lon="14.04502"><ele>-0.9999999999999999</ele><time>2026-04-26T07:59:06.157Z</time></trkpt><trkpt lat="40.8923217" lon="14.0450383"><ele>-1.0</ele><time>2026-04-26T07:59:07.157Z</time></trkpt><trkpt lat="40.8922417" lon="14.0450583"><ele>-0.8333333333333333</ele><time>2026-04-26T07:59:08.158Z</time></trkpt><trkpt lat="40.8921583" lon="14.04508"><ele>-0.6666666666666666</ele><time>2026-04-26T07:59:09.157Z</time></trkpt><trkpt lat="40.892075" lon="14.045105"><ele>-0.5</ele><time>2026-04-26T07:59:10.157Z</time></trkpt><trkpt lat="40.8919917" lon="14.045125"><ele>-0.3333333333333333</ele><time>2026-04-26T07:59:11.158Z</time></trkpt><trkpt lat="40.8919117" lon="14.0451483"><ele>-0.16666666666666666</ele><time>2026-04-26T07:59:12.156Z</time></trkpt><trkpt lat="40.8918283" lon="14.0451667"><ele>0.0</ele><time>2026-04-26T07:59:13.156Z</time></trkpt><trkpt lat="40.8917467" lon="14.0451867"><ele>0.0</ele><time>2026-04-26T07:59:14.159Z</time></trkpt><trkpt lat="40.8916667" lon="14.0452117"><ele>0.0</ele><time>2026-04-26T07:59:15.157Z</time></trkpt><trkpt lat="40.8915883" lon="14.0452333"><ele>0.0</ele><time>2026-04-26T07:59:16.158Z</time></trkpt><trkpt lat="40.8915083" lon="14.045255"><ele>0.0</ele><time>2026-04-26T07:59:17.157Z</time></trkpt><trkpt lat="40.891425" lon="14.0452767"><ele>0.0</ele><time>2026-04-26T07:59:18.157Z</time></trkpt><trkpt lat="40.8913433" lon="14.0452983"><ele>0.0</ele><time>2026-04-26T07:59:19.156Z</time></trkpt><trkpt lat="40.8912617" lon="14.04532"><ele>0.0</ele><time>2026-04-26T07:59:20.158Z</time></trkpt><trkpt lat="40.8911767" lon="14.0453417"><ele>0.0</ele><time>2026-04-26T07:59:21.156Z</time></trkpt><trkpt lat="40.8910917" lon="14.0453633"><ele>0.0</ele><time>2026-04-26T07:59:22.157Z</time></trkpt><trkpt lat="40.8910067" lon="14.0453833"><ele>0.0</ele><time>2026-04-26T07:59:23.157Z</time></trkpt><trkpt lat="40.8909233" lon="14.045405"><ele>0.0</ele><time>2026-04-26T07:59:24.157Z</time></trkpt><trkpt lat="40.89084" lon="14.0454267"><ele>0.0</ele><time>2026-04-26T07:59:25.156Z</time></trkpt><trkpt lat="40.8907567" lon="14.0454467"><ele>-0.3333333333333333</ele><time>2026-04-26T07:59:26.157Z</time></trkpt><trkpt lat="40.89067" lon="14.0454683"><ele>-0.6666666666666666</ele><time>2026-04-26T07:59:27.156Z</time></trkpt><trkpt lat="40.890585" lon="14.0454833"><ele>-1.0</ele><time>2026-04-26T07:59:28.165Z</time></trkpt><trkpt lat="40.8905033" lon="14.0455017"><ele>-1.3333333333333333</ele><time>2026-04-26T07:59:29.157Z</time></trkpt><trkpt lat="40.89042" lon="14.04552"><ele>-1.6666666666666665</ele><time>2026-04-26T07:59:30.156Z</time></trkpt><trkpt lat="40.890335" lon="14.0455367"><ele>-2.0</ele><time>2026-04-26T07:59:31.156Z</time></trkpt><trkpt lat="40.8902533" lon="14.0455567"><ele>-1.9999999999999998</ele><time>2026-04-26T07:59:32.156Z</time></trkpt><trkpt lat="40.89017" lon="14.04558"><ele>-2.0</ele><time>2026-04-26T07:59:33.16Z</time></trkpt><trkpt lat="40.8900867" lon="14.0456067"><ele>-2.0</ele><time>2026-04-26T07:59:34.156Z</time></trkpt><trkpt lat="40.8900033" lon="14.0456283"><ele>-2.0</ele><time>2026-04-26T07:59:35.158Z</time></trkpt><trkpt lat="40.8899233" lon="14.0456467"><ele>-1.9999999999999998</ele><time>2026-04-26T07:59:36.156Z</time></trkpt><trkpt lat="40.889845" lon="14.045665"><ele>-2.0</ele><time>2026-04-26T07:59:37.158Z</time></trkpt><trkpt lat="40.8897683" lon="14.045685"><ele>-1.857142857142857</ele><time>2026-04-26T07:59:38.157Z</time></trkpt><trkpt lat="40.8896933" lon="14.045705"><ele>-1.714285714285714</ele><time>2026-04-26T07:59:39.158Z</time></trkpt><trkpt lat="40.88962" lon="14.045725"><ele>-1.5714285714285714</ele><time>2026-04-26T07:59:40.156Z</time></trkpt><trkpt lat="40.8895467" lon="14.0457433"><ele>-1.4285714285714284</ele><time>2026-04-26T07:59:41.156Z</time></trkpt><trkpt lat="40.8894733" lon="14.0457633"><ele>-1.2857142857142856</ele><time>2026-04-26T07:59:42.157Z</time></trkpt><trkpt lat="40.8894017" lon="14.0457867"><ele>-1.1428571428571428</ele><time>2026-04-26T07:59:43.157Z</time></trkpt><trkpt lat="40.88933" lon="14.045805"><ele>-1.0</ele><time>2026-04-26T07:59:44.156Z</time></trkpt><trkpt lat="40.88926" lon="14.0458167"><ele>-1.2857142857142856</ele><time>2026-04-26T07:59:45.156Z</time></trkpt><trkpt lat="40.88919" lon="14.045825"><ele>-1.5714285714285712</ele><time>2026-04-26T07:59:46.158Z</time></trkpt><trkpt lat="40.88912" lon="14.0458367"><ele>-1.857142857142857</ele><time>2026-04-26T07:59:47.158Z</time></trkpt><trkpt lat="40.8890517" lon="14.0458483"><ele>-2.142857142857143</ele><time>2026-04-26T07:59:48.157Z</time></trkpt><trkpt lat="40.8889867" lon="14.0458617"><ele>-2.4285714285714284</ele><time>2026-04-26T07:59:49.157Z</time></trkpt><trkpt lat="40.8889233" lon="14.045875"><ele>-2.714285714285714</ele><time>2026-04-26T07:59:50.158Z</time></trkpt><trkpt lat="40.8888583" lon="14.04589"><ele>-3.0</ele><time>2026-04-26T07:59:51.159Z</time></trkpt><trkpt lat="40.8887933" lon="14.0459067"><ele>-2.9999999999999996</ele><time>2026-04-26T07:59:52.157Z</time></trkpt><trkpt lat="40.8887233" lon="14.0459267"><ele>-3.0</ele><time>2026-04-26T07:59:53.158Z</time></trkpt><trkpt lat="40.8886533" lon="14.0459467"><ele>-3.0</ele><time>2026-04-26T07:59:54.157Z</time></trkpt><trkpt lat="40.888585" lon="14.0459633"><ele>-3.0</ele><time>2026-04-26T07:59:55.157Z</time></trkpt><trkpt lat="40.8885167" lon="14.0459767"><ele>-3.0</ele><time>2026-04-26T07:59:56.157Z</time></trkpt><trkpt lat="40.8884483" lon="14.04599"><ele>-2.9999999999999996</ele><time>2026-04-26T07:59:57.156Z</time></trkpt><trkpt lat="40.88838" lon="14.0460067"><ele>-3.0</ele><time>2026-04-26T07:59:58.158Z</time></trkpt><trkpt lat="40.8883133" lon="14.04602"><ele>-3.1428571428571423</ele><time>2026-04-26T07:59:59.156Z</time></trkpt><trkpt lat="40.8882483" lon="14.0460333"><ele>-3.2857142857142856</ele><time>2026-04-26T08:00:00.156Z</time></trkpt><trkpt lat="40.8881817" lon="14.046045"><ele>-3.4285714285714284</ele><time>2026-04-26T08:00:01.158Z</time></trkpt><trkpt lat="40.8881133" lon="14.04606"><ele>-3.571428571428571</ele><time>2026-04-26T08:00:02.157Z</time></trkpt><trkpt lat="40.888045" lon="14.046075"><ele>-3.714285714285714</ele><time>2026-04-26T08:00:03.156Z</time></trkpt><trkpt lat="40.8879717" lon="14.0460917"><ele>-3.8571428571428568</ele><time>2026-04-26T08:00:04.156Z</time></trkpt><trkpt lat="40.8878983" lon="14.0461067"><ele>-4.0</ele><time>2026-04-26T08:00:05.156Z</time></trkpt><trkpt lat="40.887825" lon="14.0461267"><ele>-3.9999999999999996</ele><time>2026-04-26T08:00:06.156Z</time></trkpt><trkpt lat="40.88775" lon="14.046145"><ele>-4.0</ele><time>2026-04-26T08:00:07.157Z</time></trkpt><trkpt lat="40.887675" lon="14.0461683"><ele>-4.0</ele><time>2026-04-26T08:00:08.158Z</time></trkpt><trkpt lat="40.8876" lon="14.0461883"><ele>-4.0</ele><time>2026-04-26T08:00:09.156Z</time></trkpt><trkpt lat="40.887525" lon="14.04621"><ele>-3.9999999999999996</ele><time>2026-04-26T08:00:10.157Z</time></trkpt><trkpt lat="40.88745" lon="14.046225"><ele>-4.0</ele><time>2026-04-26T08:00:11.157Z</time></trkpt><trkpt lat="40.8873733" lon="14.0462417"><ele>-4.166666666666666</ele><time>2026-04-26T08:00:12.158Z</time></trkpt><trkpt lat="40.8872967" lon="14.0462583"><ele>-4.333333333333333</ele><time>2026-04-26T08:00:13.157Z</time></trkpt><trkpt lat="40.88722" lon="14.0462717"><ele>-4.5</ele><time>2026-04-26T08:00:14.156Z</time></trkpt><trkpt lat="40.8871433" lon="14.0462883"><ele>-4.666666666666667</ele><time>2026-04-26T08:00:15.156Z</time></trkpt><trkpt lat="40.8870683" lon="14.0463017"><ele>-4.833333333333334</ele><time>2026-04-26T08:00:16.156Z</time></trkpt><trkpt lat="40.88699" lon="14.04632"><ele>-5.0</ele><time>2026-04-26T08:00:17.157Z</time></trkpt><trkpt lat="40.88691" lon="14.04634"><ele>-5.0</ele><time>2026-04-26T08:00:18.157Z</time></trkpt><trkpt lat="40.8868317" lon="14.0463517"><ele>-5.0</ele><time>2026-04-26T08:00:19.157Z</time></trkpt><trkpt lat="40.8867567" lon="14.0463633"><ele>-5.0</ele><time>2026-04-26T08:00:20.158Z</time></trkpt><trkpt lat="40.88668" lon="14.0463783"><ele>-5.0</ele><time>2026-04-26T08:00:21.158Z</time></trkpt><trkpt lat="40.8866017" lon="14.0463917"><ele>-5.0</ele><time>2026-04-26T08:00:22.158Z</time></trkpt><trkpt lat="40.8865233" lon="14.046405"><ele>-5.0</ele><time>2026-04-26T08:00:23.156Z</time></trkpt><trkpt lat="40.8864433" lon="14.0464183"><ele>-4.5</ele><time>2026-04-26T08:00:24.157Z</time></trkpt><trkpt lat="40.8863667" lon="14.04643"><ele>-4.0</ele><time>2026-04-26T08:00:25.156Z</time></trkpt><trkpt lat="40.88629" lon="14.0464433"><ele>-3.5</ele><time>2026-04-26T08:00:26.158Z</time></trkpt><trkpt lat="40.8862133" lon="14.0464567"><ele>-3.0</ele><time>2026-04-26T08:00:27.16Z</time></trkpt><trkpt lat="40.886135" lon="14.0464717"><ele>-2.5</ele><time>2026-04-26T08:00:28.157Z</time></trkpt><trkpt lat="40.8860583" lon="14.0464867"><ele>-2.0</ele><time>2026-04-26T08:00:29.158Z</time></trkpt><trkpt lat="40.88598" lon="14.0465083"><ele>-1.9999999999999998</ele><time>2026-04-26T08:00:30.156Z</time></trkpt><trkpt lat="40.8859017" lon="14.0465317"><ele>-2.0</ele><time>2026-04-26T08:00:31.157Z</time></trkpt><trkpt lat="40.8858233" lon="14.046555"><ele>-2.0</ele><time>2026-04-26T08:00:32.157Z</time></trkpt><trkpt lat="40.8857433" lon="14.04658"><ele>-2.0</ele><time>2026-04-26T08:00:33.156Z</time></trkpt><trkpt lat="40.885665" lon="14.0466033"><ele>-1.9999999999999998</ele><time>2026-04-26T08:00:34.157Z</time></trkpt><trkpt lat="40.8855867" lon="14.0466267"><ele>-2.0</ele><time>2026-04-26T08:00:35.157Z</time></trkpt><trkpt lat="40.885505" lon="14.04665"><ele>-1.8333333333333333</ele><time>2026-04-26T08:00:36.157Z</time></trkpt><trkpt lat="40.8854233" lon="14.0466717"><ele>-1.6666666666666665</ele><time>2026-04-26T08:00:37.156Z</time></trkpt><trkpt lat="40.885345" lon="14.0466867"><ele>-1.5</ele><time>2026-04-26T08:00:38.158Z</time></trkpt><trkpt lat="40.8852667" lon="14.0467033"><ele>-1.3333333333333333</ele><time>2026-04-26T08:00:39.156Z</time></trkpt><trkpt lat="40.8851867" lon="14.04672"><ele>-1.1666666666666665</ele><time>2026-04-26T08:00:40.158Z</time></trkpt><trkpt lat="40.885105" lon="14.0467383"><ele>-1.0</ele><time>2026-04-26T08:00:41.156Z</time></trkpt><trkpt lat="40.8850283" lon="14.046755"><ele>-0.6666666666666666</ele><time>2026-04-26T08:00:42.158Z</time></trkpt><trkpt lat="40.8849483" lon="14.0467717"><ele>-0.3333333333333333</ele><time>2026-04-26T08:00:43.156Z</time></trkpt><trkpt lat="40.8848717" lon="14.0467883"><ele>0.0</ele><time>2026-04-26T08:00:44.157Z</time></trkpt><trkpt lat="40.884795" lon="14.0468033"><ele>0.3333333333333333</ele><time>2026-04-26T08:00:45.157Z</time></trkpt><trkpt lat="40.8847183" lon="14.04682"><ele>0.6666666666666666</ele><time>2026-04-26T08:00:46.157Z</time></trkpt><trkpt lat="40.8846467" lon="14.046835"><ele>1.0</ele><time>2026-04-26T08:00:47.157Z</time></trkpt><trkpt lat="40.8845717" lon="14.0468517"><ele>0.9999999999999999</ele><time>2026-04-26T08:00:48.158Z</time></trkpt><trkpt lat="40.8844967" lon="14.0468667"><ele>1.0</ele><time>2026-04-26T08:00:49.157Z</time></trkpt><trkpt lat="40.88442" lon="14.0468867"><ele>1.0</ele><time>2026-04-26T08:00:50.157Z</time></trkpt><trkpt lat="40.8843433" lon="14.0469033"><ele>1.0</ele><time>2026-04-26T08:00:51.156Z</time></trkpt><trkpt lat="40.8842667" lon="14.0469217"><ele>0.9999999999999999</ele><time>2026-04-26T08:00:52.157Z</time></trkpt><trkpt lat="40.8841917" lon="14.04694"><ele>1.0</ele><time>2026-04-26T08:00:53.156Z</time></trkpt><trkpt lat="40.8841183" lon="14.0469633"><ele>1.1666666666666665</ele><time>2026-04-26T08:00:54.157Z</time></trkpt><trkpt lat="40.884045" lon="14.0469833"><ele>1.3333333333333333</ele><time>2026-04-26T08:00:55.156Z</time></trkpt><trkpt lat="40.8839717" lon="14.0470083"><ele>1.5</ele><time>2026-04-26T08:00:56.161Z</time></trkpt><trkpt lat="40.8838967" lon="14.0470283"><ele>1.6666666666666665</ele><time>2026-04-26T08:00:57.158Z</time></trkpt><trkpt lat="40.8838183" lon="14.0470467"><ele>1.8333333333333333</ele><time>2026-04-26T08:00:58.156Z</time></trkpt><trkpt lat="40.8837433" lon="14.0470633"><ele>2.0</ele><time>2026-04-26T08:00:59.156Z</time></trkpt><trkpt lat="40.88367" lon="14.0470833"><ele>1.9999999999999998</ele><time>2026-04-26T08:01:00.156Z</time></trkpt><trkpt lat="40.883595" lon="14.0471017"><ele>2.0</ele><time>2026-04-26T08:01:01.157Z</time></trkpt><trkpt lat="40.8835217" lon="14.0471167"><ele>2.0</ele><time>2026-04-26T08:01:02.158Z</time></trkpt><trkpt lat="40.8834467" lon="14.0471333"><ele>2.0</ele><time>2026-04-26T08:01:03.156Z</time></trkpt><trkpt lat="40.8833733" lon="14.04715"><ele>1.9999999999999998</ele><time>2026-04-26T08:01:04.156Z</time></trkpt><trkpt lat="40.8832967" lon="14.04717"><ele>2.0</ele><time>2026-04-26T08:01:05.156Z</time></trkpt><trkpt lat="40.88322" lon="14.0471883"><ele>1.8333333333333333</ele><time>2026-04-26T08:01:06.157Z</time></trkpt><trkpt lat="40.883145" lon="14.0472067"><ele>1.6666666666666665</ele><time>2026-04-26T08:01:07.157Z</time></trkpt><trkpt lat="40.88307" lon="14.047225"><ele>1.5</ele><time>2026-04-26T08:01:08.156Z</time></trkpt><trkpt lat="40.8829933" lon="14.0472483"><ele>1.3333333333333333</ele><time>2026-04-26T08:01:09.157Z</time></trkpt><trkpt lat="40.8829167" lon="14.04727"><ele>1.1666666666666665</ele><time>2026-04-26T08:01:10.157Z</time></trkpt><trkpt lat="40.8828367" lon="14.04729"><ele>1.0</ele><time>2026-04-26T08:01:11.157Z</time></trkpt><trkpt lat="40.882755" lon="14.0473083"><ele>0.9999999999999999</ele><time>2026-04-26T08:01:12.158Z</time></trkpt><trkpt lat="40.8826733" lon="14.0473267"><ele>1.0</ele><time>2026-04-26T08:01:13.157Z</time></trkpt><trkpt lat="40.8825933" lon="14.0473433"><ele>1.0</ele><time>2026-04-26T08:01:14.156Z</time></trkpt><trkpt lat="40.8825133" lon="14.04736"><ele>1.0</ele><time>2026-04-26T08:01:15.157Z</time></trkpt><trkpt lat="40.882435" lon="14.0473767"><ele>0.9999999999999999</ele><time>2026-04-26T08:01:16.157Z</time></trkpt><trkpt lat="40.882355" lon="14.0473983"><ele>1.0</ele><time>2026-04-26T08:01:17.157Z</time></trkpt><trkpt lat="40.8822767" lon="14.0474183"><ele>0.9999999999999999</ele><time>2026-04-26T08:01:18.158Z</time></trkpt><trkpt lat="40.8821967" lon="14.047435"><ele>1.0</ele><time>2026-04-26T08:01:19.158Z</time></trkpt><trkpt lat="40.8821183" lon="14.0474533"><ele>1.0</ele><time>2026-04-26T08:01:20.156Z</time></trkpt><trkpt lat="40.8820383" lon="14.04747"><ele>1.0</ele><time>2026-04-26T08:01:21.156Z</time></trkpt><trkpt lat="40.8819617" lon="14.047485"><ele>0.9999999999999999</ele><time>2026-04-26T08:01:22.157Z</time></trkpt><trkpt lat="40.8818833" lon="14.0475017"><ele>1.0</ele><time>2026-04-26T08:01:23.157Z</time></trkpt><trkpt lat="40.881805" lon="14.0475183"><ele>0.8333333333333333</ele><time>2026-04-26T08:01:24.157Z</time></trkpt><trkpt lat="40.881725" lon="14.0475383"><ele>0.6666666666666666</ele><time>2026-04-26T08:01:25.156Z</time></trkpt><trkpt lat="40.8816467" lon="14.0475617"><ele>0.5</ele><time>2026-04-26T08:01:26.155Z</time></trkpt><trkpt lat="40.8815683" lon="14.0475867"><ele>0.3333333333333333</ele><time>2026-04-26T08:01:27.156Z</time></trkpt><trkpt lat="40.88149" lon="14.0476083"><ele>0.16666666666666666</ele><time>2026-04-26T08:01:28.156Z</time></trkpt><trkpt lat="40.881415" lon="14.0476267"><ele>0.0</ele><time>2026-04-26T08:01:29.156Z</time></trkpt><trkpt lat="40.8813383" lon="14.0476467"><ele>0.0</ele><time>2026-04-26T08:01:30.157Z</time></trkpt><trkpt lat="40.8812617" lon="14.0476633"><ele>0.0</ele><time>2026-04-26T08:01:31.156Z</time></trkpt><trkpt lat="40.881185" lon="14.0476817"><ele>0.0</ele><time>2026-04-26T08:01:32.157Z</time></trkpt><trkpt lat="40.8811083" lon="14.0476983"><ele>0.0</ele><time>2026-04-26T08:01:33.156Z</time></trkpt><trkpt lat="40.88103" lon="14.0477117"><ele>0.0</ele><time>2026-04-26T08:01:34.156Z</time></trkpt><trkpt lat="40.8809533" lon="14.0477267"><ele>0.0</ele><time>2026-04-26T08:01:35.16Z</time></trkpt><trkpt lat="40.880875" lon="14.0477467"><ele>0.0</ele><time>2026-04-26T08:01:36.157Z</time></trkpt><trkpt lat="40.8807967" lon="14.0477633"><ele>0.0</ele><time>2026-04-26T08:01:37.156Z</time></trkpt><trkpt lat="40.8807167" lon="14.0477817"><ele>0.0</ele><time>2026-04-26T08:01:38.156Z</time></trkpt><trkpt lat="40.8806417" lon="14.0478017"><ele>0.0</ele><time>2026-04-26T08:01:39.156Z</time></trkpt><trkpt lat="40.8805667" lon="14.0478217"><ele>0.0</ele><time>2026-04-26T08:01:40.156Z</time></trkpt><trkpt lat="40.8804917" lon="14.0478383"><ele>0.0</ele><time>2026-04-26T08:01:41.156Z</time></trkpt><trkpt lat="40.880415" lon="14.0478583"><ele>0.0</ele><time>2026-04-26T08:01:42.156Z</time></trkpt><trkpt lat="40.880335" lon="14.047875"><ele>0.0</ele><time>2026-04-26T08:01:43.155Z</time></trkpt><trkpt lat="40.8802567" lon="14.047895"><ele>0.0</ele><time>2026-04-26T08:01:44.156Z</time></trkpt><trkpt lat="40.88018" lon="14.047915"><ele>0.0</ele><time>2026-04-26T08:01:45.155Z</time></trkpt><trkpt lat="40.8801033" lon="14.0479317"><ele>0.0</ele><time>2026-04-26T08:01:46.155Z</time></trkpt><trkpt lat="40.8800283" lon="14.047945"><ele>0.0</ele><time>2026-04-26T08:01:47.155Z</time></trkpt><trkpt lat="40.8799533" lon="14.0479583"><ele>0.0</ele><time>2026-04-26T08:01:48.157Z</time></trkpt><trkpt lat="40.8798783" lon="14.047975"><ele>0.0</ele><time>2026-04-26T08:01:49.155Z</time></trkpt><trkpt lat="40.8798017" lon="14.0479917"><ele>0.0</ele><time>2026-04-26T08:01:50.157Z</time></trkpt><trkpt lat="40.8797283" lon="14.0480067"><ele>0.0</ele><time>2026-04-26T08:01:51.155Z</time></trkpt><trkpt lat="40.87965" lon="14.0480267"><ele>0.0</ele><time>2026-04-26T08:01:52.157Z</time></trkpt><trkpt lat="40.8795733" lon="14.0480433"><ele>0.0</ele><time>2026-04-26T08:01:53.156Z</time></trkpt><trkpt lat="40.8794983" lon="14.04806"><ele>0.0</ele><time>2026-04-26T08:01:54.155Z</time></trkpt><trkpt lat="40.8794267" lon="14.0480767"><ele>0.0</ele><time>2026-04-26T08:01:55.156Z</time></trkpt><trkpt lat="40.8793517" lon="14.04809"><ele>0.0</ele><time>2026-04-26T08:01:56.156Z</time></trkpt><trkpt lat="40.8792767" lon="14.0481067"><ele>0.0</ele><time>2026-04-26T08:01:57.156Z</time></trkpt><trkpt lat="40.879205" lon="14.0481183"><ele>0.0</ele><time>2026-04-26T08:01:58.155Z</time></trkpt><trkpt lat="40.8791333" lon="14.0481333"><ele>0.0</ele><time>2026-04-26T08:01:59.157Z</time></trkpt><trkpt lat="40.8790633" lon="14.0481517"><ele>0.0</ele><time>2026-04-26T08:02:00.156Z</time></trkpt><trkpt lat="40.87899" lon="14.0481683"><ele>0.14285714285714285</ele><time>2026-04-26T08:02:01.156Z</time></trkpt><trkpt lat="40.878915" lon="14.0481833"><ele>0.2857142857142857</ele><time>2026-04-26T08:02:02.156Z</time></trkpt><trkpt lat="40.8788417" lon="14.0482"><ele>0.42857142857142855</ele><time>2026-04-26T08:02:03.156Z</time></trkpt><trkpt lat="40.87877" lon="14.0482183"><ele>0.5714285714285714</ele><time>2026-04-26T08:02:04.157Z</time></trkpt><trkpt lat="40.8786983" lon="14.0482383"><ele>0.7142857142857142</ele><time>2026-04-26T08:02:05.155Z</time></trkpt><trkpt lat="40.8786267" lon="14.04826"><ele>0.8571428571428571</ele><time>2026-04-26T08:02:06.157Z</time></trkpt><trkpt lat="40.878555" lon="14.04828"><ele>1.0</ele><time>2026-04-26T08:02:07.155Z</time></trkpt><trkpt lat="40.87848" lon="14.0482983"><ele>0.6666666666666666</ele><time>2026-04-26T08:02:08.163Z</time></trkpt><trkpt lat="40.8784067" lon="14.0483167"><ele>0.3333333333333333</ele><time>2026-04-26T08:02:09.157Z</time></trkpt><trkpt lat="40.8783317" lon="14.0483333"><ele>0.0</ele><time>2026-04-26T08:02:10.155Z</time></trkpt><trkpt lat="40.878255" lon="14.04835"><ele>-0.3333333333333333</ele><time>2026-04-26T08:02:11.156Z</time></trkpt><trkpt lat="40.8781783" lon="14.04837"><ele>-0.6666666666666666</ele><time>2026-04-26T08:02:12.157Z</time></trkpt><trkpt lat="40.8781" lon="14.0483917"><ele>-1.0</ele><time>2026-04-26T08:02:13.155Z</time></trkpt><trkpt lat="40.8780233" lon="14.0484067"><ele>-0.9999999999999999</ele><time>2026-04-26T08:02:14.158Z</time></trkpt><trkpt lat="40.877945" lon="14.0484233"><ele>-1.0</ele><time>2026-04-26T08:02:15.155Z</time></trkpt><trkpt lat="40.8778683" lon="14.0484383"><ele>-1.0</ele><time>2026-04-26T08:02:16.156Z</time></trkpt><trkpt lat="40.8777867" lon="14.0484567"><ele>-1.0</ele><time>2026-04-26T08:02:17.155Z</time></trkpt><trkpt lat="40.8777067" lon="14.0484733"><ele>-0.9999999999999999</ele><time>2026-04-26T08:02:18.156Z</time></trkpt><trkpt lat="40.8776233" lon="14.04849"><ele>-1.0</ele><time>2026-04-26T08:02:19.155Z</time></trkpt><trkpt lat="40.877545" lon="14.0485067"><ele>-0.8333333333333333</ele><time>2026-04-26T08:02:20.156Z</time></trkpt><trkpt lat="40.8774683" lon="14.048525"><ele>-0.6666666666666666</ele><time>2026-04-26T08:02:21.157Z</time></trkpt><trkpt lat="40.87739" lon="14.0485417"><ele>-0.5</ele><time>2026-04-26T08:02:22.155Z</time></trkpt><trkpt lat="40.8773117" lon="14.048565"><ele>-0.3333333333333333</ele><time>2026-04-26T08:02:23.156Z</time></trkpt><trkpt lat="40.877235" lon="14.0485817"><ele>-0.16666666666666666</ele><time>2026-04-26T08:02:24.156Z</time></trkpt><trkpt lat="40.8771583" lon="14.0485967"><ele>0.0</ele><time>2026-04-26T08:02:25.155Z</time></trkpt><trkpt lat="40.8770833" lon="14.0486117"><ele>0.0</ele><time>2026-04-26T08:02:26.156Z</time></trkpt><trkpt lat="40.87701" lon="14.0486267"><ele>0.0</ele><time>2026-04-26T08:02:27.156Z</time></trkpt><trkpt lat="40.8769367" lon="14.048645"><ele>0.0</ele><time>2026-04-26T08:02:28.155Z</time></trkpt><trkpt lat="40.8768617" lon="14.04866"><ele>0.0</ele><time>2026-04-26T08:02:29.156Z</time></trkpt><trkpt lat="40.87679" lon="14.0486783"><ele>0.0</ele><time>2026-04-26T08:02:30.156Z</time></trkpt><trkpt lat="40.876715" lon="14.0486983"><ele>0.0</ele><time>2026-04-26T08:02:31.155Z</time></trkpt><trkpt lat="40.87664" lon="14.048715"><ele>0.0</ele><time>2026-04-26T08:02:32.157Z</time></trkpt><trkpt lat="40.8765683" lon="14.0487333"><ele>0.0</ele><time>2026-04-26T08:02:33.156Z</time></trkpt><trkpt lat="40.876495" lon="14.048755"><ele>0.0</ele><time>2026-04-26T08:02:34.155Z</time></trkpt><trkpt lat="40.8764167" lon="14.048775"><ele>0.0</ele><time>2026-04-26T08:02:35.155Z</time></trkpt><trkpt lat="40.87634" lon="14.048795"><ele>0.0</ele><time>2026-04-26T08:02:36.155Z</time></trkpt><trkpt lat="40.8762617" lon="14.04881"><ele>0.0</ele><time>2026-04-26T08:02:37.156Z</time></trkpt><trkpt lat="40.8761833" lon="14.0488267"><ele>0.0</ele><time>2026-04-26T08:02:38.156Z</time></trkpt><trkpt lat="40.8761083" lon="14.048845"><ele>0.0</ele><time>2026-04-26T08:02:39.155Z</time></trkpt><trkpt lat="40.8760333" lon="14.04886"><ele>0.0</ele><time>2026-04-26T08:02:40.156Z</time></trkpt><trkpt lat="40.8759617" lon="14.04888"><ele>0.0</ele><time>2026-04-26T08:02:41.158Z</time></trkpt><trkpt lat="40.87589" lon="14.048895"><ele>0.0</ele><time>2026-04-26T08:02:42.157Z</time></trkpt><trkpt lat="40.8758183" lon="14.0489067"><ele>0.0</ele><time>2026-04-26T08:02:43.156Z</time></trkpt><trkpt lat="40.875745" lon="14.0489233"><ele>0.0</ele><time>2026-04-26T08:02:44.156Z</time></trkpt><trkpt lat="40.8756717" lon="14.048935"><ele>0.0</ele><time>2026-04-26T08:02:45.155Z</time></trkpt><trkpt lat="40.8755967" lon="14.0489483"><ele>0.0</ele><time>2026-04-26T08:02:46.157Z</time></trkpt><trkpt lat="40.8755217" lon="14.048965"><ele>0.0</ele><time>2026-04-26T08:02:47.156Z</time></trkpt><trkpt lat="40.8754467" lon="14.0489833"><ele>0.0</ele><time>2026-04-26T08:02:48.157Z</time></trkpt><trkpt lat="40.8753683" lon="14.049"><ele>0.0</ele><time>2026-04-26T08:02:49.156Z</time></trkpt><trkpt lat="40.8752933" lon="14.0490167"><ele>0.0</ele><time>2026-04-26T08:02:50.157Z</time></trkpt><trkpt lat="40.87522" lon="14.049035"><ele>0.0</ele><time>2026-04-26T08:02:51.158Z</time></trkpt><trkpt lat="40.8751467" lon="14.0490517"><ele>0.0</ele><time>2026-04-26T08:02:52.155Z</time></trkpt><trkpt lat="40.8750717" lon="14.0490717"><ele>0.0</ele><time>2026-04-26T08:02:53.156Z</time></trkpt><trkpt lat="40.8749983" lon="14.0490883"><ele>0.0</ele><time>2026-04-26T08:02:54.156Z</time></trkpt><trkpt lat="40.8749283" lon="14.049105"><ele>0.0</ele><time>2026-04-26T08:02:55.156Z</time></trkpt><trkpt lat="40.8748567" lon="14.0491233"><ele>0.0</ele><time>2026-04-26T08:02:56.156Z</time></trkpt><trkpt lat="40.8747817" lon="14.0491367"><ele>0.0</ele><time>2026-04-26T08:02:57.157Z</time></trkpt><trkpt lat="40.8747083" lon="14.0491483"><ele>0.14285714285714285</ele><time>2026-04-26T08:02:58.157Z</time></trkpt><trkpt lat="40.874635" lon="14.04917"><ele>0.2857142857142857</ele><time>2026-04-26T08:02:59.156Z</time></trkpt><trkpt lat="40.87456" lon="14.04919"><ele>0.42857142857142855</ele><time>2026-04-26T08:03:00.156Z</time></trkpt><trkpt lat="40.874485" lon="14.049205"><ele>0.5714285714285714</ele><time>2026-04-26T08:03:01.156Z</time></trkpt><trkpt lat="40.8744133" lon="14.0492217"><ele>0.7142857142857142</ele><time>2026-04-26T08:03:02.156Z</time></trkpt><trkpt lat="40.87434" lon="14.0492367"><ele>0.8571428571428571</ele><time>2026-04-26T08:03:03.156Z</time></trkpt><trkpt lat="40.8742667" lon="14.0492567"><ele>1.0</ele><time>2026-04-26T08:03:04.156Z</time></trkpt><trkpt lat="40.8741933" lon="14.049275"><ele>0.7142857142857142</ele><time>2026-04-26T08:03:05.156Z</time></trkpt><trkpt lat="40.8741217" lon="14.0492867"><ele>0.4285714285714285</ele><time>2026-04-26T08:03:06.156Z</time></trkpt><trkpt lat="40.87405" lon="14.04931"><ele>0.14285714285714285</ele><time>2026-04-26T08:03:07.156Z</time></trkpt><trkpt lat="40.8739783" lon="14.0493283"><ele>-0.14285714285714285</ele><time>2026-04-26T08:03:08.156Z</time></trkpt><trkpt lat="40.873905" lon="14.04935"><ele>-0.4285714285714285</ele><time>2026-04-26T08:03:09.156Z</time></trkpt><trkpt lat="40.8738317" lon="14.0493683"><ele>-0.7142857142857142</ele><time>2026-04-26T08:03:10.155Z</time></trkpt><trkpt lat="40.8737567" lon="14.049385"><ele>-1.0</ele><time>2026-04-26T08:03:11.156Z</time></trkpt><trkpt lat="40.873685" lon="14.0494067"><ele>-0.9999999999999999</ele><time>2026-04-26T08:03:12.156Z</time></trkpt><trkpt lat="40.87361" lon="14.0494267"><ele>-1.0</ele><time>2026-04-26T08:03:13.155Z</time></trkpt><trkpt lat="40.8735367" lon="14.049445"><ele>-1.0</ele><time>2026-04-26T08:03:14.156Z</time></trkpt><trkpt lat="40.87346" lon="14.04946"><ele>-1.0</ele><time>2026-04-26T08:03:15.158Z</time></trkpt><trkpt lat="40.873385" lon="14.0494767"><ele>-0.9999999999999999</ele><time>2026-04-26T08:03:16.155Z</time></trkpt><trkpt lat="40.8733083" lon="14.0494933"><ele>-1.0</ele><time>2026-04-26T08:03:17.157Z</time></trkpt><trkpt lat="40.8732317" lon="14.0495133"><ele>-0.9999999999999999</ele><time>2026-04-26T08:03:18.156Z</time></trkpt><trkpt lat="40.873155" lon="14.049535"><ele>-1.0</ele><time>2026-04-26T08:03:19.156Z</time></trkpt><trkpt lat="40.8730833" lon="14.04956"><ele>-1.0</ele><time>2026-04-26T08:03:20.156Z</time></trkpt><trkpt lat="40.8730133" lon="14.0495917"><ele>-1.0</ele><time>2026-04-26T08:03:21.156Z</time></trkpt><trkpt lat="40.8729383" lon="14.0496283"><ele>-0.9999999999999999</ele><time>2026-04-26T08:03:22.156Z</time></trkpt><trkpt lat="40.87287" lon="14.0496667"><ele>-1.0</ele><time>2026-04-26T08:03:23.158Z</time></trkpt><trkpt lat="40.8728" lon="14.04971"><ele>-0.9999999999999999</ele><time>2026-04-26T08:03:24.156Z</time></trkpt><trkpt lat="40.8727317" lon="14.049755"><ele>-1.0</ele><time>2026-04-26T08:03:25.156Z</time></trkpt><trkpt lat="40.87266" lon="14.049805"><ele>-1.0</ele><time>2026-04-26T08:03:26.156Z</time></trkpt><trkpt lat="40.8725967" lon="14.04986"><ele>-1.0</ele><time>2026-04-26T08:03:27.155Z</time></trkpt><trkpt lat="40.872535" lon="14.0499217"><ele>-0.9999999999999999</ele><time>2026-04-26T08:03:28.156Z</time></trkpt><trkpt lat="40.8724733" lon="14.049985"><ele>-1.0</ele><time>2026-04-26T08:03:29.155Z</time></trkpt><trkpt lat="40.872415" lon="14.0500533"><ele>-0.49999999999999994</ele><time>2026-04-26T08:03:30.157Z</time></trkpt><trkpt lat="40.8723533" lon="14.0501167"><ele>0.0</ele><time>2026-04-26T08:03:31.157Z</time></trkpt><trkpt lat="40.8722933" lon="14.0501833"><ele>0.5</ele><time>2026-04-26T08:03:32.156Z</time></trkpt><trkpt lat="40.8722367" lon="14.0502517"><ele>1.0</ele><time>2026-04-26T08:03:33.155Z</time></trkpt><trkpt lat="40.8721817" lon="14.05033"><ele>1.4999999999999998</ele><time>2026-04-26T08:03:34.157Z</time></trkpt><trkpt lat="40.8721333" lon="14.05041"><ele>2.0</ele><time>2026-04-26T08:03:35.156Z</time></trkpt><trkpt lat="40.8720867" lon="14.0504933"><ele>1.9999999999999998</ele><time>2026-04-26T08:03:36.158Z</time></trkpt><trkpt lat="40.87204" lon="14.0505717"><ele>2.0</ele><time>2026-04-26T08:03:37.156Z</time></trkpt><trkpt lat="40.871995" lon="14.0506567"><ele>2.0</ele><time>2026-04-26T08:03:38.156Z</time></trkpt><trkpt lat="40.8719483" lon="14.0507383"><ele>2.0</ele><time>2026-04-26T08:03:39.156Z</time></trkpt><trkpt lat="40.8719083" lon="14.0508283"><ele>1.9999999999999998</ele><time>2026-04-26T08:03:40.156Z</time></trkpt><trkpt lat="40.8718667" lon="14.0509183"><ele>2.0</ele><time>2026-04-26T08:03:41.157Z</time></trkpt><trkpt lat="40.8718283" lon="14.0510083"><ele>2.1666666666666665</ele><time>2026-04-26T08:03:42.155Z</time></trkpt><trkpt lat="40.871795" lon="14.0511"><ele>2.333333333333333</ele><time>2026-04-26T08:03:43.155Z</time></trkpt><trkpt lat="40.8717633" lon="14.0511967"><ele>2.5</ele><time>2026-04-26T08:03:44.158Z</time></trkpt><trkpt lat="40.8717367" lon="14.0512967"><ele>2.6666666666666665</ele><time>2026-04-26T08:03:45.156Z</time></trkpt><trkpt lat="40.87171" lon="14.0513933"><ele>2.8333333333333335</ele><time>2026-04-26T08:03:46.157Z</time></trkpt><trkpt lat="40.8716867" lon="14.051495"><ele>3.0</ele><time>2026-04-26T08:03:47.156Z</time></trkpt><trkpt lat="40.8716667" lon="14.0515967"><ele>3.0</ele><time>2026-04-26T08:03:48.156Z</time></trkpt><trkpt lat="40.8716433" lon="14.0516967"><ele>3.0</ele><time>2026-04-26T08:03:49.157Z</time></trkpt><trkpt lat="40.8716183" lon="14.0517967"><ele>3.0</ele><time>2026-04-26T08:03:50.157Z</time></trkpt><trkpt lat="40.8715933" lon="14.0518967"><ele>3.0</ele><time>2026-04-26T08:03:51.156Z</time></trkpt><trkpt lat="40.87157" lon="14.0519967"><ele>3.0</ele><time>2026-04-26T08:03:52.156Z</time></trkpt><trkpt lat="40.871545" lon="14.052095"><ele>3.0</ele><time>2026-04-26T08:03:53.155Z</time></trkpt><trkpt lat="40.8715233" lon="14.0521933"><ele>3.0</ele><time>2026-04-26T08:03:54.156Z</time></trkpt><trkpt lat="40.8715017" lon="14.0522917"><ele>3.0</ele><time>2026-04-26T08:03:55.157Z</time></trkpt><trkpt lat="40.8714767" lon="14.05239"><ele>3.0</ele><time>2026-04-26T08:03:56.156Z</time></trkpt><trkpt lat="40.8714517" lon="14.0524883"><ele>3.0</ele><time>2026-04-26T08:03:57.155Z</time></trkpt><trkpt lat="40.8714267" lon="14.052585"><ele>3.0</ele><time>2026-04-26T08:03:58.157Z</time></trkpt><trkpt lat="40.8714017" lon="14.0526833"><ele>3.0</ele><time>2026-04-26T08:03:59.155Z</time></trkpt><trkpt lat="40.8713783" lon="14.05278"><ele>2.6666666666666665</ele><time>2026-04-26T08:04:00.156Z</time></trkpt><trkpt lat="40.8713567" lon="14.052875"><ele>2.3333333333333335</ele><time>2026-04-26T08:04:01.157Z</time></trkpt><trkpt lat="40.871335" lon="14.0529733"><ele>2.0</ele><time>2026-04-26T08:04:02.156Z</time></trkpt><trkpt lat="40.87131" lon="14.0530733"><ele>1.6666666666666665</ele><time>2026-04-26T08:04:03.156Z</time></trkpt><trkpt lat="40.8712817" lon="14.0531733"><ele>1.3333333333333333</ele><time>2026-04-26T08:04:04.157Z</time></trkpt><trkpt lat="40.8712567" lon="14.0532733"><ele>1.0</ele><time>2026-04-26T08:04:05.156Z</time></trkpt><trkpt lat="40.8712333" lon="14.0533733"><ele>0.9999999999999999</ele><time>2026-04-26T08:04:06.156Z</time></trkpt><trkpt lat="40.8712083" lon="14.0534733"><ele>1.0</ele><time>2026-04-26T08:04:07.156Z</time></trkpt><trkpt lat="40.8711833" lon="14.053575"><ele>1.0</ele><time>2026-04-26T08:04:08.156Z</time></trkpt><trkpt lat="40.8711583" lon="14.053675"><ele>1.0</ele><time>2026-04-26T08:04:09.157Z</time></trkpt><trkpt lat="40.8711317" lon="14.053775"><ele>0.9999999999999999</ele><time>2026-04-26T08:04:10.155Z</time></trkpt><trkpt lat="40.8711067" lon="14.0538733"><ele>1.0</ele><time>2026-04-26T08:04:11.156Z</time></trkpt><trkpt lat="40.8710783" lon="14.0539717"><ele>0.9999999999999999</ele><time>2026-04-26T08:04:12.157Z</time></trkpt><trkpt lat="40.8710483" lon="14.0540733"><ele>1.0</ele><time>2026-04-26T08:04:13.156Z</time></trkpt><trkpt lat="40.8710183" lon="14.0541733"><ele>1.0</ele><time>2026-04-26T08:04:14.156Z</time></trkpt><trkpt lat="40.87099" lon="14.054275"><ele>1.0</ele><time>2026-04-26T08:04:15.156Z</time></trkpt><trkpt lat="40.87096" lon="14.0543783"><ele>0.9999999999999999</ele><time>2026-04-26T08:04:16.156Z</time></trkpt><trkpt lat="40.87093" lon="14.05448"><ele>1.0</ele><time>2026-04-26T08:04:17.156Z</time></trkpt><trkpt lat="40.870905" lon="14.054585"><ele>0.9999999999999999</ele><time>2026-04-26T08:04:18.157Z</time></trkpt><trkpt lat="40.87088" lon="14.0546883"><ele>1.0</ele><time>2026-04-26T08:04:19.156Z</time></trkpt><trkpt lat="40.8708583" lon="14.0547933"><ele>1.0</ele><time>2026-04-26T08:04:20.156Z</time></trkpt><trkpt lat="40.8708283" lon="14.0548917"><ele>1.0</ele><time>2026-04-26T08:04:21.156Z</time></trkpt><trkpt lat="40.8708017" lon="14.054995"><ele>0.9999999999999999</ele><time>2026-04-26T08:04:22.158Z</time></trkpt><trkpt lat="40.8707767" lon="14.0551017"><ele>1.0</ele><time>2026-04-26T08:04:23.156Z</time></trkpt><trkpt lat="40.8707517" lon="14.055205"><ele>0.9999999999999999</ele><time>2026-04-26T08:04:24.157Z</time></trkpt><trkpt lat="40.8707283" lon="14.0553083"><ele>1.0</ele><time>2026-04-26T08:04:25.156Z</time></trkpt><trkpt lat="40.8707083" lon="14.0554083"><ele>1.0</ele><time>2026-04-26T08:04:26.156Z</time></trkpt><trkpt lat="40.8706833" lon="14.055505"><ele>1.0</ele><time>2026-04-26T08:04:27.156Z</time></trkpt><trkpt lat="40.870655" lon="14.0556017"><ele>0.9999999999999999</ele><time>2026-04-26T08:04:28.155Z</time></trkpt><trkpt lat="40.87063" lon="14.0557017"><ele>1.0</ele><time>2026-04-26T08:04:29.157Z</time></trkpt><trkpt lat="40.870605" lon="14.0558"><ele>1.5</ele><time>2026-04-26T08:04:30.162Z</time></trkpt><trkpt lat="40.8705767" lon="14.0558983"><ele>2.0</ele><time>2026-04-26T08:04:31.155Z</time></trkpt><trkpt lat="40.8705483" lon="14.056"><ele>2.5</ele><time>2026-04-26T08:04:32.156Z</time></trkpt><trkpt lat="40.87052" lon="14.05611"><ele>3.0</ele><time>2026-04-26T08:04:33.156Z</time></trkpt><trkpt lat="40.8704967" lon="14.05622"><ele>3.4999999999999996</ele><time>2026-04-26T08:04:34.156Z</time></trkpt><trkpt lat="40.870475" lon="14.05633"><ele>4.0</ele><time>2026-04-26T08:04:35.155Z</time></trkpt><trkpt lat="40.8704517" lon="14.0564367"><ele>3.9999999999999996</ele><time>2026-04-26T08:04:36.156Z</time></trkpt><trkpt lat="40.8704267" lon="14.0565433"><ele>4.0</ele><time>2026-04-26T08:04:37.156Z</time></trkpt><trkpt lat="40.8704" lon="14.0566467"><ele>4.0</ele><time>2026-04-26T08:04:38.157Z</time></trkpt><trkpt lat="40.87037" lon="14.0567533"><ele>4.0</ele><time>2026-04-26T08:04:39.156Z</time></trkpt><trkpt lat="40.870345" lon="14.0568633"><ele>3.9999999999999996</ele><time>2026-04-26T08:04:40.156Z</time></trkpt><trkpt lat="40.8703183" lon="14.056975"><ele>4.0</ele><time>2026-04-26T08:04:41.158Z</time></trkpt><trkpt lat="40.8702867" lon="14.05709"><ele>3.6</ele><time>2026-04-26T08:04:42.156Z</time></trkpt><trkpt lat="40.8702533" lon="14.0572033"><ele>3.2</ele><time>2026-04-26T08:04:43.157Z</time></trkpt><trkpt lat="40.8702233" lon="14.0573133"><ele>2.8000000000000003</ele><time>2026-04-26T08:04:44.157Z</time></trkpt><trkpt lat="40.870195" lon="14.0574283"><ele>2.4000000000000004</ele><time>2026-04-26T08:04:45.156Z</time></trkpt><trkpt lat="40.870165" lon="14.0575433"><ele>2.0</ele><time>2026-04-26T08:04:46.158Z</time></trkpt><trkpt lat="40.870135" lon="14.0576583"><ele>1.8</ele><time>2026-04-26T08:04:47.156Z</time></trkpt><trkpt lat="40.870105" lon="14.057775"><ele>1.6</ele><time>2026-04-26T08:04:48.157Z</time></trkpt><trkpt lat="40.8700733" lon="14.05789"><ele>1.4000000000000001</ele><time>2026-04-26T08:04:49.156Z</time></trkpt><trkpt lat="40.8700417" lon="14.0580067"><ele>1.2000000000000002</ele><time>2026-04-26T08:04:50.156Z</time></trkpt><trkpt lat="40.8700117" lon="14.05812"><ele>1.0</ele><time>2026-04-26T08:04:51.156Z</time></trkpt><trkpt lat="40.8699833" lon="14.0582317"><ele>1.1666666666666665</ele><time>2026-04-26T08:04:52.155Z</time></trkpt><trkpt lat="40.869955" lon="14.0583417"><ele>1.3333333333333333</ele><time>2026-04-26T08:04:53.157Z</time></trkpt><trkpt lat="40.869925" lon="14.0584483"><ele>1.5</ele><time>2026-04-26T08:04:54.156Z</time></trkpt><trkpt lat="40.8699" lon="14.0585533"><ele>1.6666666666666665</ele><time>2026-04-26T08:04:55.157Z</time></trkpt><trkpt lat="40.8698783" lon="14.0586633"><ele>1.8333333333333333</ele><time>2026-04-26T08:04:56.156Z</time></trkpt><trkpt lat="40.8698483" lon="14.05877"><ele>2.0</ele><time>2026-04-26T08:04:57.156Z</time></trkpt><trkpt lat="40.8698167" lon="14.0588767"><ele>1.9999999999999998</ele><time>2026-04-26T08:04:58.156Z</time></trkpt><trkpt lat="40.8697867" lon="14.05898"><ele>2.0</ele><time>2026-04-26T08:04:59.157Z</time></trkpt><trkpt lat="40.8697567" lon="14.0590817"><ele>2.0</ele><time>2026-04-26T08:05:00.157Z</time></trkpt><trkpt lat="40.869725" lon="14.05918"><ele>2.0</ele><time>2026-04-26T08:05:01.156Z</time></trkpt><trkpt lat="40.8696983" lon="14.0592767"><ele>1.9999999999999998</ele><time>2026-04-26T08:05:02.157Z</time></trkpt><trkpt lat="40.8696683" lon="14.0593717"><ele>2.0</ele><time>2026-04-26T08:05:03.156Z</time></trkpt><trkpt lat="40.86964" lon="14.059465"><ele>2.142857142857143</ele><time>2026-04-26T08:05:04.155Z</time></trkpt><trkpt lat="40.869615" lon="14.0595517"><ele>2.2857142857142856</ele><time>2026-04-26T08:05:05.156Z</time></trkpt><trkpt lat="40.8695883" lon="14.0596383"><ele>2.4285714285714284</ele><time>2026-04-26T08:05:06.156Z</time></trkpt><trkpt lat="40.86956" lon="14.05972"><ele>2.571428571428571</ele><time>2026-04-26T08:05:07.156Z</time></trkpt><trkpt lat="40.86953" lon="14.0598017"><ele>2.7142857142857144</ele><time>2026-04-26T08:05:08.156Z</time></trkpt><trkpt lat="40.8694983" lon="14.0598817"><ele>2.8571428571428568</ele><time>2026-04-26T08:05:09.157Z</time></trkpt><trkpt lat="40.8694683" lon="14.05996"><ele>3.0</ele><time>2026-04-26T08:05:10.156Z</time></trkpt><trkpt lat="40.8694383" lon="14.0600383"><ele>2.9999999999999996</ele><time>2026-04-26T08:05:11.157Z</time></trkpt><trkpt lat="40.86941" lon="14.0601183"><ele>3.0</ele><time>2026-04-26T08:05:12.156Z</time></trkpt><trkpt lat="40.8693783" lon="14.0602"><ele>3.0</ele><time>2026-04-26T08:05:13.156Z</time></trkpt><trkpt lat="40.86935" lon="14.0602817"><ele>3.0</ele><time>2026-04-26T08:05:14.157Z</time></trkpt><trkpt lat="40.8693233" lon="14.0603617"><ele>3.0</ele><time>2026-04-26T08:05:15.156Z</time></trkpt><trkpt lat="40.869295" lon="14.06044"><ele>2.9999999999999996</ele><time>2026-04-26T08:05:16.157Z</time></trkpt><trkpt lat="40.8692633" lon="14.0605183"><ele>3.0</ele><time>2026-04-26T08:05:17.157Z</time></trkpt><trkpt lat="40.869235" lon="14.0605983"><ele>2.9999999999999996</ele><time>2026-04-26T08:05:18.156Z</time></trkpt><trkpt lat="40.8692067" lon="14.0606783"><ele>3.0</ele><time>2026-04-26T08:05:19.156Z</time></trkpt><trkpt lat="40.869175" lon="14.0607567"><ele>3.0</ele><time>2026-04-26T08:05:20.158Z</time></trkpt><trkpt lat="40.869145" lon="14.0608367"><ele>3.0</ele><time>2026-04-26T08:05:21.156Z</time></trkpt><trkpt lat="40.8691183" lon="14.0609167"><ele>3.0</ele><time>2026-04-26T08:05:22.157Z</time></trkpt><trkpt lat="40.8690933" lon="14.0609967"><ele>2.9999999999999996</ele><time>2026-04-26T08:05:23.156Z</time></trkpt><trkpt lat="40.8690617" lon="14.0610733"><ele>3.0</ele><time>2026-04-26T08:05:24.158Z</time></trkpt><trkpt lat="40.8690283" lon="14.0611517"><ele>3.0</ele><time>2026-04-26T08:05:25.155Z</time></trkpt><trkpt lat="40.8689983" lon="14.061235"><ele>3.0</ele><time>2026-04-26T08:05:26.156Z</time></trkpt><trkpt lat="40.8689683" lon="14.0613217"><ele>3.0</ele><time>2026-04-26T08:05:27.156Z</time></trkpt><trkpt lat="40.86894" lon="14.0614033"><ele>3.0</ele><time>2026-04-26T08:05:28.157Z</time></trkpt><trkpt lat="40.868915" lon="14.06148"><ele>3.0</ele><time>2026-04-26T08:05:29.156Z</time></trkpt><trkpt lat="40.86887" lon="14.0616217"><ele>3.0</ele><time>2026-04-26T08:05:31.156Z</time></trkpt><trkpt lat="40.8688233" lon="14.0617567"><ele>3.2</ele><time>2026-04-26T08:05:33.156Z</time></trkpt><trkpt lat="40.8687833" lon="14.0618833"><ele>3.4</ele><time>2026-04-26T08:05:35.156Z</time></trkpt><trkpt lat="40.8687817" lon="14.06201"><ele>3.6000000000000005</ele><time>2026-04-26T08:05:37.158Z</time></trkpt><trkpt lat="40.8688433" lon="14.0620983"><ele>3.8000000000000003</ele><time>2026-04-26T08:05:39.156Z</time></trkpt><trkpt lat="40.86894" lon="14.06208"><ele>4.0</ele><time>2026-04-26T08:05:41.156Z</time></trkpt><trkpt lat="40.8690367" lon="14.0620117"><ele>4.0</ele><time>2026-04-26T08:05:43.156Z</time></trkpt><trkpt lat="40.8691533" lon="14.0619883"><ele>4.0</ele><time>2026-04-26T08:05:45.157Z</time></trkpt><trkpt lat="40.869275" lon="14.0619917"><ele>4.0</ele><time>2026-04-26T08:05:47.156Z</time></trkpt><trkpt lat="40.8693933" lon="14.061995"><ele>4.0</ele><time>2026-04-26T08:05:49.157Z</time></trkpt><trkpt lat="40.8695067" lon="14.0620017"><ele>4.25</ele><time>2026-04-26T08:05:51.156Z</time></trkpt><trkpt lat="40.8696217" lon="14.06201"><ele>4.5</ele><time>2026-04-26T08:05:53.156Z</time></trkpt><trkpt lat="40.86974" lon="14.0620033"><ele>4.75</ele><time>2026-04-26T08:05:55.155Z</time></trkpt><trkpt lat="40.8698517" lon="14.0620133"><ele>5.0</ele><time>2026-04-26T08:05:57.157Z</time></trkpt><trkpt lat="40.86996" lon="14.0620217"><ele>5.0</ele><time>2026-04-26T08:05:59.156Z</time></trkpt><trkpt lat="40.8700783" lon="14.0620283"><ele>5.0</ele><time>2026-04-26T08:06:01.156Z</time></trkpt><trkpt lat="40.87019" lon="14.062035"><ele>5.0</ele><time>2026-04-26T08:06:03.156Z</time></trkpt><trkpt lat="40.8703083" lon="14.0620467"><ele>5.0</ele><time>2026-04-26T08:06:05.157Z</time></trkpt><trkpt lat="40.8703717" lon="14.0620517"><ele>5.0</ele><time>2026-04-26T08:06:06.157Z</time></trkpt><trkpt lat="40.8705" lon="14.0620667"><ele>5.0</ele><time>2026-04-26T08:06:08.156Z</time></trkpt><trkpt lat="40.870565" lon="14.0620783"><ele>5.0</ele><time>2026-04-26T08:06:09.155Z</time></trkpt><trkpt lat="40.87067" lon="14.0620967"><ele>5.0</ele><time>2026-04-26T08:06:11.155Z</time></trkpt><trkpt lat="40.8707333" lon="14.0621017"><ele>5.0</ele><time>2026-04-26T08:06:12.156Z</time></trkpt><trkpt lat="40.8708017" lon="14.06211"><ele>5.0</ele><time>2026-04-26T08:06:13.155Z</time></trkpt><trkpt lat="40.8709233" lon="14.0621383"><ele>5.0</ele><time>2026-04-26T08:06:15.155Z</time></trkpt><trkpt lat="40.8709867" lon="14.0621467"><ele>5.0</ele><time>2026-04-26T08:06:16.156Z</time></trkpt><trkpt lat="40.871055" lon="14.06215"><ele>5.0</ele><time>2026-04-26T08:06:17.156Z</time></trkpt><trkpt lat="40.8711233" lon="14.0621517"><ele>5.0</ele><time>2026-04-26T08:06:18.157Z</time></trkpt><trkpt lat="40.87119" lon="14.06215"><ele>5.0</ele><time>2026-04-26T08:06:19.157Z</time></trkpt><trkpt lat="40.871255" lon="14.06215"><ele>5.0</ele><time>2026-04-26T08:06:20.157Z</time></trkpt><trkpt lat="40.87132" lon="14.062155"><ele>5.0</ele><time>2026-04-26T08:06:21.157Z</time></trkpt><trkpt lat="40.8713867" lon="14.0621633"><ele>5.0</ele><time>2026-04-26T08:06:22.156Z</time></trkpt><trkpt lat="40.87145" lon="14.0621733"><ele>5.0</ele><time>2026-04-26T08:06:23.158Z</time></trkpt><trkpt lat="40.8715183" lon="14.0621833"><ele>5.0</ele><time>2026-04-26T08:06:24.157Z</time></trkpt><trkpt lat="40.8715883" lon="14.0621917"><ele>5.0</ele><time>2026-04-26T08:06:25.157Z</time></trkpt><trkpt lat="40.8716567" lon="14.0622017"><ele>5.0</ele><time>2026-04-26T08:06:26.156Z</time></trkpt><trkpt lat="40.871725" lon="14.0622067"><ele>5.0</ele><time>2026-04-26T08:06:27.156Z</time></trkpt><trkpt lat="40.8717917" lon="14.0622183"><ele>5.0</ele><time>2026-04-26T08:06:28.155Z</time></trkpt><trkpt lat="40.87186" lon="14.06223"><ele>5.0</ele><time>2026-04-26T08:06:29.157Z</time></trkpt><trkpt lat="40.8719267" lon="14.0622417"><ele>5.0</ele><time>2026-04-26T08:06:30.156Z</time></trkpt><trkpt lat="40.8719967" lon="14.0622467"><ele>5.0</ele><time>2026-04-26T08:06:31.157Z</time></trkpt><trkpt lat="40.872065" lon="14.0622483"><ele>5.0</ele><time>2026-04-26T08:06:32.156Z</time></trkpt><trkpt lat="40.87213" lon="14.062245"><ele>5.0</ele><time>2026-04-26T08:06:33.157Z</time></trkpt><trkpt lat="40.8721933" lon="14.06225"><ele>5.0</ele><time>2026-04-26T08:06:34.155Z</time></trkpt><trkpt lat="40.8722617" lon="14.0622617"><ele>5.0</ele><time>2026-04-26T08:06:35.157Z</time></trkpt><trkpt lat="40.8723883" lon="14.0622733"><ele>5.0</ele><time>2026-04-26T08:06:37.158Z</time></trkpt><trkpt lat="40.8724517" lon="14.0622733"><ele>5.0</ele><time>2026-04-26T08:06:38.157Z</time></trkpt><trkpt lat="40.8725283" lon="14.062275"><ele>5.0</ele><time>2026-04-26T08:06:39.156Z</time></trkpt><trkpt lat="40.8726017" lon="14.0622767"><ele>5.0</ele><time>2026-04-26T08:06:40.155Z</time></trkpt><trkpt lat="40.8726733" lon="14.0622783"><ele>5.0</ele><time>2026-04-26T08:06:41.156Z</time></trkpt><trkpt lat="40.87275" lon="14.062275"><ele>5.0</ele><time>2026-04-26T08:06:42.156Z</time></trkpt><trkpt lat="40.872825" lon="14.06227"><ele>5.0</ele><time>2026-04-26T08:06:43.157Z</time></trkpt><trkpt lat="40.8729017" lon="14.0622717"><ele>5.0</ele><time>2026-04-26T08:06:44.157Z</time></trkpt><trkpt lat="40.8729767" lon="14.0622717"><ele>5.0</ele><time>2026-04-26T08:06:45.156Z</time></trkpt><trkpt lat="40.87306" lon="14.0622767"><ele>5.0</ele><time>2026-04-26T08:06:46.156Z</time></trkpt><trkpt lat="40.87314" lon="14.0622867"><ele>5.0</ele><time>2026-04-26T08:06:47.156Z</time></trkpt><trkpt lat="40.873225" lon="14.0622967"><ele>5.0</ele><time>2026-04-26T08:06:48.157Z</time></trkpt><trkpt lat="40.8733117" lon="14.0623067"><ele>5.0</ele><time>2026-04-26T08:06:49.155Z</time></trkpt><trkpt lat="40.8733983" lon="14.0623133"><ele>5.0</ele><time>2026-04-26T08:06:50.157Z</time></trkpt><trkpt lat="40.8734767" lon="14.0623233"><ele>5.0</ele><time>2026-04-26T08:06:51.156Z</time></trkpt><trkpt lat="40.8735533" lon="14.0623233"><ele>5.0</ele><time>2026-04-26T08:06:52.156Z</time></trkpt><trkpt lat="40.8736383" lon="14.06232"><ele>5.0</ele><time>2026-04-26T08:06:53.156Z</time></trkpt><trkpt lat="40.873725" lon="14.06232"><ele>5.0</ele><time>2026-04-26T08:06:54.156Z</time></trkpt><trkpt lat="40.87381" lon="14.06232"><ele>5.0</ele><time>2026-04-26T08:06:55.155Z</time></trkpt><trkpt lat="40.873895" lon="14.0623233"><ele>5.0</ele><time>2026-04-26T08:06:56.157Z</time></trkpt><trkpt lat="40.87397" lon="14.0623317"><ele>5.0</ele><time>2026-04-26T08:06:57.155Z</time></trkpt><trkpt lat="40.8740433" lon="14.06234"><ele>5.0</ele><time>2026-04-26T08:06:58.156Z</time></trkpt><trkpt lat="40.87412" lon="14.0623483"><ele>5.0</ele><time>2026-04-26T08:06:59.159Z</time></trkpt><trkpt lat="40.8741983" lon="14.0623567"><ele>5.0</ele><time>2026-04-26T08:07:00.156Z</time></trkpt><trkpt lat="40.8742733" lon="14.0623667"><ele>5.0</ele><time>2026-04-26T08:07:01.155Z</time></trkpt><trkpt lat="40.8743483" lon="14.0623717"><ele>4.714285714285714</ele><time>2026-04-26T08:07:02.156Z</time></trkpt><trkpt lat="40.8744217" lon="14.0623783"><ele>4.428571428571429</ele><time>2026-04-26T08:07:03.156Z</time></trkpt><trkpt lat="40.8744933" lon="14.0623867"><ele>4.142857142857142</ele><time>2026-04-26T08:07:04.155Z</time></trkpt><trkpt lat="40.874565" lon="14.0623933"><ele>3.8571428571428568</ele><time>2026-04-26T08:07:05.156Z</time></trkpt><trkpt lat="40.87464" lon="14.0623983"><ele>3.571428571428571</ele><time>2026-04-26T08:07:06.157Z</time></trkpt><trkpt lat="40.8747167" lon="14.062395"><ele>3.2857142857142856</ele><time>2026-04-26T08:07:07.155Z</time></trkpt><trkpt lat="40.874795" lon="14.0623933"><ele>3.0</ele><time>2026-04-26T08:07:08.156Z</time></trkpt><trkpt lat="40.874875" lon="14.0623917"><ele>3.0</ele><time>2026-04-26T08:07:09.155Z</time></trkpt><trkpt lat="40.874955" lon="14.06239"><ele>3.0</ele><time>2026-04-26T08:07:10.156Z</time></trkpt><trkpt lat="40.8750333" lon="14.06239"><ele>3.0</ele><time>2026-04-26T08:07:11.156Z</time></trkpt><trkpt lat="40.87511" lon="14.0623917"><ele>3.0</ele><time>2026-04-26T08:07:12.157Z</time></trkpt><trkpt lat="40.875185" lon="14.06239"><ele>3.0</ele><time>2026-04-26T08:07:13.155Z</time></trkpt><trkpt lat="40.875265" lon="14.06239"><ele>3.0</ele><time>2026-04-26T08:07:14.158Z</time></trkpt><trkpt lat="40.87534" lon="14.062395"><ele>3.1666666666666665</ele><time>2026-04-26T08:07:15.157Z</time></trkpt><trkpt lat="40.87542" lon="14.0623983"><ele>3.333333333333333</ele><time>2026-04-26T08:07:16.155Z</time></trkpt><trkpt lat="40.875495" lon="14.0624067"><ele>3.5</ele><time>2026-04-26T08:07:17.156Z</time></trkpt><trkpt lat="40.87557" lon="14.0624183"><ele>3.6666666666666665</ele><time>2026-04-26T08:07:18.156Z</time></trkpt><trkpt lat="40.8756417" lon="14.0624267"><ele>3.833333333333333</ele><time>2026-04-26T08:07:19.156Z</time></trkpt><trkpt lat="40.8757183" lon="14.062435"><ele>4.0</ele><time>2026-04-26T08:07:20.157Z</time></trkpt><trkpt lat="40.87579" lon="14.06244"><ele>3.9999999999999996</ele><time>2026-04-26T08:07:21.157Z</time></trkpt><trkpt lat="40.8758567" lon="14.0624367"><ele>4.0</ele><time>2026-04-26T08:07:22.155Z</time></trkpt><trkpt lat="40.8759233" lon="14.062435"><ele>4.0</ele><time>2026-04-26T08:07:23.156Z</time></trkpt><trkpt lat="40.8759867" lon="14.062425"><ele>4.0</ele><time>2026-04-26T08:07:24.156Z</time></trkpt><trkpt lat="40.8761117" lon="14.0624517"><ele>3.9999999999999996</ele><time>2026-04-26T08:07:26.156Z</time></trkpt><trkpt lat="40.8762083" lon="14.0625433"><ele>4.0</ele><time>2026-04-26T08:07:28.156Z</time></trkpt><trkpt lat="40.8762683" lon="14.062685"><ele>4.5</ele><time>2026-04-26T08:07:30.157Z</time></trkpt><trkpt lat="40.8763133" lon="14.06284"><ele>5.0</ele><time>2026-04-26T08:07:32.157Z</time></trkpt><trkpt lat="40.8763367" lon="14.0629217"><ele>5.5</ele><time>2026-04-26T08:07:33.156Z</time></trkpt><trkpt lat="40.87636" lon="14.0630033"><ele>6.0</ele><time>2026-04-26T08:07:34.157Z</time></trkpt><trkpt lat="40.8763883" lon="14.0630817"><ele>6.500000000000001</ele><time>2026-04-26T08:07:35.157Z</time></trkpt><trkpt lat="40.8764183" lon="14.06316"><ele>7.0</ele><time>2026-04-26T08:07:36.156Z</time></trkpt><trkpt lat="40.87645" lon="14.0632383"><ele>7.3999999999999995</ele><time>2026-04-26T08:07:37.156Z</time></trkpt><trkpt lat="40.8764783" lon="14.063315"><ele>7.799999999999999</ele><time>2026-04-26T08:07:38.157Z</time></trkpt><trkpt lat="40.87653" lon="14.0634633"><ele>8.2</ele><time>2026-04-26T08:07:40.157Z</time></trkpt><trkpt lat="40.8765883" lon="14.0636067"><ele>8.6</ele><time>2026-04-26T08:07:42.158Z</time></trkpt><trkpt lat="40.8766417" lon="14.063755"><ele>9.0</ele><time>2026-04-26T08:07:44.156Z</time></trkpt><trkpt lat="40.8766733" lon="14.0638283"><ele>9.0</ele><time>2026-04-26T08:07:45.156Z</time></trkpt><trkpt lat="40.8767267" lon="14.0639733"><ele>9.0</ele><time>2026-04-26T08:07:47.156Z</time></trkpt><trkpt lat="40.87678" lon="14.0641233"><ele>9.0</ele><time>2026-04-26T08:07:49.155Z</time></trkpt><trkpt lat="40.8768367" lon="14.0642683"><ele>9.0</ele><time>2026-04-26T08:07:51.157Z</time></trkpt><trkpt lat="40.876885" lon="14.0644117"><ele>9.5</ele><time>2026-04-26T08:07:53.156Z</time></trkpt><trkpt lat="40.8769283" lon="14.064555"><ele>10.0</ele><time>2026-04-26T08:07:55.156Z</time></trkpt><trkpt lat="40.87697" lon="14.0647083"><ele>10.5</ele><time>2026-04-26T08:07:57.156Z</time></trkpt><trkpt lat="40.8770017" lon="14.0648617"><ele>11.0</ele><time>2026-04-26T08:07:59.157Z</time></trkpt><trkpt lat="40.8770383" lon="14.0650167"><ele>10.333333333333332</ele><time>2026-04-26T08:08:01.155Z</time></trkpt><trkpt lat="40.8770583" lon="14.0650983"><ele>9.666666666666666</ele><time>2026-04-26T08:08:02.156Z</time></trkpt><trkpt lat="40.8770767" lon="14.0651883"><ele>9.0</ele><time>2026-04-26T08:08:03.156Z</time></trkpt><trkpt lat="40.8770983" lon="14.065275"><ele>8.333333333333334</ele><time>2026-04-26T08:08:04.156Z</time></trkpt><trkpt lat="40.8771167" lon="14.065355"><ele>7.666666666666667</ele><time>2026-04-26T08:08:05.156Z</time></trkpt><trkpt lat="40.8771583" lon="14.065505"><ele>7.0</ele><time>2026-04-26T08:08:07.156Z</time></trkpt><trkpt lat="40.8772083" lon="14.0656583"><ele>7.0</ele><time>2026-04-26T08:08:09.156Z</time></trkpt><trkpt lat="40.8772267" lon="14.0657383"><ele>6.999999999999999</ele><time>2026-04-26T08:08:10.156Z</time></trkpt><trkpt lat="40.8772617" lon="14.0659"><ele>6.999999999999999</ele><time>2026-04-26T08:08:12.158Z</time></trkpt><trkpt lat="40.877285" lon="14.06598"><ele>7.0</ele><time>2026-04-26T08:08:13.156Z</time></trkpt><trkpt lat="40.87732" lon="14.0661383"><ele>7.0</ele><time>2026-04-26T08:08:15.157Z</time></trkpt><trkpt lat="40.87735" lon="14.0663"><ele>7.285714285714286</ele><time>2026-04-26T08:08:17.157Z</time></trkpt><trkpt lat="40.8773733" lon="14.0663783"><ele>7.571428571428571</ele><time>2026-04-26T08:08:18.158Z</time></trkpt><trkpt lat="40.877425" lon="14.0665317"><ele>7.857142857142858</ele><time>2026-04-26T08:08:20.157Z</time></trkpt><trkpt lat="40.877445" lon="14.0666133"><ele>8.142857142857142</ele><time>2026-04-26T08:08:21.157Z</time></trkpt><trkpt lat="40.87747" lon="14.0666917"><ele>8.428571428571429</ele><time>2026-04-26T08:08:22.156Z</time></trkpt><trkpt lat="40.8774967" lon="14.06677"><ele>8.714285714285715</ele><time>2026-04-26T08:08:23.157Z</time></trkpt><trkpt lat="40.8775217" lon="14.0668483"><ele>9.0</ele><time>2026-04-26T08:08:24.157Z</time></trkpt><trkpt lat="40.877545" lon="14.0669267"><ele>8.833333333333334</ele><time>2026-04-26T08:08:25.157Z</time></trkpt><trkpt lat="40.877565" lon="14.0670117"><ele>8.666666666666666</ele><time>2026-04-26T08:08:26.157Z</time></trkpt><trkpt lat="40.8775867" lon="14.0670917"><ele>8.5</ele><time>2026-04-26T08:08:27.158Z</time></trkpt><trkpt lat="40.8776083" lon="14.0671733"><ele>8.333333333333332</ele><time>2026-04-26T08:08:28.157Z</time></trkpt><trkpt lat="40.8776283" lon="14.0672583"><ele>8.166666666666666</ele><time>2026-04-26T08:08:29.158Z</time></trkpt><trkpt lat="40.87766" lon="14.0674117"><ele>8.0</ele><time>2026-04-26T08:08:31.156Z</time></trkpt><trkpt lat="40.8776867" lon="14.0674917"><ele>8.428571428571429</ele><time>2026-04-26T08:08:32.156Z</time></trkpt><trkpt lat="40.8777083" lon="14.06757"><ele>8.857142857142856</ele><time>2026-04-26T08:08:33.157Z</time></trkpt><trkpt lat="40.8777317" lon="14.06765"><ele>9.285714285714285</ele><time>2026-04-26T08:08:34.156Z</time></trkpt><trkpt lat="40.8777617" lon="14.0677267"><ele>9.714285714285714</ele><time>2026-04-26T08:08:35.156Z</time></trkpt><trkpt lat="40.8777867" lon="14.067805"><ele>10.142857142857142</ele><time>2026-04-26T08:08:36.156Z</time></trkpt><trkpt lat="40.87781" lon="14.0678867"><ele>10.571428571428571</ele><time>2026-04-26T08:08:37.156Z</time></trkpt><trkpt lat="40.8778333" lon="14.0679667"><ele>11.0</ele><time>2026-04-26T08:08:38.157Z</time></trkpt><trkpt lat="40.87786" lon="14.0680483"><ele>11.0</ele><time>2026-04-26T08:08:39.157Z</time></trkpt><trkpt lat="40.87788" lon="14.0681317"><ele>11.0</ele><time>2026-04-26T08:08:40.157Z</time></trkpt><trkpt lat="40.8779" lon="14.0682183"><ele>11.0</ele><time>2026-04-26T08:08:41.156Z</time></trkpt><trkpt lat="40.87792" lon="14.0683033"><ele>11.0</ele><time>2026-04-26T08:08:42.157Z</time></trkpt><trkpt lat="40.8779483" lon="14.0683833"><ele>11.0</ele><time>2026-04-26T08:08:43.156Z</time></trkpt><trkpt lat="40.8779733" lon="14.0684617"><ele>11.0</ele><time>2026-04-26T08:08:44.156Z</time></trkpt><trkpt lat="40.878" lon="14.068545"><ele>11.0</ele><time>2026-04-26T08:08:45.157Z</time></trkpt><trkpt lat="40.8780317" lon="14.0686267"><ele>11.571428571428571</ele><time>2026-04-26T08:08:46.157Z</time></trkpt><trkpt lat="40.87806" lon="14.068705"><ele>12.142857142857142</ele><time>2026-04-26T08:08:47.156Z</time></trkpt><trkpt lat="40.8780917" lon="14.0687867"><ele>12.714285714285715</ele><time>2026-04-26T08:08:48.157Z</time></trkpt><trkpt lat="40.8781183" lon="14.0688683"><ele>13.285714285714285</ele><time>2026-04-26T08:08:49.156Z</time></trkpt><trkpt lat="40.87815" lon="14.06895"><ele>13.857142857142856</ele><time>2026-04-26T08:08:50.158Z</time></trkpt><trkpt lat="40.8781817" lon="14.0690317"><ele>14.428571428571429</ele><time>2026-04-26T08:08:51.156Z</time></trkpt><trkpt lat="40.8782083" lon="14.069115"><ele>15.0</ele><time>2026-04-26T08:08:52.157Z</time></trkpt><trkpt lat="40.8782333" lon="14.0691933"><ele>15.666666666666666</ele><time>2026-04-26T08:08:53.156Z</time></trkpt><trkpt lat="40.8782617" lon="14.0692717"><ele>16.333333333333332</ele><time>2026-04-26T08:08:54.158Z</time></trkpt><trkpt lat="40.8783183" lon="14.069425"><ele>17.0</ele><time>2026-04-26T08:08:56.158Z</time></trkpt><trkpt lat="40.8783467" lon="14.0695067"><ele>17.666666666666664</ele><time>2026-04-26T08:08:57.156Z</time></trkpt><trkpt lat="40.8783717" lon="14.069585"><ele>18.333333333333332</ele><time>2026-04-26T08:08:58.157Z</time></trkpt><trkpt lat="40.8784017" lon="14.0696633"><ele>19.0</ele><time>2026-04-26T08:08:59.156Z</time></trkpt><trkpt lat="40.878435" lon="14.06974"><ele>20.0</ele><time>2026-04-26T08:09:00.156Z</time></trkpt><trkpt lat="40.8784667" lon="14.0698217"><ele>21.0</ele><time>2026-04-26T08:09:01.157Z</time></trkpt><trkpt lat="40.8784983" lon="14.0699"><ele>22.0</ele><time>2026-04-26T08:09:02.156Z</time></trkpt><trkpt lat="40.87853" lon="14.0699767"><ele>23.0</ele><time>2026-04-26T08:09:03.156Z</time></trkpt><trkpt lat="40.8785633" lon="14.07005"><ele>24.000000000000004</ele><time>2026-04-26T08:09:04.159Z</time></trkpt><trkpt lat="40.8786333" lon="14.07019"><ele>25.0</ele><time>2026-04-26T08:09:06.159Z</time></trkpt><trkpt lat="40.8787067" lon="14.07032"><ele>25.0</ele><time>2026-04-26T08:09:08.156Z</time></trkpt><trkpt lat="40.87878" lon="14.0704467"><ele>25.0</ele><time>2026-04-26T08:09:10.157Z</time></trkpt><trkpt lat="40.8788433" lon="14.0705883"><ele>25.0</ele><time>2026-04-26T08:09:12.157Z</time></trkpt><trkpt lat="40.8789133" lon="14.0707183"><ele>25.0</ele><time>2026-04-26T08:09:14.158Z</time></trkpt><trkpt lat="40.8789783" lon="14.0708583"><ele>25.0</ele><time>2026-04-26T08:09:16.16Z</time></trkpt><trkpt lat="40.8790133" lon="14.0709283"><ele>25.0</ele><time>2026-04-26T08:09:17.156Z</time></trkpt><trkpt lat="40.87908" lon="14.0710617"><ele>25.0</ele><time>2026-04-26T08:09:19.156Z</time></trkpt><trkpt lat="40.87915" lon="14.0711817"><ele>25.0</ele><time>2026-04-26T08:09:21.156Z</time></trkpt><trkpt lat="40.8792167" lon="14.0713067"><ele>25.0</ele><time>2026-04-26T08:09:23.156Z</time></trkpt><trkpt lat="40.8792883" lon="14.0714317"><ele>25.25</ele><time>2026-04-26T08:09:25.161Z</time></trkpt><trkpt lat="40.8793633" lon="14.0715617"><ele>25.5</ele><time>2026-04-26T08:09:27.157Z</time></trkpt><trkpt lat="40.8794317" lon="14.0716917"><ele>25.75</ele><time>2026-04-26T08:09:29.157Z</time></trkpt><trkpt lat="40.8794983" lon="14.0718217"><ele>26.0</ele><time>2026-04-26T08:09:31.156Z</time></trkpt><trkpt lat="40.8795733" lon="14.0719467"><ele>28.0</ele><time>2026-04-26T08:09:33.157Z</time></trkpt><trkpt lat="40.879655" lon="14.0720483"><ele>30.0</ele><time>2026-04-26T08:09:35.156Z</time></trkpt><trkpt lat="40.8797383" lon="14.0721417"><ele>32.0</ele><time>2026-04-26T08:09:37.157Z</time></trkpt><trkpt lat="40.87982" lon="14.07224"><ele>34.0</ele><time>2026-04-26T08:09:39.158Z</time></trkpt><trkpt lat="40.8799133" lon="14.072335"><ele>34.0</ele><time>2026-04-26T08:09:41.156Z</time></trkpt><trkpt lat="40.8799983" lon="14.0724317"><ele>34.0</ele><time>2026-04-26T08:09:43.159Z</time></trkpt><trkpt lat="40.8800817" lon="14.0725283"><ele>34.0</ele><time>2026-04-26T08:09:45.157Z</time></trkpt><trkpt lat="40.8801667" lon="14.0726267"><ele>34.0</ele><time>2026-04-26T08:09:47.156Z</time></trkpt><trkpt lat="40.88025" lon="14.072735"><ele>33.2</ele><time>2026-04-26T08:09:49.157Z</time></trkpt><trkpt lat="40.880325" lon="14.0728433"><ele>32.4</ele><time>2026-04-26T08:09:51.156Z</time></trkpt><trkpt lat="40.880405" lon="14.0729417"><ele>31.6</ele><time>2026-04-26T08:09:53.157Z</time></trkpt><trkpt lat="40.8804883" lon="14.0730383"><ele>30.8</ele><time>2026-04-26T08:09:55.157Z</time></trkpt><trkpt lat="40.8805683" lon="14.0731433"><ele>30.0</ele><time>2026-04-26T08:09:57.157Z</time></trkpt><trkpt lat="40.8806467" lon="14.073245"><ele>30.2</ele><time>2026-04-26T08:09:59.156Z</time></trkpt><trkpt lat="40.8807367" lon="14.0733383"><ele>30.4</ele><time>2026-04-26T08:10:01.156Z</time></trkpt><trkpt lat="40.880815" lon="14.0734433"><ele>30.6</ele><time>2026-04-26T08:10:03.157Z</time></trkpt><trkpt lat="40.8808867" lon="14.0735533"><ele>30.8</ele><time>2026-04-26T08:10:05.156Z</time></trkpt><trkpt lat="40.8809633" lon="14.0736633"><ele>31.0</ele><time>2026-04-26T08:10:07.156Z</time></trkpt><trkpt lat="40.8810433" lon="14.0737667"><ele>31.25</ele><time>2026-04-26T08:10:09.157Z</time></trkpt><trkpt lat="40.8811217" lon="14.0738733"><ele>31.5</ele><time>2026-04-26T08:10:11.157Z</time></trkpt><trkpt lat="40.8811967" lon="14.0739817"><ele>31.75</ele><time>2026-04-26T08:10:13.16Z</time></trkpt><trkpt lat="40.881275" lon="14.0740983"><ele>32.0</ele><time>2026-04-26T08:10:15.157Z</time></trkpt><trkpt lat="40.8813533" lon="14.0742183"><ele>32.0</ele><time>2026-04-26T08:10:17.157Z</time></trkpt><trkpt lat="40.8814367" lon="14.0743383"><ele>32.0</ele><time>2026-04-26T08:10:19.156Z</time></trkpt><trkpt lat="40.8815183" lon="14.07446"><ele>32.0</ele><time>2026-04-26T08:10:21.157Z</time></trkpt><trkpt lat="40.8815583" lon="14.074525"><ele>32.0</ele><time>2026-04-26T08:10:22.157Z</time></trkpt><trkpt lat="40.881645" lon="14.0746417"><ele>32.0</ele><time>2026-04-26T08:10:24.156Z</time></trkpt><trkpt lat="40.8816883" lon="14.0747033"><ele>31.999999999999996</ele><time>2026-04-26T08:10:25.16Z</time></trkpt><trkpt lat="40.88173" lon="14.0747667"><ele>32.0</ele><time>2026-04-26T08:10:26.156Z</time></trkpt><trkpt lat="40.8818083" lon="14.0748933"><ele>32.0</ele><time>2026-04-26T08:10:28.156Z</time></trkpt><trkpt lat="40.8818483" lon="14.0749583"><ele>32.0</ele><time>2026-04-26T08:10:29.157Z</time></trkpt><trkpt lat="40.8818883" lon="14.075025"><ele>31.999999999999996</ele><time>2026-04-26T08:10:30.161Z</time></trkpt><trkpt lat="40.88193" lon="14.0750917"><ele>32.0</ele><time>2026-04-26T08:10:31.156Z</time></trkpt><trkpt lat="40.882005" lon="14.075225"><ele>32.83333333333333</ele><time>2026-04-26T08:10:33.156Z</time></trkpt><trkpt lat="40.8820817" lon="14.0753583"><ele>33.666666666666664</ele><time>2026-04-26T08:10:35.156Z</time></trkpt><trkpt lat="40.88212" lon="14.0754267"><ele>34.5</ele><time>2026-04-26T08:10:36.156Z</time></trkpt><trkpt lat="40.88216" lon="14.0754983"><ele>35.333333333333336</ele><time>2026-04-26T08:10:37.156Z</time></trkpt><trkpt lat="40.8821983" lon="14.0755667"><ele>36.16666666666667</ele><time>2026-04-26T08:10:38.157Z</time></trkpt><trkpt lat="40.88227" lon="14.0756983"><ele>37.0</ele><time>2026-04-26T08:10:40.157Z</time></trkpt><trkpt lat="40.8823083" lon="14.075765"><ele>37.142857142857146</ele><time>2026-04-26T08:10:41.156Z</time></trkpt><trkpt lat="40.8823467" lon="14.075835"><ele>37.285714285714285</ele><time>2026-04-26T08:10:42.159Z</time></trkpt><trkpt lat="40.882385" lon="14.075905"><ele>37.42857142857143</ele><time>2026-04-26T08:10:43.156Z</time></trkpt><trkpt lat="40.8824233" lon="14.0759783"><ele>37.57142857142857</ele><time>2026-04-26T08:10:44.157Z</time></trkpt><trkpt lat="40.8824667" lon="14.0760467"><ele>37.714285714285715</ele><time>2026-04-26T08:10:45.157Z</time></trkpt><trkpt lat="40.882505" lon="14.076115"><ele>37.857142857142854</ele><time>2026-04-26T08:10:46.156Z</time></trkpt><trkpt lat="40.8825483" lon="14.0761867"><ele>38.0</ele><time>2026-04-26T08:10:47.157Z</time></trkpt><trkpt lat="40.88259" lon="14.0762617"><ele>38.42857142857142</ele><time>2026-04-26T08:10:48.156Z</time></trkpt><trkpt lat="40.8826317" lon="14.076335"><ele>38.85714285714286</ele><time>2026-04-26T08:10:49.156Z</time></trkpt><trkpt lat="40.8826717" lon="14.0764067"><ele>39.285714285714285</ele><time>2026-04-26T08:10:50.158Z</time></trkpt><trkpt lat="40.8827117" lon="14.0764833"><ele>39.71428571428571</ele><time>2026-04-26T08:10:51.157Z</time></trkpt><trkpt lat="40.8827483" lon="14.07656"><ele>40.14285714285714</ele><time>2026-04-26T08:10:52.157Z</time></trkpt><trkpt lat="40.88279" lon="14.0766433"><ele>40.57142857142857</ele><time>2026-04-26T08:10:53.157Z</time></trkpt><trkpt lat="40.8828283" lon="14.0767267"><ele>41.0</ele><time>2026-04-26T08:10:54.157Z</time></trkpt><trkpt lat="40.8828667" lon="14.0768083"><ele>40.99999999999999</ele><time>2026-04-26T08:10:55.157Z</time></trkpt><trkpt lat="40.8829083" lon="14.076885"><ele>41.0</ele><time>2026-04-26T08:10:56.156Z</time></trkpt><trkpt lat="40.8829467" lon="14.076965"><ele>41.0</ele><time>2026-04-26T08:10:57.158Z</time></trkpt><trkpt lat="40.8829833" lon="14.0770433"><ele>41.0</ele><time>2026-04-26T08:10:58.156Z</time></trkpt><trkpt lat="40.883025" lon="14.0771233"><ele>41.0</ele><time>2026-04-26T08:10:59.156Z</time></trkpt><trkpt lat="40.8830633" lon="14.0772033"><ele>40.99999999999999</ele><time>2026-04-26T08:11:00.157Z</time></trkpt><trkpt lat="40.8831017" lon="14.07728"><ele>41.0</ele><time>2026-04-26T08:11:01.156Z</time></trkpt><trkpt lat="40.8831383" lon="14.0773583"><ele>40.99999999999999</ele><time>2026-04-26T08:11:02.158Z</time></trkpt><trkpt lat="40.883175" lon="14.0774367"><ele>41.0</ele><time>2026-04-26T08:11:03.158Z</time></trkpt><trkpt lat="40.883215" lon="14.0775133"><ele>41.0</ele><time>2026-04-26T08:11:04.156Z</time></trkpt><trkpt lat="40.8832567" lon="14.0775933"><ele>41.0</ele><time>2026-04-26T08:11:05.159Z</time></trkpt><trkpt lat="40.8832933" lon="14.0776717"><ele>41.0</ele><time>2026-04-26T08:11:06.159Z</time></trkpt><trkpt lat="40.8833283" lon="14.0777517"><ele>40.99999999999999</ele><time>2026-04-26T08:11:07.156Z</time></trkpt><trkpt lat="40.883365" lon="14.0778283"><ele>41.0</ele><time>2026-04-26T08:11:08.158Z</time></trkpt><trkpt lat="40.8834017" lon="14.0779067"><ele>41.285714285714285</ele><time>2026-04-26T08:11:09.156Z</time></trkpt><trkpt lat="40.88344" lon="14.0779833"><ele>41.57142857142857</ele><time>2026-04-26T08:11:10.156Z</time></trkpt><trkpt lat="40.88348" lon="14.07806"><ele>41.85714285714286</ele><time>2026-04-26T08:11:11.156Z</time></trkpt><trkpt lat="40.8835217" lon="14.0781317"><ele>42.14285714285714</ele><time>2026-04-26T08:11:12.156Z</time></trkpt><trkpt lat="40.8835617" lon="14.0782067"><ele>42.42857142857143</ele><time>2026-04-26T08:11:13.158Z</time></trkpt><trkpt lat="40.8836017" lon="14.07828"><ele>42.714285714285715</ele><time>2026-04-26T08:11:14.158Z</time></trkpt><trkpt lat="40.8836417" lon="14.0783567"><ele>43.0</ele><time>2026-04-26T08:11:15.156Z</time></trkpt><trkpt lat="40.883685" lon="14.0784317"><ele>43.00000000000001</ele><time>2026-04-26T08:11:16.156Z</time></trkpt><trkpt lat="40.8837317" lon="14.0785033"><ele>43.0</ele><time>2026-04-26T08:11:17.156Z</time></trkpt><trkpt lat="40.8837767" lon="14.0785733"><ele>43.0</ele><time>2026-04-26T08:11:18.156Z</time></trkpt><trkpt lat="40.883825" lon="14.0786417"><ele>43.0</ele><time>2026-04-26T08:11:19.157Z</time></trkpt><trkpt lat="40.8838767" lon="14.0787067"><ele>43.0</ele><time>2026-04-26T08:11:20.156Z</time></trkpt><trkpt lat="40.883925" lon="14.078775"><ele>43.00000000000001</ele><time>2026-04-26T08:11:21.157Z</time></trkpt><trkpt lat="40.8839733" lon="14.0788433"><ele>43.0</ele><time>2026-04-26T08:11:22.157Z</time></trkpt><trkpt lat="40.8840217" lon="14.07891"><ele>43.00000000000001</ele><time>2026-04-26T08:11:23.158Z</time></trkpt><trkpt lat="40.884065" lon="14.0789783"><ele>43.0</ele><time>2026-04-26T08:11:24.157Z</time></trkpt><trkpt lat="40.8841133" lon="14.0790483"><ele>43.0</ele><time>2026-04-26T08:11:25.156Z</time></trkpt><trkpt lat="40.8841667" lon="14.0791183"><ele>43.0</ele><time>2026-04-26T08:11:26.159Z</time></trkpt><trkpt lat="40.88422" lon="14.0791817"><ele>43.0</ele><time>2026-04-26T08:11:27.157Z</time></trkpt><trkpt lat="40.8842717" lon="14.0792467"><ele>43.00000000000001</ele><time>2026-04-26T08:11:28.158Z</time></trkpt><trkpt lat="40.8843217" lon="14.0793133"><ele>43.0</ele><time>2026-04-26T08:11:29.157Z</time></trkpt><trkpt lat="40.8843667" lon="14.079385"><ele>42.66666666666667</ele><time>2026-04-26T08:11:30.157Z</time></trkpt><trkpt lat="40.8844083" lon="14.079455"><ele>42.333333333333336</ele><time>2026-04-26T08:11:31.157Z</time></trkpt><trkpt lat="40.8844567" lon="14.0795233"><ele>42.0</ele><time>2026-04-26T08:11:32.157Z</time></trkpt><trkpt lat="40.8845033" lon="14.07959"><ele>41.666666666666664</ele><time>2026-04-26T08:11:33.156Z</time></trkpt><trkpt lat="40.8845517" lon="14.0796567"><ele>41.33333333333333</ele><time>2026-04-26T08:11:34.158Z</time></trkpt><trkpt lat="40.8845933" lon="14.07972"><ele>41.0</ele><time>2026-04-26T08:11:35.157Z</time></trkpt><trkpt lat="40.8846867" lon="14.0798233"><ele>41.0</ele><time>2026-04-26T08:11:37.159Z</time></trkpt><trkpt lat="40.8847883" lon="14.07991"><ele>41.0</ele><time>2026-04-26T08:11:39.157Z</time></trkpt><trkpt lat="40.8848867" lon="14.079975"><ele>41.0</ele><time>2026-04-26T08:11:41.156Z</time></trkpt><trkpt lat="40.8849967" lon="14.0800467"><ele>41.0</ele><time>2026-04-26T08:11:43.156Z</time></trkpt><trkpt lat="40.8851" lon="14.0801167"><ele>42.33333333333333</ele><time>2026-04-26T08:11:45.157Z</time></trkpt><trkpt lat="40.8851567" lon="14.0801533"><ele>43.666666666666664</ele><time>2026-04-26T08:11:46.157Z</time></trkpt><trkpt lat="40.8852133" lon="14.08019"><ele>45.0</ele><time>2026-04-26T08:11:47.156Z</time></trkpt><trkpt lat="40.8853267" lon="14.080265"><ele>46.33333333333333</ele><time>2026-04-26T08:11:49.156Z</time></trkpt><trkpt lat="40.8853833" lon="14.0803067"><ele>47.666666666666664</ele><time>2026-04-26T08:11:50.156Z</time></trkpt><trkpt lat="40.8854417" lon="14.08035"><ele>49.0</ele><time>2026-04-26T08:11:51.159Z</time></trkpt><trkpt lat="40.8855033" lon="14.0803833"><ele>49.0</ele><time>2026-04-26T08:11:52.157Z</time></trkpt><trkpt lat="40.8855667" lon="14.0804133"><ele>49.0</ele><time>2026-04-26T08:11:53.156Z</time></trkpt><trkpt lat="40.8856933" lon="14.0804317"><ele>49.0</ele><time>2026-04-26T08:11:55.156Z</time></trkpt><trkpt lat="40.8858133" lon="14.0804083"><ele>49.0</ele><time>2026-04-26T08:11:57.159Z</time></trkpt><trkpt lat="40.885925" lon="14.08036"><ele>49.0</ele><time>2026-04-26T08:11:59.157Z</time></trkpt><trkpt lat="40.8860433" lon="14.0803083"><ele>50.2</ele><time>2026-04-26T08:12:01.156Z</time></trkpt><trkpt lat="40.88617" lon="14.0802833"><ele>51.400000000000006</ele><time>2026-04-26T08:12:03.157Z</time></trkpt><trkpt lat="40.886295" lon="14.080265"><ele>52.6</ele><time>2026-04-26T08:12:05.156Z</time></trkpt><trkpt lat="40.8864133" lon="14.08025"><ele>53.8</ele><time>2026-04-26T08:12:07.157Z</time></trkpt><trkpt lat="40.8864767" lon="14.0802433"><ele>55.0</ele><time>2026-04-26T08:12:08.156Z</time></trkpt><trkpt lat="40.8865883" lon="14.0802333"><ele>55.0</ele><time>2026-04-26T08:12:10.158Z</time></trkpt><trkpt lat="40.8867033" lon="14.0802333"><ele>55.0</ele><time>2026-04-26T08:12:12.157Z</time></trkpt><trkpt lat="40.88682" lon="14.080235"><ele>55.0</ele><time>2026-04-26T08:12:14.159Z</time></trkpt><trkpt lat="40.8868833" lon="14.0802367"><ele>55.0</ele><time>2026-04-26T08:12:15.156Z</time></trkpt><trkpt lat="40.8870083" lon="14.0802783"><ele>55.0</ele><time>2026-04-26T08:12:17.157Z</time></trkpt><trkpt lat="40.88707" lon="14.08031"><ele>55.42857142857142</ele><time>2026-04-26T08:12:18.157Z</time></trkpt><trkpt lat="40.88713" lon="14.0803467"><ele>55.85714285714286</ele><time>2026-04-26T08:12:19.158Z</time></trkpt><trkpt lat="40.8871883" lon="14.0803833"><ele>56.28571428571429</ele><time>2026-04-26T08:12:20.157Z</time></trkpt><trkpt lat="40.8872467" lon="14.0804183"><ele>56.714285714285715</ele><time>2026-04-26T08:12:21.157Z</time></trkpt><trkpt lat="40.8873067" lon="14.080455"><ele>57.142857142857146</ele><time>2026-04-26T08:12:22.156Z</time></trkpt><trkpt lat="40.8873633" lon="14.080495"><ele>57.57142857142858</ele><time>2026-04-26T08:12:23.158Z</time></trkpt><trkpt lat="40.8874217" lon="14.0805367"><ele>58.00000000000001</ele><time>2026-04-26T08:12:24.157Z</time></trkpt><trkpt lat="40.8874867" lon="14.0805683"><ele>57.99999999999999</ele><time>2026-04-26T08:12:25.156Z</time></trkpt><trkpt lat="40.887545" lon="14.0806033"><ele>58.0</ele><time>2026-04-26T08:12:26.157Z</time></trkpt><trkpt lat="40.8876067" lon="14.08064"><ele>58.0</ele><time>2026-04-26T08:12:27.156Z</time></trkpt><trkpt lat="40.887665" lon="14.0806767"><ele>58.0</ele><time>2026-04-26T08:12:28.156Z</time></trkpt><trkpt lat="40.8877783" lon="14.0807483"><ele>57.99999999999999</ele><time>2026-04-26T08:12:30.158Z</time></trkpt><trkpt lat="40.8878367" lon="14.080785"><ele>58.0</ele><time>2026-04-26T08:12:31.156Z</time></trkpt><trkpt lat="40.8879467" lon="14.0808533"><ele>58.00000000000001</ele><time>2026-04-26T08:12:33.158Z</time></trkpt><trkpt lat="40.8880067" lon="14.0808833"><ele>58.0</ele><time>2026-04-26T08:12:34.157Z</time></trkpt><trkpt lat="40.8880667" lon="14.0809133"><ele>58.00000000000001</ele><time>2026-04-26T08:12:35.157Z</time></trkpt><trkpt lat="40.8881267" lon="14.0809433"><ele>58.00000000000001</ele><time>2026-04-26T08:12:36.158Z</time></trkpt><trkpt lat="40.8881883" lon="14.080975"><ele>58.0</ele><time>2026-04-26T08:12:37.158Z</time></trkpt><trkpt lat="40.888245" lon="14.0810117"><ele>58.00000000000001</ele><time>2026-04-26T08:12:38.157Z</time></trkpt><trkpt lat="40.8883567" lon="14.081085"><ele>58.00000000000001</ele><time>2026-04-26T08:12:40.156Z</time></trkpt><trkpt lat="40.8884717" lon="14.0811517"><ele>57.75</ele><time>2026-04-26T08:12:42.157Z</time></trkpt><trkpt lat="40.88858" lon="14.081205"><ele>57.5</ele><time>2026-04-26T08:12:44.156Z</time></trkpt><trkpt lat="40.88868" lon="14.0812633"><ele>57.25</ele><time>2026-04-26T08:12:46.156Z</time></trkpt><trkpt lat="40.88876" lon="14.08137"><ele>57.0</ele><time>2026-04-26T08:12:48.162Z</time></trkpt><trkpt lat="40.8888167" lon="14.0815183"><ele>57.0</ele><time>2026-04-26T08:12:50.156Z</time></trkpt><trkpt lat="40.8888417" lon="14.0815983"><ele>56.99999999999999</ele><time>2026-04-26T08:12:51.156Z</time></trkpt><trkpt lat="40.8888667" lon="14.081675"><ele>57.0</ele><time>2026-04-26T08:12:52.156Z</time></trkpt><trkpt lat="40.888895" lon="14.08175"><ele>57.0</ele><time>2026-04-26T08:12:53.157Z</time></trkpt><trkpt lat="40.8889533" lon="14.0818917"><ele>56.99999999999999</ele><time>2026-04-26T08:12:55.157Z</time></trkpt><trkpt lat="40.8889817" lon="14.0819667"><ele>57.0</ele><time>2026-04-26T08:12:56.157Z</time></trkpt><trkpt lat="40.8890083" lon="14.0820483"><ele>57.0</ele><time>2026-04-26T08:12:57.156Z</time></trkpt><trkpt lat="40.889065" lon="14.0821983"><ele>57.0</ele><time>2026-04-26T08:12:59.157Z</time></trkpt><trkpt lat="40.8890933" lon="14.082275"><ele>57.0</ele><time>2026-04-26T08:13:00.158Z</time></trkpt><trkpt lat="40.8891467" lon="14.082425"><ele>57.0</ele><time>2026-04-26T08:13:02.158Z</time></trkpt><trkpt lat="40.88921" lon="14.0825683"><ele>57.0</ele><time>2026-04-26T08:13:04.157Z</time></trkpt><trkpt lat="40.889275" lon="14.0827017"><ele>57.0</ele><time>2026-04-26T08:13:06.157Z</time></trkpt><trkpt lat="40.889345" lon="14.082835"><ele>57.333333333333336</ele><time>2026-04-26T08:13:08.159Z</time></trkpt><trkpt lat="40.889385" lon="14.0829017"><ele>57.66666666666667</ele><time>2026-04-26T08:13:09.157Z</time></trkpt><trkpt lat="40.8894283" lon="14.0829683"><ele>58.0</ele><time>2026-04-26T08:13:10.156Z</time></trkpt><trkpt lat="40.88947" lon="14.0830333"><ele>58.333333333333336</ele><time>2026-04-26T08:13:11.157Z</time></trkpt><trkpt lat="40.8895167" lon="14.0831017"><ele>58.66666666666667</ele><time>2026-04-26T08:13:12.158Z</time></trkpt><trkpt lat="40.8895617" lon="14.0831617"><ele>59.0</ele><time>2026-04-26T08:13:13.157Z</time></trkpt><trkpt lat="40.8896467" lon="14.0832817"><ele>59.5</ele><time>2026-04-26T08:13:15.157Z</time></trkpt><trkpt lat="40.8897317" lon="14.0834"><ele>60.0</ele><time>2026-04-26T08:13:17.158Z</time></trkpt><trkpt lat="40.8898183" lon="14.08351"><ele>60.5</ele><time>2026-04-26T08:13:19.157Z</time></trkpt><trkpt lat="40.8899" lon="14.0836283"><ele>61.0</ele><time>2026-04-26T08:13:21.157Z</time></trkpt><trkpt lat="40.8899817" lon="14.0837467"><ele>61.0</ele><time>2026-04-26T08:13:23.157Z</time></trkpt><trkpt lat="40.8900633" lon="14.0838617"><ele>61.0</ele><time>2026-04-26T08:13:25.158Z</time></trkpt><trkpt lat="40.8901483" lon="14.0839733"><ele>61.0</ele><time>2026-04-26T08:13:27.156Z</time></trkpt><trkpt lat="40.89023" lon="14.0840783"><ele>61.0</ele><time>2026-04-26T08:13:29.157Z</time></trkpt><trkpt lat="40.8903" lon="14.0841867"><ele>61.75</ele><time>2026-04-26T08:13:31.157Z</time></trkpt><trkpt lat="40.8903733" lon="14.0843"><ele>62.5</ele><time>2026-04-26T08:13:33.156Z</time></trkpt><trkpt lat="40.8904567" lon="14.0843967"><ele>63.25</ele><time>2026-04-26T08:13:35.157Z</time></trkpt><trkpt lat="40.89054" lon="14.0845033"><ele>64.0</ele><time>2026-04-26T08:13:37.157Z</time></trkpt><trkpt lat="40.89062" lon="14.0846117"><ele>64.0</ele><time>2026-04-26T08:13:39.157Z</time></trkpt><trkpt lat="40.8906967" lon="14.0847283"><ele>64.0</ele><time>2026-04-26T08:13:41.156Z</time></trkpt><trkpt lat="40.8907783" lon="14.0848483"><ele>64.0</ele><time>2026-04-26T08:13:43.159Z</time></trkpt><trkpt lat="40.89086" lon="14.0849583"><ele>64.0</ele><time>2026-04-26T08:13:45.158Z</time></trkpt><trkpt lat="40.89094" lon="14.08507"><ele>64.60000000000001</ele><time>2026-04-26T08:13:47.158Z</time></trkpt><trkpt lat="40.8910267" lon="14.08518"><ele>65.2</ele><time>2026-04-26T08:13:49.157Z</time></trkpt><trkpt lat="40.8911133" lon="14.0852833"><ele>65.80000000000001</ele><time>2026-04-26T08:13:51.157Z</time></trkpt><trkpt lat="40.891195" lon="14.0854117"><ele>66.4</ele><time>2026-04-26T08:13:53.156Z</time></trkpt><trkpt lat="40.8912367" lon="14.085475"><ele>67.0</ele><time>2026-04-26T08:13:54.157Z</time></trkpt><trkpt lat="40.8912783" lon="14.08554"><ele>67.0</ele><time>2026-04-26T08:13:55.156Z</time></trkpt><trkpt lat="40.8913167" lon="14.08561"><ele>67.0</ele><time>2026-04-26T08:13:56.157Z</time></trkpt><trkpt lat="40.8913483" lon="14.085685"><ele>67.0</ele><time>2026-04-26T08:13:57.157Z</time></trkpt><trkpt lat="40.89137" lon="14.085765"><ele>67.0</ele><time>2026-04-26T08:13:58.158Z</time></trkpt><trkpt lat="40.89138" lon="14.08585"><ele>67.0</ele><time>2026-04-26T08:13:59.157Z</time></trkpt><trkpt lat="40.8913783" lon="14.0859367"><ele>67.0</ele><time>2026-04-26T08:14:00.156Z</time></trkpt><trkpt lat="40.8913717" lon="14.0860233"><ele>67.0</ele><time>2026-04-26T08:14:01.156Z</time></trkpt><trkpt lat="40.8913567" lon="14.0861067"><ele>67.6</ele><time>2026-04-26T08:14:02.158Z</time></trkpt><trkpt lat="40.8913317" lon="14.08619"><ele>68.2</ele><time>2026-04-26T08:14:03.157Z</time></trkpt><trkpt lat="40.89128" lon="14.0863333"><ele>68.8</ele><time>2026-04-26T08:14:05.157Z</time></trkpt><trkpt lat="40.8912233" lon="14.08648"><ele>69.4</ele><time>2026-04-26T08:14:07.158Z</time></trkpt><trkpt lat="40.8911767" lon="14.0866267"><ele>70.0</ele><time>2026-04-26T08:14:09.158Z</time></trkpt><trkpt lat="40.8911267" lon="14.0867783"><ele>70.2</ele><time>2026-04-26T08:14:11.158Z</time></trkpt><trkpt lat="40.891075" lon="14.08692"><ele>70.4</ele><time>2026-04-26T08:14:13.161Z</time></trkpt><trkpt lat="40.8910217" lon="14.0870667"><ele>70.6</ele><time>2026-04-26T08:14:15.157Z</time></trkpt><trkpt lat="40.890975" lon="14.087215"><ele>70.8</ele><time>2026-04-26T08:14:17.158Z</time></trkpt><trkpt lat="40.8909517" lon="14.0872967"><ele>71.0</ele><time>2026-04-26T08:14:18.156Z</time></trkpt><trkpt lat="40.89093" lon="14.08738"><ele>71.16666666666667</ele><time>2026-04-26T08:14:19.156Z</time></trkpt><trkpt lat="40.8909083" lon="14.0874583"><ele>71.33333333333334</ele><time>2026-04-26T08:14:20.156Z</time></trkpt><trkpt lat="40.8908583" lon="14.0876033"><ele>71.5</ele><time>2026-04-26T08:14:22.158Z</time></trkpt><trkpt lat="40.8908333" lon="14.087685"><ele>71.66666666666667</ele><time>2026-04-26T08:14:23.157Z</time></trkpt><trkpt lat="40.8908067" lon="14.087765"><ele>71.83333333333333</ele><time>2026-04-26T08:14:24.157Z</time></trkpt><trkpt lat="40.8907783" lon="14.0878483"><ele>72.0</ele><time>2026-04-26T08:14:25.157Z</time></trkpt><trkpt lat="40.8907533" lon="14.0879283"><ele>72.00000000000001</ele><time>2026-04-26T08:14:26.157Z</time></trkpt><trkpt lat="40.8907267" lon="14.0880083"><ele>72.0</ele><time>2026-04-26T08:14:27.156Z</time></trkpt><trkpt lat="40.8907017" lon="14.0880883"><ele>72.0</ele><time>2026-04-26T08:14:28.156Z</time></trkpt><trkpt lat="40.8906767" lon="14.0881683"><ele>72.0</ele><time>2026-04-26T08:14:29.156Z</time></trkpt><trkpt lat="40.8906533" lon="14.0882517"><ele>72.0</ele><time>2026-04-26T08:14:30.157Z</time></trkpt><trkpt lat="40.8906283" lon="14.0884083"><ele>72.00000000000001</ele><time>2026-04-26T08:14:32.158Z</time></trkpt><trkpt lat="40.89062" lon="14.0884917"><ele>72.0</ele><time>2026-04-26T08:14:33.159Z</time></trkpt><trkpt lat="40.8906283" lon="14.0886583"><ele>72.0</ele><time>2026-04-26T08:14:35.158Z</time></trkpt><trkpt lat="40.8906583" lon="14.08882"><ele>72.0</ele><time>2026-04-26T08:14:37.156Z</time></trkpt><trkpt lat="40.8906717" lon="14.0889033"><ele>72.0</ele><time>2026-04-26T08:14:38.158Z</time></trkpt><trkpt lat="40.890685" lon="14.0889867"><ele>72.0</ele><time>2026-04-26T08:14:39.158Z</time></trkpt><trkpt lat="40.8907183" lon="14.089145"><ele>72.0</ele><time>2026-04-26T08:14:41.158Z</time></trkpt><trkpt lat="40.89074" lon="14.0892267"><ele>72.0</ele><time>2026-04-26T08:14:42.157Z</time></trkpt><trkpt lat="40.8907833" lon="14.08938"><ele>72.25</ele><time>2026-04-26T08:14:44.157Z</time></trkpt><trkpt lat="40.890815" lon="14.0895367"><ele>72.5</ele><time>2026-04-26T08:14:46.156Z</time></trkpt><trkpt lat="40.8908517" lon="14.0896917"><ele>72.75</ele><time>2026-04-26T08:14:48.159Z</time></trkpt><trkpt lat="40.8908983" lon="14.0898433"><ele>73.0</ele><time>2026-04-26T08:14:50.157Z</time></trkpt><trkpt lat="40.89093" lon="14.0899917"><ele>73.4</ele><time>2026-04-26T08:14:52.157Z</time></trkpt><trkpt lat="40.890965" lon="14.0901417"><ele>73.8</ele><time>2026-04-26T08:14:54.158Z</time></trkpt><trkpt lat="40.891" lon="14.0902933"><ele>74.2</ele><time>2026-04-26T08:14:56.157Z</time></trkpt><trkpt lat="40.8910217" lon="14.0903717"><ele>74.6</ele><time>2026-04-26T08:14:57.158Z</time></trkpt><trkpt lat="40.8910517" lon="14.09053"><ele>75.0</ele><time>2026-04-26T08:14:59.157Z</time></trkpt><trkpt lat="40.891065" lon="14.0906883"><ele>75.4</ele><time>2026-04-26T08:15:01.157Z</time></trkpt><trkpt lat="40.8910783" lon="14.0908417"><ele>75.8</ele><time>2026-04-26T08:15:03.157Z</time></trkpt><trkpt lat="40.8910883" lon="14.090925"><ele>76.2</ele><time>2026-04-26T08:15:04.158Z</time></trkpt><trkpt lat="40.8910933" lon="14.0910083"><ele>76.6</ele><time>2026-04-26T08:15:05.156Z</time></trkpt><trkpt lat="40.89111" lon="14.0911683"><ele>77.0</ele><time>2026-04-26T08:15:07.157Z</time></trkpt><trkpt lat="40.8911283" lon="14.091335"><ele>77.0</ele><time>2026-04-26T08:15:09.158Z</time></trkpt><trkpt lat="40.8911383" lon="14.0914233"><ele>77.0</ele><time>2026-04-26T08:15:10.156Z</time></trkpt><trkpt lat="40.8911483" lon="14.0915083"><ele>77.0</ele><time>2026-04-26T08:15:11.157Z</time></trkpt><trkpt lat="40.89116" lon="14.0915933"><ele>77.0</ele><time>2026-04-26T08:15:12.158Z</time></trkpt><trkpt lat="40.8911733" lon="14.0916783"><ele>77.0</ele><time>2026-04-26T08:15:13.159Z</time></trkpt><trkpt lat="40.8911933" lon="14.09184"><ele>77.0</ele><time>2026-04-26T08:15:15.157Z</time></trkpt><trkpt lat="40.891215" lon="14.0920067"><ele>77.16666666666667</ele><time>2026-04-26T08:15:17.157Z</time></trkpt><trkpt lat="40.891245" lon="14.0921633"><ele>77.33333333333334</ele><time>2026-04-26T08:15:19.165Z</time></trkpt><trkpt lat="40.8912617" lon="14.092245"><ele>77.5</ele><time>2026-04-26T08:15:20.156Z</time></trkpt><trkpt lat="40.89129" lon="14.0924067"><ele>77.66666666666667</ele><time>2026-04-26T08:15:22.156Z</time></trkpt><trkpt lat="40.8913067" lon="14.09249"><ele>77.83333333333333</ele><time>2026-04-26T08:15:23.157Z</time></trkpt><trkpt lat="40.89132" lon="14.0925717"><ele>78.0</ele><time>2026-04-26T08:15:24.157Z</time></trkpt><trkpt lat="40.8913567" lon="14.09273"><ele>78.14285714285715</ele><time>2026-04-26T08:15:26.162Z</time></trkpt><trkpt lat="40.891375" lon="14.0928117"><ele>78.28571428571428</ele><time>2026-04-26T08:15:27.157Z</time></trkpt><trkpt lat="40.8913917" lon="14.0928933"><ele>78.42857142857143</ele><time>2026-04-26T08:15:28.157Z</time></trkpt><trkpt lat="40.89141" lon="14.0929817"><ele>78.57142857142858</ele><time>2026-04-26T08:15:29.156Z</time></trkpt><trkpt lat="40.89144" lon="14.093065"><ele>78.71428571428572</ele><time>2026-04-26T08:15:30.158Z</time></trkpt><trkpt lat="40.8914617" lon="14.093145"><ele>78.85714285714286</ele><time>2026-04-26T08:15:31.155Z</time></trkpt><trkpt lat="40.8914883" lon="14.0932217"><ele>79.0</ele><time>2026-04-26T08:15:32.156Z</time></trkpt><trkpt lat="40.89152" lon="14.0932967"><ele>79.0</ele><time>2026-04-26T08:15:33.156Z</time></trkpt><trkpt lat="40.8915717" lon="14.09345"><ele>79.0</ele><time>2026-04-26T08:15:35.156Z</time></trkpt><trkpt lat="40.89161" lon="14.0935217"><ele>79.0</ele><time>2026-04-26T08:15:36.156Z</time></trkpt><trkpt lat="40.8916467" lon="14.093595"><ele>79.0</ele><time>2026-04-26T08:15:37.155Z</time></trkpt><trkpt lat="40.89168" lon="14.0936683"><ele>79.0</ele><time>2026-04-26T08:15:38.156Z</time></trkpt><trkpt lat="40.8917183" lon="14.09374"><ele>79.0</ele><time>2026-04-26T08:15:39.156Z</time></trkpt><trkpt lat="40.8917533" lon="14.0938133"><ele>79.28571428571429</ele><time>2026-04-26T08:15:40.155Z</time></trkpt><trkpt lat="40.891795" lon="14.0938867"><ele>79.57142857142857</ele><time>2026-04-26T08:15:41.155Z</time></trkpt><trkpt lat="40.891835" lon="14.09396"><ele>79.85714285714286</ele><time>2026-04-26T08:15:42.156Z</time></trkpt><trkpt lat="40.8918667" lon="14.0940367"><ele>80.14285714285714</ele><time>2026-04-26T08:15:43.156Z</time></trkpt><trkpt lat="40.8918983" lon="14.094115"><ele>80.42857142857143</ele><time>2026-04-26T08:15:44.157Z</time></trkpt><trkpt lat="40.8919317" lon="14.0941883"><ele>80.71428571428572</ele><time>2026-04-26T08:15:45.156Z</time></trkpt><trkpt lat="40.8919683" lon="14.0942633"><ele>81.0</ele><time>2026-04-26T08:15:46.156Z</time></trkpt><trkpt lat="40.892" lon="14.09434"><ele>81.19999999999999</ele><time>2026-04-26T08:15:47.156Z</time></trkpt><trkpt lat="40.8920267" lon="14.0944167"><ele>81.39999999999999</ele><time>2026-04-26T08:15:48.157Z</time></trkpt><trkpt lat="40.8920833" lon="14.0945633"><ele>81.6</ele><time>2026-04-26T08:15:50.156Z</time></trkpt><trkpt lat="40.892145" lon="14.0947067"><ele>81.8</ele><time>2026-04-26T08:15:52.157Z</time></trkpt><trkpt lat="40.892205" lon="14.094855"><ele>82.0</ele><time>2026-04-26T08:15:54.156Z</time></trkpt><trkpt lat="40.8922383" lon="14.0949267"><ele>82.33333333333333</ele><time>2026-04-26T08:15:55.157Z</time></trkpt><trkpt lat="40.89227" lon="14.095"><ele>82.66666666666666</ele><time>2026-04-26T08:15:56.157Z</time></trkpt><trkpt lat="40.892305" lon="14.095075"><ele>83.0</ele><time>2026-04-26T08:15:57.156Z</time></trkpt><trkpt lat="40.89234" lon="14.0951483"><ele>83.33333333333333</ele><time>2026-04-26T08:15:58.156Z</time></trkpt><trkpt lat="40.8923733" lon="14.0952233"><ele>83.66666666666667</ele><time>2026-04-26T08:15:59.158Z</time></trkpt><trkpt lat="40.89244" lon="14.095365"><ele>84.0</ele><time>2026-04-26T08:16:01.157Z</time></trkpt><trkpt lat="40.892475" lon="14.095435"><ele>84.0</ele><time>2026-04-26T08:16:02.158Z</time></trkpt><trkpt lat="40.8925083" lon="14.0955083"><ele>84.0</ele><time>2026-04-26T08:16:03.156Z</time></trkpt><trkpt lat="40.89254" lon="14.0955867"><ele>84.0</ele><time>2026-04-26T08:16:04.156Z</time></trkpt><trkpt lat="40.8925733" lon="14.0956617"><ele>84.0</ele><time>2026-04-26T08:16:05.155Z</time></trkpt><trkpt lat="40.8926067" lon="14.0957367"><ele>84.0</ele><time>2026-04-26T08:16:06.157Z</time></trkpt><trkpt lat="40.8926417" lon="14.0958117"><ele>84.0</ele><time>2026-04-26T08:16:07.157Z</time></trkpt><trkpt lat="40.892675" lon="14.0958883"><ele>84.0</ele><time>2026-04-26T08:16:08.156Z</time></trkpt><trkpt lat="40.8927033" lon="14.095965"><ele>84.14285714285714</ele><time>2026-04-26T08:16:09.155Z</time></trkpt><trkpt lat="40.8927283" lon="14.0960433"><ele>84.28571428571428</ele><time>2026-04-26T08:16:10.155Z</time></trkpt><trkpt lat="40.8927567" lon="14.0961217"><ele>84.42857142857143</ele><time>2026-04-26T08:16:11.156Z</time></trkpt><trkpt lat="40.8927817" lon="14.0962017"><ele>84.57142857142857</ele><time>2026-04-26T08:16:12.156Z</time></trkpt><trkpt lat="40.8928033" lon="14.0962833"><ele>84.71428571428571</ele><time>2026-04-26T08:16:13.156Z</time></trkpt><trkpt lat="40.8928283" lon="14.0963617"><ele>84.85714285714286</ele><time>2026-04-26T08:16:14.156Z</time></trkpt><trkpt lat="40.8928517" lon="14.096445"><ele>85.0</ele><time>2026-04-26T08:16:15.156Z</time></trkpt><trkpt lat="40.892875" lon="14.0965267"><ele>85.28571428571429</ele><time>2026-04-26T08:16:16.156Z</time></trkpt><trkpt lat="40.8928967" lon="14.09661"><ele>85.57142857142857</ele><time>2026-04-26T08:16:17.156Z</time></trkpt><trkpt lat="40.8929183" lon="14.0966933"><ele>85.85714285714286</ele><time>2026-04-26T08:16:18.156Z</time></trkpt><trkpt lat="40.89294" lon="14.0967767"><ele>86.14285714285714</ele><time>2026-04-26T08:16:19.157Z</time></trkpt><trkpt lat="40.892965" lon="14.09686"><ele>86.42857142857143</ele><time>2026-04-26T08:16:20.157Z</time></trkpt><trkpt lat="40.89299" lon="14.0969383"><ele>86.71428571428571</ele><time>2026-04-26T08:16:21.156Z</time></trkpt><trkpt lat="40.8930133" lon="14.0970217"><ele>87.0</ele><time>2026-04-26T08:16:22.156Z</time></trkpt><trkpt lat="40.893035" lon="14.0971083"><ele>87.0</ele><time>2026-04-26T08:16:23.157Z</time></trkpt><trkpt lat="40.8930567" lon="14.097195"><ele>87.0</ele><time>2026-04-26T08:16:24.156Z</time></trkpt><trkpt lat="40.89308" lon="14.0972817"><ele>87.0</ele><time>2026-04-26T08:16:25.156Z</time></trkpt><trkpt lat="40.893105" lon="14.0973667"><ele>87.0</ele><time>2026-04-26T08:16:26.156Z</time></trkpt><trkpt lat="40.8931267" lon="14.0974533"><ele>87.0</ele><time>2026-04-26T08:16:27.157Z</time></trkpt><trkpt lat="40.8931467" lon="14.097545"><ele>87.0</ele><time>2026-04-26T08:16:28.156Z</time></trkpt><trkpt lat="40.8931683" lon="14.0976333"><ele>87.0</ele><time>2026-04-26T08:16:29.158Z</time></trkpt><trkpt lat="40.8931883" lon="14.0977183"><ele>87.0</ele><time>2026-04-26T08:16:30.156Z</time></trkpt><trkpt lat="40.8932117" lon="14.0978017"><ele>87.0</ele><time>2026-04-26T08:16:31.156Z</time></trkpt><trkpt lat="40.893235" lon="14.0978833"><ele>87.0</ele><time>2026-04-26T08:16:32.157Z</time></trkpt><trkpt lat="40.8932517" lon="14.097965"><ele>87.0</ele><time>2026-04-26T08:16:33.156Z</time></trkpt><trkpt lat="40.8932733" lon="14.098045"><ele>87.0</ele><time>2026-04-26T08:16:34.155Z</time></trkpt><trkpt lat="40.8932933" lon="14.0981317"><ele>87.0</ele><time>2026-04-26T08:16:35.156Z</time></trkpt><trkpt lat="40.8933217" lon="14.0982133"><ele>87.0</ele><time>2026-04-26T08:16:36.156Z</time></trkpt><trkpt lat="40.8933483" lon="14.0982983"><ele>87.0</ele><time>2026-04-26T08:16:37.156Z</time></trkpt><trkpt lat="40.89338" lon="14.09838"><ele>87.0</ele><time>2026-04-26T08:16:38.157Z</time></trkpt><trkpt lat="40.8934067" lon="14.0984617"><ele>87.0</ele><time>2026-04-26T08:16:39.157Z</time></trkpt><trkpt lat="40.8934333" lon="14.098545"><ele>87.0</ele><time>2026-04-26T08:16:40.156Z</time></trkpt><trkpt lat="40.8934533" lon="14.0986317"><ele>87.0</ele><time>2026-04-26T08:16:41.156Z</time></trkpt><trkpt lat="40.89347" lon="14.09872"><ele>87.0</ele><time>2026-04-26T08:16:42.159Z</time></trkpt><trkpt lat="40.89349" lon="14.09881"><ele>87.0</ele><time>2026-04-26T08:16:43.156Z</time></trkpt><trkpt lat="40.89351" lon="14.0988983"><ele>87.0</ele><time>2026-04-26T08:16:44.156Z</time></trkpt><trkpt lat="40.8935333" lon="14.0989817"><ele>87.0</ele><time>2026-04-26T08:16:45.156Z</time></trkpt><trkpt lat="40.8935567" lon="14.0990633"><ele>87.0</ele><time>2026-04-26T08:16:46.157Z</time></trkpt><trkpt lat="40.8935817" lon="14.0991467"><ele>87.0</ele><time>2026-04-26T08:16:47.156Z</time></trkpt><trkpt lat="40.893605" lon="14.0992317"><ele>87.0</ele><time>2026-04-26T08:16:48.156Z</time></trkpt><trkpt lat="40.8936267" lon="14.0993133"><ele>87.0</ele><time>2026-04-26T08:16:49.157Z</time></trkpt><trkpt lat="40.89365" lon="14.0993983"><ele>87.0</ele><time>2026-04-26T08:16:50.157Z</time></trkpt><trkpt lat="40.8936733" lon="14.099485"><ele>87.14285714285714</ele><time>2026-04-26T08:16:51.156Z</time></trkpt><trkpt lat="40.8936933" lon="14.09957"><ele>87.28571428571429</ele><time>2026-04-26T08:16:52.159Z</time></trkpt><trkpt lat="40.8937183" lon="14.0996517"><ele>87.42857142857143</ele><time>2026-04-26T08:16:53.156Z</time></trkpt><trkpt lat="40.89374" lon="14.0997333"><ele>87.57142857142857</ele><time>2026-04-26T08:16:54.157Z</time></trkpt><trkpt lat="40.8937617" lon="14.0998217"><ele>87.71428571428571</ele><time>2026-04-26T08:16:55.156Z</time></trkpt><trkpt lat="40.8937867" lon="14.09991"><ele>87.85714285714286</ele><time>2026-04-26T08:16:56.156Z</time></trkpt><trkpt lat="40.8938067" lon="14.1000033"><ele>88.0</ele><time>2026-04-26T08:16:57.156Z</time></trkpt><trkpt lat="40.8938317" lon="14.100095"><ele>88.0</ele><time>2026-04-26T08:16:58.157Z</time></trkpt><trkpt lat="40.8938533" lon="14.100185"><ele>88.0</ele><time>2026-04-26T08:16:59.156Z</time></trkpt><trkpt lat="40.893875" lon="14.10028"><ele>88.0</ele><time>2026-04-26T08:17:00.156Z</time></trkpt><trkpt lat="40.893895" lon="14.10037"><ele>88.0</ele><time>2026-04-26T08:17:01.157Z</time></trkpt><trkpt lat="40.8939133" lon="14.100465"><ele>88.0</ele><time>2026-04-26T08:17:02.157Z</time></trkpt><trkpt lat="40.8939333" lon="14.1005567"><ele>88.0</ele><time>2026-04-26T08:17:03.156Z</time></trkpt><trkpt lat="40.893955" lon="14.1006483"><ele>88.0</ele><time>2026-04-26T08:17:04.156Z</time></trkpt><trkpt lat="40.8939767" lon="14.1007383"><ele>88.14285714285714</ele><time>2026-04-26T08:17:05.156Z</time></trkpt><trkpt lat="40.8939967" lon="14.1008283"><ele>88.28571428571428</ele><time>2026-04-26T08:17:06.157Z</time></trkpt><trkpt lat="40.89402" lon="14.1009233"><ele>88.42857142857142</ele><time>2026-04-26T08:17:07.157Z</time></trkpt><trkpt lat="40.89404" lon="14.1010167"><ele>88.57142857142857</ele><time>2026-04-26T08:17:08.156Z</time></trkpt><trkpt lat="40.8940617" lon="14.1011067"><ele>88.71428571428571</ele><time>2026-04-26T08:17:09.157Z</time></trkpt><trkpt lat="40.89408" lon="14.1011967"><ele>88.85714285714285</ele><time>2026-04-26T08:17:10.158Z</time></trkpt><trkpt lat="40.8941" lon="14.1012833"><ele>89.0</ele><time>2026-04-26T08:17:11.157Z</time></trkpt><trkpt lat="40.89412" lon="14.10137"><ele>88.99999999999999</ele><time>2026-04-26T08:17:12.156Z</time></trkpt><trkpt lat="40.89414" lon="14.10146"><ele>89.0</ele><time>2026-04-26T08:17:13.155Z</time></trkpt><trkpt lat="40.8941617" lon="14.1015483"><ele>89.0</ele><time>2026-04-26T08:17:14.156Z</time></trkpt><trkpt lat="40.89418" lon="14.1016383"><ele>89.0</ele><time>2026-04-26T08:17:15.155Z</time></trkpt><trkpt lat="40.8941967" lon="14.10173"><ele>89.0</ele><time>2026-04-26T08:17:16.156Z</time></trkpt><trkpt lat="40.894215" lon="14.101825"><ele>88.99999999999999</ele><time>2026-04-26T08:17:17.157Z</time></trkpt><trkpt lat="40.89423" lon="14.101915"><ele>89.0</ele><time>2026-04-26T08:17:18.156Z</time></trkpt><trkpt lat="40.8942483" lon="14.1020017"><ele>88.99999999999999</ele><time>2026-04-26T08:17:19.156Z</time></trkpt><trkpt lat="40.89427" lon="14.1020867"><ele>89.0</ele><time>2026-04-26T08:17:20.157Z</time></trkpt><trkpt lat="40.89429" lon="14.102175"><ele>89.0</ele><time>2026-04-26T08:17:21.156Z</time></trkpt><trkpt lat="40.894315" lon="14.1022633"><ele>89.0</ele><time>2026-04-26T08:17:22.156Z</time></trkpt><trkpt lat="40.8943383" lon="14.10235"><ele>89.0</ele><time>2026-04-26T08:17:23.156Z</time></trkpt><trkpt lat="40.8943583" lon="14.10244"><ele>88.99999999999999</ele><time>2026-04-26T08:17:24.156Z</time></trkpt><trkpt lat="40.8943817" lon="14.102525"><ele>89.0</ele><time>2026-04-26T08:17:25.156Z</time></trkpt><trkpt lat="40.8944017" lon="14.1026083"><ele>88.99999999999999</ele><time>2026-04-26T08:17:26.157Z</time></trkpt><trkpt lat="40.8944267" lon="14.1026917"><ele>89.0</ele><time>2026-04-26T08:17:27.156Z</time></trkpt><trkpt lat="40.8944533" lon="14.102775"><ele>89.0</ele><time>2026-04-26T08:17:28.156Z</time></trkpt><trkpt lat="40.8944783" lon="14.1028567"><ele>89.0</ele><time>2026-04-26T08:17:29.156Z</time></trkpt><trkpt lat="40.8945017" lon="14.1029383"><ele>89.0</ele><time>2026-04-26T08:17:30.157Z</time></trkpt><trkpt lat="40.894525" lon="14.10302"><ele>88.99999999999999</ele><time>2026-04-26T08:17:31.156Z</time></trkpt><trkpt lat="40.8945483" lon="14.1030983"><ele>89.0</ele><time>2026-04-26T08:17:32.156Z</time></trkpt><trkpt lat="40.89457" lon="14.1031783"><ele>89.42857142857142</ele><time>2026-04-26T08:17:33.157Z</time></trkpt><trkpt lat="40.8945917" lon="14.1032583"><ele>89.85714285714286</ele><time>2026-04-26T08:17:34.156Z</time></trkpt><trkpt lat="40.8946183" lon="14.103335"><ele>90.28571428571428</ele><time>2026-04-26T08:17:35.156Z</time></trkpt><trkpt lat="40.894645" lon="14.1034133"><ele>90.71428571428571</ele><time>2026-04-26T08:17:36.157Z</time></trkpt><trkpt lat="40.8946767" lon="14.1034883"><ele>91.14285714285714</ele><time>2026-04-26T08:17:37.156Z</time></trkpt><trkpt lat="40.89471" lon="14.1035667"><ele>91.57142857142857</ele><time>2026-04-26T08:17:38.16Z</time></trkpt><trkpt lat="40.8947467" lon="14.103645"><ele>92.0</ele><time>2026-04-26T08:17:39.157Z</time></trkpt><trkpt lat="40.8947867" lon="14.103725"><ele>92.0</ele><time>2026-04-26T08:17:40.156Z</time></trkpt><trkpt lat="40.8948317" lon="14.1037917"><ele>92.0</ele><time>2026-04-26T08:17:41.155Z</time></trkpt><trkpt lat="40.8948817" lon="14.1038517"><ele>92.0</ele><time>2026-04-26T08:17:42.159Z</time></trkpt><trkpt lat="40.894935" lon="14.1039033"><ele>92.0</ele><time>2026-04-26T08:17:43.156Z</time></trkpt><trkpt lat="40.894995" lon="14.1039517"><ele>92.0</ele><time>2026-04-26T08:17:44.156Z</time></trkpt><trkpt lat="40.8950567" lon="14.104"><ele>92.0</ele><time>2026-04-26T08:17:45.157Z</time></trkpt><trkpt lat="40.8951133" lon="14.1040533"><ele>92.0</ele><time>2026-04-26T08:17:46.157Z</time></trkpt><trkpt lat="40.8951717" lon="14.1041083"><ele>92.14285714285715</ele><time>2026-04-26T08:17:47.156Z</time></trkpt><trkpt lat="40.8952317" lon="14.1041583"><ele>92.28571428571428</ele><time>2026-04-26T08:17:48.157Z</time></trkpt><trkpt lat="40.8952967" lon="14.1042017"><ele>92.42857142857143</ele><time>2026-04-26T08:17:49.162Z</time></trkpt><trkpt lat="40.89536" lon="14.1042483"><ele>92.57142857142858</ele><time>2026-04-26T08:17:50.159Z</time></trkpt><trkpt lat="40.8954233" lon="14.1042967"><ele>92.71428571428572</ele><time>2026-04-26T08:17:51.156Z</time></trkpt><trkpt lat="40.89549" lon="14.1043467"><ele>92.85714285714286</ele><time>2026-04-26T08:17:52.157Z</time></trkpt><trkpt lat="40.8955517" lon="14.1043983"><ele>93.0</ele><time>2026-04-26T08:17:53.157Z</time></trkpt><trkpt lat="40.8956133" lon="14.1044483"><ele>93.00000000000001</ele><time>2026-04-26T08:17:54.156Z</time></trkpt><trkpt lat="40.895675" lon="14.1044967"><ele>93.0</ele><time>2026-04-26T08:17:55.157Z</time></trkpt><trkpt lat="40.89574" lon="14.1045383"><ele>93.0</ele><time>2026-04-26T08:17:56.157Z</time></trkpt><trkpt lat="40.8958033" lon="14.10458"><ele>93.0</ele><time>2026-04-26T08:17:57.156Z</time></trkpt><trkpt lat="40.8958683" lon="14.1046217"><ele>93.0</ele><time>2026-04-26T08:17:58.156Z</time></trkpt><trkpt lat="40.89593" lon="14.1046683"><ele>93.00000000000001</ele><time>2026-04-26T08:17:59.156Z</time></trkpt><trkpt lat="40.8959967" lon="14.1047183"><ele>93.0</ele><time>2026-04-26T08:18:00.156Z</time></trkpt><trkpt lat="40.8960617" lon="14.1047683"><ele>93.14285714285715</ele><time>2026-04-26T08:18:01.157Z</time></trkpt><trkpt lat="40.8961267" lon="14.1048117"><ele>93.28571428571429</ele><time>2026-04-26T08:18:02.156Z</time></trkpt><trkpt lat="40.8961917" lon="14.1048567"><ele>93.42857142857143</ele><time>2026-04-26T08:18:03.156Z</time></trkpt><trkpt lat="40.8962533" lon="14.1049"><ele>93.57142857142858</ele><time>2026-04-26T08:18:04.156Z</time></trkpt><trkpt lat="40.89631" lon="14.1049433"><ele>93.71428571428571</ele><time>2026-04-26T08:18:05.156Z</time></trkpt><trkpt lat="40.8963667" lon="14.10499"><ele>93.85714285714286</ele><time>2026-04-26T08:18:06.157Z</time></trkpt><trkpt lat="40.8964217" lon="14.1050367"><ele>94.0</ele><time>2026-04-26T08:18:07.156Z</time></trkpt><trkpt lat="40.8964767" lon="14.1050817"><ele>94.14285714285714</ele><time>2026-04-26T08:18:08.155Z</time></trkpt><trkpt lat="40.896535" lon="14.1051233"><ele>94.28571428571428</ele><time>2026-04-26T08:18:09.156Z</time></trkpt><trkpt lat="40.896595" lon="14.10517"><ele>94.42857142857143</ele><time>2026-04-26T08:18:10.157Z</time></trkpt><trkpt lat="40.8966517" lon="14.1052183"><ele>94.57142857142857</ele><time>2026-04-26T08:18:11.157Z</time></trkpt><trkpt lat="40.8967133" lon="14.1052683"><ele>94.71428571428572</ele><time>2026-04-26T08:18:12.157Z</time></trkpt><trkpt lat="40.89677" lon="14.1053167"><ele>94.85714285714286</ele><time>2026-04-26T08:18:13.155Z</time></trkpt><trkpt lat="40.8968267" lon="14.10536"><ele>95.0</ele><time>2026-04-26T08:18:14.157Z</time></trkpt><trkpt lat="40.8969367" lon="14.1054483"><ele>95.16666666666667</ele><time>2026-04-26T08:18:16.156Z</time></trkpt><trkpt lat="40.8969933" lon="14.1054883"><ele>95.33333333333334</ele><time>2026-04-26T08:18:17.158Z</time></trkpt><trkpt lat="40.8970483" lon="14.105535"><ele>95.5</ele><time>2026-04-26T08:18:18.157Z</time></trkpt><trkpt lat="40.8971483" lon="14.1056283"><ele>95.66666666666667</ele><time>2026-04-26T08:18:20.156Z</time></trkpt><trkpt lat="40.897205" lon="14.1056817"><ele>95.83333333333333</ele><time>2026-04-26T08:18:21.156Z</time></trkpt><trkpt lat="40.8972633" lon="14.1057367"><ele>96.0</ele><time>2026-04-26T08:18:22.155Z</time></trkpt><trkpt lat="40.897315" lon="14.1057967"><ele>95.99999999999999</ele><time>2026-04-26T08:18:23.155Z</time></trkpt><trkpt lat="40.8973717" lon="14.1058583"><ele>96.0</ele><time>2026-04-26T08:18:24.157Z</time></trkpt><trkpt lat="40.897425" lon="14.1059217"><ele>96.0</ele><time>2026-04-26T08:18:25.156Z</time></trkpt><trkpt lat="40.897475" lon="14.1059883"><ele>96.0</ele><time>2026-04-26T08:18:26.157Z</time></trkpt><trkpt lat="40.8975317" lon="14.1060517"><ele>96.0</ele><time>2026-04-26T08:18:27.157Z</time></trkpt><trkpt lat="40.897585" lon="14.1061167"><ele>95.99999999999999</ele><time>2026-04-26T08:18:28.156Z</time></trkpt><trkpt lat="40.8976367" lon="14.1061867"><ele>96.0</ele><time>2026-04-26T08:18:29.157Z</time></trkpt><trkpt lat="40.8976883" lon="14.1062517"><ele>95.99999999999999</ele><time>2026-04-26T08:18:30.157Z</time></trkpt><trkpt lat="40.8977367" lon="14.1063167"><ele>96.0</ele><time>2026-04-26T08:18:31.156Z</time></trkpt><trkpt lat="40.8977833" lon="14.106385"><ele>96.0</ele><time>2026-04-26T08:18:32.162Z</time></trkpt><trkpt lat="40.897835" lon="14.1064533"><ele>96.0</ele><time>2026-04-26T08:18:33.156Z</time></trkpt><trkpt lat="40.8978833" lon="14.1065283"><ele>96.0</ele><time>2026-04-26T08:18:34.156Z</time></trkpt><trkpt lat="40.8979317" lon="14.1066033"><ele>95.99999999999999</ele><time>2026-04-26T08:18:35.156Z</time></trkpt><trkpt lat="40.8979783" lon="14.1066767"><ele>96.0</ele><time>2026-04-26T08:18:36.157Z</time></trkpt><trkpt lat="40.8980317" lon="14.1067533"><ele>96.14285714285714</ele><time>2026-04-26T08:18:37.156Z</time></trkpt><trkpt lat="40.89808" lon="14.106825"><ele>96.28571428571428</ele><time>2026-04-26T08:18:38.157Z</time></trkpt><trkpt lat="40.8981267" lon="14.1068983"><ele>96.42857142857142</ele><time>2026-04-26T08:18:39.156Z</time></trkpt><trkpt lat="40.89817" lon="14.1069767"><ele>96.57142857142857</ele><time>2026-04-26T08:18:40.156Z</time></trkpt><trkpt lat="40.8982117" lon="14.107055"><ele>96.71428571428572</ele><time>2026-04-26T08:18:41.158Z</time></trkpt><trkpt lat="40.8982533" lon="14.1071333"><ele>96.85714285714285</ele><time>2026-04-26T08:18:42.156Z</time></trkpt><trkpt lat="40.8983" lon="14.1072033"><ele>97.0</ele><time>2026-04-26T08:18:43.156Z</time></trkpt><trkpt lat="40.898345" lon="14.1072683"><ele>97.0</ele><time>2026-04-26T08:18:44.156Z</time></trkpt><trkpt lat="40.8983883" lon="14.1073367"><ele>97.0</ele><time>2026-04-26T08:18:45.157Z</time></trkpt><trkpt lat="40.898435" lon="14.1074017"><ele>97.0</ele><time>2026-04-26T08:18:46.157Z</time></trkpt><trkpt lat="40.8984783" lon="14.1074733"><ele>97.0</ele><time>2026-04-26T08:18:47.158Z</time></trkpt><trkpt lat="40.8985183" lon="14.10755"><ele>97.0</ele><time>2026-04-26T08:18:48.156Z</time></trkpt><trkpt lat="40.8985633" lon="14.1076267"><ele>97.0</ele><time>2026-04-26T08:18:49.157Z</time></trkpt><trkpt lat="40.8986117" lon="14.1077"><ele>97.0</ele><time>2026-04-26T08:18:50.156Z</time></trkpt><trkpt lat="40.898655" lon="14.107785"><ele>97.50000000000001</ele><time>2026-04-26T08:18:51.157Z</time></trkpt><trkpt lat="40.8987017" lon="14.1078717"><ele>98.0</ele><time>2026-04-26T08:18:52.157Z</time></trkpt><trkpt lat="40.8987483" lon="14.1079583"><ele>98.5</ele><time>2026-04-26T08:18:53.156Z</time></trkpt><trkpt lat="40.8987917" lon="14.1080467"><ele>99.0</ele><time>2026-04-26T08:18:54.156Z</time></trkpt><trkpt lat="40.8988333" lon="14.1081333"><ele>99.50000000000001</ele><time>2026-04-26T08:18:55.156Z</time></trkpt><trkpt lat="40.8988833" lon="14.1082117"><ele>100.0</ele><time>2026-04-26T08:18:56.156Z</time></trkpt><trkpt lat="40.8989367" lon="14.108285"><ele>100.00000000000001</ele><time>2026-04-26T08:18:57.157Z</time></trkpt><trkpt lat="40.89899" lon="14.10836"><ele>100.0</ele><time>2026-04-26T08:18:58.155Z</time></trkpt><trkpt lat="40.8990483" lon="14.1084267"><ele>100.0</ele><time>2026-04-26T08:18:59.156Z</time></trkpt><trkpt lat="40.89911" lon="14.1084933"><ele>100.0</ele><time>2026-04-26T08:19:00.158Z</time></trkpt><trkpt lat="40.89917" lon="14.108565"><ele>100.00000000000001</ele><time>2026-04-26T08:19:01.156Z</time></trkpt><trkpt lat="40.8992317" lon="14.108625"><ele>100.0</ele><time>2026-04-26T08:19:02.157Z</time></trkpt><trkpt lat="40.8992967" lon="14.1086833"><ele>100.33333333333334</ele><time>2026-04-26T08:19:03.156Z</time></trkpt><trkpt lat="40.8993633" lon="14.1087417"><ele>100.66666666666667</ele><time>2026-04-26T08:19:04.155Z</time></trkpt><trkpt lat="40.899435" lon="14.1088017"><ele>101.0</ele><time>2026-04-26T08:19:05.157Z</time></trkpt><trkpt lat="40.8995067" lon="14.10886"><ele>101.33333333333334</ele><time>2026-04-26T08:19:06.157Z</time></trkpt><trkpt lat="40.8995767" lon="14.108915"><ele>101.66666666666667</ele><time>2026-04-26T08:19:07.156Z</time></trkpt><trkpt lat="40.8996433" lon="14.1089717"><ele>102.0</ele><time>2026-04-26T08:19:08.156Z</time></trkpt><trkpt lat="40.8997117" lon="14.1090233"><ele>101.83333333333333</ele><time>2026-04-26T08:19:09.157Z</time></trkpt><trkpt lat="40.8997783" lon="14.1090783"><ele>101.66666666666666</ele><time>2026-04-26T08:19:10.157Z</time></trkpt><trkpt lat="40.8998383" lon="14.109135"><ele>101.5</ele><time>2026-04-26T08:19:11.155Z</time></trkpt><trkpt lat="40.8999017" lon="14.1091917"><ele>101.33333333333333</ele><time>2026-04-26T08:19:12.158Z</time></trkpt><trkpt lat="40.8999667" lon="14.109255"><ele>101.16666666666666</ele><time>2026-04-26T08:19:13.156Z</time></trkpt><trkpt lat="40.9000267" lon="14.1093233"><ele>101.0</ele><time>2026-04-26T08:19:14.157Z</time></trkpt><trkpt lat="40.9000883" lon="14.1093933"><ele>100.99999999999999</ele><time>2026-04-26T08:19:15.157Z</time></trkpt><trkpt lat="40.9001533" lon="14.1094567"><ele>101.0</ele><time>2026-04-26T08:19:16.156Z</time></trkpt><trkpt lat="40.9002183" lon="14.10952"><ele>101.0</ele><time>2026-04-26T08:19:17.156Z</time></trkpt><trkpt lat="40.900285" lon="14.10958"><ele>101.0</ele><time>2026-04-26T08:19:18.156Z</time></trkpt><trkpt lat="40.90035" lon="14.1096367"><ele>100.99999999999999</ele><time>2026-04-26T08:19:19.156Z</time></trkpt><trkpt lat="40.9004167" lon="14.1096967"><ele>101.0</ele><time>2026-04-26T08:19:20.156Z</time></trkpt><trkpt lat="40.90048" lon="14.1097567"><ele>100.99999999999999</ele><time>2026-04-26T08:19:21.155Z</time></trkpt><trkpt lat="40.90055" lon="14.1098167"><ele>101.0</ele><time>2026-04-26T08:19:22.156Z</time></trkpt><trkpt lat="40.9006217" lon="14.1098733"><ele>101.0</ele><time>2026-04-26T08:19:23.157Z</time></trkpt><trkpt lat="40.9006917" lon="14.10993"><ele>101.0</ele><time>2026-04-26T08:19:24.157Z</time></trkpt><trkpt lat="40.9007583" lon="14.1099833"><ele>100.99999999999999</ele><time>2026-04-26T08:19:25.157Z</time></trkpt><trkpt lat="40.9008267" lon="14.11005"><ele>101.0</ele><time>2026-04-26T08:19:26.156Z</time></trkpt><trkpt lat="40.9008983" lon="14.1100983"><ele>100.66666666666666</ele><time>2026-04-26T08:19:27.156Z</time></trkpt><trkpt lat="40.9009667" lon="14.1101467"><ele>100.33333333333333</ele><time>2026-04-26T08:19:28.156Z</time></trkpt><trkpt lat="40.9010367" lon="14.1101967"><ele>100.0</ele><time>2026-04-26T08:19:29.159Z</time></trkpt><trkpt lat="40.9011067" lon="14.110245"><ele>99.66666666666666</ele><time>2026-04-26T08:19:30.157Z</time></trkpt><trkpt lat="40.9011783" lon="14.1102983"><ele>99.33333333333333</ele><time>2026-04-26T08:19:31.156Z</time></trkpt><trkpt lat="40.9012517" lon="14.1103483"><ele>99.0</ele><time>2026-04-26T08:19:32.156Z</time></trkpt><trkpt lat="40.90133" lon="14.1104033"><ele>99.0</ele><time>2026-04-26T08:19:33.156Z</time></trkpt><trkpt lat="40.90141" lon="14.11046"><ele>99.0</ele><time>2026-04-26T08:19:34.156Z</time></trkpt><trkpt lat="40.9014867" lon="14.11051"><ele>99.0</ele><time>2026-04-26T08:19:35.157Z</time></trkpt><trkpt lat="40.90156" lon="14.110565"><ele>99.0</ele><time>2026-04-26T08:19:36.156Z</time></trkpt><trkpt lat="40.901635" lon="14.1106217"><ele>99.0</ele><time>2026-04-26T08:19:37.157Z</time></trkpt><trkpt lat="40.9017067" lon="14.1106817"><ele>99.0</ele><time>2026-04-26T08:19:38.157Z</time></trkpt><trkpt lat="40.9017783" lon="14.1107417"><ele>99.0</ele><time>2026-04-26T08:19:39.157Z</time></trkpt><trkpt lat="40.9018517" lon="14.110805"><ele>99.0</ele><time>2026-04-26T08:19:40.156Z</time></trkpt><trkpt lat="40.9019217" lon="14.1108717"><ele>99.0</ele><time>2026-04-26T08:19:41.157Z</time></trkpt><trkpt lat="40.9019917" lon="14.1109317"><ele>99.0</ele><time>2026-04-26T08:19:42.157Z</time></trkpt><trkpt lat="40.90206" lon="14.11099"><ele>99.0</ele><time>2026-04-26T08:19:43.156Z</time></trkpt><trkpt lat="40.90213" lon="14.111055"><ele>99.0</ele><time>2026-04-26T08:19:44.156Z</time></trkpt><trkpt lat="40.9022" lon="14.1111283"><ele>99.0</ele><time>2026-04-26T08:19:45.161Z</time></trkpt><trkpt lat="40.9022683" lon="14.1112067"><ele>99.0</ele><time>2026-04-26T08:19:46.156Z</time></trkpt><trkpt lat="40.902335" lon="14.11129"><ele>99.0</ele><time>2026-04-26T08:19:47.156Z</time></trkpt><trkpt lat="40.902395" lon="14.1113767"><ele>99.0</ele><time>2026-04-26T08:19:48.157Z</time></trkpt><trkpt lat="40.902455" lon="14.1114717"><ele>99.0</ele><time>2026-04-26T08:19:49.157Z</time></trkpt><trkpt lat="40.9025083" lon="14.111565"><ele>99.0</ele><time>2026-04-26T08:19:50.156Z</time></trkpt><trkpt lat="40.9025633" lon="14.111655"><ele>99.0</ele><time>2026-04-26T08:19:51.156Z</time></trkpt><trkpt lat="40.902615" lon="14.1117467"><ele>99.0</ele><time>2026-04-26T08:19:52.157Z</time></trkpt><trkpt lat="40.9026617" lon="14.111845"><ele>99.0</ele><time>2026-04-26T08:19:53.157Z</time></trkpt><trkpt lat="40.9027017" lon="14.11195"><ele>99.0</ele><time>2026-04-26T08:19:54.156Z</time></trkpt><trkpt lat="40.9027333" lon="14.11206"><ele>99.0</ele><time>2026-04-26T08:19:55.156Z</time></trkpt><trkpt lat="40.90276" lon="14.1121717"><ele>99.16666666666667</ele><time>2026-04-26T08:19:56.162Z</time></trkpt><trkpt lat="40.9027867" lon="14.1122783"><ele>99.33333333333334</ele><time>2026-04-26T08:19:57.157Z</time></trkpt><trkpt lat="40.9028083" lon="14.1123867"><ele>99.5</ele><time>2026-04-26T08:19:58.156Z</time></trkpt><trkpt lat="40.9028267" lon="14.1124967"><ele>99.66666666666667</ele><time>2026-04-26T08:19:59.156Z</time></trkpt><trkpt lat="40.902845" lon="14.1126017"><ele>99.83333333333334</ele><time>2026-04-26T08:20:00.155Z</time></trkpt><trkpt lat="40.90286" lon="14.1127083"><ele>100.0</ele><time>2026-04-26T08:20:01.157Z</time></trkpt><trkpt lat="40.9028733" lon="14.1128167"><ele>100.33333333333334</ele><time>2026-04-26T08:20:02.158Z</time></trkpt><trkpt lat="40.9028883" lon="14.1129233"><ele>100.66666666666667</ele><time>2026-04-26T08:20:03.156Z</time></trkpt><trkpt lat="40.9029067" lon="14.1130283"><ele>101.0</ele><time>2026-04-26T08:20:04.156Z</time></trkpt><trkpt lat="40.9029233" lon="14.1131317"><ele>101.33333333333334</ele><time>2026-04-26T08:20:05.155Z</time></trkpt><trkpt lat="40.9029417" lon="14.1132367"><ele>101.66666666666667</ele><time>2026-04-26T08:20:06.156Z</time></trkpt><trkpt lat="40.9029617" lon="14.1133417"><ele>102.0</ele><time>2026-04-26T08:20:07.157Z</time></trkpt><trkpt lat="40.9029783" lon="14.1134467"><ele>102.0</ele><time>2026-04-26T08:20:08.156Z</time></trkpt><trkpt lat="40.9029967" lon="14.11355"><ele>102.0</ele><time>2026-04-26T08:20:09.156Z</time></trkpt><trkpt lat="40.9030133" lon="14.1136517"><ele>102.0</ele><time>2026-04-26T08:20:10.157Z</time></trkpt><trkpt lat="40.9030367" lon="14.1137517"><ele>102.0</ele><time>2026-04-26T08:20:11.156Z</time></trkpt><trkpt lat="40.90306" lon="14.1138533"><ele>102.0</ele><time>2026-04-26T08:20:12.156Z</time></trkpt><trkpt lat="40.90308" lon="14.1139483"><ele>102.0</ele><time>2026-04-26T08:20:13.158Z</time></trkpt><trkpt lat="40.9031017" lon="14.1140433"><ele>101.85714285714286</ele><time>2026-04-26T08:20:14.156Z</time></trkpt><trkpt lat="40.903115" lon="14.114135"><ele>101.71428571428572</ele><time>2026-04-26T08:20:15.157Z</time></trkpt><trkpt lat="40.90313" lon="14.11423"><ele>101.57142857142857</ele><time>2026-04-26T08:20:16.158Z</time></trkpt><trkpt lat="40.9031467" lon="14.1143233"><ele>101.42857142857143</ele><time>2026-04-26T08:20:17.157Z</time></trkpt><trkpt lat="40.903165" lon="14.1144167"><ele>101.28571428571428</ele><time>2026-04-26T08:20:18.157Z</time></trkpt><trkpt lat="40.9031817" lon="14.1145083"><ele>101.14285714285714</ele><time>2026-04-26T08:20:19.157Z</time></trkpt><trkpt lat="40.9031967" lon="14.1145983"><ele>101.0</ele><time>2026-04-26T08:20:20.157Z</time></trkpt><trkpt lat="40.90321" lon="14.1146933"><ele>101.0</ele><time>2026-04-26T08:20:21.157Z</time></trkpt><trkpt lat="40.9032183" lon="14.1147817"><ele>101.0</ele><time>2026-04-26T08:20:22.156Z</time></trkpt><trkpt lat="40.90323" lon="14.1148717"><ele>101.0</ele><time>2026-04-26T08:20:23.158Z</time></trkpt><trkpt lat="40.9032483" lon="14.1149583"><ele>101.0</ele><time>2026-04-26T08:20:24.158Z</time></trkpt><trkpt lat="40.9032667" lon="14.11505"><ele>101.0</ele><time>2026-04-26T08:20:25.156Z</time></trkpt><trkpt lat="40.903285" lon="14.1151383"><ele>101.0</ele><time>2026-04-26T08:20:26.156Z</time></trkpt><trkpt lat="40.9033017" lon="14.1152333"><ele>101.0</ele><time>2026-04-26T08:20:27.156Z</time></trkpt><trkpt lat="40.90332" lon="14.1153233"><ele>101.0</ele><time>2026-04-26T08:20:28.156Z</time></trkpt><trkpt lat="40.903335" lon="14.115415"><ele>101.0</ele><time>2026-04-26T08:20:29.157Z</time></trkpt><trkpt lat="40.90335" lon="14.1155067"><ele>101.0</ele><time>2026-04-26T08:20:30.156Z</time></trkpt><trkpt lat="40.9033667" lon="14.1156017"><ele>101.0</ele><time>2026-04-26T08:20:31.157Z</time></trkpt><trkpt lat="40.903385" lon="14.1156967"><ele>101.0</ele><time>2026-04-26T08:20:32.157Z</time></trkpt><trkpt lat="40.9034033" lon="14.11579"><ele>101.0</ele><time>2026-04-26T08:20:33.156Z</time></trkpt><trkpt lat="40.90342" lon="14.115885"><ele>101.0</ele><time>2026-04-26T08:20:34.157Z</time></trkpt><trkpt lat="40.9034333" lon="14.1159817"><ele>101.49999999999999</ele><time>2026-04-26T08:20:35.157Z</time></trkpt><trkpt lat="40.9034467" lon="14.11608"><ele>102.0</ele><time>2026-04-26T08:20:36.156Z</time></trkpt><trkpt lat="40.90346" lon="14.11618"><ele>102.5</ele><time>2026-04-26T08:20:37.155Z</time></trkpt><trkpt lat="40.9034767" lon="14.1162783"><ele>103.0</ele><time>2026-04-26T08:20:38.156Z</time></trkpt><trkpt lat="40.9034983" lon="14.116375"><ele>103.49999999999999</ele><time>2026-04-26T08:20:39.157Z</time></trkpt><trkpt lat="40.9035217" lon="14.1164717"><ele>104.0</ele><time>2026-04-26T08:20:40.156Z</time></trkpt><trkpt lat="40.9035433" lon="14.116565"><ele>104.0</ele><time>2026-04-26T08:20:41.156Z</time></trkpt><trkpt lat="40.903565" lon="14.1166617"><ele>104.0</ele><time>2026-04-26T08:20:42.158Z</time></trkpt><trkpt lat="40.903585" lon="14.1167583"><ele>104.0</ele><time>2026-04-26T08:20:43.156Z</time></trkpt><trkpt lat="40.9035983" lon="14.116855"><ele>104.0</ele><time>2026-04-26T08:20:44.157Z</time></trkpt><trkpt lat="40.9036083" lon="14.1169517"><ele>104.0</ele><time>2026-04-26T08:20:45.156Z</time></trkpt><trkpt lat="40.9036133" lon="14.1170467"><ele>104.0</ele><time>2026-04-26T08:20:46.156Z</time></trkpt><trkpt lat="40.9036183" lon="14.117145"><ele>104.0</ele><time>2026-04-26T08:20:47.157Z</time></trkpt><trkpt lat="40.9036183" lon="14.117245"><ele>103.99999999999999</ele><time>2026-04-26T08:20:48.157Z</time></trkpt><trkpt lat="40.9036267" lon="14.1173417"><ele>104.0</ele><time>2026-04-26T08:20:49.156Z</time></trkpt><trkpt lat="40.9036333" lon="14.1174383"><ele>104.0</ele><time>2026-04-26T08:20:50.157Z</time></trkpt><trkpt lat="40.9036417" lon="14.1175383"><ele>104.0</ele><time>2026-04-26T08:20:51.157Z</time></trkpt><trkpt lat="40.9036467" lon="14.1176383"><ele>103.99999999999999</ele><time>2026-04-26T08:20:52.156Z</time></trkpt><trkpt lat="40.9036483" lon="14.11774"><ele>104.0</ele><time>2026-04-26T08:20:53.156Z</time></trkpt><trkpt lat="40.9036433" lon="14.1178383"><ele>104.14285714285714</ele><time>2026-04-26T08:20:54.156Z</time></trkpt><trkpt lat="40.9036467" lon="14.11793"><ele>104.28571428571429</ele><time>2026-04-26T08:20:55.156Z</time></trkpt><trkpt lat="40.9036517" lon="14.1180217"><ele>104.42857142857143</ele><time>2026-04-26T08:20:56.156Z</time></trkpt><trkpt lat="40.9036517" lon="14.1181117"><ele>104.57142857142857</ele><time>2026-04-26T08:20:57.156Z</time></trkpt><trkpt lat="40.9036567" lon="14.118195"><ele>104.71428571428572</ele><time>2026-04-26T08:20:58.156Z</time></trkpt><trkpt lat="40.9036617" lon="14.1182817"><ele>104.85714285714286</ele><time>2026-04-26T08:20:59.161Z</time></trkpt><trkpt lat="40.9036633" lon="14.1183717"><ele>105.0</ele><time>2026-04-26T08:21:00.157Z</time></trkpt><trkpt lat="40.9036667" lon="14.1184633"><ele>105.16666666666667</ele><time>2026-04-26T08:21:01.156Z</time></trkpt><trkpt lat="40.9036717" lon="14.1185567"><ele>105.33333333333334</ele><time>2026-04-26T08:21:02.159Z</time></trkpt><trkpt lat="40.903685" lon="14.1186433"><ele>105.5</ele><time>2026-04-26T08:21:03.159Z</time></trkpt><trkpt lat="40.9037" lon="14.1187283"><ele>105.66666666666667</ele><time>2026-04-26T08:21:04.161Z</time></trkpt><trkpt lat="40.903715" lon="14.11881"><ele>105.83333333333334</ele><time>2026-04-26T08:21:05.157Z</time></trkpt><trkpt lat="40.90375" lon="14.1189683"><ele>106.0</ele><time>2026-04-26T08:21:07.157Z</time></trkpt><trkpt lat="40.9037717" lon="14.1190483"><ele>106.28571428571429</ele><time>2026-04-26T08:21:08.158Z</time></trkpt><trkpt lat="40.903795" lon="14.11913"><ele>106.57142857142857</ele><time>2026-04-26T08:21:09.158Z</time></trkpt><trkpt lat="40.9038233" lon="14.1192117"><ele>106.85714285714286</ele><time>2026-04-26T08:21:10.157Z</time></trkpt><trkpt lat="40.9038517" lon="14.1192933"><ele>107.14285714285714</ele><time>2026-04-26T08:21:11.159Z</time></trkpt><trkpt lat="40.9038833" lon="14.1193733"><ele>107.42857142857142</ele><time>2026-04-26T08:21:12.157Z</time></trkpt><trkpt lat="40.9039167" lon="14.1194533"><ele>107.71428571428571</ele><time>2026-04-26T08:21:13.157Z</time></trkpt><trkpt lat="40.9039517" lon="14.11953"><ele>108.0</ele><time>2026-04-26T08:21:14.158Z</time></trkpt><trkpt lat="40.903985" lon="14.1196067"><ele>108.0</ele><time>2026-04-26T08:21:15.16Z</time></trkpt><trkpt lat="40.9040167" lon="14.1196833"><ele>108.0</ele><time>2026-04-26T08:21:16.158Z</time></trkpt><trkpt lat="40.9040483" lon="14.1197567"><ele>108.0</ele><time>2026-04-26T08:21:17.159Z</time></trkpt><trkpt lat="40.9040833" lon="14.1198267"><ele>108.0</ele><time>2026-04-26T08:21:18.158Z</time></trkpt><trkpt lat="40.9041167" lon="14.1199"><ele>108.0</ele><time>2026-04-26T08:21:19.159Z</time></trkpt><trkpt lat="40.9041817" lon="14.1200267"><ele>108.0</ele><time>2026-04-26T08:21:21.156Z</time></trkpt><trkpt lat="40.9042483" lon="14.1201483"><ele>107.80000000000001</ele><time>2026-04-26T08:21:23.158Z</time></trkpt><trkpt lat="40.9043167" lon="14.1202667"><ele>107.60000000000001</ele><time>2026-04-26T08:21:25.158Z</time></trkpt><trkpt lat="40.9043683" lon="14.1203867"><ele>107.39999999999999</ele><time>2026-04-26T08:21:27.157Z</time></trkpt><trkpt lat="40.9043767" lon="14.120525"><ele>107.19999999999999</ele><time>2026-04-26T08:21:29.158Z</time></trkpt><trkpt lat="40.9043467" lon="14.1206617"><ele>107.0</ele><time>2026-04-26T08:21:31.157Z</time></trkpt><trkpt lat="40.9042867" lon="14.1207817"><ele>107.0</ele><time>2026-04-26T08:21:33.156Z</time></trkpt><trkpt lat="40.9042433" lon="14.1208983"><ele>106.99999999999999</ele><time>2026-04-26T08:21:35.16Z</time></trkpt><trkpt lat="40.90423" lon="14.1210317"><ele>106.99999999999999</ele><time>2026-04-26T08:21:37.159Z</time></trkpt><trkpt lat="40.90426" lon="14.1211417"><ele>107.0</ele><time>2026-04-26T08:21:39.156Z</time></trkpt><trkpt lat="40.904355" lon="14.1212383"><ele>107.0</ele><time>2026-04-26T08:21:41.156Z</time></trkpt><trkpt lat="40.90441" lon="14.121285"><ele>107.00000000000001</ele><time>2026-04-26T08:21:42.156Z</time></trkpt><trkpt lat="40.9044683" lon="14.1213283"><ele>107.0</ele><time>2026-04-26T08:21:43.158Z</time></trkpt><trkpt lat="40.904525" lon="14.1213817"><ele>107.0</ele><time>2026-04-26T08:21:44.156Z</time></trkpt><trkpt lat="40.9045817" lon="14.1214417"><ele>107.0</ele><time>2026-04-26T08:21:45.156Z</time></trkpt><trkpt lat="40.9046317" lon="14.1215067"><ele>107.0</ele><time>2026-04-26T08:21:46.156Z</time></trkpt><trkpt lat="40.904675" lon="14.12158"><ele>107.00000000000001</ele><time>2026-04-26T08:21:47.157Z</time></trkpt><trkpt lat="40.9047133" lon="14.121655"><ele>107.0</ele><time>2026-04-26T08:21:48.156Z</time></trkpt><trkpt lat="40.9047483" lon="14.12174"><ele>106.85714285714286</ele><time>2026-04-26T08:21:49.156Z</time></trkpt><trkpt lat="40.9047783" lon="14.1218233"><ele>106.71428571428572</ele><time>2026-04-26T08:21:50.16Z</time></trkpt><trkpt lat="40.9048033" lon="14.1219017"><ele>106.57142857142858</ele><time>2026-04-26T08:21:51.157Z</time></trkpt><trkpt lat="40.90483" lon="14.1219833"><ele>106.42857142857143</ele><time>2026-04-26T08:21:52.162Z</time></trkpt><trkpt lat="40.90486" lon="14.1220633"><ele>106.28571428571428</ele><time>2026-04-26T08:21:53.156Z</time></trkpt><trkpt lat="40.9048967" lon="14.1221383"><ele>106.14285714285715</ele><time>2026-04-26T08:21:54.157Z</time></trkpt><trkpt lat="40.9049333" lon="14.1222067"><ele>106.0</ele><time>2026-04-26T08:21:55.157Z</time></trkpt><trkpt lat="40.9049833" lon="14.1223533"><ele>106.33333333333334</ele><time>2026-04-26T08:21:57.157Z</time></trkpt><trkpt lat="40.905005" lon="14.1224333"><ele>106.66666666666667</ele><time>2026-04-26T08:21:58.156Z</time></trkpt><trkpt lat="40.90505" lon="14.1225817"><ele>107.0</ele><time>2026-04-26T08:22:00.158Z</time></trkpt><trkpt lat="40.9051033" lon="14.1227317"><ele>107.33333333333334</ele><time>2026-04-26T08:22:02.157Z</time></trkpt><trkpt lat="40.9051283" lon="14.1228117"><ele>107.66666666666667</ele><time>2026-04-26T08:22:03.156Z</time></trkpt><trkpt lat="40.9051583" lon="14.1228967"><ele>108.0</ele><time>2026-04-26T08:22:04.156Z</time></trkpt><trkpt lat="40.9051867" lon="14.12298"><ele>107.33333333333333</ele><time>2026-04-26T08:22:05.156Z</time></trkpt><trkpt lat="40.9052117" lon="14.12306"><ele>106.66666666666666</ele><time>2026-04-26T08:22:06.157Z</time></trkpt><trkpt lat="40.90523" lon="14.12314"><ele>106.0</ele><time>2026-04-26T08:22:07.157Z</time></trkpt><trkpt lat="40.9052567" lon="14.1232217"><ele>105.33333333333333</ele><time>2026-04-26T08:22:08.157Z</time></trkpt><trkpt lat="40.90531" lon="14.123375"><ele>104.66666666666666</ele><time>2026-04-26T08:22:10.157Z</time></trkpt><trkpt lat="40.9053433" lon="14.1234567"><ele>104.0</ele><time>2026-04-26T08:22:11.156Z</time></trkpt><trkpt lat="40.9053783" lon="14.12354"><ele>103.85714285714285</ele><time>2026-04-26T08:22:12.162Z</time></trkpt><trkpt lat="40.9054083" lon="14.123625"><ele>103.71428571428572</ele><time>2026-04-26T08:22:13.156Z</time></trkpt><trkpt lat="40.905435" lon="14.12371"><ele>103.57142857142857</ele><time>2026-04-26T08:22:14.157Z</time></trkpt><trkpt lat="40.90546" lon="14.123795"><ele>103.42857142857142</ele><time>2026-04-26T08:22:15.156Z</time></trkpt><trkpt lat="40.9054883" lon="14.1238783"><ele>103.28571428571428</ele><time>2026-04-26T08:22:16.158Z</time></trkpt><trkpt lat="40.90552" lon="14.1239683"><ele>103.14285714285714</ele><time>2026-04-26T08:22:17.157Z</time></trkpt><trkpt lat="40.9055533" lon="14.1240617"><ele>103.0</ele><time>2026-04-26T08:22:18.158Z</time></trkpt><trkpt lat="40.90559" lon="14.12415"><ele>103.83333333333334</ele><time>2026-04-26T08:22:19.157Z</time></trkpt><trkpt lat="40.9056217" lon="14.1242317"><ele>104.66666666666667</ele><time>2026-04-26T08:22:20.156Z</time></trkpt><trkpt lat="40.9056517" lon="14.12431"><ele>105.5</ele><time>2026-04-26T08:22:21.16Z</time></trkpt><trkpt lat="40.9057083" lon="14.1244717"><ele>106.33333333333334</ele><time>2026-04-26T08:22:23.156Z</time></trkpt><trkpt lat="40.9057367" lon="14.1245567"><ele>107.16666666666667</ele><time>2026-04-26T08:22:24.157Z</time></trkpt><trkpt lat="40.905765" lon="14.1246383"><ele>108.0</ele><time>2026-04-26T08:22:25.157Z</time></trkpt><trkpt lat="40.9058" lon="14.1247817"><ele>107.83333333333333</ele><time>2026-04-26T08:22:27.156Z</time></trkpt><trkpt lat="40.9058467" lon="14.1249183"><ele>107.66666666666666</ele><time>2026-04-26T08:22:29.158Z</time></trkpt><trkpt lat="40.90587" lon="14.1249983"><ele>107.5</ele><time>2026-04-26T08:22:30.156Z</time></trkpt><trkpt lat="40.905915" lon="14.1251433"><ele>107.33333333333333</ele><time>2026-04-26T08:22:32.157Z</time></trkpt><trkpt lat="40.9059383" lon="14.125225"><ele>107.16666666666666</ele><time>2026-04-26T08:22:33.156Z</time></trkpt><trkpt lat="40.9059667" lon="14.1253"><ele>107.0</ele><time>2026-04-26T08:22:34.157Z</time></trkpt><trkpt lat="40.9059933" lon="14.125385"><ele>106.71428571428572</ele><time>2026-04-26T08:22:35.156Z</time></trkpt><trkpt lat="40.9060217" lon="14.1254667"><ele>106.42857142857143</ele><time>2026-04-26T08:22:36.157Z</time></trkpt><trkpt lat="40.9060583" lon="14.1255483"><ele>106.14285714285714</ele><time>2026-04-26T08:22:37.156Z</time></trkpt><trkpt lat="40.9060883" lon="14.125635"><ele>105.85714285714286</ele><time>2026-04-26T08:22:38.157Z</time></trkpt><trkpt lat="40.9061217" lon="14.12572"><ele>105.57142857142857</ele><time>2026-04-26T08:22:39.156Z</time></trkpt><trkpt lat="40.9061533" lon="14.1258017"><ele>105.28571428571429</ele><time>2026-04-26T08:22:40.157Z</time></trkpt><trkpt lat="40.9061867" lon="14.1258883"><ele>105.0</ele><time>2026-04-26T08:22:41.156Z</time></trkpt><trkpt lat="40.9062183" lon="14.1259783"><ele>105.0</ele><time>2026-04-26T08:22:42.156Z</time></trkpt><trkpt lat="40.9062483" lon="14.1260667"><ele>105.0</ele><time>2026-04-26T08:22:43.156Z</time></trkpt><trkpt lat="40.906275" lon="14.12616"><ele>105.0</ele><time>2026-04-26T08:22:44.156Z</time></trkpt><trkpt lat="40.906305" lon="14.12625"><ele>105.0</ele><time>2026-04-26T08:22:45.157Z</time></trkpt><trkpt lat="40.9063383" lon="14.1263383"><ele>105.0</ele><time>2026-04-26T08:22:46.157Z</time></trkpt><trkpt lat="40.9063717" lon="14.1264283"><ele>105.0</ele><time>2026-04-26T08:22:47.156Z</time></trkpt><trkpt lat="40.9064033" lon="14.1265167"><ele>105.0</ele><time>2026-04-26T08:22:48.158Z</time></trkpt><trkpt lat="40.9064383" lon="14.1266067"><ele>105.33333333333333</ele><time>2026-04-26T08:22:49.157Z</time></trkpt><trkpt lat="40.9064733" lon="14.1266983"><ele>105.66666666666666</ele><time>2026-04-26T08:22:50.158Z</time></trkpt><trkpt lat="40.90651" lon="14.1267867"><ele>106.0</ele><time>2026-04-26T08:22:51.157Z</time></trkpt><trkpt lat="40.906545" lon="14.1268767"><ele>106.33333333333333</ele><time>2026-04-26T08:22:52.156Z</time></trkpt><trkpt lat="40.9065783" lon="14.126965"><ele>106.66666666666666</ele><time>2026-04-26T08:22:53.157Z</time></trkpt><trkpt lat="40.9066083" lon="14.1270533"><ele>107.0</ele><time>2026-04-26T08:22:54.159Z</time></trkpt><trkpt lat="40.9066433" lon="14.1271467"><ele>106.99999999999999</ele><time>2026-04-26T08:22:55.157Z</time></trkpt><trkpt lat="40.906675" lon="14.1272383"><ele>107.0</ele><time>2026-04-26T08:22:56.156Z</time></trkpt><trkpt lat="40.9067083" lon="14.1273267"><ele>107.0</ele><time>2026-04-26T08:22:57.157Z</time></trkpt><trkpt lat="40.90674" lon="14.1274183"><ele>107.0</ele><time>2026-04-26T08:22:58.158Z</time></trkpt><trkpt lat="40.9067717" lon="14.127505"><ele>106.99999999999999</ele><time>2026-04-26T08:22:59.156Z</time></trkpt><trkpt lat="40.906805" lon="14.127595"><ele>107.0</ele><time>2026-04-26T08:23:00.16Z</time></trkpt><trkpt lat="40.9068383" lon="14.1276867"><ele>106.85714285714286</ele><time>2026-04-26T08:23:01.156Z</time></trkpt><trkpt lat="40.9068667" lon="14.1277767"><ele>106.71428571428572</ele><time>2026-04-26T08:23:02.157Z</time></trkpt><trkpt lat="40.9068983" lon="14.1278667"><ele>106.57142857142858</ele><time>2026-04-26T08:23:03.156Z</time></trkpt><trkpt lat="40.9069333" lon="14.1279483"><ele>106.42857142857143</ele><time>2026-04-26T08:23:04.157Z</time></trkpt><trkpt lat="40.9069833" lon="14.128015"><ele>106.28571428571428</ele><time>2026-04-26T08:23:05.157Z</time></trkpt><trkpt lat="40.907015" lon="14.12811"><ele>106.14285714285715</ele><time>2026-04-26T08:23:06.157Z</time></trkpt><trkpt lat="40.90705" lon="14.1282033"><ele>106.0</ele><time>2026-04-26T08:23:07.156Z</time></trkpt><trkpt lat="40.9070833" lon="14.1282983"><ele>106.00000000000001</ele><time>2026-04-26T08:23:08.157Z</time></trkpt><trkpt lat="40.9071167" lon="14.1283933"><ele>106.0</ele><time>2026-04-26T08:23:09.157Z</time></trkpt><trkpt lat="40.907145" lon="14.128485"><ele>106.0</ele><time>2026-04-26T08:23:10.157Z</time></trkpt><trkpt lat="40.907175" lon="14.1285817"><ele>106.0</ele><time>2026-04-26T08:23:11.157Z</time></trkpt><trkpt lat="40.9072033" lon="14.1286767"><ele>106.00000000000001</ele><time>2026-04-26T08:23:12.157Z</time></trkpt><trkpt lat="40.9072283" lon="14.1287683"><ele>106.0</ele><time>2026-04-26T08:23:13.156Z</time></trkpt><trkpt lat="40.9072567" lon="14.1288633"><ele>106.00000000000001</ele><time>2026-04-26T08:23:14.156Z</time></trkpt><trkpt lat="40.90728" lon="14.128955"><ele>106.0</ele><time>2026-04-26T08:23:15.156Z</time></trkpt><trkpt lat="40.9073083" lon="14.12905"><ele>106.0</ele><time>2026-04-26T08:23:16.156Z</time></trkpt><trkpt lat="40.9073383" lon="14.1291417"><ele>106.0</ele><time>2026-04-26T08:23:17.158Z</time></trkpt><trkpt lat="40.9073717" lon="14.129235"><ele>106.00000000000001</ele><time>2026-04-26T08:23:18.157Z</time></trkpt><trkpt lat="40.907405" lon="14.1293267"><ele>106.0</ele><time>2026-04-26T08:23:19.156Z</time></trkpt><trkpt lat="40.90744" lon="14.1294183"><ele>105.83333333333334</ele><time>2026-04-26T08:23:20.156Z</time></trkpt><trkpt lat="40.907475" lon="14.1295167"><ele>105.66666666666667</ele><time>2026-04-26T08:23:21.157Z</time></trkpt><trkpt lat="40.90751" lon="14.1296183"><ele>105.5</ele><time>2026-04-26T08:23:22.157Z</time></trkpt><trkpt lat="40.9075417" lon="14.129715"><ele>105.33333333333334</ele><time>2026-04-26T08:23:23.156Z</time></trkpt><trkpt lat="40.9075717" lon="14.1298133"><ele>105.16666666666667</ele><time>2026-04-26T08:23:24.159Z</time></trkpt><trkpt lat="40.9076067" lon="14.12991"><ele>105.0</ele><time>2026-04-26T08:23:25.156Z</time></trkpt><trkpt lat="40.9076383" lon="14.1300083"><ele>104.83333333333333</ele><time>2026-04-26T08:23:26.157Z</time></trkpt><trkpt lat="40.9076717" lon="14.1301017"><ele>104.66666666666666</ele><time>2026-04-26T08:23:27.157Z</time></trkpt><trkpt lat="40.9077033" lon="14.1301967"><ele>104.5</ele><time>2026-04-26T08:23:28.156Z</time></trkpt><trkpt lat="40.907735" lon="14.1302933"><ele>104.33333333333333</ele><time>2026-04-26T08:23:29.157Z</time></trkpt><trkpt lat="40.9077633" lon="14.1303867"><ele>104.16666666666666</ele><time>2026-04-26T08:23:30.157Z</time></trkpt><trkpt lat="40.9077917" lon="14.13048"><ele>104.0</ele><time>2026-04-26T08:23:31.157Z</time></trkpt><trkpt lat="40.9078283" lon="14.1305683"><ele>103.99999999999999</ele><time>2026-04-26T08:23:32.156Z</time></trkpt><trkpt lat="40.9078617" lon="14.130655"><ele>104.0</ele><time>2026-04-26T08:23:33.156Z</time></trkpt><trkpt lat="40.9078983" lon="14.1307433"><ele>104.0</ele><time>2026-04-26T08:23:34.157Z</time></trkpt><trkpt lat="40.9079267" lon="14.1308317"><ele>104.0</ele><time>2026-04-26T08:23:35.158Z</time></trkpt><trkpt lat="40.90796" lon="14.130925"><ele>103.99999999999999</ele><time>2026-04-26T08:23:36.156Z</time></trkpt><trkpt lat="40.90799" lon="14.1310217"><ele>104.0</ele><time>2026-04-26T08:23:37.157Z</time></trkpt><trkpt lat="40.9080217" lon="14.1311167"><ele>103.99999999999999</ele><time>2026-04-26T08:23:38.159Z</time></trkpt><trkpt lat="40.9080583" lon="14.1312167"><ele>104.0</ele><time>2026-04-26T08:23:39.156Z</time></trkpt><trkpt lat="40.90809" lon="14.1313183"><ele>104.0</ele><time>2026-04-26T08:23:40.156Z</time></trkpt><trkpt lat="40.9081267" lon="14.1314167"><ele>104.0</ele><time>2026-04-26T08:23:41.157Z</time></trkpt><trkpt lat="40.9081617" lon="14.1315167"><ele>103.99999999999999</ele><time>2026-04-26T08:23:42.157Z</time></trkpt><trkpt lat="40.9082033" lon="14.131615"><ele>104.0</ele><time>2026-04-26T08:23:43.156Z</time></trkpt><trkpt lat="40.9082417" lon="14.1317067"><ele>103.83333333333333</ele><time>2026-04-26T08:23:44.16Z</time></trkpt><trkpt lat="40.9082767" lon="14.131795"><ele>103.66666666666666</ele><time>2026-04-26T08:23:45.156Z</time></trkpt><trkpt lat="40.9083183" lon="14.1318867"><ele>103.5</ele><time>2026-04-26T08:23:46.157Z</time></trkpt><trkpt lat="40.90836" lon="14.13198"><ele>103.33333333333334</ele><time>2026-04-26T08:23:47.158Z</time></trkpt><trkpt lat="40.908395" lon="14.1320717"><ele>103.16666666666667</ele><time>2026-04-26T08:23:48.157Z</time></trkpt><trkpt lat="40.9084267" lon="14.1321667"><ele>103.0</ele><time>2026-04-26T08:23:49.156Z</time></trkpt><trkpt lat="40.9084633" lon="14.1322617"><ele>103.00000000000001</ele><time>2026-04-26T08:23:50.156Z</time></trkpt><trkpt lat="40.9085" lon="14.1323567"><ele>103.0</ele><time>2026-04-26T08:23:51.157Z</time></trkpt><trkpt lat="40.9085333" lon="14.132455"><ele>103.0</ele><time>2026-04-26T08:23:52.156Z</time></trkpt><trkpt lat="40.90857" lon="14.1325517"><ele>103.0</ele><time>2026-04-26T08:23:53.156Z</time></trkpt><trkpt lat="40.9086033" lon="14.132655"><ele>103.00000000000001</ele><time>2026-04-26T08:23:54.157Z</time></trkpt><trkpt lat="40.9086367" lon="14.1327567"><ele>103.0</ele><time>2026-04-26T08:23:55.156Z</time></trkpt><trkpt lat="40.9086717" lon="14.132855"><ele>103.00000000000001</ele><time>2026-04-26T08:23:56.157Z</time></trkpt><trkpt lat="40.908705" lon="14.1329533"><ele>103.0</ele><time>2026-04-26T08:23:57.157Z</time></trkpt><trkpt lat="40.9087383" lon="14.133055"><ele>103.0</ele><time>2026-04-26T08:23:58.157Z</time></trkpt><trkpt lat="40.90878" lon="14.1331517"><ele>103.0</ele><time>2026-04-26T08:23:59.158Z</time></trkpt><trkpt lat="40.90882" lon="14.1332583"><ele>103.00000000000001</ele><time>2026-04-26T08:24:00.156Z</time></trkpt><trkpt lat="40.90886" lon="14.13336"><ele>103.0</ele><time>2026-04-26T08:24:01.157Z</time></trkpt><trkpt lat="40.9088933" lon="14.1334667"><ele>103.0</ele><time>2026-04-26T08:24:02.157Z</time></trkpt><trkpt lat="40.9089217" lon="14.1335733"><ele>103.0</ele><time>2026-04-26T08:24:03.156Z</time></trkpt><trkpt lat="40.9089567" lon="14.133695"><ele>103.0</ele><time>2026-04-26T08:24:04.156Z</time></trkpt><trkpt lat="40.909" lon="14.133805"><ele>103.0</ele><time>2026-04-26T08:24:05.163Z</time></trkpt><trkpt lat="40.90905" lon="14.1339167"><ele>103.0</ele><time>2026-04-26T08:24:06.157Z</time></trkpt><trkpt lat="40.9090917" lon="14.1340283"><ele>103.2</ele><time>2026-04-26T08:24:07.157Z</time></trkpt><trkpt lat="40.9091333" lon="14.13414"><ele>103.4</ele><time>2026-04-26T08:24:08.157Z</time></trkpt><trkpt lat="40.90917" lon="14.1342467"><ele>103.60000000000001</ele><time>2026-04-26T08:24:09.157Z</time></trkpt><trkpt lat="40.9092117" lon="14.1343533"><ele>103.80000000000001</ele><time>2026-04-26T08:24:10.159Z</time></trkpt><trkpt lat="40.9092517" lon="14.1344583"><ele>104.0</ele><time>2026-04-26T08:24:11.159Z</time></trkpt><trkpt lat="40.90929" lon="14.1345633"><ele>103.2</ele><time>2026-04-26T08:24:12.158Z</time></trkpt><trkpt lat="40.9093267" lon="14.1346733"><ele>102.4</ele><time>2026-04-26T08:24:13.159Z</time></trkpt><trkpt lat="40.909365" lon="14.1347833"><ele>101.6</ele><time>2026-04-26T08:24:14.158Z</time></trkpt><trkpt lat="40.9094" lon="14.134895"><ele>100.8</ele><time>2026-04-26T08:24:15.157Z</time></trkpt><trkpt lat="40.9094383" lon="14.1350033"><ele>100.0</ele><time>2026-04-26T08:24:16.158Z</time></trkpt><trkpt lat="40.9094767" lon="14.1351083"><ele>100.00000000000001</ele><time>2026-04-26T08:24:17.157Z</time></trkpt><trkpt lat="40.9095167" lon="14.1352117"><ele>100.0</ele><time>2026-04-26T08:24:18.156Z</time></trkpt><trkpt lat="40.9095583" lon="14.1353133"><ele>100.0</ele><time>2026-04-26T08:24:19.157Z</time></trkpt><trkpt lat="40.9095983" lon="14.1354167"><ele>100.0</ele><time>2026-04-26T08:24:20.159Z</time></trkpt><trkpt lat="40.90964" lon="14.13552"><ele>100.00000000000001</ele><time>2026-04-26T08:24:21.159Z</time></trkpt><trkpt lat="40.90968" lon="14.135625"><ele>100.0</ele><time>2026-04-26T08:24:22.157Z</time></trkpt><trkpt lat="40.90972" lon="14.1357317"><ele>100.4</ele><time>2026-04-26T08:24:23.158Z</time></trkpt><trkpt lat="40.9097583" lon="14.1358417"><ele>100.8</ele><time>2026-04-26T08:24:24.156Z</time></trkpt><trkpt lat="40.9097917" lon="14.135955"><ele>101.19999999999999</ele><time>2026-04-26T08:24:25.158Z</time></trkpt><trkpt lat="40.9098317" lon="14.1360667"><ele>101.6</ele><time>2026-04-26T08:24:26.157Z</time></trkpt><trkpt lat="40.9098717" lon="14.1361767"><ele>102.0</ele><time>2026-04-26T08:24:27.156Z</time></trkpt><trkpt lat="40.9099083" lon="14.1362817"><ele>102.0</ele><time>2026-04-26T08:24:28.157Z</time></trkpt><trkpt lat="40.9099433" lon="14.13639"><ele>102.0</ele><time>2026-04-26T08:24:29.156Z</time></trkpt><trkpt lat="40.90998" lon="14.1364933"><ele>102.0</ele><time>2026-04-26T08:24:30.158Z</time></trkpt><trkpt lat="40.9100183" lon="14.1365933"><ele>102.0</ele><time>2026-04-26T08:24:31.157Z</time></trkpt><trkpt lat="40.9100533" lon="14.136695"><ele>102.0</ele><time>2026-04-26T08:24:32.167Z</time></trkpt><trkpt lat="40.9100833" lon="14.1367933"><ele>102.0</ele><time>2026-04-26T08:24:33.16Z</time></trkpt><trkpt lat="40.9101133" lon="14.13689"><ele>101.5</ele><time>2026-04-26T08:24:34.157Z</time></trkpt><trkpt lat="40.91014" lon="14.1369867"><ele>101.0</ele><time>2026-04-26T08:24:35.158Z</time></trkpt><trkpt lat="40.9101717" lon="14.1370833"><ele>100.5</ele><time>2026-04-26T08:24:36.16Z</time></trkpt><trkpt lat="40.9102067" lon="14.1371783"><ele>100.0</ele><time>2026-04-26T08:24:37.161Z</time></trkpt><trkpt lat="40.9102417" lon="14.1372683"><ele>99.5</ele><time>2026-04-26T08:24:38.16Z</time></trkpt><trkpt lat="40.9102767" lon="14.1373633"><ele>99.0</ele><time>2026-04-26T08:24:39.162Z</time></trkpt><trkpt lat="40.910315" lon="14.1374633"><ele>99.0</ele><time>2026-04-26T08:24:40.162Z</time></trkpt><trkpt lat="40.9103517" lon="14.1375633"><ele>99.0</ele><time>2026-04-26T08:24:41.158Z</time></trkpt><trkpt lat="40.9103883" lon="14.1376633"><ele>99.0</ele><time>2026-04-26T08:24:42.16Z</time></trkpt><trkpt lat="40.9104233" lon="14.137765"><ele>99.0</ele><time>2026-04-26T08:24:43.16Z</time></trkpt><trkpt lat="40.9104567" lon="14.13787"><ele>99.0</ele><time>2026-04-26T08:24:44.161Z</time></trkpt><trkpt lat="40.9104917" lon="14.137975"><ele>99.0</ele><time>2026-04-26T08:24:45.16Z</time></trkpt><trkpt lat="40.9105233" lon="14.1380783"><ele>99.0</ele><time>2026-04-26T08:24:46.16Z</time></trkpt><trkpt lat="40.9105567" lon="14.1381767"><ele>99.0</ele><time>2026-04-26T08:24:47.16Z</time></trkpt><trkpt lat="40.9105867" lon="14.1382783"><ele>99.0</ele><time>2026-04-26T08:24:48.161Z</time></trkpt><trkpt lat="40.91062" lon="14.1383767"><ele>99.0</ele><time>2026-04-26T08:24:49.161Z</time></trkpt><trkpt lat="40.9106533" lon="14.1384783"><ele>99.0</ele><time>2026-04-26T08:24:50.163Z</time></trkpt><trkpt lat="40.91069" lon="14.1385783"><ele>99.0</ele><time>2026-04-26T08:24:51.16Z</time></trkpt><trkpt lat="40.9107217" lon="14.1386767"><ele>99.0</ele><time>2026-04-26T08:24:52.157Z</time></trkpt><trkpt lat="40.9107583" lon="14.1387733"><ele>99.0</ele><time>2026-04-26T08:24:53.16Z</time></trkpt><trkpt lat="40.91079" lon="14.1388633"><ele>99.0</ele><time>2026-04-26T08:24:54.159Z</time></trkpt><trkpt lat="40.910825" lon="14.1389567"><ele>99.0</ele><time>2026-04-26T08:24:55.158Z</time></trkpt><trkpt lat="40.9108617" lon="14.1390467"><ele>99.0</ele><time>2026-04-26T08:24:56.161Z</time></trkpt><trkpt lat="40.910895" lon="14.1391367"><ele>99.0</ele><time>2026-04-26T08:24:57.162Z</time></trkpt><trkpt lat="40.9109267" lon="14.1392283"><ele>98.85714285714286</ele><time>2026-04-26T08:24:58.158Z</time></trkpt><trkpt lat="40.9109583" lon="14.1393317"><ele>98.71428571428571</ele><time>2026-04-26T08:24:59.157Z</time></trkpt><trkpt lat="40.9109983" lon="14.1394267"><ele>98.57142857142857</ele><time>2026-04-26T08:25:00.158Z</time></trkpt><trkpt lat="40.911035" lon="14.1395133"><ele>98.42857142857143</ele><time>2026-04-26T08:25:01.158Z</time></trkpt><trkpt lat="40.91107" lon="14.1395917"><ele>98.28571428571428</ele><time>2026-04-26T08:25:02.157Z</time></trkpt><trkpt lat="40.9110967" lon="14.1396733"><ele>98.14285714285714</ele><time>2026-04-26T08:25:03.157Z</time></trkpt><trkpt lat="40.9111217" lon="14.1397517"><ele>98.0</ele><time>2026-04-26T08:25:04.156Z</time></trkpt><trkpt lat="40.9111517" lon="14.13983"><ele>97.71428571428571</ele><time>2026-04-26T08:25:05.158Z</time></trkpt><trkpt lat="40.9111667" lon="14.1399117"><ele>97.42857142857143</ele><time>2026-04-26T08:25:06.156Z</time></trkpt><trkpt lat="40.91119" lon="14.1399933"><ele>97.14285714285714</ele><time>2026-04-26T08:25:07.156Z</time></trkpt><trkpt lat="40.9112117" lon="14.1400733"><ele>96.85714285714286</ele><time>2026-04-26T08:25:08.185Z</time></trkpt><trkpt lat="40.9112333" lon="14.1401533"><ele>96.57142857142857</ele><time>2026-04-26T08:25:09.156Z</time></trkpt><trkpt lat="40.91126" lon="14.14024"><ele>96.28571428571428</ele><time>2026-04-26T08:25:10.16Z</time></trkpt><trkpt lat="40.9112717" lon="14.1403333"><ele>96.0</ele><time>2026-04-26T08:25:11.158Z</time></trkpt><trkpt lat="40.911295" lon="14.1404117"><ele>96.0</ele><time>2026-04-26T08:25:12.156Z</time></trkpt><trkpt lat="40.911325" lon="14.14049"><ele>96.0</ele><time>2026-04-26T08:25:13.157Z</time></trkpt><trkpt lat="40.91138" lon="14.14064"><ele>96.0</ele><time>2026-04-26T08:25:15.159Z</time></trkpt><trkpt lat="40.9114083" lon="14.1407167"><ele>96.0</ele><time>2026-04-26T08:25:16.159Z</time></trkpt><trkpt lat="40.9114367" lon="14.1407967"><ele>96.0</ele><time>2026-04-26T08:25:17.156Z</time></trkpt><trkpt lat="40.91147" lon="14.1408783"><ele>96.0</ele><time>2026-04-26T08:25:18.158Z</time></trkpt><trkpt lat="40.9115017" lon="14.1409583"><ele>96.42857142857142</ele><time>2026-04-26T08:25:19.157Z</time></trkpt><trkpt lat="40.9115333" lon="14.14104"><ele>96.85714285714286</ele><time>2026-04-26T08:25:20.156Z</time></trkpt><trkpt lat="40.9115633" lon="14.141115"><ele>97.28571428571428</ele><time>2026-04-26T08:25:21.156Z</time></trkpt><trkpt lat="40.9115933" lon="14.1411967"><ele>97.71428571428571</ele><time>2026-04-26T08:25:22.158Z</time></trkpt><trkpt lat="40.9116217" lon="14.1412833"><ele>98.14285714285714</ele><time>2026-04-26T08:25:23.157Z</time></trkpt><trkpt lat="40.9116533" lon="14.1413633"><ele>98.57142857142857</ele><time>2026-04-26T08:25:24.159Z</time></trkpt><trkpt lat="40.9116833" lon="14.141445"><ele>99.0</ele><time>2026-04-26T08:25:25.158Z</time></trkpt><trkpt lat="40.91171" lon="14.1415233"><ele>99.16666666666667</ele><time>2026-04-26T08:25:26.157Z</time></trkpt><trkpt lat="40.91174" lon="14.1415983"><ele>99.33333333333334</ele><time>2026-04-26T08:25:27.157Z</time></trkpt><trkpt lat="40.9117683" lon="14.141675"><ele>99.5</ele><time>2026-04-26T08:25:28.159Z</time></trkpt><trkpt lat="40.9117967" lon="14.1417617"><ele>99.66666666666667</ele><time>2026-04-26T08:25:29.156Z</time></trkpt><trkpt lat="40.9118233" lon="14.14185"><ele>99.83333333333334</ele><time>2026-04-26T08:25:30.157Z</time></trkpt><trkpt lat="40.9118467" lon="14.1419333"><ele>100.0</ele><time>2026-04-26T08:25:31.156Z</time></trkpt><trkpt lat="40.9118967" lon="14.1420867"><ele>99.50000000000001</ele><time>2026-04-26T08:25:33.158Z</time></trkpt><trkpt lat="40.9119583" lon="14.1422267"><ele>99.0</ele><time>2026-04-26T08:25:35.158Z</time></trkpt><trkpt lat="40.911985" lon="14.1423083"><ele>98.5</ele><time>2026-04-26T08:25:36.156Z</time></trkpt><trkpt lat="40.9120167" lon="14.1423967"><ele>98.0</ele><time>2026-04-26T08:25:37.156Z</time></trkpt><trkpt lat="40.9120483" lon="14.1424833"><ele>97.50000000000001</ele><time>2026-04-26T08:25:38.156Z</time></trkpt><trkpt lat="40.9120817" lon="14.1425767"><ele>97.0</ele><time>2026-04-26T08:25:39.157Z</time></trkpt><trkpt lat="40.912115" lon="14.14267"><ele>97.00000000000001</ele><time>2026-04-26T08:25:40.16Z</time></trkpt><trkpt lat="40.912145" lon="14.1427633"><ele>97.0</ele><time>2026-04-26T08:25:41.159Z</time></trkpt><trkpt lat="40.9121733" lon="14.142865"><ele>97.0</ele><time>2026-04-26T08:25:42.161Z</time></trkpt><trkpt lat="40.9121983" lon="14.1429633"><ele>97.0</ele><time>2026-04-26T08:25:43.159Z</time></trkpt><trkpt lat="40.9122233" lon="14.14307"><ele>97.00000000000001</ele><time>2026-04-26T08:25:44.16Z</time></trkpt><trkpt lat="40.9122617" lon="14.1431717"><ele>97.0</ele><time>2026-04-26T08:25:45.159Z</time></trkpt><trkpt lat="40.9122983" lon="14.1432683"><ele>97.33333333333334</ele><time>2026-04-26T08:25:46.161Z</time></trkpt><trkpt lat="40.9123333" lon="14.143365"><ele>97.66666666666667</ele><time>2026-04-26T08:25:47.159Z</time></trkpt><trkpt lat="40.9123667" lon="14.1434667"><ele>98.0</ele><time>2026-04-26T08:25:48.16Z</time></trkpt><trkpt lat="40.9123983" lon="14.1435667"><ele>98.33333333333334</ele><time>2026-04-26T08:25:49.16Z</time></trkpt><trkpt lat="40.9124333" lon="14.1436633"><ele>98.66666666666667</ele><time>2026-04-26T08:25:50.16Z</time></trkpt><trkpt lat="40.9124667" lon="14.1437567"><ele>99.0</ele><time>2026-04-26T08:25:51.159Z</time></trkpt><trkpt lat="40.9124983" lon="14.143855"><ele>99.0</ele><time>2026-04-26T08:25:52.16Z</time></trkpt><trkpt lat="40.9125317" lon="14.14395"><ele>99.0</ele><time>2026-04-26T08:25:53.161Z</time></trkpt><trkpt lat="40.912565" lon="14.14404"><ele>99.0</ele><time>2026-04-26T08:25:54.161Z</time></trkpt><trkpt lat="40.9125967" lon="14.1441317"><ele>99.0</ele><time>2026-04-26T08:25:55.159Z</time></trkpt><trkpt lat="40.9126283" lon="14.1442183"><ele>99.0</ele><time>2026-04-26T08:25:56.156Z</time></trkpt><trkpt lat="40.9126583" lon="14.1443033"><ele>99.0</ele><time>2026-04-26T08:25:57.159Z</time></trkpt><trkpt lat="40.9126867" lon="14.14438"><ele>99.0</ele><time>2026-04-26T08:25:58.159Z</time></trkpt><trkpt lat="40.9127167" lon="14.14446"><ele>98.57142857142857</ele><time>2026-04-26T08:25:59.161Z</time></trkpt><trkpt lat="40.9127467" lon="14.144535"><ele>98.14285714285714</ele><time>2026-04-26T08:26:00.161Z</time></trkpt><trkpt lat="40.9127767" lon="14.1446083"><ele>97.71428571428571</ele><time>2026-04-26T08:26:01.159Z</time></trkpt><trkpt lat="40.91281" lon="14.1446867"><ele>97.28571428571428</ele><time>2026-04-26T08:26:02.16Z</time></trkpt><trkpt lat="40.91284" lon="14.144765"><ele>96.85714285714286</ele><time>2026-04-26T08:26:03.159Z</time></trkpt><trkpt lat="40.9128683" lon="14.1448417"><ele>96.42857142857142</ele><time>2026-04-26T08:26:04.16Z</time></trkpt><trkpt lat="40.9128983" lon="14.144915"><ele>96.0</ele><time>2026-04-26T08:26:05.16Z</time></trkpt><trkpt lat="40.9129483" lon="14.1450483"><ele>96.0</ele><time>2026-04-26T08:26:07.159Z</time></trkpt><trkpt lat="40.912995" lon="14.1451467"><ele>96.0</ele><time>2026-04-26T08:26:09.16Z</time></trkpt><trkpt lat="40.9130483" lon="14.14521"><ele>96.0</ele><time>2026-04-26T08:26:11.16Z</time></trkpt><trkpt lat="40.91313" lon="14.14524"><ele>96.0</ele><time>2026-04-26T08:26:13.158Z</time></trkpt><trkpt lat="40.913215" lon="14.145295"><ele>96.0</ele><time>2026-04-26T08:26:15.158Z</time></trkpt><trkpt lat="40.9132933" lon="14.1453783"><ele>96.0</ele><time>2026-04-26T08:26:17.159Z</time></trkpt><trkpt lat="40.9133817" lon="14.145465"><ele>96.0</ele><time>2026-04-26T08:26:19.157Z</time></trkpt><trkpt lat="40.913475" lon="14.14557"><ele>96.0</ele><time>2026-04-26T08:26:21.156Z</time></trkpt><trkpt lat="40.91356" lon="14.145675"><ele>96.0</ele><time>2026-04-26T08:26:23.156Z</time></trkpt><trkpt lat="40.9136417" lon="14.1457817"><ele>96.0</ele><time>2026-04-26T08:26:25.157Z</time></trkpt><trkpt lat="40.913725" lon="14.14589"><ele>96.33333333333333</ele><time>2026-04-26T08:26:27.157Z</time></trkpt><trkpt lat="40.9137733" lon="14.1459467"><ele>96.66666666666666</ele><time>2026-04-26T08:26:28.156Z</time></trkpt><trkpt lat="40.9138217" lon="14.1460083"><ele>97.0</ele><time>2026-04-26T08:26:29.157Z</time></trkpt><trkpt lat="40.913885" lon="14.1460317"><ele>97.33333333333333</ele><time>2026-04-26T08:26:30.157Z</time></trkpt><trkpt lat="40.91393" lon="14.1460917"><ele>97.66666666666666</ele><time>2026-04-26T08:26:31.157Z</time></trkpt><trkpt lat="40.9140117" lon="14.1462133"><ele>98.0</ele><time>2026-04-26T08:26:33.156Z</time></trkpt><trkpt lat="40.9140917" lon="14.14634"><ele>98.0</ele><time>2026-04-26T08:26:35.158Z</time></trkpt><trkpt lat="40.91415" lon="14.1463983"><ele>98.0</ele><time>2026-04-26T08:26:36.156Z</time></trkpt><trkpt lat="40.9142017" lon="14.146455"><ele>98.0</ele><time>2026-04-26T08:26:37.158Z</time></trkpt><trkpt lat="40.9142533" lon="14.1465117"><ele>98.0</ele><time>2026-04-26T08:26:38.158Z</time></trkpt><trkpt lat="40.914305" lon="14.1465667"><ele>98.0</ele><time>2026-04-26T08:26:39.157Z</time></trkpt><trkpt lat="40.9143533" lon="14.1466217"><ele>98.0</ele><time>2026-04-26T08:26:40.157Z</time></trkpt><trkpt lat="40.9143983" lon="14.146685"><ele>98.0</ele><time>2026-04-26T08:26:41.156Z</time></trkpt><trkpt lat="40.9144433" lon="14.146745"><ele>98.33333333333333</ele><time>2026-04-26T08:26:42.157Z</time></trkpt><trkpt lat="40.9144933" lon="14.1468017"><ele>98.66666666666666</ele><time>2026-04-26T08:26:43.157Z</time></trkpt><trkpt lat="40.914545" lon="14.1468583"><ele>99.0</ele><time>2026-04-26T08:26:44.158Z</time></trkpt><trkpt lat="40.914635" lon="14.1469683"><ele>99.33333333333334</ele><time>2026-04-26T08:26:46.157Z</time></trkpt><trkpt lat="40.9146917" lon="14.14702"><ele>99.66666666666667</ele><time>2026-04-26T08:26:47.156Z</time></trkpt><trkpt lat="40.91474" lon="14.147075"><ele>100.0</ele><time>2026-04-26T08:26:48.157Z</time></trkpt><trkpt lat="40.9148433" lon="14.147185"><ele>100.00000000000001</ele><time>2026-04-26T08:26:50.156Z</time></trkpt><trkpt lat="40.914895" lon="14.1472467"><ele>100.0</ele><time>2026-04-26T08:26:51.156Z</time></trkpt><trkpt lat="40.9149567" lon="14.1472983"><ele>100.0</ele><time>2026-04-26T08:26:52.158Z</time></trkpt><trkpt lat="40.91502" lon="14.1473333"><ele>100.0</ele><time>2026-04-26T08:26:53.157Z</time></trkpt><trkpt lat="40.9150767" lon="14.147385"><ele>100.00000000000001</ele><time>2026-04-26T08:26:54.159Z</time></trkpt><trkpt lat="40.915155" lon="14.1474883"><ele>100.0</ele><time>2026-04-26T08:26:56.159Z</time></trkpt><trkpt lat="40.9152383" lon="14.1475867"><ele>100.33333333333334</ele><time>2026-04-26T08:26:58.157Z</time></trkpt><trkpt lat="40.915305" lon="14.147655"><ele>100.66666666666667</ele><time>2026-04-26T08:27:00.156Z</time></trkpt><trkpt lat="40.9153767" lon="14.1477117"><ele>101.0</ele><time>2026-04-26T08:27:02.158Z</time></trkpt><trkpt lat="40.9154333" lon="14.1478"><ele>101.33333333333334</ele><time>2026-04-26T08:27:04.158Z</time></trkpt><trkpt lat="40.9155067" lon="14.14788"><ele>101.66666666666667</ele><time>2026-04-26T08:27:06.157Z</time></trkpt><trkpt lat="40.9155683" lon="14.147945"><ele>102.0</ele><time>2026-04-26T08:27:08.156Z</time></trkpt><trkpt lat="40.9156333" lon="14.1479983"><ele>102.0</ele><time>2026-04-26T08:27:10.157Z</time></trkpt><trkpt lat="40.9157083" lon="14.14806"><ele>102.0</ele><time>2026-04-26T08:27:12.158Z</time></trkpt><trkpt lat="40.915785" lon="14.1481267"><ele>102.0</ele><time>2026-04-26T08:27:14.16Z</time></trkpt><trkpt lat="40.915855" lon="14.1481833"><ele>102.0</ele><time>2026-04-26T08:27:16.159Z</time></trkpt><trkpt lat="40.9159283" lon="14.14826"><ele>102.0</ele><time>2026-04-26T08:27:18.157Z</time></trkpt><trkpt lat="40.9159967" lon="14.148355"><ele>102.0</ele><time>2026-04-26T08:27:20.159Z</time></trkpt><trkpt lat="40.9160633" lon="14.1484283"><ele>102.0</ele><time>2026-04-26T08:27:22.16Z</time></trkpt><trkpt lat="40.9161233" lon="14.1485"><ele>102.0</ele><time>2026-04-26T08:27:24.157Z</time></trkpt><trkpt lat="40.9161817" lon="14.1485733"><ele>102.0</ele><time>2026-04-26T08:27:26.158Z</time></trkpt><trkpt lat="40.9162483" lon="14.14865"><ele>102.0</ele><time>2026-04-26T08:27:28.156Z</time></trkpt><trkpt lat="40.9163117" lon="14.1487217"><ele>102.0</ele><time>2026-04-26T08:27:30.157Z</time></trkpt><trkpt lat="40.9163717" lon="14.1487967"><ele>102.0</ele><time>2026-04-26T08:27:32.161Z</time></trkpt><trkpt lat="40.9164617" lon="14.1489117"><ele>102.0</ele><time>2026-04-26T08:27:35.157Z</time></trkpt><trkpt lat="40.91653" lon="14.1489933"><ele>102.0</ele><time>2026-04-26T08:27:37.156Z</time></trkpt><trkpt lat="40.9165833" lon="14.1490717"><ele>102.0</ele><time>2026-04-26T08:27:39.158Z</time></trkpt><trkpt lat="40.91663" lon="14.1491333"><ele>102.0</ele><time>2026-04-26T08:27:41.157Z</time></trkpt><trkpt lat="40.9166867" lon="14.1491917"><ele>102.0</ele><time>2026-04-26T08:27:43.156Z</time></trkpt><trkpt lat="40.9167517" lon="14.1492383"><ele>101.83333333333333</ele><time>2026-04-26T08:27:45.157Z</time></trkpt><trkpt lat="40.9168233" lon="14.149285"><ele>101.66666666666666</ele><time>2026-04-26T08:27:47.157Z</time></trkpt><trkpt lat="40.9168733" lon="14.14935"><ele>101.5</ele><time>2026-04-26T08:27:49.158Z</time></trkpt><trkpt lat="40.916925" lon="14.1494167"><ele>101.33333333333333</ele><time>2026-04-26T08:27:51.157Z</time></trkpt><trkpt lat="40.91699" lon="14.1494883"><ele>101.16666666666666</ele><time>2026-04-26T08:27:53.159Z</time></trkpt><trkpt lat="40.9170617" lon="14.14955"><ele>101.0</ele><time>2026-04-26T08:27:55.156Z</time></trkpt><trkpt lat="40.9171267" lon="14.1496167"><ele>101.0</ele><time>2026-04-26T08:27:57.158Z</time></trkpt><trkpt lat="40.917195" lon="14.1496967"><ele>101.0</ele><time>2026-04-26T08:27:59.157Z</time></trkpt><trkpt lat="40.9172617" lon="14.1497767"><ele>101.0</ele><time>2026-04-26T08:28:01.158Z</time></trkpt><trkpt lat="40.917325" lon="14.1498733"><ele>101.0</ele><time>2026-04-26T08:28:03.156Z</time></trkpt><trkpt lat="40.9173817" lon="14.149995"><ele>101.0</ele><time>2026-04-26T08:28:05.157Z</time></trkpt><trkpt lat="40.91747" lon="14.1501"><ele>101.16666666666666</ele><time>2026-04-26T08:28:07.157Z</time></trkpt><trkpt lat="40.9175483" lon="14.1502367"><ele>101.33333333333333</ele><time>2026-04-26T08:28:09.158Z</time></trkpt><trkpt lat="40.9175917" lon="14.1503133"><ele>101.5</ele><time>2026-04-26T08:28:10.157Z</time></trkpt><trkpt lat="40.9176367" lon="14.1503883"><ele>101.66666666666666</ele><time>2026-04-26T08:28:11.157Z</time></trkpt><trkpt lat="40.9176733" lon="14.150465"><ele>101.83333333333333</ele><time>2026-04-26T08:28:12.157Z</time></trkpt><trkpt lat="40.91771" lon="14.15054"><ele>102.0</ele><time>2026-04-26T08:28:13.157Z</time></trkpt><trkpt lat="40.9177517" lon="14.1506133"><ele>102.16666666666667</ele><time>2026-04-26T08:28:14.157Z</time></trkpt><trkpt lat="40.91779" lon="14.1506933"><ele>102.33333333333334</ele><time>2026-04-26T08:28:15.157Z</time></trkpt><trkpt lat="40.917825" lon="14.15077"><ele>102.5</ele><time>2026-04-26T08:28:16.156Z</time></trkpt><trkpt lat="40.9178583" lon="14.1508533"><ele>102.66666666666667</ele><time>2026-04-26T08:28:17.157Z</time></trkpt><trkpt lat="40.917895" lon="14.1509317"><ele>102.83333333333334</ele><time>2026-04-26T08:28:18.156Z</time></trkpt><trkpt lat="40.9179267" lon="14.1510083"><ele>103.0</ele><time>2026-04-26T08:28:19.156Z</time></trkpt><trkpt lat="40.9179833" lon="14.151145"><ele>103.0</ele><time>2026-04-26T08:28:21.157Z</time></trkpt><trkpt lat="40.9180333" lon="14.1512717"><ele>103.0</ele><time>2026-04-26T08:28:23.156Z</time></trkpt><trkpt lat="40.9180867" lon="14.151405"><ele>103.0</ele><time>2026-04-26T08:28:25.156Z</time></trkpt><trkpt lat="40.9181417" lon="14.1515483"><ele>103.0</ele><time>2026-04-26T08:28:27.156Z</time></trkpt><trkpt lat="40.9181767" lon="14.1516217"><ele>103.0</ele><time>2026-04-26T08:28:28.156Z</time></trkpt><trkpt lat="40.918205" lon="14.1517"><ele>103.16666666666667</ele><time>2026-04-26T08:28:29.156Z</time></trkpt><trkpt lat="40.9182633" lon="14.15185"><ele>103.33333333333334</ele><time>2026-04-26T08:28:31.157Z</time></trkpt><trkpt lat="40.9182917" lon="14.1519267"><ele>103.5</ele><time>2026-04-26T08:28:32.157Z</time></trkpt><trkpt lat="40.9183217" lon="14.152"><ele>103.66666666666666</ele><time>2026-04-26T08:28:33.156Z</time></trkpt><trkpt lat="40.918375" lon="14.15215"><ele>103.83333333333333</ele><time>2026-04-26T08:28:35.156Z</time></trkpt><trkpt lat="40.9184033" lon="14.152225"><ele>104.0</ele><time>2026-04-26T08:28:36.157Z</time></trkpt><trkpt lat="40.91846" lon="14.1523617"><ele>103.83333333333333</ele><time>2026-04-26T08:28:38.157Z</time></trkpt><trkpt lat="40.9185133" lon="14.1524883"><ele>103.66666666666666</ele><time>2026-04-26T08:28:40.156Z</time></trkpt><trkpt lat="40.9185667" lon="14.1526333"><ele>103.5</ele><time>2026-04-26T08:28:42.157Z</time></trkpt><trkpt lat="40.91859" lon="14.152715"><ele>103.33333333333334</ele><time>2026-04-26T08:28:43.156Z</time></trkpt><trkpt lat="40.91862" lon="14.1527967"><ele>103.16666666666667</ele><time>2026-04-26T08:28:44.157Z</time></trkpt><trkpt lat="40.9186467" lon="14.1528883"><ele>103.0</ele><time>2026-04-26T08:28:45.158Z</time></trkpt><trkpt lat="40.918675" lon="14.1529817"><ele>103.0</ele><time>2026-04-26T08:28:46.157Z</time></trkpt><trkpt lat="40.9187" lon="14.1530683"><ele>103.0</ele><time>2026-04-26T08:28:47.157Z</time></trkpt><trkpt lat="40.9187217" lon="14.15315"><ele>103.0</ele><time>2026-04-26T08:28:48.157Z</time></trkpt><trkpt lat="40.9187817" lon="14.153295"><ele>103.0</ele><time>2026-04-26T08:28:50.156Z</time></trkpt><trkpt lat="40.9188067" lon="14.1534467"><ele>103.0</ele><time>2026-04-26T08:28:52.157Z</time></trkpt><trkpt lat="40.9187917" lon="14.1536083"><ele>103.2</ele><time>2026-04-26T08:28:54.157Z</time></trkpt><trkpt lat="40.9187883" lon="14.1537433"><ele>103.4</ele><time>2026-04-26T08:28:56.157Z</time></trkpt><trkpt lat="40.9188217" lon="14.15382"><ele>103.60000000000001</ele><time>2026-04-26T08:28:58.156Z</time></trkpt><trkpt lat="40.9188883" lon="14.1538817"><ele>103.80000000000001</ele><time>2026-04-26T08:29:00.156Z</time></trkpt><trkpt lat="40.9189683" lon="14.1540517"><ele>104.0</ele><time>2026-04-26T08:29:03.156Z</time></trkpt><trkpt lat="40.9190083" lon="14.1541983"><ele>104.33333333333333</ele><time>2026-04-26T08:29:05.157Z</time></trkpt><trkpt lat="40.919025" lon="14.1542817"><ele>104.66666666666666</ele><time>2026-04-26T08:29:06.156Z</time></trkpt><trkpt lat="40.9190783" lon="14.1544417"><ele>105.0</ele><time>2026-04-26T08:29:08.158Z</time></trkpt><trkpt lat="40.9191033" lon="14.15453"><ele>105.33333333333334</ele><time>2026-04-26T08:29:09.157Z</time></trkpt><trkpt lat="40.919125" lon="14.1546117"><ele>105.66666666666667</ele><time>2026-04-26T08:29:10.159Z</time></trkpt><trkpt lat="40.919155" lon="14.1546867"><ele>106.0</ele><time>2026-04-26T08:29:11.158Z</time></trkpt><trkpt lat="40.9191767" lon="14.1547667"><ele>106.0</ele><time>2026-04-26T08:29:12.158Z</time></trkpt><trkpt lat="40.9191983" lon="14.1548467"><ele>106.0</ele><time>2026-04-26T08:29:13.157Z</time></trkpt><trkpt lat="40.9192217" lon="14.154925"><ele>106.0</ele><time>2026-04-26T08:29:14.158Z</time></trkpt><trkpt lat="40.9192483" lon="14.1550067"><ele>106.0</ele><time>2026-04-26T08:29:15.158Z</time></trkpt><trkpt lat="40.9192733" lon="14.1550867"><ele>106.0</ele><time>2026-04-26T08:29:16.158Z</time></trkpt><trkpt lat="40.9192933" lon="14.1551717"><ele>106.0</ele><time>2026-04-26T08:29:17.158Z</time></trkpt><trkpt lat="40.9193183" lon="14.1552517"><ele>106.0</ele><time>2026-04-26T08:29:18.157Z</time></trkpt><trkpt lat="40.91937" lon="14.1554017"><ele>106.0</ele><time>2026-04-26T08:29:20.157Z</time></trkpt><trkpt lat="40.9194167" lon="14.1555533"><ele>106.0</ele><time>2026-04-26T08:29:22.157Z</time></trkpt><trkpt lat="40.9194433" lon="14.1556317"><ele>106.0</ele><time>2026-04-26T08:29:23.158Z</time></trkpt><trkpt lat="40.9194833" lon="14.1557767"><ele>106.0</ele><time>2026-04-26T08:29:25.158Z</time></trkpt><trkpt lat="40.91952" lon="14.1559167"><ele>106.0</ele><time>2026-04-26T08:29:27.156Z</time></trkpt><trkpt lat="40.91956" lon="14.1560633"><ele>106.0</ele><time>2026-04-26T08:29:29.158Z</time></trkpt><trkpt lat="40.919605" lon="14.1562017"><ele>106.0</ele><time>2026-04-26T08:29:31.158Z</time></trkpt><trkpt lat="40.9196567" lon="14.156345"><ele>106.0</ele><time>2026-04-26T08:29:33.16Z</time></trkpt><trkpt lat="40.919705" lon="14.156485"><ele>106.0</ele><time>2026-04-26T08:29:35.16Z</time></trkpt><trkpt lat="40.919745" lon="14.15663"><ele>105.8</ele><time>2026-04-26T08:29:37.16Z</time></trkpt><trkpt lat="40.9197883" lon="14.1567883"><ele>105.6</ele><time>2026-04-26T08:29:39.159Z</time></trkpt><trkpt lat="40.9198133" lon="14.156865"><ele>105.4</ele><time>2026-04-26T08:29:40.16Z</time></trkpt><trkpt lat="40.9198667" lon="14.1570183"><ele>105.2</ele><time>2026-04-26T08:29:42.159Z</time></trkpt><trkpt lat="40.9198967" lon="14.1570917"><ele>105.0</ele><time>2026-04-26T08:29:43.16Z</time></trkpt><trkpt lat="40.919945" lon="14.15724"><ele>105.2</ele><time>2026-04-26T08:29:45.161Z</time></trkpt><trkpt lat="40.91999" lon="14.1573867"><ele>105.4</ele><time>2026-04-26T08:29:47.159Z</time></trkpt><trkpt lat="40.9200333" lon="14.1575167"><ele>105.6</ele><time>2026-04-26T08:29:49.16Z</time></trkpt><trkpt lat="40.92007" lon="14.1576433"><ele>105.8</ele><time>2026-04-26T08:29:51.16Z</time></trkpt><trkpt lat="40.92011" lon="14.15778"><ele>106.0</ele><time>2026-04-26T08:29:53.159Z</time></trkpt><trkpt lat="40.9201433" lon="14.1579267"><ele>106.0</ele><time>2026-04-26T08:29:55.164Z</time></trkpt><trkpt lat="40.9201767" lon="14.158075"><ele>106.0</ele><time>2026-04-26T08:29:57.16Z</time></trkpt><trkpt lat="40.9202133" lon="14.1582283"><ele>106.0</ele><time>2026-04-26T08:29:59.159Z</time></trkpt><trkpt lat="40.9202567" lon="14.1583733"><ele>106.0</ele><time>2026-04-26T08:30:01.159Z</time></trkpt><trkpt lat="40.9203067" lon="14.158515"><ele>106.00000000000001</ele><time>2026-04-26T08:30:03.158Z</time></trkpt><trkpt lat="40.92036" lon="14.158655"><ele>106.0</ele><time>2026-04-26T08:30:05.159Z</time></trkpt><trkpt lat="40.9203817" lon="14.1587333"><ele>106.0</ele><time>2026-04-26T08:30:06.158Z</time></trkpt><trkpt lat="40.9204017" lon="14.1588167"><ele>106.0</ele><time>2026-04-26T08:30:07.158Z</time></trkpt><trkpt lat="40.9204467" lon="14.15897"><ele>106.00000000000001</ele><time>2026-04-26T08:30:09.158Z</time></trkpt><trkpt lat="40.9204717" lon="14.1590483"><ele>106.0</ele><time>2026-04-26T08:30:10.158Z</time></trkpt><trkpt lat="40.920495" lon="14.1591283"><ele>106.0</ele><time>2026-04-26T08:30:11.158Z</time></trkpt><trkpt lat="40.92052" lon="14.1592167"><ele>106.0</ele><time>2026-04-26T08:30:12.159Z</time></trkpt><trkpt lat="40.920545" lon="14.1592967"><ele>106.0</ele><time>2026-04-26T08:30:13.157Z</time></trkpt><trkpt lat="40.92056" lon="14.15938"><ele>106.0</ele><time>2026-04-26T08:30:14.161Z</time></trkpt><trkpt lat="40.92058" lon="14.1594633"><ele>106.0</ele><time>2026-04-26T08:30:15.157Z</time></trkpt><trkpt lat="40.9206017" lon="14.1595433"><ele>106.0</ele><time>2026-04-26T08:30:16.157Z</time></trkpt><trkpt lat="40.920625" lon="14.159625"><ele>106.0</ele><time>2026-04-26T08:30:17.158Z</time></trkpt><trkpt lat="40.9206533" lon="14.15971"><ele>106.0</ele><time>2026-04-26T08:30:18.158Z</time></trkpt><trkpt lat="40.920675" lon="14.1597967"><ele>106.0</ele><time>2026-04-26T08:30:19.157Z</time></trkpt><trkpt lat="40.9207017" lon="14.159885"><ele>106.0</ele><time>2026-04-26T08:30:20.158Z</time></trkpt><trkpt lat="40.9207283" lon="14.1599733"><ele>106.0</ele><time>2026-04-26T08:30:21.159Z</time></trkpt><trkpt lat="40.920755" lon="14.1600683"><ele>106.0</ele><time>2026-04-26T08:30:22.157Z</time></trkpt><trkpt lat="40.9207833" lon="14.16016"><ele>106.0</ele><time>2026-04-26T08:30:23.157Z</time></trkpt><trkpt lat="40.9208117" lon="14.1602533"><ele>106.0</ele><time>2026-04-26T08:30:24.158Z</time></trkpt><trkpt lat="40.9208383" lon="14.160345"><ele>106.0</ele><time>2026-04-26T08:30:25.158Z</time></trkpt><trkpt lat="40.920865" lon="14.1604333"><ele>106.0</ele><time>2026-04-26T08:30:26.157Z</time></trkpt><trkpt lat="40.9208917" lon="14.160515"><ele>106.0</ele><time>2026-04-26T08:30:27.158Z</time></trkpt><trkpt lat="40.92092" lon="14.1606"><ele>106.0</ele><time>2026-04-26T08:30:28.157Z</time></trkpt><trkpt lat="40.9209483" lon="14.16068"><ele>106.0</ele><time>2026-04-26T08:30:29.16Z</time></trkpt><trkpt lat="40.9209767" lon="14.1607617"><ele>106.0</ele><time>2026-04-26T08:30:30.158Z</time></trkpt><trkpt lat="40.9210033" lon="14.1608467"><ele>106.0</ele><time>2026-04-26T08:30:31.158Z</time></trkpt><trkpt lat="40.921025" lon="14.16093"><ele>106.0</ele><time>2026-04-26T08:30:32.158Z</time></trkpt><trkpt lat="40.9210467" lon="14.1610117"><ele>106.0</ele><time>2026-04-26T08:30:33.157Z</time></trkpt><trkpt lat="40.9210733" lon="14.1610883"><ele>106.0</ele><time>2026-04-26T08:30:34.158Z</time></trkpt><trkpt lat="40.9210983" lon="14.16117"><ele>106.0</ele><time>2026-04-26T08:30:35.157Z</time></trkpt><trkpt lat="40.921125" lon="14.1612533"><ele>106.0</ele><time>2026-04-26T08:30:36.157Z</time></trkpt><trkpt lat="40.9211517" lon="14.1613367"><ele>106.0</ele><time>2026-04-26T08:30:37.158Z</time></trkpt><trkpt lat="40.92118" lon="14.16142"><ele>106.0</ele><time>2026-04-26T08:30:38.157Z</time></trkpt><trkpt lat="40.9212067" lon="14.1614983"><ele>106.16666666666667</ele><time>2026-04-26T08:30:39.158Z</time></trkpt><trkpt lat="40.9212267" lon="14.16158"><ele>106.33333333333334</ele><time>2026-04-26T08:30:40.157Z</time></trkpt><trkpt lat="40.9212733" lon="14.1617367"><ele>106.5</ele><time>2026-04-26T08:30:42.157Z</time></trkpt><trkpt lat="40.9213" lon="14.161815"><ele>106.66666666666666</ele><time>2026-04-26T08:30:43.158Z</time></trkpt><trkpt lat="40.921325" lon="14.1619033"><ele>106.83333333333333</ele><time>2026-04-26T08:30:44.158Z</time></trkpt><trkpt lat="40.9213533" lon="14.16198"><ele>107.0</ele><time>2026-04-26T08:30:45.157Z</time></trkpt><trkpt lat="40.921375" lon="14.162065"><ele>107.00000000000001</ele><time>2026-04-26T08:30:46.157Z</time></trkpt><trkpt lat="40.9214033" lon="14.162145"><ele>107.0</ele><time>2026-04-26T08:30:47.158Z</time></trkpt><trkpt lat="40.9214317" lon="14.1622283"><ele>107.0</ele><time>2026-04-26T08:30:48.158Z</time></trkpt><trkpt lat="40.9214567" lon="14.1623133"><ele>107.0</ele><time>2026-04-26T08:30:49.159Z</time></trkpt><trkpt lat="40.9214833" lon="14.162395"><ele>107.0</ele><time>2026-04-26T08:30:50.157Z</time></trkpt><trkpt lat="40.9215033" lon="14.1624817"><ele>107.00000000000001</ele><time>2026-04-26T08:30:51.157Z</time></trkpt><trkpt lat="40.92153" lon="14.162575"><ele>107.0</ele><time>2026-04-26T08:30:52.158Z</time></trkpt><trkpt lat="40.9215517" lon="14.1626667"><ele>107.14285714285715</ele><time>2026-04-26T08:30:53.158Z</time></trkpt><trkpt lat="40.9215717" lon="14.162755"><ele>107.28571428571429</ele><time>2026-04-26T08:30:54.158Z</time></trkpt><trkpt lat="40.92159" lon="14.1628467"><ele>107.42857142857143</ele><time>2026-04-26T08:30:55.157Z</time></trkpt><trkpt lat="40.9216133" lon="14.16294"><ele>107.57142857142858</ele><time>2026-04-26T08:30:56.158Z</time></trkpt><trkpt lat="40.92164" lon="14.1630283"><ele>107.71428571428571</ele><time>2026-04-26T08:30:57.157Z</time></trkpt><trkpt lat="40.9216683" lon="14.1631167"><ele>107.85714285714286</ele><time>2026-04-26T08:30:58.158Z</time></trkpt><trkpt lat="40.9216983" lon="14.163205"><ele>108.0</ele><time>2026-04-26T08:30:59.158Z</time></trkpt><trkpt lat="40.9217267" lon="14.1632917"><ele>108.16666666666667</ele><time>2026-04-26T08:31:00.159Z</time></trkpt><trkpt lat="40.921755" lon="14.1633733"><ele>108.33333333333334</ele><time>2026-04-26T08:31:01.159Z</time></trkpt><trkpt lat="40.921785" lon="14.1634583"><ele>108.5</ele><time>2026-04-26T08:31:02.158Z</time></trkpt><trkpt lat="40.9218133" lon="14.1635467"><ele>108.66666666666667</ele><time>2026-04-26T08:31:03.157Z</time></trkpt><trkpt lat="40.9218367" lon="14.1636367"><ele>108.83333333333334</ele><time>2026-04-26T08:31:04.158Z</time></trkpt><trkpt lat="40.9218617" lon="14.1637183"><ele>109.0</ele><time>2026-04-26T08:31:05.157Z</time></trkpt><trkpt lat="40.921915" lon="14.163865"><ele>109.00000000000001</ele><time>2026-04-26T08:31:07.157Z</time></trkpt><trkpt lat="40.9219417" lon="14.1639417"><ele>109.0</ele><time>2026-04-26T08:31:08.159Z</time></trkpt><trkpt lat="40.9219667" lon="14.16402"><ele>109.0</ele><time>2026-04-26T08:31:09.157Z</time></trkpt><trkpt lat="40.9219867" lon="14.1641"><ele>109.0</ele><time>2026-04-26T08:31:10.158Z</time></trkpt><trkpt lat="40.9220083" lon="14.16418"><ele>109.00000000000001</ele><time>2026-04-26T08:31:11.157Z</time></trkpt><trkpt lat="40.9220617" lon="14.1643317"><ele>109.0</ele><time>2026-04-26T08:31:13.159Z</time></trkpt><trkpt lat="40.9221117" lon="14.1644883"><ele>109.0</ele><time>2026-04-26T08:31:15.157Z</time></trkpt><trkpt lat="40.922135" lon="14.1645683"><ele>109.0</ele><time>2026-04-26T08:31:16.158Z</time></trkpt><trkpt lat="40.922155" lon="14.1646517"><ele>109.0</ele><time>2026-04-26T08:31:17.158Z</time></trkpt><trkpt lat="40.9221717" lon="14.1647333"><ele>109.0</ele><time>2026-04-26T08:31:18.158Z</time></trkpt><trkpt lat="40.9221917" lon="14.1648133"><ele>109.0</ele><time>2026-04-26T08:31:19.157Z</time></trkpt><trkpt lat="40.9222167" lon="14.164895"><ele>109.0</ele><time>2026-04-26T08:31:20.157Z</time></trkpt><trkpt lat="40.9222417" lon="14.16498"><ele>109.0</ele><time>2026-04-26T08:31:21.157Z</time></trkpt><trkpt lat="40.9222783" lon="14.1650733"><ele>109.0</ele><time>2026-04-26T08:31:22.157Z</time></trkpt><trkpt lat="40.9223067" lon="14.1651533"><ele>109.0</ele><time>2026-04-26T08:31:23.157Z</time></trkpt><trkpt lat="40.9223517" lon="14.1653017"><ele>109.0</ele><time>2026-04-26T08:31:25.158Z</time></trkpt><trkpt lat="40.9223883" lon="14.165455"><ele>109.0</ele><time>2026-04-26T08:31:27.157Z</time></trkpt><trkpt lat="40.9224067" lon="14.165535"><ele>109.0</ele><time>2026-04-26T08:31:28.157Z</time></trkpt><trkpt lat="40.9224583" lon="14.16568"><ele>109.0</ele><time>2026-04-26T08:31:30.157Z</time></trkpt><trkpt lat="40.92248" lon="14.1657583"><ele>109.0</ele><time>2026-04-26T08:31:31.157Z</time></trkpt><trkpt lat="40.9225" lon="14.1658433"><ele>109.0</ele><time>2026-04-26T08:31:32.164Z</time></trkpt><trkpt lat="40.9225217" lon="14.1659267"><ele>109.0</ele><time>2026-04-26T08:31:33.158Z</time></trkpt><trkpt lat="40.9225517" lon="14.166005"><ele>109.0</ele><time>2026-04-26T08:31:34.157Z</time></trkpt><trkpt lat="40.9225833" lon="14.16608"><ele>109.0</ele><time>2026-04-26T08:31:35.167Z</time></trkpt><trkpt lat="40.9226133" lon="14.1661583"><ele>109.0</ele><time>2026-04-26T08:31:36.157Z</time></trkpt><trkpt lat="40.9226433" lon="14.1662383"><ele>109.00000000000001</ele><time>2026-04-26T08:31:37.157Z</time></trkpt><trkpt lat="40.9226683" lon="14.16632"><ele>109.0</ele><time>2026-04-26T08:31:38.158Z</time></trkpt><trkpt lat="40.922695" lon="14.1664"><ele>109.0</ele><time>2026-04-26T08:31:39.157Z</time></trkpt><trkpt lat="40.9227167" lon="14.16649"><ele>109.0</ele><time>2026-04-26T08:31:40.157Z</time></trkpt><trkpt lat="40.9227333" lon="14.166575"><ele>109.00000000000001</ele><time>2026-04-26T08:31:41.157Z</time></trkpt><trkpt lat="40.9227783" lon="14.1667283"><ele>109.0</ele><time>2026-04-26T08:31:43.157Z</time></trkpt><trkpt lat="40.922805" lon="14.1668117"><ele>109.14285714285714</ele><time>2026-04-26T08:31:44.157Z</time></trkpt><trkpt lat="40.92283" lon="14.16689"><ele>109.28571428571429</ele><time>2026-04-26T08:31:45.157Z</time></trkpt><trkpt lat="40.92286" lon="14.1669733"><ele>109.42857142857142</ele><time>2026-04-26T08:31:46.158Z</time></trkpt><trkpt lat="40.9228867" lon="14.1670533"><ele>109.57142857142857</ele><time>2026-04-26T08:31:47.157Z</time></trkpt><trkpt lat="40.9229117" lon="14.1671417"><ele>109.71428571428571</ele><time>2026-04-26T08:31:48.157Z</time></trkpt><trkpt lat="40.9229383" lon="14.1672283"><ele>109.85714285714285</ele><time>2026-04-26T08:31:49.157Z</time></trkpt><trkpt lat="40.92297" lon="14.1673167"><ele>110.0</ele><time>2026-04-26T08:31:50.159Z</time></trkpt><trkpt lat="40.9229983" lon="14.1674"><ele>110.14285714285714</ele><time>2026-04-26T08:31:51.157Z</time></trkpt><trkpt lat="40.92303" lon="14.1674833"><ele>110.28571428571428</ele><time>2026-04-26T08:31:52.157Z</time></trkpt><trkpt lat="40.9230517" lon="14.1675717"><ele>110.42857142857142</ele><time>2026-04-26T08:31:53.159Z</time></trkpt><trkpt lat="40.92307" lon="14.1676617"><ele>110.57142857142857</ele><time>2026-04-26T08:31:54.158Z</time></trkpt><trkpt lat="40.9230883" lon="14.16775"><ele>110.71428571428572</ele><time>2026-04-26T08:31:55.159Z</time></trkpt><trkpt lat="40.9231067" lon="14.1678383"><ele>110.85714285714285</ele><time>2026-04-26T08:31:56.159Z</time></trkpt><trkpt lat="40.9231267" lon="14.1679233"><ele>111.0</ele><time>2026-04-26T08:31:57.158Z</time></trkpt><trkpt lat="40.923145" lon="14.16801"><ele>111.0</ele><time>2026-04-26T08:31:58.157Z</time></trkpt><trkpt lat="40.9231683" lon="14.1680983"><ele>111.0</ele><time>2026-04-26T08:31:59.157Z</time></trkpt><trkpt lat="40.9231917" lon="14.1681917"><ele>111.0</ele><time>2026-04-26T08:32:00.158Z</time></trkpt><trkpt lat="40.9232217" lon="14.1682833"><ele>111.0</ele><time>2026-04-26T08:32:01.159Z</time></trkpt><trkpt lat="40.9232517" lon="14.168375"><ele>111.0</ele><time>2026-04-26T08:32:02.158Z</time></trkpt><trkpt lat="40.9232833" lon="14.168465"><ele>111.0</ele><time>2026-04-26T08:32:03.158Z</time></trkpt><trkpt lat="40.923315" lon="14.16855"><ele>111.0</ele><time>2026-04-26T08:32:04.157Z</time></trkpt><trkpt lat="40.9233417" lon="14.1686467"><ele>110.83333333333333</ele><time>2026-04-26T08:32:05.159Z</time></trkpt><trkpt lat="40.9233667" lon="14.1687367"><ele>110.66666666666666</ele><time>2026-04-26T08:32:06.159Z</time></trkpt><trkpt lat="40.9233833" lon="14.1688283"><ele>110.5</ele><time>2026-04-26T08:32:07.158Z</time></trkpt><trkpt lat="40.9234" lon="14.1689917"><ele>110.33333333333333</ele><time>2026-04-26T08:32:09.157Z</time></trkpt><trkpt lat="40.9234033" lon="14.169075"><ele>110.16666666666666</ele><time>2026-04-26T08:32:10.159Z</time></trkpt><trkpt lat="40.9234083" lon="14.1691667"><ele>110.0</ele><time>2026-04-26T08:32:11.159Z</time></trkpt><trkpt lat="40.9234133" lon="14.1692567"><ele>109.99999999999999</ele><time>2026-04-26T08:32:12.158Z</time></trkpt><trkpt lat="40.9234167" lon="14.1693517"><ele>110.0</ele><time>2026-04-26T08:32:13.158Z</time></trkpt><trkpt lat="40.9234167" lon="14.1694433"><ele>110.0</ele><time>2026-04-26T08:32:14.164Z</time></trkpt><trkpt lat="40.923415" lon="14.1695317"><ele>110.0</ele><time>2026-04-26T08:32:15.159Z</time></trkpt><trkpt lat="40.9234133" lon="14.1696183"><ele>110.0</ele><time>2026-04-26T08:32:16.157Z</time></trkpt><trkpt lat="40.9234067" lon="14.169705"><ele>109.99999999999999</ele><time>2026-04-26T08:32:17.157Z</time></trkpt><trkpt lat="40.9233933" lon="14.169795"><ele>110.0</ele><time>2026-04-26T08:32:18.162Z</time></trkpt><trkpt lat="40.9233783" lon="14.1698817"><ele>109.99999999999999</ele><time>2026-04-26T08:32:19.157Z</time></trkpt><trkpt lat="40.92336" lon="14.16997"><ele>110.0</ele><time>2026-04-26T08:32:20.16Z</time></trkpt><trkpt lat="40.9233417" lon="14.1700567"><ele>110.0</ele><time>2026-04-26T08:32:21.161Z</time></trkpt><trkpt lat="40.9233217" lon="14.1701417"><ele>110.0</ele><time>2026-04-26T08:32:22.16Z</time></trkpt><trkpt lat="40.923295" lon="14.17022"><ele>110.0</ele><time>2026-04-26T08:32:23.159Z</time></trkpt><trkpt lat="40.92327" lon="14.1703033"><ele>109.99999999999999</ele><time>2026-04-26T08:32:24.159Z</time></trkpt><trkpt lat="40.9232417" lon="14.1703883"><ele>110.0</ele><time>2026-04-26T08:32:25.159Z</time></trkpt><trkpt lat="40.9232117" lon="14.1704733"><ele>109.99999999999999</ele><time>2026-04-26T08:32:26.159Z</time></trkpt><trkpt lat="40.9231833" lon="14.170565"><ele>110.0</ele><time>2026-04-26T08:32:27.158Z</time></trkpt><trkpt lat="40.9231533" lon="14.1706567"><ele>110.0</ele><time>2026-04-26T08:32:28.159Z</time></trkpt><trkpt lat="40.9231233" lon="14.170745"><ele>110.0</ele><time>2026-04-26T08:32:29.158Z</time></trkpt><trkpt lat="40.923095" lon="14.1708367"><ele>110.0</ele><time>2026-04-26T08:32:30.158Z</time></trkpt><trkpt lat="40.923065" lon="14.1709283"><ele>109.99999999999999</ele><time>2026-04-26T08:32:31.157Z</time></trkpt><trkpt lat="40.9230367" lon="14.1710183"><ele>110.0</ele><time>2026-04-26T08:32:32.158Z</time></trkpt><trkpt lat="40.9230083" lon="14.1711067"><ele>109.99999999999999</ele><time>2026-04-26T08:32:33.159Z</time></trkpt><trkpt lat="40.9229817" lon="14.1711933"><ele>110.0</ele><time>2026-04-26T08:32:34.159Z</time></trkpt><trkpt lat="40.922955" lon="14.171275"><ele>110.0</ele><time>2026-04-26T08:32:35.159Z</time></trkpt><trkpt lat="40.9229283" lon="14.1713633"><ele>110.0</ele><time>2026-04-26T08:32:36.158Z</time></trkpt><trkpt lat="40.9228983" lon="14.1714483"><ele>110.0</ele><time>2026-04-26T08:32:37.158Z</time></trkpt><trkpt lat="40.9228717" lon="14.1715333"><ele>109.99999999999999</ele><time>2026-04-26T08:32:38.158Z</time></trkpt><trkpt lat="40.9228417" lon="14.1716167"><ele>110.0</ele><time>2026-04-26T08:32:39.159Z</time></trkpt><trkpt lat="40.9228133" lon="14.1717033"><ele>110.16666666666666</ele><time>2026-04-26T08:32:40.157Z</time></trkpt><trkpt lat="40.9227867" lon="14.17179"><ele>110.33333333333333</ele><time>2026-04-26T08:32:41.157Z</time></trkpt><trkpt lat="40.9227617" lon="14.17188"><ele>110.5</ele><time>2026-04-26T08:32:42.157Z</time></trkpt><trkpt lat="40.9227283" lon="14.171965"><ele>110.66666666666666</ele><time>2026-04-26T08:32:43.158Z</time></trkpt><trkpt lat="40.9227" lon="14.1720533"><ele>110.83333333333333</ele><time>2026-04-26T08:32:44.157Z</time></trkpt><trkpt lat="40.9226733" lon="14.172135"><ele>111.0</ele><time>2026-04-26T08:32:45.159Z</time></trkpt><trkpt lat="40.9226367" lon="14.1722917"><ele>111.0</ele><time>2026-04-26T08:32:47.157Z</time></trkpt><trkpt lat="40.9226033" lon="14.17237"><ele>111.0</ele><time>2026-04-26T08:32:48.157Z</time></trkpt><trkpt lat="40.9225583" lon="14.1725267"><ele>111.0</ele><time>2026-04-26T08:32:50.158Z</time></trkpt><trkpt lat="40.9225367" lon="14.17261"><ele>111.0</ele><time>2026-04-26T08:32:51.158Z</time></trkpt><trkpt lat="40.9225133" lon="14.1726883"><ele>111.0</ele><time>2026-04-26T08:32:52.161Z</time></trkpt><trkpt lat="40.9224883" lon="14.1727717"><ele>111.0</ele><time>2026-04-26T08:32:53.157Z</time></trkpt><trkpt lat="40.9224383" lon="14.1729217"><ele>111.0</ele><time>2026-04-26T08:32:55.158Z</time></trkpt><trkpt lat="40.92241" lon="14.1729983"><ele>111.0</ele><time>2026-04-26T08:32:56.158Z</time></trkpt><trkpt lat="40.92238" lon="14.1730767"><ele>111.0</ele><time>2026-04-26T08:32:57.157Z</time></trkpt><trkpt lat="40.9223483" lon="14.1731517"><ele>111.0</ele><time>2026-04-26T08:32:58.157Z</time></trkpt><trkpt lat="40.9223233" lon="14.1732317"><ele>111.0</ele><time>2026-04-26T08:32:59.158Z</time></trkpt><trkpt lat="40.9223033" lon="14.1733183"><ele>111.0</ele><time>2026-04-26T08:33:00.158Z</time></trkpt><trkpt lat="40.9222833" lon="14.1734083"><ele>111.0</ele><time>2026-04-26T08:33:01.158Z</time></trkpt><trkpt lat="40.9222583" lon="14.173495"><ele>111.0</ele><time>2026-04-26T08:33:02.158Z</time></trkpt><trkpt lat="40.9222333" lon="14.1735833"><ele>111.0</ele><time>2026-04-26T08:33:03.157Z</time></trkpt><trkpt lat="40.9222067" lon="14.1736717"><ele>111.0</ele><time>2026-04-26T08:33:04.157Z</time></trkpt><trkpt lat="40.9221783" lon="14.1737533"><ele>111.0</ele><time>2026-04-26T08:33:05.158Z</time></trkpt><trkpt lat="40.92215" lon="14.1738317"><ele>111.0</ele><time>2026-04-26T08:33:06.157Z</time></trkpt><trkpt lat="40.922125" lon="14.1739083"><ele>111.0</ele><time>2026-04-26T08:33:07.159Z</time></trkpt><trkpt lat="40.9221" lon="14.1739967"><ele>111.0</ele><time>2026-04-26T08:33:08.159Z</time></trkpt><trkpt lat="40.9220767" lon="14.1740833"><ele>111.14285714285714</ele><time>2026-04-26T08:33:09.157Z</time></trkpt><trkpt lat="40.9220483" lon="14.174165"><ele>111.28571428571429</ele><time>2026-04-26T08:33:10.158Z</time></trkpt><trkpt lat="40.9220233" lon="14.1742517"><ele>111.42857142857143</ele><time>2026-04-26T08:33:11.159Z</time></trkpt><trkpt lat="40.9219967" lon="14.17434"><ele>111.57142857142857</ele><time>2026-04-26T08:33:12.158Z</time></trkpt><trkpt lat="40.9219683" lon="14.1744233"><ele>111.71428571428572</ele><time>2026-04-26T08:33:13.157Z</time></trkpt><trkpt lat="40.9219417" lon="14.1745067"><ele>111.85714285714286</ele><time>2026-04-26T08:33:14.158Z</time></trkpt><trkpt lat="40.9219167" lon="14.1745917"><ele>112.0</ele><time>2026-04-26T08:33:15.158Z</time></trkpt><trkpt lat="40.9218933" lon="14.174675"><ele>112.0</ele><time>2026-04-26T08:33:16.159Z</time></trkpt><trkpt lat="40.9218667" lon="14.17476"><ele>112.0</ele><time>2026-04-26T08:33:17.157Z</time></trkpt><trkpt lat="40.9218383" lon="14.1748417"><ele>112.0</ele><time>2026-04-26T08:33:18.159Z</time></trkpt><trkpt lat="40.921815" lon="14.17492"><ele>112.0</ele><time>2026-04-26T08:33:19.157Z</time></trkpt><trkpt lat="40.9217917" lon="14.1750033"><ele>112.0</ele><time>2026-04-26T08:33:20.158Z</time></trkpt><trkpt lat="40.9217617" lon="14.1750867"><ele>112.0</ele><time>2026-04-26T08:33:21.157Z</time></trkpt><trkpt lat="40.9217283" lon="14.1751717"><ele>112.0</ele><time>2026-04-26T08:33:22.158Z</time></trkpt><trkpt lat="40.9217033" lon="14.175265"><ele>112.0</ele><time>2026-04-26T08:33:23.157Z</time></trkpt><trkpt lat="40.9216767" lon="14.175355"><ele>112.0</ele><time>2026-04-26T08:33:24.158Z</time></trkpt><trkpt lat="40.9216483" lon="14.175445"><ele>112.0</ele><time>2026-04-26T08:33:25.158Z</time></trkpt><trkpt lat="40.9216167" lon="14.17553"><ele>112.0</ele><time>2026-04-26T08:33:26.159Z</time></trkpt><trkpt lat="40.9215867" lon="14.1756217"><ele>112.0</ele><time>2026-04-26T08:33:27.158Z</time></trkpt><trkpt lat="40.92156" lon="14.1757133"><ele>112.0</ele><time>2026-04-26T08:33:28.157Z</time></trkpt><trkpt lat="40.9215333" lon="14.1758067"><ele>112.0</ele><time>2026-04-26T08:33:29.158Z</time></trkpt><trkpt lat="40.9215067" lon="14.1759"><ele>111.83333333333334</ele><time>2026-04-26T08:33:30.159Z</time></trkpt><trkpt lat="40.921475" lon="14.1759933"><ele>111.66666666666667</ele><time>2026-04-26T08:33:31.157Z</time></trkpt><trkpt lat="40.9214433" lon="14.176085"><ele>111.5</ele><time>2026-04-26T08:33:32.158Z</time></trkpt><trkpt lat="40.921415" lon="14.1761767"><ele>111.33333333333334</ele><time>2026-04-26T08:33:33.158Z</time></trkpt><trkpt lat="40.921385" lon="14.1762683"><ele>111.16666666666667</ele><time>2026-04-26T08:33:34.157Z</time></trkpt><trkpt lat="40.921355" lon="14.1763583"><ele>111.0</ele><time>2026-04-26T08:33:35.157Z</time></trkpt><trkpt lat="40.9213267" lon="14.1764517"><ele>111.0</ele><time>2026-04-26T08:33:36.158Z</time></trkpt><trkpt lat="40.9212967" lon="14.1765467"><ele>111.0</ele><time>2026-04-26T08:33:37.158Z</time></trkpt><trkpt lat="40.9212617" lon="14.17664"><ele>111.0</ele><time>2026-04-26T08:33:38.159Z</time></trkpt><trkpt lat="40.9212317" lon="14.1767367"><ele>111.0</ele><time>2026-04-26T08:33:39.158Z</time></trkpt><trkpt lat="40.9212033" lon="14.1768317"><ele>111.0</ele><time>2026-04-26T08:33:40.159Z</time></trkpt><trkpt lat="40.92117" lon="14.1769217"><ele>111.0</ele><time>2026-04-26T08:33:41.158Z</time></trkpt><trkpt lat="40.9211383" lon="14.177015"><ele>111.0</ele><time>2026-04-26T08:33:42.159Z</time></trkpt><trkpt lat="40.9211083" lon="14.1771133"><ele>111.0</ele><time>2026-04-26T08:33:43.157Z</time></trkpt><trkpt lat="40.9210767" lon="14.1772117"><ele>111.0</ele><time>2026-04-26T08:33:44.158Z</time></trkpt><trkpt lat="40.921045" lon="14.1773067"><ele>111.0</ele><time>2026-04-26T08:33:45.158Z</time></trkpt><trkpt lat="40.9210133" lon="14.1774033"><ele>111.0</ele><time>2026-04-26T08:33:46.158Z</time></trkpt><trkpt lat="40.920985" lon="14.1775067"><ele>111.0</ele><time>2026-04-26T08:33:47.158Z</time></trkpt><trkpt lat="40.9209567" lon="14.1776067"><ele>111.0</ele><time>2026-04-26T08:33:48.159Z</time></trkpt><trkpt lat="40.9209233" lon="14.1777"><ele>111.0</ele><time>2026-04-26T08:33:49.159Z</time></trkpt><trkpt lat="40.9208967" lon="14.1777933"><ele>111.0</ele><time>2026-04-26T08:33:50.158Z</time></trkpt><trkpt lat="40.9208733" lon="14.1778833"><ele>111.0</ele><time>2026-04-26T08:33:51.159Z</time></trkpt><trkpt lat="40.9208483" lon="14.177965"><ele>111.0</ele><time>2026-04-26T08:33:52.157Z</time></trkpt><trkpt lat="40.92082" lon="14.178045"><ele>111.0</ele><time>2026-04-26T08:33:53.158Z</time></trkpt><trkpt lat="40.9207917" lon="14.178125"><ele>111.0</ele><time>2026-04-26T08:33:54.158Z</time></trkpt><trkpt lat="40.9207617" lon="14.1782067"><ele>111.4</ele><time>2026-04-26T08:33:55.158Z</time></trkpt><trkpt lat="40.9207333" lon="14.178285"><ele>111.8</ele><time>2026-04-26T08:33:56.159Z</time></trkpt><trkpt lat="40.9206817" lon="14.178425"><ele>112.20000000000002</ele><time>2026-04-26T08:33:58.157Z</time></trkpt><trkpt lat="40.9206383" lon="14.1785683"><ele>112.60000000000001</ele><time>2026-04-26T08:34:00.162Z</time></trkpt><trkpt lat="40.9206017" lon="14.1787133"><ele>113.0</ele><time>2026-04-26T08:34:02.157Z</time></trkpt><trkpt lat="40.92056" lon="14.178865"><ele>113.0</ele><time>2026-04-26T08:34:04.157Z</time></trkpt><trkpt lat="40.920515" lon="14.179015"><ele>113.00000000000001</ele><time>2026-04-26T08:34:06.159Z</time></trkpt><trkpt lat="40.92047" lon="14.1791767"><ele>113.00000000000001</ele><time>2026-04-26T08:34:08.159Z</time></trkpt><trkpt lat="40.9204433" lon="14.179265"><ele>113.0</ele><time>2026-04-26T08:34:09.157Z</time></trkpt><trkpt lat="40.9204167" lon="14.1793517"><ele>113.0</ele><time>2026-04-26T08:34:10.157Z</time></trkpt><trkpt lat="40.9203917" lon="14.1794417"><ele>112.99999999999999</ele><time>2026-04-26T08:34:11.158Z</time></trkpt><trkpt lat="40.9203683" lon="14.1795333"><ele>113.0</ele><time>2026-04-26T08:34:12.158Z</time></trkpt><trkpt lat="40.920345" lon="14.1796317"><ele>113.0</ele><time>2026-04-26T08:34:13.159Z</time></trkpt><trkpt lat="40.9203183" lon="14.1797167"><ele>113.0</ele><time>2026-04-26T08:34:14.157Z</time></trkpt><trkpt lat="40.9202967" lon="14.1797967"><ele>112.99999999999999</ele><time>2026-04-26T08:34:15.157Z</time></trkpt><trkpt lat="40.9202667" lon="14.17987"><ele>113.0</ele><time>2026-04-26T08:34:16.162Z</time></trkpt><trkpt lat="40.9202217" lon="14.1800033"><ele>113.0</ele><time>2026-04-26T08:34:18.157Z</time></trkpt><trkpt lat="40.9201817" lon="14.1801267"><ele>113.00000000000001</ele><time>2026-04-26T08:34:20.171Z</time></trkpt><trkpt lat="40.9201433" lon="14.1802583"><ele>113.00000000000001</ele><time>2026-04-26T08:34:22.159Z</time></trkpt><trkpt lat="40.9201017" lon="14.1803983"><ele>113.0</ele><time>2026-04-26T08:34:24.158Z</time></trkpt><trkpt lat="40.9200567" lon="14.1805417"><ele>113.0</ele><time>2026-04-26T08:34:26.157Z</time></trkpt><trkpt lat="40.9200167" lon="14.1806883"><ele>113.2</ele><time>2026-04-26T08:34:28.156Z</time></trkpt><trkpt lat="40.919975" lon="14.1808317"><ele>113.4</ele><time>2026-04-26T08:34:30.156Z</time></trkpt><trkpt lat="40.9199283" lon="14.18099"><ele>113.60000000000001</ele><time>2026-04-26T08:34:32.156Z</time></trkpt><trkpt lat="40.9198817" lon="14.181125"><ele>113.80000000000001</ele><time>2026-04-26T08:34:34.155Z</time></trkpt><trkpt lat="40.9198567" lon="14.181205"><ele>114.0</ele><time>2026-04-26T08:34:35.157Z</time></trkpt><trkpt lat="40.91983" lon="14.1812817"><ele>114.0</ele><time>2026-04-26T08:34:36.157Z</time></trkpt><trkpt lat="40.9197783" lon="14.1814383"><ele>114.0</ele><time>2026-04-26T08:34:38.157Z</time></trkpt><trkpt lat="40.9197383" lon="14.181585"><ele>114.0</ele><time>2026-04-26T08:34:40.157Z</time></trkpt><trkpt lat="40.9196867" lon="14.1817233"><ele>114.0</ele><time>2026-04-26T08:34:42.156Z</time></trkpt><trkpt lat="40.9195967" lon="14.18184"><ele>114.0</ele><time>2026-04-26T08:34:44.157Z</time></trkpt><trkpt lat="40.9195483" lon="14.181895"><ele>114.0</ele><time>2026-04-26T08:34:45.157Z</time></trkpt><trkpt lat="40.9194833" lon="14.1820417"><ele>114.0</ele><time>2026-04-26T08:34:47.155Z</time></trkpt><trkpt lat="40.919465" lon="14.1821283"><ele>114.0</ele><time>2026-04-26T08:34:48.157Z</time></trkpt><trkpt lat="40.9194533" lon="14.1822233"><ele>114.0</ele><time>2026-04-26T08:34:49.157Z</time></trkpt><trkpt lat="40.9194483" lon="14.182335"><ele>114.0</ele><time>2026-04-26T08:34:50.156Z</time></trkpt><trkpt lat="40.9194383" lon="14.1824483"><ele>114.0</ele><time>2026-04-26T08:34:51.155Z</time></trkpt><trkpt lat="40.9194233" lon="14.18256"><ele>114.0</ele><time>2026-04-26T08:34:52.155Z</time></trkpt><trkpt lat="40.91941" lon="14.1826617"><ele>114.0</ele><time>2026-04-26T08:34:53.156Z</time></trkpt><trkpt lat="40.9193917" lon="14.18276"><ele>114.0</ele><time>2026-04-26T08:34:54.157Z</time></trkpt><trkpt lat="40.9193633" lon="14.1828567"><ele>114.0</ele><time>2026-04-26T08:34:55.157Z</time></trkpt><trkpt lat="40.9193317" lon="14.1829483"><ele>114.0</ele><time>2026-04-26T08:34:56.156Z</time></trkpt><trkpt lat="40.9193" lon="14.1830367"><ele>114.0</ele><time>2026-04-26T08:34:57.155Z</time></trkpt><trkpt lat="40.91927" lon="14.1831183"><ele>113.99999999999999</ele><time>2026-04-26T08:34:58.156Z</time></trkpt><trkpt lat="40.91924" lon="14.1832033"><ele>114.0</ele><time>2026-04-26T08:34:59.156Z</time></trkpt><trkpt lat="40.9192117" lon="14.1832883"><ele>114.0</ele><time>2026-04-26T08:35:00.157Z</time></trkpt><trkpt lat="40.9191867" lon="14.1833767"><ele>113.99999999999999</ele><time>2026-04-26T08:35:01.156Z</time></trkpt><trkpt lat="40.9191533" lon="14.18346"><ele>114.0</ele><time>2026-04-26T08:35:02.157Z</time></trkpt><trkpt lat="40.91912" lon="14.18354"><ele>114.0</ele><time>2026-04-26T08:35:03.157Z</time></trkpt><trkpt lat="40.9190883" lon="14.1836283"><ele>114.14285714285714</ele><time>2026-04-26T08:35:04.157Z</time></trkpt><trkpt lat="40.9190517" lon="14.1837167"><ele>114.28571428571428</ele><time>2026-04-26T08:35:05.158Z</time></trkpt><trkpt lat="40.9190167" lon="14.1837967"><ele>114.42857142857142</ele><time>2026-04-26T08:35:06.157Z</time></trkpt><trkpt lat="40.9189833" lon="14.1838733"><ele>114.57142857142856</ele><time>2026-04-26T08:35:07.156Z</time></trkpt><trkpt lat="40.91895" lon="14.1839617"><ele>114.71428571428571</ele><time>2026-04-26T08:35:08.157Z</time></trkpt><trkpt lat="40.9189183" lon="14.18405"><ele>114.85714285714283</ele><time>2026-04-26T08:35:09.156Z</time></trkpt><trkpt lat="40.9188867" lon="14.1841383"><ele>114.99999999999999</ele><time>2026-04-26T08:35:10.158Z</time></trkpt><trkpt lat="40.9188583" lon="14.1842267"><ele>114.7142857142857</ele><time>2026-04-26T08:35:11.157Z</time></trkpt><trkpt lat="40.918835" lon="14.1843233"><ele>114.42857142857142</ele><time>2026-04-26T08:35:12.156Z</time></trkpt><trkpt lat="40.9188083" lon="14.1844133"><ele>114.14285714285714</ele><time>2026-04-26T08:35:13.157Z</time></trkpt><trkpt lat="40.9187817" lon="14.1844967"><ele>113.85714285714285</ele><time>2026-04-26T08:35:14.157Z</time></trkpt><trkpt lat="40.9187533" lon="14.18458"><ele>113.57142857142856</ele><time>2026-04-26T08:35:15.156Z</time></trkpt><trkpt lat="40.9187283" lon="14.1846667"><ele>113.28571428571429</ele><time>2026-04-26T08:35:16.158Z</time></trkpt><trkpt lat="40.9187083" lon="14.1847533"><ele>113.0</ele><time>2026-04-26T08:35:17.157Z</time></trkpt><trkpt lat="40.9186817" lon="14.1849017"><ele>113.0</ele><time>2026-04-26T08:35:19.156Z</time></trkpt><trkpt lat="40.9186617" lon="14.1850167"><ele>113.00000000000001</ele><time>2026-04-26T08:35:21.156Z</time></trkpt><trkpt lat="40.91862" lon="14.1851433"><ele>113.00000000000001</ele><time>2026-04-26T08:35:23.156Z</time></trkpt><trkpt lat="40.9185517" lon="14.1852767"><ele>113.0</ele><time>2026-04-26T08:35:25.157Z</time></trkpt><trkpt lat="40.9185183" lon="14.1853633"><ele>113.0</ele><time>2026-04-26T08:35:26.156Z</time></trkpt><trkpt lat="40.9184867" lon="14.1854567"><ele>113.0</ele><time>2026-04-26T08:35:27.157Z</time></trkpt><trkpt lat="40.918455" lon="14.1855417"><ele>113.0</ele><time>2026-04-26T08:35:28.157Z</time></trkpt><trkpt lat="40.9184267" lon="14.1856333"><ele>113.0</ele><time>2026-04-26T08:35:29.157Z</time></trkpt><trkpt lat="40.9183983" lon="14.1857283"><ele>113.0</ele><time>2026-04-26T08:35:30.156Z</time></trkpt><trkpt lat="40.9183667" lon="14.1858183"><ele>113.0</ele><time>2026-04-26T08:35:31.156Z</time></trkpt><trkpt lat="40.9183367" lon="14.1859133"><ele>113.0</ele><time>2026-04-26T08:35:32.156Z</time></trkpt><trkpt lat="40.9183117" lon="14.1860033"><ele>113.0</ele><time>2026-04-26T08:35:33.156Z</time></trkpt><trkpt lat="40.9182833" lon="14.1860967"><ele>113.28571428571429</ele><time>2026-04-26T08:35:34.156Z</time></trkpt><trkpt lat="40.9182567" lon="14.1861867"><ele>113.57142857142856</ele><time>2026-04-26T08:35:35.16Z</time></trkpt><trkpt lat="40.9182333" lon="14.1862767"><ele>113.85714285714285</ele><time>2026-04-26T08:35:36.156Z</time></trkpt><trkpt lat="40.9182067" lon="14.1863633"><ele>114.14285714285714</ele><time>2026-04-26T08:35:37.156Z</time></trkpt><trkpt lat="40.9181767" lon="14.1864483"><ele>114.42857142857142</ele><time>2026-04-26T08:35:38.156Z</time></trkpt><trkpt lat="40.918145" lon="14.18654"><ele>114.7142857142857</ele><time>2026-04-26T08:35:39.156Z</time></trkpt><trkpt lat="40.9181167" lon="14.186625"><ele>114.99999999999999</ele><time>2026-04-26T08:35:40.156Z</time></trkpt><trkpt lat="40.9180883" lon="14.1867133"><ele>114.99999999999999</ele><time>2026-04-26T08:35:41.156Z</time></trkpt><trkpt lat="40.91806" lon="14.1868033"><ele>115.0</ele><time>2026-04-26T08:35:42.156Z</time></trkpt><trkpt lat="40.918025" lon="14.18689"><ele>114.99999999999999</ele><time>2026-04-26T08:35:43.157Z</time></trkpt><trkpt lat="40.9179933" lon="14.18697"><ele>114.99999999999999</ele><time>2026-04-26T08:35:44.157Z</time></trkpt><trkpt lat="40.917965" lon="14.187055"><ele>115.0</ele><time>2026-04-26T08:35:45.156Z</time></trkpt><trkpt lat="40.9179367" lon="14.1871483"><ele>114.99999999999999</ele><time>2026-04-26T08:35:46.156Z</time></trkpt><trkpt lat="40.9179067" lon="14.187235"><ele>114.99999999999999</ele><time>2026-04-26T08:35:47.156Z</time></trkpt><trkpt lat="40.9178733" lon="14.1873283"><ele>115.16666666666667</ele><time>2026-04-26T08:35:48.157Z</time></trkpt><trkpt lat="40.9178417" lon="14.1874283"><ele>115.33333333333334</ele><time>2026-04-26T08:35:49.156Z</time></trkpt><trkpt lat="40.91781" lon="14.1875283"><ele>115.5</ele><time>2026-04-26T08:35:50.156Z</time></trkpt><trkpt lat="40.9177833" lon="14.1876267"><ele>115.66666666666666</ele><time>2026-04-26T08:35:51.156Z</time></trkpt><trkpt lat="40.9177567" lon="14.187725"><ele>115.83333333333333</ele><time>2026-04-26T08:35:52.156Z</time></trkpt><trkpt lat="40.9177317" lon="14.18782"><ele>116.0</ele><time>2026-04-26T08:35:53.156Z</time></trkpt><trkpt lat="40.9177067" lon="14.1879117"><ele>116.00000000000001</ele><time>2026-04-26T08:35:54.164Z</time></trkpt><trkpt lat="40.9176817" lon="14.1880067"><ele>116.0</ele><time>2026-04-26T08:35:55.156Z</time></trkpt><trkpt lat="40.917655" lon="14.1881017"><ele>116.00000000000001</ele><time>2026-04-26T08:35:56.157Z</time></trkpt><trkpt lat="40.9176317" lon="14.1881917"><ele>116.00000000000001</ele><time>2026-04-26T08:35:57.157Z</time></trkpt><trkpt lat="40.9176067" lon="14.1882833"><ele>116.0</ele><time>2026-04-26T08:35:58.155Z</time></trkpt><trkpt lat="40.917585" lon="14.188375"><ele>116.00000000000001</ele><time>2026-04-26T08:35:59.156Z</time></trkpt><trkpt lat="40.9175667" lon="14.1884683"><ele>116.00000000000001</ele><time>2026-04-26T08:36:00.156Z</time></trkpt><trkpt lat="40.9175483" lon="14.1885667"><ele>115.99999999999999</ele><time>2026-04-26T08:36:01.156Z</time></trkpt><trkpt lat="40.9175283" lon="14.1886667"><ele>116.0</ele><time>2026-04-26T08:36:02.161Z</time></trkpt><trkpt lat="40.917505" lon="14.1887617"><ele>116.0</ele><time>2026-04-26T08:36:03.156Z</time></trkpt><trkpt lat="40.917485" lon="14.1888567"><ele>116.0</ele><time>2026-04-26T08:36:04.156Z</time></trkpt><trkpt lat="40.91747" lon="14.18895"><ele>115.99999999999999</ele><time>2026-04-26T08:36:05.156Z</time></trkpt><trkpt lat="40.9174517" lon="14.1890467"><ele>116.0</ele><time>2026-04-26T08:36:06.155Z</time></trkpt><trkpt lat="40.9174333" lon="14.1891483"><ele>115.99999999999999</ele><time>2026-04-26T08:36:07.156Z</time></trkpt><trkpt lat="40.91741" lon="14.1892467"><ele>116.0</ele><time>2026-04-26T08:36:08.156Z</time></trkpt><trkpt lat="40.9173883" lon="14.1893433"><ele>116.0</ele><time>2026-04-26T08:36:09.156Z</time></trkpt><trkpt lat="40.9173733" lon="14.189445"><ele>116.0</ele><time>2026-04-26T08:36:10.156Z</time></trkpt><trkpt lat="40.917355" lon="14.1895517"><ele>115.99999999999999</ele><time>2026-04-26T08:36:11.156Z</time></trkpt><trkpt lat="40.9173383" lon="14.189655"><ele>116.0</ele><time>2026-04-26T08:36:12.157Z</time></trkpt><trkpt lat="40.91732" lon="14.1897583"><ele>115.83333333333333</ele><time>2026-04-26T08:36:13.156Z</time></trkpt><trkpt lat="40.9173033" lon="14.18985"><ele>115.66666666666666</ele><time>2026-04-26T08:36:14.155Z</time></trkpt><trkpt lat="40.91729" lon="14.1899467"><ele>115.5</ele><time>2026-04-26T08:36:15.156Z</time></trkpt><trkpt lat="40.9172733" lon="14.1900433"><ele>115.33333333333334</ele><time>2026-04-26T08:36:16.157Z</time></trkpt><trkpt lat="40.917255" lon="14.190145"><ele>115.16666666666667</ele><time>2026-04-26T08:36:17.156Z</time></trkpt><trkpt lat="40.9172383" lon="14.1902433"><ele>115.0</ele><time>2026-04-26T08:36:18.156Z</time></trkpt><trkpt lat="40.917225" lon="14.190345"><ele>115.00000000000001</ele><time>2026-04-26T08:36:19.156Z</time></trkpt><trkpt lat="40.9172133" lon="14.190445"><ele>115.0</ele><time>2026-04-26T08:36:20.159Z</time></trkpt><trkpt lat="40.9172017" lon="14.1905483"><ele>115.0</ele><time>2026-04-26T08:36:21.156Z</time></trkpt><trkpt lat="40.9171917" lon="14.1906517"><ele>115.0</ele><time>2026-04-26T08:36:22.156Z</time></trkpt><trkpt lat="40.9171833" lon="14.190755"><ele>115.00000000000001</ele><time>2026-04-26T08:36:23.156Z</time></trkpt><trkpt lat="40.917175" lon="14.1908567"><ele>115.0</ele><time>2026-04-26T08:36:24.156Z</time></trkpt><trkpt lat="40.91717" lon="14.1909633"><ele>115.00000000000001</ele><time>2026-04-26T08:36:25.156Z</time></trkpt><trkpt lat="40.9171683" lon="14.1910733"><ele>115.0</ele><time>2026-04-26T08:36:26.157Z</time></trkpt><trkpt lat="40.917165" lon="14.19118"><ele>115.0</ele><time>2026-04-26T08:36:27.156Z</time></trkpt><trkpt lat="40.9171583" lon="14.191285"><ele>115.0</ele><time>2026-04-26T08:36:28.157Z</time></trkpt><trkpt lat="40.9171533" lon="14.1913933"><ele>115.00000000000001</ele><time>2026-04-26T08:36:29.156Z</time></trkpt><trkpt lat="40.9171483" lon="14.1914983"><ele>115.0</ele><time>2026-04-26T08:36:30.157Z</time></trkpt><trkpt lat="40.917145" lon="14.1916017"><ele>115.00000000000001</ele><time>2026-04-26T08:36:31.157Z</time></trkpt><trkpt lat="40.9171433" lon="14.1917083"><ele>115.0</ele><time>2026-04-26T08:36:32.158Z</time></trkpt><trkpt lat="40.9171383" lon="14.1918167"><ele>115.0</ele><time>2026-04-26T08:36:33.156Z</time></trkpt><trkpt lat="40.9171333" lon="14.1919233"><ele>115.0</ele><time>2026-04-26T08:36:34.155Z</time></trkpt><trkpt lat="40.91713" lon="14.1920283"><ele>115.00000000000001</ele><time>2026-04-26T08:36:35.157Z</time></trkpt><trkpt lat="40.9171267" lon="14.19213"><ele>115.0</ele><time>2026-04-26T08:36:36.164Z</time></trkpt><trkpt lat="40.9171233" lon="14.19223"><ele>115.00000000000001</ele><time>2026-04-26T08:36:37.156Z</time></trkpt><trkpt lat="40.9171183" lon="14.1923367"><ele>115.0</ele><time>2026-04-26T08:36:38.157Z</time></trkpt><trkpt lat="40.91712" lon="14.1924433"><ele>115.0</ele><time>2026-04-26T08:36:39.156Z</time></trkpt><trkpt lat="40.9171167" lon="14.1925467"><ele>115.0</ele><time>2026-04-26T08:36:40.156Z</time></trkpt><trkpt lat="40.91712" lon="14.192655"><ele>115.00000000000001</ele><time>2026-04-26T08:36:41.156Z</time></trkpt><trkpt lat="40.9171233" lon="14.1927617"><ele>115.0</ele><time>2026-04-26T08:36:42.156Z</time></trkpt><trkpt lat="40.9171283" lon="14.192865"><ele>115.16666666666667</ele><time>2026-04-26T08:36:43.156Z</time></trkpt><trkpt lat="40.917135" lon="14.1929733"><ele>115.33333333333334</ele><time>2026-04-26T08:36:44.157Z</time></trkpt><trkpt lat="40.9171417" lon="14.19308"><ele>115.5</ele><time>2026-04-26T08:36:45.157Z</time></trkpt><trkpt lat="40.9171433" lon="14.1931983"><ele>115.66666666666666</ele><time>2026-04-26T08:36:46.156Z</time></trkpt><trkpt lat="40.917145" lon="14.1933117"><ele>115.83333333333333</ele><time>2026-04-26T08:36:47.155Z</time></trkpt><trkpt lat="40.9171533" lon="14.1934133"><ele>116.0</ele><time>2026-04-26T08:36:48.156Z</time></trkpt><trkpt lat="40.9171633" lon="14.193515"><ele>115.66666666666666</ele><time>2026-04-26T08:36:49.157Z</time></trkpt><trkpt lat="40.9171733" lon="14.1936167"><ele>115.33333333333333</ele><time>2026-04-26T08:36:50.157Z</time></trkpt><trkpt lat="40.9171717" lon="14.1937267"><ele>115.0</ele><time>2026-04-26T08:36:51.157Z</time></trkpt><trkpt lat="40.9171783" lon="14.193825"><ele>114.66666666666666</ele><time>2026-04-26T08:36:52.155Z</time></trkpt><trkpt lat="40.9171867" lon="14.1939267"><ele>114.33333333333333</ele><time>2026-04-26T08:36:53.156Z</time></trkpt><trkpt lat="40.9171917" lon="14.1940267"><ele>114.0</ele><time>2026-04-26T08:36:54.156Z</time></trkpt><trkpt lat="40.9171933" lon="14.1941283"><ele>114.0</ele><time>2026-04-26T08:36:55.156Z</time></trkpt><trkpt lat="40.9171967" lon="14.19423"><ele>114.0</ele><time>2026-04-26T08:36:56.156Z</time></trkpt><trkpt lat="40.9172017" lon="14.1943333"><ele>114.0</ele><time>2026-04-26T08:36:57.158Z</time></trkpt><trkpt lat="40.9172067" lon="14.194435"><ele>114.0</ele><time>2026-04-26T08:36:58.156Z</time></trkpt><trkpt lat="40.9172083" lon="14.1945333"><ele>114.0</ele><time>2026-04-26T08:36:59.156Z</time></trkpt><trkpt lat="40.9172183" lon="14.1946333"><ele>114.0</ele><time>2026-04-26T08:37:00.156Z</time></trkpt><trkpt lat="40.9172267" lon="14.1947367"><ele>114.33333333333333</ele><time>2026-04-26T08:37:01.155Z</time></trkpt><trkpt lat="40.91723" lon="14.1948417"><ele>114.66666666666666</ele><time>2026-04-26T08:37:02.156Z</time></trkpt><trkpt lat="40.9172333" lon="14.19494"><ele>115.0</ele><time>2026-04-26T08:37:03.156Z</time></trkpt><trkpt lat="40.9172317" lon="14.1950383"><ele>115.33333333333333</ele><time>2026-04-26T08:37:04.158Z</time></trkpt><trkpt lat="40.91723" lon="14.1951367"><ele>115.66666666666666</ele><time>2026-04-26T08:37:05.156Z</time></trkpt><trkpt lat="40.9172333" lon="14.1952417"><ele>116.0</ele><time>2026-04-26T08:37:06.157Z</time></trkpt><trkpt lat="40.9172367" lon="14.1953483"><ele>115.99999999999999</ele><time>2026-04-26T08:37:07.157Z</time></trkpt><trkpt lat="40.9172367" lon="14.1954617"><ele>116.0</ele><time>2026-04-26T08:37:08.156Z</time></trkpt><trkpt lat="40.9172283" lon="14.1955717"><ele>116.0</ele><time>2026-04-26T08:37:09.156Z</time></trkpt><trkpt lat="40.9172133" lon="14.1956833"><ele>116.0</ele><time>2026-04-26T08:37:10.156Z</time></trkpt><trkpt lat="40.91719" lon="14.19579"><ele>115.99999999999999</ele><time>2026-04-26T08:37:11.155Z</time></trkpt><trkpt lat="40.91716" lon="14.1959033"><ele>116.0</ele><time>2026-04-26T08:37:12.156Z</time></trkpt><trkpt lat="40.9171267" lon="14.196015"><ele>116.16666666666666</ele><time>2026-04-26T08:37:13.156Z</time></trkpt><trkpt lat="40.9170933" lon="14.19613"><ele>116.33333333333333</ele><time>2026-04-26T08:37:14.157Z</time></trkpt><trkpt lat="40.91707" lon="14.1962417"><ele>116.5</ele><time>2026-04-26T08:37:15.155Z</time></trkpt><trkpt lat="40.9170617" lon="14.1963433"><ele>116.66666666666666</ele><time>2026-04-26T08:37:16.156Z</time></trkpt><trkpt lat="40.91707" lon="14.19644"><ele>116.83333333333333</ele><time>2026-04-26T08:37:17.156Z</time></trkpt><trkpt lat="40.917105" lon="14.19654"><ele>117.0</ele><time>2026-04-26T08:37:18.157Z</time></trkpt><trkpt lat="40.9171467" lon="14.19663"><ele>116.66666666666667</ele><time>2026-04-26T08:37:19.157Z</time></trkpt><trkpt lat="40.9171817" lon="14.1967267"><ele>116.33333333333334</ele><time>2026-04-26T08:37:20.156Z</time></trkpt><trkpt lat="40.9172133" lon="14.196825"><ele>116.0</ele><time>2026-04-26T08:37:21.156Z</time></trkpt><trkpt lat="40.9172433" lon="14.19693"><ele>115.66666666666667</ele><time>2026-04-26T08:37:22.155Z</time></trkpt><trkpt lat="40.917265" lon="14.1970367"><ele>115.33333333333334</ele><time>2026-04-26T08:37:23.157Z</time></trkpt><trkpt lat="40.9172767" lon="14.197145"><ele>115.0</ele><time>2026-04-26T08:37:24.157Z</time></trkpt><trkpt lat="40.917275" lon="14.1972633"><ele>115.16666666666667</ele><time>2026-04-26T08:37:25.157Z</time></trkpt><trkpt lat="40.9172583" lon="14.19738"><ele>115.33333333333334</ele><time>2026-04-26T08:37:26.159Z</time></trkpt><trkpt lat="40.9172383" lon="14.1974967"><ele>115.5</ele><time>2026-04-26T08:37:27.157Z</time></trkpt><trkpt lat="40.9172217" lon="14.197615"><ele>115.66666666666666</ele><time>2026-04-26T08:37:28.156Z</time></trkpt><trkpt lat="40.9172133" lon="14.1977333"><ele>115.83333333333333</ele><time>2026-04-26T08:37:29.158Z</time></trkpt><trkpt lat="40.917205" lon="14.1978483"><ele>116.0</ele><time>2026-04-26T08:37:30.157Z</time></trkpt><trkpt lat="40.9171983" lon="14.1979633"><ele>116.0</ele><time>2026-04-26T08:37:31.156Z</time></trkpt><trkpt lat="40.9171917" lon="14.19808"><ele>116.0</ele><time>2026-04-26T08:37:32.156Z</time></trkpt><trkpt lat="40.9171833" lon="14.1981983"><ele>116.0</ele><time>2026-04-26T08:37:33.156Z</time></trkpt><trkpt lat="40.9171733" lon="14.1983167"><ele>116.0</ele><time>2026-04-26T08:37:34.156Z</time></trkpt><trkpt lat="40.9171633" lon="14.1984367"><ele>116.0</ele><time>2026-04-26T08:37:35.155Z</time></trkpt><trkpt lat="40.91716" lon="14.1985567"><ele>115.6</ele><time>2026-04-26T08:37:36.156Z</time></trkpt><trkpt lat="40.9171483" lon="14.19868"><ele>115.19999999999999</ele><time>2026-04-26T08:37:37.156Z</time></trkpt><trkpt lat="40.917135" lon="14.1988033"><ele>114.80000000000001</ele><time>2026-04-26T08:37:38.156Z</time></trkpt><trkpt lat="40.9171183" lon="14.1989233"><ele>114.4</ele><time>2026-04-26T08:37:39.156Z</time></trkpt><trkpt lat="40.9171017" lon="14.199045"><ele>114.0</ele><time>2026-04-26T08:37:40.156Z</time></trkpt><trkpt lat="40.9170767" lon="14.1991667"><ele>113.80000000000001</ele><time>2026-04-26T08:37:41.157Z</time></trkpt><trkpt lat="40.9170567" lon="14.199285"><ele>113.60000000000001</ele><time>2026-04-26T08:37:42.156Z</time></trkpt><trkpt lat="40.9170417" lon="14.199405"><ele>113.4</ele><time>2026-04-26T08:37:43.156Z</time></trkpt><trkpt lat="40.917035" lon="14.1995267"><ele>113.2</ele><time>2026-04-26T08:37:44.165Z</time></trkpt><trkpt lat="40.9170283" lon="14.1996483"><ele>113.0</ele><time>2026-04-26T08:37:45.155Z</time></trkpt><trkpt lat="40.9170267" lon="14.1997733"><ele>112.60000000000001</ele><time>2026-04-26T08:37:46.156Z</time></trkpt><trkpt lat="40.9170283" lon="14.1998967"><ele>112.20000000000002</ele><time>2026-04-26T08:37:47.156Z</time></trkpt><trkpt lat="40.9170317" lon="14.2000217"><ele>111.8</ele><time>2026-04-26T08:37:48.156Z</time></trkpt><trkpt lat="40.91703" lon="14.2001417"><ele>111.4</ele><time>2026-04-26T08:37:49.155Z</time></trkpt><trkpt lat="40.9170233" lon="14.2002617"><ele>111.0</ele><time>2026-04-26T08:37:50.157Z</time></trkpt><trkpt lat="40.9170133" lon="14.2003867"><ele>111.0</ele><time>2026-04-26T08:37:51.155Z</time></trkpt><trkpt lat="40.9170017" lon="14.200505"><ele>111.0</ele><time>2026-04-26T08:37:52.155Z</time></trkpt><trkpt lat="40.9169883" lon="14.2006317"><ele>111.0</ele><time>2026-04-26T08:37:53.156Z</time></trkpt><trkpt lat="40.9169767" lon="14.200755"><ele>111.0</ele><time>2026-04-26T08:37:54.157Z</time></trkpt><trkpt lat="40.91697" lon="14.2008767"><ele>111.0</ele><time>2026-04-26T08:37:55.155Z</time></trkpt><trkpt lat="40.9169617" lon="14.2009967"><ele>111.0</ele><time>2026-04-26T08:37:56.156Z</time></trkpt><trkpt lat="40.916955" lon="14.2011183"><ele>111.0</ele><time>2026-04-26T08:37:57.155Z</time></trkpt><trkpt lat="40.91695" lon="14.2012367"><ele>111.0</ele><time>2026-04-26T08:37:58.156Z</time></trkpt><trkpt lat="40.916945" lon="14.20135"><ele>111.0</ele><time>2026-04-26T08:37:59.157Z</time></trkpt><trkpt lat="40.91694" lon="14.2014633"><ele>111.0</ele><time>2026-04-26T08:38:00.157Z</time></trkpt><trkpt lat="40.9169317" lon="14.2015717"><ele>111.0</ele><time>2026-04-26T08:38:01.155Z</time></trkpt><trkpt lat="40.9169267" lon="14.2016833"><ele>111.0</ele><time>2026-04-26T08:38:02.156Z</time></trkpt><trkpt lat="40.91692" lon="14.201795"><ele>111.0</ele><time>2026-04-26T08:38:03.156Z</time></trkpt><trkpt lat="40.9169117" lon="14.201905"><ele>111.0</ele><time>2026-04-26T08:38:04.157Z</time></trkpt><trkpt lat="40.9169" lon="14.2020117"><ele>111.0</ele><time>2026-04-26T08:38:05.157Z</time></trkpt><trkpt lat="40.91689" lon="14.2021233"><ele>111.0</ele><time>2026-04-26T08:38:06.158Z</time></trkpt><trkpt lat="40.9168817" lon="14.2022333"><ele>111.0</ele><time>2026-04-26T08:38:07.156Z</time></trkpt><trkpt lat="40.9168733" lon="14.2023433"><ele>111.0</ele><time>2026-04-26T08:38:08.156Z</time></trkpt><trkpt lat="40.916865" lon="14.2024533"><ele>111.0</ele><time>2026-04-26T08:38:09.158Z</time></trkpt><trkpt lat="40.9168567" lon="14.2025617"><ele>111.0</ele><time>2026-04-26T08:38:10.156Z</time></trkpt><trkpt lat="40.91685" lon="14.2026683"><ele>111.0</ele><time>2026-04-26T08:38:11.158Z</time></trkpt><trkpt lat="40.916845" lon="14.202775"><ele>111.0</ele><time>2026-04-26T08:38:12.156Z</time></trkpt><trkpt lat="40.91684" lon="14.202885"><ele>111.0</ele><time>2026-04-26T08:38:13.157Z</time></trkpt><trkpt lat="40.9168333" lon="14.2029967"><ele>111.0</ele><time>2026-04-26T08:38:14.157Z</time></trkpt><trkpt lat="40.916825" lon="14.2031083"><ele>111.0</ele><time>2026-04-26T08:38:15.155Z</time></trkpt><trkpt lat="40.916815" lon="14.2032217"><ele>111.0</ele><time>2026-04-26T08:38:16.156Z</time></trkpt><trkpt lat="40.9168083" lon="14.2033367"><ele>111.0</ele><time>2026-04-26T08:38:17.157Z</time></trkpt><trkpt lat="40.9168017" lon="14.2034517"><ele>111.0</ele><time>2026-04-26T08:38:18.156Z</time></trkpt><trkpt lat="40.9167917" lon="14.2035633"><ele>111.0</ele><time>2026-04-26T08:38:19.156Z</time></trkpt><trkpt lat="40.9167817" lon="14.2036733"><ele>111.16666666666667</ele><time>2026-04-26T08:38:20.157Z</time></trkpt><trkpt lat="40.916775" lon="14.2037817"><ele>111.33333333333334</ele><time>2026-04-26T08:38:21.156Z</time></trkpt><trkpt lat="40.91677" lon="14.203885"><ele>111.5</ele><time>2026-04-26T08:38:22.157Z</time></trkpt><trkpt lat="40.9167633" lon="14.2039883"><ele>111.66666666666667</ele><time>2026-04-26T08:38:23.158Z</time></trkpt><trkpt lat="40.916755" lon="14.2040933"><ele>111.83333333333334</ele><time>2026-04-26T08:38:24.156Z</time></trkpt><trkpt lat="40.9167433" lon="14.2041983"><ele>112.0</ele><time>2026-04-26T08:38:25.156Z</time></trkpt><trkpt lat="40.9167317" lon="14.2043067"><ele>112.33333333333334</ele><time>2026-04-26T08:38:26.161Z</time></trkpt><trkpt lat="40.916725" lon="14.204415"><ele>112.66666666666667</ele><time>2026-04-26T08:38:27.157Z</time></trkpt><trkpt lat="40.9167183" lon="14.204525"><ele>113.0</ele><time>2026-04-26T08:38:28.156Z</time></trkpt><trkpt lat="40.9167117" lon="14.204635"><ele>113.33333333333334</ele><time>2026-04-26T08:38:29.158Z</time></trkpt><trkpt lat="40.916705" lon="14.2047467"><ele>113.66666666666667</ele><time>2026-04-26T08:38:30.157Z</time></trkpt><trkpt lat="40.9166983" lon="14.2048567"><ele>114.0</ele><time>2026-04-26T08:38:31.156Z</time></trkpt><trkpt lat="40.9166983" lon="14.2049633"><ele>114.0</ele><time>2026-04-26T08:38:32.157Z</time></trkpt><trkpt lat="40.916695" lon="14.2050683"><ele>114.0</ele><time>2026-04-26T08:38:33.156Z</time></trkpt><trkpt lat="40.916695" lon="14.2051717"><ele>114.0</ele><time>2026-04-26T08:38:34.156Z</time></trkpt><trkpt lat="40.916695" lon="14.205275"><ele>114.0</ele><time>2026-04-26T08:38:35.156Z</time></trkpt><trkpt lat="40.9166867" lon="14.2053783"><ele>114.0</ele><time>2026-04-26T08:38:36.156Z</time></trkpt><trkpt lat="40.9166617" lon="14.205485"><ele>114.0</ele><time>2026-04-26T08:38:37.157Z</time></trkpt><trkpt lat="40.9166217" lon="14.2055817"><ele>113.83333333333333</ele><time>2026-04-26T08:38:38.157Z</time></trkpt><trkpt lat="40.9165783" lon="14.2056767"><ele>113.66666666666666</ele><time>2026-04-26T08:38:39.157Z</time></trkpt><trkpt lat="40.9165417" lon="14.2057733"><ele>113.5</ele><time>2026-04-26T08:38:40.156Z</time></trkpt><trkpt lat="40.91653" lon="14.2058817"><ele>113.33333333333333</ele><time>2026-04-26T08:38:41.157Z</time></trkpt><trkpt lat="40.916545" lon="14.205995"><ele>113.16666666666666</ele><time>2026-04-26T08:38:42.158Z</time></trkpt><trkpt lat="40.9165633" lon="14.2061083"><ele>113.0</ele><time>2026-04-26T08:38:43.156Z</time></trkpt><trkpt lat="40.91658" lon="14.2062233"><ele>113.0</ele><time>2026-04-26T08:38:44.159Z</time></trkpt><trkpt lat="40.9165883" lon="14.206345"><ele>113.00000000000001</ele><time>2026-04-26T08:38:45.157Z</time></trkpt><trkpt lat="40.9165917" lon="14.2064667"><ele>113.00000000000001</ele><time>2026-04-26T08:38:46.157Z</time></trkpt><trkpt lat="40.9165867" lon="14.206585"><ele>113.0</ele><time>2026-04-26T08:38:47.157Z</time></trkpt><trkpt lat="40.9165817" lon="14.2067033"><ele>113.0</ele><time>2026-04-26T08:38:48.157Z</time></trkpt><trkpt lat="40.9165767" lon="14.2068267"><ele>113.0</ele><time>2026-04-26T08:38:49.156Z</time></trkpt><trkpt lat="40.91657" lon="14.2069467"><ele>113.00000000000001</ele><time>2026-04-26T08:38:50.16Z</time></trkpt><trkpt lat="40.9165617" lon="14.207065"><ele>113.00000000000001</ele><time>2026-04-26T08:38:51.157Z</time></trkpt><trkpt lat="40.91655" lon="14.2071883"><ele>113.0</ele><time>2026-04-26T08:38:52.155Z</time></trkpt><trkpt lat="40.91654" lon="14.20731"><ele>113.0</ele><time>2026-04-26T08:38:53.155Z</time></trkpt><trkpt lat="40.916535" lon="14.20743"><ele>113.0</ele><time>2026-04-26T08:38:54.157Z</time></trkpt><trkpt lat="40.9165267" lon="14.20755"><ele>113.00000000000001</ele><time>2026-04-26T08:38:55.155Z</time></trkpt><trkpt lat="40.9165183" lon="14.2076733"><ele>113.00000000000001</ele><time>2026-04-26T08:38:56.157Z</time></trkpt><trkpt lat="40.91651" lon="14.2077983"><ele>113.0</ele><time>2026-04-26T08:38:57.156Z</time></trkpt><trkpt lat="40.9165" lon="14.20792"><ele>113.0</ele><time>2026-04-26T08:38:58.156Z</time></trkpt><trkpt lat="40.9164917" lon="14.2080367"><ele>112.99999999999999</ele><time>2026-04-26T08:38:59.157Z</time></trkpt><trkpt lat="40.9164833" lon="14.208155"><ele>113.0</ele><time>2026-04-26T08:39:00.157Z</time></trkpt><trkpt lat="40.9164733" lon="14.208275"><ele>113.0</ele><time>2026-04-26T08:39:01.156Z</time></trkpt><trkpt lat="40.9164633" lon="14.2083917"><ele>113.0</ele><time>2026-04-26T08:39:02.156Z</time></trkpt><trkpt lat="40.9164517" lon="14.2085067"><ele>112.99999999999999</ele><time>2026-04-26T08:39:03.155Z</time></trkpt><trkpt lat="40.9164433" lon="14.2086183"><ele>113.0</ele><time>2026-04-26T08:39:04.155Z</time></trkpt><trkpt lat="40.9164333" lon="14.20873"><ele>112.66666666666666</ele><time>2026-04-26T08:39:05.157Z</time></trkpt><trkpt lat="40.9164283" lon="14.2088433"><ele>112.33333333333333</ele><time>2026-04-26T08:39:06.156Z</time></trkpt><trkpt lat="40.91642" lon="14.208965"><ele>112.0</ele><time>2026-04-26T08:39:07.159Z</time></trkpt><trkpt lat="40.9164133" lon="14.2090833"><ele>111.66666666666666</ele><time>2026-04-26T08:39:08.156Z</time></trkpt><trkpt lat="40.9164067" lon="14.2091933"><ele>111.33333333333333</ele><time>2026-04-26T08:39:09.156Z</time></trkpt><trkpt lat="40.9164" lon="14.2093067"><ele>111.0</ele><time>2026-04-26T08:39:10.157Z</time></trkpt><trkpt lat="40.9163917" lon="14.2094217"><ele>111.0</ele><time>2026-04-26T08:39:11.156Z</time></trkpt><trkpt lat="40.9163833" lon="14.2095417"><ele>111.0</ele><time>2026-04-26T08:39:12.156Z</time></trkpt><trkpt lat="40.91638" lon="14.2096583"><ele>111.0</ele><time>2026-04-26T08:39:13.157Z</time></trkpt><trkpt lat="40.916375" lon="14.2097767"><ele>111.0</ele><time>2026-04-26T08:39:14.156Z</time></trkpt><trkpt lat="40.9163667" lon="14.20989"><ele>111.0</ele><time>2026-04-26T08:39:15.156Z</time></trkpt><trkpt lat="40.9163517" lon="14.21"><ele>111.0</ele><time>2026-04-26T08:39:16.156Z</time></trkpt><trkpt lat="40.9163433" lon="14.2101067"><ele>111.0</ele><time>2026-04-26T08:39:17.156Z</time></trkpt><trkpt lat="40.9163383" lon="14.2102083"><ele>111.0</ele><time>2026-04-26T08:39:18.157Z</time></trkpt><trkpt lat="40.9163317" lon="14.2103133"><ele>111.0</ele><time>2026-04-26T08:39:19.157Z</time></trkpt><trkpt lat="40.9163183" lon="14.2104217"><ele>111.0</ele><time>2026-04-26T08:39:20.156Z</time></trkpt><trkpt lat="40.9163067" lon="14.2105333"><ele>111.0</ele><time>2026-04-26T08:39:21.156Z</time></trkpt><trkpt lat="40.9162967" lon="14.21065"><ele>111.0</ele><time>2026-04-26T08:39:22.157Z</time></trkpt><trkpt lat="40.9162883" lon="14.2107683"><ele>111.0</ele><time>2026-04-26T08:39:23.157Z</time></trkpt><trkpt lat="40.91628" lon="14.2108933"><ele>111.0</ele><time>2026-04-26T08:39:24.157Z</time></trkpt><trkpt lat="40.9162717" lon="14.21102"><ele>111.0</ele><time>2026-04-26T08:39:25.155Z</time></trkpt><trkpt lat="40.9162633" lon="14.21115"><ele>111.0</ele><time>2026-04-26T08:39:26.158Z</time></trkpt><trkpt lat="40.9162533" lon="14.2112817"><ele>111.0</ele><time>2026-04-26T08:39:27.157Z</time></trkpt><trkpt lat="40.9162467" lon="14.2114133"><ele>111.19999999999999</ele><time>2026-04-26T08:39:28.157Z</time></trkpt><trkpt lat="40.9162467" lon="14.2115517"><ele>111.39999999999999</ele><time>2026-04-26T08:39:29.156Z</time></trkpt><trkpt lat="40.9162367" lon="14.2116817"><ele>111.6</ele><time>2026-04-26T08:39:30.156Z</time></trkpt><trkpt lat="40.9162317" lon="14.2118117"><ele>111.8</ele><time>2026-04-26T08:39:31.156Z</time></trkpt><trkpt lat="40.916225" lon="14.2119367"><ele>112.0</ele><time>2026-04-26T08:39:32.157Z</time></trkpt><trkpt lat="40.9162167" lon="14.2120617"><ele>112.0</ele><time>2026-04-26T08:39:33.158Z</time></trkpt><trkpt lat="40.9162083" lon="14.21219"><ele>111.99999999999999</ele><time>2026-04-26T08:39:34.157Z</time></trkpt><trkpt lat="40.9161983" lon="14.212315"><ele>111.99999999999999</ele><time>2026-04-26T08:39:35.157Z</time></trkpt><trkpt lat="40.9161867" lon="14.2124467"><ele>112.0</ele><time>2026-04-26T08:39:36.156Z</time></trkpt><trkpt lat="40.9161733" lon="14.2125833"><ele>112.0</ele><time>2026-04-26T08:39:37.156Z</time></trkpt><trkpt lat="40.9161567" lon="14.2127183"><ele>111.6</ele><time>2026-04-26T08:39:38.157Z</time></trkpt><trkpt lat="40.91614" lon="14.2128533"><ele>111.19999999999999</ele><time>2026-04-26T08:39:39.157Z</time></trkpt><trkpt lat="40.91612" lon="14.21299"><ele>110.8</ele><time>2026-04-26T08:39:40.158Z</time></trkpt><trkpt lat="40.9160967" lon="14.2131217"><ele>110.4</ele><time>2026-04-26T08:39:41.156Z</time></trkpt><trkpt lat="40.91607" lon="14.2132517"><ele>110.0</ele><time>2026-04-26T08:39:42.156Z</time></trkpt><trkpt lat="40.9160417" lon="14.2133817"><ele>110.0</ele><time>2026-04-26T08:39:43.156Z</time></trkpt><trkpt lat="40.91601" lon="14.21351"><ele>110.0</ele><time>2026-04-26T08:39:44.157Z</time></trkpt><trkpt lat="40.9159733" lon="14.2136417"><ele>110.0</ele><time>2026-04-26T08:39:45.157Z</time></trkpt><trkpt lat="40.91594" lon="14.2137733"><ele>110.0</ele><time>2026-04-26T08:39:46.16Z</time></trkpt><trkpt lat="40.9159017" lon="14.213905"><ele>110.0</ele><time>2026-04-26T08:39:47.156Z</time></trkpt><trkpt lat="40.91586" lon="14.2140367"><ele>110.0</ele><time>2026-04-26T08:39:48.157Z</time></trkpt><trkpt lat="40.9158183" lon="14.2141633"><ele>110.0</ele><time>2026-04-26T08:39:49.156Z</time></trkpt><trkpt lat="40.9157717" lon="14.2142917"><ele>110.0</ele><time>2026-04-26T08:39:50.157Z</time></trkpt><trkpt lat="40.9157217" lon="14.2144133"><ele>110.0</ele><time>2026-04-26T08:39:51.157Z</time></trkpt><trkpt lat="40.9156733" lon="14.2145333"><ele>110.0</ele><time>2026-04-26T08:39:52.159Z</time></trkpt><trkpt lat="40.915625" lon="14.214655"><ele>110.0</ele><time>2026-04-26T08:39:53.156Z</time></trkpt><trkpt lat="40.9155767" lon="14.2147767"><ele>110.0</ele><time>2026-04-26T08:39:54.156Z</time></trkpt><trkpt lat="40.9155267" lon="14.2148983"><ele>110.0</ele><time>2026-04-26T08:39:55.156Z</time></trkpt><trkpt lat="40.9154783" lon="14.21502"><ele>110.0</ele><time>2026-04-26T08:39:56.156Z</time></trkpt><trkpt lat="40.9154333" lon="14.2151383"><ele>110.0</ele><time>2026-04-26T08:39:57.156Z</time></trkpt><trkpt lat="40.91539" lon="14.215255"><ele>110.0</ele><time>2026-04-26T08:39:58.157Z</time></trkpt><trkpt lat="40.9153483" lon="14.2153733"><ele>110.0</ele><time>2026-04-26T08:39:59.158Z</time></trkpt><trkpt lat="40.9153067" lon="14.2154867"><ele>110.0</ele><time>2026-04-26T08:40:00.156Z</time></trkpt><trkpt lat="40.915265" lon="14.2155983"><ele>110.0</ele><time>2026-04-26T08:40:01.157Z</time></trkpt><trkpt lat="40.9152217" lon="14.2157017"><ele>110.0</ele><time>2026-04-26T08:40:02.156Z</time></trkpt><trkpt lat="40.9151783" lon="14.2158083"><ele>110.2</ele><time>2026-04-26T08:40:03.156Z</time></trkpt><trkpt lat="40.9151367" lon="14.21592"><ele>110.4</ele><time>2026-04-26T08:40:04.156Z</time></trkpt><trkpt lat="40.915095" lon="14.2160267"><ele>110.6</ele><time>2026-04-26T08:40:05.156Z</time></trkpt><trkpt lat="40.9150567" lon="14.216135"><ele>110.8</ele><time>2026-04-26T08:40:06.157Z</time></trkpt><trkpt lat="40.9150167" lon="14.2162433"><ele>111.0</ele><time>2026-04-26T08:40:07.157Z</time></trkpt><trkpt lat="40.9149767" lon="14.2163467"><ele>111.0</ele><time>2026-04-26T08:40:08.156Z</time></trkpt><trkpt lat="40.9149367" lon="14.21645"><ele>111.0</ele><time>2026-04-26T08:40:09.157Z</time></trkpt><trkpt lat="40.9148967" lon="14.216555"><ele>111.0</ele><time>2026-04-26T08:40:10.155Z</time></trkpt><trkpt lat="40.914855" lon="14.2166567"><ele>111.0</ele><time>2026-04-26T08:40:11.156Z</time></trkpt><trkpt lat="40.9148183" lon="14.216755"><ele>111.0</ele><time>2026-04-26T08:40:12.156Z</time></trkpt><trkpt lat="40.9147767" lon="14.2168517"><ele>111.0</ele><time>2026-04-26T08:40:13.156Z</time></trkpt><trkpt lat="40.9147383" lon="14.21695"><ele>111.0</ele><time>2026-04-26T08:40:14.157Z</time></trkpt><trkpt lat="40.9146983" lon="14.2170383"><ele>111.0</ele><time>2026-04-26T08:40:15.156Z</time></trkpt><trkpt lat="40.9146517" lon="14.2171117"><ele>111.0</ele><time>2026-04-26T08:40:16.155Z</time></trkpt><trkpt lat="40.9145983" lon="14.21717"><ele>111.0</ele><time>2026-04-26T08:40:17.156Z</time></trkpt><trkpt lat="40.9145367" lon="14.2172133"><ele>111.0</ele><time>2026-04-26T08:40:18.158Z</time></trkpt><trkpt lat="40.9144783" lon="14.217265"><ele>111.0</ele><time>2026-04-26T08:40:19.157Z</time></trkpt><trkpt lat="40.9144283" lon="14.21733"><ele>111.0</ele><time>2026-04-26T08:40:20.157Z</time></trkpt><trkpt lat="40.9143883" lon="14.2174017"><ele>110.57142857142857</ele><time>2026-04-26T08:40:21.156Z</time></trkpt><trkpt lat="40.9143667" lon="14.2174917"><ele>110.14285714285715</ele><time>2026-04-26T08:40:22.157Z</time></trkpt><trkpt lat="40.9143517" lon="14.2175817"><ele>109.71428571428572</ele><time>2026-04-26T08:40:23.156Z</time></trkpt><trkpt lat="40.9143383" lon="14.2176783"><ele>109.28571428571428</ele><time>2026-04-26T08:40:24.158Z</time></trkpt><trkpt lat="40.9143233" lon="14.217775"><ele>108.85714285714286</ele><time>2026-04-26T08:40:25.157Z</time></trkpt><trkpt lat="40.9143117" lon="14.2178767"><ele>108.42857142857143</ele><time>2026-04-26T08:40:26.156Z</time></trkpt><trkpt lat="40.9142967" lon="14.2179833"><ele>108.0</ele><time>2026-04-26T08:40:27.156Z</time></trkpt><trkpt lat="40.9142783" lon="14.218095"><ele>108.0</ele><time>2026-04-26T08:40:28.156Z</time></trkpt><trkpt lat="40.9142467" lon="14.2181917"><ele>108.0</ele><time>2026-04-26T08:40:29.158Z</time></trkpt><trkpt lat="40.9142117" lon="14.2182917"><ele>108.0</ele><time>2026-04-26T08:40:30.156Z</time></trkpt><trkpt lat="40.9141767" lon="14.2183917"><ele>108.0</ele><time>2026-04-26T08:40:31.156Z</time></trkpt><trkpt lat="40.9141383" lon="14.2184883"><ele>108.0</ele><time>2026-04-26T08:40:32.157Z</time></trkpt><trkpt lat="40.9141" lon="14.2185867"><ele>108.0</ele><time>2026-04-26T08:40:33.156Z</time></trkpt><trkpt lat="40.9140567" lon="14.21868"><ele>108.16666666666667</ele><time>2026-04-26T08:40:34.157Z</time></trkpt><trkpt lat="40.91402" lon="14.21878"><ele>108.33333333333334</ele><time>2026-04-26T08:40:35.156Z</time></trkpt><trkpt lat="40.9139883" lon="14.21888"><ele>108.5</ele><time>2026-04-26T08:40:36.156Z</time></trkpt><trkpt lat="40.9139533" lon="14.2189767"><ele>108.66666666666667</ele><time>2026-04-26T08:40:37.156Z</time></trkpt><trkpt lat="40.9139167" lon="14.2190733"><ele>108.83333333333334</ele><time>2026-04-26T08:40:38.157Z</time></trkpt><trkpt lat="40.9138783" lon="14.2191717"><ele>109.0</ele><time>2026-04-26T08:40:39.156Z</time></trkpt><trkpt lat="40.9138383" lon="14.2192733"><ele>109.00000000000001</ele><time>2026-04-26T08:40:40.156Z</time></trkpt><trkpt lat="40.9138017" lon="14.219375"><ele>109.0</ele><time>2026-04-26T08:40:41.156Z</time></trkpt><trkpt lat="40.9137667" lon="14.2194767"><ele>109.0</ele><time>2026-04-26T08:40:42.156Z</time></trkpt><trkpt lat="40.9137333" lon="14.2195767"><ele>109.0</ele><time>2026-04-26T08:40:43.157Z</time></trkpt><trkpt lat="40.9136967" lon="14.219675"><ele>109.00000000000001</ele><time>2026-04-26T08:40:44.157Z</time></trkpt><trkpt lat="40.91366" lon="14.2197733"><ele>109.0</ele><time>2026-04-26T08:40:45.16Z</time></trkpt><trkpt lat="40.91363" lon="14.2198783"><ele>109.16666666666667</ele><time>2026-04-26T08:40:46.156Z</time></trkpt><trkpt lat="40.9135933" lon="14.2199783"><ele>109.33333333333334</ele><time>2026-04-26T08:40:47.158Z</time></trkpt><trkpt lat="40.9135567" lon="14.220075"><ele>109.5</ele><time>2026-04-26T08:40:48.164Z</time></trkpt><trkpt lat="40.91352" lon="14.2201767"><ele>109.66666666666666</ele><time>2026-04-26T08:40:49.16Z</time></trkpt><trkpt lat="40.9134883" lon="14.2202817"><ele>109.83333333333333</ele><time>2026-04-26T08:40:50.156Z</time></trkpt><trkpt lat="40.913455" lon="14.2203883"><ele>110.0</ele><time>2026-04-26T08:40:51.157Z</time></trkpt><trkpt lat="40.91342" lon="14.220485"><ele>110.16666666666666</ele><time>2026-04-26T08:40:52.157Z</time></trkpt><trkpt lat="40.9133883" lon="14.2205783"><ele>110.33333333333333</ele><time>2026-04-26T08:40:53.156Z</time></trkpt><trkpt lat="40.9133567" lon="14.2206683"><ele>110.5</ele><time>2026-04-26T08:40:54.156Z</time></trkpt><trkpt lat="40.9133167" lon="14.2207567"><ele>110.66666666666666</ele><time>2026-04-26T08:40:55.157Z</time></trkpt><trkpt lat="40.9132783" lon="14.22085"><ele>110.83333333333333</ele><time>2026-04-26T08:40:56.157Z</time></trkpt><trkpt lat="40.9132433" lon="14.2209483"><ele>111.0</ele><time>2026-04-26T08:40:57.156Z</time></trkpt><trkpt lat="40.9132117" lon="14.221045"><ele>111.0</ele><time>2026-04-26T08:40:58.157Z</time></trkpt><trkpt lat="40.9131783" lon="14.2211467"><ele>111.0</ele><time>2026-04-26T08:40:59.156Z</time></trkpt><trkpt lat="40.91314" lon="14.2212417"><ele>111.0</ele><time>2026-04-26T08:41:00.156Z</time></trkpt><trkpt lat="40.9131017" lon="14.2213417"><ele>111.0</ele><time>2026-04-26T08:41:01.157Z</time></trkpt><trkpt lat="40.9130633" lon="14.2214433"><ele>111.0</ele><time>2026-04-26T08:41:02.156Z</time></trkpt><trkpt lat="40.913025" lon="14.2215467"><ele>111.0</ele><time>2026-04-26T08:41:03.157Z</time></trkpt><trkpt lat="40.9129883" lon="14.2216467"><ele>110.66666666666667</ele><time>2026-04-26T08:41:04.156Z</time></trkpt><trkpt lat="40.9129533" lon="14.22175"><ele>110.33333333333334</ele><time>2026-04-26T08:41:05.157Z</time></trkpt><trkpt lat="40.9129133" lon="14.2218517"><ele>110.0</ele><time>2026-04-26T08:41:06.158Z</time></trkpt><trkpt lat="40.9128717" lon="14.2219567"><ele>109.66666666666667</ele><time>2026-04-26T08:41:07.157Z</time></trkpt><trkpt lat="40.9128317" lon="14.222065"><ele>109.33333333333334</ele><time>2026-04-26T08:41:08.156Z</time></trkpt><trkpt lat="40.91279" lon="14.2221717"><ele>109.0</ele><time>2026-04-26T08:41:09.157Z</time></trkpt><trkpt lat="40.9127467" lon="14.2222833"><ele>109.2</ele><time>2026-04-26T08:41:10.156Z</time></trkpt><trkpt lat="40.9127067" lon="14.2223967"><ele>109.4</ele><time>2026-04-26T08:41:11.156Z</time></trkpt><trkpt lat="40.9126633" lon="14.2225083"><ele>109.6</ele><time>2026-04-26T08:41:12.156Z</time></trkpt><trkpt lat="40.9126217" lon="14.2226217"><ele>109.8</ele><time>2026-04-26T08:41:13.156Z</time></trkpt><trkpt lat="40.9125783" lon="14.2227283"><ele>110.0</ele><time>2026-04-26T08:41:14.159Z</time></trkpt><trkpt lat="40.91254" lon="14.2228383"><ele>110.2</ele><time>2026-04-26T08:41:15.156Z</time></trkpt><trkpt lat="40.9124983" lon="14.2229567"><ele>110.4</ele><time>2026-04-26T08:41:16.157Z</time></trkpt><trkpt lat="40.9124567" lon="14.2230733"><ele>110.6</ele><time>2026-04-26T08:41:17.157Z</time></trkpt><trkpt lat="40.912415" lon="14.2231883"><ele>110.8</ele><time>2026-04-26T08:41:18.157Z</time></trkpt><trkpt lat="40.912375" lon="14.2233017"><ele>111.0</ele><time>2026-04-26T08:41:19.156Z</time></trkpt><trkpt lat="40.9123333" lon="14.2234167"><ele>111.0</ele><time>2026-04-26T08:41:20.156Z</time></trkpt><trkpt lat="40.91229" lon="14.2235333"><ele>111.0</ele><time>2026-04-26T08:41:21.156Z</time></trkpt><trkpt lat="40.9122483" lon="14.2236517"><ele>111.0</ele><time>2026-04-26T08:41:22.156Z</time></trkpt><trkpt lat="40.9122083" lon="14.22377"><ele>111.0</ele><time>2026-04-26T08:41:23.156Z</time></trkpt><trkpt lat="40.912165" lon="14.223885"><ele>111.0</ele><time>2026-04-26T08:41:24.157Z</time></trkpt><trkpt lat="40.9121233" lon="14.224"><ele>110.8</ele><time>2026-04-26T08:41:25.157Z</time></trkpt><trkpt lat="40.9120817" lon="14.2241117"><ele>110.6</ele><time>2026-04-26T08:41:26.156Z</time></trkpt><trkpt lat="40.9120417" lon="14.2242267"><ele>110.4</ele><time>2026-04-26T08:41:27.157Z</time></trkpt><trkpt lat="40.912" lon="14.2243467"><ele>110.2</ele><time>2026-04-26T08:41:28.156Z</time></trkpt><trkpt lat="40.9119583" lon="14.22446"><ele>110.0</ele><time>2026-04-26T08:41:29.156Z</time></trkpt><trkpt lat="40.9119133" lon="14.2245733"><ele>110.0</ele><time>2026-04-26T08:41:30.157Z</time></trkpt><trkpt lat="40.9118683" lon="14.2246917"><ele>110.0</ele><time>2026-04-26T08:41:31.156Z</time></trkpt><trkpt lat="40.911825" lon="14.2248117"><ele>110.0</ele><time>2026-04-26T08:41:32.156Z</time></trkpt><trkpt lat="40.9117783" lon="14.2249317"><ele>110.0</ele><time>2026-04-26T08:41:33.156Z</time></trkpt><trkpt lat="40.911735" lon="14.2250517"><ele>110.0</ele><time>2026-04-26T08:41:34.156Z</time></trkpt><trkpt lat="40.91169" lon="14.2251767"><ele>110.2</ele><time>2026-04-26T08:41:35.159Z</time></trkpt><trkpt lat="40.9116467" lon="14.2252983"><ele>110.4</ele><time>2026-04-26T08:41:36.156Z</time></trkpt><trkpt lat="40.9116" lon="14.225415"><ele>110.6</ele><time>2026-04-26T08:41:37.156Z</time></trkpt><trkpt lat="40.9115533" lon="14.2255333"><ele>110.8</ele><time>2026-04-26T08:41:38.157Z</time></trkpt><trkpt lat="40.9115083" lon="14.2256617"><ele>111.0</ele><time>2026-04-26T08:41:39.156Z</time></trkpt><trkpt lat="40.9114617" lon="14.2257883"><ele>111.0</ele><time>2026-04-26T08:41:40.157Z</time></trkpt><trkpt lat="40.9114167" lon="14.2259167"><ele>111.0</ele><time>2026-04-26T08:41:41.156Z</time></trkpt><trkpt lat="40.9113683" lon="14.2260467"><ele>111.0</ele><time>2026-04-26T08:41:42.157Z</time></trkpt><trkpt lat="40.9113233" lon="14.2261767"><ele>111.0</ele><time>2026-04-26T08:41:43.156Z</time></trkpt><trkpt lat="40.91128" lon="14.2263017"><ele>111.0</ele><time>2026-04-26T08:41:44.157Z</time></trkpt><trkpt lat="40.9112333" lon="14.2264283"><ele>110.8</ele><time>2026-04-26T08:41:45.156Z</time></trkpt><trkpt lat="40.9111867" lon="14.226555"><ele>110.6</ele><time>2026-04-26T08:41:46.158Z</time></trkpt><trkpt lat="40.91114" lon="14.226685"><ele>110.4</ele><time>2026-04-26T08:41:47.157Z</time></trkpt><trkpt lat="40.9110967" lon="14.22681"><ele>110.2</ele><time>2026-04-26T08:41:48.156Z</time></trkpt><trkpt lat="40.9110467" lon="14.226935"><ele>110.0</ele><time>2026-04-26T08:41:49.156Z</time></trkpt><trkpt lat="40.9109933" lon="14.2270617"><ele>110.0</ele><time>2026-04-26T08:41:50.156Z</time></trkpt><trkpt lat="40.9109417" lon="14.22719"><ele>110.0</ele><time>2026-04-26T08:41:51.156Z</time></trkpt><trkpt lat="40.9108933" lon="14.2273217"><ele>110.0</ele><time>2026-04-26T08:41:52.159Z</time></trkpt><trkpt lat="40.9108467" lon="14.22745"><ele>110.0</ele><time>2026-04-26T08:41:53.157Z</time></trkpt><trkpt lat="40.9107967" lon="14.2275817"><ele>110.0</ele><time>2026-04-26T08:41:54.158Z</time></trkpt><trkpt lat="40.9107417" lon="14.2277117"><ele>110.0</ele><time>2026-04-26T08:41:55.156Z</time></trkpt><trkpt lat="40.910695" lon="14.2278283"><ele>110.0</ele><time>2026-04-26T08:41:56.156Z</time></trkpt><trkpt lat="40.9106483" lon="14.2279517"><ele>110.0</ele><time>2026-04-26T08:41:57.156Z</time></trkpt><trkpt lat="40.9105983" lon="14.2280833"><ele>110.0</ele><time>2026-04-26T08:41:58.164Z</time></trkpt><trkpt lat="40.91055" lon="14.2282133"><ele>110.0</ele><time>2026-04-26T08:41:59.157Z</time></trkpt><trkpt lat="40.9105033" lon="14.2283467"><ele>109.8</ele><time>2026-04-26T08:42:00.156Z</time></trkpt><trkpt lat="40.9104533" lon="14.22848"><ele>109.6</ele><time>2026-04-26T08:42:01.156Z</time></trkpt><trkpt lat="40.9104067" lon="14.2286117"><ele>109.4</ele><time>2026-04-26T08:42:02.157Z</time></trkpt><trkpt lat="40.9103583" lon="14.22874"><ele>109.2</ele><time>2026-04-26T08:42:03.156Z</time></trkpt><trkpt lat="40.91031" lon="14.2288733"><ele>109.0</ele><time>2026-04-26T08:42:04.158Z</time></trkpt><trkpt lat="40.9102617" lon="14.2290067"><ele>108.80000000000001</ele><time>2026-04-26T08:42:05.157Z</time></trkpt><trkpt lat="40.9102117" lon="14.22914"><ele>108.60000000000001</ele><time>2026-04-26T08:42:06.156Z</time></trkpt><trkpt lat="40.91016" lon="14.2292717"><ele>108.4</ele><time>2026-04-26T08:42:07.158Z</time></trkpt><trkpt lat="40.9101083" lon="14.2294017"><ele>108.2</ele><time>2026-04-26T08:42:08.156Z</time></trkpt><trkpt lat="40.9100583" lon="14.2295333"><ele>108.0</ele><time>2026-04-26T08:42:09.157Z</time></trkpt><trkpt lat="40.9100117" lon="14.229665"><ele>108.25</ele><time>2026-04-26T08:42:10.156Z</time></trkpt><trkpt lat="40.9099667" lon="14.2297983"><ele>108.5</ele><time>2026-04-26T08:42:11.156Z</time></trkpt><trkpt lat="40.90992" lon="14.229935"><ele>108.75</ele><time>2026-04-26T08:42:12.156Z</time></trkpt><trkpt lat="40.9098783" lon="14.230075"><ele>109.0</ele><time>2026-04-26T08:42:13.157Z</time></trkpt><trkpt lat="40.9098383" lon="14.2302167"><ele>109.0</ele><time>2026-04-26T08:42:14.158Z</time></trkpt><trkpt lat="40.9098033" lon="14.2303617"><ele>109.0</ele><time>2026-04-26T08:42:15.157Z</time></trkpt><trkpt lat="40.909775" lon="14.2305083"><ele>109.0</ele><time>2026-04-26T08:42:16.157Z</time></trkpt><trkpt lat="40.9097517" lon="14.230655"><ele>109.0</ele><time>2026-04-26T08:42:17.158Z</time></trkpt><trkpt lat="40.90973" lon="14.2308017"><ele>108.80000000000001</ele><time>2026-04-26T08:42:18.157Z</time></trkpt><trkpt lat="40.9097133" lon="14.23094"><ele>108.60000000000001</ele><time>2026-04-26T08:42:19.157Z</time></trkpt><trkpt lat="40.9097033" lon="14.2310817"><ele>108.4</ele><time>2026-04-26T08:42:20.159Z</time></trkpt><trkpt lat="40.9096967" lon="14.23122"><ele>108.2</ele><time>2026-04-26T08:42:21.157Z</time></trkpt><trkpt lat="40.90969" lon="14.2313617"><ele>108.0</ele><time>2026-04-26T08:42:22.157Z</time></trkpt><trkpt lat="40.9096867" lon="14.2315033"><ele>107.60000000000001</ele><time>2026-04-26T08:42:23.156Z</time></trkpt><trkpt lat="40.9096883" lon="14.23164"><ele>107.20000000000002</ele><time>2026-04-26T08:42:24.156Z</time></trkpt><trkpt lat="40.90969" lon="14.231775"><ele>106.8</ele><time>2026-04-26T08:42:25.157Z</time></trkpt><trkpt lat="40.909695" lon="14.231915"><ele>106.4</ele><time>2026-04-26T08:42:26.156Z</time></trkpt><trkpt lat="40.9097033" lon="14.232055"><ele>106.0</ele><time>2026-04-26T08:42:27.157Z</time></trkpt><trkpt lat="40.9097167" lon="14.232195"><ele>106.6</ele><time>2026-04-26T08:42:28.158Z</time></trkpt><trkpt lat="40.9097367" lon="14.232335"><ele>107.19999999999999</ele><time>2026-04-26T08:42:29.156Z</time></trkpt><trkpt lat="40.9097583" lon="14.23247"><ele>107.80000000000001</ele><time>2026-04-26T08:42:30.158Z</time></trkpt><trkpt lat="40.90978" lon="14.232605"><ele>108.4</ele><time>2026-04-26T08:42:31.158Z</time></trkpt><trkpt lat="40.9098117" lon="14.2327433"><ele>109.0</ele><time>2026-04-26T08:42:32.156Z</time></trkpt><trkpt lat="40.90984" lon="14.2328767"><ele>109.0</ele><time>2026-04-26T08:42:33.156Z</time></trkpt><trkpt lat="40.9098733" lon="14.2330133"><ele>109.0</ele><time>2026-04-26T08:42:34.156Z</time></trkpt><trkpt lat="40.9099067" lon="14.23315"><ele>109.0</ele><time>2026-04-26T08:42:35.156Z</time></trkpt><trkpt lat="40.90994" lon="14.2332867"><ele>109.0</ele><time>2026-04-26T08:42:36.157Z</time></trkpt><trkpt lat="40.9099733" lon="14.233425"><ele>109.0</ele><time>2026-04-26T08:42:37.157Z</time></trkpt><trkpt lat="40.9100133" lon="14.2335633"><ele>108.5</ele><time>2026-04-26T08:42:38.158Z</time></trkpt><trkpt lat="40.9100567" lon="14.2337067"><ele>108.0</ele><time>2026-04-26T08:42:39.156Z</time></trkpt><trkpt lat="40.910105" lon="14.233845"><ele>107.5</ele><time>2026-04-26T08:42:40.157Z</time></trkpt><trkpt lat="40.9101567" lon="14.23398"><ele>107.0</ele><time>2026-04-26T08:42:41.157Z</time></trkpt><trkpt lat="40.9102083" lon="14.2341117"><ele>106.19999999999999</ele><time>2026-04-26T08:42:42.158Z</time></trkpt><trkpt lat="40.91027" lon="14.2342367"><ele>105.39999999999999</ele><time>2026-04-26T08:42:43.157Z</time></trkpt><trkpt lat="40.91033" lon="14.2343583"><ele>104.6</ele><time>2026-04-26T08:42:44.156Z</time></trkpt><trkpt lat="40.9103983" lon="14.2344783"><ele>103.80000000000001</ele><time>2026-04-26T08:42:45.157Z</time></trkpt><trkpt lat="40.9104633" lon="14.234595"><ele>103.0</ele><time>2026-04-26T08:42:46.156Z</time></trkpt><trkpt lat="40.9105283" lon="14.2347083"><ele>103.0</ele><time>2026-04-26T08:42:47.156Z</time></trkpt><trkpt lat="40.910595" lon="14.2348217"><ele>103.0</ele><time>2026-04-26T08:42:48.156Z</time></trkpt><trkpt lat="40.9106633" lon="14.23493"><ele>103.0</ele><time>2026-04-26T08:42:49.158Z</time></trkpt><trkpt lat="40.9107333" lon="14.2350333"><ele>103.0</ele><time>2026-04-26T08:42:50.156Z</time></trkpt><trkpt lat="40.910805" lon="14.2351367"><ele>103.0</ele><time>2026-04-26T08:42:51.157Z</time></trkpt><trkpt lat="40.910875" lon="14.235245"><ele>102.80000000000001</ele><time>2026-04-26T08:42:52.157Z</time></trkpt><trkpt lat="40.9109433" lon="14.2353533"><ele>102.6</ele><time>2026-04-26T08:42:53.156Z</time></trkpt><trkpt lat="40.9110083" lon="14.2354633"><ele>102.4</ele><time>2026-04-26T08:42:54.157Z</time></trkpt><trkpt lat="40.9110717" lon="14.2355717"><ele>102.19999999999999</ele><time>2026-04-26T08:42:55.157Z</time></trkpt><trkpt lat="40.9111267" lon="14.2356833"><ele>102.0</ele><time>2026-04-26T08:42:56.156Z</time></trkpt><trkpt lat="40.9111767" lon="14.2357883"><ele>102.0</ele><time>2026-04-26T08:42:57.157Z</time></trkpt><trkpt lat="40.9112283" lon="14.2358867"><ele>102.0</ele><time>2026-04-26T08:42:58.157Z</time></trkpt><trkpt lat="40.9112933" lon="14.23597"><ele>102.0</ele><time>2026-04-26T08:42:59.156Z</time></trkpt><trkpt lat="40.911365" lon="14.23605"><ele>102.0</ele><time>2026-04-26T08:43:00.156Z</time></trkpt><trkpt lat="40.9114417" lon="14.236135"><ele>102.0</ele><time>2026-04-26T08:43:01.157Z</time></trkpt><trkpt lat="40.9115167" lon="14.2362283"><ele>102.0</ele><time>2026-04-26T08:43:02.158Z</time></trkpt><trkpt lat="40.9115917" lon="14.2363267"><ele>102.0</ele><time>2026-04-26T08:43:03.156Z</time></trkpt><trkpt lat="40.911665" lon="14.2364317"><ele>102.0</ele><time>2026-04-26T08:43:04.156Z</time></trkpt><trkpt lat="40.9117417" lon="14.23654"><ele>102.0</ele><time>2026-04-26T08:43:05.156Z</time></trkpt><trkpt lat="40.91182" lon="14.2366533"><ele>102.0</ele><time>2026-04-26T08:43:06.157Z</time></trkpt><trkpt lat="40.9119" lon="14.2367667"><ele>102.0</ele><time>2026-04-26T08:43:07.156Z</time></trkpt><trkpt lat="40.9119817" lon="14.2368783"><ele>102.0</ele><time>2026-04-26T08:43:08.158Z</time></trkpt><trkpt lat="40.9120667" lon="14.2369933"><ele>102.0</ele><time>2026-04-26T08:43:09.156Z</time></trkpt><trkpt lat="40.91215" lon="14.2371083"><ele>102.0</ele><time>2026-04-26T08:43:10.159Z</time></trkpt><trkpt lat="40.9122333" lon="14.2372283"><ele>101.0</ele><time>2026-04-26T08:43:11.156Z</time></trkpt><trkpt lat="40.9123133" lon="14.23735"><ele>100.0</ele><time>2026-04-26T08:43:12.156Z</time></trkpt><trkpt lat="40.9123933" lon="14.2374733"><ele>99.0</ele><time>2026-04-26T08:43:13.157Z</time></trkpt><trkpt lat="40.912475" lon="14.237595"><ele>98.0</ele><time>2026-04-26T08:43:14.157Z</time></trkpt><trkpt lat="40.9125517" lon="14.2377233"><ele>98.0</ele><time>2026-04-26T08:43:15.158Z</time></trkpt><trkpt lat="40.9126317" lon="14.2378467"><ele>98.0</ele><time>2026-04-26T08:43:16.157Z</time></trkpt><trkpt lat="40.9127067" lon="14.2379683"><ele>98.0</ele><time>2026-04-26T08:43:17.157Z</time></trkpt><trkpt lat="40.9127817" lon="14.2380867"><ele>98.0</ele><time>2026-04-26T08:43:18.157Z</time></trkpt><trkpt lat="40.9128567" lon="14.2382067"><ele>98.0</ele><time>2026-04-26T08:43:19.158Z</time></trkpt><trkpt lat="40.91293" lon="14.2383267"><ele>98.0</ele><time>2026-04-26T08:43:20.158Z</time></trkpt><trkpt lat="40.913005" lon="14.23844"><ele>98.0</ele><time>2026-04-26T08:43:21.157Z</time></trkpt><trkpt lat="40.9130783" lon="14.2385467"><ele>98.0</ele><time>2026-04-26T08:43:22.159Z</time></trkpt><trkpt lat="40.9131483" lon="14.2386517"><ele>98.0</ele><time>2026-04-26T08:43:23.158Z</time></trkpt><trkpt lat="40.913215" lon="14.23875"><ele>98.0</ele><time>2026-04-26T08:43:24.157Z</time></trkpt><trkpt lat="40.9132783" lon="14.2388483"><ele>98.0</ele><time>2026-04-26T08:43:25.157Z</time></trkpt><trkpt lat="40.9133417" lon="14.2389433"><ele>98.0</ele><time>2026-04-26T08:43:26.159Z</time></trkpt><trkpt lat="40.913405" lon="14.239035"><ele>98.0</ele><time>2026-04-26T08:43:27.159Z</time></trkpt><trkpt lat="40.9134683" lon="14.2391283"><ele>98.0</ele><time>2026-04-26T08:43:28.158Z</time></trkpt><trkpt lat="40.91353" lon="14.239225"><ele>97.2</ele><time>2026-04-26T08:43:29.157Z</time></trkpt><trkpt lat="40.91359" lon="14.23932"><ele>96.4</ele><time>2026-04-26T08:43:30.157Z</time></trkpt><trkpt lat="40.9136517" lon="14.2394133"><ele>95.60000000000001</ele><time>2026-04-26T08:43:31.157Z</time></trkpt><trkpt lat="40.9137133" lon="14.2395117"><ele>94.80000000000001</ele><time>2026-04-26T08:43:32.157Z</time></trkpt><trkpt lat="40.9137783" lon="14.23961"><ele>94.0</ele><time>2026-04-26T08:43:33.158Z</time></trkpt><trkpt lat="40.9138433" lon="14.2397083"><ele>94.4</ele><time>2026-04-26T08:43:34.157Z</time></trkpt><trkpt lat="40.91391" lon="14.239805"><ele>94.80000000000001</ele><time>2026-04-26T08:43:35.159Z</time></trkpt><trkpt lat="40.913975" lon="14.2399017"><ele>95.19999999999999</ele><time>2026-04-26T08:43:36.158Z</time></trkpt><trkpt lat="40.9140383" lon="14.24"><ele>95.6</ele><time>2026-04-26T08:43:37.158Z</time></trkpt><trkpt lat="40.9141067" lon="14.2400967"><ele>96.0</ele><time>2026-04-26T08:43:38.158Z</time></trkpt><trkpt lat="40.9141733" lon="14.240195"><ele>96.0</ele><time>2026-04-26T08:43:39.157Z</time></trkpt><trkpt lat="40.9142367" lon="14.240295"><ele>96.0</ele><time>2026-04-26T08:43:40.158Z</time></trkpt><trkpt lat="40.9143" lon="14.2403967"><ele>96.0</ele><time>2026-04-26T08:43:41.157Z</time></trkpt><trkpt lat="40.914365" lon="14.2405083"><ele>96.0</ele><time>2026-04-26T08:43:42.158Z</time></trkpt><trkpt lat="40.91443" lon="14.2406217"><ele>96.0</ele><time>2026-04-26T08:43:43.158Z</time></trkpt><trkpt lat="40.9144867" lon="14.2407433"><ele>95.25</ele><time>2026-04-26T08:43:44.157Z</time></trkpt><trkpt lat="40.9145433" lon="14.2408767"><ele>94.5</ele><time>2026-04-26T08:43:45.158Z</time></trkpt><trkpt lat="40.9145983" lon="14.2410083"><ele>93.75</ele><time>2026-04-26T08:43:46.158Z</time></trkpt><trkpt lat="40.91465" lon="14.2411483"><ele>93.0</ele><time>2026-04-26T08:43:47.157Z</time></trkpt><trkpt lat="40.9146967" lon="14.2412867"><ele>93.0</ele><time>2026-04-26T08:43:48.158Z</time></trkpt><trkpt lat="40.9147333" lon="14.2414283"><ele>93.0</ele><time>2026-04-26T08:43:49.157Z</time></trkpt><trkpt lat="40.9147683" lon="14.2415783"><ele>93.0</ele><time>2026-04-26T08:43:50.159Z</time></trkpt><trkpt lat="40.9147983" lon="14.241735"><ele>93.0</ele><time>2026-04-26T08:43:51.159Z</time></trkpt><trkpt lat="40.9148267" lon="14.2418867"><ele>92.75</ele><time>2026-04-26T08:43:52.157Z</time></trkpt><trkpt lat="40.9148517" lon="14.2420333"><ele>92.5</ele><time>2026-04-26T08:43:53.157Z</time></trkpt><trkpt lat="40.9148717" lon="14.242185"><ele>92.25</ele><time>2026-04-26T08:43:54.158Z</time></trkpt><trkpt lat="40.9148883" lon="14.24233"><ele>92.0</ele><time>2026-04-26T08:43:55.159Z</time></trkpt><trkpt lat="40.9149067" lon="14.2424733"><ele>91.8</ele><time>2026-04-26T08:43:56.157Z</time></trkpt><trkpt lat="40.9149217" lon="14.2426167"><ele>91.6</ele><time>2026-04-26T08:43:57.161Z</time></trkpt><trkpt lat="40.9149333" lon="14.2427567"><ele>91.39999999999999</ele><time>2026-04-26T08:43:58.157Z</time></trkpt><trkpt lat="40.9149383" lon="14.242895"><ele>91.19999999999999</ele><time>2026-04-26T08:43:59.159Z</time></trkpt><trkpt lat="40.9149467" lon="14.243035"><ele>91.0</ele><time>2026-04-26T08:44:00.159Z</time></trkpt><trkpt lat="40.9149533" lon="14.24318"><ele>90.6</ele><time>2026-04-26T08:44:01.157Z</time></trkpt><trkpt lat="40.914955" lon="14.243325"><ele>90.19999999999999</ele><time>2026-04-26T08:44:02.157Z</time></trkpt><trkpt lat="40.9149567" lon="14.24347"><ele>89.80000000000001</ele><time>2026-04-26T08:44:03.158Z</time></trkpt><trkpt lat="40.9149533" lon="14.243615"><ele>89.4</ele><time>2026-04-26T08:44:04.158Z</time></trkpt><trkpt lat="40.9149467" lon="14.24376"><ele>89.0</ele><time>2026-04-26T08:44:05.157Z</time></trkpt><trkpt lat="40.9149367" lon="14.2439067"><ele>88.80000000000001</ele><time>2026-04-26T08:44:06.157Z</time></trkpt><trkpt lat="40.91492" lon="14.2440483"><ele>88.60000000000001</ele><time>2026-04-26T08:44:07.157Z</time></trkpt><trkpt lat="40.9148983" lon="14.244195"><ele>88.4</ele><time>2026-04-26T08:44:08.158Z</time></trkpt><trkpt lat="40.9148733" lon="14.24434"><ele>88.2</ele><time>2026-04-26T08:44:09.157Z</time></trkpt><trkpt lat="40.9148467" lon="14.2444833"><ele>88.0</ele><time>2026-04-26T08:44:10.157Z</time></trkpt><trkpt lat="40.9148167" lon="14.2446233"><ele>88.0</ele><time>2026-04-26T08:44:11.157Z</time></trkpt><trkpt lat="40.91478" lon="14.2447633"><ele>88.0</ele><time>2026-04-26T08:44:12.158Z</time></trkpt><trkpt lat="40.91474" lon="14.2449033"><ele>88.0</ele><time>2026-04-26T08:44:13.158Z</time></trkpt><trkpt lat="40.9147" lon="14.2450383"><ele>88.0</ele><time>2026-04-26T08:44:14.158Z</time></trkpt><trkpt lat="40.9146583" lon="14.2451733"><ele>88.0</ele><time>2026-04-26T08:44:15.157Z</time></trkpt><trkpt lat="40.9146117" lon="14.2453033"><ele>88.0</ele><time>2026-04-26T08:44:16.157Z</time></trkpt><trkpt lat="40.9145633" lon="14.2454367"><ele>88.0</ele><time>2026-04-26T08:44:17.159Z</time></trkpt><trkpt lat="40.9145133" lon="14.245565"><ele>88.0</ele><time>2026-04-26T08:44:18.158Z</time></trkpt><trkpt lat="40.9144617" lon="14.245695"><ele>88.0</ele><time>2026-04-26T08:44:19.157Z</time></trkpt><trkpt lat="40.914405" lon="14.2458267"><ele>88.0</ele><time>2026-04-26T08:44:20.158Z</time></trkpt><trkpt lat="40.914345" lon="14.2459567"><ele>88.0</ele><time>2026-04-26T08:44:21.157Z</time></trkpt><trkpt lat="40.914285" lon="14.2460783"><ele>88.0</ele><time>2026-04-26T08:44:22.159Z</time></trkpt><trkpt lat="40.91422" lon="14.2461967"><ele>88.0</ele><time>2026-04-26T08:44:23.157Z</time></trkpt><trkpt lat="40.9141517" lon="14.246305"><ele>88.0</ele><time>2026-04-26T08:44:24.157Z</time></trkpt><trkpt lat="40.91408" lon="14.2464133"><ele>88.0</ele><time>2026-04-26T08:44:25.157Z</time></trkpt><trkpt lat="40.91401" lon="14.2465217"><ele>88.60000000000001</ele><time>2026-04-26T08:44:26.158Z</time></trkpt><trkpt lat="40.91394" lon="14.2466283"><ele>89.2</ele><time>2026-04-26T08:44:27.158Z</time></trkpt><trkpt lat="40.9138683" lon="14.24674"><ele>89.8</ele><time>2026-04-26T08:44:28.157Z</time></trkpt><trkpt lat="40.913795" lon="14.2468467"><ele>90.4</ele><time>2026-04-26T08:44:29.157Z</time></trkpt><trkpt lat="40.9137217" lon="14.2469467"><ele>91.0</ele><time>2026-04-26T08:44:30.158Z</time></trkpt><trkpt lat="40.9136483" lon="14.247045"><ele>91.0</ele><time>2026-04-26T08:44:31.159Z</time></trkpt><trkpt lat="40.9135767" lon="14.2471417"><ele>91.0</ele><time>2026-04-26T08:44:32.159Z</time></trkpt><trkpt lat="40.9135083" lon="14.24724"><ele>91.0</ele><time>2026-04-26T08:44:33.159Z</time></trkpt><trkpt lat="40.9134383" lon="14.2473383"><ele>91.0</ele><time>2026-04-26T08:44:34.157Z</time></trkpt><trkpt lat="40.9133667" lon="14.2474317"><ele>91.0</ele><time>2026-04-26T08:44:35.157Z</time></trkpt><trkpt lat="40.9132917" lon="14.2475233"><ele>91.0</ele><time>2026-04-26T08:44:36.158Z</time></trkpt><trkpt lat="40.913215" lon="14.2476117"><ele>91.0</ele><time>2026-04-26T08:44:37.158Z</time></trkpt><trkpt lat="40.9131367" lon="14.2477033"><ele>91.0</ele><time>2026-04-26T08:44:38.157Z</time></trkpt><trkpt lat="40.9130567" lon="14.2477917"><ele>91.0</ele><time>2026-04-26T08:44:39.158Z</time></trkpt><trkpt lat="40.9129783" lon="14.2478783"><ele>91.0</ele><time>2026-04-26T08:44:40.158Z</time></trkpt><trkpt lat="40.9129" lon="14.24796"><ele>91.0</ele><time>2026-04-26T08:44:41.158Z</time></trkpt><trkpt lat="40.9128217" lon="14.248045"><ele>91.0</ele><time>2026-04-26T08:44:42.159Z</time></trkpt><trkpt lat="40.912745" lon="14.2481283"><ele>91.0</ele><time>2026-04-26T08:44:43.157Z</time></trkpt><trkpt lat="40.9126683" lon="14.24821"><ele>91.0</ele><time>2026-04-26T08:44:44.158Z</time></trkpt><trkpt lat="40.9125917" lon="14.248295"><ele>91.0</ele><time>2026-04-26T08:44:45.156Z</time></trkpt><trkpt lat="40.9125133" lon="14.248375"><ele>91.6</ele><time>2026-04-26T08:44:46.157Z</time></trkpt><trkpt lat="40.9124417" lon="14.2484617"><ele>92.19999999999999</ele><time>2026-04-26T08:44:47.157Z</time></trkpt><trkpt lat="40.9123717" lon="14.2485433"><ele>92.80000000000001</ele><time>2026-04-26T08:44:48.157Z</time></trkpt><trkpt lat="40.9123033" lon="14.24863"><ele>93.4</ele><time>2026-04-26T08:44:49.157Z</time></trkpt><trkpt lat="40.91224" lon="14.248725"><ele>94.0</ele><time>2026-04-26T08:44:50.158Z</time></trkpt><trkpt lat="40.912175" lon="14.2488167"><ele>94.0</ele><time>2026-04-26T08:44:51.156Z</time></trkpt><trkpt lat="40.9121117" lon="14.2489133"><ele>94.0</ele><time>2026-04-26T08:44:52.158Z</time></trkpt><trkpt lat="40.91205" lon="14.2490083"><ele>94.0</ele><time>2026-04-26T08:44:53.156Z</time></trkpt><trkpt lat="40.91199" lon="14.249105"><ele>94.0</ele><time>2026-04-26T08:44:54.158Z</time></trkpt><trkpt lat="40.91193" lon="14.249205"><ele>94.0</ele><time>2026-04-26T08:44:55.158Z</time></trkpt><trkpt lat="40.9118683" lon="14.2493017"><ele>94.0</ele><time>2026-04-26T08:44:56.158Z</time></trkpt><trkpt lat="40.9118067" lon="14.2493933"><ele>94.0</ele><time>2026-04-26T08:44:57.158Z</time></trkpt><trkpt lat="40.9117417" lon="14.2494883"><ele>94.0</ele><time>2026-04-26T08:44:58.158Z</time></trkpt><trkpt lat="40.9116733" lon="14.2495817"><ele>94.0</ele><time>2026-04-26T08:44:59.156Z</time></trkpt><trkpt lat="40.91161" lon="14.2496733"><ele>94.0</ele><time>2026-04-26T08:45:00.157Z</time></trkpt><trkpt lat="40.911545" lon="14.2497683"><ele>93.2</ele><time>2026-04-26T08:45:01.156Z</time></trkpt><trkpt lat="40.9114833" lon="14.24987"><ele>92.4</ele><time>2026-04-26T08:45:02.156Z</time></trkpt><trkpt lat="40.9114183" lon="14.249975"><ele>91.6</ele><time>2026-04-26T08:45:03.157Z</time></trkpt><trkpt lat="40.9113483" lon="14.2500717"><ele>90.8</ele><time>2026-04-26T08:45:04.157Z</time></trkpt><trkpt lat="40.9112867" lon="14.2501733"><ele>90.0</ele><time>2026-04-26T08:45:05.157Z</time></trkpt><trkpt lat="40.9112233" lon="14.250275"><ele>90.0</ele><time>2026-04-26T08:45:06.157Z</time></trkpt><trkpt lat="40.91116" lon="14.2503733"><ele>90.0</ele><time>2026-04-26T08:45:07.159Z</time></trkpt><trkpt lat="40.9111" lon="14.25047"><ele>90.0</ele><time>2026-04-26T08:45:08.156Z</time></trkpt><trkpt lat="40.9110433" lon="14.250565"><ele>90.0</ele><time>2026-04-26T08:45:09.156Z</time></trkpt><trkpt lat="40.91099" lon="14.2506617"><ele>90.0</ele><time>2026-04-26T08:45:10.157Z</time></trkpt><trkpt lat="40.91094" lon="14.25076"><ele>90.2</ele><time>2026-04-26T08:45:11.157Z</time></trkpt><trkpt lat="40.9108883" lon="14.25086"><ele>90.4</ele><time>2026-04-26T08:45:12.157Z</time></trkpt><trkpt lat="40.9108367" lon="14.25096"><ele>90.6</ele><time>2026-04-26T08:45:13.157Z</time></trkpt><trkpt lat="40.9107867" lon="14.251065"><ele>90.8</ele><time>2026-04-26T08:45:14.159Z</time></trkpt><trkpt lat="40.91074" lon="14.2511717"><ele>91.0</ele><time>2026-04-26T08:45:15.157Z</time></trkpt><trkpt lat="40.9106933" lon="14.2512817"><ele>91.0</ele><time>2026-04-26T08:45:16.157Z</time></trkpt><trkpt lat="40.9106467" lon="14.2513917"><ele>91.0</ele><time>2026-04-26T08:45:17.158Z</time></trkpt><trkpt lat="40.9106017" lon="14.2515"><ele>91.0</ele><time>2026-04-26T08:45:18.157Z</time></trkpt><trkpt lat="40.9105533" lon="14.2516033"><ele>91.0</ele><time>2026-04-26T08:45:19.156Z</time></trkpt><trkpt lat="40.9105067" lon="14.2517067"><ele>91.0</ele><time>2026-04-26T08:45:20.157Z</time></trkpt><trkpt lat="40.9104533" lon="14.2518067"><ele>90.66666666666666</ele><time>2026-04-26T08:45:21.157Z</time></trkpt><trkpt lat="40.9104017" lon="14.2519"><ele>90.33333333333333</ele><time>2026-04-26T08:45:22.156Z</time></trkpt><trkpt lat="40.9103467" lon="14.2519933"><ele>90.0</ele><time>2026-04-26T08:45:23.158Z</time></trkpt><trkpt lat="40.910295" lon="14.2520833"><ele>89.66666666666667</ele><time>2026-04-26T08:45:24.156Z</time></trkpt><trkpt lat="40.91024" lon="14.2521733"><ele>89.33333333333334</ele><time>2026-04-26T08:45:25.157Z</time></trkpt><trkpt lat="40.910185" lon="14.2522617"><ele>89.0</ele><time>2026-04-26T08:45:26.156Z</time></trkpt><trkpt lat="40.9101267" lon="14.2523483"><ele>89.16666666666667</ele><time>2026-04-26T08:45:27.156Z</time></trkpt><trkpt lat="40.9100683" lon="14.2524317"><ele>89.33333333333334</ele><time>2026-04-26T08:45:28.157Z</time></trkpt><trkpt lat="40.9100117" lon="14.2525133"><ele>89.5</ele><time>2026-04-26T08:45:29.157Z</time></trkpt><trkpt lat="40.90995" lon="14.2525933"><ele>89.66666666666667</ele><time>2026-04-26T08:45:30.157Z</time></trkpt><trkpt lat="40.9098933" lon="14.2526733"><ele>89.83333333333333</ele><time>2026-04-26T08:45:31.156Z</time></trkpt><trkpt lat="40.9098383" lon="14.2527533"><ele>90.0</ele><time>2026-04-26T08:45:32.157Z</time></trkpt><trkpt lat="40.9097817" lon="14.2528317"><ele>90.0</ele><time>2026-04-26T08:45:33.157Z</time></trkpt><trkpt lat="40.909725" lon="14.2529133"><ele>90.0</ele><time>2026-04-26T08:45:34.157Z</time></trkpt><trkpt lat="40.9096683" lon="14.252995"><ele>90.0</ele><time>2026-04-26T08:45:35.156Z</time></trkpt><trkpt lat="40.9096117" lon="14.2530767"><ele>90.0</ele><time>2026-04-26T08:45:36.157Z</time></trkpt><trkpt lat="40.9095567" lon="14.2531533"><ele>90.0</ele><time>2026-04-26T08:45:37.157Z</time></trkpt><trkpt lat="40.9094983" lon="14.253235"><ele>90.0</ele><time>2026-04-26T08:45:38.156Z</time></trkpt><trkpt lat="40.9094433" lon="14.2533183"><ele>90.0</ele><time>2026-04-26T08:45:39.156Z</time></trkpt><trkpt lat="40.90939" lon="14.2534017"><ele>90.0</ele><time>2026-04-26T08:45:40.157Z</time></trkpt><trkpt lat="40.9093333" lon="14.2534867"><ele>90.0</ele><time>2026-04-26T08:45:41.157Z</time></trkpt><trkpt lat="40.9092783" lon="14.25357"><ele>90.0</ele><time>2026-04-26T08:45:42.16Z</time></trkpt><trkpt lat="40.9092233" lon="14.253655"><ele>90.0</ele><time>2026-04-26T08:45:43.157Z</time></trkpt><trkpt lat="40.9091683" lon="14.2537383"><ele>90.0</ele><time>2026-04-26T08:45:44.159Z</time></trkpt><trkpt lat="40.90911" lon="14.2538233"><ele>90.0</ele><time>2026-04-26T08:45:45.156Z</time></trkpt><trkpt lat="40.909055" lon="14.2539067"><ele>90.0</ele><time>2026-04-26T08:45:46.157Z</time></trkpt><trkpt lat="40.908995" lon="14.2539883"><ele>90.0</ele><time>2026-04-26T08:45:47.156Z</time></trkpt><trkpt lat="40.9089383" lon="14.25407"><ele>90.0</ele><time>2026-04-26T08:45:48.159Z</time></trkpt><trkpt lat="40.9088833" lon="14.2541517"><ele>90.0</ele><time>2026-04-26T08:45:49.157Z</time></trkpt><trkpt lat="40.9088267" lon="14.2542317"><ele>90.0</ele><time>2026-04-26T08:45:50.158Z</time></trkpt><trkpt lat="40.9087683" lon="14.254315"><ele>89.83333333333333</ele><time>2026-04-26T08:45:51.158Z</time></trkpt><trkpt lat="40.9087133" lon="14.2543983"><ele>89.66666666666667</ele><time>2026-04-26T08:45:52.157Z</time></trkpt><trkpt lat="40.908655" lon="14.254485"><ele>89.5</ele><time>2026-04-26T08:45:53.157Z</time></trkpt><trkpt lat="40.9085967" lon="14.2545717"><ele>89.33333333333334</ele><time>2026-04-26T08:45:54.157Z</time></trkpt><trkpt lat="40.90854" lon="14.25466"><ele>89.16666666666667</ele><time>2026-04-26T08:45:55.157Z</time></trkpt><trkpt lat="40.9084867" lon="14.25475"><ele>89.0</ele><time>2026-04-26T08:45:56.156Z</time></trkpt><trkpt lat="40.9084267" lon="14.2548333"><ele>88.83333333333334</ele><time>2026-04-26T08:45:57.157Z</time></trkpt><trkpt lat="40.9083667" lon="14.25492"><ele>88.66666666666667</ele><time>2026-04-26T08:45:58.158Z</time></trkpt><trkpt lat="40.9083067" lon="14.2550033"><ele>88.5</ele><time>2026-04-26T08:45:59.157Z</time></trkpt><trkpt lat="40.9082467" lon="14.2550883"><ele>88.33333333333333</ele><time>2026-04-26T08:46:00.157Z</time></trkpt><trkpt lat="40.908185" lon="14.255175"><ele>88.16666666666666</ele><time>2026-04-26T08:46:01.158Z</time></trkpt><trkpt lat="40.9081233" lon="14.255265"><ele>88.0</ele><time>2026-04-26T08:46:02.158Z</time></trkpt><trkpt lat="40.90806" lon="14.2553567"><ele>88.0</ele><time>2026-04-26T08:46:03.156Z</time></trkpt><trkpt lat="40.9079983" lon="14.2554533"><ele>88.0</ele><time>2026-04-26T08:46:04.156Z</time></trkpt><trkpt lat="40.907935" lon="14.255545"><ele>88.0</ele><time>2026-04-26T08:46:05.158Z</time></trkpt><trkpt lat="40.907875" lon="14.2556367"><ele>88.0</ele><time>2026-04-26T08:46:06.156Z</time></trkpt><trkpt lat="40.9078133" lon="14.2557317"><ele>88.0</ele><time>2026-04-26T08:46:07.156Z</time></trkpt><trkpt lat="40.9077517" lon="14.2558267"><ele>88.0</ele><time>2026-04-26T08:46:08.157Z</time></trkpt><trkpt lat="40.9076883" lon="14.25592"><ele>88.0</ele><time>2026-04-26T08:46:09.157Z</time></trkpt><trkpt lat="40.9076283" lon="14.25602"><ele>88.0</ele><time>2026-04-26T08:46:10.156Z</time></trkpt><trkpt lat="40.9075633" lon="14.2561183"><ele>88.0</ele><time>2026-04-26T08:46:11.157Z</time></trkpt><trkpt lat="40.9074983" lon="14.2562133"><ele>88.0</ele><time>2026-04-26T08:46:12.157Z</time></trkpt><trkpt lat="40.907435" lon="14.25631"><ele>88.2</ele><time>2026-04-26T08:46:13.157Z</time></trkpt><trkpt lat="40.907375" lon="14.2564017"><ele>88.4</ele><time>2026-04-26T08:46:14.16Z</time></trkpt><trkpt lat="40.9073117" lon="14.256495"><ele>88.60000000000001</ele><time>2026-04-26T08:46:15.158Z</time></trkpt><trkpt lat="40.9072483" lon="14.2565867"><ele>88.80000000000001</ele><time>2026-04-26T08:46:16.156Z</time></trkpt><trkpt lat="40.9071867" lon="14.2566783"><ele>89.0</ele><time>2026-04-26T08:46:17.157Z</time></trkpt><trkpt lat="40.9071233" lon="14.2567733"><ele>89.0</ele><time>2026-04-26T08:46:18.158Z</time></trkpt><trkpt lat="40.9070583" lon="14.2568633"><ele>89.0</ele><time>2026-04-26T08:46:19.157Z</time></trkpt><trkpt lat="40.9069917" lon="14.256955"><ele>89.0</ele><time>2026-04-26T08:46:20.161Z</time></trkpt><trkpt lat="40.906925" lon="14.257045"><ele>89.0</ele><time>2026-04-26T08:46:21.157Z</time></trkpt><trkpt lat="40.906855" lon="14.257135"><ele>89.0</ele><time>2026-04-26T08:46:22.157Z</time></trkpt><trkpt lat="40.90679" lon="14.2572267"><ele>89.0</ele><time>2026-04-26T08:46:23.157Z</time></trkpt><trkpt lat="40.9067233" lon="14.2573233"><ele>89.0</ele><time>2026-04-26T08:46:24.158Z</time></trkpt><trkpt lat="40.9066583" lon="14.2574167"><ele>89.0</ele><time>2026-04-26T08:46:25.156Z</time></trkpt><trkpt lat="40.9065933" lon="14.2575083"><ele>89.0</ele><time>2026-04-26T08:46:26.158Z</time></trkpt><trkpt lat="40.9065283" lon="14.2576017"><ele>89.0</ele><time>2026-04-26T08:46:27.157Z</time></trkpt><trkpt lat="40.9064633" lon="14.2576967"><ele>89.0</ele><time>2026-04-26T08:46:28.156Z</time></trkpt><trkpt lat="40.9063967" lon="14.2577917"><ele>89.0</ele><time>2026-04-26T08:46:29.156Z</time></trkpt><trkpt lat="40.9063317" lon="14.25789"><ele>89.0</ele><time>2026-04-26T08:46:30.158Z</time></trkpt><trkpt lat="40.90627" lon="14.2579867"><ele>89.0</ele><time>2026-04-26T08:46:31.157Z</time></trkpt><trkpt lat="40.9062067" lon="14.2580817"><ele>89.0</ele><time>2026-04-26T08:46:32.158Z</time></trkpt><trkpt lat="40.9061433" lon="14.258175"><ele>89.2</ele><time>2026-04-26T08:46:33.156Z</time></trkpt><trkpt lat="40.9060783" lon="14.2582667"><ele>89.4</ele><time>2026-04-26T08:46:34.157Z</time></trkpt><trkpt lat="40.9060133" lon="14.258355"><ele>89.6</ele><time>2026-04-26T08:46:35.157Z</time></trkpt><trkpt lat="40.9059433" lon="14.25844"><ele>89.8</ele><time>2026-04-26T08:46:36.156Z</time></trkpt><trkpt lat="40.9058783" lon="14.2585233"><ele>90.0</ele><time>2026-04-26T08:46:37.157Z</time></trkpt><trkpt lat="40.9058083" lon="14.2586033"><ele>90.0</ele><time>2026-04-26T08:46:38.157Z</time></trkpt><trkpt lat="40.9057417" lon="14.2586833"><ele>90.0</ele><time>2026-04-26T08:46:39.158Z</time></trkpt><trkpt lat="40.9056817" lon="14.2587617"><ele>90.0</ele><time>2026-04-26T08:46:40.157Z</time></trkpt><trkpt lat="40.905615" lon="14.25884"><ele>90.0</ele><time>2026-04-26T08:46:41.157Z</time></trkpt><trkpt lat="40.90555" lon="14.2589117"><ele>90.0</ele><time>2026-04-26T08:46:42.157Z</time></trkpt><trkpt lat="40.9054883" lon="14.2589783"><ele>90.0</ele><time>2026-04-26T08:46:43.157Z</time></trkpt><trkpt lat="40.9054283" lon="14.2590433"><ele>90.14285714285714</ele><time>2026-04-26T08:46:44.157Z</time></trkpt><trkpt lat="40.9053717" lon="14.2591067"><ele>90.28571428571429</ele><time>2026-04-26T08:46:45.157Z</time></trkpt><trkpt lat="40.9053167" lon="14.25917"><ele>90.42857142857143</ele><time>2026-04-26T08:46:46.156Z</time></trkpt><trkpt lat="40.9052633" lon="14.2592367"><ele>90.57142857142857</ele><time>2026-04-26T08:46:47.156Z</time></trkpt><trkpt lat="40.9052167" lon="14.2593033"><ele>90.71428571428572</ele><time>2026-04-26T08:46:48.157Z</time></trkpt><trkpt lat="40.9051683" lon="14.25937"><ele>90.85714285714286</ele><time>2026-04-26T08:46:49.157Z</time></trkpt><trkpt lat="40.9051217" lon="14.2594383"><ele>91.0</ele><time>2026-04-26T08:46:50.156Z</time></trkpt><trkpt lat="40.9050783" lon="14.2595033"><ele>91.0</ele><time>2026-04-26T08:46:51.157Z</time></trkpt><trkpt lat="40.905035" lon="14.25957"><ele>91.0</ele><time>2026-04-26T08:46:52.156Z</time></trkpt><trkpt lat="40.9049933" lon="14.2596383"><ele>91.0</ele><time>2026-04-26T08:46:53.157Z</time></trkpt><trkpt lat="40.9049483" lon="14.259705"><ele>91.0</ele><time>2026-04-26T08:46:54.158Z</time></trkpt><trkpt lat="40.9049017" lon="14.25977"><ele>91.0</ele><time>2026-04-26T08:46:55.157Z</time></trkpt><trkpt lat="40.90486" lon="14.2598367"><ele>91.0</ele><time>2026-04-26T08:46:56.157Z</time></trkpt><trkpt lat="40.904815" lon="14.2599067"><ele>91.0</ele><time>2026-04-26T08:46:57.158Z</time></trkpt><trkpt lat="40.9047683" lon="14.259975"><ele>90.85714285714286</ele><time>2026-04-26T08:46:58.156Z</time></trkpt><trkpt lat="40.9047233" lon="14.2600433"><ele>90.71428571428572</ele><time>2026-04-26T08:46:59.157Z</time></trkpt><trkpt lat="40.9046767" lon="14.2601117"><ele>90.57142857142857</ele><time>2026-04-26T08:47:00.158Z</time></trkpt><trkpt lat="40.9046283" lon="14.26018"><ele>90.42857142857143</ele><time>2026-04-26T08:47:01.157Z</time></trkpt><trkpt lat="40.90458" lon="14.2602433"><ele>90.28571428571429</ele><time>2026-04-26T08:47:02.157Z</time></trkpt><trkpt lat="40.90453" lon="14.2603117"><ele>90.14285714285714</ele><time>2026-04-26T08:47:03.157Z</time></trkpt><trkpt lat="40.90448" lon="14.26038"><ele>90.0</ele><time>2026-04-26T08:47:04.157Z</time></trkpt><trkpt lat="40.9044317" lon="14.2604517"><ele>90.0</ele><time>2026-04-26T08:47:05.158Z</time></trkpt><trkpt lat="40.90438" lon="14.26052"><ele>90.0</ele><time>2026-04-26T08:47:06.157Z</time></trkpt><trkpt lat="40.9043283" lon="14.260585"><ele>90.0</ele><time>2026-04-26T08:47:07.156Z</time></trkpt><trkpt lat="40.9042783" lon="14.260655"><ele>90.0</ele><time>2026-04-26T08:47:08.157Z</time></trkpt><trkpt lat="40.9042267" lon="14.2607267"><ele>90.0</ele><time>2026-04-26T08:47:09.157Z</time></trkpt><trkpt lat="40.9041733" lon="14.2607983"><ele>90.0</ele><time>2026-04-26T08:47:10.157Z</time></trkpt><trkpt lat="40.90412" lon="14.2608717"><ele>90.0</ele><time>2026-04-26T08:47:11.156Z</time></trkpt><trkpt lat="40.9040683" lon="14.26095"><ele>90.14285714285714</ele><time>2026-04-26T08:47:12.158Z</time></trkpt><trkpt lat="40.9040217" lon="14.2610267"><ele>90.28571428571429</ele><time>2026-04-26T08:47:13.156Z</time></trkpt><trkpt lat="40.9039683" lon="14.261095"><ele>90.42857142857143</ele><time>2026-04-26T08:47:14.157Z</time></trkpt><trkpt lat="40.903915" lon="14.2611617"><ele>90.57142857142857</ele><time>2026-04-26T08:47:15.156Z</time></trkpt><trkpt lat="40.903865" lon="14.26123"><ele>90.71428571428572</ele><time>2026-04-26T08:47:16.158Z</time></trkpt><trkpt lat="40.9038117" lon="14.2612983"><ele>90.85714285714286</ele><time>2026-04-26T08:47:17.156Z</time></trkpt><trkpt lat="40.90376" lon="14.261375"><ele>91.0</ele><time>2026-04-26T08:47:18.156Z</time></trkpt><trkpt lat="40.9037067" lon="14.26145"><ele>91.14285714285714</ele><time>2026-04-26T08:47:19.156Z</time></trkpt><trkpt lat="40.9036517" lon="14.2615167"><ele>91.28571428571428</ele><time>2026-04-26T08:47:20.158Z</time></trkpt><trkpt lat="40.9036017" lon="14.261585"><ele>91.42857142857143</ele><time>2026-04-26T08:47:21.158Z</time></trkpt><trkpt lat="40.9035533" lon="14.2616567"><ele>91.57142857142857</ele><time>2026-04-26T08:47:22.158Z</time></trkpt><trkpt lat="40.9035017" lon="14.26173"><ele>91.71428571428571</ele><time>2026-04-26T08:47:23.158Z</time></trkpt><trkpt lat="40.903455" lon="14.2618033"><ele>91.85714285714286</ele><time>2026-04-26T08:47:24.157Z</time></trkpt><trkpt lat="40.9034083" lon="14.2618767"><ele>92.0</ele><time>2026-04-26T08:47:25.158Z</time></trkpt><trkpt lat="40.9033617" lon="14.261945"><ele>91.5</ele><time>2026-04-26T08:47:26.157Z</time></trkpt><trkpt lat="40.903315" lon="14.2620067"><ele>91.0</ele><time>2026-04-26T08:47:27.159Z</time></trkpt><trkpt lat="40.9032617" lon="14.2620617"><ele>90.5</ele><time>2026-04-26T08:47:28.156Z</time></trkpt><trkpt lat="40.903195" lon="14.2620967"><ele>90.0</ele><time>2026-04-26T08:47:29.158Z</time></trkpt><trkpt lat="40.9031317" lon="14.2621233"><ele>89.5</ele><time>2026-04-26T08:47:30.16Z</time></trkpt><trkpt lat="40.903065" lon="14.26213"><ele>89.0</ele><time>2026-04-26T08:47:31.157Z</time></trkpt><trkpt lat="40.9029517" lon="14.26215"><ele>89.0</ele><time>2026-04-26T08:47:33.157Z</time></trkpt><trkpt lat="40.9028433" lon="14.2621683"><ele>89.0</ele><time>2026-04-26T08:47:35.157Z</time></trkpt><trkpt lat="40.9027217" lon="14.2621983"><ele>89.0</ele><time>2026-04-26T08:47:37.157Z</time></trkpt><trkpt lat="40.902605" lon="14.2622633"><ele>89.0</ele><time>2026-04-26T08:47:39.158Z</time></trkpt><trkpt lat="40.9025517" lon="14.2623083"><ele>89.0</ele><time>2026-04-26T08:47:40.157Z</time></trkpt><trkpt lat="40.9024717" lon="14.262425"><ele>88.80000000000001</ele><time>2026-04-26T08:47:42.157Z</time></trkpt><trkpt lat="40.902425" lon="14.2625633"><ele>88.60000000000001</ele><time>2026-04-26T08:47:44.156Z</time></trkpt><trkpt lat="40.9023917" lon="14.26273"><ele>88.4</ele><time>2026-04-26T08:47:46.156Z</time></trkpt><trkpt lat="40.9023767" lon="14.2628233"><ele>88.2</ele><time>2026-04-26T08:47:47.156Z</time></trkpt><trkpt lat="40.90236" lon="14.2629133"><ele>88.0</ele><time>2026-04-26T08:47:48.157Z</time></trkpt><trkpt lat="40.9023417" lon="14.2630017"><ele>88.0</ele><time>2026-04-26T08:47:49.156Z</time></trkpt><trkpt lat="40.90232" lon="14.2630933"><ele>88.0</ele><time>2026-04-26T08:47:50.158Z</time></trkpt><trkpt lat="40.9023" lon="14.263185"><ele>88.0</ele><time>2026-04-26T08:47:51.157Z</time></trkpt><trkpt lat="40.90228" lon="14.26328"><ele>88.0</ele><time>2026-04-26T08:47:52.156Z</time></trkpt><trkpt lat="40.9022667" lon="14.2633767"><ele>88.0</ele><time>2026-04-26T08:47:53.157Z</time></trkpt><trkpt lat="40.90225" lon="14.2634683"><ele>88.0</ele><time>2026-04-26T08:47:54.158Z</time></trkpt><trkpt lat="40.9022333" lon="14.2635583"><ele>88.0</ele><time>2026-04-26T08:47:55.156Z</time></trkpt><trkpt lat="40.902215" lon="14.263645"><ele>88.14285714285714</ele><time>2026-04-26T08:47:56.158Z</time></trkpt><trkpt lat="40.902185" lon="14.263725"><ele>88.28571428571428</ele><time>2026-04-26T08:47:57.156Z</time></trkpt><trkpt lat="40.902155" lon="14.2637983"><ele>88.42857142857142</ele><time>2026-04-26T08:47:58.157Z</time></trkpt><trkpt lat="40.9021233" lon="14.26388"><ele>88.57142857142857</ele><time>2026-04-26T08:47:59.157Z</time></trkpt><trkpt lat="40.90209" lon="14.2639533"><ele>88.71428571428571</ele><time>2026-04-26T08:48:00.157Z</time></trkpt><trkpt lat="40.90205" lon="14.2640233"><ele>88.85714285714285</ele><time>2026-04-26T08:48:01.156Z</time></trkpt><trkpt lat="40.9020133" lon="14.2640917"><ele>89.0</ele><time>2026-04-26T08:48:02.157Z</time></trkpt><trkpt lat="40.9019367" lon="14.264225"><ele>89.0</ele><time>2026-04-26T08:48:04.157Z</time></trkpt><trkpt lat="40.9018983" lon="14.2642933"><ele>89.0</ele><time>2026-04-26T08:48:05.159Z</time></trkpt><trkpt lat="40.9018617" lon="14.2643633"><ele>89.0</ele><time>2026-04-26T08:48:06.158Z</time></trkpt><trkpt lat="40.901785" lon="14.26449"><ele>89.0</ele><time>2026-04-26T08:48:08.156Z</time></trkpt><trkpt lat="40.901705" lon="14.26462"><ele>89.0</ele><time>2026-04-26T08:48:10.156Z</time></trkpt><trkpt lat="40.9016633" lon="14.264695"><ele>89.0</ele><time>2026-04-26T08:48:11.156Z</time></trkpt><trkpt lat="40.9016183" lon="14.26476"><ele>89.28571428571428</ele><time>2026-04-26T08:48:12.157Z</time></trkpt><trkpt lat="40.9015783" lon="14.2648317"><ele>89.57142857142857</ele><time>2026-04-26T08:48:13.157Z</time></trkpt><trkpt lat="40.9015333" lon="14.2648967"><ele>89.85714285714286</ele><time>2026-04-26T08:48:14.161Z</time></trkpt><trkpt lat="40.9014883" lon="14.2649633"><ele>90.14285714285714</ele><time>2026-04-26T08:48:15.156Z</time></trkpt><trkpt lat="40.901445" lon="14.2650283"><ele>90.42857142857143</ele><time>2026-04-26T08:48:16.157Z</time></trkpt><trkpt lat="40.9014" lon="14.2650883"><ele>90.71428571428571</ele><time>2026-04-26T08:48:17.157Z</time></trkpt><trkpt lat="40.9013533" lon="14.2651533"><ele>91.0</ele><time>2026-04-26T08:48:18.156Z</time></trkpt><trkpt lat="40.9013117" lon="14.2652233"><ele>91.0</ele><time>2026-04-26T08:48:19.157Z</time></trkpt><trkpt lat="40.9012683" lon="14.2652883"><ele>91.0</ele><time>2026-04-26T08:48:20.158Z</time></trkpt><trkpt lat="40.9012283" lon="14.26536"><ele>91.0</ele><time>2026-04-26T08:48:21.158Z</time></trkpt><trkpt lat="40.9011867" lon="14.265425"><ele>91.0</ele><time>2026-04-26T08:48:22.156Z</time></trkpt><trkpt lat="40.901145" lon="14.2654883"><ele>91.0</ele><time>2026-04-26T08:48:23.156Z</time></trkpt><trkpt lat="40.901105" lon="14.2655583"><ele>91.0</ele><time>2026-04-26T08:48:24.158Z</time></trkpt><trkpt lat="40.9010667" lon="14.2656317"><ele>91.0</ele><time>2026-04-26T08:48:25.158Z</time></trkpt><trkpt lat="40.9010283" lon="14.2657017"><ele>90.85714285714286</ele><time>2026-04-26T08:48:26.157Z</time></trkpt><trkpt lat="40.900985" lon="14.26577"><ele>90.71428571428572</ele><time>2026-04-26T08:48:27.157Z</time></trkpt><trkpt lat="40.9009417" lon="14.265835"><ele>90.57142857142857</ele><time>2026-04-26T08:48:28.157Z</time></trkpt><trkpt lat="40.9008917" lon="14.2658967"><ele>90.42857142857143</ele><time>2026-04-26T08:48:29.157Z</time></trkpt><trkpt lat="40.9008467" lon="14.26596"><ele>90.28571428571429</ele><time>2026-04-26T08:48:30.157Z</time></trkpt><trkpt lat="40.9008033" lon="14.2660267"><ele>90.14285714285714</ele><time>2026-04-26T08:48:31.157Z</time></trkpt><trkpt lat="40.9007567" lon="14.2660933"><ele>90.0</ele><time>2026-04-26T08:48:32.156Z</time></trkpt><trkpt lat="40.900705" lon="14.26616"><ele>89.85714285714285</ele><time>2026-04-26T08:48:33.157Z</time></trkpt><trkpt lat="40.90066" lon="14.2662333"><ele>89.71428571428572</ele><time>2026-04-26T08:48:34.157Z</time></trkpt><trkpt lat="40.900615" lon="14.266305"><ele>89.57142857142857</ele><time>2026-04-26T08:48:35.156Z</time></trkpt><trkpt lat="40.90057" lon="14.2663717"><ele>89.42857142857142</ele><time>2026-04-26T08:48:36.158Z</time></trkpt><trkpt lat="40.9005217" lon="14.26644"><ele>89.28571428571428</ele><time>2026-04-26T08:48:37.157Z</time></trkpt><trkpt lat="40.900475" lon="14.26652"><ele>89.14285714285714</ele><time>2026-04-26T08:48:38.156Z</time></trkpt><trkpt lat="40.9004283" lon="14.2666017"><ele>89.0</ele><time>2026-04-26T08:48:39.157Z</time></trkpt><trkpt lat="40.900385" lon="14.2666767"><ele>88.99999999999999</ele><time>2026-04-26T08:48:40.156Z</time></trkpt><trkpt lat="40.90034" lon="14.2667483"><ele>89.0</ele><time>2026-04-26T08:48:41.161Z</time></trkpt><trkpt lat="40.9002933" lon="14.266815"><ele>89.0</ele><time>2026-04-26T08:48:42.156Z</time></trkpt><trkpt lat="40.90025" lon="14.26689"><ele>89.0</ele><time>2026-04-26T08:48:43.157Z</time></trkpt><trkpt lat="40.9002067" lon="14.2669617"><ele>89.0</ele><time>2026-04-26T08:48:44.158Z</time></trkpt><trkpt lat="40.9001617" lon="14.2670317"><ele>88.99999999999999</ele><time>2026-04-26T08:48:45.157Z</time></trkpt><trkpt lat="40.9001167" lon="14.2671017"><ele>89.0</ele><time>2026-04-26T08:48:46.156Z</time></trkpt><trkpt lat="40.9000717" lon="14.26717"><ele>88.99999999999999</ele><time>2026-04-26T08:48:47.157Z</time></trkpt><trkpt lat="40.9000267" lon="14.2672383"><ele>89.0</ele><time>2026-04-26T08:48:48.158Z</time></trkpt><trkpt lat="40.89998" lon="14.267305"><ele>89.0</ele><time>2026-04-26T08:48:49.157Z</time></trkpt><trkpt lat="40.89993" lon="14.2673733"><ele>89.0</ele><time>2026-04-26T08:48:50.156Z</time></trkpt><trkpt lat="40.89988" lon="14.2674433"><ele>89.0</ele><time>2026-04-26T08:48:51.157Z</time></trkpt><trkpt lat="40.8998317" lon="14.2675133"><ele>88.99999999999999</ele><time>2026-04-26T08:48:52.164Z</time></trkpt><trkpt lat="40.8997833" lon="14.267585"><ele>89.0</ele><time>2026-04-26T08:48:53.156Z</time></trkpt><trkpt lat="40.8997367" lon="14.2676583"><ele>88.85714285714285</ele><time>2026-04-26T08:48:54.161Z</time></trkpt><trkpt lat="40.89969" lon="14.2677317"><ele>88.71428571428571</ele><time>2026-04-26T08:48:55.157Z</time></trkpt><trkpt lat="40.899645" lon="14.2678033"><ele>88.57142857142857</ele><time>2026-04-26T08:48:56.163Z</time></trkpt><trkpt lat="40.8995983" lon="14.2678733"><ele>88.42857142857142</ele><time>2026-04-26T08:48:57.157Z</time></trkpt><trkpt lat="40.8995517" lon="14.2679433"><ele>88.28571428571428</ele><time>2026-04-26T08:48:58.156Z</time></trkpt><trkpt lat="40.899505" lon="14.268015"><ele>88.14285714285714</ele><time>2026-04-26T08:48:59.156Z</time></trkpt><trkpt lat="40.8994567" lon="14.2680833"><ele>88.0</ele><time>2026-04-26T08:49:00.157Z</time></trkpt><trkpt lat="40.8994083" lon="14.2681533"><ele>88.0</ele><time>2026-04-26T08:49:01.156Z</time></trkpt><trkpt lat="40.899355" lon="14.26822"><ele>88.0</ele><time>2026-04-26T08:49:02.157Z</time></trkpt><trkpt lat="40.8993" lon="14.2682817"><ele>88.0</ele><time>2026-04-26T08:49:03.156Z</time></trkpt><trkpt lat="40.89924" lon="14.268335"><ele>88.0</ele><time>2026-04-26T08:49:04.156Z</time></trkpt><trkpt lat="40.899175" lon="14.2683817"><ele>88.0</ele><time>2026-04-26T08:49:05.157Z</time></trkpt><trkpt lat="40.8991067" lon="14.268415"><ele>88.0</ele><time>2026-04-26T08:49:06.156Z</time></trkpt><trkpt lat="40.8990383" lon="14.2684433"><ele>88.0</ele><time>2026-04-26T08:49:07.156Z</time></trkpt><trkpt lat="40.8989683" lon="14.2684683"><ele>88.16666666666666</ele><time>2026-04-26T08:49:08.157Z</time></trkpt><trkpt lat="40.8989033" lon="14.2684967"><ele>88.33333333333333</ele><time>2026-04-26T08:49:09.158Z</time></trkpt><trkpt lat="40.8988417" lon="14.268535"><ele>88.5</ele><time>2026-04-26T08:49:10.156Z</time></trkpt><trkpt lat="40.8987867" lon="14.2685817"><ele>88.66666666666667</ele><time>2026-04-26T08:49:11.157Z</time></trkpt><trkpt lat="40.898735" lon="14.2686333"><ele>88.83333333333334</ele><time>2026-04-26T08:49:12.156Z</time></trkpt><trkpt lat="40.8986667" lon="14.2687733"><ele>89.0</ele><time>2026-04-26T08:49:14.158Z</time></trkpt><trkpt lat="40.8986483" lon="14.268855"><ele>89.14285714285714</ele><time>2026-04-26T08:49:15.157Z</time></trkpt><trkpt lat="40.8986367" lon="14.268945"><ele>89.28571428571428</ele><time>2026-04-26T08:49:16.156Z</time></trkpt><trkpt lat="40.89863" lon="14.2690333"><ele>89.42857142857142</ele><time>2026-04-26T08:49:17.157Z</time></trkpt><trkpt lat="40.8986183" lon="14.269125"><ele>89.57142857142857</ele><time>2026-04-26T08:49:18.157Z</time></trkpt><trkpt lat="40.898605" lon="14.2692167"><ele>89.71428571428572</ele><time>2026-04-26T08:49:19.157Z</time></trkpt><trkpt lat="40.898585" lon="14.269305"><ele>89.85714285714285</ele><time>2026-04-26T08:49:20.157Z</time></trkpt><trkpt lat="40.8985533" lon="14.2693917"><ele>90.0</ele><time>2026-04-26T08:49:21.156Z</time></trkpt><trkpt lat="40.8985133" lon="14.2694733"><ele>90.0</ele><time>2026-04-26T08:49:22.158Z</time></trkpt><trkpt lat="40.8984717" lon="14.2695483"><ele>90.0</ele><time>2026-04-26T08:49:23.157Z</time></trkpt><trkpt lat="40.8984283" lon="14.2696233"><ele>90.0</ele><time>2026-04-26T08:49:24.157Z</time></trkpt><trkpt lat="40.8983817" lon="14.2696933"><ele>90.0</ele><time>2026-04-26T08:49:25.157Z</time></trkpt><trkpt lat="40.8983333" lon="14.269765"><ele>90.0</ele><time>2026-04-26T08:49:26.156Z</time></trkpt><trkpt lat="40.8982867" lon="14.26984"><ele>90.0</ele><time>2026-04-26T08:49:27.157Z</time></trkpt><trkpt lat="40.8982383" lon="14.2699117"><ele>90.0</ele><time>2026-04-26T08:49:28.157Z</time></trkpt><trkpt lat="40.8981917" lon="14.269985"><ele>90.0</ele><time>2026-04-26T08:49:29.157Z</time></trkpt><trkpt lat="40.898145" lon="14.2700617"><ele>90.0</ele><time>2026-04-26T08:49:30.157Z</time></trkpt><trkpt lat="40.8981" lon="14.2701383"><ele>90.0</ele><time>2026-04-26T08:49:31.158Z</time></trkpt><trkpt lat="40.8980567" lon="14.2702117"><ele>90.0</ele><time>2026-04-26T08:49:32.157Z</time></trkpt><trkpt lat="40.8980117" lon="14.270285"><ele>90.0</ele><time>2026-04-26T08:49:33.158Z</time></trkpt><trkpt lat="40.8979683" lon="14.2703567"><ele>90.0</ele><time>2026-04-26T08:49:34.157Z</time></trkpt><trkpt lat="40.8979217" lon="14.2704283"><ele>90.0</ele><time>2026-04-26T08:49:35.157Z</time></trkpt><trkpt lat="40.89788" lon="14.270505"><ele>90.0</ele><time>2026-04-26T08:49:36.157Z</time></trkpt><trkpt lat="40.89784" lon="14.2705883"><ele>90.0</ele><time>2026-04-26T08:49:37.156Z</time></trkpt><trkpt lat="40.8978" lon="14.27067"><ele>90.0</ele><time>2026-04-26T08:49:38.157Z</time></trkpt><trkpt lat="40.8977617" lon="14.2707583"><ele>90.0</ele><time>2026-04-26T08:49:39.157Z</time></trkpt><trkpt lat="40.8977233" lon="14.270845"><ele>90.0</ele><time>2026-04-26T08:49:40.157Z</time></trkpt><trkpt lat="40.89769" lon="14.2709317"><ele>90.0</ele><time>2026-04-26T08:49:41.157Z</time></trkpt><trkpt lat="40.897655" lon="14.27101"><ele>90.0</ele><time>2026-04-26T08:49:42.158Z</time></trkpt><trkpt lat="40.8976217" lon="14.2710883"><ele>90.0</ele><time>2026-04-26T08:49:43.156Z</time></trkpt><trkpt lat="40.897575" lon="14.2711567"><ele>90.0</ele><time>2026-04-26T08:49:44.157Z</time></trkpt><trkpt lat="40.897525" lon="14.2712233"><ele>90.0</ele><time>2026-04-26T08:49:45.157Z</time></trkpt><trkpt lat="40.89748" lon="14.2712917"><ele>90.0</ele><time>2026-04-26T08:49:46.156Z</time></trkpt><trkpt lat="40.8974483" lon="14.2713717"><ele>90.0</ele><time>2026-04-26T08:49:47.156Z</time></trkpt><trkpt lat="40.897425" lon="14.271535"><ele>90.0</ele><time>2026-04-26T08:49:49.158Z</time></trkpt><trkpt lat="40.8974133" lon="14.2716183"><ele>90.0</ele><time>2026-04-26T08:49:50.157Z</time></trkpt><trkpt lat="40.8973983" lon="14.271705"><ele>90.0</ele><time>2026-04-26T08:49:51.156Z</time></trkpt><trkpt lat="40.8973767" lon="14.27179"><ele>90.0</ele><time>2026-04-26T08:49:52.157Z</time></trkpt><trkpt lat="40.8973417" lon="14.2718717"><ele>90.0</ele><time>2026-04-26T08:49:53.157Z</time></trkpt><trkpt lat="40.897305" lon="14.2719533"><ele>90.0</ele><time>2026-04-26T08:49:54.157Z</time></trkpt><trkpt lat="40.89727" lon="14.2720417"><ele>90.0</ele><time>2026-04-26T08:49:55.157Z</time></trkpt><trkpt lat="40.8972417" lon="14.27214"><ele>90.0</ele><time>2026-04-26T08:49:56.157Z</time></trkpt><trkpt lat="40.89722" lon="14.27224"><ele>90.16666666666667</ele><time>2026-04-26T08:49:57.158Z</time></trkpt><trkpt lat="40.897205" lon="14.272345"><ele>90.33333333333333</ele><time>2026-04-26T08:49:58.158Z</time></trkpt><trkpt lat="40.8971917" lon="14.27245"><ele>90.5</ele><time>2026-04-26T08:49:59.158Z</time></trkpt><trkpt lat="40.897185" lon="14.2725533"><ele>90.66666666666666</ele><time>2026-04-26T08:50:00.158Z</time></trkpt><trkpt lat="40.8971817" lon="14.27266"><ele>90.83333333333333</ele><time>2026-04-26T08:50:01.157Z</time></trkpt><trkpt lat="40.8971767" lon="14.2727683"><ele>91.0</ele><time>2026-04-26T08:50:02.156Z</time></trkpt><trkpt lat="40.89717" lon="14.2728783"><ele>91.0</ele><time>2026-04-26T08:50:03.16Z</time></trkpt><trkpt lat="40.8971683" lon="14.272985"><ele>91.0</ele><time>2026-04-26T08:50:04.157Z</time></trkpt><trkpt lat="40.8971633" lon="14.2730917"><ele>91.0</ele><time>2026-04-26T08:50:05.156Z</time></trkpt><trkpt lat="40.8971567" lon="14.273195"><ele>91.0</ele><time>2026-04-26T08:50:06.157Z</time></trkpt><trkpt lat="40.89715" lon="14.2732983"><ele>91.0</ele><time>2026-04-26T08:50:07.156Z</time></trkpt><trkpt lat="40.897145" lon="14.2734017"><ele>91.0</ele><time>2026-04-26T08:50:08.157Z</time></trkpt><trkpt lat="40.89714" lon="14.2735017"><ele>91.42857142857143</ele><time>2026-04-26T08:50:09.161Z</time></trkpt><trkpt lat="40.8971367" lon="14.273595"><ele>91.85714285714286</ele><time>2026-04-26T08:50:10.156Z</time></trkpt><trkpt lat="40.8971383" lon="14.273695"><ele>92.28571428571428</ele><time>2026-04-26T08:50:11.156Z</time></trkpt><trkpt lat="40.8971417" lon="14.2737917"><ele>92.71428571428572</ele><time>2026-04-26T08:50:12.156Z</time></trkpt><trkpt lat="40.8971433" lon="14.2738933"><ele>93.14285714285714</ele><time>2026-04-26T08:50:13.158Z</time></trkpt><trkpt lat="40.8971433" lon="14.2739933"><ele>93.57142857142857</ele><time>2026-04-26T08:50:14.158Z</time></trkpt><trkpt lat="40.897145" lon="14.2740917"><ele>94.0</ele><time>2026-04-26T08:50:15.157Z</time></trkpt><trkpt lat="40.897145" lon="14.2741917"><ele>94.33333333333333</ele><time>2026-04-26T08:50:16.16Z</time></trkpt><trkpt lat="40.897145" lon="14.2742933"><ele>94.66666666666666</ele><time>2026-04-26T08:50:17.156Z</time></trkpt><trkpt lat="40.8971433" lon="14.2743967"><ele>95.0</ele><time>2026-04-26T08:50:18.158Z</time></trkpt><trkpt lat="40.8971433" lon="14.2745"><ele>95.33333333333333</ele><time>2026-04-26T08:50:19.157Z</time></trkpt><trkpt lat="40.8971417" lon="14.2746"><ele>95.66666666666667</ele><time>2026-04-26T08:50:20.157Z</time></trkpt><trkpt lat="40.8971417" lon="14.2747033"><ele>96.0</ele><time>2026-04-26T08:50:21.158Z</time></trkpt><trkpt lat="40.8971417" lon="14.274805"><ele>95.33333333333333</ele><time>2026-04-26T08:50:22.157Z</time></trkpt><trkpt lat="40.8971417" lon="14.274905"><ele>94.66666666666667</ele><time>2026-04-26T08:50:23.158Z</time></trkpt><trkpt lat="40.8971433" lon="14.2750067"><ele>94.0</ele><time>2026-04-26T08:50:24.157Z</time></trkpt><trkpt lat="40.897145" lon="14.2751083"><ele>93.33333333333334</ele><time>2026-04-26T08:50:25.156Z</time></trkpt><trkpt lat="40.8971467" lon="14.2752133"><ele>92.66666666666667</ele><time>2026-04-26T08:50:26.158Z</time></trkpt><trkpt lat="40.8971467" lon="14.27532"><ele>92.0</ele><time>2026-04-26T08:50:27.158Z</time></trkpt><trkpt lat="40.8971467" lon="14.2754267"><ele>92.0</ele><time>2026-04-26T08:50:28.156Z</time></trkpt><trkpt lat="40.897145" lon="14.2755333"><ele>92.0</ele><time>2026-04-26T08:50:29.158Z</time></trkpt><trkpt lat="40.897145" lon="14.275635"><ele>92.0</ele><time>2026-04-26T08:50:30.157Z</time></trkpt><trkpt lat="40.8971483" lon="14.275735"><ele>92.0</ele><time>2026-04-26T08:50:31.156Z</time></trkpt><trkpt lat="40.89715" lon="14.275835"><ele>92.0</ele><time>2026-04-26T08:50:32.164Z</time></trkpt><trkpt lat="40.8971517" lon="14.2759333"><ele>92.0</ele><time>2026-04-26T08:50:33.156Z</time></trkpt><trkpt lat="40.8971517" lon="14.27603"><ele>91.16666666666667</ele><time>2026-04-26T08:50:34.156Z</time></trkpt><trkpt lat="40.8971517" lon="14.276125"><ele>90.33333333333334</ele><time>2026-04-26T08:50:35.157Z</time></trkpt><trkpt lat="40.8971483" lon="14.27622"><ele>89.5</ele><time>2026-04-26T08:50:36.157Z</time></trkpt><trkpt lat="40.8971467" lon="14.2763183"><ele>88.66666666666667</ele><time>2026-04-26T08:50:37.158Z</time></trkpt><trkpt lat="40.8971467" lon="14.2764267"><ele>87.83333333333333</ele><time>2026-04-26T08:50:38.157Z</time></trkpt><trkpt lat="40.8971467" lon="14.2765433"><ele>87.0</ele><time>2026-04-26T08:50:39.157Z</time></trkpt><trkpt lat="40.8971483" lon="14.2766633"><ele>86.8</ele><time>2026-04-26T08:50:40.156Z</time></trkpt><trkpt lat="40.8971517" lon="14.2767933"><ele>86.6</ele><time>2026-04-26T08:50:41.158Z</time></trkpt><trkpt lat="40.8971517" lon="14.2769333"><ele>86.39999999999999</ele><time>2026-04-26T08:50:42.158Z</time></trkpt><trkpt lat="40.89715" lon="14.2770783"><ele>86.19999999999999</ele><time>2026-04-26T08:50:43.157Z</time></trkpt><trkpt lat="40.8971367" lon="14.2772183"><ele>86.0</ele><time>2026-04-26T08:50:44.159Z</time></trkpt><trkpt lat="40.8971067" lon="14.2773267"><ele>85.83333333333334</ele><time>2026-04-26T08:50:45.159Z</time></trkpt><trkpt lat="40.8970733" lon="14.2774233"><ele>85.66666666666667</ele><time>2026-04-26T08:50:46.157Z</time></trkpt><trkpt lat="40.897035" lon="14.277515"><ele>85.5</ele><time>2026-04-26T08:50:47.156Z</time></trkpt><trkpt lat="40.89699" lon="14.2776"><ele>85.33333333333333</ele><time>2026-04-26T08:50:48.156Z</time></trkpt><trkpt lat="40.896935" lon="14.27768"><ele>85.16666666666666</ele><time>2026-04-26T08:50:49.156Z</time></trkpt><trkpt lat="40.8968767" lon="14.2777467"><ele>85.0</ele><time>2026-04-26T08:50:50.156Z</time></trkpt><trkpt lat="40.8968133" lon="14.2778"><ele>85.0</ele><time>2026-04-26T08:50:51.158Z</time></trkpt><trkpt lat="40.8967433" lon="14.2778317"><ele>85.0</ele><time>2026-04-26T08:50:52.157Z</time></trkpt><trkpt lat="40.896675" lon="14.2778583"><ele>85.0</ele><time>2026-04-26T08:50:53.156Z</time></trkpt><trkpt lat="40.8966067" lon="14.2778717"><ele>85.0</ele><time>2026-04-26T08:50:54.158Z</time></trkpt><trkpt lat="40.8965367" lon="14.2778783"><ele>85.0</ele><time>2026-04-26T08:50:55.156Z</time></trkpt><trkpt lat="40.8964133" lon="14.2778983"><ele>85.0</ele><time>2026-04-26T08:50:57.157Z</time></trkpt><trkpt lat="40.8963483" lon="14.2779033"><ele>85.0</ele><time>2026-04-26T08:50:58.157Z</time></trkpt><trkpt lat="40.896225" lon="14.2779217"><ele>85.0</ele><time>2026-04-26T08:51:00.157Z</time></trkpt><trkpt lat="40.8961583" lon="14.2779283"><ele>85.0</ele><time>2026-04-26T08:51:01.158Z</time></trkpt><trkpt lat="40.89609" lon="14.27794"><ele>85.0</ele><time>2026-04-26T08:51:02.159Z</time></trkpt><trkpt lat="40.896015" lon="14.27795"><ele>85.0</ele><time>2026-04-26T08:51:03.158Z</time></trkpt><trkpt lat="40.8959367" lon="14.2779633"><ele>85.0</ele><time>2026-04-26T08:51:04.157Z</time></trkpt><trkpt lat="40.8958517" lon="14.277965"><ele>85.0</ele><time>2026-04-26T08:51:05.156Z</time></trkpt><trkpt lat="40.8957767" lon="14.2779783"><ele>85.0</ele><time>2026-04-26T08:51:06.158Z</time></trkpt><trkpt lat="40.8957" lon="14.2779883"><ele>85.0</ele><time>2026-04-26T08:51:07.157Z</time></trkpt><trkpt lat="40.895625" lon="14.2779933"><ele>85.0</ele><time>2026-04-26T08:51:08.159Z</time></trkpt><trkpt lat="40.8955533" lon="14.2780033"><ele>85.0</ele><time>2026-04-26T08:51:09.156Z</time></trkpt><trkpt lat="40.8954833" lon="14.2780133"><ele>85.0</ele><time>2026-04-26T08:51:10.157Z</time></trkpt><trkpt lat="40.89541" lon="14.278025"><ele>85.0</ele><time>2026-04-26T08:51:11.157Z</time></trkpt><trkpt lat="40.895335" lon="14.2780317"><ele>85.0</ele><time>2026-04-26T08:51:12.16Z</time></trkpt><trkpt lat="40.8952633" lon="14.27804"><ele>85.0</ele><time>2026-04-26T08:51:13.158Z</time></trkpt><trkpt lat="40.8951917" lon="14.27805"><ele>85.0</ele><time>2026-04-26T08:51:14.157Z</time></trkpt><trkpt lat="40.8951183" lon="14.2780617"><ele>85.0</ele><time>2026-04-26T08:51:15.159Z</time></trkpt><trkpt lat="40.89505" lon="14.2780733"><ele>85.0</ele><time>2026-04-26T08:51:16.158Z</time></trkpt><trkpt lat="40.8949833" lon="14.2780833"><ele>85.0</ele><time>2026-04-26T08:51:17.156Z</time></trkpt><trkpt lat="40.8949133" lon="14.2780933"><ele>85.0</ele><time>2026-04-26T08:51:18.157Z</time></trkpt><trkpt lat="40.894835" lon="14.2781117"><ele>85.0</ele><time>2026-04-26T08:51:19.156Z</time></trkpt><trkpt lat="40.8947617" lon="14.27813"><ele>85.0</ele><time>2026-04-26T08:51:20.157Z</time></trkpt><trkpt lat="40.8946867" lon="14.2781467"><ele>85.0</ele><time>2026-04-26T08:51:21.157Z</time></trkpt><trkpt lat="40.8946117" lon="14.2781567"><ele>85.0</ele><time>2026-04-26T08:51:22.157Z</time></trkpt><trkpt lat="40.8945383" lon="14.2781683"><ele>85.0</ele><time>2026-04-26T08:51:23.156Z</time></trkpt><trkpt lat="40.8944683" lon="14.27818"><ele>85.0</ele><time>2026-04-26T08:51:24.157Z</time></trkpt><trkpt lat="40.8943967" lon="14.2781883"><ele>85.0</ele><time>2026-04-26T08:51:25.158Z</time></trkpt><trkpt lat="40.8943267" lon="14.2782033"><ele>85.0</ele><time>2026-04-26T08:51:26.157Z</time></trkpt><trkpt lat="40.89426" lon="14.2782117"><ele>85.0</ele><time>2026-04-26T08:51:27.157Z</time></trkpt><trkpt lat="40.8941933" lon="14.278225"><ele>85.0</ele><time>2026-04-26T08:51:28.156Z</time></trkpt><trkpt lat="40.8941233" lon="14.2782383"><ele>85.0</ele><time>2026-04-26T08:51:29.157Z</time></trkpt><trkpt lat="40.894055" lon="14.2782483"><ele>85.0</ele><time>2026-04-26T08:51:30.157Z</time></trkpt><trkpt lat="40.8939917" lon="14.2782583"><ele>85.0</ele><time>2026-04-26T08:51:31.157Z</time></trkpt><trkpt lat="40.89386" lon="14.2782717"><ele>85.4</ele><time>2026-04-26T08:51:33.156Z</time></trkpt><trkpt lat="40.893795" lon="14.278275"><ele>85.8</ele><time>2026-04-26T08:51:34.16Z</time></trkpt><trkpt lat="40.893685" lon="14.2783133"><ele>86.19999999999999</ele><time>2026-04-26T08:51:36.158Z</time></trkpt><trkpt lat="40.89359" lon="14.27835"><ele>86.6</ele><time>2026-04-26T08:51:38.158Z</time></trkpt><trkpt lat="40.8934983" lon="14.2783667"><ele>87.0</ele><time>2026-04-26T08:51:40.16Z</time></trkpt><trkpt lat="40.8934033" lon="14.2783717"><ele>87.5</ele><time>2026-04-26T08:51:42.157Z</time></trkpt><trkpt lat="40.89329" lon="14.27838"><ele>88.0</ele><time>2026-04-26T08:51:44.157Z</time></trkpt><trkpt lat="40.8931767" lon="14.2783817"><ele>88.5</ele><time>2026-04-26T08:51:46.157Z</time></trkpt><trkpt lat="40.89305" lon="14.2784017"><ele>89.0</ele><time>2026-04-26T08:51:48.158Z</time></trkpt><trkpt lat="40.8929267" lon="14.27843"><ele>89.0</ele><time>2026-04-26T08:51:50.157Z</time></trkpt><trkpt lat="40.8928083" lon="14.278445"><ele>89.0</ele><time>2026-04-26T08:51:52.156Z</time></trkpt><trkpt lat="40.8926867" lon="14.278465"><ele>89.0</ele><time>2026-04-26T08:51:54.158Z</time></trkpt><trkpt lat="40.8925667" lon="14.2784717"><ele>89.0</ele><time>2026-04-26T08:51:56.157Z</time></trkpt><trkpt lat="40.892445" lon="14.2784783"><ele>90.0</ele><time>2026-04-26T08:51:58.158Z</time></trkpt><trkpt lat="40.89238" lon="14.2784783"><ele>91.0</ele><time>2026-04-26T08:51:59.156Z</time></trkpt><trkpt lat="40.892315" lon="14.2784833"><ele>92.0</ele><time>2026-04-26T08:52:00.157Z</time></trkpt><trkpt lat="40.89225" lon="14.278495"><ele>93.0</ele><time>2026-04-26T08:52:01.158Z</time></trkpt><trkpt lat="40.8921867" lon="14.278515"><ele>94.0</ele><time>2026-04-26T08:52:02.159Z</time></trkpt><trkpt lat="40.8920717" lon="14.2785417"><ele>95.0</ele><time>2026-04-26T08:52:04.158Z</time></trkpt><trkpt lat="40.89195" lon="14.2785567"><ele>95.0</ele><time>2026-04-26T08:52:06.159Z</time></trkpt><trkpt lat="40.8918267" lon="14.278565"><ele>95.0</ele><time>2026-04-26T08:52:08.157Z</time></trkpt><trkpt lat="40.8917083" lon="14.2785717"><ele>95.0</ele><time>2026-04-26T08:52:10.157Z</time></trkpt><trkpt lat="40.8915883" lon="14.2785983"><ele>95.0</ele><time>2026-04-26T08:52:12.157Z</time></trkpt><trkpt lat="40.891475" lon="14.2786133"><ele>94.6</ele><time>2026-04-26T08:52:14.157Z</time></trkpt><trkpt lat="40.8913667" lon="14.2786083"><ele>94.2</ele><time>2026-04-26T08:52:16.158Z</time></trkpt><trkpt lat="40.891265" lon="14.27861"><ele>93.80000000000001</ele><time>2026-04-26T08:52:18.156Z</time></trkpt><trkpt lat="40.8911717" lon="14.27861"><ele>93.4</ele><time>2026-04-26T08:52:20.157Z</time></trkpt><trkpt lat="40.8911517" lon="14.2786983"><ele>93.0</ele><time>2026-04-26T08:52:25.157Z</time></trkpt><trkpt lat="40.8911983" lon="14.27878"><ele>93.0</ele><time>2026-04-26T08:52:27.157Z</time></trkpt><trkpt lat="40.891275" lon="14.2788733"><ele>93.0</ele><time>2026-04-26T08:52:29.158Z</time></trkpt><trkpt lat="40.8913517" lon="14.2789317"><ele>93.0</ele><time>2026-04-26T08:52:31.157Z</time></trkpt><trkpt lat="40.8914117" lon="14.2790183"><ele>93.0</ele><time>2026-04-26T08:52:34.157Z</time></trkpt><trkpt lat="40.8914883" lon="14.279115"><ele>93.0</ele><time>2026-04-26T08:52:37.156Z</time></trkpt><trkpt lat="40.8915633" lon="14.2791517"><ele>92.5</ele><time>2026-04-26T08:52:39.157Z</time></trkpt><trkpt lat="40.8916483" lon="14.279195"><ele>92.0</ele><time>2026-04-26T08:52:41.157Z</time></trkpt><trkpt lat="40.891725" lon="14.2792583"><ele>91.5</ele><time>2026-04-26T08:52:43.158Z</time></trkpt><trkpt lat="40.8917367" lon="14.279365"><ele>91.0</ele><time>2026-04-26T08:52:46.159Z</time></trkpt><trkpt lat="40.891665" lon="14.2794267"><ele>90.5</ele><time>2026-04-26T08:52:48.157Z</time></trkpt><trkpt lat="40.891595" lon="14.27951"><ele>90.0</ele><time>2026-04-26T08:52:50.158Z</time></trkpt><trkpt lat="40.891515" lon="14.2795883"><ele>90.0</ele><time>2026-04-26T08:52:52.157Z</time></trkpt><trkpt lat="40.8914267" lon="14.27965"><ele>90.0</ele><time>2026-04-26T08:52:54.157Z</time></trkpt><trkpt lat="40.8913417" lon="14.2797383"><ele>90.0</ele><time>2026-04-26T08:52:56.157Z</time></trkpt><trkpt lat="40.8912583" lon="14.2798383"><ele>90.0</ele><time>2026-04-26T08:52:58.156Z</time></trkpt><trkpt lat="40.891175" lon="14.279925"><ele>90.0</ele><time>2026-04-26T08:53:00.158Z</time></trkpt><trkpt lat="40.89109" lon="14.280005"><ele>89.4</ele><time>2026-04-26T08:53:02.158Z</time></trkpt><trkpt lat="40.89101" lon="14.2800767"><ele>88.8</ele><time>2026-04-26T08:53:04.156Z</time></trkpt><trkpt lat="40.8909217" lon="14.280135"><ele>88.19999999999999</ele><time>2026-04-26T08:53:06.157Z</time></trkpt><trkpt lat="40.8908333" lon="14.2802183"><ele>87.6</ele><time>2026-04-26T08:53:08.158Z</time></trkpt><trkpt lat="40.89074" lon="14.2803067"><ele>87.0</ele><time>2026-04-26T08:53:10.158Z</time></trkpt><trkpt lat="40.8906367" lon="14.2804"><ele>86.8</ele><time>2026-04-26T08:53:12.157Z</time></trkpt><trkpt lat="40.8905817" lon="14.28045"><ele>86.6</ele><time>2026-04-26T08:53:13.157Z</time></trkpt><trkpt lat="40.89048" lon="14.28054"><ele>86.39999999999999</ele><time>2026-04-26T08:53:15.158Z</time></trkpt><trkpt lat="40.8903733" lon="14.28063"><ele>86.19999999999999</ele><time>2026-04-26T08:53:17.158Z</time></trkpt><trkpt lat="40.8902783" lon="14.2807217"><ele>86.0</ele><time>2026-04-26T08:53:19.157Z</time></trkpt><trkpt lat="40.89019" lon="14.2808133"><ele>85.83333333333334</ele><time>2026-04-26T08:53:21.158Z</time></trkpt><trkpt lat="40.89011" lon="14.2808933"><ele>85.66666666666667</ele><time>2026-04-26T08:53:23.157Z</time></trkpt><trkpt lat="40.8900817" lon="14.2809683"><ele>85.5</ele><time>2026-04-26T08:53:25.158Z</time></trkpt><trkpt lat="40.8901317" lon="14.281075"><ele>85.33333333333333</ele><time>2026-04-26T08:53:27.158Z</time></trkpt><trkpt lat="40.8901917" lon="14.2811483"><ele>85.16666666666666</ele><time>2026-04-26T08:53:28.158Z</time></trkpt><trkpt lat="40.8902417" lon="14.281225"><ele>85.0</ele><time>2026-04-26T08:53:29.157Z</time></trkpt><trkpt lat="40.8903017" lon="14.2812967"><ele>85.0</ele><time>2026-04-26T08:53:30.157Z</time></trkpt><trkpt lat="40.89036" lon="14.2813633"><ele>85.0</ele><time>2026-04-26T08:53:31.156Z</time></trkpt><trkpt lat="40.8904067" lon="14.2814467"><ele>85.0</ele><time>2026-04-26T08:53:32.157Z</time></trkpt><trkpt lat="40.8904817" lon="14.2815717"><ele>85.0</ele><time>2026-04-26T08:53:34.156Z</time></trkpt><trkpt lat="40.89056" lon="14.2817033"><ele>85.0</ele><time>2026-04-26T08:53:36.157Z</time></trkpt><trkpt lat="40.8906067" lon="14.2817783"><ele>85.14285714285715</ele><time>2026-04-26T08:53:37.156Z</time></trkpt><trkpt lat="40.8906517" lon="14.281845"><ele>85.28571428571428</ele><time>2026-04-26T08:53:38.157Z</time></trkpt><trkpt lat="40.8906917" lon="14.281915"><ele>85.42857142857143</ele><time>2026-04-26T08:53:39.156Z</time></trkpt><trkpt lat="40.8907483" lon="14.281975"><ele>85.57142857142858</ele><time>2026-04-26T08:53:40.156Z</time></trkpt><trkpt lat="40.8907967" lon="14.2820417"><ele>85.71428571428572</ele><time>2026-04-26T08:53:41.156Z</time></trkpt><trkpt lat="40.8908617" lon="14.282125"><ele>85.85714285714286</ele><time>2026-04-26T08:53:42.156Z</time></trkpt><trkpt lat="40.8909217" lon="14.2821917"><ele>86.0</ele><time>2026-04-26T08:53:43.156Z</time></trkpt><trkpt lat="40.890975" lon="14.28226"><ele>86.19999999999999</ele><time>2026-04-26T08:53:44.157Z</time></trkpt><trkpt lat="40.891035" lon="14.282315"><ele>86.39999999999999</ele><time>2026-04-26T08:53:45.157Z</time></trkpt><trkpt lat="40.8911217" lon="14.2824383"><ele>86.6</ele><time>2026-04-26T08:53:47.157Z</time></trkpt><trkpt lat="40.8912033" lon="14.2825567"><ele>86.8</ele><time>2026-04-26T08:53:49.157Z</time></trkpt><trkpt lat="40.891245" lon="14.2826367"><ele>87.0</ele><time>2026-04-26T08:53:51.156Z</time></trkpt><trkpt lat="40.8912717" lon="14.28274"><ele>87.0</ele><time>2026-04-26T08:53:54.156Z</time></trkpt><trkpt lat="40.8912317" lon="14.282825"><ele>87.0</ele><time>2026-04-26T08:53:57.156Z</time></trkpt><trkpt lat="40.8911783" lon="14.2829283"><ele>87.0</ele><time>2026-04-26T08:54:00.156Z</time></trkpt><trkpt lat="40.8911217" lon="14.2829833"><ele>87.0</ele><time>2026-04-26T08:54:02.156Z</time></trkpt><trkpt lat="40.8911917" lon="14.2830817"><ele>87.0</ele><time>2026-04-26T08:54:05.156Z</time></trkpt><trkpt lat="40.89128" lon="14.2831333"><ele>87.0</ele><time>2026-04-26T08:54:07.156Z</time></trkpt><trkpt lat="40.8913717" lon="14.2831933"><ele>86.5</ele><time>2026-04-26T08:54:09.156Z</time></trkpt><trkpt lat="40.8914767" lon="14.28325"><ele>86.0</ele><time>2026-04-26T08:54:11.156Z</time></trkpt><trkpt lat="40.89158" lon="14.2833"><ele>85.5</ele><time>2026-04-26T08:54:13.157Z</time></trkpt><trkpt lat="40.8916883" lon="14.2833533"><ele>85.0</ele><time>2026-04-26T08:54:15.156Z</time></trkpt><trkpt lat="40.8918067" lon="14.283425"><ele>85.0</ele><time>2026-04-26T08:54:17.157Z</time></trkpt><trkpt lat="40.8918667" lon="14.2834633"><ele>85.0</ele><time>2026-04-26T08:54:18.156Z</time></trkpt><trkpt lat="40.8919767" lon="14.2835483"><ele>85.0</ele><time>2026-04-26T08:54:20.157Z</time></trkpt><trkpt lat="40.8920283" lon="14.2836"><ele>85.0</ele><time>2026-04-26T08:54:21.157Z</time></trkpt><trkpt lat="40.8920767" lon="14.283655"><ele>85.0</ele><time>2026-04-26T08:54:22.157Z</time></trkpt><trkpt lat="40.8921367" lon="14.2837017"><ele>85.0</ele><time>2026-04-26T08:54:23.156Z</time></trkpt><trkpt lat="40.8921883" lon="14.2837583"><ele>85.0</ele><time>2026-04-26T08:54:24.156Z</time></trkpt><trkpt lat="40.8922417" lon="14.283815"><ele>85.0</ele><time>2026-04-26T08:54:25.157Z</time></trkpt><trkpt lat="40.8922933" lon="14.28387"><ele>85.0</ele><time>2026-04-26T08:54:26.156Z</time></trkpt><trkpt lat="40.892345" lon="14.283925"><ele>85.0</ele><time>2026-04-26T08:54:27.156Z</time></trkpt><trkpt lat="40.8923917" lon="14.2839817"><ele>85.0</ele><time>2026-04-26T08:54:28.156Z</time></trkpt><trkpt lat="40.89244" lon="14.2840367"><ele>85.0</ele><time>2026-04-26T08:54:29.155Z</time></trkpt><trkpt lat="40.892495" lon="14.2840867"><ele>85.0</ele><time>2026-04-26T08:54:30.157Z</time></trkpt><trkpt lat="40.892545" lon="14.2841383"><ele>85.16666666666666</ele><time>2026-04-26T08:54:31.156Z</time></trkpt><trkpt lat="40.8926267" lon="14.2842533"><ele>85.33333333333333</ele><time>2026-04-26T08:54:33.156Z</time></trkpt><trkpt lat="40.8926633" lon="14.284325"><ele>85.5</ele><time>2026-04-26T08:54:34.156Z</time></trkpt><trkpt lat="40.89274" lon="14.2844567"><ele>85.66666666666667</ele><time>2026-04-26T08:54:36.156Z</time></trkpt><trkpt lat="40.8927783" lon="14.2845267"><ele>85.83333333333334</ele><time>2026-04-26T08:54:37.156Z</time></trkpt><trkpt lat="40.8928233" lon="14.2845983"><ele>86.0</ele><time>2026-04-26T08:54:38.156Z</time></trkpt><trkpt lat="40.8928617" lon="14.2846683"><ele>86.00000000000001</ele><time>2026-04-26T08:54:39.157Z</time></trkpt><trkpt lat="40.8929017" lon="14.28474"><ele>86.0</ele><time>2026-04-26T08:54:40.157Z</time></trkpt><trkpt lat="40.8929417" lon="14.2848117"><ele>86.0</ele><time>2026-04-26T08:54:41.156Z</time></trkpt><trkpt lat="40.8929783" lon="14.2848833"><ele>86.0</ele><time>2026-04-26T08:54:42.157Z</time></trkpt><trkpt lat="40.893015" lon="14.2849617"><ele>86.0</ele><time>2026-04-26T08:54:43.156Z</time></trkpt><trkpt lat="40.89305" lon="14.2850417"><ele>86.00000000000001</ele><time>2026-04-26T08:54:44.157Z</time></trkpt><trkpt lat="40.893085" lon="14.28512"><ele>86.0</ele><time>2026-04-26T08:54:45.157Z</time></trkpt><trkpt lat="40.8931183" lon="14.2851983"><ele>85.83333333333334</ele><time>2026-04-26T08:54:46.156Z</time></trkpt><trkpt lat="40.89315" lon="14.2852817"><ele>85.66666666666667</ele><time>2026-04-26T08:54:47.156Z</time></trkpt><trkpt lat="40.8931783" lon="14.2853583"><ele>85.5</ele><time>2026-04-26T08:54:48.156Z</time></trkpt><trkpt lat="40.8932083" lon="14.2854367"><ele>85.33333333333333</ele><time>2026-04-26T08:54:49.156Z</time></trkpt><trkpt lat="40.89326" lon="14.285565"><ele>85.16666666666666</ele><time>2026-04-26T08:54:51.157Z</time></trkpt><trkpt lat="40.8933167" lon="14.2856667"><ele>85.0</ele><time>2026-04-26T08:54:53.157Z</time></trkpt><trkpt lat="40.89334" lon="14.2857717"><ele>84.5</ele><time>2026-04-26T08:54:55.156Z</time></trkpt><trkpt lat="40.8933567" lon="14.285875"><ele>84.0</ele><time>2026-04-26T08:54:57.157Z</time></trkpt><trkpt lat="40.89338" lon="14.28598"><ele>83.5</ele><time>2026-04-26T08:54:59.157Z</time></trkpt><trkpt lat="40.8934033" lon="14.2860867"><ele>83.0</ele><time>2026-04-26T08:55:01.155Z</time></trkpt><trkpt lat="40.8934333" lon="14.2862017"><ele>82.5</ele><time>2026-04-26T08:55:03.155Z</time></trkpt><trkpt lat="40.8934667" lon="14.2863233"><ele>82.0</ele><time>2026-04-26T08:55:05.156Z</time></trkpt><trkpt lat="40.8934967" lon="14.2864367"><ele>81.6</ele><time>2026-04-26T08:55:07.158Z</time></trkpt><trkpt lat="40.89353" lon="14.2865517"><ele>81.19999999999999</ele><time>2026-04-26T08:55:09.158Z</time></trkpt><trkpt lat="40.893555" lon="14.286665"><ele>80.8</ele><time>2026-04-26T08:55:11.157Z</time></trkpt><trkpt lat="40.8935933" lon="14.2867733"><ele>80.4</ele><time>2026-04-26T08:55:13.157Z</time></trkpt><trkpt lat="40.8936217" lon="14.286885"><ele>80.0</ele><time>2026-04-26T08:55:15.159Z</time></trkpt><trkpt lat="40.89364" lon="14.2870033"><ele>80.0</ele><time>2026-04-26T08:55:17.157Z</time></trkpt><trkpt lat="40.893655" lon="14.287115"><ele>80.0</ele><time>2026-04-26T08:55:19.156Z</time></trkpt><trkpt lat="40.8936817" lon="14.2872133"><ele>80.0</ele><time>2026-04-26T08:55:21.157Z</time></trkpt><trkpt lat="40.8937017" lon="14.287315"><ele>80.0</ele><time>2026-04-26T08:55:23.157Z</time></trkpt><trkpt lat="40.8937283" lon="14.2874067"><ele>80.0</ele><time>2026-04-26T08:55:25.156Z</time></trkpt><trkpt lat="40.89375" lon="14.287485"><ele>80.0</ele><time>2026-04-26T08:55:27.157Z</time></trkpt><trkpt lat="40.8936533" lon="14.2875833"><ele>80.0</ele><time>2026-04-26T08:55:28.156Z</time></trkpt><trkpt lat="40.89368" lon="14.2876683"><ele>80.0</ele><time>2026-04-26T08:55:30.157Z</time></trkpt><trkpt lat="40.89372" lon="14.28775"><ele>80.0</ele><time>2026-04-26T08:55:32.158Z</time></trkpt><trkpt lat="40.89377" lon="14.2878417"><ele>80.0</ele><time>2026-04-26T08:55:35.156Z</time></trkpt></trkseg></trk></gpx>